<?xml version="1.0" encoding="utf-8" standalone="yes"?>
<gpx version="1.1" creator="Locus Map, Android"
 xmlns="http://www.topografix.com/GPX/1/1"
 xmlns:xsi="http://www.w3.org/2001/XMLSchema-instance"
 xsi:schemaLocation="http://www.topografix.com/GPX/1/1 http://www.topografix.com/GPX/1/1/gpx.xsd"
 xmlns:gpxx="http://www.garmin.com/xmlschemas/GpxExtensions/v3"
 xmlns:gpxtrkx="http://www.garmin.com/xmlschemas/TrackStatsExtension/v1"
 xmlns:gpxtpx="http://www.garmin.com/xmlschemas/TrackPointExtension/v2"
 xmlns:locus="http://www.locusmap.eu">
	<metadata>
		<desc>File with points/tracks from Locus Map Classic/3.70.1</desc>
		<time>2023-10-07T15:38:53.501Z</time>
	</metadata>
<trk>
<name>Pizzo Baciamorti</name>
	<extensions>
		<line xmlns="http://www.topografix.com/GPX/gpx_style/0/2">
			<color>0000FF</color>
			<opacity>0.59</opacity>
			<width>6.0</width>
			<extensions>
				<locus:lsColorBase>#960000FF</locus:lsColorBase>
				<locus:lsWidth>6.0</locus:lsWidth>
				<locus:lsUnits>PIXELS</locus:lsUnits>
			</extensions>
		</line>
	</extensions>
<trkseg>
<trkpt lat="45.9221520" lon="9.5822170">
	<ele>1161.00</ele>
	<time>2023-10-07T05:52:44.000Z</time>
</trkpt>
<trkpt lat="45.9221540" lon="9.5822260">
	<ele>1161.00</ele>
	<time>2023-10-07T05:52:45.000Z</time>
</trkpt>
<trkpt lat="45.9221600" lon="9.5822350">
	<ele>1161.00</ele>
	<time>2023-10-07T05:52:46.000Z</time>
</trkpt>
<trkpt lat="45.9221660" lon="9.5822360">
	<ele>1161.00</ele>
	<time>2023-10-07T05:52:47.000Z</time>
</trkpt>
<trkpt lat="45.9221730" lon="9.5822360">
	<ele>1161.00</ele>
	<time>2023-10-07T05:52:48.000Z</time>
</trkpt>
<trkpt lat="45.9221810" lon="9.5822320">
	<ele>1161.00</ele>
	<time>2023-10-07T05:52:49.000Z</time>
</trkpt>
<trkpt lat="45.9221870" lon="9.5822320">
	<ele>1161.00</ele>
	<time>2023-10-07T05:52:50.000Z</time>
</trkpt>
<trkpt lat="45.9221950" lon="9.5822310">
	<ele>1161.00</ele>
	<time>2023-10-07T05:52:51.000Z</time>
</trkpt>
<trkpt lat="45.9221990" lon="9.5822330">
	<ele>1161.00</ele>
	<time>2023-10-07T05:52:52.000Z</time>
</trkpt>
<trkpt lat="45.9222030" lon="9.5822350">
	<ele>1161.00</ele>
	<time>2023-10-07T05:52:53.000Z</time>
</trkpt>
<trkpt lat="45.9222030" lon="9.5822370">
	<ele>1161.00</ele>
	<time>2023-10-07T05:52:54.000Z</time>
</trkpt>
<trkpt lat="45.9222010" lon="9.5822380">
	<ele>1161.00</ele>
	<time>2023-10-07T05:52:55.000Z</time>
</trkpt>
<trkpt lat="45.9222010" lon="9.5822370">
	<ele>1161.00</ele>
	<time>2023-10-07T05:52:56.000Z</time>
</trkpt>
<trkpt lat="45.9222040" lon="9.5822350">
	<ele>1161.00</ele>
	<time>2023-10-07T05:52:57.000Z</time>
</trkpt>
<trkpt lat="45.9222040" lon="9.5822320">
	<ele>1161.00</ele>
	<time>2023-10-07T05:52:58.000Z</time>
</trkpt>
<trkpt lat="45.9222090" lon="9.5822360">
	<ele>1161.00</ele>
	<time>2023-10-07T05:52:59.000Z</time>
</trkpt>
<trkpt lat="45.9222150" lon="9.5822360">
	<ele>1161.00</ele>
	<time>2023-10-07T05:53:00.000Z</time>
</trkpt>
<trkpt lat="45.9222240" lon="9.5822300">
	<ele>1161.00</ele>
	<time>2023-10-07T05:53:01.000Z</time>
</trkpt>
<trkpt lat="45.9222280" lon="9.5822340">
	<ele>1161.00</ele>
	<time>2023-10-07T05:53:02.000Z</time>
</trkpt>
<trkpt lat="45.9222240" lon="9.5822470">
	<ele>1161.00</ele>
	<time>2023-10-07T05:53:03.000Z</time>
</trkpt>
<trkpt lat="45.9222150" lon="9.5822670">
	<ele>1161.00</ele>
	<time>2023-10-07T05:53:04.000Z</time>
</trkpt>
<trkpt lat="45.9222070" lon="9.5822800">
	<ele>1161.00</ele>
	<time>2023-10-07T05:53:05.000Z</time>
</trkpt>
<trkpt lat="45.9222020" lon="9.5822890">
	<ele>1161.00</ele>
	<time>2023-10-07T05:53:06.000Z</time>
</trkpt>
<trkpt lat="45.9222010" lon="9.5822900">
	<ele>1161.00</ele>
	<time>2023-10-07T05:53:07.000Z</time>
</trkpt>
<trkpt lat="45.9221990" lon="9.5822930">
	<ele>1161.00</ele>
	<time>2023-10-07T05:53:08.000Z</time>
</trkpt>
<trkpt lat="45.9221990" lon="9.5822930">
	<ele>1161.00</ele>
	<time>2023-10-07T05:53:09.000Z</time>
</trkpt>
<trkpt lat="45.9221990" lon="9.5822930">
	<ele>1161.00</ele>
	<time>2023-10-07T05:53:10.000Z</time>
</trkpt>
<trkpt lat="45.9221990" lon="9.5822930">
	<ele>1161.00</ele>
	<time>2023-10-07T05:53:11.000Z</time>
</trkpt>
<trkpt lat="45.9221990" lon="9.5822930">
	<ele>1161.00</ele>
	<time>2023-10-07T05:53:12.000Z</time>
</trkpt>
<trkpt lat="45.9221990" lon="9.5822930">
	<ele>1161.00</ele>
	<time>2023-10-07T05:53:13.000Z</time>
</trkpt>
<trkpt lat="45.9221990" lon="9.5822930">
	<ele>1161.00</ele>
	<time>2023-10-07T05:53:14.000Z</time>
</trkpt>
<trkpt lat="45.9221990" lon="9.5822930">
	<ele>1161.00</ele>
	<time>2023-10-07T05:53:15.000Z</time>
</trkpt>
<trkpt lat="45.9221990" lon="9.5822930">
	<ele>1161.00</ele>
	<time>2023-10-07T05:53:16.000Z</time>
</trkpt>
<trkpt lat="45.9221990" lon="9.5822930">
	<ele>1161.00</ele>
	<time>2023-10-07T05:53:17.000Z</time>
</trkpt>
<trkpt lat="45.9221940" lon="9.5822990">
	<ele>1161.00</ele>
	<time>2023-10-07T05:53:18.000Z</time>
</trkpt>
<trkpt lat="45.9221850" lon="9.5823200">
	<ele>1161.00</ele>
	<time>2023-10-07T05:53:19.000Z</time>
</trkpt>
<trkpt lat="45.9221790" lon="9.5823340">
	<ele>1161.00</ele>
	<time>2023-10-07T05:53:20.000Z</time>
</trkpt>
<trkpt lat="45.9221760" lon="9.5823450">
	<ele>1161.00</ele>
	<time>2023-10-07T05:53:21.000Z</time>
</trkpt>
<trkpt lat="45.9221720" lon="9.5823510">
	<ele>1161.00</ele>
	<time>2023-10-07T05:53:22.000Z</time>
</trkpt>
<trkpt lat="45.9221690" lon="9.5823450">
	<ele>1161.00</ele>
	<time>2023-10-07T05:53:23.000Z</time>
</trkpt>
<trkpt lat="45.9221640" lon="9.5823390">
	<ele>1161.00</ele>
	<time>2023-10-07T05:53:24.000Z</time>
</trkpt>
<trkpt lat="45.9221620" lon="9.5823320">
	<ele>1161.00</ele>
	<time>2023-10-07T05:53:25.000Z</time>
</trkpt>
<trkpt lat="45.9221610" lon="9.5823290">
	<ele>1161.00</ele>
	<time>2023-10-07T05:53:26.000Z</time>
</trkpt>
<trkpt lat="45.9221600" lon="9.5823280">
	<ele>1161.00</ele>
	<time>2023-10-07T05:53:27.000Z</time>
</trkpt>
<trkpt lat="45.9221650" lon="9.5823260">
	<ele>1161.00</ele>
	<time>2023-10-07T05:53:28.000Z</time>
</trkpt>
<trkpt lat="45.9221720" lon="9.5823270">
	<ele>1161.00</ele>
	<time>2023-10-07T05:53:29.000Z</time>
</trkpt>
<trkpt lat="45.9221790" lon="9.5823290">
	<ele>1161.00</ele>
	<time>2023-10-07T05:53:30.000Z</time>
</trkpt>
<trkpt lat="45.9221850" lon="9.5823260">
	<ele>1161.00</ele>
	<time>2023-10-07T05:53:31.000Z</time>
</trkpt>
<trkpt lat="45.9221900" lon="9.5823250">
	<ele>1161.00</ele>
	<time>2023-10-07T05:53:32.000Z</time>
</trkpt>
<trkpt lat="45.9221920" lon="9.5823320">
	<ele>1161.00</ele>
	<time>2023-10-07T05:53:33.000Z</time>
</trkpt>
<trkpt lat="45.9221920" lon="9.5823380">
	<ele>1161.00</ele>
	<time>2023-10-07T05:53:34.000Z</time>
</trkpt>
<trkpt lat="45.9221930" lon="9.5823390">
	<ele>1161.00</ele>
	<time>2023-10-07T05:53:35.000Z</time>
</trkpt>
<trkpt lat="45.9221950" lon="9.5823420">
	<ele>1161.00</ele>
	<time>2023-10-07T05:53:36.000Z</time>
</trkpt>
<trkpt lat="45.9221970" lon="9.5823430">
	<ele>1161.00</ele>
	<time>2023-10-07T05:53:37.000Z</time>
</trkpt>
<trkpt lat="45.9222030" lon="9.5823370">
	<ele>1161.00</ele>
	<time>2023-10-07T05:53:38.000Z</time>
</trkpt>
<trkpt lat="45.9222050" lon="9.5823270">
	<ele>1161.00</ele>
	<time>2023-10-07T05:53:39.000Z</time>
</trkpt>
<trkpt lat="45.9222030" lon="9.5823310">
	<ele>1161.00</ele>
	<time>2023-10-07T05:53:40.000Z</time>
</trkpt>
<trkpt lat="45.9222000" lon="9.5823390">
	<ele>1161.00</ele>
	<time>2023-10-07T05:53:41.000Z</time>
</trkpt>
<trkpt lat="45.9222010" lon="9.5823400">
	<ele>1161.00</ele>
	<time>2023-10-07T05:53:42.000Z</time>
</trkpt>
<trkpt lat="45.9222040" lon="9.5823310">
	<ele>1161.00</ele>
	<time>2023-10-07T05:53:43.000Z</time>
</trkpt>
<trkpt lat="45.9222040" lon="9.5823210">
	<ele>1161.00</ele>
	<time>2023-10-07T05:53:44.000Z</time>
</trkpt>
<trkpt lat="45.9222000" lon="9.5823120">
	<ele>1161.00</ele>
	<time>2023-10-07T05:53:45.000Z</time>
</trkpt>
<trkpt lat="45.9221940" lon="9.5823070">
	<ele>1161.00</ele>
	<time>2023-10-07T05:53:46.000Z</time>
</trkpt>
<trkpt lat="45.9221860" lon="9.5823080">
	<ele>1161.00</ele>
	<time>2023-10-07T05:53:47.000Z</time>
</trkpt>
<trkpt lat="45.9221800" lon="9.5823100">
	<ele>1161.00</ele>
	<time>2023-10-07T05:53:48.000Z</time>
</trkpt>
<trkpt lat="45.9221760" lon="9.5823070">
	<ele>1161.00</ele>
	<time>2023-10-07T05:53:49.000Z</time>
</trkpt>
<trkpt lat="45.9221740" lon="9.5823130">
	<ele>1161.00</ele>
	<time>2023-10-07T05:53:50.000Z</time>
</trkpt>
<trkpt lat="45.9221720" lon="9.5823250">
	<ele>1161.40</ele>
	<time>2023-10-07T05:53:51.000Z</time>
</trkpt>
<trkpt lat="45.9221730" lon="9.5823340">
	<ele>1161.60</ele>
	<time>2023-10-07T05:53:52.000Z</time>
</trkpt>
<trkpt lat="45.9221750" lon="9.5823320">
	<ele>1161.80</ele>
	<time>2023-10-07T05:53:53.000Z</time>
</trkpt>
<trkpt lat="45.9221760" lon="9.5823320">
	<ele>1162.00</ele>
	<time>2023-10-07T05:53:54.000Z</time>
</trkpt>
<trkpt lat="45.9221760" lon="9.5823320">
	<ele>1162.00</ele>
	<time>2023-10-07T05:53:55.000Z</time>
</trkpt>
<trkpt lat="45.9221760" lon="9.5823320">
	<ele>1162.00</ele>
	<time>2023-10-07T05:53:56.000Z</time>
</trkpt>
<trkpt lat="45.9221760" lon="9.5823320">
	<ele>1162.00</ele>
	<time>2023-10-07T05:53:57.000Z</time>
</trkpt>
<trkpt lat="45.9221760" lon="9.5823320">
	<ele>1162.00</ele>
	<time>2023-10-07T05:53:58.000Z</time>
</trkpt>
<trkpt lat="45.9221760" lon="9.5823320">
	<ele>1162.20</ele>
	<time>2023-10-07T05:53:59.000Z</time>
</trkpt>
<trkpt lat="45.9221760" lon="9.5823320">
	<ele>1162.20</ele>
	<time>2023-10-07T05:54:00.000Z</time>
</trkpt>
<trkpt lat="45.9221760" lon="9.5823320">
	<ele>1162.20</ele>
	<time>2023-10-07T05:54:01.000Z</time>
</trkpt>
<trkpt lat="45.9221760" lon="9.5823320">
	<ele>1162.20</ele>
	<time>2023-10-07T05:54:02.000Z</time>
</trkpt>
<trkpt lat="45.9221760" lon="9.5823320">
	<ele>1162.20</ele>
	<time>2023-10-07T05:54:03.000Z</time>
</trkpt>
<trkpt lat="45.9221760" lon="9.5823320">
	<ele>1162.00</ele>
	<time>2023-10-07T05:54:04.000Z</time>
</trkpt>
<trkpt lat="45.9221760" lon="9.5823320">
	<ele>1161.80</ele>
	<time>2023-10-07T05:54:05.000Z</time>
</trkpt>
<trkpt lat="45.9221760" lon="9.5823320">
	<ele>1161.80</ele>
	<time>2023-10-07T05:54:06.000Z</time>
</trkpt>
<trkpt lat="45.9221750" lon="9.5823320">
	<ele>1161.80</ele>
	<time>2023-10-07T05:54:07.000Z</time>
</trkpt>
<trkpt lat="45.9221750" lon="9.5823320">
	<ele>1161.80</ele>
	<time>2023-10-07T05:54:08.000Z</time>
</trkpt>
<trkpt lat="45.9221740" lon="9.5823340">
	<ele>1161.60</ele>
	<time>2023-10-07T05:54:09.000Z</time>
</trkpt>
<trkpt lat="45.9221740" lon="9.5823350">
	<ele>1161.60</ele>
	<time>2023-10-07T05:54:10.000Z</time>
</trkpt>
<trkpt lat="45.9221740" lon="9.5823390">
	<ele>1161.80</ele>
	<time>2023-10-07T05:54:11.000Z</time>
</trkpt>
<trkpt lat="45.9221730" lon="9.5823390">
	<ele>1162.00</ele>
	<time>2023-10-07T05:54:12.000Z</time>
</trkpt>
<trkpt lat="45.9221720" lon="9.5823390">
	<ele>1162.20</ele>
	<time>2023-10-07T05:54:13.000Z</time>
</trkpt>
<trkpt lat="45.9221710" lon="9.5823390">
	<ele>1162.20</ele>
	<time>2023-10-07T05:54:14.000Z</time>
</trkpt>
<trkpt lat="45.9221640" lon="9.5823390">
	<ele>1162.40</ele>
	<time>2023-10-07T05:54:15.000Z</time>
</trkpt>
<trkpt lat="45.9221610" lon="9.5823390">
	<ele>1162.40</ele>
	<time>2023-10-07T05:54:16.000Z</time>
</trkpt>
<trkpt lat="45.9221590" lon="9.5823390">
	<ele>1162.60</ele>
	<time>2023-10-07T05:54:17.000Z</time>
</trkpt>
<trkpt lat="45.9221590" lon="9.5823390">
	<ele>1162.60</ele>
	<time>2023-10-07T05:54:18.000Z</time>
</trkpt>
<trkpt lat="45.9221580" lon="9.5823390">
	<ele>1162.80</ele>
	<time>2023-10-07T05:54:19.000Z</time>
</trkpt>
<trkpt lat="45.9221580" lon="9.5823390">
	<ele>1162.80</ele>
	<time>2023-10-07T05:54:20.000Z</time>
</trkpt>
<trkpt lat="45.9221560" lon="9.5823390">
	<ele>1162.60</ele>
	<time>2023-10-07T05:54:21.000Z</time>
</trkpt>
<trkpt lat="45.9221460" lon="9.5823390">
	<ele>1162.60</ele>
	<time>2023-10-07T05:54:22.000Z</time>
</trkpt>
<trkpt lat="45.9221390" lon="9.5823390">
	<ele>1162.60</ele>
	<time>2023-10-07T05:54:23.000Z</time>
</trkpt>
<trkpt lat="45.9221360" lon="9.5823310">
	<ele>1162.60</ele>
	<time>2023-10-07T05:54:24.000Z</time>
</trkpt>
<trkpt lat="45.9221310" lon="9.5823150">
	<ele>1162.60</ele>
	<time>2023-10-07T05:54:25.000Z</time>
</trkpt>
<trkpt lat="45.9221260" lon="9.5822970">
	<ele>1162.80</ele>
	<time>2023-10-07T05:54:26.000Z</time>
</trkpt>
<trkpt lat="45.9221230" lon="9.5822760">
	<ele>1162.80</ele>
	<time>2023-10-07T05:54:27.000Z</time>
</trkpt>
<trkpt lat="45.9221210" lon="9.5822560">
	<ele>1163.00</ele>
	<time>2023-10-07T05:54:28.000Z</time>
</trkpt>
<trkpt lat="45.9221210" lon="9.5822310">
	<ele>1163.00</ele>
	<time>2023-10-07T05:54:29.000Z</time>
</trkpt>
<trkpt lat="45.9221190" lon="9.5822100">
	<ele>1163.20</ele>
	<time>2023-10-07T05:54:30.000Z</time>
</trkpt>
<trkpt lat="45.9221160" lon="9.5821940">
	<ele>1163.40</ele>
	<time>2023-10-07T05:54:31.000Z</time>
</trkpt>
<trkpt lat="45.9221140" lon="9.5821820">
	<ele>1163.40</ele>
	<time>2023-10-07T05:54:32.000Z</time>
</trkpt>
<trkpt lat="45.9221110" lon="9.5821680">
	<ele>1163.60</ele>
	<time>2023-10-07T05:54:33.000Z</time>
</trkpt>
<trkpt lat="45.9221100" lon="9.5821560">
	<ele>1163.80</ele>
	<time>2023-10-07T05:54:34.000Z</time>
</trkpt>
<trkpt lat="45.9221100" lon="9.5821440">
	<ele>1164.00</ele>
	<time>2023-10-07T05:54:35.000Z</time>
</trkpt>
<trkpt lat="45.9221090" lon="9.5821320">
	<ele>1164.20</ele>
	<time>2023-10-07T05:54:36.000Z</time>
</trkpt>
<trkpt lat="45.9221100" lon="9.5821180">
	<ele>1164.40</ele>
	<time>2023-10-07T05:54:37.000Z</time>
</trkpt>
<trkpt lat="45.9221080" lon="9.5821150">
	<ele>1164.60</ele>
	<time>2023-10-07T05:54:38.000Z</time>
</trkpt>
<trkpt lat="45.9221020" lon="9.5821100">
	<ele>1164.80</ele>
	<time>2023-10-07T05:54:39.000Z</time>
</trkpt>
<trkpt lat="45.9220940" lon="9.5821120">
	<ele>1165.00</ele>
	<time>2023-10-07T05:54:40.000Z</time>
</trkpt>
<trkpt lat="45.9220930" lon="9.5820990">
	<ele>1165.20</ele>
	<time>2023-10-07T05:54:41.000Z</time>
</trkpt>
<trkpt lat="45.9220880" lon="9.5820870">
	<ele>1165.40</ele>
	<time>2023-10-07T05:54:42.000Z</time>
</trkpt>
<trkpt lat="45.9220900" lon="9.5820650">
	<ele>1165.60</ele>
	<time>2023-10-07T05:54:43.000Z</time>
</trkpt>
<trkpt lat="45.9220900" lon="9.5820470">
	<ele>1165.80</ele>
	<time>2023-10-07T05:54:44.000Z</time>
</trkpt>
<trkpt lat="45.9220920" lon="9.5820410">
	<ele>1165.80</ele>
	<time>2023-10-07T05:54:45.000Z</time>
</trkpt>
<trkpt lat="45.9220920" lon="9.5820350">
	<ele>1166.00</ele>
	<time>2023-10-07T05:54:46.000Z</time>
</trkpt>
<trkpt lat="45.9220900" lon="9.5820280">
	<ele>1166.20</ele>
	<time>2023-10-07T05:54:47.000Z</time>
</trkpt>
<trkpt lat="45.9220880" lon="9.5820230">
	<ele>1166.20</ele>
	<time>2023-10-07T05:54:48.000Z</time>
</trkpt>
<trkpt lat="45.9220870" lon="9.5820100">
	<ele>1166.40</ele>
	<time>2023-10-07T05:54:49.000Z</time>
</trkpt>
<trkpt lat="45.9220850" lon="9.5820000">
	<ele>1166.60</ele>
	<time>2023-10-07T05:54:50.000Z</time>
</trkpt>
<trkpt lat="45.9220850" lon="9.5819770">
	<ele>1166.80</ele>
	<time>2023-10-07T05:54:51.000Z</time>
</trkpt>
<trkpt lat="45.9220860" lon="9.5819660">
	<ele>1166.80</ele>
	<time>2023-10-07T05:54:52.000Z</time>
</trkpt>
<trkpt lat="45.9220860" lon="9.5819510">
	<ele>1167.00</ele>
	<time>2023-10-07T05:54:53.000Z</time>
</trkpt>
<trkpt lat="45.9220840" lon="9.5819400">
	<ele>1167.20</ele>
	<time>2023-10-07T05:54:54.000Z</time>
</trkpt>
<trkpt lat="45.9220840" lon="9.5819310">
	<ele>1167.40</ele>
	<time>2023-10-07T05:54:55.000Z</time>
</trkpt>
<trkpt lat="45.9220850" lon="9.5819180">
	<ele>1167.40</ele>
	<time>2023-10-07T05:54:56.000Z</time>
</trkpt>
<trkpt lat="45.9220840" lon="9.5819040">
	<ele>1167.80</ele>
	<time>2023-10-07T05:54:57.000Z</time>
</trkpt>
<trkpt lat="45.9220840" lon="9.5818880">
	<ele>1167.80</ele>
	<time>2023-10-07T05:54:58.000Z</time>
</trkpt>
<trkpt lat="45.9220880" lon="9.5818720">
	<ele>1168.00</ele>
	<time>2023-10-07T05:54:59.000Z</time>
</trkpt>
<trkpt lat="45.9220920" lon="9.5818560">
	<ele>1168.20</ele>
	<time>2023-10-07T05:55:00.000Z</time>
</trkpt>
<trkpt lat="45.9220960" lon="9.5818420">
	<ele>1168.20</ele>
	<time>2023-10-07T05:55:01.000Z</time>
</trkpt>
<trkpt lat="45.9221040" lon="9.5818310">
	<ele>1168.40</ele>
	<time>2023-10-07T05:55:02.000Z</time>
</trkpt>
<trkpt lat="45.9221100" lon="9.5818210">
	<ele>1168.60</ele>
	<time>2023-10-07T05:55:03.000Z</time>
</trkpt>
<trkpt lat="45.9221150" lon="9.5818080">
	<ele>1168.60</ele>
	<time>2023-10-07T05:55:04.000Z</time>
</trkpt>
<trkpt lat="45.9221260" lon="9.5817910">
	<ele>1168.80</ele>
	<time>2023-10-07T05:55:05.000Z</time>
</trkpt>
<trkpt lat="45.9221320" lon="9.5817800">
	<ele>1169.00</ele>
	<time>2023-10-07T05:55:06.000Z</time>
</trkpt>
<trkpt lat="45.9221410" lon="9.5817670">
	<ele>1169.20</ele>
	<time>2023-10-07T05:55:07.000Z</time>
</trkpt>
<trkpt lat="45.9221470" lon="9.5817540">
	<ele>1169.20</ele>
	<time>2023-10-07T05:55:08.000Z</time>
</trkpt>
<trkpt lat="45.9221510" lon="9.5817410">
	<ele>1169.40</ele>
	<time>2023-10-07T05:55:09.000Z</time>
</trkpt>
<trkpt lat="45.9221590" lon="9.5817230">
	<ele>1169.60</ele>
	<time>2023-10-07T05:55:10.000Z</time>
</trkpt>
<trkpt lat="45.9221740" lon="9.5817000">
	<ele>1169.80</ele>
	<time>2023-10-07T05:55:11.000Z</time>
</trkpt>
<trkpt lat="45.9221840" lon="9.5816810">
	<ele>1170.00</ele>
	<time>2023-10-07T05:55:12.000Z</time>
</trkpt>
<trkpt lat="45.9221950" lon="9.5816800">
	<ele>1170.00</ele>
	<time>2023-10-07T05:55:13.000Z</time>
</trkpt>
<trkpt lat="45.9222060" lon="9.5816850">
	<ele>1170.20</ele>
	<time>2023-10-07T05:55:14.000Z</time>
</trkpt>
<trkpt lat="45.9222240" lon="9.5816870">
	<ele>1170.20</ele>
	<time>2023-10-07T05:55:15.000Z</time>
</trkpt>
<trkpt lat="45.9222350" lon="9.5816800">
	<ele>1170.40</ele>
	<time>2023-10-07T05:55:16.000Z</time>
</trkpt>
<trkpt lat="45.9222470" lon="9.5816740">
	<ele>1170.40</ele>
	<time>2023-10-07T05:55:17.000Z</time>
</trkpt>
<trkpt lat="45.9222570" lon="9.5816680">
	<ele>1170.60</ele>
	<time>2023-10-07T05:55:18.000Z</time>
</trkpt>
<trkpt lat="45.9222640" lon="9.5816640">
	<ele>1170.80</ele>
	<time>2023-10-07T05:55:19.000Z</time>
</trkpt>
<trkpt lat="45.9222710" lon="9.5816690">
	<ele>1170.80</ele>
	<time>2023-10-07T05:55:20.000Z</time>
</trkpt>
<trkpt lat="45.9222780" lon="9.5816660">
	<ele>1171.00</ele>
	<time>2023-10-07T05:55:21.000Z</time>
</trkpt>
<trkpt lat="45.9222850" lon="9.5816610">
	<ele>1171.20</ele>
	<time>2023-10-07T05:55:22.000Z</time>
</trkpt>
<trkpt lat="45.9222920" lon="9.5816630">
	<ele>1171.20</ele>
	<time>2023-10-07T05:55:23.000Z</time>
</trkpt>
<trkpt lat="45.9223000" lon="9.5816680">
	<ele>1171.40</ele>
	<time>2023-10-07T05:55:24.000Z</time>
</trkpt>
<trkpt lat="45.9223080" lon="9.5816730">
	<ele>1171.60</ele>
	<time>2023-10-07T05:55:25.000Z</time>
</trkpt>
<trkpt lat="45.9223170" lon="9.5816790">
	<ele>1171.80</ele>
	<time>2023-10-07T05:55:26.000Z</time>
</trkpt>
<trkpt lat="45.9223230" lon="9.5816840">
	<ele>1171.80</ele>
	<time>2023-10-07T05:55:27.000Z</time>
</trkpt>
<trkpt lat="45.9223300" lon="9.5816920">
	<ele>1172.00</ele>
	<time>2023-10-07T05:55:28.000Z</time>
</trkpt>
<trkpt lat="45.9223340" lon="9.5816990">
	<ele>1172.20</ele>
	<time>2023-10-07T05:55:29.000Z</time>
</trkpt>
<trkpt lat="45.9223400" lon="9.5817020">
	<ele>1172.20</ele>
	<time>2023-10-07T05:55:30.000Z</time>
</trkpt>
<trkpt lat="45.9223460" lon="9.5816990">
	<ele>1172.60</ele>
	<time>2023-10-07T05:55:31.000Z</time>
</trkpt>
<trkpt lat="45.9223530" lon="9.5816920">
	<ele>1172.80</ele>
	<time>2023-10-07T05:55:32.000Z</time>
</trkpt>
<trkpt lat="45.9223570" lon="9.5816880">
	<ele>1173.00</ele>
	<time>2023-10-07T05:55:33.000Z</time>
</trkpt>
<trkpt lat="45.9223590" lon="9.5816840">
	<ele>1173.00</ele>
	<time>2023-10-07T05:55:34.000Z</time>
</trkpt>
<trkpt lat="45.9223640" lon="9.5816760">
	<ele>1173.20</ele>
	<time>2023-10-07T05:55:35.000Z</time>
</trkpt>
<trkpt lat="45.9223670" lon="9.5816690">
	<ele>1173.40</ele>
	<time>2023-10-07T05:55:36.000Z</time>
</trkpt>
<trkpt lat="45.9223720" lon="9.5816580">
	<ele>1173.60</ele>
	<time>2023-10-07T05:55:37.000Z</time>
</trkpt>
<trkpt lat="45.9223830" lon="9.5816460">
	<ele>1173.60</ele>
	<time>2023-10-07T05:55:38.000Z</time>
</trkpt>
<trkpt lat="45.9223930" lon="9.5816410">
	<ele>1173.80</ele>
	<time>2023-10-07T05:55:39.000Z</time>
</trkpt>
<trkpt lat="45.9223960" lon="9.5816340">
	<ele>1174.00</ele>
	<time>2023-10-07T05:55:40.000Z</time>
</trkpt>
<trkpt lat="45.9224010" lon="9.5816330">
	<ele>1174.00</ele>
	<time>2023-10-07T05:55:41.000Z</time>
</trkpt>
<trkpt lat="45.9224070" lon="9.5816190">
	<ele>1174.20</ele>
	<time>2023-10-07T05:55:42.000Z</time>
</trkpt>
<trkpt lat="45.9224130" lon="9.5816070">
	<ele>1174.40</ele>
	<time>2023-10-07T05:55:43.000Z</time>
</trkpt>
<trkpt lat="45.9224200" lon="9.5816010">
	<ele>1174.60</ele>
	<time>2023-10-07T05:55:44.000Z</time>
</trkpt>
<trkpt lat="45.9224250" lon="9.5815940">
	<ele>1174.60</ele>
	<time>2023-10-07T05:55:45.000Z</time>
</trkpt>
<trkpt lat="45.9224290" lon="9.5815840">
	<ele>1174.80</ele>
	<time>2023-10-07T05:55:46.000Z</time>
</trkpt>
<trkpt lat="45.9224340" lon="9.5815790">
	<ele>1175.00</ele>
	<time>2023-10-07T05:55:47.000Z</time>
</trkpt>
<trkpt lat="45.9224350" lon="9.5815720">
	<ele>1175.00</ele>
	<time>2023-10-07T05:55:48.000Z</time>
</trkpt>
<trkpt lat="45.9224340" lon="9.5815610">
	<ele>1175.20</ele>
	<time>2023-10-07T05:55:49.000Z</time>
</trkpt>
<trkpt lat="45.9224320" lon="9.5815550">
	<ele>1175.40</ele>
	<time>2023-10-07T05:55:50.000Z</time>
</trkpt>
<trkpt lat="45.9224340" lon="9.5815600">
	<ele>1175.40</ele>
	<time>2023-10-07T05:55:51.000Z</time>
</trkpt>
<trkpt lat="45.9224370" lon="9.5815580">
	<ele>1175.80</ele>
	<time>2023-10-07T05:55:52.000Z</time>
</trkpt>
<trkpt lat="45.9224380" lon="9.5815490">
	<ele>1176.00</ele>
	<time>2023-10-07T05:55:53.000Z</time>
</trkpt>
<trkpt lat="45.9224400" lon="9.5815400">
	<ele>1176.20</ele>
	<time>2023-10-07T05:55:54.000Z</time>
</trkpt>
<trkpt lat="45.9224420" lon="9.5815330">
	<ele>1176.40</ele>
	<time>2023-10-07T05:55:55.000Z</time>
</trkpt>
<trkpt lat="45.9224440" lon="9.5815200">
	<ele>1176.40</ele>
	<time>2023-10-07T05:55:56.000Z</time>
</trkpt>
<trkpt lat="45.9224430" lon="9.5815100">
	<ele>1176.80</ele>
	<time>2023-10-07T05:55:57.000Z</time>
</trkpt>
<trkpt lat="45.9224410" lon="9.5815020">
	<ele>1176.80</ele>
	<time>2023-10-07T05:55:58.000Z</time>
</trkpt>
<trkpt lat="45.9224380" lon="9.5814930">
	<ele>1177.00</ele>
	<time>2023-10-07T05:55:59.000Z</time>
</trkpt>
<trkpt lat="45.9224360" lon="9.5814830">
	<ele>1177.20</ele>
	<time>2023-10-07T05:56:00.000Z</time>
</trkpt>
<trkpt lat="45.9224340" lon="9.5814670">
	<ele>1177.40</ele>
	<time>2023-10-07T05:56:01.000Z</time>
</trkpt>
<trkpt lat="45.9224310" lon="9.5814540">
	<ele>1177.40</ele>
	<time>2023-10-07T05:56:02.000Z</time>
</trkpt>
<trkpt lat="45.9224300" lon="9.5814400">
	<ele>1177.60</ele>
	<time>2023-10-07T05:56:03.000Z</time>
</trkpt>
<trkpt lat="45.9224290" lon="9.5814290">
	<ele>1177.80</ele>
	<time>2023-10-07T05:56:04.000Z</time>
</trkpt>
<trkpt lat="45.9224270" lon="9.5814220">
	<ele>1178.00</ele>
	<time>2023-10-07T05:56:05.000Z</time>
</trkpt>
<trkpt lat="45.9224290" lon="9.5814120">
	<ele>1178.20</ele>
	<time>2023-10-07T05:56:06.000Z</time>
</trkpt>
<trkpt lat="45.9224320" lon="9.5813990">
	<ele>1178.40</ele>
	<time>2023-10-07T05:56:07.000Z</time>
</trkpt>
<trkpt lat="45.9224330" lon="9.5813880">
	<ele>1178.60</ele>
	<time>2023-10-07T05:56:08.000Z</time>
</trkpt>
<trkpt lat="45.9224350" lon="9.5813760">
	<ele>1178.80</ele>
	<time>2023-10-07T05:56:09.000Z</time>
</trkpt>
<trkpt lat="45.9224360" lon="9.5813620">
	<ele>1179.00</ele>
	<time>2023-10-07T05:56:10.000Z</time>
</trkpt>
<trkpt lat="45.9224320" lon="9.5813510">
	<ele>1179.20</ele>
	<time>2023-10-07T05:56:11.000Z</time>
</trkpt>
<trkpt lat="45.9224310" lon="9.5813400">
	<ele>1179.40</ele>
	<time>2023-10-07T05:56:12.000Z</time>
</trkpt>
<trkpt lat="45.9224320" lon="9.5813220">
	<ele>1179.60</ele>
	<time>2023-10-07T05:56:13.000Z</time>
</trkpt>
<trkpt lat="45.9224340" lon="9.5813050">
	<ele>1180.00</ele>
	<time>2023-10-07T05:56:14.000Z</time>
</trkpt>
<trkpt lat="45.9224360" lon="9.5812920">
	<ele>1180.20</ele>
	<time>2023-10-07T05:56:15.000Z</time>
</trkpt>
<trkpt lat="45.9224390" lon="9.5812840">
	<ele>1180.40</ele>
	<time>2023-10-07T05:56:16.000Z</time>
</trkpt>
<trkpt lat="45.9224430" lon="9.5812760">
	<ele>1180.40</ele>
	<time>2023-10-07T05:56:17.000Z</time>
</trkpt>
<trkpt lat="45.9224410" lon="9.5812620">
	<ele>1180.60</ele>
	<time>2023-10-07T05:56:18.000Z</time>
</trkpt>
<trkpt lat="45.9224430" lon="9.5812480">
	<ele>1180.60</ele>
	<time>2023-10-07T05:56:19.000Z</time>
</trkpt>
<trkpt lat="45.9224470" lon="9.5812410">
	<ele>1180.80</ele>
	<time>2023-10-07T05:56:20.000Z</time>
</trkpt>
<trkpt lat="45.9224550" lon="9.5812360">
	<ele>1181.00</ele>
	<time>2023-10-07T05:56:21.000Z</time>
</trkpt>
<trkpt lat="45.9224660" lon="9.5812300">
	<ele>1181.20</ele>
	<time>2023-10-07T05:56:22.000Z</time>
</trkpt>
<trkpt lat="45.9224740" lon="9.5812240">
	<ele>1181.20</ele>
	<time>2023-10-07T05:56:23.000Z</time>
</trkpt>
<trkpt lat="45.9224820" lon="9.5812140">
	<ele>1181.40</ele>
	<time>2023-10-07T05:56:24.000Z</time>
</trkpt>
<trkpt lat="45.9224870" lon="9.5812020">
	<ele>1181.40</ele>
	<time>2023-10-07T05:56:25.000Z</time>
</trkpt>
<trkpt lat="45.9224920" lon="9.5811920">
	<ele>1181.60</ele>
	<time>2023-10-07T05:56:26.000Z</time>
</trkpt>
<trkpt lat="45.9225030" lon="9.5811860">
	<ele>1181.80</ele>
	<time>2023-10-07T05:56:27.000Z</time>
</trkpt>
<trkpt lat="45.9225150" lon="9.5811820">
	<ele>1181.80</ele>
	<time>2023-10-07T05:56:28.000Z</time>
</trkpt>
<trkpt lat="45.9225280" lon="9.5811810">
	<ele>1182.00</ele>
	<time>2023-10-07T05:56:29.000Z</time>
</trkpt>
<trkpt lat="45.9225430" lon="9.5811800">
	<ele>1182.00</ele>
	<time>2023-10-07T05:56:30.000Z</time>
</trkpt>
<trkpt lat="45.9225630" lon="9.5811770">
	<ele>1182.20</ele>
	<time>2023-10-07T05:56:31.000Z</time>
</trkpt>
<trkpt lat="45.9225750" lon="9.5811840">
	<ele>1182.40</ele>
	<time>2023-10-07T05:56:32.000Z</time>
</trkpt>
<trkpt lat="45.9225840" lon="9.5811900">
	<ele>1182.60</ele>
	<time>2023-10-07T05:56:33.000Z</time>
</trkpt>
<trkpt lat="45.9225940" lon="9.5811960">
	<ele>1182.60</ele>
	<time>2023-10-07T05:56:34.000Z</time>
</trkpt>
<trkpt lat="45.9226010" lon="9.5811960">
	<ele>1182.80</ele>
	<time>2023-10-07T05:56:35.000Z</time>
</trkpt>
<trkpt lat="45.9226080" lon="9.5811990">
	<ele>1183.00</ele>
	<time>2023-10-07T05:56:36.000Z</time>
</trkpt>
<trkpt lat="45.9226180" lon="9.5812020">
	<ele>1183.20</ele>
	<time>2023-10-07T05:56:37.000Z</time>
</trkpt>
<trkpt lat="45.9226240" lon="9.5812040">
	<ele>1183.40</ele>
	<time>2023-10-07T05:56:38.000Z</time>
</trkpt>
<trkpt lat="45.9226300" lon="9.5812120">
	<ele>1183.40</ele>
	<time>2023-10-07T05:56:39.000Z</time>
</trkpt>
<trkpt lat="45.9226340" lon="9.5812110">
	<ele>1183.60</ele>
	<time>2023-10-07T05:56:40.000Z</time>
</trkpt>
<trkpt lat="45.9226360" lon="9.5812210">
	<ele>1183.60</ele>
	<time>2023-10-07T05:56:41.000Z</time>
</trkpt>
<trkpt lat="45.9226430" lon="9.5812290">
	<ele>1183.80</ele>
	<time>2023-10-07T05:56:42.000Z</time>
</trkpt>
<trkpt lat="45.9226570" lon="9.5812330">
	<ele>1184.00</ele>
	<time>2023-10-07T05:56:43.000Z</time>
</trkpt>
<trkpt lat="45.9226730" lon="9.5812400">
	<ele>1184.20</ele>
	<time>2023-10-07T05:56:44.000Z</time>
</trkpt>
<trkpt lat="45.9226840" lon="9.5812440">
	<ele>1184.40</ele>
	<time>2023-10-07T05:56:45.000Z</time>
</trkpt>
<trkpt lat="45.9226920" lon="9.5812470">
	<ele>1184.40</ele>
	<time>2023-10-07T05:56:46.000Z</time>
</trkpt>
<trkpt lat="45.9226990" lon="9.5812520">
	<ele>1184.60</ele>
	<time>2023-10-07T05:56:47.000Z</time>
</trkpt>
<trkpt lat="45.9227040" lon="9.5812580">
	<ele>1184.80</ele>
	<time>2023-10-07T05:56:48.000Z</time>
</trkpt>
<trkpt lat="45.9227140" lon="9.5812620">
	<ele>1185.00</ele>
	<time>2023-10-07T05:56:49.000Z</time>
</trkpt>
<trkpt lat="45.9227210" lon="9.5812700">
	<ele>1185.20</ele>
	<time>2023-10-07T05:56:50.000Z</time>
</trkpt>
<trkpt lat="45.9227280" lon="9.5812810">
	<ele>1185.40</ele>
	<time>2023-10-07T05:56:51.000Z</time>
</trkpt>
<trkpt lat="45.9227330" lon="9.5812950">
	<ele>1185.60</ele>
	<time>2023-10-07T05:56:52.000Z</time>
</trkpt>
<trkpt lat="45.9227410" lon="9.5813050">
	<ele>1185.60</ele>
	<time>2023-10-07T05:56:53.000Z</time>
</trkpt>
<trkpt lat="45.9227480" lon="9.5813180">
	<ele>1185.80</ele>
	<time>2023-10-07T05:56:54.000Z</time>
</trkpt>
<trkpt lat="45.9227560" lon="9.5813250">
	<ele>1186.00</ele>
	<time>2023-10-07T05:56:55.000Z</time>
</trkpt>
<trkpt lat="45.9227660" lon="9.5813270">
	<ele>1186.00</ele>
	<time>2023-10-07T05:56:56.000Z</time>
</trkpt>
<trkpt lat="45.9227770" lon="9.5813300">
	<ele>1186.20</ele>
	<time>2023-10-07T05:56:57.000Z</time>
</trkpt>
<trkpt lat="45.9227870" lon="9.5813350">
	<ele>1186.20</ele>
	<time>2023-10-07T05:56:58.000Z</time>
</trkpt>
<trkpt lat="45.9227940" lon="9.5813380">
	<ele>1186.60</ele>
	<time>2023-10-07T05:56:59.000Z</time>
</trkpt>
<trkpt lat="45.9228040" lon="9.5813330">
	<ele>1186.60</ele>
	<time>2023-10-07T05:57:00.000Z</time>
</trkpt>
<trkpt lat="45.9228140" lon="9.5813260">
	<ele>1186.80</ele>
	<time>2023-10-07T05:57:01.000Z</time>
</trkpt>
<trkpt lat="45.9228220" lon="9.5813160">
	<ele>1187.00</ele>
	<time>2023-10-07T05:57:02.000Z</time>
</trkpt>
<trkpt lat="45.9228260" lon="9.5813120">
	<ele>1187.20</ele>
	<time>2023-10-07T05:57:03.000Z</time>
</trkpt>
<trkpt lat="45.9228310" lon="9.5813110">
	<ele>1187.20</ele>
	<time>2023-10-07T05:57:04.000Z</time>
</trkpt>
<trkpt lat="45.9228340" lon="9.5813030">
	<ele>1187.40</ele>
	<time>2023-10-07T05:57:05.000Z</time>
</trkpt>
<trkpt lat="45.9228360" lon="9.5813000">
	<ele>1187.40</ele>
	<time>2023-10-07T05:57:06.000Z</time>
</trkpt>
<trkpt lat="45.9228380" lon="9.5812940">
	<ele>1187.80</ele>
	<time>2023-10-07T05:57:07.000Z</time>
</trkpt>
<trkpt lat="45.9228390" lon="9.5812830">
	<ele>1187.80</ele>
	<time>2023-10-07T05:57:08.000Z</time>
</trkpt>
<trkpt lat="45.9228410" lon="9.5812730">
	<ele>1187.80</ele>
	<time>2023-10-07T05:57:09.000Z</time>
</trkpt>
<trkpt lat="45.9228380" lon="9.5812630">
	<ele>1188.00</ele>
	<time>2023-10-07T05:57:10.000Z</time>
</trkpt>
<trkpt lat="45.9228340" lon="9.5812550">
	<ele>1188.00</ele>
	<time>2023-10-07T05:57:11.000Z</time>
</trkpt>
<trkpt lat="45.9228340" lon="9.5812360">
	<ele>1188.40</ele>
	<time>2023-10-07T05:57:12.000Z</time>
</trkpt>
<trkpt lat="45.9228330" lon="9.5812240">
	<ele>1188.60</ele>
	<time>2023-10-07T05:57:13.000Z</time>
</trkpt>
<trkpt lat="45.9228350" lon="9.5812160">
	<ele>1188.80</ele>
	<time>2023-10-07T05:57:14.000Z</time>
</trkpt>
<trkpt lat="45.9228340" lon="9.5812120">
	<ele>1188.80</ele>
	<time>2023-10-07T05:57:15.000Z</time>
</trkpt>
<trkpt lat="45.9228340" lon="9.5812130">
	<ele>1189.00</ele>
	<time>2023-10-07T05:57:16.000Z</time>
</trkpt>
<trkpt lat="45.9228340" lon="9.5812020">
	<ele>1189.20</ele>
	<time>2023-10-07T05:57:17.000Z</time>
</trkpt>
<trkpt lat="45.9228340" lon="9.5811900">
	<ele>1189.40</ele>
	<time>2023-10-07T05:57:18.000Z</time>
</trkpt>
<trkpt lat="45.9228320" lon="9.5811780">
	<ele>1189.60</ele>
	<time>2023-10-07T05:57:19.000Z</time>
</trkpt>
<trkpt lat="45.9228300" lon="9.5811730">
	<ele>1189.80</ele>
	<time>2023-10-07T05:57:20.000Z</time>
</trkpt>
<trkpt lat="45.9228250" lon="9.5811660">
	<ele>1190.00</ele>
	<time>2023-10-07T05:57:21.000Z</time>
</trkpt>
<trkpt lat="45.9228240" lon="9.5811530">
	<ele>1190.20</ele>
	<time>2023-10-07T05:57:22.000Z</time>
</trkpt>
<trkpt lat="45.9228220" lon="9.5811430">
	<ele>1190.20</ele>
	<time>2023-10-07T05:57:23.000Z</time>
</trkpt>
<trkpt lat="45.9228210" lon="9.5811420">
	<ele>1190.40</ele>
	<time>2023-10-07T05:57:24.000Z</time>
</trkpt>
<trkpt lat="45.9228200" lon="9.5811370">
	<ele>1190.60</ele>
	<time>2023-10-07T05:57:25.000Z</time>
</trkpt>
<trkpt lat="45.9228190" lon="9.5811330">
	<ele>1190.80</ele>
	<time>2023-10-07T05:57:26.000Z</time>
</trkpt>
<trkpt lat="45.9228160" lon="9.5811270">
	<ele>1191.00</ele>
	<time>2023-10-07T05:57:27.000Z</time>
</trkpt>
<trkpt lat="45.9228150" lon="9.5811240">
	<ele>1191.20</ele>
	<time>2023-10-07T05:57:28.000Z</time>
</trkpt>
<trkpt lat="45.9228140" lon="9.5811170">
	<ele>1191.20</ele>
	<time>2023-10-07T05:57:29.000Z</time>
</trkpt>
<trkpt lat="45.9228130" lon="9.5811070">
	<ele>1191.40</ele>
	<time>2023-10-07T05:57:30.000Z</time>
</trkpt>
<trkpt lat="45.9228130" lon="9.5810960">
	<ele>1191.60</ele>
	<time>2023-10-07T05:57:31.000Z</time>
</trkpt>
<trkpt lat="45.9228130" lon="9.5810820">
	<ele>1191.80</ele>
	<time>2023-10-07T05:57:32.000Z</time>
</trkpt>
<trkpt lat="45.9228130" lon="9.5810580">
	<ele>1191.80</ele>
	<time>2023-10-07T05:57:33.000Z</time>
</trkpt>
<trkpt lat="45.9228100" lon="9.5810430">
	<ele>1192.00</ele>
	<time>2023-10-07T05:57:34.000Z</time>
</trkpt>
<trkpt lat="45.9228100" lon="9.5810380">
	<ele>1192.20</ele>
	<time>2023-10-07T05:57:35.000Z</time>
</trkpt>
<trkpt lat="45.9228090" lon="9.5810300">
	<ele>1192.40</ele>
	<time>2023-10-07T05:57:36.000Z</time>
</trkpt>
<trkpt lat="45.9228120" lon="9.5810170">
	<ele>1192.40</ele>
	<time>2023-10-07T05:57:37.000Z</time>
</trkpt>
<trkpt lat="45.9228150" lon="9.5810130">
	<ele>1192.60</ele>
	<time>2023-10-07T05:57:38.000Z</time>
</trkpt>
<trkpt lat="45.9228160" lon="9.5810130">
	<ele>1192.80</ele>
	<time>2023-10-07T05:57:39.000Z</time>
</trkpt>
<trkpt lat="45.9228160" lon="9.5810140">
	<ele>1193.00</ele>
	<time>2023-10-07T05:57:40.000Z</time>
</trkpt>
<trkpt lat="45.9228180" lon="9.5810110">
	<ele>1193.20</ele>
	<time>2023-10-07T05:57:41.000Z</time>
</trkpt>
<trkpt lat="45.9228210" lon="9.5810110">
	<ele>1193.40</ele>
	<time>2023-10-07T05:57:42.000Z</time>
</trkpt>
<trkpt lat="45.9228240" lon="9.5810080">
	<ele>1193.60</ele>
	<time>2023-10-07T05:57:43.000Z</time>
</trkpt>
<trkpt lat="45.9228290" lon="9.5810010">
	<ele>1193.80</ele>
	<time>2023-10-07T05:57:44.000Z</time>
</trkpt>
<trkpt lat="45.9228330" lon="9.5809970">
	<ele>1194.00</ele>
	<time>2023-10-07T05:57:45.000Z</time>
</trkpt>
<trkpt lat="45.9228370" lon="9.5809960">
	<ele>1194.20</ele>
	<time>2023-10-07T05:57:46.000Z</time>
</trkpt>
<trkpt lat="45.9228400" lon="9.5809970">
	<ele>1194.20</ele>
	<time>2023-10-07T05:57:47.000Z</time>
</trkpt>
<trkpt lat="45.9228420" lon="9.5809940">
	<ele>1194.40</ele>
	<time>2023-10-07T05:57:48.000Z</time>
</trkpt>
<trkpt lat="45.9228470" lon="9.5809900">
	<ele>1194.60</ele>
	<time>2023-10-07T05:57:49.000Z</time>
</trkpt>
<trkpt lat="45.9228530" lon="9.5809840">
	<ele>1194.80</ele>
	<time>2023-10-07T05:57:50.000Z</time>
</trkpt>
<trkpt lat="45.9228560" lon="9.5809850">
	<ele>1194.80</ele>
	<time>2023-10-07T05:57:51.000Z</time>
</trkpt>
<trkpt lat="45.9228620" lon="9.5809850">
	<ele>1195.20</ele>
	<time>2023-10-07T05:57:52.000Z</time>
</trkpt>
<trkpt lat="45.9228690" lon="9.5809790">
	<ele>1195.20</ele>
	<time>2023-10-07T05:57:53.000Z</time>
</trkpt>
<trkpt lat="45.9228720" lon="9.5809800">
	<ele>1195.40</ele>
	<time>2023-10-07T05:57:54.000Z</time>
</trkpt>
<trkpt lat="45.9228770" lon="9.5809730">
	<ele>1195.60</ele>
	<time>2023-10-07T05:57:55.000Z</time>
</trkpt>
<trkpt lat="45.9228890" lon="9.5809630">
	<ele>1195.60</ele>
	<time>2023-10-07T05:57:56.000Z</time>
</trkpt>
<trkpt lat="45.9229000" lon="9.5809530">
	<ele>1195.80</ele>
	<time>2023-10-07T05:57:57.000Z</time>
</trkpt>
<trkpt lat="45.9229060" lon="9.5809460">
	<ele>1196.20</ele>
	<time>2023-10-07T05:57:58.000Z</time>
</trkpt>
<trkpt lat="45.9229110" lon="9.5809400">
	<ele>1196.40</ele>
	<time>2023-10-07T05:57:59.000Z</time>
</trkpt>
<trkpt lat="45.9229210" lon="9.5809290">
	<ele>1196.60</ele>
	<time>2023-10-07T05:58:00.000Z</time>
</trkpt>
<trkpt lat="45.9229340" lon="9.5809150">
	<ele>1196.60</ele>
	<time>2023-10-07T05:58:01.000Z</time>
</trkpt>
<trkpt lat="45.9229520" lon="9.5808890">
	<ele>1197.00</ele>
	<time>2023-10-07T05:58:02.000Z</time>
</trkpt>
<trkpt lat="45.9229650" lon="9.5808610">
	<ele>1197.20</ele>
	<time>2023-10-07T05:58:03.000Z</time>
</trkpt>
<trkpt lat="45.9229710" lon="9.5808560">
	<ele>1197.40</ele>
	<time>2023-10-07T05:58:04.000Z</time>
</trkpt>
<trkpt lat="45.9229820" lon="9.5808530">
	<ele>1197.60</ele>
	<time>2023-10-07T05:58:05.000Z</time>
</trkpt>
<trkpt lat="45.9229940" lon="9.5808570">
	<ele>1197.60</ele>
	<time>2023-10-07T05:58:06.000Z</time>
</trkpt>
<trkpt lat="45.9229960" lon="9.5808610">
	<ele>1197.80</ele>
	<time>2023-10-07T05:58:07.000Z</time>
</trkpt>
<trkpt lat="45.9230010" lon="9.5808620">
	<ele>1198.00</ele>
	<time>2023-10-07T05:58:08.000Z</time>
</trkpt>
<trkpt lat="45.9230070" lon="9.5808590">
	<ele>1198.20</ele>
	<time>2023-10-07T05:58:09.000Z</time>
</trkpt>
<trkpt lat="45.9230130" lon="9.5808560">
	<ele>1198.40</ele>
	<time>2023-10-07T05:58:10.000Z</time>
</trkpt>
<trkpt lat="45.9230230" lon="9.5808530">
	<ele>1198.60</ele>
	<time>2023-10-07T05:58:11.000Z</time>
</trkpt>
<trkpt lat="45.9230350" lon="9.5808540">
	<ele>1198.80</ele>
	<time>2023-10-07T05:58:12.000Z</time>
</trkpt>
<trkpt lat="45.9230440" lon="9.5808550">
	<ele>1199.00</ele>
	<time>2023-10-07T05:58:13.000Z</time>
</trkpt>
<trkpt lat="45.9230520" lon="9.5808560">
	<ele>1199.20</ele>
	<time>2023-10-07T05:58:14.000Z</time>
</trkpt>
<trkpt lat="45.9230610" lon="9.5808560">
	<ele>1199.40</ele>
	<time>2023-10-07T05:58:15.000Z</time>
</trkpt>
<trkpt lat="45.9230670" lon="9.5808610">
	<ele>1199.60</ele>
	<time>2023-10-07T05:58:16.000Z</time>
</trkpt>
<trkpt lat="45.9230670" lon="9.5808650">
	<ele>1199.80</ele>
	<time>2023-10-07T05:58:17.000Z</time>
</trkpt>
<trkpt lat="45.9230660" lon="9.5808680">
	<ele>1200.00</ele>
	<time>2023-10-07T05:58:18.000Z</time>
</trkpt>
<trkpt lat="45.9230720" lon="9.5808660">
	<ele>1200.20</ele>
	<time>2023-10-07T05:58:19.000Z</time>
</trkpt>
<trkpt lat="45.9230750" lon="9.5808650">
	<ele>1200.40</ele>
	<time>2023-10-07T05:58:20.000Z</time>
</trkpt>
<trkpt lat="45.9230760" lon="9.5808760">
	<ele>1200.60</ele>
	<time>2023-10-07T05:58:21.000Z</time>
</trkpt>
<trkpt lat="45.9230740" lon="9.5809010">
	<ele>1200.60</ele>
	<time>2023-10-07T05:58:22.000Z</time>
</trkpt>
<trkpt lat="45.9230720" lon="9.5809140">
	<ele>1200.80</ele>
	<time>2023-10-07T05:58:23.000Z</time>
</trkpt>
<trkpt lat="45.9230720" lon="9.5809230">
	<ele>1201.00</ele>
	<time>2023-10-07T05:58:24.000Z</time>
</trkpt>
<trkpt lat="45.9230790" lon="9.5809250">
	<ele>1201.20</ele>
	<time>2023-10-07T05:58:25.000Z</time>
</trkpt>
<trkpt lat="45.9230910" lon="9.5809220">
	<ele>1201.40</ele>
	<time>2023-10-07T05:58:26.000Z</time>
</trkpt>
<trkpt lat="45.9231010" lon="9.5809190">
	<ele>1201.60</ele>
	<time>2023-10-07T05:58:27.000Z</time>
</trkpt>
<trkpt lat="45.9231160" lon="9.5809180">
	<ele>1201.60</ele>
	<time>2023-10-07T05:58:28.000Z</time>
</trkpt>
<trkpt lat="45.9231240" lon="9.5809240">
	<ele>1201.80</ele>
	<time>2023-10-07T05:58:29.000Z</time>
</trkpt>
<trkpt lat="45.9231300" lon="9.5809270">
	<ele>1202.20</ele>
	<time>2023-10-07T05:58:30.000Z</time>
</trkpt>
<trkpt lat="45.9231370" lon="9.5809260">
	<ele>1202.20</ele>
	<time>2023-10-07T05:58:31.000Z</time>
</trkpt>
<trkpt lat="45.9231410" lon="9.5809280">
	<ele>1202.80</ele>
	<time>2023-10-07T05:58:32.000Z</time>
</trkpt>
<trkpt lat="45.9231500" lon="9.5809210">
	<ele>1203.00</ele>
	<time>2023-10-07T05:58:33.000Z</time>
</trkpt>
<trkpt lat="45.9231630" lon="9.5809090">
	<ele>1203.40</ele>
	<time>2023-10-07T05:58:34.000Z</time>
</trkpt>
<trkpt lat="45.9231740" lon="9.5809000">
	<ele>1203.40</ele>
	<time>2023-10-07T05:58:35.000Z</time>
</trkpt>
<trkpt lat="45.9231870" lon="9.5808910">
	<ele>1203.60</ele>
	<time>2023-10-07T05:58:36.000Z</time>
</trkpt>
<trkpt lat="45.9231960" lon="9.5808860">
	<ele>1203.80</ele>
	<time>2023-10-07T05:58:37.000Z</time>
</trkpt>
<trkpt lat="45.9232050" lon="9.5808800">
	<ele>1204.00</ele>
	<time>2023-10-07T05:58:38.000Z</time>
</trkpt>
<trkpt lat="45.9232140" lon="9.5808780">
	<ele>1204.20</ele>
	<time>2023-10-07T05:58:39.000Z</time>
</trkpt>
<trkpt lat="45.9232250" lon="9.5808850">
	<ele>1204.40</ele>
	<time>2023-10-07T05:58:40.000Z</time>
</trkpt>
<trkpt lat="45.9232300" lon="9.5808890">
	<ele>1204.40</ele>
	<time>2023-10-07T05:58:41.000Z</time>
</trkpt>
<trkpt lat="45.9232410" lon="9.5808920">
	<ele>1204.60</ele>
	<time>2023-10-07T05:58:42.000Z</time>
</trkpt>
<trkpt lat="45.9232450" lon="9.5808950">
	<ele>1204.60</ele>
	<time>2023-10-07T05:58:43.000Z</time>
</trkpt>
<trkpt lat="45.9232510" lon="9.5808970">
	<ele>1204.80</ele>
	<time>2023-10-07T05:58:44.000Z</time>
</trkpt>
<trkpt lat="45.9232600" lon="9.5808980">
	<ele>1204.80</ele>
	<time>2023-10-07T05:58:45.000Z</time>
</trkpt>
<trkpt lat="45.9232710" lon="9.5808960">
	<ele>1204.80</ele>
	<time>2023-10-07T05:58:46.000Z</time>
</trkpt>
<trkpt lat="45.9232800" lon="9.5809010">
	<ele>1205.00</ele>
	<time>2023-10-07T05:58:47.000Z</time>
</trkpt>
<trkpt lat="45.9232900" lon="9.5809110">
	<ele>1205.20</ele>
	<time>2023-10-07T05:58:48.000Z</time>
</trkpt>
<trkpt lat="45.9232950" lon="9.5809200">
	<ele>1205.20</ele>
	<time>2023-10-07T05:58:49.000Z</time>
</trkpt>
<trkpt lat="45.9233060" lon="9.5809260">
	<ele>1205.40</ele>
	<time>2023-10-07T05:58:50.000Z</time>
</trkpt>
<trkpt lat="45.9233120" lon="9.5809400">
	<ele>1205.40</ele>
	<time>2023-10-07T05:58:51.000Z</time>
</trkpt>
<trkpt lat="45.9233220" lon="9.5809510">
	<ele>1205.60</ele>
	<time>2023-10-07T05:58:52.000Z</time>
</trkpt>
<trkpt lat="45.9233290" lon="9.5809710">
	<ele>1205.80</ele>
	<time>2023-10-07T05:58:53.000Z</time>
</trkpt>
<trkpt lat="45.9233380" lon="9.5809880">
	<ele>1206.00</ele>
	<time>2023-10-07T05:58:54.000Z</time>
</trkpt>
<trkpt lat="45.9233470" lon="9.5810050">
	<ele>1206.00</ele>
	<time>2023-10-07T05:58:55.000Z</time>
</trkpt>
<trkpt lat="45.9233540" lon="9.5810240">
	<ele>1206.20</ele>
	<time>2023-10-07T05:58:56.000Z</time>
</trkpt>
<trkpt lat="45.9233580" lon="9.5810310">
	<ele>1206.20</ele>
	<time>2023-10-07T05:58:57.000Z</time>
</trkpt>
<trkpt lat="45.9233580" lon="9.5810420">
	<ele>1206.40</ele>
	<time>2023-10-07T05:58:58.000Z</time>
</trkpt>
<trkpt lat="45.9233600" lon="9.5810610">
	<ele>1206.60</ele>
	<time>2023-10-07T05:58:59.000Z</time>
</trkpt>
<trkpt lat="45.9233610" lon="9.5810780">
	<ele>1206.80</ele>
	<time>2023-10-07T05:59:00.000Z</time>
</trkpt>
<trkpt lat="45.9233620" lon="9.5810910">
	<ele>1206.80</ele>
	<time>2023-10-07T05:59:01.000Z</time>
</trkpt>
<trkpt lat="45.9233620" lon="9.5811110">
	<ele>1207.00</ele>
	<time>2023-10-07T05:59:02.000Z</time>
</trkpt>
<trkpt lat="45.9233630" lon="9.5811240">
	<ele>1207.20</ele>
	<time>2023-10-07T05:59:03.000Z</time>
</trkpt>
<trkpt lat="45.9233670" lon="9.5811430">
	<ele>1207.20</ele>
	<time>2023-10-07T05:59:04.000Z</time>
</trkpt>
<trkpt lat="45.9233660" lon="9.5811510">
	<ele>1207.40</ele>
	<time>2023-10-07T05:59:05.000Z</time>
</trkpt>
<trkpt lat="45.9233630" lon="9.5811620">
	<ele>1207.60</ele>
	<time>2023-10-07T05:59:06.000Z</time>
</trkpt>
<trkpt lat="45.9233600" lon="9.5811760">
	<ele>1207.60</ele>
	<time>2023-10-07T05:59:07.000Z</time>
</trkpt>
<trkpt lat="45.9233570" lon="9.5811880">
	<ele>1207.80</ele>
	<time>2023-10-07T05:59:08.000Z</time>
</trkpt>
<trkpt lat="45.9233570" lon="9.5812050">
	<ele>1207.80</ele>
	<time>2023-10-07T05:59:09.000Z</time>
</trkpt>
<trkpt lat="45.9233550" lon="9.5812240">
	<ele>1208.00</ele>
	<time>2023-10-07T05:59:10.000Z</time>
</trkpt>
<trkpt lat="45.9233510" lon="9.5812400">
	<ele>1208.00</ele>
	<time>2023-10-07T05:59:11.000Z</time>
</trkpt>
<trkpt lat="45.9233480" lon="9.5812550">
	<ele>1208.20</ele>
	<time>2023-10-07T05:59:12.000Z</time>
</trkpt>
<trkpt lat="45.9233440" lon="9.5812670">
	<ele>1208.40</ele>
	<time>2023-10-07T05:59:13.000Z</time>
</trkpt>
<trkpt lat="45.9233430" lon="9.5812770">
	<ele>1208.40</ele>
	<time>2023-10-07T05:59:14.000Z</time>
</trkpt>
<trkpt lat="45.9233440" lon="9.5812870">
	<ele>1208.60</ele>
	<time>2023-10-07T05:59:15.000Z</time>
</trkpt>
<trkpt lat="45.9233440" lon="9.5812980">
	<ele>1208.60</ele>
	<time>2023-10-07T05:59:16.000Z</time>
</trkpt>
<trkpt lat="45.9233460" lon="9.5813100">
	<ele>1208.80</ele>
	<time>2023-10-07T05:59:17.000Z</time>
</trkpt>
<trkpt lat="45.9233440" lon="9.5813240">
	<ele>1209.00</ele>
	<time>2023-10-07T05:59:18.000Z</time>
</trkpt>
<trkpt lat="45.9233410" lon="9.5813310">
	<ele>1209.20</ele>
	<time>2023-10-07T05:59:19.000Z</time>
</trkpt>
<trkpt lat="45.9233410" lon="9.5813410">
	<ele>1209.40</ele>
	<time>2023-10-07T05:59:20.000Z</time>
</trkpt>
<trkpt lat="45.9233430" lon="9.5813560">
	<ele>1209.60</ele>
	<time>2023-10-07T05:59:21.000Z</time>
</trkpt>
<trkpt lat="45.9233410" lon="9.5813680">
	<ele>1209.80</ele>
	<time>2023-10-07T05:59:22.000Z</time>
</trkpt>
<trkpt lat="45.9233400" lon="9.5813820">
	<ele>1209.80</ele>
	<time>2023-10-07T05:59:23.000Z</time>
</trkpt>
<trkpt lat="45.9233400" lon="9.5813920">
	<ele>1210.00</ele>
	<time>2023-10-07T05:59:24.000Z</time>
</trkpt>
<trkpt lat="45.9233420" lon="9.5813990">
	<ele>1210.00</ele>
	<time>2023-10-07T05:59:25.000Z</time>
</trkpt>
<trkpt lat="45.9233430" lon="9.5814110">
	<ele>1210.20</ele>
	<time>2023-10-07T05:59:26.000Z</time>
</trkpt>
<trkpt lat="45.9233420" lon="9.5814210">
	<ele>1210.40</ele>
	<time>2023-10-07T05:59:27.000Z</time>
</trkpt>
<trkpt lat="45.9233420" lon="9.5814330">
	<ele>1210.60</ele>
	<time>2023-10-07T05:59:28.000Z</time>
</trkpt>
<trkpt lat="45.9233430" lon="9.5814460">
	<ele>1210.60</ele>
	<time>2023-10-07T05:59:29.000Z</time>
</trkpt>
<trkpt lat="45.9233450" lon="9.5814590">
	<ele>1210.80</ele>
	<time>2023-10-07T05:59:30.000Z</time>
</trkpt>
<trkpt lat="45.9233490" lon="9.5814680">
	<ele>1210.80</ele>
	<time>2023-10-07T05:59:31.000Z</time>
</trkpt>
<trkpt lat="45.9233540" lon="9.5814770">
	<ele>1211.20</ele>
	<time>2023-10-07T05:59:32.000Z</time>
</trkpt>
<trkpt lat="45.9233580" lon="9.5814860">
	<ele>1211.20</ele>
	<time>2023-10-07T05:59:33.000Z</time>
</trkpt>
<trkpt lat="45.9233580" lon="9.5814980">
	<ele>1211.40</ele>
	<time>2023-10-07T05:59:34.000Z</time>
</trkpt>
<trkpt lat="45.9233620" lon="9.5815020">
	<ele>1211.60</ele>
	<time>2023-10-07T05:59:35.000Z</time>
</trkpt>
<trkpt lat="45.9233670" lon="9.5815030">
	<ele>1211.60</ele>
	<time>2023-10-07T05:59:36.000Z</time>
</trkpt>
<trkpt lat="45.9233690" lon="9.5815050">
	<ele>1211.80</ele>
	<time>2023-10-07T05:59:37.000Z</time>
</trkpt>
<trkpt lat="45.9233740" lon="9.5815090">
	<ele>1211.80</ele>
	<time>2023-10-07T05:59:38.000Z</time>
</trkpt>
<trkpt lat="45.9233810" lon="9.5815140">
	<ele>1212.00</ele>
	<time>2023-10-07T05:59:39.000Z</time>
</trkpt>
<trkpt lat="45.9233860" lon="9.5815190">
	<ele>1212.20</ele>
	<time>2023-10-07T05:59:40.000Z</time>
</trkpt>
<trkpt lat="45.9233910" lon="9.5815250">
	<ele>1212.40</ele>
	<time>2023-10-07T05:59:41.000Z</time>
</trkpt>
<trkpt lat="45.9234000" lon="9.5815360">
	<ele>1212.60</ele>
	<time>2023-10-07T05:59:42.000Z</time>
</trkpt>
<trkpt lat="45.9234060" lon="9.5815430">
	<ele>1212.80</ele>
	<time>2023-10-07T05:59:43.000Z</time>
</trkpt>
<trkpt lat="45.9234110" lon="9.5815540">
	<ele>1213.00</ele>
	<time>2023-10-07T05:59:44.000Z</time>
</trkpt>
<trkpt lat="45.9234180" lon="9.5815570">
	<ele>1213.00</ele>
	<time>2023-10-07T05:59:45.000Z</time>
</trkpt>
<trkpt lat="45.9234260" lon="9.5815560">
	<ele>1213.00</ele>
	<time>2023-10-07T05:59:46.000Z</time>
</trkpt>
<trkpt lat="45.9234360" lon="9.5815550">
	<ele>1213.20</ele>
	<time>2023-10-07T05:59:47.000Z</time>
</trkpt>
<trkpt lat="45.9234440" lon="9.5815530">
	<ele>1213.20</ele>
	<time>2023-10-07T05:59:48.000Z</time>
</trkpt>
<trkpt lat="45.9234480" lon="9.5815530">
	<ele>1213.40</ele>
	<time>2023-10-07T05:59:49.000Z</time>
</trkpt>
<trkpt lat="45.9234510" lon="9.5815540">
	<ele>1213.60</ele>
	<time>2023-10-07T05:59:50.000Z</time>
</trkpt>
<trkpt lat="45.9234530" lon="9.5815530">
	<ele>1213.80</ele>
	<time>2023-10-07T05:59:51.000Z</time>
</trkpt>
<trkpt lat="45.9234540" lon="9.5815520">
	<ele>1214.00</ele>
	<time>2023-10-07T05:59:52.000Z</time>
</trkpt>
<trkpt lat="45.9234560" lon="9.5815510">
	<ele>1214.00</ele>
	<time>2023-10-07T05:59:53.000Z</time>
</trkpt>
<trkpt lat="45.9234620" lon="9.5815540">
	<ele>1214.00</ele>
	<time>2023-10-07T05:59:54.000Z</time>
</trkpt>
<trkpt lat="45.9234630" lon="9.5815490">
	<ele>1213.80</ele>
	<time>2023-10-07T05:59:55.000Z</time>
</trkpt>
<trkpt lat="45.9234620" lon="9.5815470">
	<ele>1213.80</ele>
	<time>2023-10-07T05:59:56.000Z</time>
</trkpt>
<trkpt lat="45.9234600" lon="9.5815460">
	<ele>1213.80</ele>
	<time>2023-10-07T05:59:57.000Z</time>
</trkpt>
<trkpt lat="45.9234580" lon="9.5815460">
	<ele>1213.80</ele>
	<time>2023-10-07T05:59:58.000Z</time>
</trkpt>
<trkpt lat="45.9234600" lon="9.5815460">
	<ele>1213.80</ele>
	<time>2023-10-07T05:59:59.000Z</time>
</trkpt>
<trkpt lat="45.9234660" lon="9.5815420">
	<ele>1213.80</ele>
	<time>2023-10-07T06:00:00.000Z</time>
</trkpt>
<trkpt lat="45.9234760" lon="9.5815420">
	<ele>1214.00</ele>
	<time>2023-10-07T06:00:01.000Z</time>
</trkpt>
<trkpt lat="45.9234810" lon="9.5815460">
	<ele>1214.00</ele>
	<time>2023-10-07T06:00:02.000Z</time>
</trkpt>
<trkpt lat="45.9234910" lon="9.5815440">
	<ele>1214.20</ele>
	<time>2023-10-07T06:00:03.000Z</time>
</trkpt>
<trkpt lat="45.9234980" lon="9.5815450">
	<ele>1214.20</ele>
	<time>2023-10-07T06:00:04.000Z</time>
</trkpt>
<trkpt lat="45.9235060" lon="9.5815390">
	<ele>1214.20</ele>
	<time>2023-10-07T06:00:05.000Z</time>
</trkpt>
<trkpt lat="45.9235180" lon="9.5815330">
	<ele>1214.40</ele>
	<time>2023-10-07T06:00:06.000Z</time>
</trkpt>
<trkpt lat="45.9235250" lon="9.5815290">
	<ele>1214.60</ele>
	<time>2023-10-07T06:00:07.000Z</time>
</trkpt>
<trkpt lat="45.9235330" lon="9.5815320">
	<ele>1214.80</ele>
	<time>2023-10-07T06:00:08.000Z</time>
</trkpt>
<trkpt lat="45.9235420" lon="9.5815330">
	<ele>1215.00</ele>
	<time>2023-10-07T06:00:09.000Z</time>
</trkpt>
<trkpt lat="45.9235530" lon="9.5815380">
	<ele>1215.20</ele>
	<time>2023-10-07T06:00:10.000Z</time>
</trkpt>
<trkpt lat="45.9235600" lon="9.5815420">
	<ele>1215.20</ele>
	<time>2023-10-07T06:00:11.000Z</time>
</trkpt>
<trkpt lat="45.9235670" lon="9.5815450">
	<ele>1215.40</ele>
	<time>2023-10-07T06:00:12.000Z</time>
</trkpt>
<trkpt lat="45.9235720" lon="9.5815520">
	<ele>1215.60</ele>
	<time>2023-10-07T06:00:13.000Z</time>
</trkpt>
<trkpt lat="45.9235740" lon="9.5815640">
	<ele>1215.80</ele>
	<time>2023-10-07T06:00:14.000Z</time>
</trkpt>
<trkpt lat="45.9235770" lon="9.5815740">
	<ele>1216.00</ele>
	<time>2023-10-07T06:00:15.000Z</time>
</trkpt>
<trkpt lat="45.9235830" lon="9.5815810">
	<ele>1216.20</ele>
	<time>2023-10-07T06:00:16.000Z</time>
</trkpt>
<trkpt lat="45.9235860" lon="9.5815900">
	<ele>1216.20</ele>
	<time>2023-10-07T06:00:17.000Z</time>
</trkpt>
<trkpt lat="45.9235940" lon="9.5816000">
	<ele>1216.40</ele>
	<time>2023-10-07T06:00:18.000Z</time>
</trkpt>
<trkpt lat="45.9236010" lon="9.5816060">
	<ele>1216.60</ele>
	<time>2023-10-07T06:00:19.000Z</time>
</trkpt>
<trkpt lat="45.9236150" lon="9.5816110">
	<ele>1216.60</ele>
	<time>2023-10-07T06:00:20.000Z</time>
</trkpt>
<trkpt lat="45.9236290" lon="9.5816150">
	<ele>1217.00</ele>
	<time>2023-10-07T06:00:21.000Z</time>
</trkpt>
<trkpt lat="45.9236350" lon="9.5816180">
	<ele>1217.20</ele>
	<time>2023-10-07T06:00:22.000Z</time>
</trkpt>
<trkpt lat="45.9236450" lon="9.5816130">
	<ele>1217.20</ele>
	<time>2023-10-07T06:00:23.000Z</time>
</trkpt>
<trkpt lat="45.9236570" lon="9.5816140">
	<ele>1217.40</ele>
	<time>2023-10-07T06:00:24.000Z</time>
</trkpt>
<trkpt lat="45.9236700" lon="9.5816100">
	<ele>1217.40</ele>
	<time>2023-10-07T06:00:25.000Z</time>
</trkpt>
<trkpt lat="45.9236800" lon="9.5816140">
	<ele>1217.60</ele>
	<time>2023-10-07T06:00:26.000Z</time>
</trkpt>
<trkpt lat="45.9236900" lon="9.5816190">
	<ele>1217.80</ele>
	<time>2023-10-07T06:00:27.000Z</time>
</trkpt>
<trkpt lat="45.9236980" lon="9.5816250">
	<ele>1218.00</ele>
	<time>2023-10-07T06:00:28.000Z</time>
</trkpt>
<trkpt lat="45.9237060" lon="9.5816290">
	<ele>1218.20</ele>
	<time>2023-10-07T06:00:29.000Z</time>
</trkpt>
<trkpt lat="45.9237110" lon="9.5816300">
	<ele>1218.40</ele>
	<time>2023-10-07T06:00:30.000Z</time>
</trkpt>
<trkpt lat="45.9237220" lon="9.5816270">
	<ele>1218.60</ele>
	<time>2023-10-07T06:00:31.000Z</time>
</trkpt>
<trkpt lat="45.9237280" lon="9.5816270">
	<ele>1218.60</ele>
	<time>2023-10-07T06:00:32.000Z</time>
</trkpt>
<trkpt lat="45.9237350" lon="9.5816290">
	<ele>1218.80</ele>
	<time>2023-10-07T06:00:33.000Z</time>
</trkpt>
<trkpt lat="45.9237400" lon="9.5816270">
	<ele>1219.00</ele>
	<time>2023-10-07T06:00:34.000Z</time>
</trkpt>
<trkpt lat="45.9237430" lon="9.5816290">
	<ele>1219.20</ele>
	<time>2023-10-07T06:00:35.000Z</time>
</trkpt>
<trkpt lat="45.9237490" lon="9.5816310">
	<ele>1219.40</ele>
	<time>2023-10-07T06:00:36.000Z</time>
</trkpt>
<trkpt lat="45.9237550" lon="9.5816400">
	<ele>1219.60</ele>
	<time>2023-10-07T06:00:37.000Z</time>
</trkpt>
<trkpt lat="45.9237580" lon="9.5816450">
	<ele>1219.60</ele>
	<time>2023-10-07T06:00:38.000Z</time>
</trkpt>
<trkpt lat="45.9237600" lon="9.5816650">
	<ele>1219.80</ele>
	<time>2023-10-07T06:00:39.000Z</time>
</trkpt>
<trkpt lat="45.9237600" lon="9.5816920">
	<ele>1220.00</ele>
	<time>2023-10-07T06:00:40.000Z</time>
</trkpt>
<trkpt lat="45.9237580" lon="9.5817140">
	<ele>1220.20</ele>
	<time>2023-10-07T06:00:41.000Z</time>
</trkpt>
<trkpt lat="45.9237600" lon="9.5817300">
	<ele>1220.40</ele>
	<time>2023-10-07T06:00:42.000Z</time>
</trkpt>
<trkpt lat="45.9237620" lon="9.5817440">
	<ele>1220.60</ele>
	<time>2023-10-07T06:00:43.000Z</time>
</trkpt>
<trkpt lat="45.9237680" lon="9.5817560">
	<ele>1220.80</ele>
	<time>2023-10-07T06:00:44.000Z</time>
</trkpt>
<trkpt lat="45.9237800" lon="9.5817620">
	<ele>1221.00</ele>
	<time>2023-10-07T06:00:45.000Z</time>
</trkpt>
<trkpt lat="45.9237910" lon="9.5817690">
	<ele>1221.20</ele>
	<time>2023-10-07T06:00:46.000Z</time>
</trkpt>
<trkpt lat="45.9238010" lon="9.5817730">
	<ele>1221.40</ele>
	<time>2023-10-07T06:00:47.000Z</time>
</trkpt>
<trkpt lat="45.9238110" lon="9.5817700">
	<ele>1221.40</ele>
	<time>2023-10-07T06:00:48.000Z</time>
</trkpt>
<trkpt lat="45.9238200" lon="9.5817620">
	<ele>1221.80</ele>
	<time>2023-10-07T06:00:49.000Z</time>
</trkpt>
<trkpt lat="45.9238270" lon="9.5817600">
	<ele>1222.00</ele>
	<time>2023-10-07T06:00:50.000Z</time>
</trkpt>
<trkpt lat="45.9238320" lon="9.5817620">
	<ele>1222.00</ele>
	<time>2023-10-07T06:00:51.000Z</time>
</trkpt>
<trkpt lat="45.9238380" lon="9.5817640">
	<ele>1222.00</ele>
	<time>2023-10-07T06:00:52.000Z</time>
</trkpt>
<trkpt lat="45.9238460" lon="9.5817660">
	<ele>1222.40</ele>
	<time>2023-10-07T06:00:53.000Z</time>
</trkpt>
<trkpt lat="45.9238530" lon="9.5817710">
	<ele>1222.40</ele>
	<time>2023-10-07T06:00:54.000Z</time>
</trkpt>
<trkpt lat="45.9238610" lon="9.5817720">
	<ele>1222.60</ele>
	<time>2023-10-07T06:00:55.000Z</time>
</trkpt>
<trkpt lat="45.9238700" lon="9.5817680">
	<ele>1222.60</ele>
	<time>2023-10-07T06:00:56.000Z</time>
</trkpt>
<trkpt lat="45.9238810" lon="9.5817700">
	<ele>1222.80</ele>
	<time>2023-10-07T06:00:57.000Z</time>
</trkpt>
<trkpt lat="45.9238900" lon="9.5817730">
	<ele>1223.00</ele>
	<time>2023-10-07T06:00:58.000Z</time>
</trkpt>
<trkpt lat="45.9238980" lon="9.5817730">
	<ele>1223.20</ele>
	<time>2023-10-07T06:00:59.000Z</time>
</trkpt>
<trkpt lat="45.9239040" lon="9.5817780">
	<ele>1223.20</ele>
	<time>2023-10-07T06:01:00.000Z</time>
</trkpt>
<trkpt lat="45.9239120" lon="9.5817870">
	<ele>1223.40</ele>
	<time>2023-10-07T06:01:01.000Z</time>
</trkpt>
<trkpt lat="45.9239230" lon="9.5817930">
	<ele>1223.40</ele>
	<time>2023-10-07T06:01:02.000Z</time>
</trkpt>
<trkpt lat="45.9239320" lon="9.5817990">
	<ele>1223.40</ele>
	<time>2023-10-07T06:01:03.000Z</time>
</trkpt>
<trkpt lat="45.9239330" lon="9.5818030">
	<ele>1223.60</ele>
	<time>2023-10-07T06:01:04.000Z</time>
</trkpt>
<trkpt lat="45.9239340" lon="9.5818030">
	<ele>1223.80</ele>
	<time>2023-10-07T06:01:05.000Z</time>
</trkpt>
<trkpt lat="45.9239520" lon="9.5817920">
	<ele>1223.80</ele>
	<time>2023-10-07T06:01:06.000Z</time>
</trkpt>
<trkpt lat="45.9239670" lon="9.5817850">
	<ele>1224.00</ele>
	<time>2023-10-07T06:01:07.000Z</time>
</trkpt>
<trkpt lat="45.9239720" lon="9.5817860">
	<ele>1224.20</ele>
	<time>2023-10-07T06:01:08.000Z</time>
</trkpt>
<trkpt lat="45.9239820" lon="9.5817810">
	<ele>1224.20</ele>
	<time>2023-10-07T06:01:09.000Z</time>
</trkpt>
<trkpt lat="45.9239960" lon="9.5817780">
	<ele>1224.40</ele>
	<time>2023-10-07T06:01:10.000Z</time>
</trkpt>
<trkpt lat="45.9240080" lon="9.5817900">
	<ele>1224.40</ele>
	<time>2023-10-07T06:01:11.000Z</time>
</trkpt>
<trkpt lat="45.9240190" lon="9.5817960">
	<ele>1224.40</ele>
	<time>2023-10-07T06:01:12.000Z</time>
</trkpt>
<trkpt lat="45.9240320" lon="9.5817970">
	<ele>1224.60</ele>
	<time>2023-10-07T06:01:13.000Z</time>
</trkpt>
<trkpt lat="45.9240470" lon="9.5818040">
	<ele>1224.60</ele>
	<time>2023-10-07T06:01:14.000Z</time>
</trkpt>
<trkpt lat="45.9240550" lon="9.5818040">
	<ele>1224.80</ele>
	<time>2023-10-07T06:01:15.000Z</time>
</trkpt>
<trkpt lat="45.9240670" lon="9.5818030">
	<ele>1224.80</ele>
	<time>2023-10-07T06:01:16.000Z</time>
</trkpt>
<trkpt lat="45.9240770" lon="9.5818090">
	<ele>1225.00</ele>
	<time>2023-10-07T06:01:17.000Z</time>
</trkpt>
<trkpt lat="45.9240890" lon="9.5818260">
	<ele>1225.20</ele>
	<time>2023-10-07T06:01:18.000Z</time>
</trkpt>
<trkpt lat="45.9240990" lon="9.5818380">
	<ele>1225.40</ele>
	<time>2023-10-07T06:01:19.000Z</time>
</trkpt>
<trkpt lat="45.9241120" lon="9.5818560">
	<ele>1225.40</ele>
	<time>2023-10-07T06:01:20.000Z</time>
</trkpt>
<trkpt lat="45.9241270" lon="9.5818710">
	<ele>1225.60</ele>
	<time>2023-10-07T06:01:21.000Z</time>
</trkpt>
<trkpt lat="45.9241430" lon="9.5818920">
	<ele>1225.60</ele>
	<time>2023-10-07T06:01:22.000Z</time>
</trkpt>
<trkpt lat="45.9241630" lon="9.5819040">
	<ele>1225.60</ele>
	<time>2023-10-07T06:01:23.000Z</time>
</trkpt>
<trkpt lat="45.9241780" lon="9.5819200">
	<ele>1225.80</ele>
	<time>2023-10-07T06:01:24.000Z</time>
</trkpt>
<trkpt lat="45.9241920" lon="9.5819280">
	<ele>1225.80</ele>
	<time>2023-10-07T06:01:25.000Z</time>
</trkpt>
<trkpt lat="45.9242060" lon="9.5819430">
	<ele>1226.00</ele>
	<time>2023-10-07T06:01:26.000Z</time>
</trkpt>
<trkpt lat="45.9242210" lon="9.5819580">
	<ele>1226.20</ele>
	<time>2023-10-07T06:01:27.000Z</time>
</trkpt>
<trkpt lat="45.9242300" lon="9.5819740">
	<ele>1226.20</ele>
	<time>2023-10-07T06:01:28.000Z</time>
</trkpt>
<trkpt lat="45.9242390" lon="9.5819850">
	<ele>1226.40</ele>
	<time>2023-10-07T06:01:29.000Z</time>
</trkpt>
<trkpt lat="45.9242440" lon="9.5819950">
	<ele>1226.40</ele>
	<time>2023-10-07T06:01:30.000Z</time>
</trkpt>
<trkpt lat="45.9242470" lon="9.5820030">
	<ele>1226.60</ele>
	<time>2023-10-07T06:01:31.000Z</time>
</trkpt>
<trkpt lat="45.9242520" lon="9.5820110">
	<ele>1226.60</ele>
	<time>2023-10-07T06:01:32.000Z</time>
</trkpt>
<trkpt lat="45.9242550" lon="9.5820210">
	<ele>1226.80</ele>
	<time>2023-10-07T06:01:33.000Z</time>
</trkpt>
<trkpt lat="45.9242630" lon="9.5820320">
	<ele>1227.00</ele>
	<time>2023-10-07T06:01:34.000Z</time>
</trkpt>
<trkpt lat="45.9242740" lon="9.5820390">
	<ele>1227.20</ele>
	<time>2023-10-07T06:01:35.000Z</time>
</trkpt>
<trkpt lat="45.9242850" lon="9.5820430">
	<ele>1227.20</ele>
	<time>2023-10-07T06:01:36.000Z</time>
</trkpt>
<trkpt lat="45.9242950" lon="9.5820500">
	<ele>1227.40</ele>
	<time>2023-10-07T06:01:37.000Z</time>
</trkpt>
<trkpt lat="45.9243010" lon="9.5820620">
	<ele>1227.60</ele>
	<time>2023-10-07T06:01:38.000Z</time>
</trkpt>
<trkpt lat="45.9243080" lon="9.5820750">
	<ele>1227.80</ele>
	<time>2023-10-07T06:01:39.000Z</time>
</trkpt>
<trkpt lat="45.9243110" lon="9.5820900">
	<ele>1228.00</ele>
	<time>2023-10-07T06:01:40.000Z</time>
</trkpt>
<trkpt lat="45.9243120" lon="9.5821030">
	<ele>1228.00</ele>
	<time>2023-10-07T06:01:41.000Z</time>
</trkpt>
<trkpt lat="45.9243140" lon="9.5821150">
	<ele>1228.20</ele>
	<time>2023-10-07T06:01:42.000Z</time>
</trkpt>
<trkpt lat="45.9243150" lon="9.5821290">
	<ele>1228.40</ele>
	<time>2023-10-07T06:01:43.000Z</time>
</trkpt>
<trkpt lat="45.9243230" lon="9.5821350">
	<ele>1228.40</ele>
	<time>2023-10-07T06:01:44.000Z</time>
</trkpt>
<trkpt lat="45.9243380" lon="9.5821340">
	<ele>1228.60</ele>
	<time>2023-10-07T06:01:45.000Z</time>
</trkpt>
<trkpt lat="45.9243530" lon="9.5821410">
	<ele>1228.80</ele>
	<time>2023-10-07T06:01:46.000Z</time>
</trkpt>
<trkpt lat="45.9243650" lon="9.5821510">
	<ele>1229.00</ele>
	<time>2023-10-07T06:01:47.000Z</time>
</trkpt>
<trkpt lat="45.9243740" lon="9.5821640">
	<ele>1229.20</ele>
	<time>2023-10-07T06:01:48.000Z</time>
</trkpt>
<trkpt lat="45.9243790" lon="9.5821760">
	<ele>1229.40</ele>
	<time>2023-10-07T06:01:49.000Z</time>
</trkpt>
<trkpt lat="45.9243830" lon="9.5821900">
	<ele>1229.60</ele>
	<time>2023-10-07T06:01:50.000Z</time>
</trkpt>
<trkpt lat="45.9243880" lon="9.5822020">
	<ele>1229.80</ele>
	<time>2023-10-07T06:01:51.000Z</time>
</trkpt>
<trkpt lat="45.9243920" lon="9.5822180">
	<ele>1229.80</ele>
	<time>2023-10-07T06:01:52.000Z</time>
</trkpt>
<trkpt lat="45.9243950" lon="9.5822300">
	<ele>1230.00</ele>
	<time>2023-10-07T06:01:53.000Z</time>
</trkpt>
<trkpt lat="45.9243980" lon="9.5822420">
	<ele>1230.40</ele>
	<time>2023-10-07T06:01:54.000Z</time>
</trkpt>
<trkpt lat="45.9243990" lon="9.5822610">
	<ele>1230.40</ele>
	<time>2023-10-07T06:01:55.000Z</time>
</trkpt>
<trkpt lat="45.9244010" lon="9.5822830">
	<ele>1230.60</ele>
	<time>2023-10-07T06:01:56.000Z</time>
</trkpt>
<trkpt lat="45.9244060" lon="9.5823010">
	<ele>1230.60</ele>
	<time>2023-10-07T06:01:57.000Z</time>
</trkpt>
<trkpt lat="45.9244120" lon="9.5823090">
	<ele>1230.80</ele>
	<time>2023-10-07T06:01:58.000Z</time>
</trkpt>
<trkpt lat="45.9244210" lon="9.5823170">
	<ele>1231.00</ele>
	<time>2023-10-07T06:01:59.000Z</time>
</trkpt>
<trkpt lat="45.9244300" lon="9.5823320">
	<ele>1231.20</ele>
	<time>2023-10-07T06:02:00.000Z</time>
</trkpt>
<trkpt lat="45.9244360" lon="9.5823430">
	<ele>1231.40</ele>
	<time>2023-10-07T06:02:01.000Z</time>
</trkpt>
<trkpt lat="45.9244420" lon="9.5823460">
	<ele>1231.60</ele>
	<time>2023-10-07T06:02:02.000Z</time>
</trkpt>
<trkpt lat="45.9244480" lon="9.5823520">
	<ele>1231.60</ele>
	<time>2023-10-07T06:02:03.000Z</time>
</trkpt>
<trkpt lat="45.9244520" lon="9.5823600">
	<ele>1232.00</ele>
	<time>2023-10-07T06:02:04.000Z</time>
</trkpt>
<trkpt lat="45.9244560" lon="9.5823680">
	<ele>1232.40</ele>
	<time>2023-10-07T06:02:05.000Z</time>
</trkpt>
<trkpt lat="45.9244630" lon="9.5823670">
	<ele>1232.60</ele>
	<time>2023-10-07T06:02:06.000Z</time>
</trkpt>
<trkpt lat="45.9244700" lon="9.5823680">
	<ele>1232.80</ele>
	<time>2023-10-07T06:02:07.000Z</time>
</trkpt>
<trkpt lat="45.9244770" lon="9.5823710">
	<ele>1232.80</ele>
	<time>2023-10-07T06:02:08.000Z</time>
</trkpt>
<trkpt lat="45.9244850" lon="9.5823700">
	<ele>1233.20</ele>
	<time>2023-10-07T06:02:09.000Z</time>
</trkpt>
<trkpt lat="45.9244920" lon="9.5823750">
	<ele>1233.40</ele>
	<time>2023-10-07T06:02:10.000Z</time>
</trkpt>
<trkpt lat="45.9244990" lon="9.5823840">
	<ele>1233.40</ele>
	<time>2023-10-07T06:02:11.000Z</time>
</trkpt>
<trkpt lat="45.9245110" lon="9.5823870">
	<ele>1233.60</ele>
	<time>2023-10-07T06:02:12.000Z</time>
</trkpt>
<trkpt lat="45.9245190" lon="9.5823880">
	<ele>1233.80</ele>
	<time>2023-10-07T06:02:13.000Z</time>
</trkpt>
<trkpt lat="45.9245240" lon="9.5823910">
	<ele>1234.00</ele>
	<time>2023-10-07T06:02:14.000Z</time>
</trkpt>
<trkpt lat="45.9245330" lon="9.5823930">
	<ele>1234.20</ele>
	<time>2023-10-07T06:02:15.000Z</time>
</trkpt>
<trkpt lat="45.9245420" lon="9.5823950">
	<ele>1234.40</ele>
	<time>2023-10-07T06:02:16.000Z</time>
</trkpt>
<trkpt lat="45.9245510" lon="9.5824030">
	<ele>1234.60</ele>
	<time>2023-10-07T06:02:17.000Z</time>
</trkpt>
<trkpt lat="45.9245600" lon="9.5824100">
	<ele>1234.80</ele>
	<time>2023-10-07T06:02:18.000Z</time>
</trkpt>
<trkpt lat="45.9245720" lon="9.5824180">
	<ele>1235.00</ele>
	<time>2023-10-07T06:02:19.000Z</time>
</trkpt>
<trkpt lat="45.9245820" lon="9.5824260">
	<ele>1235.20</ele>
	<time>2023-10-07T06:02:20.000Z</time>
</trkpt>
<trkpt lat="45.9245860" lon="9.5824280">
	<ele>1235.40</ele>
	<time>2023-10-07T06:02:21.000Z</time>
</trkpt>
<trkpt lat="45.9245890" lon="9.5824310">
	<ele>1235.60</ele>
	<time>2023-10-07T06:02:22.000Z</time>
</trkpt>
<trkpt lat="45.9245920" lon="9.5824350">
	<ele>1235.80</ele>
	<time>2023-10-07T06:02:23.000Z</time>
</trkpt>
<trkpt lat="45.9245940" lon="9.5824370">
	<ele>1236.00</ele>
	<time>2023-10-07T06:02:24.000Z</time>
</trkpt>
<trkpt lat="45.9245940" lon="9.5824400">
	<ele>1236.20</ele>
	<time>2023-10-07T06:02:25.000Z</time>
</trkpt>
<trkpt lat="45.9246000" lon="9.5824430">
	<ele>1236.40</ele>
	<time>2023-10-07T06:02:26.000Z</time>
</trkpt>
<trkpt lat="45.9246080" lon="9.5824460">
	<ele>1236.60</ele>
	<time>2023-10-07T06:02:27.000Z</time>
</trkpt>
<trkpt lat="45.9246170" lon="9.5824490">
	<ele>1236.80</ele>
	<time>2023-10-07T06:02:28.000Z</time>
</trkpt>
<trkpt lat="45.9246230" lon="9.5824540">
	<ele>1237.00</ele>
	<time>2023-10-07T06:02:29.000Z</time>
</trkpt>
<trkpt lat="45.9246260" lon="9.5824550">
	<ele>1237.20</ele>
	<time>2023-10-07T06:02:30.000Z</time>
</trkpt>
<trkpt lat="45.9246300" lon="9.5824480">
	<ele>1237.40</ele>
	<time>2023-10-07T06:02:31.000Z</time>
</trkpt>
<trkpt lat="45.9246380" lon="9.5824410">
	<ele>1237.80</ele>
	<time>2023-10-07T06:02:32.000Z</time>
</trkpt>
<trkpt lat="45.9246500" lon="9.5824400">
	<ele>1238.00</ele>
	<time>2023-10-07T06:02:33.000Z</time>
</trkpt>
<trkpt lat="45.9246570" lon="9.5824480">
	<ele>1238.00</ele>
	<time>2023-10-07T06:02:34.000Z</time>
</trkpt>
<trkpt lat="45.9246660" lon="9.5824500">
	<ele>1238.20</ele>
	<time>2023-10-07T06:02:35.000Z</time>
</trkpt>
<trkpt lat="45.9246770" lon="9.5824390">
	<ele>1238.40</ele>
	<time>2023-10-07T06:02:36.000Z</time>
</trkpt>
<trkpt lat="45.9246830" lon="9.5824380">
	<ele>1238.60</ele>
	<time>2023-10-07T06:02:37.000Z</time>
</trkpt>
<trkpt lat="45.9246910" lon="9.5824340">
	<ele>1238.80</ele>
	<time>2023-10-07T06:02:38.000Z</time>
</trkpt>
<trkpt lat="45.9246960" lon="9.5824320">
	<ele>1239.20</ele>
	<time>2023-10-07T06:02:39.000Z</time>
</trkpt>
<trkpt lat="45.9246990" lon="9.5824310">
	<ele>1239.20</ele>
	<time>2023-10-07T06:02:40.000Z</time>
</trkpt>
<trkpt lat="45.9247060" lon="9.5824280">
	<ele>1239.40</ele>
	<time>2023-10-07T06:02:41.000Z</time>
</trkpt>
<trkpt lat="45.9247140" lon="9.5824260">
	<ele>1239.60</ele>
	<time>2023-10-07T06:02:42.000Z</time>
</trkpt>
<trkpt lat="45.9247210" lon="9.5824240">
	<ele>1240.00</ele>
	<time>2023-10-07T06:02:43.000Z</time>
</trkpt>
<trkpt lat="45.9247220" lon="9.5824330">
	<ele>1240.00</ele>
	<time>2023-10-07T06:02:44.000Z</time>
</trkpt>
<trkpt lat="45.9247280" lon="9.5824470">
	<ele>1240.20</ele>
	<time>2023-10-07T06:02:45.000Z</time>
</trkpt>
<trkpt lat="45.9247360" lon="9.5824500">
	<ele>1240.40</ele>
	<time>2023-10-07T06:02:46.000Z</time>
</trkpt>
<trkpt lat="45.9247490" lon="9.5824550">
	<ele>1240.60</ele>
	<time>2023-10-07T06:02:47.000Z</time>
</trkpt>
<trkpt lat="45.9247520" lon="9.5824590">
	<ele>1240.80</ele>
	<time>2023-10-07T06:02:48.000Z</time>
</trkpt>
<trkpt lat="45.9247580" lon="9.5824760">
	<ele>1240.80</ele>
	<time>2023-10-07T06:02:49.000Z</time>
</trkpt>
<trkpt lat="45.9247620" lon="9.5824950">
	<ele>1241.00</ele>
	<time>2023-10-07T06:02:50.000Z</time>
</trkpt>
<trkpt lat="45.9247670" lon="9.5825040">
	<ele>1241.00</ele>
	<time>2023-10-07T06:02:51.000Z</time>
</trkpt>
<trkpt lat="45.9247730" lon="9.5825180">
	<ele>1241.00</ele>
	<time>2023-10-07T06:02:52.000Z</time>
</trkpt>
<trkpt lat="45.9247740" lon="9.5825410">
	<ele>1241.20</ele>
	<time>2023-10-07T06:02:53.000Z</time>
</trkpt>
<trkpt lat="45.9247780" lon="9.5825560">
	<ele>1241.20</ele>
	<time>2023-10-07T06:02:54.000Z</time>
</trkpt>
<trkpt lat="45.9247790" lon="9.5825790">
	<ele>1241.20</ele>
	<time>2023-10-07T06:02:55.000Z</time>
</trkpt>
<trkpt lat="45.9247840" lon="9.5826010">
	<ele>1241.20</ele>
	<time>2023-10-07T06:02:56.000Z</time>
</trkpt>
<trkpt lat="45.9247900" lon="9.5826220">
	<ele>1241.40</ele>
	<time>2023-10-07T06:02:57.000Z</time>
</trkpt>
<trkpt lat="45.9247990" lon="9.5826300">
	<ele>1241.40</ele>
	<time>2023-10-07T06:02:58.000Z</time>
</trkpt>
<trkpt lat="45.9248090" lon="9.5826430">
	<ele>1241.40</ele>
	<time>2023-10-07T06:02:59.000Z</time>
</trkpt>
<trkpt lat="45.9248170" lon="9.5826630">
	<ele>1241.40</ele>
	<time>2023-10-07T06:03:00.000Z</time>
</trkpt>
<trkpt lat="45.9248200" lon="9.5826860">
	<ele>1241.40</ele>
	<time>2023-10-07T06:03:01.000Z</time>
</trkpt>
<trkpt lat="45.9248260" lon="9.5827040">
	<ele>1241.40</ele>
	<time>2023-10-07T06:03:02.000Z</time>
</trkpt>
<trkpt lat="45.9248380" lon="9.5827250">
	<ele>1241.40</ele>
	<time>2023-10-07T06:03:03.000Z</time>
</trkpt>
<trkpt lat="45.9248530" lon="9.5827390">
	<ele>1241.40</ele>
	<time>2023-10-07T06:03:04.000Z</time>
</trkpt>
<trkpt lat="45.9248730" lon="9.5827470">
	<ele>1241.40</ele>
	<time>2023-10-07T06:03:05.000Z</time>
</trkpt>
<trkpt lat="45.9248900" lon="9.5827610">
	<ele>1241.40</ele>
	<time>2023-10-07T06:03:06.000Z</time>
</trkpt>
<trkpt lat="45.9248990" lon="9.5827820">
	<ele>1241.40</ele>
	<time>2023-10-07T06:03:07.000Z</time>
</trkpt>
<trkpt lat="45.9249060" lon="9.5827990">
	<ele>1241.60</ele>
	<time>2023-10-07T06:03:08.000Z</time>
</trkpt>
<trkpt lat="45.9249170" lon="9.5828040">
	<ele>1241.60</ele>
	<time>2023-10-07T06:03:09.000Z</time>
</trkpt>
<trkpt lat="45.9249270" lon="9.5828120">
	<ele>1241.60</ele>
	<time>2023-10-07T06:03:10.000Z</time>
</trkpt>
<trkpt lat="45.9249340" lon="9.5828190">
	<ele>1241.60</ele>
	<time>2023-10-07T06:03:11.000Z</time>
</trkpt>
<trkpt lat="45.9249390" lon="9.5828280">
	<ele>1241.60</ele>
	<time>2023-10-07T06:03:12.000Z</time>
</trkpt>
<trkpt lat="45.9249430" lon="9.5828270">
	<ele>1241.60</ele>
	<time>2023-10-07T06:03:13.000Z</time>
</trkpt>
<trkpt lat="45.9249470" lon="9.5828240">
	<ele>1241.60</ele>
	<time>2023-10-07T06:03:14.000Z</time>
</trkpt>
<trkpt lat="45.9249570" lon="9.5828250">
	<ele>1241.60</ele>
	<time>2023-10-07T06:03:15.000Z</time>
</trkpt>
<trkpt lat="45.9249710" lon="9.5828330">
	<ele>1241.80</ele>
	<time>2023-10-07T06:03:16.000Z</time>
</trkpt>
<trkpt lat="45.9249840" lon="9.5828460">
	<ele>1241.80</ele>
	<time>2023-10-07T06:03:17.000Z</time>
</trkpt>
<trkpt lat="45.9250000" lon="9.5828480">
	<ele>1241.80</ele>
	<time>2023-10-07T06:03:18.000Z</time>
</trkpt>
<trkpt lat="45.9250090" lon="9.5828460">
	<ele>1242.00</ele>
	<time>2023-10-07T06:03:19.000Z</time>
</trkpt>
<trkpt lat="45.9250190" lon="9.5828460">
	<ele>1242.00</ele>
	<time>2023-10-07T06:03:20.000Z</time>
</trkpt>
<trkpt lat="45.9250260" lon="9.5828510">
	<ele>1242.00</ele>
	<time>2023-10-07T06:03:21.000Z</time>
</trkpt>
<trkpt lat="45.9250350" lon="9.5828500">
	<ele>1242.00</ele>
	<time>2023-10-07T06:03:22.000Z</time>
</trkpt>
<trkpt lat="45.9250460" lon="9.5828400">
	<ele>1242.00</ele>
	<time>2023-10-07T06:03:23.000Z</time>
</trkpt>
<trkpt lat="45.9250590" lon="9.5828320">
	<ele>1242.00</ele>
	<time>2023-10-07T06:03:24.000Z</time>
</trkpt>
<trkpt lat="45.9250740" lon="9.5828280">
	<ele>1242.00</ele>
	<time>2023-10-07T06:03:25.000Z</time>
</trkpt>
<trkpt lat="45.9250840" lon="9.5828250">
	<ele>1242.00</ele>
	<time>2023-10-07T06:03:26.000Z</time>
</trkpt>
<trkpt lat="45.9250910" lon="9.5828250">
	<ele>1242.00</ele>
	<time>2023-10-07T06:03:27.000Z</time>
</trkpt>
<trkpt lat="45.9250980" lon="9.5828280">
	<ele>1242.00</ele>
	<time>2023-10-07T06:03:28.000Z</time>
</trkpt>
<trkpt lat="45.9251060" lon="9.5828330">
	<ele>1242.00</ele>
	<time>2023-10-07T06:03:29.000Z</time>
</trkpt>
<trkpt lat="45.9251150" lon="9.5828330">
	<ele>1242.00</ele>
	<time>2023-10-07T06:03:30.000Z</time>
</trkpt>
<trkpt lat="45.9251240" lon="9.5828250">
	<ele>1242.00</ele>
	<time>2023-10-07T06:03:31.000Z</time>
</trkpt>
<trkpt lat="45.9251280" lon="9.5828210">
	<ele>1242.00</ele>
	<time>2023-10-07T06:03:32.000Z</time>
</trkpt>
<trkpt lat="45.9251310" lon="9.5828170">
	<ele>1242.00</ele>
	<time>2023-10-07T06:03:33.000Z</time>
</trkpt>
<trkpt lat="45.9251340" lon="9.5828140">
	<ele>1242.00</ele>
	<time>2023-10-07T06:03:34.000Z</time>
</trkpt>
<trkpt lat="45.9251430" lon="9.5828100">
	<ele>1242.00</ele>
	<time>2023-10-07T06:03:35.000Z</time>
</trkpt>
<trkpt lat="45.9251520" lon="9.5828100">
	<ele>1242.00</ele>
	<time>2023-10-07T06:03:36.000Z</time>
</trkpt>
<trkpt lat="45.9251590" lon="9.5828100">
	<ele>1242.20</ele>
	<time>2023-10-07T06:03:37.000Z</time>
</trkpt>
<trkpt lat="45.9251690" lon="9.5828170">
	<ele>1242.20</ele>
	<time>2023-10-07T06:03:38.000Z</time>
</trkpt>
<trkpt lat="45.9251740" lon="9.5828180">
	<ele>1242.20</ele>
	<time>2023-10-07T06:03:39.000Z</time>
</trkpt>
<trkpt lat="45.9251810" lon="9.5828280">
	<ele>1242.00</ele>
	<time>2023-10-07T06:03:40.000Z</time>
</trkpt>
<trkpt lat="45.9251820" lon="9.5828330">
	<ele>1242.00</ele>
	<time>2023-10-07T06:03:41.000Z</time>
</trkpt>
<trkpt lat="45.9251820" lon="9.5828340">
	<ele>1241.80</ele>
	<time>2023-10-07T06:03:42.000Z</time>
</trkpt>
<trkpt lat="45.9251820" lon="9.5828360">
	<ele>1241.80</ele>
	<time>2023-10-07T06:03:43.000Z</time>
</trkpt>
<trkpt lat="45.9251820" lon="9.5828370">
	<ele>1241.80</ele>
	<time>2023-10-07T06:03:44.000Z</time>
</trkpt>
<trkpt lat="45.9251820" lon="9.5828390">
	<ele>1241.80</ele>
	<time>2023-10-07T06:03:45.000Z</time>
</trkpt>
<trkpt lat="45.9251810" lon="9.5828380">
	<ele>1241.80</ele>
	<time>2023-10-07T06:03:46.000Z</time>
</trkpt>
<trkpt lat="45.9251920" lon="9.5828280">
	<ele>1241.80</ele>
	<time>2023-10-07T06:03:47.000Z</time>
</trkpt>
<trkpt lat="45.9251920" lon="9.5828280">
	<ele>1242.00</ele>
	<time>2023-10-07T06:03:48.000Z</time>
</trkpt>
<trkpt lat="45.9251910" lon="9.5828290">
	<ele>1242.00</ele>
	<time>2023-10-07T06:03:49.000Z</time>
</trkpt>
<trkpt lat="45.9251910" lon="9.5828300">
	<ele>1242.00</ele>
	<time>2023-10-07T06:03:50.000Z</time>
</trkpt>
<trkpt lat="45.9251900" lon="9.5828330">
	<ele>1242.00</ele>
	<time>2023-10-07T06:03:51.000Z</time>
</trkpt>
<trkpt lat="45.9251880" lon="9.5828340">
	<ele>1242.00</ele>
	<time>2023-10-07T06:03:52.000Z</time>
</trkpt>
<trkpt lat="45.9251860" lon="9.5828330">
	<ele>1242.00</ele>
	<time>2023-10-07T06:03:53.000Z</time>
</trkpt>
<trkpt lat="45.9251850" lon="9.5828350">
	<ele>1241.80</ele>
	<time>2023-10-07T06:03:54.000Z</time>
</trkpt>
<trkpt lat="45.9251840" lon="9.5828320">
	<ele>1241.80</ele>
	<time>2023-10-07T06:03:55.000Z</time>
</trkpt>
<trkpt lat="45.9251830" lon="9.5828330">
	<ele>1241.80</ele>
	<time>2023-10-07T06:03:56.000Z</time>
</trkpt>
<trkpt lat="45.9251830" lon="9.5828330">
	<ele>1241.80</ele>
	<time>2023-10-07T06:03:57.000Z</time>
</trkpt>
<trkpt lat="45.9251830" lon="9.5828330">
	<ele>1241.80</ele>
	<time>2023-10-07T06:03:58.000Z</time>
</trkpt>
<trkpt lat="45.9251830" lon="9.5828330">
	<ele>1241.80</ele>
	<time>2023-10-07T06:03:59.000Z</time>
</trkpt>
<trkpt lat="45.9251830" lon="9.5828330">
	<ele>1241.80</ele>
	<time>2023-10-07T06:04:00.000Z</time>
</trkpt>
<trkpt lat="45.9251830" lon="9.5828330">
	<ele>1241.80</ele>
	<time>2023-10-07T06:04:01.000Z</time>
</trkpt>
<trkpt lat="45.9251830" lon="9.5828330">
	<ele>1241.60</ele>
	<time>2023-10-07T06:04:02.000Z</time>
</trkpt>
<trkpt lat="45.9251830" lon="9.5828330">
	<ele>1241.60</ele>
	<time>2023-10-07T06:04:04.000Z</time>
</trkpt>
<trkpt lat="45.9251830" lon="9.5828330">
	<ele>1241.60</ele>
	<time>2023-10-07T06:04:05.000Z</time>
</trkpt>
<trkpt lat="45.9251830" lon="9.5828330">
	<ele>1241.60</ele>
	<time>2023-10-07T06:04:06.000Z</time>
</trkpt>
<trkpt lat="45.9251830" lon="9.5828330">
	<ele>1241.60</ele>
	<time>2023-10-07T06:04:07.000Z</time>
</trkpt>
<trkpt lat="45.9251830" lon="9.5828330">
	<ele>1241.60</ele>
	<time>2023-10-07T06:04:08.000Z</time>
</trkpt>
<trkpt lat="45.9251830" lon="9.5828330">
	<ele>1241.60</ele>
	<time>2023-10-07T06:04:09.000Z</time>
</trkpt>
<trkpt lat="45.9251830" lon="9.5828330">
	<ele>1241.60</ele>
	<time>2023-10-07T06:04:10.000Z</time>
</trkpt>
<trkpt lat="45.9251830" lon="9.5828330">
	<ele>1241.60</ele>
	<time>2023-10-07T06:04:11.000Z</time>
</trkpt>
<trkpt lat="45.9251830" lon="9.5828330">
	<ele>1241.60</ele>
	<time>2023-10-07T06:04:12.000Z</time>
</trkpt>
<trkpt lat="45.9251830" lon="9.5828330">
	<ele>1241.60</ele>
	<time>2023-10-07T06:04:13.000Z</time>
</trkpt>
<trkpt lat="45.9251840" lon="9.5828330">
	<ele>1242.00</ele>
	<time>2023-10-07T06:04:14.000Z</time>
</trkpt>
<trkpt lat="45.9251840" lon="9.5828330">
	<ele>1242.00</ele>
	<time>2023-10-07T06:04:15.000Z</time>
</trkpt>
<trkpt lat="45.9251840" lon="9.5828330">
	<ele>1242.00</ele>
	<time>2023-10-07T06:04:16.000Z</time>
</trkpt>
<trkpt lat="45.9251850" lon="9.5828330">
	<ele>1242.20</ele>
	<time>2023-10-07T06:04:17.000Z</time>
</trkpt>
<trkpt lat="45.9251850" lon="9.5828330">
	<ele>1242.20</ele>
	<time>2023-10-07T06:04:18.000Z</time>
</trkpt>
<trkpt lat="45.9251920" lon="9.5828320">
	<ele>1242.20</ele>
	<time>2023-10-07T06:04:19.000Z</time>
</trkpt>
<trkpt lat="45.9252090" lon="9.5828290">
	<ele>1242.00</ele>
	<time>2023-10-07T06:04:20.000Z</time>
</trkpt>
<trkpt lat="45.9252270" lon="9.5828250">
	<ele>1242.00</ele>
	<time>2023-10-07T06:04:21.000Z</time>
</trkpt>
<trkpt lat="45.9252420" lon="9.5828230">
	<ele>1242.00</ele>
	<time>2023-10-07T06:04:22.000Z</time>
</trkpt>
<trkpt lat="45.9252570" lon="9.5828270">
	<ele>1241.80</ele>
	<time>2023-10-07T06:04:23.000Z</time>
</trkpt>
<trkpt lat="45.9252680" lon="9.5828290">
	<ele>1241.80</ele>
	<time>2023-10-07T06:04:24.000Z</time>
</trkpt>
<trkpt lat="45.9252830" lon="9.5828330">
	<ele>1241.60</ele>
	<time>2023-10-07T06:04:25.000Z</time>
</trkpt>
<trkpt lat="45.9252990" lon="9.5828300">
	<ele>1241.40</ele>
	<time>2023-10-07T06:04:26.000Z</time>
</trkpt>
<trkpt lat="45.9253180" lon="9.5828210">
	<ele>1241.40</ele>
	<time>2023-10-07T06:04:27.000Z</time>
</trkpt>
<trkpt lat="45.9253440" lon="9.5828040">
	<ele>1241.20</ele>
	<time>2023-10-07T06:04:28.000Z</time>
</trkpt>
<trkpt lat="45.9253610" lon="9.5827870">
	<ele>1241.20</ele>
	<time>2023-10-07T06:04:29.000Z</time>
</trkpt>
<trkpt lat="45.9253670" lon="9.5827860">
	<ele>1241.00</ele>
	<time>2023-10-07T06:04:30.000Z</time>
</trkpt>
<trkpt lat="45.9253700" lon="9.5827890">
	<ele>1241.20</ele>
	<time>2023-10-07T06:04:31.000Z</time>
</trkpt>
<trkpt lat="45.9253740" lon="9.5827910">
	<ele>1241.20</ele>
	<time>2023-10-07T06:04:32.000Z</time>
</trkpt>
<trkpt lat="45.9253800" lon="9.5827860">
	<ele>1241.20</ele>
	<time>2023-10-07T06:04:33.000Z</time>
</trkpt>
<trkpt lat="45.9253910" lon="9.5827730">
	<ele>1241.20</ele>
	<time>2023-10-07T06:04:34.000Z</time>
</trkpt>
<trkpt lat="45.9253990" lon="9.5827640">
	<ele>1241.20</ele>
	<time>2023-10-07T06:04:35.000Z</time>
</trkpt>
<trkpt lat="45.9254110" lon="9.5827560">
	<ele>1241.20</ele>
	<time>2023-10-07T06:04:36.000Z</time>
</trkpt>
<trkpt lat="45.9254240" lon="9.5827430">
	<ele>1241.20</ele>
	<time>2023-10-07T06:04:37.000Z</time>
</trkpt>
<trkpt lat="45.9254330" lon="9.5827320">
	<ele>1241.00</ele>
	<time>2023-10-07T06:04:38.000Z</time>
</trkpt>
<trkpt lat="45.9254410" lon="9.5827280">
	<ele>1241.00</ele>
	<time>2023-10-07T06:04:39.000Z</time>
</trkpt>
<trkpt lat="45.9254480" lon="9.5827230">
	<ele>1240.80</ele>
	<time>2023-10-07T06:04:40.000Z</time>
</trkpt>
<trkpt lat="45.9254580" lon="9.5827180">
	<ele>1240.80</ele>
	<time>2023-10-07T06:04:41.000Z</time>
</trkpt>
<trkpt lat="45.9254700" lon="9.5827110">
	<ele>1240.80</ele>
	<time>2023-10-07T06:04:42.000Z</time>
</trkpt>
<trkpt lat="45.9254850" lon="9.5827100">
	<ele>1240.80</ele>
	<time>2023-10-07T06:04:43.000Z</time>
</trkpt>
<trkpt lat="45.9254970" lon="9.5827110">
	<ele>1240.60</ele>
	<time>2023-10-07T06:04:44.000Z</time>
</trkpt>
<trkpt lat="45.9255120" lon="9.5827070">
	<ele>1240.60</ele>
	<time>2023-10-07T06:04:45.000Z</time>
</trkpt>
<trkpt lat="45.9255220" lon="9.5827020">
	<ele>1240.60</ele>
	<time>2023-10-07T06:04:46.000Z</time>
</trkpt>
<trkpt lat="45.9255340" lon="9.5826940">
	<ele>1240.60</ele>
	<time>2023-10-07T06:04:47.000Z</time>
</trkpt>
<trkpt lat="45.9255430" lon="9.5826900">
	<ele>1240.60</ele>
	<time>2023-10-07T06:04:48.000Z</time>
</trkpt>
<trkpt lat="45.9255490" lon="9.5826840">
	<ele>1240.60</ele>
	<time>2023-10-07T06:04:49.000Z</time>
</trkpt>
<trkpt lat="45.9255600" lon="9.5826830">
	<ele>1240.40</ele>
	<time>2023-10-07T06:04:50.000Z</time>
</trkpt>
<trkpt lat="45.9255700" lon="9.5826830">
	<ele>1240.40</ele>
	<time>2023-10-07T06:04:51.000Z</time>
</trkpt>
<trkpt lat="45.9255810" lon="9.5826810">
	<ele>1240.40</ele>
	<time>2023-10-07T06:04:52.000Z</time>
</trkpt>
<trkpt lat="45.9255940" lon="9.5826670">
	<ele>1240.20</ele>
	<time>2023-10-07T06:04:53.000Z</time>
</trkpt>
<trkpt lat="45.9256110" lon="9.5826530">
	<ele>1240.20</ele>
	<time>2023-10-07T06:04:54.000Z</time>
</trkpt>
<trkpt lat="45.9256300" lon="9.5826390">
	<ele>1240.00</ele>
	<time>2023-10-07T06:04:55.000Z</time>
</trkpt>
<trkpt lat="45.9256500" lon="9.5826250">
	<ele>1239.80</ele>
	<time>2023-10-07T06:04:56.000Z</time>
</trkpt>
<trkpt lat="45.9256700" lon="9.5826060">
	<ele>1239.80</ele>
	<time>2023-10-07T06:04:57.000Z</time>
</trkpt>
<trkpt lat="45.9256900" lon="9.5826000">
	<ele>1239.80</ele>
	<time>2023-10-07T06:04:58.000Z</time>
</trkpt>
<trkpt lat="45.9257090" lon="9.5826000">
	<ele>1239.80</ele>
	<time>2023-10-07T06:04:59.000Z</time>
</trkpt>
<trkpt lat="45.9257150" lon="9.5826100">
	<ele>1239.80</ele>
	<time>2023-10-07T06:05:00.000Z</time>
</trkpt>
<trkpt lat="45.9257230" lon="9.5826060">
	<ele>1239.80</ele>
	<time>2023-10-07T06:05:01.000Z</time>
</trkpt>
<trkpt lat="45.9257340" lon="9.5826020">
	<ele>1240.00</ele>
	<time>2023-10-07T06:05:02.000Z</time>
</trkpt>
<trkpt lat="45.9257520" lon="9.5825900">
	<ele>1240.20</ele>
	<time>2023-10-07T06:05:03.000Z</time>
</trkpt>
<trkpt lat="45.9257650" lon="9.5825750">
	<ele>1240.20</ele>
	<time>2023-10-07T06:05:04.000Z</time>
</trkpt>
<trkpt lat="45.9257740" lon="9.5825690">
	<ele>1240.20</ele>
	<time>2023-10-07T06:05:05.000Z</time>
</trkpt>
<trkpt lat="45.9257840" lon="9.5825550">
	<ele>1240.20</ele>
	<time>2023-10-07T06:05:06.000Z</time>
</trkpt>
<trkpt lat="45.9257950" lon="9.5825370">
	<ele>1240.20</ele>
	<time>2023-10-07T06:05:07.000Z</time>
</trkpt>
<trkpt lat="45.9258080" lon="9.5825210">
	<ele>1240.20</ele>
	<time>2023-10-07T06:05:08.000Z</time>
</trkpt>
<trkpt lat="45.9258170" lon="9.5825080">
	<ele>1240.20</ele>
	<time>2023-10-07T06:05:09.000Z</time>
</trkpt>
<trkpt lat="45.9258270" lon="9.5825030">
	<ele>1240.00</ele>
	<time>2023-10-07T06:05:10.000Z</time>
</trkpt>
<trkpt lat="45.9258370" lon="9.5824990">
	<ele>1240.00</ele>
	<time>2023-10-07T06:05:11.000Z</time>
</trkpt>
<trkpt lat="45.9258430" lon="9.5824980">
	<ele>1240.00</ele>
	<time>2023-10-07T06:05:12.000Z</time>
</trkpt>
<trkpt lat="45.9258520" lon="9.5824960">
	<ele>1240.00</ele>
	<time>2023-10-07T06:05:13.000Z</time>
</trkpt>
<trkpt lat="45.9258680" lon="9.5824860">
	<ele>1240.00</ele>
	<time>2023-10-07T06:05:14.000Z</time>
</trkpt>
<trkpt lat="45.9258770" lon="9.5824820">
	<ele>1240.00</ele>
	<time>2023-10-07T06:05:15.000Z</time>
</trkpt>
<trkpt lat="45.9258870" lon="9.5824760">
	<ele>1240.20</ele>
	<time>2023-10-07T06:05:16.000Z</time>
</trkpt>
<trkpt lat="45.9258980" lon="9.5824670">
	<ele>1240.40</ele>
	<time>2023-10-07T06:05:17.000Z</time>
</trkpt>
<trkpt lat="45.9259060" lon="9.5824620">
	<ele>1240.40</ele>
	<time>2023-10-07T06:05:18.000Z</time>
</trkpt>
<trkpt lat="45.9259170" lon="9.5824530">
	<ele>1240.40</ele>
	<time>2023-10-07T06:05:19.000Z</time>
</trkpt>
<trkpt lat="45.9259280" lon="9.5824380">
	<ele>1240.60</ele>
	<time>2023-10-07T06:05:20.000Z</time>
</trkpt>
<trkpt lat="45.9259340" lon="9.5824300">
	<ele>1240.60</ele>
	<time>2023-10-07T06:05:21.000Z</time>
</trkpt>
<trkpt lat="45.9259400" lon="9.5824260">
	<ele>1240.80</ele>
	<time>2023-10-07T06:05:22.000Z</time>
</trkpt>
<trkpt lat="45.9259480" lon="9.5824290">
	<ele>1240.80</ele>
	<time>2023-10-07T06:05:23.000Z</time>
</trkpt>
<trkpt lat="45.9259570" lon="9.5824270">
	<ele>1240.80</ele>
	<time>2023-10-07T06:05:24.000Z</time>
</trkpt>
<trkpt lat="45.9259700" lon="9.5824190">
	<ele>1241.00</ele>
	<time>2023-10-07T06:05:25.000Z</time>
</trkpt>
<trkpt lat="45.9259820" lon="9.5824040">
	<ele>1241.00</ele>
	<time>2023-10-07T06:05:26.000Z</time>
</trkpt>
<trkpt lat="45.9259900" lon="9.5823960">
	<ele>1241.20</ele>
	<time>2023-10-07T06:05:27.000Z</time>
</trkpt>
<trkpt lat="45.9259980" lon="9.5823940">
	<ele>1241.20</ele>
	<time>2023-10-07T06:05:28.000Z</time>
</trkpt>
<trkpt lat="45.9260040" lon="9.5823770">
	<ele>1241.40</ele>
	<time>2023-10-07T06:05:29.000Z</time>
</trkpt>
<trkpt lat="45.9260160" lon="9.5823630">
	<ele>1241.60</ele>
	<time>2023-10-07T06:05:30.000Z</time>
</trkpt>
<trkpt lat="45.9260290" lon="9.5823540">
	<ele>1241.80</ele>
	<time>2023-10-07T06:05:31.000Z</time>
</trkpt>
<trkpt lat="45.9260400" lon="9.5823480">
	<ele>1242.20</ele>
	<time>2023-10-07T06:05:32.000Z</time>
</trkpt>
<trkpt lat="45.9260540" lon="9.5823350">
	<ele>1242.40</ele>
	<time>2023-10-07T06:05:33.000Z</time>
</trkpt>
<trkpt lat="45.9260640" lon="9.5823240">
	<ele>1242.60</ele>
	<time>2023-10-07T06:05:34.000Z</time>
</trkpt>
<trkpt lat="45.9260750" lon="9.5823220">
	<ele>1242.80</ele>
	<time>2023-10-07T06:05:35.000Z</time>
</trkpt>
<trkpt lat="45.9260850" lon="9.5823180">
	<ele>1242.80</ele>
	<time>2023-10-07T06:05:36.000Z</time>
</trkpt>
<trkpt lat="45.9260950" lon="9.5823140">
	<ele>1243.00</ele>
	<time>2023-10-07T06:05:37.000Z</time>
</trkpt>
<trkpt lat="45.9261080" lon="9.5823100">
	<ele>1243.00</ele>
	<time>2023-10-07T06:05:38.000Z</time>
</trkpt>
<trkpt lat="45.9261200" lon="9.5823020">
	<ele>1243.20</ele>
	<time>2023-10-07T06:05:39.000Z</time>
</trkpt>
<trkpt lat="45.9261330" lon="9.5822870">
	<ele>1243.20</ele>
	<time>2023-10-07T06:05:40.000Z</time>
</trkpt>
<trkpt lat="45.9261430" lon="9.5822760">
	<ele>1243.20</ele>
	<time>2023-10-07T06:05:41.000Z</time>
</trkpt>
<trkpt lat="45.9261520" lon="9.5822540">
	<ele>1243.20</ele>
	<time>2023-10-07T06:05:42.000Z</time>
</trkpt>
<trkpt lat="45.9261610" lon="9.5822410">
	<ele>1243.40</ele>
	<time>2023-10-07T06:05:43.000Z</time>
</trkpt>
<trkpt lat="45.9261680" lon="9.5822380">
	<ele>1243.40</ele>
	<time>2023-10-07T06:05:44.000Z</time>
</trkpt>
<trkpt lat="45.9261750" lon="9.5822340">
	<ele>1243.40</ele>
	<time>2023-10-07T06:05:45.000Z</time>
</trkpt>
<trkpt lat="45.9261850" lon="9.5822330">
	<ele>1243.40</ele>
	<time>2023-10-07T06:05:46.000Z</time>
</trkpt>
<trkpt lat="45.9261990" lon="9.5822200">
	<ele>1243.60</ele>
	<time>2023-10-07T06:05:47.000Z</time>
</trkpt>
<trkpt lat="45.9262100" lon="9.5822050">
	<ele>1243.60</ele>
	<time>2023-10-07T06:05:48.000Z</time>
</trkpt>
<trkpt lat="45.9262210" lon="9.5821960">
	<ele>1243.80</ele>
	<time>2023-10-07T06:05:49.000Z</time>
</trkpt>
<trkpt lat="45.9262300" lon="9.5821920">
	<ele>1243.80</ele>
	<time>2023-10-07T06:05:50.000Z</time>
</trkpt>
<trkpt lat="45.9262380" lon="9.5821930">
	<ele>1244.00</ele>
	<time>2023-10-07T06:05:51.000Z</time>
</trkpt>
<trkpt lat="45.9262460" lon="9.5821910">
	<ele>1244.00</ele>
	<time>2023-10-07T06:05:52.000Z</time>
</trkpt>
<trkpt lat="45.9262570" lon="9.5821880">
	<ele>1244.00</ele>
	<time>2023-10-07T06:05:53.000Z</time>
</trkpt>
<trkpt lat="45.9262710" lon="9.5821770">
	<ele>1244.00</ele>
	<time>2023-10-07T06:05:54.000Z</time>
</trkpt>
<trkpt lat="45.9262860" lon="9.5821680">
	<ele>1244.20</ele>
	<time>2023-10-07T06:05:55.000Z</time>
</trkpt>
<trkpt lat="45.9263020" lon="9.5821490">
	<ele>1244.20</ele>
	<time>2023-10-07T06:05:56.000Z</time>
</trkpt>
<trkpt lat="45.9263160" lon="9.5821390">
	<ele>1244.20</ele>
	<time>2023-10-07T06:05:57.000Z</time>
</trkpt>
<trkpt lat="45.9263200" lon="9.5821390">
	<ele>1244.40</ele>
	<time>2023-10-07T06:05:58.000Z</time>
</trkpt>
<trkpt lat="45.9263280" lon="9.5821340">
	<ele>1244.40</ele>
	<time>2023-10-07T06:05:59.000Z</time>
</trkpt>
<trkpt lat="45.9263350" lon="9.5821280">
	<ele>1244.60</ele>
	<time>2023-10-07T06:06:00.000Z</time>
</trkpt>
<trkpt lat="45.9263400" lon="9.5821280">
	<ele>1244.60</ele>
	<time>2023-10-07T06:06:01.000Z</time>
</trkpt>
<trkpt lat="45.9263470" lon="9.5821300">
	<ele>1244.60</ele>
	<time>2023-10-07T06:06:02.000Z</time>
</trkpt>
<trkpt lat="45.9263530" lon="9.5821290">
	<ele>1244.60</ele>
	<time>2023-10-07T06:06:03.000Z</time>
</trkpt>
<trkpt lat="45.9263550" lon="9.5821260">
	<ele>1244.60</ele>
	<time>2023-10-07T06:06:04.000Z</time>
</trkpt>
<trkpt lat="45.9263570" lon="9.5821240">
	<ele>1244.60</ele>
	<time>2023-10-07T06:06:05.000Z</time>
</trkpt>
<trkpt lat="45.9263590" lon="9.5821250">
	<ele>1244.60</ele>
	<time>2023-10-07T06:06:06.000Z</time>
</trkpt>
<trkpt lat="45.9263590" lon="9.5821360">
	<ele>1244.80</ele>
	<time>2023-10-07T06:06:07.000Z</time>
</trkpt>
<trkpt lat="45.9263580" lon="9.5821370">
	<ele>1245.00</ele>
	<time>2023-10-07T06:06:08.000Z</time>
</trkpt>
<trkpt lat="45.9263570" lon="9.5821390">
	<ele>1245.20</ele>
	<time>2023-10-07T06:06:09.000Z</time>
</trkpt>
<trkpt lat="45.9263570" lon="9.5821420">
	<ele>1245.20</ele>
	<time>2023-10-07T06:06:10.000Z</time>
</trkpt>
<trkpt lat="45.9263570" lon="9.5821420">
	<ele>1245.40</ele>
	<time>2023-10-07T06:06:11.000Z</time>
</trkpt>
<trkpt lat="45.9263560" lon="9.5821440">
	<ele>1245.40</ele>
	<time>2023-10-07T06:06:12.000Z</time>
</trkpt>
<trkpt lat="45.9263600" lon="9.5821490">
	<ele>1245.40</ele>
	<time>2023-10-07T06:06:13.000Z</time>
</trkpt>
<trkpt lat="45.9263600" lon="9.5821500">
	<ele>1245.60</ele>
	<time>2023-10-07T06:06:14.000Z</time>
</trkpt>
<trkpt lat="45.9263620" lon="9.5821550">
	<ele>1245.60</ele>
	<time>2023-10-07T06:06:15.000Z</time>
</trkpt>
<trkpt lat="45.9263630" lon="9.5821580">
	<ele>1245.20</ele>
	<time>2023-10-07T06:06:16.000Z</time>
</trkpt>
<trkpt lat="45.9263630" lon="9.5821610">
	<ele>1245.00</ele>
	<time>2023-10-07T06:06:17.000Z</time>
</trkpt>
<trkpt lat="45.9263660" lon="9.5821610">
	<ele>1245.00</ele>
	<time>2023-10-07T06:06:18.000Z</time>
</trkpt>
<trkpt lat="45.9263670" lon="9.5821630">
	<ele>1245.00</ele>
	<time>2023-10-07T06:06:19.000Z</time>
</trkpt>
<trkpt lat="45.9263670" lon="9.5821640">
	<ele>1245.00</ele>
	<time>2023-10-07T06:06:20.000Z</time>
</trkpt>
<trkpt lat="45.9263670" lon="9.5821640">
	<ele>1245.00</ele>
	<time>2023-10-07T06:06:21.000Z</time>
</trkpt>
<trkpt lat="45.9263670" lon="9.5821640">
	<ele>1245.00</ele>
	<time>2023-10-07T06:06:22.000Z</time>
</trkpt>
<trkpt lat="45.9263670" lon="9.5821640">
	<ele>1245.00</ele>
	<time>2023-10-07T06:06:23.000Z</time>
</trkpt>
<trkpt lat="45.9263670" lon="9.5821640">
	<ele>1245.00</ele>
	<time>2023-10-07T06:06:24.000Z</time>
</trkpt>
<trkpt lat="45.9263670" lon="9.5821640">
	<ele>1245.00</ele>
	<time>2023-10-07T06:06:25.000Z</time>
</trkpt>
<trkpt lat="45.9263670" lon="9.5821640">
	<ele>1244.80</ele>
	<time>2023-10-07T06:06:26.000Z</time>
</trkpt>
<trkpt lat="45.9263670" lon="9.5821640">
	<ele>1244.80</ele>
	<time>2023-10-07T06:06:27.000Z</time>
</trkpt>
<trkpt lat="45.9263670" lon="9.5821640">
	<ele>1244.80</ele>
	<time>2023-10-07T06:06:28.000Z</time>
</trkpt>
<trkpt lat="45.9263660" lon="9.5821640">
	<ele>1244.80</ele>
	<time>2023-10-07T06:06:29.000Z</time>
</trkpt>
<trkpt lat="45.9263660" lon="9.5821640">
	<ele>1244.80</ele>
	<time>2023-10-07T06:06:30.000Z</time>
</trkpt>
<trkpt lat="45.9263660" lon="9.5821640">
	<ele>1244.80</ele>
	<time>2023-10-07T06:06:31.000Z</time>
</trkpt>
<trkpt lat="45.9263660" lon="9.5821640">
	<ele>1244.60</ele>
	<time>2023-10-07T06:06:32.000Z</time>
</trkpt>
<trkpt lat="45.9263660" lon="9.5821640">
	<ele>1244.60</ele>
	<time>2023-10-07T06:06:33.000Z</time>
</trkpt>
<trkpt lat="45.9263660" lon="9.5821640">
	<ele>1244.60</ele>
	<time>2023-10-07T06:06:34.000Z</time>
</trkpt>
<trkpt lat="45.9263660" lon="9.5821640">
	<ele>1244.60</ele>
	<time>2023-10-07T06:06:35.000Z</time>
</trkpt>
<trkpt lat="45.9263660" lon="9.5821640">
	<ele>1244.60</ele>
	<time>2023-10-07T06:06:36.000Z</time>
</trkpt>
<trkpt lat="45.9263660" lon="9.5821640">
	<ele>1244.60</ele>
	<time>2023-10-07T06:06:37.000Z</time>
</trkpt>
<trkpt lat="45.9263660" lon="9.5821640">
	<ele>1244.60</ele>
	<time>2023-10-07T06:06:38.000Z</time>
</trkpt>
<trkpt lat="45.9263660" lon="9.5821640">
	<ele>1244.60</ele>
	<time>2023-10-07T06:06:39.000Z</time>
</trkpt>
<trkpt lat="45.9263660" lon="9.5821640">
	<ele>1244.60</ele>
	<time>2023-10-07T06:06:40.000Z</time>
</trkpt>
<trkpt lat="45.9263660" lon="9.5821640">
	<ele>1244.60</ele>
	<time>2023-10-07T06:06:41.000Z</time>
</trkpt>
<trkpt lat="45.9263710" lon="9.5821580">
	<ele>1244.60</ele>
	<time>2023-10-07T06:06:42.000Z</time>
</trkpt>
<trkpt lat="45.9263890" lon="9.5821470">
	<ele>1244.60</ele>
	<time>2023-10-07T06:06:43.000Z</time>
</trkpt>
<trkpt lat="45.9264000" lon="9.5821370">
	<ele>1244.60</ele>
	<time>2023-10-07T06:06:44.000Z</time>
</trkpt>
<trkpt lat="45.9264090" lon="9.5821280">
	<ele>1244.60</ele>
	<time>2023-10-07T06:06:45.000Z</time>
</trkpt>
<trkpt lat="45.9264170" lon="9.5821180">
	<ele>1244.60</ele>
	<time>2023-10-07T06:06:46.000Z</time>
</trkpt>
<trkpt lat="45.9264220" lon="9.5821100">
	<ele>1244.60</ele>
	<time>2023-10-07T06:06:47.000Z</time>
</trkpt>
<trkpt lat="45.9264290" lon="9.5821090">
	<ele>1244.60</ele>
	<time>2023-10-07T06:06:48.000Z</time>
</trkpt>
<trkpt lat="45.9264370" lon="9.5821060">
	<ele>1244.60</ele>
	<time>2023-10-07T06:06:49.000Z</time>
</trkpt>
<trkpt lat="45.9264440" lon="9.5821010">
	<ele>1244.60</ele>
	<time>2023-10-07T06:06:50.000Z</time>
</trkpt>
<trkpt lat="45.9264510" lon="9.5820990">
	<ele>1244.60</ele>
	<time>2023-10-07T06:06:51.000Z</time>
</trkpt>
<trkpt lat="45.9264530" lon="9.5821010">
	<ele>1244.60</ele>
	<time>2023-10-07T06:06:52.000Z</time>
</trkpt>
<trkpt lat="45.9264530" lon="9.5821020">
	<ele>1244.60</ele>
	<time>2023-10-07T06:06:53.000Z</time>
</trkpt>
<trkpt lat="45.9264530" lon="9.5821030">
	<ele>1244.80</ele>
	<time>2023-10-07T06:06:54.000Z</time>
</trkpt>
<trkpt lat="45.9264510" lon="9.5821030">
	<ele>1244.80</ele>
	<time>2023-10-07T06:06:55.000Z</time>
</trkpt>
<trkpt lat="45.9264510" lon="9.5821020">
	<ele>1244.80</ele>
	<time>2023-10-07T06:06:56.000Z</time>
</trkpt>
<trkpt lat="45.9264520" lon="9.5821020">
	<ele>1244.80</ele>
	<time>2023-10-07T06:06:57.000Z</time>
</trkpt>
<trkpt lat="45.9264510" lon="9.5821020">
	<ele>1244.80</ele>
	<time>2023-10-07T06:06:58.000Z</time>
</trkpt>
<trkpt lat="45.9264510" lon="9.5821020">
	<ele>1244.80</ele>
	<time>2023-10-07T06:06:59.000Z</time>
</trkpt>
<trkpt lat="45.9264510" lon="9.5821020">
	<ele>1244.80</ele>
	<time>2023-10-07T06:07:00.000Z</time>
</trkpt>
<trkpt lat="45.9264510" lon="9.5821020">
	<ele>1244.80</ele>
	<time>2023-10-07T06:07:01.000Z</time>
</trkpt>
<trkpt lat="45.9264510" lon="9.5821020">
	<ele>1244.80</ele>
	<time>2023-10-07T06:07:02.000Z</time>
</trkpt>
<trkpt lat="45.9264510" lon="9.5821020">
	<ele>1244.60</ele>
	<time>2023-10-07T06:07:03.000Z</time>
</trkpt>
<trkpt lat="45.9264510" lon="9.5821020">
	<ele>1244.60</ele>
	<time>2023-10-07T06:07:04.000Z</time>
</trkpt>
<trkpt lat="45.9264510" lon="9.5821020">
	<ele>1244.60</ele>
	<time>2023-10-07T06:07:05.000Z</time>
</trkpt>
<trkpt lat="45.9264510" lon="9.5821020">
	<ele>1244.40</ele>
	<time>2023-10-07T06:07:06.000Z</time>
</trkpt>
<trkpt lat="45.9264510" lon="9.5821020">
	<ele>1244.20</ele>
	<time>2023-10-07T06:07:07.000Z</time>
</trkpt>
<trkpt lat="45.9264510" lon="9.5821020">
	<ele>1244.20</ele>
	<time>2023-10-07T06:07:08.000Z</time>
</trkpt>
<trkpt lat="45.9264510" lon="9.5821020">
	<ele>1244.20</ele>
	<time>2023-10-07T06:07:09.000Z</time>
</trkpt>
<trkpt lat="45.9264510" lon="9.5821020">
	<ele>1244.20</ele>
	<time>2023-10-07T06:07:10.000Z</time>
</trkpt>
<trkpt lat="45.9264510" lon="9.5821020">
	<ele>1244.20</ele>
	<time>2023-10-07T06:07:11.000Z</time>
</trkpt>
<trkpt lat="45.9264510" lon="9.5821030">
	<ele>1244.20</ele>
	<time>2023-10-07T06:07:12.000Z</time>
</trkpt>
<trkpt lat="45.9264500" lon="9.5821030">
	<ele>1244.20</ele>
	<time>2023-10-07T06:07:13.000Z</time>
</trkpt>
<trkpt lat="45.9264500" lon="9.5821030">
	<ele>1244.20</ele>
	<time>2023-10-07T06:07:14.000Z</time>
</trkpt>
<trkpt lat="45.9264500" lon="9.5821100">
	<ele>1244.20</ele>
	<time>2023-10-07T06:07:15.000Z</time>
</trkpt>
<trkpt lat="45.9264500" lon="9.5821110">
	<ele>1244.20</ele>
	<time>2023-10-07T06:07:16.000Z</time>
</trkpt>
<trkpt lat="45.9264540" lon="9.5821130">
	<ele>1244.00</ele>
	<time>2023-10-07T06:07:17.000Z</time>
</trkpt>
<trkpt lat="45.9264660" lon="9.5821130">
	<ele>1244.00</ele>
	<time>2023-10-07T06:07:18.000Z</time>
</trkpt>
<trkpt lat="45.9264810" lon="9.5821140">
	<ele>1244.00</ele>
	<time>2023-10-07T06:07:19.000Z</time>
</trkpt>
<trkpt lat="45.9264940" lon="9.5821080">
	<ele>1244.00</ele>
	<time>2023-10-07T06:07:20.000Z</time>
</trkpt>
<trkpt lat="45.9265110" lon="9.5821090">
	<ele>1243.80</ele>
	<time>2023-10-07T06:07:21.000Z</time>
</trkpt>
<trkpt lat="45.9265260" lon="9.5821080">
	<ele>1243.80</ele>
	<time>2023-10-07T06:07:22.000Z</time>
</trkpt>
<trkpt lat="45.9265440" lon="9.5821110">
	<ele>1243.80</ele>
	<time>2023-10-07T06:07:23.000Z</time>
</trkpt>
<trkpt lat="45.9265590" lon="9.5821180">
	<ele>1243.60</ele>
	<time>2023-10-07T06:07:24.000Z</time>
</trkpt>
<trkpt lat="45.9265740" lon="9.5821250">
	<ele>1243.60</ele>
	<time>2023-10-07T06:07:25.000Z</time>
</trkpt>
<trkpt lat="45.9265870" lon="9.5821300">
	<ele>1243.60</ele>
	<time>2023-10-07T06:07:26.000Z</time>
</trkpt>
<trkpt lat="45.9266040" lon="9.5821270">
	<ele>1243.60</ele>
	<time>2023-10-07T06:07:27.000Z</time>
</trkpt>
<trkpt lat="45.9266270" lon="9.5821250">
	<ele>1243.60</ele>
	<time>2023-10-07T06:07:28.000Z</time>
</trkpt>
<trkpt lat="45.9266390" lon="9.5821320">
	<ele>1243.40</ele>
	<time>2023-10-07T06:07:29.000Z</time>
</trkpt>
<trkpt lat="45.9266560" lon="9.5821360">
	<ele>1243.40</ele>
	<time>2023-10-07T06:07:30.000Z</time>
</trkpt>
<trkpt lat="45.9266750" lon="9.5821390">
	<ele>1243.20</ele>
	<time>2023-10-07T06:07:31.000Z</time>
</trkpt>
<trkpt lat="45.9266900" lon="9.5821360">
	<ele>1243.20</ele>
	<time>2023-10-07T06:07:32.000Z</time>
</trkpt>
<trkpt lat="45.9267040" lon="9.5821400">
	<ele>1243.20</ele>
	<time>2023-10-07T06:07:33.000Z</time>
</trkpt>
<trkpt lat="45.9267100" lon="9.5821440">
	<ele>1243.20</ele>
	<time>2023-10-07T06:07:34.000Z</time>
</trkpt>
<trkpt lat="45.9267250" lon="9.5821430">
	<ele>1243.20</ele>
	<time>2023-10-07T06:07:35.000Z</time>
</trkpt>
<trkpt lat="45.9267390" lon="9.5821470">
	<ele>1243.20</ele>
	<time>2023-10-07T06:07:36.000Z</time>
</trkpt>
<trkpt lat="45.9267510" lon="9.5821500">
	<ele>1243.00</ele>
	<time>2023-10-07T06:07:37.000Z</time>
</trkpt>
<trkpt lat="45.9267660" lon="9.5821540">
	<ele>1243.00</ele>
	<time>2023-10-07T06:07:38.000Z</time>
</trkpt>
<trkpt lat="45.9267790" lon="9.5821500">
	<ele>1242.80</ele>
	<time>2023-10-07T06:07:39.000Z</time>
</trkpt>
<trkpt lat="45.9267930" lon="9.5821470">
	<ele>1242.80</ele>
	<time>2023-10-07T06:07:40.000Z</time>
</trkpt>
<trkpt lat="45.9268020" lon="9.5821460">
	<ele>1242.80</ele>
	<time>2023-10-07T06:07:41.000Z</time>
</trkpt>
<trkpt lat="45.9268100" lon="9.5821470">
	<ele>1242.80</ele>
	<time>2023-10-07T06:07:42.000Z</time>
</trkpt>
<trkpt lat="45.9268210" lon="9.5821520">
	<ele>1242.60</ele>
	<time>2023-10-07T06:07:43.000Z</time>
</trkpt>
<trkpt lat="45.9268310" lon="9.5821620">
	<ele>1242.60</ele>
	<time>2023-10-07T06:07:44.000Z</time>
</trkpt>
<trkpt lat="45.9268410" lon="9.5821610">
	<ele>1242.60</ele>
	<time>2023-10-07T06:07:45.000Z</time>
</trkpt>
<trkpt lat="45.9268520" lon="9.5821660">
	<ele>1242.60</ele>
	<time>2023-10-07T06:07:46.000Z</time>
</trkpt>
<trkpt lat="45.9268700" lon="9.5821720">
	<ele>1242.40</ele>
	<time>2023-10-07T06:07:47.000Z</time>
</trkpt>
<trkpt lat="45.9268790" lon="9.5821800">
	<ele>1242.40</ele>
	<time>2023-10-07T06:07:48.000Z</time>
</trkpt>
<trkpt lat="45.9268960" lon="9.5821830">
	<ele>1242.40</ele>
	<time>2023-10-07T06:07:49.000Z</time>
</trkpt>
<trkpt lat="45.9269090" lon="9.5821890">
	<ele>1242.40</ele>
	<time>2023-10-07T06:07:50.000Z</time>
</trkpt>
<trkpt lat="45.9269210" lon="9.5821930">
	<ele>1242.40</ele>
	<time>2023-10-07T06:07:51.000Z</time>
</trkpt>
<trkpt lat="45.9269320" lon="9.5821970">
	<ele>1242.40</ele>
	<time>2023-10-07T06:07:52.000Z</time>
</trkpt>
<trkpt lat="45.9269460" lon="9.5821910">
	<ele>1242.20</ele>
	<time>2023-10-07T06:07:53.000Z</time>
</trkpt>
<trkpt lat="45.9269580" lon="9.5821840">
	<ele>1242.20</ele>
	<time>2023-10-07T06:07:54.000Z</time>
</trkpt>
<trkpt lat="45.9269690" lon="9.5821820">
	<ele>1242.00</ele>
	<time>2023-10-07T06:07:55.000Z</time>
</trkpt>
<trkpt lat="45.9269810" lon="9.5821820">
	<ele>1242.00</ele>
	<time>2023-10-07T06:07:56.000Z</time>
</trkpt>
<trkpt lat="45.9269940" lon="9.5821760">
	<ele>1242.00</ele>
	<time>2023-10-07T06:07:57.000Z</time>
</trkpt>
<trkpt lat="45.9270070" lon="9.5821720">
	<ele>1242.00</ele>
	<time>2023-10-07T06:07:58.000Z</time>
</trkpt>
<trkpt lat="45.9270200" lon="9.5821670">
	<ele>1242.00</ele>
	<time>2023-10-07T06:07:59.000Z</time>
</trkpt>
<trkpt lat="45.9270320" lon="9.5821670">
	<ele>1242.00</ele>
	<time>2023-10-07T06:08:00.000Z</time>
</trkpt>
<trkpt lat="45.9270460" lon="9.5821650">
	<ele>1242.00</ele>
	<time>2023-10-07T06:08:01.000Z</time>
</trkpt>
<trkpt lat="45.9270590" lon="9.5821660">
	<ele>1242.00</ele>
	<time>2023-10-07T06:08:02.000Z</time>
</trkpt>
<trkpt lat="45.9270730" lon="9.5821630">
	<ele>1242.00</ele>
	<time>2023-10-07T06:08:03.000Z</time>
</trkpt>
<trkpt lat="45.9270900" lon="9.5821550">
	<ele>1242.00</ele>
	<time>2023-10-07T06:08:04.000Z</time>
</trkpt>
<trkpt lat="45.9270990" lon="9.5821540">
	<ele>1242.20</ele>
	<time>2023-10-07T06:08:05.000Z</time>
</trkpt>
<trkpt lat="45.9271140" lon="9.5821510">
	<ele>1242.20</ele>
	<time>2023-10-07T06:08:06.000Z</time>
</trkpt>
<trkpt lat="45.9271290" lon="9.5821400">
	<ele>1242.20</ele>
	<time>2023-10-07T06:08:07.000Z</time>
</trkpt>
<trkpt lat="45.9271410" lon="9.5821300">
	<ele>1242.40</ele>
	<time>2023-10-07T06:08:08.000Z</time>
</trkpt>
<trkpt lat="45.9271490" lon="9.5821210">
	<ele>1242.40</ele>
	<time>2023-10-07T06:08:09.000Z</time>
</trkpt>
<trkpt lat="45.9271600" lon="9.5821120">
	<ele>1242.60</ele>
	<time>2023-10-07T06:08:10.000Z</time>
</trkpt>
<trkpt lat="45.9271730" lon="9.5821030">
	<ele>1242.60</ele>
	<time>2023-10-07T06:08:11.000Z</time>
</trkpt>
<trkpt lat="45.9271830" lon="9.5821040">
	<ele>1242.60</ele>
	<time>2023-10-07T06:08:12.000Z</time>
</trkpt>
<trkpt lat="45.9271970" lon="9.5821010">
	<ele>1242.80</ele>
	<time>2023-10-07T06:08:13.000Z</time>
</trkpt>
<trkpt lat="45.9271950" lon="9.5821000">
	<ele>1242.80</ele>
	<time>2023-10-07T06:08:14.000Z</time>
</trkpt>
<trkpt lat="45.9272140" lon="9.5820930">
	<ele>1243.00</ele>
	<time>2023-10-07T06:08:15.000Z</time>
</trkpt>
<trkpt lat="45.9272360" lon="9.5820740">
	<ele>1243.20</ele>
	<time>2023-10-07T06:08:16.000Z</time>
</trkpt>
<trkpt lat="45.9272420" lon="9.5820850">
	<ele>1243.40</ele>
	<time>2023-10-07T06:08:17.000Z</time>
</trkpt>
<trkpt lat="45.9272460" lon="9.5821030">
	<ele>1243.40</ele>
	<time>2023-10-07T06:08:18.000Z</time>
</trkpt>
<trkpt lat="45.9272550" lon="9.5821020">
	<ele>1243.60</ele>
	<time>2023-10-07T06:08:19.000Z</time>
</trkpt>
<trkpt lat="45.9272650" lon="9.5821130">
	<ele>1243.60</ele>
	<time>2023-10-07T06:08:20.000Z</time>
</trkpt>
<trkpt lat="45.9272750" lon="9.5821010">
	<ele>1243.80</ele>
	<time>2023-10-07T06:08:21.000Z</time>
</trkpt>
<trkpt lat="45.9272920" lon="9.5820810">
	<ele>1243.80</ele>
	<time>2023-10-07T06:08:22.000Z</time>
</trkpt>
<trkpt lat="45.9273100" lon="9.5820610">
	<ele>1244.00</ele>
	<time>2023-10-07T06:08:23.000Z</time>
</trkpt>
<trkpt lat="45.9273260" lon="9.5820490">
	<ele>1244.00</ele>
	<time>2023-10-07T06:08:24.000Z</time>
</trkpt>
<trkpt lat="45.9273410" lon="9.5820410">
	<ele>1244.20</ele>
	<time>2023-10-07T06:08:25.000Z</time>
</trkpt>
<trkpt lat="45.9273530" lon="9.5820410">
	<ele>1244.40</ele>
	<time>2023-10-07T06:08:26.000Z</time>
</trkpt>
<trkpt lat="45.9273640" lon="9.5820510">
	<ele>1244.40</ele>
	<time>2023-10-07T06:08:27.000Z</time>
</trkpt>
<trkpt lat="45.9273770" lon="9.5820580">
	<ele>1244.40</ele>
	<time>2023-10-07T06:08:28.000Z</time>
</trkpt>
<trkpt lat="45.9273890" lon="9.5820670">
	<ele>1244.40</ele>
	<time>2023-10-07T06:08:29.000Z</time>
</trkpt>
<trkpt lat="45.9274020" lon="9.5820820">
	<ele>1244.40</ele>
	<time>2023-10-07T06:08:30.000Z</time>
</trkpt>
<trkpt lat="45.9274130" lon="9.5820870">
	<ele>1244.40</ele>
	<time>2023-10-07T06:08:31.000Z</time>
</trkpt>
<trkpt lat="45.9274270" lon="9.5820870">
	<ele>1244.40</ele>
	<time>2023-10-07T06:08:32.000Z</time>
</trkpt>
<trkpt lat="45.9274390" lon="9.5820830">
	<ele>1244.40</ele>
	<time>2023-10-07T06:08:33.000Z</time>
</trkpt>
<trkpt lat="45.9274520" lon="9.5820830">
	<ele>1244.60</ele>
	<time>2023-10-07T06:08:34.000Z</time>
</trkpt>
<trkpt lat="45.9274650" lon="9.5820830">
	<ele>1244.60</ele>
	<time>2023-10-07T06:08:35.000Z</time>
</trkpt>
<trkpt lat="45.9274770" lon="9.5820810">
	<ele>1244.80</ele>
	<time>2023-10-07T06:08:36.000Z</time>
</trkpt>
<trkpt lat="45.9274870" lon="9.5820770">
	<ele>1244.80</ele>
	<time>2023-10-07T06:08:37.000Z</time>
</trkpt>
<trkpt lat="45.9274990" lon="9.5820730">
	<ele>1245.00</ele>
	<time>2023-10-07T06:08:38.000Z</time>
</trkpt>
<trkpt lat="45.9275100" lon="9.5820710">
	<ele>1245.00</ele>
	<time>2023-10-07T06:08:39.000Z</time>
</trkpt>
<trkpt lat="45.9275290" lon="9.5820620">
	<ele>1245.20</ele>
	<time>2023-10-07T06:08:40.000Z</time>
</trkpt>
<trkpt lat="45.9275380" lon="9.5820570">
	<ele>1245.20</ele>
	<time>2023-10-07T06:08:41.000Z</time>
</trkpt>
<trkpt lat="45.9275530" lon="9.5820520">
	<ele>1245.40</ele>
	<time>2023-10-07T06:08:42.000Z</time>
</trkpt>
<trkpt lat="45.9275640" lon="9.5820380">
	<ele>1245.40</ele>
	<time>2023-10-07T06:08:43.000Z</time>
</trkpt>
<trkpt lat="45.9275800" lon="9.5820160">
	<ele>1245.60</ele>
	<time>2023-10-07T06:08:44.000Z</time>
</trkpt>
<trkpt lat="45.9275870" lon="9.5820020">
	<ele>1245.80</ele>
	<time>2023-10-07T06:08:45.000Z</time>
</trkpt>
<trkpt lat="45.9275930" lon="9.5819910">
	<ele>1246.00</ele>
	<time>2023-10-07T06:08:46.000Z</time>
</trkpt>
<trkpt lat="45.9276040" lon="9.5819860">
	<ele>1246.20</ele>
	<time>2023-10-07T06:08:47.000Z</time>
</trkpt>
<trkpt lat="45.9276140" lon="9.5819780">
	<ele>1246.20</ele>
	<time>2023-10-07T06:08:48.000Z</time>
</trkpt>
<trkpt lat="45.9276240" lon="9.5819790">
	<ele>1246.20</ele>
	<time>2023-10-07T06:08:49.000Z</time>
</trkpt>
<trkpt lat="45.9276350" lon="9.5819720">
	<ele>1246.60</ele>
	<time>2023-10-07T06:08:50.000Z</time>
</trkpt>
<trkpt lat="45.9276500" lon="9.5819630">
	<ele>1246.80</ele>
	<time>2023-10-07T06:08:51.000Z</time>
</trkpt>
<trkpt lat="45.9276580" lon="9.5819570">
	<ele>1247.00</ele>
	<time>2023-10-07T06:08:52.000Z</time>
</trkpt>
<trkpt lat="45.9276670" lon="9.5819540">
	<ele>1247.20</ele>
	<time>2023-10-07T06:08:53.000Z</time>
</trkpt>
<trkpt lat="45.9276730" lon="9.5819650">
	<ele>1247.20</ele>
	<time>2023-10-07T06:08:54.000Z</time>
</trkpt>
<trkpt lat="45.9276790" lon="9.5819750">
	<ele>1247.40</ele>
	<time>2023-10-07T06:08:55.000Z</time>
</trkpt>
<trkpt lat="45.9276850" lon="9.5819920">
	<ele>1247.80</ele>
	<time>2023-10-07T06:08:56.000Z</time>
</trkpt>
<trkpt lat="45.9276900" lon="9.5820090">
	<ele>1247.80</ele>
	<time>2023-10-07T06:08:57.000Z</time>
</trkpt>
<trkpt lat="45.9276990" lon="9.5820130">
	<ele>1248.00</ele>
	<time>2023-10-07T06:08:58.000Z</time>
</trkpt>
<trkpt lat="45.9277090" lon="9.5820170">
	<ele>1248.40</ele>
	<time>2023-10-07T06:08:59.000Z</time>
</trkpt>
<trkpt lat="45.9277190" lon="9.5820140">
	<ele>1248.40</ele>
	<time>2023-10-07T06:09:00.000Z</time>
</trkpt>
<trkpt lat="45.9277260" lon="9.5820150">
	<ele>1248.60</ele>
	<time>2023-10-07T06:09:01.000Z</time>
</trkpt>
<trkpt lat="45.9277310" lon="9.5820130">
	<ele>1248.80</ele>
	<time>2023-10-07T06:09:02.000Z</time>
</trkpt>
<trkpt lat="45.9277390" lon="9.5820120">
	<ele>1248.80</ele>
	<time>2023-10-07T06:09:03.000Z</time>
</trkpt>
<trkpt lat="45.9277490" lon="9.5820140">
	<ele>1249.00</ele>
	<time>2023-10-07T06:09:04.000Z</time>
</trkpt>
<trkpt lat="45.9277600" lon="9.5820190">
	<ele>1249.00</ele>
	<time>2023-10-07T06:09:05.000Z</time>
</trkpt>
<trkpt lat="45.9277710" lon="9.5820180">
	<ele>1249.00</ele>
	<time>2023-10-07T06:09:06.000Z</time>
</trkpt>
<trkpt lat="45.9277820" lon="9.5820170">
	<ele>1249.20</ele>
	<time>2023-10-07T06:09:07.000Z</time>
</trkpt>
<trkpt lat="45.9277950" lon="9.5820120">
	<ele>1249.40</ele>
	<time>2023-10-07T06:09:08.000Z</time>
</trkpt>
<trkpt lat="45.9278060" lon="9.5820090">
	<ele>1249.40</ele>
	<time>2023-10-07T06:09:09.000Z</time>
</trkpt>
<trkpt lat="45.9278180" lon="9.5820000">
	<ele>1249.60</ele>
	<time>2023-10-07T06:09:10.000Z</time>
</trkpt>
<trkpt lat="45.9278320" lon="9.5819980">
	<ele>1249.60</ele>
	<time>2023-10-07T06:09:11.000Z</time>
</trkpt>
<trkpt lat="45.9278440" lon="9.5819930">
	<ele>1249.60</ele>
	<time>2023-10-07T06:09:12.000Z</time>
</trkpt>
<trkpt lat="45.9278560" lon="9.5819800">
	<ele>1249.80</ele>
	<time>2023-10-07T06:09:13.000Z</time>
</trkpt>
<trkpt lat="45.9278700" lon="9.5819620">
	<ele>1250.00</ele>
	<time>2023-10-07T06:09:14.000Z</time>
</trkpt>
<trkpt lat="45.9278840" lon="9.5819320">
	<ele>1250.00</ele>
	<time>2023-10-07T06:09:15.000Z</time>
</trkpt>
<trkpt lat="45.9279010" lon="9.5819070">
	<ele>1250.00</ele>
	<time>2023-10-07T06:09:16.000Z</time>
</trkpt>
<trkpt lat="45.9279140" lon="9.5818970">
	<ele>1250.20</ele>
	<time>2023-10-07T06:09:17.000Z</time>
</trkpt>
<trkpt lat="45.9279250" lon="9.5818750">
	<ele>1250.40</ele>
	<time>2023-10-07T06:09:18.000Z</time>
</trkpt>
<trkpt lat="45.9279240" lon="9.5818710">
	<ele>1250.60</ele>
	<time>2023-10-07T06:09:19.000Z</time>
</trkpt>
<trkpt lat="45.9279250" lon="9.5818550">
	<ele>1250.80</ele>
	<time>2023-10-07T06:09:20.000Z</time>
</trkpt>
<trkpt lat="45.9279290" lon="9.5818430">
	<ele>1251.00</ele>
	<time>2023-10-07T06:09:21.000Z</time>
</trkpt>
<trkpt lat="45.9279320" lon="9.5818400">
	<ele>1251.20</ele>
	<time>2023-10-07T06:09:22.000Z</time>
</trkpt>
<trkpt lat="45.9279350" lon="9.5818310">
	<ele>1251.40</ele>
	<time>2023-10-07T06:09:23.000Z</time>
</trkpt>
<trkpt lat="45.9279390" lon="9.5818200">
	<ele>1251.40</ele>
	<time>2023-10-07T06:09:24.000Z</time>
</trkpt>
<trkpt lat="45.9279430" lon="9.5818100">
	<ele>1251.60</ele>
	<time>2023-10-07T06:09:25.000Z</time>
</trkpt>
<trkpt lat="45.9279470" lon="9.5818080">
	<ele>1251.80</ele>
	<time>2023-10-07T06:09:26.000Z</time>
</trkpt>
<trkpt lat="45.9279480" lon="9.5818100">
	<ele>1252.00</ele>
	<time>2023-10-07T06:09:27.000Z</time>
</trkpt>
<trkpt lat="45.9279540" lon="9.5817930">
	<ele>1252.00</ele>
	<time>2023-10-07T06:09:28.000Z</time>
</trkpt>
<trkpt lat="45.9279550" lon="9.5817910">
	<ele>1252.20</ele>
	<time>2023-10-07T06:09:29.000Z</time>
</trkpt>
<trkpt lat="45.9279580" lon="9.5817860">
	<ele>1252.40</ele>
	<time>2023-10-07T06:09:30.000Z</time>
</trkpt>
<trkpt lat="45.9279590" lon="9.5817860">
	<ele>1252.60</ele>
	<time>2023-10-07T06:09:31.000Z</time>
</trkpt>
<trkpt lat="45.9279600" lon="9.5817780">
	<ele>1252.80</ele>
	<time>2023-10-07T06:09:32.000Z</time>
</trkpt>
<trkpt lat="45.9279650" lon="9.5817650">
	<ele>1253.00</ele>
	<time>2023-10-07T06:09:33.000Z</time>
</trkpt>
<trkpt lat="45.9279710" lon="9.5817540">
	<ele>1253.00</ele>
	<time>2023-10-07T06:09:34.000Z</time>
</trkpt>
<trkpt lat="45.9279800" lon="9.5817290">
	<ele>1253.20</ele>
	<time>2023-10-07T06:09:35.000Z</time>
</trkpt>
<trkpt lat="45.9279850" lon="9.5817090">
	<ele>1253.40</ele>
	<time>2023-10-07T06:09:36.000Z</time>
</trkpt>
<trkpt lat="45.9279910" lon="9.5816830">
	<ele>1253.40</ele>
	<time>2023-10-07T06:09:37.000Z</time>
</trkpt>
<trkpt lat="45.9279860" lon="9.5816780">
	<ele>1253.60</ele>
	<time>2023-10-07T06:09:38.000Z</time>
</trkpt>
<trkpt lat="45.9279690" lon="9.5816770">
	<ele>1253.80</ele>
	<time>2023-10-07T06:09:39.000Z</time>
</trkpt>
<trkpt lat="45.9279720" lon="9.5816700">
	<ele>1254.00</ele>
	<time>2023-10-07T06:09:40.000Z</time>
</trkpt>
<trkpt lat="45.9279830" lon="9.5816540">
	<ele>1254.20</ele>
	<time>2023-10-07T06:09:41.000Z</time>
</trkpt>
<trkpt lat="45.9279900" lon="9.5816390">
	<ele>1254.40</ele>
	<time>2023-10-07T06:09:42.000Z</time>
</trkpt>
<trkpt lat="45.9279970" lon="9.5816220">
	<ele>1254.60</ele>
	<time>2023-10-07T06:09:43.000Z</time>
</trkpt>
<trkpt lat="45.9280060" lon="9.5816070">
	<ele>1254.60</ele>
	<time>2023-10-07T06:09:44.000Z</time>
</trkpt>
<trkpt lat="45.9280100" lon="9.5816010">
	<ele>1254.80</ele>
	<time>2023-10-07T06:09:45.000Z</time>
</trkpt>
<trkpt lat="45.9280160" lon="9.5815970">
	<ele>1255.20</ele>
	<time>2023-10-07T06:09:46.000Z</time>
</trkpt>
<trkpt lat="45.9280210" lon="9.5815930">
	<ele>1255.40</ele>
	<time>2023-10-07T06:09:47.000Z</time>
</trkpt>
<trkpt lat="45.9280280" lon="9.5815930">
	<ele>1255.40</ele>
	<time>2023-10-07T06:09:48.000Z</time>
</trkpt>
<trkpt lat="45.9280380" lon="9.5815850">
	<ele>1255.60</ele>
	<time>2023-10-07T06:09:49.000Z</time>
</trkpt>
<trkpt lat="45.9280460" lon="9.5815790">
	<ele>1255.80</ele>
	<time>2023-10-07T06:09:50.000Z</time>
</trkpt>
<trkpt lat="45.9280520" lon="9.5815740">
	<ele>1256.00</ele>
	<time>2023-10-07T06:09:51.000Z</time>
</trkpt>
<trkpt lat="45.9280580" lon="9.5815700">
	<ele>1256.00</ele>
	<time>2023-10-07T06:09:52.000Z</time>
</trkpt>
<trkpt lat="45.9280580" lon="9.5815700">
	<ele>1256.20</ele>
	<time>2023-10-07T06:09:53.000Z</time>
</trkpt>
<trkpt lat="45.9280560" lon="9.5815710">
	<ele>1256.20</ele>
	<time>2023-10-07T06:09:54.000Z</time>
</trkpt>
<trkpt lat="45.9280530" lon="9.5815690">
	<ele>1256.40</ele>
	<time>2023-10-07T06:09:55.000Z</time>
</trkpt>
<trkpt lat="45.9280550" lon="9.5815550">
	<ele>1256.60</ele>
	<time>2023-10-07T06:09:56.000Z</time>
</trkpt>
<trkpt lat="45.9280620" lon="9.5815490">
	<ele>1256.80</ele>
	<time>2023-10-07T06:09:57.000Z</time>
</trkpt>
<trkpt lat="45.9280780" lon="9.5815200">
	<ele>1256.80</ele>
	<time>2023-10-07T06:09:58.000Z</time>
</trkpt>
<trkpt lat="45.9280930" lon="9.5814880">
	<ele>1257.00</ele>
	<time>2023-10-07T06:09:59.000Z</time>
</trkpt>
<trkpt lat="45.9281100" lon="9.5814530">
	<ele>1257.00</ele>
	<time>2023-10-07T06:10:00.000Z</time>
</trkpt>
<trkpt lat="45.9281240" lon="9.5814300">
	<ele>1257.00</ele>
	<time>2023-10-07T06:10:01.000Z</time>
</trkpt>
<trkpt lat="45.9281310" lon="9.5814200">
	<ele>1257.00</ele>
	<time>2023-10-07T06:10:02.000Z</time>
</trkpt>
<trkpt lat="45.9281370" lon="9.5814090">
	<ele>1257.20</ele>
	<time>2023-10-07T06:10:03.000Z</time>
</trkpt>
<trkpt lat="45.9281490" lon="9.5813930">
	<ele>1257.20</ele>
	<time>2023-10-07T06:10:04.000Z</time>
</trkpt>
<trkpt lat="45.9281530" lon="9.5813890">
	<ele>1257.20</ele>
	<time>2023-10-07T06:10:05.000Z</time>
</trkpt>
<trkpt lat="45.9281610" lon="9.5813900">
	<ele>1257.20</ele>
	<time>2023-10-07T06:10:06.000Z</time>
</trkpt>
<trkpt lat="45.9281660" lon="9.5813950">
	<ele>1257.20</ele>
	<time>2023-10-07T06:10:07.000Z</time>
</trkpt>
<trkpt lat="45.9281720" lon="9.5813910">
	<ele>1257.20</ele>
	<time>2023-10-07T06:10:08.000Z</time>
</trkpt>
<trkpt lat="45.9281750" lon="9.5813850">
	<ele>1257.20</ele>
	<time>2023-10-07T06:10:09.000Z</time>
</trkpt>
<trkpt lat="45.9281820" lon="9.5813690">
	<ele>1257.20</ele>
	<time>2023-10-07T06:10:10.000Z</time>
</trkpt>
<trkpt lat="45.9281920" lon="9.5813460">
	<ele>1257.20</ele>
	<time>2023-10-07T06:10:11.000Z</time>
</trkpt>
<trkpt lat="45.9282010" lon="9.5813250">
	<ele>1257.40</ele>
	<time>2023-10-07T06:10:12.000Z</time>
</trkpt>
<trkpt lat="45.9282070" lon="9.5813110">
	<ele>1257.60</ele>
	<time>2023-10-07T06:10:13.000Z</time>
</trkpt>
<trkpt lat="45.9282090" lon="9.5813000">
	<ele>1257.60</ele>
	<time>2023-10-07T06:10:14.000Z</time>
</trkpt>
<trkpt lat="45.9282120" lon="9.5812920">
	<ele>1257.80</ele>
	<time>2023-10-07T06:10:15.000Z</time>
</trkpt>
<trkpt lat="45.9282150" lon="9.5812810">
	<ele>1257.80</ele>
	<time>2023-10-07T06:10:16.000Z</time>
</trkpt>
<trkpt lat="45.9282250" lon="9.5812640">
	<ele>1257.80</ele>
	<time>2023-10-07T06:10:17.000Z</time>
</trkpt>
<trkpt lat="45.9282300" lon="9.5812600">
	<ele>1258.00</ele>
	<time>2023-10-07T06:10:18.000Z</time>
</trkpt>
<trkpt lat="45.9282320" lon="9.5812560">
	<ele>1258.20</ele>
	<time>2023-10-07T06:10:19.000Z</time>
</trkpt>
<trkpt lat="45.9282410" lon="9.5812360">
	<ele>1258.40</ele>
	<time>2023-10-07T06:10:20.000Z</time>
</trkpt>
<trkpt lat="45.9282490" lon="9.5812310">
	<ele>1258.60</ele>
	<time>2023-10-07T06:10:21.000Z</time>
</trkpt>
<trkpt lat="45.9282470" lon="9.5812310">
	<ele>1258.80</ele>
	<time>2023-10-07T06:10:22.000Z</time>
</trkpt>
<trkpt lat="45.9282410" lon="9.5812490">
	<ele>1259.00</ele>
	<time>2023-10-07T06:10:23.000Z</time>
</trkpt>
<trkpt lat="45.9282400" lon="9.5812540">
	<ele>1259.00</ele>
	<time>2023-10-07T06:10:24.000Z</time>
</trkpt>
<trkpt lat="45.9282390" lon="9.5812570">
	<ele>1259.00</ele>
	<time>2023-10-07T06:10:25.000Z</time>
</trkpt>
<trkpt lat="45.9282400" lon="9.5812640">
	<ele>1259.00</ele>
	<time>2023-10-07T06:10:26.000Z</time>
</trkpt>
<trkpt lat="45.9282390" lon="9.5812670">
	<ele>1259.00</ele>
	<time>2023-10-07T06:10:27.000Z</time>
</trkpt>
<trkpt lat="45.9282440" lon="9.5812580">
	<ele>1259.00</ele>
	<time>2023-10-07T06:10:28.000Z</time>
</trkpt>
<trkpt lat="45.9282550" lon="9.5812470">
	<ele>1258.80</ele>
	<time>2023-10-07T06:10:29.000Z</time>
</trkpt>
<trkpt lat="45.9282670" lon="9.5812380">
	<ele>1258.80</ele>
	<time>2023-10-07T06:10:30.000Z</time>
</trkpt>
<trkpt lat="45.9282790" lon="9.5812280">
	<ele>1258.80</ele>
	<time>2023-10-07T06:10:31.000Z</time>
</trkpt>
<trkpt lat="45.9282900" lon="9.5812140">
	<ele>1259.00</ele>
	<time>2023-10-07T06:10:32.000Z</time>
</trkpt>
<trkpt lat="45.9283020" lon="9.5812040">
	<ele>1259.00</ele>
	<time>2023-10-07T06:10:33.000Z</time>
</trkpt>
<trkpt lat="45.9283130" lon="9.5811960">
	<ele>1259.20</ele>
	<time>2023-10-07T06:10:34.000Z</time>
</trkpt>
<trkpt lat="45.9283230" lon="9.5811850">
	<ele>1259.40</ele>
	<time>2023-10-07T06:10:35.000Z</time>
</trkpt>
<trkpt lat="45.9283340" lon="9.5811630">
	<ele>1259.60</ele>
	<time>2023-10-07T06:10:36.000Z</time>
</trkpt>
<trkpt lat="45.9283440" lon="9.5811430">
	<ele>1259.60</ele>
	<time>2023-10-07T06:10:37.000Z</time>
</trkpt>
<trkpt lat="45.9283540" lon="9.5811200">
	<ele>1259.80</ele>
	<time>2023-10-07T06:10:38.000Z</time>
</trkpt>
<trkpt lat="45.9283640" lon="9.5811030">
	<ele>1259.80</ele>
	<time>2023-10-07T06:10:39.000Z</time>
</trkpt>
<trkpt lat="45.9283720" lon="9.5810920">
	<ele>1260.00</ele>
	<time>2023-10-07T06:10:40.000Z</time>
</trkpt>
<trkpt lat="45.9283770" lon="9.5810900">
	<ele>1260.20</ele>
	<time>2023-10-07T06:10:41.000Z</time>
</trkpt>
<trkpt lat="45.9283880" lon="9.5810800">
	<ele>1260.20</ele>
	<time>2023-10-07T06:10:42.000Z</time>
</trkpt>
<trkpt lat="45.9284010" lon="9.5810710">
	<ele>1260.40</ele>
	<time>2023-10-07T06:10:43.000Z</time>
</trkpt>
<trkpt lat="45.9284040" lon="9.5810700">
	<ele>1260.60</ele>
	<time>2023-10-07T06:10:44.000Z</time>
</trkpt>
<trkpt lat="45.9284120" lon="9.5810570">
	<ele>1260.80</ele>
	<time>2023-10-07T06:10:45.000Z</time>
</trkpt>
<trkpt lat="45.9284200" lon="9.5810400">
	<ele>1261.00</ele>
	<time>2023-10-07T06:10:46.000Z</time>
</trkpt>
<trkpt lat="45.9284350" lon="9.5810190">
	<ele>1261.20</ele>
	<time>2023-10-07T06:10:47.000Z</time>
</trkpt>
<trkpt lat="45.9284450" lon="9.5810060">
	<ele>1261.20</ele>
	<time>2023-10-07T06:10:48.000Z</time>
</trkpt>
<trkpt lat="45.9284520" lon="9.5810040">
	<ele>1261.40</ele>
	<time>2023-10-07T06:10:49.000Z</time>
</trkpt>
<trkpt lat="45.9284620" lon="9.5809810">
	<ele>1261.40</ele>
	<time>2023-10-07T06:10:50.000Z</time>
</trkpt>
<trkpt lat="45.9284710" lon="9.5809640">
	<ele>1261.60</ele>
	<time>2023-10-07T06:10:51.000Z</time>
</trkpt>
<trkpt lat="45.9284790" lon="9.5809650">
	<ele>1261.80</ele>
	<time>2023-10-07T06:10:52.000Z</time>
</trkpt>
<trkpt lat="45.9284810" lon="9.5809630">
	<ele>1261.80</ele>
	<time>2023-10-07T06:10:53.000Z</time>
</trkpt>
<trkpt lat="45.9284870" lon="9.5809570">
	<ele>1262.00</ele>
	<time>2023-10-07T06:10:54.000Z</time>
</trkpt>
<trkpt lat="45.9284940" lon="9.5809540">
	<ele>1262.20</ele>
	<time>2023-10-07T06:10:55.000Z</time>
</trkpt>
<trkpt lat="45.9285050" lon="9.5809420">
	<ele>1262.40</ele>
	<time>2023-10-07T06:10:56.000Z</time>
</trkpt>
<trkpt lat="45.9285110" lon="9.5809400">
	<ele>1262.60</ele>
	<time>2023-10-07T06:10:57.000Z</time>
</trkpt>
<trkpt lat="45.9285230" lon="9.5809280">
	<ele>1262.60</ele>
	<time>2023-10-07T06:10:58.000Z</time>
</trkpt>
<trkpt lat="45.9285300" lon="9.5809200">
	<ele>1262.80</ele>
	<time>2023-10-07T06:10:59.000Z</time>
</trkpt>
<trkpt lat="45.9285380" lon="9.5809110">
	<ele>1263.00</ele>
	<time>2023-10-07T06:11:00.000Z</time>
</trkpt>
<trkpt lat="45.9285440" lon="9.5809040">
	<ele>1263.00</ele>
	<time>2023-10-07T06:11:01.000Z</time>
</trkpt>
<trkpt lat="45.9285510" lon="9.5808920">
	<ele>1263.20</ele>
	<time>2023-10-07T06:11:02.000Z</time>
</trkpt>
<trkpt lat="45.9285570" lon="9.5808870">
	<ele>1263.00</ele>
	<time>2023-10-07T06:11:03.000Z</time>
</trkpt>
<trkpt lat="45.9285630" lon="9.5808820">
	<ele>1262.80</ele>
	<time>2023-10-07T06:11:04.000Z</time>
</trkpt>
<trkpt lat="45.9285680" lon="9.5808750">
	<ele>1262.80</ele>
	<time>2023-10-07T06:11:05.000Z</time>
</trkpt>
<trkpt lat="45.9285690" lon="9.5808770">
	<ele>1262.60</ele>
	<time>2023-10-07T06:11:06.000Z</time>
</trkpt>
<trkpt lat="45.9285690" lon="9.5808710">
	<ele>1262.60</ele>
	<time>2023-10-07T06:11:07.000Z</time>
</trkpt>
<trkpt lat="45.9285760" lon="9.5808630">
	<ele>1262.40</ele>
	<time>2023-10-07T06:11:08.000Z</time>
</trkpt>
<trkpt lat="45.9285780" lon="9.5808650">
	<ele>1262.40</ele>
	<time>2023-10-07T06:11:09.000Z</time>
</trkpt>
<trkpt lat="45.9285820" lon="9.5808660">
	<ele>1262.20</ele>
	<time>2023-10-07T06:11:10.000Z</time>
</trkpt>
<trkpt lat="45.9285850" lon="9.5808580">
	<ele>1262.00</ele>
	<time>2023-10-07T06:11:11.000Z</time>
</trkpt>
<trkpt lat="45.9285890" lon="9.5808450">
	<ele>1262.00</ele>
	<time>2023-10-07T06:11:12.000Z</time>
</trkpt>
<trkpt lat="45.9285940" lon="9.5808370">
	<ele>1261.80</ele>
	<time>2023-10-07T06:11:13.000Z</time>
</trkpt>
<trkpt lat="45.9286030" lon="9.5808290">
	<ele>1261.60</ele>
	<time>2023-10-07T06:11:14.000Z</time>
</trkpt>
<trkpt lat="45.9286130" lon="9.5808220">
	<ele>1261.60</ele>
	<time>2023-10-07T06:11:15.000Z</time>
</trkpt>
<trkpt lat="45.9286250" lon="9.5808080">
	<ele>1261.40</ele>
	<time>2023-10-07T06:11:16.000Z</time>
</trkpt>
<trkpt lat="45.9286330" lon="9.5808030">
	<ele>1261.40</ele>
	<time>2023-10-07T06:11:17.000Z</time>
</trkpt>
<trkpt lat="45.9286440" lon="9.5807960">
	<ele>1261.40</ele>
	<time>2023-10-07T06:11:18.000Z</time>
</trkpt>
<trkpt lat="45.9286550" lon="9.5807870">
	<ele>1261.40</ele>
	<time>2023-10-07T06:11:19.000Z</time>
</trkpt>
<trkpt lat="45.9286690" lon="9.5807760">
	<ele>1261.20</ele>
	<time>2023-10-07T06:11:20.000Z</time>
</trkpt>
<trkpt lat="45.9286840" lon="9.5807650">
	<ele>1261.20</ele>
	<time>2023-10-07T06:11:21.000Z</time>
</trkpt>
<trkpt lat="45.9286980" lon="9.5807500">
	<ele>1261.20</ele>
	<time>2023-10-07T06:11:22.000Z</time>
</trkpt>
<trkpt lat="45.9287110" lon="9.5807400">
	<ele>1261.20</ele>
	<time>2023-10-07T06:11:23.000Z</time>
</trkpt>
<trkpt lat="45.9287240" lon="9.5807350">
	<ele>1261.20</ele>
	<time>2023-10-07T06:11:24.000Z</time>
</trkpt>
<trkpt lat="45.9287410" lon="9.5807180">
	<ele>1261.20</ele>
	<time>2023-10-07T06:11:25.000Z</time>
</trkpt>
<trkpt lat="45.9287600" lon="9.5807090">
	<ele>1261.20</ele>
	<time>2023-10-07T06:11:26.000Z</time>
</trkpt>
<trkpt lat="45.9287760" lon="9.5806980">
	<ele>1261.20</ele>
	<time>2023-10-07T06:11:27.000Z</time>
</trkpt>
<trkpt lat="45.9287900" lon="9.5806810">
	<ele>1261.20</ele>
	<time>2023-10-07T06:11:28.000Z</time>
</trkpt>
<trkpt lat="45.9288020" lon="9.5806760">
	<ele>1261.40</ele>
	<time>2023-10-07T06:11:29.000Z</time>
</trkpt>
<trkpt lat="45.9288130" lon="9.5806740">
	<ele>1261.60</ele>
	<time>2023-10-07T06:11:30.000Z</time>
</trkpt>
<trkpt lat="45.9288250" lon="9.5806710">
	<ele>1261.80</ele>
	<time>2023-10-07T06:11:31.000Z</time>
</trkpt>
<trkpt lat="45.9288310" lon="9.5806620">
	<ele>1261.80</ele>
	<time>2023-10-07T06:11:32.000Z</time>
</trkpt>
<trkpt lat="45.9288380" lon="9.5806430">
	<ele>1262.00</ele>
	<time>2023-10-07T06:11:33.000Z</time>
</trkpt>
<trkpt lat="45.9288520" lon="9.5806250">
	<ele>1262.00</ele>
	<time>2023-10-07T06:11:34.000Z</time>
</trkpt>
<trkpt lat="45.9288620" lon="9.5806210">
	<ele>1262.00</ele>
	<time>2023-10-07T06:11:35.000Z</time>
</trkpt>
<trkpt lat="45.9288780" lon="9.5806140">
	<ele>1262.00</ele>
	<time>2023-10-07T06:11:36.000Z</time>
</trkpt>
<trkpt lat="45.9288950" lon="9.5806010">
	<ele>1262.40</ele>
	<time>2023-10-07T06:11:37.000Z</time>
</trkpt>
<trkpt lat="45.9289020" lon="9.5805950">
	<ele>1262.40</ele>
	<time>2023-10-07T06:11:38.000Z</time>
</trkpt>
<trkpt lat="45.9289100" lon="9.5805850">
	<ele>1262.60</ele>
	<time>2023-10-07T06:11:39.000Z</time>
</trkpt>
<trkpt lat="45.9289190" lon="9.5805750">
	<ele>1262.60</ele>
	<time>2023-10-07T06:11:40.000Z</time>
</trkpt>
<trkpt lat="45.9289250" lon="9.5805730">
	<ele>1262.40</ele>
	<time>2023-10-07T06:11:41.000Z</time>
</trkpt>
<trkpt lat="45.9289360" lon="9.5805580">
	<ele>1262.40</ele>
	<time>2023-10-07T06:11:42.000Z</time>
</trkpt>
<trkpt lat="45.9289460" lon="9.5805490">
	<ele>1262.40</ele>
	<time>2023-10-07T06:11:43.000Z</time>
</trkpt>
<trkpt lat="45.9289550" lon="9.5805360">
	<ele>1262.20</ele>
	<time>2023-10-07T06:11:44.000Z</time>
</trkpt>
<trkpt lat="45.9289640" lon="9.5805280">
	<ele>1262.20</ele>
	<time>2023-10-07T06:11:45.000Z</time>
</trkpt>
<trkpt lat="45.9289720" lon="9.5805190">
	<ele>1262.20</ele>
	<time>2023-10-07T06:11:46.000Z</time>
</trkpt>
<trkpt lat="45.9289780" lon="9.5805120">
	<ele>1262.20</ele>
	<time>2023-10-07T06:11:47.000Z</time>
</trkpt>
<trkpt lat="45.9289860" lon="9.5805030">
	<ele>1262.20</ele>
	<time>2023-10-07T06:11:48.000Z</time>
</trkpt>
<trkpt lat="45.9289940" lon="9.5804970">
	<ele>1262.20</ele>
	<time>2023-10-07T06:11:49.000Z</time>
</trkpt>
<trkpt lat="45.9290050" lon="9.5804880">
	<ele>1262.20</ele>
	<time>2023-10-07T06:11:50.000Z</time>
</trkpt>
<trkpt lat="45.9290080" lon="9.5804820">
	<ele>1262.20</ele>
	<time>2023-10-07T06:11:51.000Z</time>
</trkpt>
<trkpt lat="45.9290060" lon="9.5804760">
	<ele>1262.20</ele>
	<time>2023-10-07T06:11:52.000Z</time>
</trkpt>
<trkpt lat="45.9290070" lon="9.5804560">
	<ele>1262.20</ele>
	<time>2023-10-07T06:11:53.000Z</time>
</trkpt>
<trkpt lat="45.9290140" lon="9.5804460">
	<ele>1262.20</ele>
	<time>2023-10-07T06:11:54.000Z</time>
</trkpt>
<trkpt lat="45.9290210" lon="9.5804310">
	<ele>1262.00</ele>
	<time>2023-10-07T06:11:55.000Z</time>
</trkpt>
<trkpt lat="45.9290280" lon="9.5804310">
	<ele>1261.80</ele>
	<time>2023-10-07T06:11:56.000Z</time>
</trkpt>
<trkpt lat="45.9290320" lon="9.5804330">
	<ele>1261.80</ele>
	<time>2023-10-07T06:11:57.000Z</time>
</trkpt>
<trkpt lat="45.9290410" lon="9.5804280">
	<ele>1261.60</ele>
	<time>2023-10-07T06:11:58.000Z</time>
</trkpt>
<trkpt lat="45.9290510" lon="9.5804200">
	<ele>1261.60</ele>
	<time>2023-10-07T06:11:59.000Z</time>
</trkpt>
<trkpt lat="45.9290630" lon="9.5804080">
	<ele>1261.40</ele>
	<time>2023-10-07T06:12:00.000Z</time>
</trkpt>
<trkpt lat="45.9290730" lon="9.5804020">
	<ele>1261.40</ele>
	<time>2023-10-07T06:12:01.000Z</time>
</trkpt>
<trkpt lat="45.9290850" lon="9.5803980">
	<ele>1261.40</ele>
	<time>2023-10-07T06:12:02.000Z</time>
</trkpt>
<trkpt lat="45.9290960" lon="9.5803910">
	<ele>1261.40</ele>
	<time>2023-10-07T06:12:03.000Z</time>
</trkpt>
<trkpt lat="45.9291170" lon="9.5803660">
	<ele>1261.40</ele>
	<time>2023-10-07T06:12:04.000Z</time>
</trkpt>
<trkpt lat="45.9291270" lon="9.5803460">
	<ele>1261.40</ele>
	<time>2023-10-07T06:12:05.000Z</time>
</trkpt>
<trkpt lat="45.9291340" lon="9.5803260">
	<ele>1261.60</ele>
	<time>2023-10-07T06:12:06.000Z</time>
</trkpt>
<trkpt lat="45.9291350" lon="9.5803150">
	<ele>1261.60</ele>
	<time>2023-10-07T06:12:07.000Z</time>
</trkpt>
<trkpt lat="45.9291350" lon="9.5803170">
	<ele>1261.60</ele>
	<time>2023-10-07T06:12:08.000Z</time>
</trkpt>
<trkpt lat="45.9291370" lon="9.5803180">
	<ele>1261.60</ele>
	<time>2023-10-07T06:12:09.000Z</time>
</trkpt>
<trkpt lat="45.9291470" lon="9.5802980">
	<ele>1261.60</ele>
	<time>2023-10-07T06:12:10.000Z</time>
</trkpt>
<trkpt lat="45.9291500" lon="9.5802790">
	<ele>1261.40</ele>
	<time>2023-10-07T06:12:11.000Z</time>
</trkpt>
<trkpt lat="45.9291560" lon="9.5802540">
	<ele>1261.00</ele>
	<time>2023-10-07T06:12:12.000Z</time>
</trkpt>
<trkpt lat="45.9291460" lon="9.5802430">
	<ele>1260.60</ele>
	<time>2023-10-07T06:12:13.000Z</time>
</trkpt>
<trkpt lat="45.9291550" lon="9.5802170">
	<ele>1260.40</ele>
	<time>2023-10-07T06:12:14.000Z</time>
</trkpt>
<trkpt lat="45.9291520" lon="9.5802060">
	<ele>1260.20</ele>
	<time>2023-10-07T06:12:15.000Z</time>
</trkpt>
<trkpt lat="45.9291510" lon="9.5801900">
	<ele>1260.00</ele>
	<time>2023-10-07T06:12:16.000Z</time>
</trkpt>
<trkpt lat="45.9291560" lon="9.5801860">
	<ele>1259.60</ele>
	<time>2023-10-07T06:12:17.000Z</time>
</trkpt>
<trkpt lat="45.9291780" lon="9.5801710">
	<ele>1259.40</ele>
	<time>2023-10-07T06:12:18.000Z</time>
</trkpt>
<trkpt lat="45.9291850" lon="9.5801610">
	<ele>1259.20</ele>
	<time>2023-10-07T06:12:19.000Z</time>
</trkpt>
<trkpt lat="45.9291910" lon="9.5801540">
	<ele>1259.00</ele>
	<time>2023-10-07T06:12:20.000Z</time>
</trkpt>
<trkpt lat="45.9291930" lon="9.5801480">
	<ele>1258.80</ele>
	<time>2023-10-07T06:12:21.000Z</time>
</trkpt>
<trkpt lat="45.9292010" lon="9.5801110">
	<ele>1258.80</ele>
	<time>2023-10-07T06:12:22.000Z</time>
</trkpt>
<trkpt lat="45.9292080" lon="9.5800810">
	<ele>1258.60</ele>
	<time>2023-10-07T06:12:23.000Z</time>
</trkpt>
<trkpt lat="45.9292210" lon="9.5800670">
	<ele>1258.20</ele>
	<time>2023-10-07T06:12:24.000Z</time>
</trkpt>
<trkpt lat="45.9292270" lon="9.5800610">
	<ele>1258.20</ele>
	<time>2023-10-07T06:12:25.000Z</time>
</trkpt>
<trkpt lat="45.9292350" lon="9.5800500">
	<ele>1258.00</ele>
	<time>2023-10-07T06:12:26.000Z</time>
</trkpt>
<trkpt lat="45.9292390" lon="9.5800350">
	<ele>1257.80</ele>
	<time>2023-10-07T06:12:27.000Z</time>
</trkpt>
<trkpt lat="45.9292320" lon="9.5800310">
	<ele>1257.80</ele>
	<time>2023-10-07T06:12:28.000Z</time>
</trkpt>
<trkpt lat="45.9292390" lon="9.5800200">
	<ele>1257.80</ele>
	<time>2023-10-07T06:12:29.000Z</time>
</trkpt>
<trkpt lat="45.9292470" lon="9.5800030">
	<ele>1257.80</ele>
	<time>2023-10-07T06:12:30.000Z</time>
</trkpt>
<trkpt lat="45.9292500" lon="9.5800020">
	<ele>1257.60</ele>
	<time>2023-10-07T06:12:31.000Z</time>
</trkpt>
<trkpt lat="45.9292530" lon="9.5800030">
	<ele>1257.60</ele>
	<time>2023-10-07T06:12:32.000Z</time>
</trkpt>
<trkpt lat="45.9292560" lon="9.5800020">
	<ele>1257.60</ele>
	<time>2023-10-07T06:12:33.000Z</time>
</trkpt>
<trkpt lat="45.9292560" lon="9.5800010">
	<ele>1257.40</ele>
	<time>2023-10-07T06:12:34.000Z</time>
</trkpt>
<trkpt lat="45.9292590" lon="9.5800000">
	<ele>1257.40</ele>
	<time>2023-10-07T06:12:35.000Z</time>
</trkpt>
<trkpt lat="45.9292590" lon="9.5799960">
	<ele>1257.40</ele>
	<time>2023-10-07T06:12:36.000Z</time>
</trkpt>
<trkpt lat="45.9292680" lon="9.5799970">
	<ele>1257.20</ele>
	<time>2023-10-07T06:12:37.000Z</time>
</trkpt>
<trkpt lat="45.9292720" lon="9.5800000">
	<ele>1257.20</ele>
	<time>2023-10-07T06:12:38.000Z</time>
</trkpt>
<trkpt lat="45.9292840" lon="9.5800140">
	<ele>1257.20</ele>
	<time>2023-10-07T06:12:39.000Z</time>
</trkpt>
<trkpt lat="45.9292910" lon="9.5800220">
	<ele>1257.40</ele>
	<time>2023-10-07T06:12:40.000Z</time>
</trkpt>
<trkpt lat="45.9293040" lon="9.5800400">
	<ele>1257.40</ele>
	<time>2023-10-07T06:12:41.000Z</time>
</trkpt>
<trkpt lat="45.9293160" lon="9.5800600">
	<ele>1257.40</ele>
	<time>2023-10-07T06:12:42.000Z</time>
</trkpt>
<trkpt lat="45.9293280" lon="9.5800690">
	<ele>1257.40</ele>
	<time>2023-10-07T06:12:43.000Z</time>
</trkpt>
<trkpt lat="45.9293320" lon="9.5800870">
	<ele>1257.40</ele>
	<time>2023-10-07T06:12:44.000Z</time>
</trkpt>
<trkpt lat="45.9293380" lon="9.5801090">
	<ele>1257.40</ele>
	<time>2023-10-07T06:12:45.000Z</time>
</trkpt>
<trkpt lat="45.9293430" lon="9.5801290">
	<ele>1257.40</ele>
	<time>2023-10-07T06:12:46.000Z</time>
</trkpt>
<trkpt lat="45.9293470" lon="9.5801330">
	<ele>1257.60</ele>
	<time>2023-10-07T06:12:47.000Z</time>
</trkpt>
<trkpt lat="45.9293540" lon="9.5801350">
	<ele>1257.80</ele>
	<time>2023-10-07T06:12:48.000Z</time>
</trkpt>
<trkpt lat="45.9293570" lon="9.5801430">
	<ele>1258.00</ele>
	<time>2023-10-07T06:12:49.000Z</time>
</trkpt>
<trkpt lat="45.9293600" lon="9.5801490">
	<ele>1258.00</ele>
	<time>2023-10-07T06:12:50.000Z</time>
</trkpt>
<trkpt lat="45.9293650" lon="9.5801510">
	<ele>1258.20</ele>
	<time>2023-10-07T06:12:51.000Z</time>
</trkpt>
<trkpt lat="45.9293650" lon="9.5801590">
	<ele>1258.40</ele>
	<time>2023-10-07T06:12:52.000Z</time>
</trkpt>
<trkpt lat="45.9293660" lon="9.5801610">
	<ele>1258.40</ele>
	<time>2023-10-07T06:12:53.000Z</time>
</trkpt>
<trkpt lat="45.9293640" lon="9.5801730">
	<ele>1258.60</ele>
	<time>2023-10-07T06:12:54.000Z</time>
</trkpt>
<trkpt lat="45.9293700" lon="9.5801660">
	<ele>1258.60</ele>
	<time>2023-10-07T06:12:55.000Z</time>
</trkpt>
<trkpt lat="45.9293730" lon="9.5801650">
	<ele>1258.80</ele>
	<time>2023-10-07T06:12:56.000Z</time>
</trkpt>
<trkpt lat="45.9293810" lon="9.5801630">
	<ele>1259.00</ele>
	<time>2023-10-07T06:12:57.000Z</time>
</trkpt>
<trkpt lat="45.9293870" lon="9.5801750">
	<ele>1259.00</ele>
	<time>2023-10-07T06:12:58.000Z</time>
</trkpt>
<trkpt lat="45.9293890" lon="9.5801880">
	<ele>1259.20</ele>
	<time>2023-10-07T06:12:59.000Z</time>
</trkpt>
<trkpt lat="45.9293930" lon="9.5802040">
	<ele>1259.60</ele>
	<time>2023-10-07T06:13:00.000Z</time>
</trkpt>
<trkpt lat="45.9294000" lon="9.5802110">
	<ele>1259.80</ele>
	<time>2023-10-07T06:13:01.000Z</time>
</trkpt>
<trkpt lat="45.9294090" lon="9.5802130">
	<ele>1260.00</ele>
	<time>2023-10-07T06:13:02.000Z</time>
</trkpt>
<trkpt lat="45.9294160" lon="9.5802140">
	<ele>1260.00</ele>
	<time>2023-10-07T06:13:03.000Z</time>
</trkpt>
<trkpt lat="45.9294200" lon="9.5802160">
	<ele>1260.20</ele>
	<time>2023-10-07T06:13:04.000Z</time>
</trkpt>
<trkpt lat="45.9294260" lon="9.5802180">
	<ele>1260.40</ele>
	<time>2023-10-07T06:13:05.000Z</time>
</trkpt>
<trkpt lat="45.9294370" lon="9.5802110">
	<ele>1260.60</ele>
	<time>2023-10-07T06:13:06.000Z</time>
</trkpt>
<trkpt lat="45.9294420" lon="9.5802150">
	<ele>1260.60</ele>
	<time>2023-10-07T06:13:07.000Z</time>
</trkpt>
<trkpt lat="45.9294460" lon="9.5802230">
	<ele>1260.80</ele>
	<time>2023-10-07T06:13:08.000Z</time>
</trkpt>
<trkpt lat="45.9294510" lon="9.5802290">
	<ele>1261.00</ele>
	<time>2023-10-07T06:13:09.000Z</time>
</trkpt>
<trkpt lat="45.9294590" lon="9.5802240">
	<ele>1261.00</ele>
	<time>2023-10-07T06:13:10.000Z</time>
</trkpt>
<trkpt lat="45.9294650" lon="9.5802230">
	<ele>1261.40</ele>
	<time>2023-10-07T06:13:11.000Z</time>
</trkpt>
<trkpt lat="45.9294650" lon="9.5802250">
	<ele>1261.60</ele>
	<time>2023-10-07T06:13:12.000Z</time>
</trkpt>
<trkpt lat="45.9294650" lon="9.5802270">
	<ele>1261.80</ele>
	<time>2023-10-07T06:13:13.000Z</time>
</trkpt>
<trkpt lat="45.9294770" lon="9.5802210">
	<ele>1262.00</ele>
	<time>2023-10-07T06:13:14.000Z</time>
</trkpt>
<trkpt lat="45.9294880" lon="9.5802180">
	<ele>1262.00</ele>
	<time>2023-10-07T06:13:15.000Z</time>
</trkpt>
<trkpt lat="45.9295010" lon="9.5802100">
	<ele>1262.40</ele>
	<time>2023-10-07T06:13:16.000Z</time>
</trkpt>
<trkpt lat="45.9295070" lon="9.5802090">
	<ele>1262.60</ele>
	<time>2023-10-07T06:13:17.000Z</time>
</trkpt>
<trkpt lat="45.9295180" lon="9.5802110">
	<ele>1262.60</ele>
	<time>2023-10-07T06:13:18.000Z</time>
</trkpt>
<trkpt lat="45.9295300" lon="9.5802030">
	<ele>1262.80</ele>
	<time>2023-10-07T06:13:19.000Z</time>
</trkpt>
<trkpt lat="45.9295380" lon="9.5802000">
	<ele>1263.20</ele>
	<time>2023-10-07T06:13:20.000Z</time>
</trkpt>
<trkpt lat="45.9295460" lon="9.5802120">
	<ele>1263.40</ele>
	<time>2023-10-07T06:13:21.000Z</time>
</trkpt>
<trkpt lat="45.9295590" lon="9.5802240">
	<ele>1263.40</ele>
	<time>2023-10-07T06:13:22.000Z</time>
</trkpt>
<trkpt lat="45.9295750" lon="9.5802160">
	<ele>1263.60</ele>
	<time>2023-10-07T06:13:23.000Z</time>
</trkpt>
<trkpt lat="45.9295940" lon="9.5802040">
	<ele>1263.80</ele>
	<time>2023-10-07T06:13:24.000Z</time>
</trkpt>
<trkpt lat="45.9296020" lon="9.5802140">
	<ele>1264.20</ele>
	<time>2023-10-07T06:13:25.000Z</time>
</trkpt>
<trkpt lat="45.9296070" lon="9.5802260">
	<ele>1264.60</ele>
	<time>2023-10-07T06:13:26.000Z</time>
</trkpt>
<trkpt lat="45.9296090" lon="9.5802320">
	<ele>1265.00</ele>
	<time>2023-10-07T06:13:27.000Z</time>
</trkpt>
<trkpt lat="45.9296120" lon="9.5802320">
	<ele>1265.20</ele>
	<time>2023-10-07T06:13:28.000Z</time>
</trkpt>
<trkpt lat="45.9296200" lon="9.5802340">
	<ele>1265.20</ele>
	<time>2023-10-07T06:13:29.000Z</time>
</trkpt>
<trkpt lat="45.9296230" lon="9.5802370">
	<ele>1265.40</ele>
	<time>2023-10-07T06:13:30.000Z</time>
</trkpt>
<trkpt lat="45.9296270" lon="9.5802410">
	<ele>1265.40</ele>
	<time>2023-10-07T06:13:31.000Z</time>
</trkpt>
<trkpt lat="45.9296360" lon="9.5802310">
	<ele>1265.60</ele>
	<time>2023-10-07T06:13:32.000Z</time>
</trkpt>
<trkpt lat="45.9296410" lon="9.5802320">
	<ele>1265.80</ele>
	<time>2023-10-07T06:13:33.000Z</time>
</trkpt>
<trkpt lat="45.9296480" lon="9.5802370">
	<ele>1266.00</ele>
	<time>2023-10-07T06:13:34.000Z</time>
</trkpt>
<trkpt lat="45.9296550" lon="9.5802470">
	<ele>1266.00</ele>
	<time>2023-10-07T06:13:35.000Z</time>
</trkpt>
<trkpt lat="45.9296600" lon="9.5802600">
	<ele>1266.40</ele>
	<time>2023-10-07T06:13:36.000Z</time>
</trkpt>
<trkpt lat="45.9296680" lon="9.5802780">
	<ele>1266.40</ele>
	<time>2023-10-07T06:13:37.000Z</time>
</trkpt>
<trkpt lat="45.9296720" lon="9.5802930">
	<ele>1266.60</ele>
	<time>2023-10-07T06:13:38.000Z</time>
</trkpt>
<trkpt lat="45.9296730" lon="9.5802980">
	<ele>1266.60</ele>
	<time>2023-10-07T06:13:39.000Z</time>
</trkpt>
<trkpt lat="45.9296780" lon="9.5803200">
	<ele>1267.00</ele>
	<time>2023-10-07T06:13:40.000Z</time>
</trkpt>
<trkpt lat="45.9296890" lon="9.5803420">
	<ele>1267.20</ele>
	<time>2023-10-07T06:13:41.000Z</time>
</trkpt>
<trkpt lat="45.9297020" lon="9.5803490">
	<ele>1267.40</ele>
	<time>2023-10-07T06:13:42.000Z</time>
</trkpt>
<trkpt lat="45.9297100" lon="9.5803780">
	<ele>1267.60</ele>
	<time>2023-10-07T06:13:43.000Z</time>
</trkpt>
<trkpt lat="45.9297280" lon="9.5803910">
	<ele>1267.80</ele>
	<time>2023-10-07T06:13:44.000Z</time>
</trkpt>
<trkpt lat="45.9297470" lon="9.5803960">
	<ele>1267.80</ele>
	<time>2023-10-07T06:13:45.000Z</time>
</trkpt>
<trkpt lat="45.9297590" lon="9.5804100">
	<ele>1268.00</ele>
	<time>2023-10-07T06:13:46.000Z</time>
</trkpt>
<trkpt lat="45.9297670" lon="9.5804150">
	<ele>1268.00</ele>
	<time>2023-10-07T06:13:47.000Z</time>
</trkpt>
<trkpt lat="45.9297700" lon="9.5804160">
	<ele>1268.20</ele>
	<time>2023-10-07T06:13:48.000Z</time>
</trkpt>
<trkpt lat="45.9297800" lon="9.5804050">
	<ele>1268.20</ele>
	<time>2023-10-07T06:13:49.000Z</time>
</trkpt>
<trkpt lat="45.9297930" lon="9.5804010">
	<ele>1268.40</ele>
	<time>2023-10-07T06:13:50.000Z</time>
</trkpt>
<trkpt lat="45.9298010" lon="9.5804100">
	<ele>1268.60</ele>
	<time>2023-10-07T06:13:51.000Z</time>
</trkpt>
<trkpt lat="45.9298060" lon="9.5804290">
	<ele>1268.80</ele>
	<time>2023-10-07T06:13:52.000Z</time>
</trkpt>
<trkpt lat="45.9298180" lon="9.5804350">
	<ele>1269.00</ele>
	<time>2023-10-07T06:13:53.000Z</time>
</trkpt>
<trkpt lat="45.9298220" lon="9.5804410">
	<ele>1269.00</ele>
	<time>2023-10-07T06:13:54.000Z</time>
</trkpt>
<trkpt lat="45.9298280" lon="9.5804530">
	<ele>1269.20</ele>
	<time>2023-10-07T06:13:55.000Z</time>
</trkpt>
<trkpt lat="45.9298380" lon="9.5804560">
	<ele>1269.40</ele>
	<time>2023-10-07T06:13:56.000Z</time>
</trkpt>
<trkpt lat="45.9298410" lon="9.5804620">
	<ele>1269.40</ele>
	<time>2023-10-07T06:13:57.000Z</time>
</trkpt>
<trkpt lat="45.9298450" lon="9.5804780">
	<ele>1269.60</ele>
	<time>2023-10-07T06:13:58.000Z</time>
</trkpt>
<trkpt lat="45.9298510" lon="9.5804950">
	<ele>1269.80</ele>
	<time>2023-10-07T06:13:59.000Z</time>
</trkpt>
<trkpt lat="45.9298580" lon="9.5804930">
	<ele>1270.00</ele>
	<time>2023-10-07T06:14:00.000Z</time>
</trkpt>
<trkpt lat="45.9298640" lon="9.5804900">
	<ele>1270.20</ele>
	<time>2023-10-07T06:14:01.000Z</time>
</trkpt>
<trkpt lat="45.9298710" lon="9.5804860">
	<ele>1270.40</ele>
	<time>2023-10-07T06:14:02.000Z</time>
</trkpt>
<trkpt lat="45.9298760" lon="9.5804830">
	<ele>1270.80</ele>
	<time>2023-10-07T06:14:03.000Z</time>
</trkpt>
<trkpt lat="45.9298820" lon="9.5804890">
	<ele>1270.80</ele>
	<time>2023-10-07T06:14:04.000Z</time>
</trkpt>
<trkpt lat="45.9298840" lon="9.5805100">
	<ele>1271.00</ele>
	<time>2023-10-07T06:14:05.000Z</time>
</trkpt>
<trkpt lat="45.9298870" lon="9.5805250">
	<ele>1271.20</ele>
	<time>2023-10-07T06:14:06.000Z</time>
</trkpt>
<trkpt lat="45.9298880" lon="9.5805420">
	<ele>1271.20</ele>
	<time>2023-10-07T06:14:07.000Z</time>
</trkpt>
<trkpt lat="45.9298910" lon="9.5805480">
	<ele>1271.20</ele>
	<time>2023-10-07T06:14:08.000Z</time>
</trkpt>
<trkpt lat="45.9298900" lon="9.5805570">
	<ele>1271.40</ele>
	<time>2023-10-07T06:14:09.000Z</time>
</trkpt>
<trkpt lat="45.9298950" lon="9.5805530">
	<ele>1271.60</ele>
	<time>2023-10-07T06:14:10.000Z</time>
</trkpt>
<trkpt lat="45.9299000" lon="9.5805530">
	<ele>1271.80</ele>
	<time>2023-10-07T06:14:11.000Z</time>
</trkpt>
<trkpt lat="45.9299050" lon="9.5805530">
	<ele>1272.00</ele>
	<time>2023-10-07T06:14:12.000Z</time>
</trkpt>
<trkpt lat="45.9299070" lon="9.5805610">
	<ele>1272.20</ele>
	<time>2023-10-07T06:14:13.000Z</time>
</trkpt>
<trkpt lat="45.9299080" lon="9.5805700">
	<ele>1272.20</ele>
	<time>2023-10-07T06:14:14.000Z</time>
</trkpt>
<trkpt lat="45.9299100" lon="9.5805790">
	<ele>1272.40</ele>
	<time>2023-10-07T06:14:15.000Z</time>
</trkpt>
<trkpt lat="45.9299120" lon="9.5805790">
	<ele>1272.40</ele>
	<time>2023-10-07T06:14:16.000Z</time>
</trkpt>
<trkpt lat="45.9299150" lon="9.5805820">
	<ele>1272.60</ele>
	<time>2023-10-07T06:14:17.000Z</time>
</trkpt>
<trkpt lat="45.9299170" lon="9.5805910">
	<ele>1272.80</ele>
	<time>2023-10-07T06:14:18.000Z</time>
</trkpt>
<trkpt lat="45.9299230" lon="9.5805910">
	<ele>1272.80</ele>
	<time>2023-10-07T06:14:19.000Z</time>
</trkpt>
<trkpt lat="45.9299270" lon="9.5805900">
	<ele>1273.00</ele>
	<time>2023-10-07T06:14:20.000Z</time>
</trkpt>
<trkpt lat="45.9299340" lon="9.5805890">
	<ele>1273.40</ele>
	<time>2023-10-07T06:14:21.000Z</time>
</trkpt>
<trkpt lat="45.9299400" lon="9.5805910">
	<ele>1273.60</ele>
	<time>2023-10-07T06:14:22.000Z</time>
</trkpt>
<trkpt lat="45.9299440" lon="9.5805920">
	<ele>1273.80</ele>
	<time>2023-10-07T06:14:23.000Z</time>
</trkpt>
<trkpt lat="45.9299520" lon="9.5805980">
	<ele>1274.00</ele>
	<time>2023-10-07T06:14:24.000Z</time>
</trkpt>
<trkpt lat="45.9299600" lon="9.5805940">
	<ele>1274.20</ele>
	<time>2023-10-07T06:14:25.000Z</time>
</trkpt>
<trkpt lat="45.9299710" lon="9.5805890">
	<ele>1274.40</ele>
	<time>2023-10-07T06:14:26.000Z</time>
</trkpt>
<trkpt lat="45.9299750" lon="9.5805880">
	<ele>1274.60</ele>
	<time>2023-10-07T06:14:27.000Z</time>
</trkpt>
<trkpt lat="45.9299810" lon="9.5805870">
	<ele>1274.80</ele>
	<time>2023-10-07T06:14:28.000Z</time>
</trkpt>
<trkpt lat="45.9299820" lon="9.5805940">
	<ele>1275.00</ele>
	<time>2023-10-07T06:14:29.000Z</time>
</trkpt>
<trkpt lat="45.9299850" lon="9.5805960">
	<ele>1275.00</ele>
	<time>2023-10-07T06:14:30.000Z</time>
</trkpt>
<trkpt lat="45.9299930" lon="9.5805940">
	<ele>1275.00</ele>
	<time>2023-10-07T06:14:31.000Z</time>
</trkpt>
<trkpt lat="45.9300000" lon="9.5805920">
	<ele>1275.00</ele>
	<time>2023-10-07T06:14:32.000Z</time>
</trkpt>
<trkpt lat="45.9300080" lon="9.5805930">
	<ele>1274.80</ele>
	<time>2023-10-07T06:14:33.000Z</time>
</trkpt>
<trkpt lat="45.9300100" lon="9.5805960">
	<ele>1274.80</ele>
	<time>2023-10-07T06:14:34.000Z</time>
</trkpt>
<trkpt lat="45.9300120" lon="9.5805920">
	<ele>1274.60</ele>
	<time>2023-10-07T06:14:35.000Z</time>
</trkpt>
<trkpt lat="45.9300120" lon="9.5805920">
	<ele>1274.60</ele>
	<time>2023-10-07T06:14:36.000Z</time>
</trkpt>
<trkpt lat="45.9300160" lon="9.5805870">
	<ele>1274.40</ele>
	<time>2023-10-07T06:14:37.000Z</time>
</trkpt>
<trkpt lat="45.9300210" lon="9.5805910">
	<ele>1274.40</ele>
	<time>2023-10-07T06:14:38.000Z</time>
</trkpt>
<trkpt lat="45.9300200" lon="9.5805940">
	<ele>1274.40</ele>
	<time>2023-10-07T06:14:39.000Z</time>
</trkpt>
<trkpt lat="45.9300200" lon="9.5805970">
	<ele>1274.20</ele>
	<time>2023-10-07T06:14:40.000Z</time>
</trkpt>
<trkpt lat="45.9300180" lon="9.5805980">
	<ele>1274.20</ele>
	<time>2023-10-07T06:14:41.000Z</time>
</trkpt>
<trkpt lat="45.9300090" lon="9.5805970">
	<ele>1274.20</ele>
	<time>2023-10-07T06:14:42.000Z</time>
</trkpt>
<trkpt lat="45.9300010" lon="9.5805910">
	<ele>1274.20</ele>
	<time>2023-10-07T06:14:43.000Z</time>
</trkpt>
<trkpt lat="45.9299990" lon="9.5805900">
	<ele>1274.20</ele>
	<time>2023-10-07T06:14:44.000Z</time>
</trkpt>
<trkpt lat="45.9300010" lon="9.5805920">
	<ele>1274.20</ele>
	<time>2023-10-07T06:14:45.000Z</time>
</trkpt>
<trkpt lat="45.9300010" lon="9.5805920">
	<ele>1274.20</ele>
	<time>2023-10-07T06:14:46.000Z</time>
</trkpt>
<trkpt lat="45.9300010" lon="9.5805920">
	<ele>1274.20</ele>
	<time>2023-10-07T06:14:47.000Z</time>
</trkpt>
<trkpt lat="45.9300010" lon="9.5805920">
	<ele>1274.40</ele>
	<time>2023-10-07T06:14:48.000Z</time>
</trkpt>
<trkpt lat="45.9300010" lon="9.5805920">
	<ele>1274.40</ele>
	<time>2023-10-07T06:14:49.000Z</time>
</trkpt>
<trkpt lat="45.9300010" lon="9.5805920">
	<ele>1274.60</ele>
	<time>2023-10-07T06:14:50.000Z</time>
</trkpt>
<trkpt lat="45.9300010" lon="9.5805920">
	<ele>1274.60</ele>
	<time>2023-10-07T06:14:51.000Z</time>
</trkpt>
<trkpt lat="45.9300010" lon="9.5805920">
	<ele>1274.60</ele>
	<time>2023-10-07T06:14:52.000Z</time>
</trkpt>
<trkpt lat="45.9300010" lon="9.5805920">
	<ele>1274.80</ele>
	<time>2023-10-07T06:14:53.000Z</time>
</trkpt>
<trkpt lat="45.9300010" lon="9.5805920">
	<ele>1274.80</ele>
	<time>2023-10-07T06:14:54.000Z</time>
</trkpt>
<trkpt lat="45.9300010" lon="9.5805920">
	<ele>1274.80</ele>
	<time>2023-10-07T06:14:55.000Z</time>
</trkpt>
<trkpt lat="45.9300030" lon="9.5805920">
	<ele>1274.80</ele>
	<time>2023-10-07T06:14:56.000Z</time>
</trkpt>
<trkpt lat="45.9300050" lon="9.5805920">
	<ele>1274.80</ele>
	<time>2023-10-07T06:14:57.000Z</time>
</trkpt>
<trkpt lat="45.9300090" lon="9.5805920">
	<ele>1274.80</ele>
	<time>2023-10-07T06:14:58.000Z</time>
</trkpt>
<trkpt lat="45.9300090" lon="9.5805910">
	<ele>1274.80</ele>
	<time>2023-10-07T06:14:59.000Z</time>
</trkpt>
<trkpt lat="45.9300090" lon="9.5805910">
	<ele>1274.40</ele>
	<time>2023-10-07T06:15:00.000Z</time>
</trkpt>
<trkpt lat="45.9300090" lon="9.5805900">
	<ele>1274.20</ele>
	<time>2023-10-07T06:15:01.000Z</time>
</trkpt>
<trkpt lat="45.9300090" lon="9.5805900">
	<ele>1274.00</ele>
	<time>2023-10-07T06:15:02.000Z</time>
</trkpt>
<trkpt lat="45.9300090" lon="9.5805900">
	<ele>1274.00</ele>
	<time>2023-10-07T06:15:03.000Z</time>
</trkpt>
<trkpt lat="45.9300100" lon="9.5805890">
	<ele>1274.00</ele>
	<time>2023-10-07T06:15:04.000Z</time>
</trkpt>
<trkpt lat="45.9300110" lon="9.5805870">
	<ele>1273.80</ele>
	<time>2023-10-07T06:15:05.000Z</time>
</trkpt>
<trkpt lat="45.9300120" lon="9.5805870">
	<ele>1273.60</ele>
	<time>2023-10-07T06:15:06.000Z</time>
</trkpt>
<trkpt lat="45.9300120" lon="9.5805870">
	<ele>1273.60</ele>
	<time>2023-10-07T06:15:07.000Z</time>
</trkpt>
<trkpt lat="45.9300130" lon="9.5805890">
	<ele>1273.40</ele>
	<time>2023-10-07T06:15:08.000Z</time>
</trkpt>
<trkpt lat="45.9300190" lon="9.5805930">
	<ele>1273.20</ele>
	<time>2023-10-07T06:15:09.000Z</time>
</trkpt>
<trkpt lat="45.9300230" lon="9.5805920">
	<ele>1273.00</ele>
	<time>2023-10-07T06:15:10.000Z</time>
</trkpt>
<trkpt lat="45.9300240" lon="9.5805870">
	<ele>1272.80</ele>
	<time>2023-10-07T06:15:11.000Z</time>
</trkpt>
<trkpt lat="45.9300260" lon="9.5805880">
	<ele>1272.60</ele>
	<time>2023-10-07T06:15:12.000Z</time>
</trkpt>
<trkpt lat="45.9300290" lon="9.5805900">
	<ele>1272.60</ele>
	<time>2023-10-07T06:15:13.000Z</time>
</trkpt>
<trkpt lat="45.9300260" lon="9.5806110">
	<ele>1272.40</ele>
	<time>2023-10-07T06:15:14.000Z</time>
</trkpt>
<trkpt lat="45.9300270" lon="9.5806120">
	<ele>1272.40</ele>
	<time>2023-10-07T06:15:15.000Z</time>
</trkpt>
<trkpt lat="45.9300270" lon="9.5806120">
	<ele>1272.20</ele>
	<time>2023-10-07T06:15:16.000Z</time>
</trkpt>
<trkpt lat="45.9300270" lon="9.5806120">
	<ele>1272.00</ele>
	<time>2023-10-07T06:15:17.000Z</time>
</trkpt>
<trkpt lat="45.9300270" lon="9.5806120">
	<ele>1272.00</ele>
	<time>2023-10-07T06:15:18.000Z</time>
</trkpt>
<trkpt lat="45.9300270" lon="9.5806120">
	<ele>1271.80</ele>
	<time>2023-10-07T06:15:19.000Z</time>
</trkpt>
<trkpt lat="45.9300270" lon="9.5806120">
	<ele>1271.80</ele>
	<time>2023-10-07T06:15:20.000Z</time>
</trkpt>
<trkpt lat="45.9300270" lon="9.5806120">
	<ele>1271.80</ele>
	<time>2023-10-07T06:15:21.000Z</time>
</trkpt>
<trkpt lat="45.9300270" lon="9.5806120">
	<ele>1271.80</ele>
	<time>2023-10-07T06:15:22.000Z</time>
</trkpt>
<trkpt lat="45.9300270" lon="9.5806120">
	<ele>1271.60</ele>
	<time>2023-10-07T06:15:23.000Z</time>
</trkpt>
<trkpt lat="45.9300270" lon="9.5806120">
	<ele>1271.60</ele>
	<time>2023-10-07T06:15:24.000Z</time>
</trkpt>
<trkpt lat="45.9300280" lon="9.5806120">
	<ele>1271.40</ele>
	<time>2023-10-07T06:15:25.000Z</time>
</trkpt>
<trkpt lat="45.9300290" lon="9.5806120">
	<ele>1271.20</ele>
	<time>2023-10-07T06:15:26.000Z</time>
</trkpt>
<trkpt lat="45.9300290" lon="9.5806120">
	<ele>1271.20</ele>
	<time>2023-10-07T06:15:27.000Z</time>
</trkpt>
<trkpt lat="45.9300290" lon="9.5806110">
	<ele>1271.00</ele>
	<time>2023-10-07T06:15:28.000Z</time>
</trkpt>
<trkpt lat="45.9300290" lon="9.5806110">
	<ele>1270.80</ele>
	<time>2023-10-07T06:15:29.000Z</time>
</trkpt>
<trkpt lat="45.9300300" lon="9.5806100">
	<ele>1270.60</ele>
	<time>2023-10-07T06:15:30.000Z</time>
</trkpt>
<trkpt lat="45.9300380" lon="9.5806020">
	<ele>1270.40</ele>
	<time>2023-10-07T06:15:31.000Z</time>
</trkpt>
<trkpt lat="45.9300560" lon="9.5805770">
	<ele>1270.40</ele>
	<time>2023-10-07T06:15:32.000Z</time>
</trkpt>
<trkpt lat="45.9300690" lon="9.5805640">
	<ele>1270.20</ele>
	<time>2023-10-07T06:15:33.000Z</time>
</trkpt>
<trkpt lat="45.9300830" lon="9.5805480">
	<ele>1270.20</ele>
	<time>2023-10-07T06:15:34.000Z</time>
</trkpt>
<trkpt lat="45.9300900" lon="9.5805410">
	<ele>1270.20</ele>
	<time>2023-10-07T06:15:35.000Z</time>
</trkpt>
<trkpt lat="45.9301000" lon="9.5805280">
	<ele>1270.00</ele>
	<time>2023-10-07T06:15:36.000Z</time>
</trkpt>
<trkpt lat="45.9301100" lon="9.5805170">
	<ele>1270.00</ele>
	<time>2023-10-07T06:15:37.000Z</time>
</trkpt>
<trkpt lat="45.9301210" lon="9.5805060">
	<ele>1269.60</ele>
	<time>2023-10-07T06:15:38.000Z</time>
</trkpt>
<trkpt lat="45.9301310" lon="9.5804940">
	<ele>1269.60</ele>
	<time>2023-10-07T06:15:39.000Z</time>
</trkpt>
<trkpt lat="45.9301380" lon="9.5804870">
	<ele>1269.40</ele>
	<time>2023-10-07T06:15:40.000Z</time>
</trkpt>
<trkpt lat="45.9301480" lon="9.5804740">
	<ele>1269.20</ele>
	<time>2023-10-07T06:15:41.000Z</time>
</trkpt>
<trkpt lat="45.9301600" lon="9.5804600">
	<ele>1269.00</ele>
	<time>2023-10-07T06:15:42.000Z</time>
</trkpt>
<trkpt lat="45.9301720" lon="9.5804480">
	<ele>1269.00</ele>
	<time>2023-10-07T06:15:43.000Z</time>
</trkpt>
<trkpt lat="45.9301810" lon="9.5804420">
	<ele>1268.60</ele>
	<time>2023-10-07T06:15:44.000Z</time>
</trkpt>
<trkpt lat="45.9301910" lon="9.5804250">
	<ele>1268.40</ele>
	<time>2023-10-07T06:15:45.000Z</time>
</trkpt>
<trkpt lat="45.9301970" lon="9.5804150">
	<ele>1268.20</ele>
	<time>2023-10-07T06:15:46.000Z</time>
</trkpt>
<trkpt lat="45.9302010" lon="9.5804110">
	<ele>1268.20</ele>
	<time>2023-10-07T06:15:47.000Z</time>
</trkpt>
<trkpt lat="45.9302020" lon="9.5804060">
	<ele>1268.00</ele>
	<time>2023-10-07T06:15:48.000Z</time>
</trkpt>
<trkpt lat="45.9302020" lon="9.5804010">
	<ele>1268.00</ele>
	<time>2023-10-07T06:15:49.000Z</time>
</trkpt>
<trkpt lat="45.9302070" lon="9.5803880">
	<ele>1267.80</ele>
	<time>2023-10-07T06:15:50.000Z</time>
</trkpt>
<trkpt lat="45.9302150" lon="9.5803760">
	<ele>1267.60</ele>
	<time>2023-10-07T06:15:51.000Z</time>
</trkpt>
<trkpt lat="45.9302250" lon="9.5803600">
	<ele>1267.60</ele>
	<time>2023-10-07T06:15:52.000Z</time>
</trkpt>
<trkpt lat="45.9302380" lon="9.5803430">
	<ele>1267.60</ele>
	<time>2023-10-07T06:15:53.000Z</time>
</trkpt>
<trkpt lat="45.9302480" lon="9.5803310">
	<ele>1267.60</ele>
	<time>2023-10-07T06:15:54.000Z</time>
</trkpt>
<trkpt lat="45.9302500" lon="9.5803350">
	<ele>1267.80</ele>
	<time>2023-10-07T06:15:55.000Z</time>
</trkpt>
<trkpt lat="45.9302490" lon="9.5803380">
	<ele>1267.80</ele>
	<time>2023-10-07T06:15:56.000Z</time>
</trkpt>
<trkpt lat="45.9302490" lon="9.5803370">
	<ele>1268.00</ele>
	<time>2023-10-07T06:15:57.000Z</time>
</trkpt>
<trkpt lat="45.9302480" lon="9.5803290">
	<ele>1268.00</ele>
	<time>2023-10-07T06:15:58.000Z</time>
</trkpt>
<trkpt lat="45.9302450" lon="9.5803290">
	<ele>1268.00</ele>
	<time>2023-10-07T06:15:59.000Z</time>
</trkpt>
<trkpt lat="45.9302400" lon="9.5803320">
	<ele>1268.00</ele>
	<time>2023-10-07T06:16:00.000Z</time>
</trkpt>
<trkpt lat="45.9302420" lon="9.5803290">
	<ele>1268.00</ele>
	<time>2023-10-07T06:16:01.000Z</time>
</trkpt>
<trkpt lat="45.9302470" lon="9.5803260">
	<ele>1267.80</ele>
	<time>2023-10-07T06:16:02.000Z</time>
</trkpt>
<trkpt lat="45.9302490" lon="9.5803180">
	<ele>1267.60</ele>
	<time>2023-10-07T06:16:03.000Z</time>
</trkpt>
<trkpt lat="45.9302510" lon="9.5803120">
	<ele>1267.60</ele>
	<time>2023-10-07T06:16:04.000Z</time>
</trkpt>
<trkpt lat="45.9302510" lon="9.5803100">
	<ele>1267.40</ele>
	<time>2023-10-07T06:16:05.000Z</time>
</trkpt>
<trkpt lat="45.9302500" lon="9.5803120">
	<ele>1267.40</ele>
	<time>2023-10-07T06:16:06.000Z</time>
</trkpt>
<trkpt lat="45.9302500" lon="9.5803120">
	<ele>1267.40</ele>
	<time>2023-10-07T06:16:07.000Z</time>
</trkpt>
<trkpt lat="45.9302500" lon="9.5803120">
	<ele>1267.20</ele>
	<time>2023-10-07T06:16:08.000Z</time>
</trkpt>
<trkpt lat="45.9302500" lon="9.5803120">
	<ele>1267.20</ele>
	<time>2023-10-07T06:16:09.000Z</time>
</trkpt>
<trkpt lat="45.9302500" lon="9.5803120">
	<ele>1267.00</ele>
	<time>2023-10-07T06:16:10.000Z</time>
</trkpt>
<trkpt lat="45.9302500" lon="9.5803120">
	<ele>1267.00</ele>
	<time>2023-10-07T06:16:11.000Z</time>
</trkpt>
<trkpt lat="45.9302500" lon="9.5803120">
	<ele>1266.80</ele>
	<time>2023-10-07T06:16:12.000Z</time>
</trkpt>
<trkpt lat="45.9302500" lon="9.5803120">
	<ele>1266.80</ele>
	<time>2023-10-07T06:16:13.000Z</time>
</trkpt>
<trkpt lat="45.9302500" lon="9.5803120">
	<ele>1266.60</ele>
	<time>2023-10-07T06:16:14.000Z</time>
</trkpt>
<trkpt lat="45.9302500" lon="9.5803120">
	<ele>1266.40</ele>
	<time>2023-10-07T06:16:15.000Z</time>
</trkpt>
<trkpt lat="45.9302570" lon="9.5803060">
	<ele>1266.40</ele>
	<time>2023-10-07T06:16:16.000Z</time>
</trkpt>
<trkpt lat="45.9302690" lon="9.5802920">
	<ele>1266.00</ele>
	<time>2023-10-07T06:16:17.000Z</time>
</trkpt>
<trkpt lat="45.9302810" lon="9.5802800">
	<ele>1265.80</ele>
	<time>2023-10-07T06:16:18.000Z</time>
</trkpt>
<trkpt lat="45.9302960" lon="9.5802630">
	<ele>1265.80</ele>
	<time>2023-10-07T06:16:19.000Z</time>
</trkpt>
<trkpt lat="45.9303100" lon="9.5802400">
	<ele>1265.60</ele>
	<time>2023-10-07T06:16:20.000Z</time>
</trkpt>
<trkpt lat="45.9303230" lon="9.5802230">
	<ele>1265.40</ele>
	<time>2023-10-07T06:16:21.000Z</time>
</trkpt>
<trkpt lat="45.9303360" lon="9.5802050">
	<ele>1265.20</ele>
	<time>2023-10-07T06:16:22.000Z</time>
</trkpt>
<trkpt lat="45.9303490" lon="9.5801850">
	<ele>1265.00</ele>
	<time>2023-10-07T06:16:23.000Z</time>
</trkpt>
<trkpt lat="45.9303640" lon="9.5801620">
	<ele>1265.00</ele>
	<time>2023-10-07T06:16:24.000Z</time>
</trkpt>
<trkpt lat="45.9303810" lon="9.5801410">
	<ele>1264.80</ele>
	<time>2023-10-07T06:16:25.000Z</time>
</trkpt>
<trkpt lat="45.9303880" lon="9.5801250">
	<ele>1264.80</ele>
	<time>2023-10-07T06:16:26.000Z</time>
</trkpt>
<trkpt lat="45.9303950" lon="9.5801140">
	<ele>1264.80</ele>
	<time>2023-10-07T06:16:27.000Z</time>
</trkpt>
<trkpt lat="45.9304030" lon="9.5801020">
	<ele>1264.80</ele>
	<time>2023-10-07T06:16:28.000Z</time>
</trkpt>
<trkpt lat="45.9304100" lon="9.5800910">
	<ele>1264.80</ele>
	<time>2023-10-07T06:16:29.000Z</time>
</trkpt>
<trkpt lat="45.9304180" lon="9.5800730">
	<ele>1264.80</ele>
	<time>2023-10-07T06:16:30.000Z</time>
</trkpt>
<trkpt lat="45.9304260" lon="9.5800490">
	<ele>1264.80</ele>
	<time>2023-10-07T06:16:31.000Z</time>
</trkpt>
<trkpt lat="45.9304330" lon="9.5800290">
	<ele>1264.80</ele>
	<time>2023-10-07T06:16:32.000Z</time>
</trkpt>
<trkpt lat="45.9304420" lon="9.5800170">
	<ele>1264.60</ele>
	<time>2023-10-07T06:16:33.000Z</time>
</trkpt>
<trkpt lat="45.9304470" lon="9.5800200">
	<ele>1264.60</ele>
	<time>2023-10-07T06:16:34.000Z</time>
</trkpt>
<trkpt lat="45.9304530" lon="9.5800200">
	<ele>1264.60</ele>
	<time>2023-10-07T06:16:35.000Z</time>
</trkpt>
<trkpt lat="45.9304610" lon="9.5800170">
	<ele>1264.40</ele>
	<time>2023-10-07T06:16:36.000Z</time>
</trkpt>
<trkpt lat="45.9304600" lon="9.5800160">
	<ele>1264.40</ele>
	<time>2023-10-07T06:16:37.000Z</time>
</trkpt>
<trkpt lat="45.9304640" lon="9.5800080">
	<ele>1264.40</ele>
	<time>2023-10-07T06:16:38.000Z</time>
</trkpt>
<trkpt lat="45.9304680" lon="9.5800010">
	<ele>1264.40</ele>
	<time>2023-10-07T06:16:39.000Z</time>
</trkpt>
<trkpt lat="45.9304770" lon="9.5799890">
	<ele>1264.60</ele>
	<time>2023-10-07T06:16:40.000Z</time>
</trkpt>
<trkpt lat="45.9304790" lon="9.5799800">
	<ele>1264.60</ele>
	<time>2023-10-07T06:16:41.000Z</time>
</trkpt>
<trkpt lat="45.9304900" lon="9.5799670">
	<ele>1264.60</ele>
	<time>2023-10-07T06:16:42.000Z</time>
</trkpt>
<trkpt lat="45.9305020" lon="9.5799530">
	<ele>1264.60</ele>
	<time>2023-10-07T06:16:43.000Z</time>
</trkpt>
<trkpt lat="45.9305120" lon="9.5799380">
	<ele>1264.20</ele>
	<time>2023-10-07T06:16:44.000Z</time>
</trkpt>
<trkpt lat="45.9305210" lon="9.5799220">
	<ele>1264.00</ele>
	<time>2023-10-07T06:16:45.000Z</time>
</trkpt>
<trkpt lat="45.9305230" lon="9.5799190">
	<ele>1264.00</ele>
	<time>2023-10-07T06:16:46.000Z</time>
</trkpt>
<trkpt lat="45.9305240" lon="9.5799200">
	<ele>1263.80</ele>
	<time>2023-10-07T06:16:47.000Z</time>
</trkpt>
<trkpt lat="45.9305290" lon="9.5799120">
	<ele>1263.80</ele>
	<time>2023-10-07T06:16:48.000Z</time>
</trkpt>
<trkpt lat="45.9305360" lon="9.5798930">
	<ele>1263.80</ele>
	<time>2023-10-07T06:16:49.000Z</time>
</trkpt>
<trkpt lat="45.9305420" lon="9.5798800">
	<ele>1263.80</ele>
	<time>2023-10-07T06:16:50.000Z</time>
</trkpt>
<trkpt lat="45.9305500" lon="9.5798680">
	<ele>1263.80</ele>
	<time>2023-10-07T06:16:51.000Z</time>
</trkpt>
<trkpt lat="45.9305570" lon="9.5798640">
	<ele>1263.80</ele>
	<time>2023-10-07T06:16:52.000Z</time>
</trkpt>
<trkpt lat="45.9305600" lon="9.5798650">
	<ele>1263.80</ele>
	<time>2023-10-07T06:16:53.000Z</time>
</trkpt>
<trkpt lat="45.9305580" lon="9.5798730">
	<ele>1263.80</ele>
	<time>2023-10-07T06:16:54.000Z</time>
</trkpt>
<trkpt lat="45.9305650" lon="9.5798650">
	<ele>1263.80</ele>
	<time>2023-10-07T06:16:55.000Z</time>
</trkpt>
<trkpt lat="45.9305690" lon="9.5798520">
	<ele>1263.80</ele>
	<time>2023-10-07T06:16:56.000Z</time>
</trkpt>
<trkpt lat="45.9305830" lon="9.5798420">
	<ele>1263.60</ele>
	<time>2023-10-07T06:16:57.000Z</time>
</trkpt>
<trkpt lat="45.9305990" lon="9.5798250">
	<ele>1263.60</ele>
	<time>2023-10-07T06:16:58.000Z</time>
</trkpt>
<trkpt lat="45.9306110" lon="9.5798170">
	<ele>1263.40</ele>
	<time>2023-10-07T06:16:59.000Z</time>
</trkpt>
<trkpt lat="45.9306110" lon="9.5798110">
	<ele>1263.40</ele>
	<time>2023-10-07T06:17:00.000Z</time>
</trkpt>
<trkpt lat="45.9306120" lon="9.5797910">
	<ele>1263.20</ele>
	<time>2023-10-07T06:17:01.000Z</time>
</trkpt>
<trkpt lat="45.9306110" lon="9.5797970">
	<ele>1263.20</ele>
	<time>2023-10-07T06:17:02.000Z</time>
</trkpt>
<trkpt lat="45.9306200" lon="9.5797920">
	<ele>1263.20</ele>
	<time>2023-10-07T06:17:03.000Z</time>
</trkpt>
<trkpt lat="45.9306220" lon="9.5797860">
	<ele>1263.20</ele>
	<time>2023-10-07T06:17:04.000Z</time>
</trkpt>
<trkpt lat="45.9306220" lon="9.5797720">
	<ele>1263.00</ele>
	<time>2023-10-07T06:17:05.000Z</time>
</trkpt>
<trkpt lat="45.9306250" lon="9.5797600">
	<ele>1263.00</ele>
	<time>2023-10-07T06:17:06.000Z</time>
</trkpt>
<trkpt lat="45.9306280" lon="9.5797540">
	<ele>1263.00</ele>
	<time>2023-10-07T06:17:07.000Z</time>
</trkpt>
<trkpt lat="45.9306280" lon="9.5797470">
	<ele>1263.00</ele>
	<time>2023-10-07T06:17:08.000Z</time>
</trkpt>
<trkpt lat="45.9306310" lon="9.5797380">
	<ele>1263.00</ele>
	<time>2023-10-07T06:17:09.000Z</time>
</trkpt>
<trkpt lat="45.9306370" lon="9.5797240">
	<ele>1263.00</ele>
	<time>2023-10-07T06:17:10.000Z</time>
</trkpt>
<trkpt lat="45.9306490" lon="9.5797030">
	<ele>1263.00</ele>
	<time>2023-10-07T06:17:11.000Z</time>
</trkpt>
<trkpt lat="45.9306640" lon="9.5796750">
	<ele>1263.00</ele>
	<time>2023-10-07T06:17:12.000Z</time>
</trkpt>
<trkpt lat="45.9306710" lon="9.5796690">
	<ele>1263.00</ele>
	<time>2023-10-07T06:17:13.000Z</time>
</trkpt>
<trkpt lat="45.9306780" lon="9.5796590">
	<ele>1263.00</ele>
	<time>2023-10-07T06:17:14.000Z</time>
</trkpt>
<trkpt lat="45.9306850" lon="9.5796500">
	<ele>1263.00</ele>
	<time>2023-10-07T06:17:15.000Z</time>
</trkpt>
<trkpt lat="45.9306920" lon="9.5796440">
	<ele>1263.00</ele>
	<time>2023-10-07T06:17:16.000Z</time>
</trkpt>
<trkpt lat="45.9306980" lon="9.5796360">
	<ele>1262.80</ele>
	<time>2023-10-07T06:17:17.000Z</time>
</trkpt>
<trkpt lat="45.9306910" lon="9.5796410">
	<ele>1262.80</ele>
	<time>2023-10-07T06:17:18.000Z</time>
</trkpt>
<trkpt lat="45.9306970" lon="9.5796210">
	<ele>1262.80</ele>
	<time>2023-10-07T06:17:19.000Z</time>
</trkpt>
<trkpt lat="45.9307110" lon="9.5796050">
	<ele>1262.80</ele>
	<time>2023-10-07T06:17:20.000Z</time>
</trkpt>
<trkpt lat="45.9307130" lon="9.5796060">
	<ele>1262.60</ele>
	<time>2023-10-07T06:17:21.000Z</time>
</trkpt>
<trkpt lat="45.9307100" lon="9.5796070">
	<ele>1262.60</ele>
	<time>2023-10-07T06:17:22.000Z</time>
</trkpt>
<trkpt lat="45.9307040" lon="9.5796100">
	<ele>1262.60</ele>
	<time>2023-10-07T06:17:23.000Z</time>
</trkpt>
<trkpt lat="45.9307000" lon="9.5796120">
	<ele>1262.40</ele>
	<time>2023-10-07T06:17:24.000Z</time>
</trkpt>
<trkpt lat="45.9306980" lon="9.5796150">
	<ele>1262.40</ele>
	<time>2023-10-07T06:17:25.000Z</time>
</trkpt>
<trkpt lat="45.9306960" lon="9.5796280">
	<ele>1262.40</ele>
	<time>2023-10-07T06:17:26.000Z</time>
</trkpt>
<trkpt lat="45.9306960" lon="9.5796480">
	<ele>1262.40</ele>
	<time>2023-10-07T06:17:27.000Z</time>
</trkpt>
<trkpt lat="45.9306960" lon="9.5796670">
	<ele>1262.20</ele>
	<time>2023-10-07T06:17:28.000Z</time>
</trkpt>
<trkpt lat="45.9307020" lon="9.5796770">
	<ele>1262.40</ele>
	<time>2023-10-07T06:17:29.000Z</time>
</trkpt>
<trkpt lat="45.9306980" lon="9.5796810">
	<ele>1262.40</ele>
	<time>2023-10-07T06:17:30.000Z</time>
</trkpt>
<trkpt lat="45.9306930" lon="9.5796830">
	<ele>1262.60</ele>
	<time>2023-10-07T06:17:31.000Z</time>
</trkpt>
<trkpt lat="45.9306950" lon="9.5796840">
	<ele>1262.60</ele>
	<time>2023-10-07T06:17:32.000Z</time>
</trkpt>
<trkpt lat="45.9306950" lon="9.5796840">
	<ele>1262.60</ele>
	<time>2023-10-07T06:17:33.000Z</time>
</trkpt>
<trkpt lat="45.9306950" lon="9.5796840">
	<ele>1262.60</ele>
	<time>2023-10-07T06:17:34.000Z</time>
</trkpt>
<trkpt lat="45.9306950" lon="9.5796840">
	<ele>1262.60</ele>
	<time>2023-10-07T06:17:35.000Z</time>
</trkpt>
<trkpt lat="45.9306950" lon="9.5796840">
	<ele>1262.60</ele>
	<time>2023-10-07T06:17:36.000Z</time>
</trkpt>
<trkpt lat="45.9306950" lon="9.5796840">
	<ele>1262.60</ele>
	<time>2023-10-07T06:17:37.000Z</time>
</trkpt>
<trkpt lat="45.9306950" lon="9.5796840">
	<ele>1262.60</ele>
	<time>2023-10-07T06:17:38.000Z</time>
</trkpt>
<trkpt lat="45.9306970" lon="9.5796810">
	<ele>1262.60</ele>
	<time>2023-10-07T06:17:39.000Z</time>
</trkpt>
<trkpt lat="45.9307060" lon="9.5796660">
	<ele>1262.60</ele>
	<time>2023-10-07T06:17:40.000Z</time>
</trkpt>
<trkpt lat="45.9307170" lon="9.5796610">
	<ele>1262.60</ele>
	<time>2023-10-07T06:17:41.000Z</time>
</trkpt>
<trkpt lat="45.9307260" lon="9.5796450">
	<ele>1262.60</ele>
	<time>2023-10-07T06:17:42.000Z</time>
</trkpt>
<trkpt lat="45.9307260" lon="9.5796400">
	<ele>1262.60</ele>
	<time>2023-10-07T06:17:43.000Z</time>
</trkpt>
<trkpt lat="45.9307290" lon="9.5796340">
	<ele>1262.60</ele>
	<time>2023-10-07T06:17:44.000Z</time>
</trkpt>
<trkpt lat="45.9307370" lon="9.5796230">
	<ele>1262.60</ele>
	<time>2023-10-07T06:17:45.000Z</time>
</trkpt>
<trkpt lat="45.9307400" lon="9.5796160">
	<ele>1262.60</ele>
	<time>2023-10-07T06:17:46.000Z</time>
</trkpt>
<trkpt lat="45.9307450" lon="9.5796110">
	<ele>1262.60</ele>
	<time>2023-10-07T06:17:47.000Z</time>
</trkpt>
<trkpt lat="45.9307520" lon="9.5796070">
	<ele>1262.60</ele>
	<time>2023-10-07T06:17:48.000Z</time>
</trkpt>
<trkpt lat="45.9307610" lon="9.5796080">
	<ele>1262.60</ele>
	<time>2023-10-07T06:17:49.000Z</time>
</trkpt>
<trkpt lat="45.9307590" lon="9.5796130">
	<ele>1262.40</ele>
	<time>2023-10-07T06:17:50.000Z</time>
</trkpt>
<trkpt lat="45.9307630" lon="9.5796110">
	<ele>1262.20</ele>
	<time>2023-10-07T06:17:51.000Z</time>
</trkpt>
<trkpt lat="45.9307670" lon="9.5796080">
	<ele>1262.20</ele>
	<time>2023-10-07T06:17:52.000Z</time>
</trkpt>
<trkpt lat="45.9307700" lon="9.5796070">
	<ele>1262.00</ele>
	<time>2023-10-07T06:17:53.000Z</time>
</trkpt>
<trkpt lat="45.9307660" lon="9.5796150">
	<ele>1261.80</ele>
	<time>2023-10-07T06:17:54.000Z</time>
</trkpt>
<trkpt lat="45.9307590" lon="9.5796250">
	<ele>1261.80</ele>
	<time>2023-10-07T06:17:55.000Z</time>
</trkpt>
<trkpt lat="45.9307520" lon="9.5796320">
	<ele>1261.60</ele>
	<time>2023-10-07T06:17:56.000Z</time>
</trkpt>
<trkpt lat="45.9307470" lon="9.5796370">
	<ele>1261.40</ele>
	<time>2023-10-07T06:17:57.000Z</time>
</trkpt>
<trkpt lat="45.9307420" lon="9.5796420">
	<ele>1261.20</ele>
	<time>2023-10-07T06:17:58.000Z</time>
</trkpt>
<trkpt lat="45.9307480" lon="9.5796410">
	<ele>1261.20</ele>
	<time>2023-10-07T06:17:59.000Z</time>
</trkpt>
<trkpt lat="45.9307490" lon="9.5796400">
	<ele>1261.00</ele>
	<time>2023-10-07T06:18:00.000Z</time>
</trkpt>
<trkpt lat="45.9307600" lon="9.5796240">
	<ele>1261.00</ele>
	<time>2023-10-07T06:18:01.000Z</time>
</trkpt>
<trkpt lat="45.9307510" lon="9.5796210">
	<ele>1261.00</ele>
	<time>2023-10-07T06:18:02.000Z</time>
</trkpt>
<trkpt lat="45.9307470" lon="9.5796140">
	<ele>1261.40</ele>
	<time>2023-10-07T06:18:03.000Z</time>
</trkpt>
<trkpt lat="45.9307410" lon="9.5796090">
	<ele>1261.40</ele>
	<time>2023-10-07T06:18:04.000Z</time>
</trkpt>
<trkpt lat="45.9307320" lon="9.5796120">
	<ele>1261.60</ele>
	<time>2023-10-07T06:18:05.000Z</time>
</trkpt>
<trkpt lat="45.9307240" lon="9.5796140">
	<ele>1262.60</ele>
	<time>2023-10-07T06:18:06.000Z</time>
</trkpt>
<trkpt lat="45.9307240" lon="9.5796040">
	<ele>1262.60</ele>
	<time>2023-10-07T06:18:07.000Z</time>
</trkpt>
<trkpt lat="45.9307270" lon="9.5795940">
	<ele>1262.60</ele>
	<time>2023-10-07T06:18:08.000Z</time>
</trkpt>
<trkpt lat="45.9307250" lon="9.5795780">
	<ele>1262.60</ele>
	<time>2023-10-07T06:18:09.000Z</time>
</trkpt>
<trkpt lat="45.9307230" lon="9.5795670">
	<ele>1262.60</ele>
	<time>2023-10-07T06:18:10.000Z</time>
</trkpt>
<trkpt lat="45.9307240" lon="9.5795480">
	<ele>1262.60</ele>
	<time>2023-10-07T06:18:11.000Z</time>
</trkpt>
<trkpt lat="45.9307260" lon="9.5795320">
	<ele>1262.60</ele>
	<time>2023-10-07T06:18:12.000Z</time>
</trkpt>
<trkpt lat="45.9307300" lon="9.5795130">
	<ele>1262.80</ele>
	<time>2023-10-07T06:18:13.000Z</time>
</trkpt>
<trkpt lat="45.9307390" lon="9.5794970">
	<ele>1262.80</ele>
	<time>2023-10-07T06:18:14.000Z</time>
</trkpt>
<trkpt lat="45.9307560" lon="9.5794730">
	<ele>1262.80</ele>
	<time>2023-10-07T06:18:15.000Z</time>
</trkpt>
<trkpt lat="45.9307820" lon="9.5794440">
	<ele>1263.00</ele>
	<time>2023-10-07T06:18:16.000Z</time>
</trkpt>
<trkpt lat="45.9308070" lon="9.5794100">
	<ele>1263.00</ele>
	<time>2023-10-07T06:18:17.000Z</time>
</trkpt>
<trkpt lat="45.9308260" lon="9.5793790">
	<ele>1263.00</ele>
	<time>2023-10-07T06:18:18.000Z</time>
</trkpt>
<trkpt lat="45.9308420" lon="9.5793600">
	<ele>1263.00</ele>
	<time>2023-10-07T06:18:19.000Z</time>
</trkpt>
<trkpt lat="45.9308560" lon="9.5793390">
	<ele>1262.80</ele>
	<time>2023-10-07T06:18:20.000Z</time>
</trkpt>
<trkpt lat="45.9308690" lon="9.5793280">
	<ele>1262.60</ele>
	<time>2023-10-07T06:18:21.000Z</time>
</trkpt>
<trkpt lat="45.9308870" lon="9.5793100">
	<ele>1262.60</ele>
	<time>2023-10-07T06:18:22.000Z</time>
</trkpt>
<trkpt lat="45.9309050" lon="9.5792910">
	<ele>1262.40</ele>
	<time>2023-10-07T06:18:23.000Z</time>
</trkpt>
<trkpt lat="45.9309160" lon="9.5792780">
	<ele>1262.40</ele>
	<time>2023-10-07T06:18:24.000Z</time>
</trkpt>
<trkpt lat="45.9309190" lon="9.5792760">
	<ele>1262.20</ele>
	<time>2023-10-07T06:18:25.000Z</time>
</trkpt>
<trkpt lat="45.9309090" lon="9.5792770">
	<ele>1262.20</ele>
	<time>2023-10-07T06:18:26.000Z</time>
</trkpt>
<trkpt lat="45.9309010" lon="9.5792780">
	<ele>1262.00</ele>
	<time>2023-10-07T06:18:27.000Z</time>
</trkpt>
<trkpt lat="45.9309040" lon="9.5792710">
	<ele>1262.00</ele>
	<time>2023-10-07T06:18:28.000Z</time>
</trkpt>
<trkpt lat="45.9309020" lon="9.5792780">
	<ele>1261.80</ele>
	<time>2023-10-07T06:18:29.000Z</time>
</trkpt>
<trkpt lat="45.9308960" lon="9.5792870">
	<ele>1261.80</ele>
	<time>2023-10-07T06:18:30.000Z</time>
</trkpt>
<trkpt lat="45.9309010" lon="9.5792910">
	<ele>1261.80</ele>
	<time>2023-10-07T06:18:31.000Z</time>
</trkpt>
<trkpt lat="45.9309120" lon="9.5792800">
	<ele>1261.60</ele>
	<time>2023-10-07T06:18:32.000Z</time>
</trkpt>
<trkpt lat="45.9309260" lon="9.5792610">
	<ele>1261.60</ele>
	<time>2023-10-07T06:18:33.000Z</time>
</trkpt>
<trkpt lat="45.9309340" lon="9.5792450">
	<ele>1261.40</ele>
	<time>2023-10-07T06:18:34.000Z</time>
</trkpt>
<trkpt lat="45.9309450" lon="9.5792320">
	<ele>1261.40</ele>
	<time>2023-10-07T06:18:35.000Z</time>
</trkpt>
<trkpt lat="45.9309510" lon="9.5792290">
	<ele>1261.20</ele>
	<time>2023-10-07T06:18:36.000Z</time>
</trkpt>
<trkpt lat="45.9309550" lon="9.5792230">
	<ele>1261.00</ele>
	<time>2023-10-07T06:18:37.000Z</time>
</trkpt>
<trkpt lat="45.9309580" lon="9.5792190">
	<ele>1260.80</ele>
	<time>2023-10-07T06:18:38.000Z</time>
</trkpt>
<trkpt lat="45.9309640" lon="9.5792110">
	<ele>1260.80</ele>
	<time>2023-10-07T06:18:39.000Z</time>
</trkpt>
<trkpt lat="45.9309750" lon="9.5792010">
	<ele>1260.60</ele>
	<time>2023-10-07T06:18:40.000Z</time>
</trkpt>
<trkpt lat="45.9309760" lon="9.5791940">
	<ele>1260.60</ele>
	<time>2023-10-07T06:18:41.000Z</time>
</trkpt>
<trkpt lat="45.9309800" lon="9.5791880">
	<ele>1260.60</ele>
	<time>2023-10-07T06:18:42.000Z</time>
</trkpt>
<trkpt lat="45.9309820" lon="9.5791900">
	<ele>1260.60</ele>
	<time>2023-10-07T06:18:43.000Z</time>
</trkpt>
<trkpt lat="45.9309800" lon="9.5791970">
	<ele>1260.60</ele>
	<time>2023-10-07T06:18:44.000Z</time>
</trkpt>
<trkpt lat="45.9309790" lon="9.5791930">
	<ele>1260.60</ele>
	<time>2023-10-07T06:18:45.000Z</time>
</trkpt>
<trkpt lat="45.9309750" lon="9.5791870">
	<ele>1260.60</ele>
	<time>2023-10-07T06:18:46.000Z</time>
</trkpt>
<trkpt lat="45.9309720" lon="9.5791840">
	<ele>1260.40</ele>
	<time>2023-10-07T06:18:47.000Z</time>
</trkpt>
<trkpt lat="45.9309730" lon="9.5791760">
	<ele>1260.00</ele>
	<time>2023-10-07T06:18:48.000Z</time>
</trkpt>
<trkpt lat="45.9309680" lon="9.5791770">
	<ele>1259.80</ele>
	<time>2023-10-07T06:18:49.000Z</time>
</trkpt>
<trkpt lat="45.9309760" lon="9.5791730">
	<ele>1259.60</ele>
	<time>2023-10-07T06:18:50.000Z</time>
</trkpt>
<trkpt lat="45.9309900" lon="9.5791600">
	<ele>1259.40</ele>
	<time>2023-10-07T06:18:51.000Z</time>
</trkpt>
<trkpt lat="45.9310140" lon="9.5791390">
	<ele>1259.20</ele>
	<time>2023-10-07T06:18:52.000Z</time>
</trkpt>
<trkpt lat="45.9310330" lon="9.5791210">
	<ele>1259.00</ele>
	<time>2023-10-07T06:18:53.000Z</time>
</trkpt>
<trkpt lat="45.9310510" lon="9.5791050">
	<ele>1259.00</ele>
	<time>2023-10-07T06:18:54.000Z</time>
</trkpt>
<trkpt lat="45.9310640" lon="9.5790910">
	<ele>1258.80</ele>
	<time>2023-10-07T06:18:55.000Z</time>
</trkpt>
<trkpt lat="45.9310810" lon="9.5790820">
	<ele>1258.60</ele>
	<time>2023-10-07T06:18:56.000Z</time>
</trkpt>
<trkpt lat="45.9310890" lon="9.5790850">
	<ele>1258.60</ele>
	<time>2023-10-07T06:18:57.000Z</time>
</trkpt>
<trkpt lat="45.9311000" lon="9.5790930">
	<ele>1258.40</ele>
	<time>2023-10-07T06:18:58.000Z</time>
</trkpt>
<trkpt lat="45.9311040" lon="9.5790970">
	<ele>1258.40</ele>
	<time>2023-10-07T06:18:59.000Z</time>
</trkpt>
<trkpt lat="45.9311030" lon="9.5790940">
	<ele>1258.40</ele>
	<time>2023-10-07T06:19:00.000Z</time>
</trkpt>
<trkpt lat="45.9311100" lon="9.5790870">
	<ele>1258.20</ele>
	<time>2023-10-07T06:19:01.000Z</time>
</trkpt>
<trkpt lat="45.9311240" lon="9.5790820">
	<ele>1258.20</ele>
	<time>2023-10-07T06:19:02.000Z</time>
</trkpt>
<trkpt lat="45.9311370" lon="9.5790770">
	<ele>1258.20</ele>
	<time>2023-10-07T06:19:03.000Z</time>
</trkpt>
<trkpt lat="45.9311410" lon="9.5790800">
	<ele>1258.20</ele>
	<time>2023-10-07T06:19:04.000Z</time>
</trkpt>
<trkpt lat="45.9311510" lon="9.5790870">
	<ele>1258.20</ele>
	<time>2023-10-07T06:19:05.000Z</time>
</trkpt>
<trkpt lat="45.9311600" lon="9.5790920">
	<ele>1258.20</ele>
	<time>2023-10-07T06:19:06.000Z</time>
</trkpt>
<trkpt lat="45.9311820" lon="9.5790960">
	<ele>1258.20</ele>
	<time>2023-10-07T06:19:07.000Z</time>
</trkpt>
<trkpt lat="45.9311980" lon="9.5790930">
	<ele>1258.40</ele>
	<time>2023-10-07T06:19:08.000Z</time>
</trkpt>
<trkpt lat="45.9312070" lon="9.5790970">
	<ele>1258.60</ele>
	<time>2023-10-07T06:19:09.000Z</time>
</trkpt>
<trkpt lat="45.9312120" lon="9.5791050">
	<ele>1258.80</ele>
	<time>2023-10-07T06:19:10.000Z</time>
</trkpt>
<trkpt lat="45.9312170" lon="9.5791050">
	<ele>1258.80</ele>
	<time>2023-10-07T06:19:11.000Z</time>
</trkpt>
<trkpt lat="45.9312200" lon="9.5791100">
	<ele>1259.20</ele>
	<time>2023-10-07T06:19:12.000Z</time>
</trkpt>
<trkpt lat="45.9312170" lon="9.5791230">
	<ele>1259.20</ele>
	<time>2023-10-07T06:19:13.000Z</time>
</trkpt>
<trkpt lat="45.9312180" lon="9.5791260">
	<ele>1259.40</ele>
	<time>2023-10-07T06:19:14.000Z</time>
</trkpt>
<trkpt lat="45.9312180" lon="9.5791190">
	<ele>1259.40</ele>
	<time>2023-10-07T06:19:15.000Z</time>
</trkpt>
<trkpt lat="45.9312170" lon="9.5791180">
	<ele>1259.60</ele>
	<time>2023-10-07T06:19:16.000Z</time>
</trkpt>
<trkpt lat="45.9312170" lon="9.5791160">
	<ele>1259.80</ele>
	<time>2023-10-07T06:19:17.000Z</time>
</trkpt>
<trkpt lat="45.9312060" lon="9.5791180">
	<ele>1259.80</ele>
	<time>2023-10-07T06:19:18.000Z</time>
</trkpt>
<trkpt lat="45.9312010" lon="9.5791190">
	<ele>1260.00</ele>
	<time>2023-10-07T06:19:19.000Z</time>
</trkpt>
<trkpt lat="45.9312050" lon="9.5791080">
	<ele>1260.20</ele>
	<time>2023-10-07T06:19:20.000Z</time>
</trkpt>
<trkpt lat="45.9312020" lon="9.5791110">
	<ele>1260.20</ele>
	<time>2023-10-07T06:19:21.000Z</time>
</trkpt>
<trkpt lat="45.9311960" lon="9.5790990">
	<ele>1260.20</ele>
	<time>2023-10-07T06:19:22.000Z</time>
</trkpt>
<trkpt lat="45.9311930" lon="9.5791040">
	<ele>1260.20</ele>
	<time>2023-10-07T06:19:23.000Z</time>
</trkpt>
<trkpt lat="45.9311800" lon="9.5791120">
	<ele>1260.20</ele>
	<time>2023-10-07T06:19:24.000Z</time>
</trkpt>
<trkpt lat="45.9311760" lon="9.5791050">
	<ele>1260.20</ele>
	<time>2023-10-07T06:19:25.000Z</time>
</trkpt>
<trkpt lat="45.9311770" lon="9.5791030">
	<ele>1260.00</ele>
	<time>2023-10-07T06:19:26.000Z</time>
</trkpt>
<trkpt lat="45.9311790" lon="9.5790990">
	<ele>1260.00</ele>
	<time>2023-10-07T06:19:27.000Z</time>
</trkpt>
<trkpt lat="45.9311870" lon="9.5790930">
	<ele>1259.80</ele>
	<time>2023-10-07T06:19:28.000Z</time>
</trkpt>
<trkpt lat="45.9311880" lon="9.5790960">
	<ele>1259.80</ele>
	<time>2023-10-07T06:19:29.000Z</time>
</trkpt>
<trkpt lat="45.9311950" lon="9.5790940">
	<ele>1259.60</ele>
	<time>2023-10-07T06:19:30.000Z</time>
</trkpt>
<trkpt lat="45.9312050" lon="9.5790880">
	<ele>1259.60</ele>
	<time>2023-10-07T06:19:31.000Z</time>
</trkpt>
<trkpt lat="45.9312140" lon="9.5790890">
	<ele>1259.60</ele>
	<time>2023-10-07T06:19:32.000Z</time>
</trkpt>
<trkpt lat="45.9312200" lon="9.5790860">
	<ele>1259.80</ele>
	<time>2023-10-07T06:19:33.000Z</time>
</trkpt>
<trkpt lat="45.9312270" lon="9.5790880">
	<ele>1259.80</ele>
	<time>2023-10-07T06:19:34.000Z</time>
</trkpt>
<trkpt lat="45.9312340" lon="9.5790940">
	<ele>1260.00</ele>
	<time>2023-10-07T06:19:35.000Z</time>
</trkpt>
<trkpt lat="45.9312390" lon="9.5791010">
	<ele>1260.00</ele>
	<time>2023-10-07T06:19:36.000Z</time>
</trkpt>
<trkpt lat="45.9312460" lon="9.5791070">
	<ele>1260.00</ele>
	<time>2023-10-07T06:19:37.000Z</time>
</trkpt>
<trkpt lat="45.9312590" lon="9.5791000">
	<ele>1260.20</ele>
	<time>2023-10-07T06:19:38.000Z</time>
</trkpt>
<trkpt lat="45.9312700" lon="9.5790950">
	<ele>1260.40</ele>
	<time>2023-10-07T06:19:39.000Z</time>
</trkpt>
<trkpt lat="45.9312780" lon="9.5790960">
	<ele>1260.60</ele>
	<time>2023-10-07T06:19:40.000Z</time>
</trkpt>
<trkpt lat="45.9312840" lon="9.5790980">
	<ele>1260.60</ele>
	<time>2023-10-07T06:19:41.000Z</time>
</trkpt>
<trkpt lat="45.9312930" lon="9.5790900">
	<ele>1261.00</ele>
	<time>2023-10-07T06:19:42.000Z</time>
</trkpt>
<trkpt lat="45.9313060" lon="9.5790710">
	<ele>1261.20</ele>
	<time>2023-10-07T06:19:43.000Z</time>
</trkpt>
<trkpt lat="45.9313110" lon="9.5790690">
	<ele>1261.40</ele>
	<time>2023-10-07T06:19:44.000Z</time>
</trkpt>
<trkpt lat="45.9313170" lon="9.5790590">
	<ele>1261.40</ele>
	<time>2023-10-07T06:19:45.000Z</time>
</trkpt>
<trkpt lat="45.9313170" lon="9.5790610">
	<ele>1261.40</ele>
	<time>2023-10-07T06:19:46.000Z</time>
</trkpt>
<trkpt lat="45.9313200" lon="9.5790600">
	<ele>1261.40</ele>
	<time>2023-10-07T06:19:47.000Z</time>
</trkpt>
<trkpt lat="45.9313240" lon="9.5790610">
	<ele>1261.40</ele>
	<time>2023-10-07T06:19:48.000Z</time>
</trkpt>
<trkpt lat="45.9313370" lon="9.5790440">
	<ele>1261.40</ele>
	<time>2023-10-07T06:19:49.000Z</time>
</trkpt>
<trkpt lat="45.9313480" lon="9.5790260">
	<ele>1261.20</ele>
	<time>2023-10-07T06:19:50.000Z</time>
</trkpt>
<trkpt lat="45.9313510" lon="9.5790320">
	<ele>1261.20</ele>
	<time>2023-10-07T06:19:51.000Z</time>
</trkpt>
<trkpt lat="45.9313610" lon="9.5790340">
	<ele>1261.20</ele>
	<time>2023-10-07T06:19:52.000Z</time>
</trkpt>
<trkpt lat="45.9313690" lon="9.5790280">
	<ele>1261.00</ele>
	<time>2023-10-07T06:19:53.000Z</time>
</trkpt>
<trkpt lat="45.9313710" lon="9.5790270">
	<ele>1261.00</ele>
	<time>2023-10-07T06:19:54.000Z</time>
</trkpt>
<trkpt lat="45.9313710" lon="9.5790280">
	<ele>1260.80</ele>
	<time>2023-10-07T06:19:55.000Z</time>
</trkpt>
<trkpt lat="45.9313740" lon="9.5790310">
	<ele>1260.80</ele>
	<time>2023-10-07T06:19:56.000Z</time>
</trkpt>
<trkpt lat="45.9313770" lon="9.5790520">
	<ele>1260.80</ele>
	<time>2023-10-07T06:19:57.000Z</time>
</trkpt>
<trkpt lat="45.9313770" lon="9.5790650">
	<ele>1260.80</ele>
	<time>2023-10-07T06:19:58.000Z</time>
</trkpt>
<trkpt lat="45.9313750" lon="9.5790800">
	<ele>1261.00</ele>
	<time>2023-10-07T06:19:59.000Z</time>
</trkpt>
<trkpt lat="45.9313750" lon="9.5790950">
	<ele>1261.20</ele>
	<time>2023-10-07T06:20:00.000Z</time>
</trkpt>
<trkpt lat="45.9313770" lon="9.5791140">
	<ele>1261.40</ele>
	<time>2023-10-07T06:20:01.000Z</time>
</trkpt>
<trkpt lat="45.9313820" lon="9.5791250">
	<ele>1261.60</ele>
	<time>2023-10-07T06:20:02.000Z</time>
</trkpt>
<trkpt lat="45.9313840" lon="9.5791380">
	<ele>1261.60</ele>
	<time>2023-10-07T06:20:03.000Z</time>
</trkpt>
<trkpt lat="45.9313860" lon="9.5791500">
	<ele>1261.80</ele>
	<time>2023-10-07T06:20:04.000Z</time>
</trkpt>
<trkpt lat="45.9313840" lon="9.5791720">
	<ele>1262.00</ele>
	<time>2023-10-07T06:20:05.000Z</time>
</trkpt>
<trkpt lat="45.9313830" lon="9.5791980">
	<ele>1262.20</ele>
	<time>2023-10-07T06:20:06.000Z</time>
</trkpt>
<trkpt lat="45.9313880" lon="9.5792210">
	<ele>1262.40</ele>
	<time>2023-10-07T06:20:07.000Z</time>
</trkpt>
<trkpt lat="45.9313950" lon="9.5792360">
	<ele>1262.40</ele>
	<time>2023-10-07T06:20:08.000Z</time>
</trkpt>
<trkpt lat="45.9313960" lon="9.5792640">
	<ele>1262.60</ele>
	<time>2023-10-07T06:20:09.000Z</time>
</trkpt>
<trkpt lat="45.9313950" lon="9.5792900">
	<ele>1263.00</ele>
	<time>2023-10-07T06:20:10.000Z</time>
</trkpt>
<trkpt lat="45.9314140" lon="9.5792810">
	<ele>1263.20</ele>
	<time>2023-10-07T06:20:11.000Z</time>
</trkpt>
<trkpt lat="45.9314220" lon="9.5792890">
	<ele>1263.40</ele>
	<time>2023-10-07T06:20:12.000Z</time>
</trkpt>
<trkpt lat="45.9314310" lon="9.5793070">
	<ele>1263.40</ele>
	<time>2023-10-07T06:20:13.000Z</time>
</trkpt>
<trkpt lat="45.9314440" lon="9.5793180">
	<ele>1263.40</ele>
	<time>2023-10-07T06:20:14.000Z</time>
</trkpt>
<trkpt lat="45.9314510" lon="9.5793300">
	<ele>1263.60</ele>
	<time>2023-10-07T06:20:15.000Z</time>
</trkpt>
<trkpt lat="45.9314520" lon="9.5793490">
	<ele>1263.80</ele>
	<time>2023-10-07T06:20:16.000Z</time>
</trkpt>
<trkpt lat="45.9314600" lon="9.5793640">
	<ele>1264.00</ele>
	<time>2023-10-07T06:20:17.000Z</time>
</trkpt>
<trkpt lat="45.9314620" lon="9.5793720">
	<ele>1264.20</ele>
	<time>2023-10-07T06:20:18.000Z</time>
</trkpt>
<trkpt lat="45.9314720" lon="9.5793830">
	<ele>1264.40</ele>
	<time>2023-10-07T06:20:19.000Z</time>
</trkpt>
<trkpt lat="45.9314680" lon="9.5794040">
	<ele>1264.60</ele>
	<time>2023-10-07T06:20:20.000Z</time>
</trkpt>
<trkpt lat="45.9314680" lon="9.5794220">
	<ele>1264.80</ele>
	<time>2023-10-07T06:20:21.000Z</time>
</trkpt>
<trkpt lat="45.9314730" lon="9.5794370">
	<ele>1265.00</ele>
	<time>2023-10-07T06:20:22.000Z</time>
</trkpt>
<trkpt lat="45.9314730" lon="9.5794540">
	<ele>1265.20</ele>
	<time>2023-10-07T06:20:23.000Z</time>
</trkpt>
<trkpt lat="45.9314780" lon="9.5794720">
	<ele>1265.40</ele>
	<time>2023-10-07T06:20:24.000Z</time>
</trkpt>
<trkpt lat="45.9314860" lon="9.5794860">
	<ele>1265.60</ele>
	<time>2023-10-07T06:20:25.000Z</time>
</trkpt>
<trkpt lat="45.9314940" lon="9.5794940">
	<ele>1266.00</ele>
	<time>2023-10-07T06:20:26.000Z</time>
</trkpt>
<trkpt lat="45.9315000" lon="9.5795070">
	<ele>1266.20</ele>
	<time>2023-10-07T06:20:27.000Z</time>
</trkpt>
<trkpt lat="45.9315050" lon="9.5795130">
	<ele>1266.20</ele>
	<time>2023-10-07T06:20:28.000Z</time>
</trkpt>
<trkpt lat="45.9315190" lon="9.5795070">
	<ele>1266.40</ele>
	<time>2023-10-07T06:20:29.000Z</time>
</trkpt>
<trkpt lat="45.9315290" lon="9.5795100">
	<ele>1266.60</ele>
	<time>2023-10-07T06:20:30.000Z</time>
</trkpt>
<trkpt lat="45.9315390" lon="9.5795110">
	<ele>1266.80</ele>
	<time>2023-10-07T06:20:31.000Z</time>
</trkpt>
<trkpt lat="45.9315480" lon="9.5795100">
	<ele>1267.00</ele>
	<time>2023-10-07T06:20:32.000Z</time>
</trkpt>
<trkpt lat="45.9315520" lon="9.5795190">
	<ele>1267.00</ele>
	<time>2023-10-07T06:20:33.000Z</time>
</trkpt>
<trkpt lat="45.9315570" lon="9.5795290">
	<ele>1267.20</ele>
	<time>2023-10-07T06:20:34.000Z</time>
</trkpt>
<trkpt lat="45.9315600" lon="9.5795440">
	<ele>1267.20</ele>
	<time>2023-10-07T06:20:35.000Z</time>
</trkpt>
<trkpt lat="45.9315630" lon="9.5795600">
	<ele>1267.20</ele>
	<time>2023-10-07T06:20:36.000Z</time>
</trkpt>
<trkpt lat="45.9315620" lon="9.5795730">
	<ele>1267.20</ele>
	<time>2023-10-07T06:20:37.000Z</time>
</trkpt>
<trkpt lat="45.9315580" lon="9.5795920">
	<ele>1267.20</ele>
	<time>2023-10-07T06:20:38.000Z</time>
</trkpt>
<trkpt lat="45.9315600" lon="9.5796070">
	<ele>1266.80</ele>
	<time>2023-10-07T06:20:39.000Z</time>
</trkpt>
<trkpt lat="45.9315650" lon="9.5796220">
	<ele>1266.80</ele>
	<time>2023-10-07T06:20:40.000Z</time>
</trkpt>
<trkpt lat="45.9315750" lon="9.5796340">
	<ele>1266.60</ele>
	<time>2023-10-07T06:20:41.000Z</time>
</trkpt>
<trkpt lat="45.9315830" lon="9.5796460">
	<ele>1266.40</ele>
	<time>2023-10-07T06:20:42.000Z</time>
</trkpt>
<trkpt lat="45.9315880" lon="9.5796620">
	<ele>1266.20</ele>
	<time>2023-10-07T06:20:43.000Z</time>
</trkpt>
<trkpt lat="45.9315870" lon="9.5796830">
	<ele>1266.00</ele>
	<time>2023-10-07T06:20:44.000Z</time>
</trkpt>
<trkpt lat="45.9315900" lon="9.5797020">
	<ele>1266.00</ele>
	<time>2023-10-07T06:20:45.000Z</time>
</trkpt>
<trkpt lat="45.9315890" lon="9.5797180">
	<ele>1265.60</ele>
	<time>2023-10-07T06:20:46.000Z</time>
</trkpt>
<trkpt lat="45.9315930" lon="9.5797200">
	<ele>1265.40</ele>
	<time>2023-10-07T06:20:47.000Z</time>
</trkpt>
<trkpt lat="45.9315980" lon="9.5797210">
	<ele>1265.20</ele>
	<time>2023-10-07T06:20:48.000Z</time>
</trkpt>
<trkpt lat="45.9316040" lon="9.5797150">
	<ele>1265.00</ele>
	<time>2023-10-07T06:20:49.000Z</time>
</trkpt>
<trkpt lat="45.9316100" lon="9.5797240">
	<ele>1265.00</ele>
	<time>2023-10-07T06:20:50.000Z</time>
</trkpt>
<trkpt lat="45.9316170" lon="9.5797350">
	<ele>1264.80</ele>
	<time>2023-10-07T06:20:51.000Z</time>
</trkpt>
<trkpt lat="45.9316200" lon="9.5797440">
	<ele>1264.40</ele>
	<time>2023-10-07T06:20:52.000Z</time>
</trkpt>
<trkpt lat="45.9316190" lon="9.5797410">
	<ele>1264.20</ele>
	<time>2023-10-07T06:20:53.000Z</time>
</trkpt>
<trkpt lat="45.9316260" lon="9.5797370">
	<ele>1263.60</ele>
	<time>2023-10-07T06:20:55.000Z</time>
</trkpt>
<trkpt lat="45.9316320" lon="9.5797380">
	<ele>1263.40</ele>
	<time>2023-10-07T06:20:56.000Z</time>
</trkpt>
<trkpt lat="45.9316340" lon="9.5797470">
	<ele>1263.40</ele>
	<time>2023-10-07T06:20:57.000Z</time>
</trkpt>
<trkpt lat="45.9316390" lon="9.5797500">
	<ele>1263.20</ele>
	<time>2023-10-07T06:20:58.000Z</time>
</trkpt>
<trkpt lat="45.9316440" lon="9.5797620">
	<ele>1263.20</ele>
	<time>2023-10-07T06:20:59.000Z</time>
</trkpt>
<trkpt lat="45.9316460" lon="9.5797760">
	<ele>1262.80</ele>
	<time>2023-10-07T06:21:00.000Z</time>
</trkpt>
<trkpt lat="45.9316500" lon="9.5797840">
	<ele>1262.60</ele>
	<time>2023-10-07T06:21:01.000Z</time>
</trkpt>
<trkpt lat="45.9316510" lon="9.5797970">
	<ele>1262.60</ele>
	<time>2023-10-07T06:21:02.000Z</time>
</trkpt>
<trkpt lat="45.9316530" lon="9.5798050">
	<ele>1262.40</ele>
	<time>2023-10-07T06:21:03.000Z</time>
</trkpt>
<trkpt lat="45.9316550" lon="9.5798190">
	<ele>1262.20</ele>
	<time>2023-10-07T06:21:04.000Z</time>
</trkpt>
<trkpt lat="45.9316540" lon="9.5798340">
	<ele>1262.20</ele>
	<time>2023-10-07T06:21:05.000Z</time>
</trkpt>
<trkpt lat="45.9316610" lon="9.5798430">
	<ele>1262.00</ele>
	<time>2023-10-07T06:21:06.000Z</time>
</trkpt>
<trkpt lat="45.9316660" lon="9.5798550">
	<ele>1262.00</ele>
	<time>2023-10-07T06:21:07.000Z</time>
</trkpt>
<trkpt lat="45.9316670" lon="9.5798650">
	<ele>1262.00</ele>
	<time>2023-10-07T06:21:08.000Z</time>
</trkpt>
<trkpt lat="45.9316760" lon="9.5798760">
	<ele>1262.00</ele>
	<time>2023-10-07T06:21:09.000Z</time>
</trkpt>
<trkpt lat="45.9316800" lon="9.5798830">
	<ele>1262.00</ele>
	<time>2023-10-07T06:21:10.000Z</time>
</trkpt>
<trkpt lat="45.9316880" lon="9.5799080">
	<ele>1262.00</ele>
	<time>2023-10-07T06:21:11.000Z</time>
</trkpt>
<trkpt lat="45.9316920" lon="9.5799150">
	<ele>1262.00</ele>
	<time>2023-10-07T06:21:12.000Z</time>
</trkpt>
<trkpt lat="45.9316950" lon="9.5799270">
	<ele>1262.00</ele>
	<time>2023-10-07T06:21:13.000Z</time>
</trkpt>
<trkpt lat="45.9316940" lon="9.5799450">
	<ele>1262.00</ele>
	<time>2023-10-07T06:21:14.000Z</time>
</trkpt>
<trkpt lat="45.9316910" lon="9.5799580">
	<ele>1262.00</ele>
	<time>2023-10-07T06:21:15.000Z</time>
</trkpt>
<trkpt lat="45.9316890" lon="9.5799570">
	<ele>1262.00</ele>
	<time>2023-10-07T06:21:16.000Z</time>
</trkpt>
<trkpt lat="45.9316970" lon="9.5799540">
	<ele>1262.00</ele>
	<time>2023-10-07T06:21:17.000Z</time>
</trkpt>
<trkpt lat="45.9317020" lon="9.5799730">
	<ele>1261.80</ele>
	<time>2023-10-07T06:21:18.000Z</time>
</trkpt>
<trkpt lat="45.9317090" lon="9.5799950">
	<ele>1261.80</ele>
	<time>2023-10-07T06:21:19.000Z</time>
</trkpt>
<trkpt lat="45.9317030" lon="9.5800290">
	<ele>1261.80</ele>
	<time>2023-10-07T06:21:20.000Z</time>
</trkpt>
<trkpt lat="45.9317010" lon="9.5800570">
	<ele>1261.80</ele>
	<time>2023-10-07T06:21:21.000Z</time>
</trkpt>
<trkpt lat="45.9317010" lon="9.5800760">
	<ele>1261.80</ele>
	<time>2023-10-07T06:21:22.000Z</time>
</trkpt>
<trkpt lat="45.9317020" lon="9.5800890">
	<ele>1261.80</ele>
	<time>2023-10-07T06:21:23.000Z</time>
</trkpt>
<trkpt lat="45.9316980" lon="9.5801180">
	<ele>1261.80</ele>
	<time>2023-10-07T06:21:24.000Z</time>
</trkpt>
<trkpt lat="45.9317010" lon="9.5801370">
	<ele>1262.00</ele>
	<time>2023-10-07T06:21:25.000Z</time>
</trkpt>
<trkpt lat="45.9317030" lon="9.5801570">
	<ele>1262.00</ele>
	<time>2023-10-07T06:21:26.000Z</time>
</trkpt>
<trkpt lat="45.9317100" lon="9.5801750">
	<ele>1262.00</ele>
	<time>2023-10-07T06:21:27.000Z</time>
</trkpt>
<trkpt lat="45.9317130" lon="9.5801930">
	<ele>1262.00</ele>
	<time>2023-10-07T06:21:28.000Z</time>
</trkpt>
<trkpt lat="45.9317160" lon="9.5802130">
	<ele>1262.20</ele>
	<time>2023-10-07T06:21:29.000Z</time>
</trkpt>
<trkpt lat="45.9317210" lon="9.5802330">
	<ele>1262.40</ele>
	<time>2023-10-07T06:21:30.000Z</time>
</trkpt>
<trkpt lat="45.9317240" lon="9.5802640">
	<ele>1262.60</ele>
	<time>2023-10-07T06:21:31.000Z</time>
</trkpt>
<trkpt lat="45.9317290" lon="9.5802940">
	<ele>1262.80</ele>
	<time>2023-10-07T06:21:32.000Z</time>
</trkpt>
<trkpt lat="45.9317370" lon="9.5803120">
	<ele>1263.00</ele>
	<time>2023-10-07T06:21:33.000Z</time>
</trkpt>
<trkpt lat="45.9317460" lon="9.5803240">
	<ele>1263.40</ele>
	<time>2023-10-07T06:21:34.000Z</time>
</trkpt>
<trkpt lat="45.9317560" lon="9.5803370">
	<ele>1263.60</ele>
	<time>2023-10-07T06:21:35.000Z</time>
</trkpt>
<trkpt lat="45.9317660" lon="9.5803300">
	<ele>1263.60</ele>
	<time>2023-10-07T06:21:36.000Z</time>
</trkpt>
<trkpt lat="45.9317730" lon="9.5803430">
	<ele>1263.80</ele>
	<time>2023-10-07T06:21:37.000Z</time>
</trkpt>
<trkpt lat="45.9317800" lon="9.5803520">
	<ele>1264.00</ele>
	<time>2023-10-07T06:21:38.000Z</time>
</trkpt>
<trkpt lat="45.9317840" lon="9.5803660">
	<ele>1264.00</ele>
	<time>2023-10-07T06:21:39.000Z</time>
</trkpt>
<trkpt lat="45.9317880" lon="9.5803700">
	<ele>1264.20</ele>
	<time>2023-10-07T06:21:40.000Z</time>
</trkpt>
<trkpt lat="45.9317900" lon="9.5803660">
	<ele>1264.20</ele>
	<time>2023-10-07T06:21:41.000Z</time>
</trkpt>
<trkpt lat="45.9317920" lon="9.5803790">
	<ele>1264.40</ele>
	<time>2023-10-07T06:21:42.000Z</time>
</trkpt>
<trkpt lat="45.9317980" lon="9.5803830">
	<ele>1264.60</ele>
	<time>2023-10-07T06:21:43.000Z</time>
</trkpt>
<trkpt lat="45.9318000" lon="9.5803920">
	<ele>1264.60</ele>
	<time>2023-10-07T06:21:44.000Z</time>
</trkpt>
<trkpt lat="45.9318020" lon="9.5804090">
	<ele>1264.60</ele>
	<time>2023-10-07T06:21:45.000Z</time>
</trkpt>
<trkpt lat="45.9318040" lon="9.5804350">
	<ele>1264.60</ele>
	<time>2023-10-07T06:21:46.000Z</time>
</trkpt>
<trkpt lat="45.9318060" lon="9.5804530">
	<ele>1264.60</ele>
	<time>2023-10-07T06:21:47.000Z</time>
</trkpt>
<trkpt lat="45.9318070" lon="9.5804800">
	<ele>1264.60</ele>
	<time>2023-10-07T06:21:48.000Z</time>
</trkpt>
<trkpt lat="45.9318090" lon="9.5804970">
	<ele>1264.60</ele>
	<time>2023-10-07T06:21:49.000Z</time>
</trkpt>
<trkpt lat="45.9318110" lon="9.5805080">
	<ele>1264.60</ele>
	<time>2023-10-07T06:21:50.000Z</time>
</trkpt>
<trkpt lat="45.9318150" lon="9.5805250">
	<ele>1264.60</ele>
	<time>2023-10-07T06:21:51.000Z</time>
</trkpt>
<trkpt lat="45.9318170" lon="9.5805380">
	<ele>1264.60</ele>
	<time>2023-10-07T06:21:52.000Z</time>
</trkpt>
<trkpt lat="45.9318140" lon="9.5805660">
	<ele>1264.60</ele>
	<time>2023-10-07T06:21:53.000Z</time>
</trkpt>
<trkpt lat="45.9318150" lon="9.5805890">
	<ele>1264.80</ele>
	<time>2023-10-07T06:21:54.000Z</time>
</trkpt>
<trkpt lat="45.9318190" lon="9.5805860">
	<ele>1264.80</ele>
	<time>2023-10-07T06:21:55.000Z</time>
</trkpt>
<trkpt lat="45.9318210" lon="9.5805910">
	<ele>1265.00</ele>
	<time>2023-10-07T06:21:56.000Z</time>
</trkpt>
<trkpt lat="45.9318280" lon="9.5805870">
	<ele>1265.20</ele>
	<time>2023-10-07T06:21:57.000Z</time>
</trkpt>
<trkpt lat="45.9318370" lon="9.5805900">
	<ele>1265.20</ele>
	<time>2023-10-07T06:21:58.000Z</time>
</trkpt>
<trkpt lat="45.9318450" lon="9.5805980">
	<ele>1265.20</ele>
	<time>2023-10-07T06:21:59.000Z</time>
</trkpt>
<trkpt lat="45.9318490" lon="9.5805980">
	<ele>1265.40</ele>
	<time>2023-10-07T06:22:00.000Z</time>
</trkpt>
<trkpt lat="45.9318570" lon="9.5806120">
	<ele>1265.40</ele>
	<time>2023-10-07T06:22:01.000Z</time>
</trkpt>
<trkpt lat="45.9318760" lon="9.5806120">
	<ele>1265.40</ele>
	<time>2023-10-07T06:22:02.000Z</time>
</trkpt>
<trkpt lat="45.9318870" lon="9.5806260">
	<ele>1265.60</ele>
	<time>2023-10-07T06:22:03.000Z</time>
</trkpt>
<trkpt lat="45.9318970" lon="9.5806320">
	<ele>1265.80</ele>
	<time>2023-10-07T06:22:04.000Z</time>
</trkpt>
<trkpt lat="45.9319050" lon="9.5806510">
	<ele>1265.80</ele>
	<time>2023-10-07T06:22:05.000Z</time>
</trkpt>
<trkpt lat="45.9319120" lon="9.5806630">
	<ele>1266.00</ele>
	<time>2023-10-07T06:22:06.000Z</time>
</trkpt>
<trkpt lat="45.9319210" lon="9.5806830">
	<ele>1266.00</ele>
	<time>2023-10-07T06:22:07.000Z</time>
</trkpt>
<trkpt lat="45.9319310" lon="9.5807010">
	<ele>1266.20</ele>
	<time>2023-10-07T06:22:08.000Z</time>
</trkpt>
<trkpt lat="45.9319370" lon="9.5807130">
	<ele>1266.20</ele>
	<time>2023-10-07T06:22:09.000Z</time>
</trkpt>
<trkpt lat="45.9319500" lon="9.5807040">
	<ele>1266.40</ele>
	<time>2023-10-07T06:22:10.000Z</time>
</trkpt>
<trkpt lat="45.9319570" lon="9.5807190">
	<ele>1266.60</ele>
	<time>2023-10-07T06:22:11.000Z</time>
</trkpt>
<trkpt lat="45.9319580" lon="9.5807460">
	<ele>1266.80</ele>
	<time>2023-10-07T06:22:12.000Z</time>
</trkpt>
<trkpt lat="45.9319590" lon="9.5807730">
	<ele>1267.00</ele>
	<time>2023-10-07T06:22:13.000Z</time>
</trkpt>
<trkpt lat="45.9319650" lon="9.5807860">
	<ele>1267.00</ele>
	<time>2023-10-07T06:22:14.000Z</time>
</trkpt>
<trkpt lat="45.9319730" lon="9.5808000">
	<ele>1267.20</ele>
	<time>2023-10-07T06:22:15.000Z</time>
</trkpt>
<trkpt lat="45.9319830" lon="9.5808080">
	<ele>1267.40</ele>
	<time>2023-10-07T06:22:16.000Z</time>
</trkpt>
<trkpt lat="45.9319920" lon="9.5808160">
	<ele>1267.60</ele>
	<time>2023-10-07T06:22:17.000Z</time>
</trkpt>
<trkpt lat="45.9319970" lon="9.5808340">
	<ele>1267.60</ele>
	<time>2023-10-07T06:22:18.000Z</time>
</trkpt>
<trkpt lat="45.9320030" lon="9.5808520">
	<ele>1267.80</ele>
	<time>2023-10-07T06:22:19.000Z</time>
</trkpt>
<trkpt lat="45.9320080" lon="9.5808730">
	<ele>1268.20</ele>
	<time>2023-10-07T06:22:21.000Z</time>
</trkpt>
<trkpt lat="45.9320140" lon="9.5808690">
	<ele>1268.40</ele>
	<time>2023-10-07T06:22:22.000Z</time>
</trkpt>
<trkpt lat="45.9320140" lon="9.5808840">
	<ele>1268.40</ele>
	<time>2023-10-07T06:22:23.000Z</time>
</trkpt>
<trkpt lat="45.9320160" lon="9.5808910">
	<ele>1268.40</ele>
	<time>2023-10-07T06:22:24.000Z</time>
</trkpt>
<trkpt lat="45.9320210" lon="9.5809000">
	<ele>1268.60</ele>
	<time>2023-10-07T06:22:25.000Z</time>
</trkpt>
<trkpt lat="45.9320230" lon="9.5809150">
	<ele>1268.60</ele>
	<time>2023-10-07T06:22:26.000Z</time>
</trkpt>
<trkpt lat="45.9320280" lon="9.5809220">
	<ele>1268.60</ele>
	<time>2023-10-07T06:22:27.000Z</time>
</trkpt>
<trkpt lat="45.9320290" lon="9.5809360">
	<ele>1268.60</ele>
	<time>2023-10-07T06:22:28.000Z</time>
</trkpt>
<trkpt lat="45.9320300" lon="9.5809560">
	<ele>1268.60</ele>
	<time>2023-10-07T06:22:29.000Z</time>
</trkpt>
<trkpt lat="45.9320350" lon="9.5809710">
	<ele>1268.60</ele>
	<time>2023-10-07T06:22:30.000Z</time>
</trkpt>
<trkpt lat="45.9320370" lon="9.5809870">
	<ele>1268.60</ele>
	<time>2023-10-07T06:22:31.000Z</time>
</trkpt>
<trkpt lat="45.9320370" lon="9.5810080">
	<ele>1268.40</ele>
	<time>2023-10-07T06:22:32.000Z</time>
</trkpt>
<trkpt lat="45.9320370" lon="9.5810150">
	<ele>1268.40</ele>
	<time>2023-10-07T06:22:33.000Z</time>
</trkpt>
<trkpt lat="45.9320380" lon="9.5810270">
	<ele>1268.40</ele>
	<time>2023-10-07T06:22:34.000Z</time>
</trkpt>
<trkpt lat="45.9320430" lon="9.5810220">
	<ele>1268.20</ele>
	<time>2023-10-07T06:22:35.000Z</time>
</trkpt>
<trkpt lat="45.9320430" lon="9.5810170">
	<ele>1268.20</ele>
	<time>2023-10-07T06:22:36.000Z</time>
</trkpt>
<trkpt lat="45.9320410" lon="9.5810130">
	<ele>1268.20</ele>
	<time>2023-10-07T06:22:37.000Z</time>
</trkpt>
<trkpt lat="45.9320390" lon="9.5810250">
	<ele>1268.20</ele>
	<time>2023-10-07T06:22:38.000Z</time>
</trkpt>
<trkpt lat="45.9320390" lon="9.5810250">
	<ele>1268.20</ele>
	<time>2023-10-07T06:22:39.000Z</time>
</trkpt>
<trkpt lat="45.9320360" lon="9.5810250">
	<ele>1268.20</ele>
	<time>2023-10-07T06:22:40.000Z</time>
</trkpt>
<trkpt lat="45.9320320" lon="9.5810390">
	<ele>1268.20</ele>
	<time>2023-10-07T06:22:41.000Z</time>
</trkpt>
<trkpt lat="45.9320350" lon="9.5810630">
	<ele>1268.20</ele>
	<time>2023-10-07T06:22:42.000Z</time>
</trkpt>
<trkpt lat="45.9320390" lon="9.5810830">
	<ele>1268.40</ele>
	<time>2023-10-07T06:22:43.000Z</time>
</trkpt>
<trkpt lat="45.9320370" lon="9.5811100">
	<ele>1268.40</ele>
	<time>2023-10-07T06:22:44.000Z</time>
</trkpt>
<trkpt lat="45.9320360" lon="9.5811350">
	<ele>1268.40</ele>
	<time>2023-10-07T06:22:45.000Z</time>
</trkpt>
<trkpt lat="45.9320380" lon="9.5811630">
	<ele>1268.40</ele>
	<time>2023-10-07T06:22:46.000Z</time>
</trkpt>
<trkpt lat="45.9320400" lon="9.5811770">
	<ele>1268.40</ele>
	<time>2023-10-07T06:22:47.000Z</time>
</trkpt>
<trkpt lat="45.9320450" lon="9.5811830">
	<ele>1268.40</ele>
	<time>2023-10-07T06:22:48.000Z</time>
</trkpt>
<trkpt lat="45.9320520" lon="9.5811840">
	<ele>1268.40</ele>
	<time>2023-10-07T06:22:49.000Z</time>
</trkpt>
<trkpt lat="45.9320540" lon="9.5811830">
	<ele>1268.40</ele>
	<time>2023-10-07T06:22:50.000Z</time>
</trkpt>
<trkpt lat="45.9320550" lon="9.5811830">
	<ele>1268.60</ele>
	<time>2023-10-07T06:22:51.000Z</time>
</trkpt>
<trkpt lat="45.9320590" lon="9.5811970">
	<ele>1268.60</ele>
	<time>2023-10-07T06:22:52.000Z</time>
</trkpt>
<trkpt lat="45.9320620" lon="9.5812020">
	<ele>1268.80</ele>
	<time>2023-10-07T06:22:53.000Z</time>
</trkpt>
<trkpt lat="45.9320700" lon="9.5812060">
	<ele>1268.80</ele>
	<time>2023-10-07T06:22:54.000Z</time>
</trkpt>
<trkpt lat="45.9320780" lon="9.5812210">
	<ele>1268.80</ele>
	<time>2023-10-07T06:22:55.000Z</time>
</trkpt>
<trkpt lat="45.9320830" lon="9.5812400">
	<ele>1268.80</ele>
	<time>2023-10-07T06:22:56.000Z</time>
</trkpt>
<trkpt lat="45.9320890" lon="9.5812570">
	<ele>1268.80</ele>
	<time>2023-10-07T06:22:57.000Z</time>
</trkpt>
<trkpt lat="45.9320960" lon="9.5812760">
	<ele>1269.00</ele>
	<time>2023-10-07T06:22:58.000Z</time>
</trkpt>
<trkpt lat="45.9321000" lon="9.5812790">
	<ele>1269.00</ele>
	<time>2023-10-07T06:22:59.000Z</time>
</trkpt>
<trkpt lat="45.9321030" lon="9.5812890">
	<ele>1269.20</ele>
	<time>2023-10-07T06:23:00.000Z</time>
</trkpt>
<trkpt lat="45.9321050" lon="9.5813060">
	<ele>1269.20</ele>
	<time>2023-10-07T06:23:01.000Z</time>
</trkpt>
<trkpt lat="45.9321090" lon="9.5813290">
	<ele>1269.20</ele>
	<time>2023-10-07T06:23:02.000Z</time>
</trkpt>
<trkpt lat="45.9321190" lon="9.5813460">
	<ele>1269.20</ele>
	<time>2023-10-07T06:23:03.000Z</time>
</trkpt>
<trkpt lat="45.9321300" lon="9.5813640">
	<ele>1269.20</ele>
	<time>2023-10-07T06:23:04.000Z</time>
</trkpt>
<trkpt lat="45.9321440" lon="9.5813680">
	<ele>1269.20</ele>
	<time>2023-10-07T06:23:05.000Z</time>
</trkpt>
<trkpt lat="45.9321580" lon="9.5813680">
	<ele>1269.20</ele>
	<time>2023-10-07T06:23:06.000Z</time>
</trkpt>
<trkpt lat="45.9321720" lon="9.5813700">
	<ele>1269.40</ele>
	<time>2023-10-07T06:23:07.000Z</time>
</trkpt>
<trkpt lat="45.9321810" lon="9.5813800">
	<ele>1269.40</ele>
	<time>2023-10-07T06:23:08.000Z</time>
</trkpt>
<trkpt lat="45.9321870" lon="9.5814040">
	<ele>1269.40</ele>
	<time>2023-10-07T06:23:09.000Z</time>
</trkpt>
<trkpt lat="45.9321920" lon="9.5814290">
	<ele>1269.60</ele>
	<time>2023-10-07T06:23:10.000Z</time>
</trkpt>
<trkpt lat="45.9321970" lon="9.5814470">
	<ele>1269.60</ele>
	<time>2023-10-07T06:23:11.000Z</time>
</trkpt>
<trkpt lat="45.9321990" lon="9.5814680">
	<ele>1269.80</ele>
	<time>2023-10-07T06:23:12.000Z</time>
</trkpt>
<trkpt lat="45.9322030" lon="9.5814780">
	<ele>1269.80</ele>
	<time>2023-10-07T06:23:13.000Z</time>
</trkpt>
<trkpt lat="45.9322060" lon="9.5814810">
	<ele>1269.80</ele>
	<time>2023-10-07T06:23:14.000Z</time>
</trkpt>
<trkpt lat="45.9322140" lon="9.5814930">
	<ele>1269.80</ele>
	<time>2023-10-07T06:23:15.000Z</time>
</trkpt>
<trkpt lat="45.9322290" lon="9.5814950">
	<ele>1269.60</ele>
	<time>2023-10-07T06:23:16.000Z</time>
</trkpt>
<trkpt lat="45.9322370" lon="9.5815190">
	<ele>1269.60</ele>
	<time>2023-10-07T06:23:17.000Z</time>
</trkpt>
<trkpt lat="45.9322420" lon="9.5815600">
	<ele>1269.60</ele>
	<time>2023-10-07T06:23:18.000Z</time>
</trkpt>
<trkpt lat="45.9322530" lon="9.5815850">
	<ele>1269.60</ele>
	<time>2023-10-07T06:23:19.000Z</time>
</trkpt>
<trkpt lat="45.9322620" lon="9.5816000">
	<ele>1269.60</ele>
	<time>2023-10-07T06:23:20.000Z</time>
</trkpt>
<trkpt lat="45.9322720" lon="9.5816170">
	<ele>1269.60</ele>
	<time>2023-10-07T06:23:21.000Z</time>
</trkpt>
<trkpt lat="45.9322870" lon="9.5816300">
	<ele>1269.60</ele>
	<time>2023-10-07T06:23:22.000Z</time>
</trkpt>
<trkpt lat="45.9322980" lon="9.5816390">
	<ele>1269.60</ele>
	<time>2023-10-07T06:23:23.000Z</time>
</trkpt>
<trkpt lat="45.9322990" lon="9.5816630">
	<ele>1269.60</ele>
	<time>2023-10-07T06:23:24.000Z</time>
</trkpt>
<trkpt lat="45.9322970" lon="9.5816860">
	<ele>1269.60</ele>
	<time>2023-10-07T06:23:25.000Z</time>
</trkpt>
<trkpt lat="45.9323060" lon="9.5817070">
	<ele>1269.60</ele>
	<time>2023-10-07T06:23:26.000Z</time>
</trkpt>
<trkpt lat="45.9323120" lon="9.5817360">
	<ele>1269.60</ele>
	<time>2023-10-07T06:23:28.000Z</time>
</trkpt>
<trkpt lat="45.9323230" lon="9.5817430">
	<ele>1269.40</ele>
	<time>2023-10-07T06:23:29.000Z</time>
</trkpt>
<trkpt lat="45.9323350" lon="9.5817630">
	<ele>1269.40</ele>
	<time>2023-10-07T06:23:30.000Z</time>
</trkpt>
<trkpt lat="45.9323380" lon="9.5817900">
	<ele>1269.20</ele>
	<time>2023-10-07T06:23:31.000Z</time>
</trkpt>
<trkpt lat="45.9323400" lon="9.5818180">
	<ele>1269.20</ele>
	<time>2023-10-07T06:23:32.000Z</time>
</trkpt>
<trkpt lat="45.9323500" lon="9.5818390">
	<ele>1269.20</ele>
	<time>2023-10-07T06:23:33.000Z</time>
</trkpt>
<trkpt lat="45.9323590" lon="9.5818640">
	<ele>1269.20</ele>
	<time>2023-10-07T06:23:34.000Z</time>
</trkpt>
<trkpt lat="45.9323720" lon="9.5818560">
	<ele>1269.20</ele>
	<time>2023-10-07T06:23:35.000Z</time>
</trkpt>
<trkpt lat="45.9323800" lon="9.5818700">
	<ele>1269.20</ele>
	<time>2023-10-07T06:23:36.000Z</time>
</trkpt>
<trkpt lat="45.9323900" lon="9.5818810">
	<ele>1269.20</ele>
	<time>2023-10-07T06:23:37.000Z</time>
</trkpt>
<trkpt lat="45.9323980" lon="9.5819000">
	<ele>1269.20</ele>
	<time>2023-10-07T06:23:38.000Z</time>
</trkpt>
<trkpt lat="45.9324090" lon="9.5819150">
	<ele>1269.40</ele>
	<time>2023-10-07T06:23:39.000Z</time>
</trkpt>
<trkpt lat="45.9324180" lon="9.5819290">
	<ele>1269.40</ele>
	<time>2023-10-07T06:23:40.000Z</time>
</trkpt>
<trkpt lat="45.9324220" lon="9.5819290">
	<ele>1269.60</ele>
	<time>2023-10-07T06:23:41.000Z</time>
</trkpt>
<trkpt lat="45.9324320" lon="9.5819330">
	<ele>1269.80</ele>
	<time>2023-10-07T06:23:42.000Z</time>
</trkpt>
<trkpt lat="45.9324430" lon="9.5819260">
	<ele>1270.00</ele>
	<time>2023-10-07T06:23:43.000Z</time>
</trkpt>
<trkpt lat="45.9324540" lon="9.5819270">
	<ele>1270.20</ele>
	<time>2023-10-07T06:23:44.000Z</time>
</trkpt>
<trkpt lat="45.9324630" lon="9.5819300">
	<ele>1270.40</ele>
	<time>2023-10-07T06:23:45.000Z</time>
</trkpt>
<trkpt lat="45.9324680" lon="9.5819400">
	<ele>1270.60</ele>
	<time>2023-10-07T06:23:46.000Z</time>
</trkpt>
<trkpt lat="45.9324680" lon="9.5819610">
	<ele>1270.60</ele>
	<time>2023-10-07T06:23:47.000Z</time>
</trkpt>
<trkpt lat="45.9324690" lon="9.5819790">
	<ele>1270.80</ele>
	<time>2023-10-07T06:23:48.000Z</time>
</trkpt>
<trkpt lat="45.9324690" lon="9.5819980">
	<ele>1270.80</ele>
	<time>2023-10-07T06:23:49.000Z</time>
</trkpt>
<trkpt lat="45.9324690" lon="9.5820210">
	<ele>1271.20</ele>
	<time>2023-10-07T06:23:50.000Z</time>
</trkpt>
<trkpt lat="45.9324690" lon="9.5820440">
	<ele>1271.40</ele>
	<time>2023-10-07T06:23:51.000Z</time>
</trkpt>
<trkpt lat="45.9324670" lon="9.5820700">
	<ele>1271.60</ele>
	<time>2023-10-07T06:23:52.000Z</time>
</trkpt>
<trkpt lat="45.9324670" lon="9.5820920">
	<ele>1271.60</ele>
	<time>2023-10-07T06:23:53.000Z</time>
</trkpt>
<trkpt lat="45.9324700" lon="9.5821080">
	<ele>1271.80</ele>
	<time>2023-10-07T06:23:54.000Z</time>
</trkpt>
<trkpt lat="45.9324720" lon="9.5821230">
	<ele>1272.00</ele>
	<time>2023-10-07T06:23:55.000Z</time>
</trkpt>
<trkpt lat="45.9324770" lon="9.5821410">
	<ele>1272.00</ele>
	<time>2023-10-07T06:23:56.000Z</time>
</trkpt>
<trkpt lat="45.9324810" lon="9.5821550">
	<ele>1272.20</ele>
	<time>2023-10-07T06:23:57.000Z</time>
</trkpt>
<trkpt lat="45.9324840" lon="9.5821690">
	<ele>1272.80</ele>
	<time>2023-10-07T06:23:58.000Z</time>
</trkpt>
<trkpt lat="45.9324870" lon="9.5821770">
	<ele>1273.20</ele>
	<time>2023-10-07T06:23:59.000Z</time>
</trkpt>
<trkpt lat="45.9324910" lon="9.5821840">
	<ele>1273.20</ele>
	<time>2023-10-07T06:24:00.000Z</time>
</trkpt>
<trkpt lat="45.9324920" lon="9.5822020">
	<ele>1273.40</ele>
	<time>2023-10-07T06:24:01.000Z</time>
</trkpt>
<trkpt lat="45.9324930" lon="9.5822140">
	<ele>1273.60</ele>
	<time>2023-10-07T06:24:02.000Z</time>
</trkpt>
<trkpt lat="45.9324960" lon="9.5822280">
	<ele>1273.80</ele>
	<time>2023-10-07T06:24:03.000Z</time>
</trkpt>
<trkpt lat="45.9325030" lon="9.5822360">
	<ele>1274.00</ele>
	<time>2023-10-07T06:24:04.000Z</time>
</trkpt>
<trkpt lat="45.9325100" lon="9.5822410">
	<ele>1274.20</ele>
	<time>2023-10-07T06:24:05.000Z</time>
</trkpt>
<trkpt lat="45.9325120" lon="9.5822440">
	<ele>1274.20</ele>
	<time>2023-10-07T06:24:06.000Z</time>
</trkpt>
<trkpt lat="45.9325150" lon="9.5822100">
	<ele>1274.40</ele>
	<time>2023-10-07T06:24:07.000Z</time>
</trkpt>
<trkpt lat="45.9325180" lon="9.5822080">
	<ele>1274.60</ele>
	<time>2023-10-07T06:24:08.000Z</time>
</trkpt>
<trkpt lat="45.9325210" lon="9.5822030">
	<ele>1274.80</ele>
	<time>2023-10-07T06:24:09.000Z</time>
</trkpt>
<trkpt lat="45.9325290" lon="9.5821940">
	<ele>1275.00</ele>
	<time>2023-10-07T06:24:10.000Z</time>
</trkpt>
<trkpt lat="45.9325320" lon="9.5821910">
	<ele>1275.20</ele>
	<time>2023-10-07T06:24:11.000Z</time>
</trkpt>
<trkpt lat="45.9325340" lon="9.5821990">
	<ele>1275.20</ele>
	<time>2023-10-07T06:24:12.000Z</time>
</trkpt>
<trkpt lat="45.9325350" lon="9.5822050">
	<ele>1275.40</ele>
	<time>2023-10-07T06:24:13.000Z</time>
</trkpt>
<trkpt lat="45.9325370" lon="9.5822130">
	<ele>1275.40</ele>
	<time>2023-10-07T06:24:14.000Z</time>
</trkpt>
<trkpt lat="45.9325370" lon="9.5822230">
	<ele>1275.60</ele>
	<time>2023-10-07T06:24:15.000Z</time>
</trkpt>
<trkpt lat="45.9325380" lon="9.5822330">
	<ele>1275.80</ele>
	<time>2023-10-07T06:24:16.000Z</time>
</trkpt>
<trkpt lat="45.9325390" lon="9.5822450">
	<ele>1275.80</ele>
	<time>2023-10-07T06:24:17.000Z</time>
</trkpt>
<trkpt lat="45.9325410" lon="9.5822440">
	<ele>1276.00</ele>
	<time>2023-10-07T06:24:18.000Z</time>
</trkpt>
<trkpt lat="45.9325410" lon="9.5822610">
	<ele>1276.20</ele>
	<time>2023-10-07T06:24:19.000Z</time>
</trkpt>
<trkpt lat="45.9325400" lon="9.5822790">
	<ele>1276.60</ele>
	<time>2023-10-07T06:24:20.000Z</time>
</trkpt>
<trkpt lat="45.9325460" lon="9.5822810">
	<ele>1276.80</ele>
	<time>2023-10-07T06:24:21.000Z</time>
</trkpt>
<trkpt lat="45.9325570" lon="9.5822770">
	<ele>1277.00</ele>
	<time>2023-10-07T06:24:22.000Z</time>
</trkpt>
<trkpt lat="45.9325600" lon="9.5822780">
	<ele>1277.20</ele>
	<time>2023-10-07T06:24:23.000Z</time>
</trkpt>
<trkpt lat="45.9325660" lon="9.5822900">
	<ele>1277.20</ele>
	<time>2023-10-07T06:24:24.000Z</time>
</trkpt>
<trkpt lat="45.9325680" lon="9.5822950">
	<ele>1277.20</ele>
	<time>2023-10-07T06:24:25.000Z</time>
</trkpt>
<trkpt lat="45.9325720" lon="9.5822910">
	<ele>1277.60</ele>
	<time>2023-10-07T06:24:26.000Z</time>
</trkpt>
<trkpt lat="45.9325800" lon="9.5822960">
	<ele>1278.00</ele>
	<time>2023-10-07T06:24:27.000Z</time>
</trkpt>
<trkpt lat="45.9325830" lon="9.5822960">
	<ele>1278.20</ele>
	<time>2023-10-07T06:24:28.000Z</time>
</trkpt>
<trkpt lat="45.9325810" lon="9.5822950">
	<ele>1278.20</ele>
	<time>2023-10-07T06:24:29.000Z</time>
</trkpt>
<trkpt lat="45.9325810" lon="9.5822990">
	<ele>1278.40</ele>
	<time>2023-10-07T06:24:30.000Z</time>
</trkpt>
<trkpt lat="45.9325830" lon="9.5823010">
	<ele>1278.40</ele>
	<time>2023-10-07T06:24:31.000Z</time>
</trkpt>
<trkpt lat="45.9325860" lon="9.5823110">
	<ele>1278.40</ele>
	<time>2023-10-07T06:24:32.000Z</time>
</trkpt>
<trkpt lat="45.9325850" lon="9.5823140">
	<ele>1278.40</ele>
	<time>2023-10-07T06:24:33.000Z</time>
</trkpt>
<trkpt lat="45.9325930" lon="9.5823130">
	<ele>1278.40</ele>
	<time>2023-10-07T06:24:34.000Z</time>
</trkpt>
<trkpt lat="45.9325940" lon="9.5823270">
	<ele>1278.40</ele>
	<time>2023-10-07T06:24:35.000Z</time>
</trkpt>
<trkpt lat="45.9325990" lon="9.5823370">
	<ele>1278.40</ele>
	<time>2023-10-07T06:24:36.000Z</time>
</trkpt>
<trkpt lat="45.9326030" lon="9.5823650">
	<ele>1278.40</ele>
	<time>2023-10-07T06:24:37.000Z</time>
</trkpt>
<trkpt lat="45.9326090" lon="9.5823730">
	<ele>1278.40</ele>
	<time>2023-10-07T06:24:38.000Z</time>
</trkpt>
<trkpt lat="45.9326150" lon="9.5823800">
	<ele>1278.40</ele>
	<time>2023-10-07T06:24:39.000Z</time>
</trkpt>
<trkpt lat="45.9326250" lon="9.5823910">
	<ele>1278.40</ele>
	<time>2023-10-07T06:24:40.000Z</time>
</trkpt>
<trkpt lat="45.9326350" lon="9.5823940">
	<ele>1278.20</ele>
	<time>2023-10-07T06:24:41.000Z</time>
</trkpt>
<trkpt lat="45.9326450" lon="9.5823960">
	<ele>1278.20</ele>
	<time>2023-10-07T06:24:42.000Z</time>
</trkpt>
<trkpt lat="45.9326590" lon="9.5823990">
	<ele>1278.20</ele>
	<time>2023-10-07T06:24:43.000Z</time>
</trkpt>
<trkpt lat="45.9326770" lon="9.5824030">
	<ele>1278.40</ele>
	<time>2023-10-07T06:24:44.000Z</time>
</trkpt>
<trkpt lat="45.9326920" lon="9.5824070">
	<ele>1278.40</ele>
	<time>2023-10-07T06:24:45.000Z</time>
</trkpt>
<trkpt lat="45.9327020" lon="9.5824140">
	<ele>1278.40</ele>
	<time>2023-10-07T06:24:46.000Z</time>
</trkpt>
<trkpt lat="45.9327060" lon="9.5824160">
	<ele>1278.60</ele>
	<time>2023-10-07T06:24:47.000Z</time>
</trkpt>
<trkpt lat="45.9327080" lon="9.5824170">
	<ele>1278.80</ele>
	<time>2023-10-07T06:24:48.000Z</time>
</trkpt>
<trkpt lat="45.9327090" lon="9.5824210">
	<ele>1278.80</ele>
	<time>2023-10-07T06:24:49.000Z</time>
</trkpt>
<trkpt lat="45.9327150" lon="9.5824280">
	<ele>1279.00</ele>
	<time>2023-10-07T06:24:50.000Z</time>
</trkpt>
<trkpt lat="45.9327210" lon="9.5824350">
	<ele>1279.00</ele>
	<time>2023-10-07T06:24:51.000Z</time>
</trkpt>
<trkpt lat="45.9327250" lon="9.5824460">
	<ele>1279.20</ele>
	<time>2023-10-07T06:24:52.000Z</time>
</trkpt>
<trkpt lat="45.9327230" lon="9.5824650">
	<ele>1279.40</ele>
	<time>2023-10-07T06:24:53.000Z</time>
</trkpt>
<trkpt lat="45.9327250" lon="9.5824460">
	<ele>1279.60</ele>
	<time>2023-10-07T06:24:54.000Z</time>
</trkpt>
<trkpt lat="45.9327260" lon="9.5824450">
	<ele>1279.80</ele>
	<time>2023-10-07T06:24:55.000Z</time>
</trkpt>
<trkpt lat="45.9327270" lon="9.5824450">
	<ele>1280.00</ele>
	<time>2023-10-07T06:24:56.000Z</time>
</trkpt>
<trkpt lat="45.9327390" lon="9.5824450">
	<ele>1280.20</ele>
	<time>2023-10-07T06:24:57.000Z</time>
</trkpt>
<trkpt lat="45.9327490" lon="9.5824320">
	<ele>1280.40</ele>
	<time>2023-10-07T06:24:58.000Z</time>
</trkpt>
<trkpt lat="45.9327540" lon="9.5824360">
	<ele>1280.40</ele>
	<time>2023-10-07T06:24:59.000Z</time>
</trkpt>
<trkpt lat="45.9327610" lon="9.5824400">
	<ele>1280.80</ele>
	<time>2023-10-07T06:25:00.000Z</time>
</trkpt>
<trkpt lat="45.9327670" lon="9.5824530">
	<ele>1280.80</ele>
	<time>2023-10-07T06:25:01.000Z</time>
</trkpt>
<trkpt lat="45.9327730" lon="9.5824640">
	<ele>1281.00</ele>
	<time>2023-10-07T06:25:02.000Z</time>
</trkpt>
<trkpt lat="45.9327780" lon="9.5824760">
	<ele>1281.00</ele>
	<time>2023-10-07T06:25:03.000Z</time>
</trkpt>
<trkpt lat="45.9327820" lon="9.5825000">
	<ele>1281.00</ele>
	<time>2023-10-07T06:25:04.000Z</time>
</trkpt>
<trkpt lat="45.9327840" lon="9.5825270">
	<ele>1281.20</ele>
	<time>2023-10-07T06:25:05.000Z</time>
</trkpt>
<trkpt lat="45.9327880" lon="9.5825390">
	<ele>1281.20</ele>
	<time>2023-10-07T06:25:06.000Z</time>
</trkpt>
<trkpt lat="45.9327870" lon="9.5825710">
	<ele>1281.20</ele>
	<time>2023-10-07T06:25:07.000Z</time>
</trkpt>
<trkpt lat="45.9327910" lon="9.5825920">
	<ele>1281.20</ele>
	<time>2023-10-07T06:25:08.000Z</time>
</trkpt>
<trkpt lat="45.9328020" lon="9.5825990">
	<ele>1281.20</ele>
	<time>2023-10-07T06:25:09.000Z</time>
</trkpt>
<trkpt lat="45.9328110" lon="9.5826130">
	<ele>1281.20</ele>
	<time>2023-10-07T06:25:10.000Z</time>
</trkpt>
<trkpt lat="45.9328210" lon="9.5826310">
	<ele>1281.20</ele>
	<time>2023-10-07T06:25:11.000Z</time>
</trkpt>
<trkpt lat="45.9328310" lon="9.5826370">
	<ele>1281.40</ele>
	<time>2023-10-07T06:25:12.000Z</time>
</trkpt>
<trkpt lat="45.9328420" lon="9.5826390">
	<ele>1281.60</ele>
	<time>2023-10-07T06:25:13.000Z</time>
</trkpt>
<trkpt lat="45.9328460" lon="9.5826350">
	<ele>1281.80</ele>
	<time>2023-10-07T06:25:14.000Z</time>
</trkpt>
<trkpt lat="45.9328490" lon="9.5826360">
	<ele>1281.80</ele>
	<time>2023-10-07T06:25:15.000Z</time>
</trkpt>
<trkpt lat="45.9328500" lon="9.5826400">
	<ele>1281.80</ele>
	<time>2023-10-07T06:25:16.000Z</time>
</trkpt>
<trkpt lat="45.9328510" lon="9.5826420">
	<ele>1281.60</ele>
	<time>2023-10-07T06:25:17.000Z</time>
</trkpt>
<trkpt lat="45.9328570" lon="9.5826410">
	<ele>1281.40</ele>
	<time>2023-10-07T06:25:18.000Z</time>
</trkpt>
<trkpt lat="45.9328680" lon="9.5826500">
	<ele>1281.40</ele>
	<time>2023-10-07T06:25:19.000Z</time>
</trkpt>
<trkpt lat="45.9328780" lon="9.5826650">
	<ele>1281.20</ele>
	<time>2023-10-07T06:25:20.000Z</time>
</trkpt>
<trkpt lat="45.9328810" lon="9.5826850">
	<ele>1281.20</ele>
	<time>2023-10-07T06:25:21.000Z</time>
</trkpt>
<trkpt lat="45.9328870" lon="9.5827070">
	<ele>1281.20</ele>
	<time>2023-10-07T06:25:22.000Z</time>
</trkpt>
<trkpt lat="45.9328900" lon="9.5827130">
	<ele>1281.20</ele>
	<time>2023-10-07T06:25:23.000Z</time>
</trkpt>
<trkpt lat="45.9328940" lon="9.5827160">
	<ele>1281.20</ele>
	<time>2023-10-07T06:25:24.000Z</time>
</trkpt>
<trkpt lat="45.9328990" lon="9.5827340">
	<ele>1281.20</ele>
	<time>2023-10-07T06:25:25.000Z</time>
</trkpt>
<trkpt lat="45.9329010" lon="9.5827400">
	<ele>1281.40</ele>
	<time>2023-10-07T06:25:26.000Z</time>
</trkpt>
<trkpt lat="45.9329080" lon="9.5827520">
	<ele>1281.40</ele>
	<time>2023-10-07T06:25:27.000Z</time>
</trkpt>
<trkpt lat="45.9329130" lon="9.5827710">
	<ele>1281.60</ele>
	<time>2023-10-07T06:25:28.000Z</time>
</trkpt>
<trkpt lat="45.9329170" lon="9.5827870">
	<ele>1281.60</ele>
	<time>2023-10-07T06:25:29.000Z</time>
</trkpt>
<trkpt lat="45.9329250" lon="9.5828000">
	<ele>1281.80</ele>
	<time>2023-10-07T06:25:30.000Z</time>
</trkpt>
<trkpt lat="45.9329330" lon="9.5828210">
	<ele>1281.80</ele>
	<time>2023-10-07T06:25:31.000Z</time>
</trkpt>
<trkpt lat="45.9329390" lon="9.5828390">
	<ele>1282.00</ele>
	<time>2023-10-07T06:25:32.000Z</time>
</trkpt>
<trkpt lat="45.9329380" lon="9.5828610">
	<ele>1282.00</ele>
	<time>2023-10-07T06:25:33.000Z</time>
</trkpt>
<trkpt lat="45.9329380" lon="9.5828840">
	<ele>1282.20</ele>
	<time>2023-10-07T06:25:34.000Z</time>
</trkpt>
<trkpt lat="45.9329410" lon="9.5828910">
	<ele>1282.40</ele>
	<time>2023-10-07T06:25:35.000Z</time>
</trkpt>
<trkpt lat="45.9329450" lon="9.5828890">
	<ele>1282.40</ele>
	<time>2023-10-07T06:25:36.000Z</time>
</trkpt>
<trkpt lat="45.9329530" lon="9.5828880">
	<ele>1282.60</ele>
	<time>2023-10-07T06:25:37.000Z</time>
</trkpt>
<trkpt lat="45.9329620" lon="9.5828990">
	<ele>1282.80</ele>
	<time>2023-10-07T06:25:38.000Z</time>
</trkpt>
<trkpt lat="45.9329690" lon="9.5829140">
	<ele>1282.80</ele>
	<time>2023-10-07T06:25:39.000Z</time>
</trkpt>
<trkpt lat="45.9329720" lon="9.5829340">
	<ele>1283.00</ele>
	<time>2023-10-07T06:25:40.000Z</time>
</trkpt>
<trkpt lat="45.9329720" lon="9.5829400">
	<ele>1283.20</ele>
	<time>2023-10-07T06:25:41.000Z</time>
</trkpt>
<trkpt lat="45.9329740" lon="9.5829590">
	<ele>1283.20</ele>
	<time>2023-10-07T06:25:42.000Z</time>
</trkpt>
<trkpt lat="45.9329770" lon="9.5829650">
	<ele>1283.40</ele>
	<time>2023-10-07T06:25:43.000Z</time>
</trkpt>
<trkpt lat="45.9329800" lon="9.5829690">
	<ele>1283.60</ele>
	<time>2023-10-07T06:25:44.000Z</time>
</trkpt>
<trkpt lat="45.9329880" lon="9.5829780">
	<ele>1283.80</ele>
	<time>2023-10-07T06:25:45.000Z</time>
</trkpt>
<trkpt lat="45.9329880" lon="9.5829980">
	<ele>1283.80</ele>
	<time>2023-10-07T06:25:46.000Z</time>
</trkpt>
<trkpt lat="45.9329950" lon="9.5830140">
	<ele>1284.00</ele>
	<time>2023-10-07T06:25:47.000Z</time>
</trkpt>
<trkpt lat="45.9330010" lon="9.5830330">
	<ele>1284.20</ele>
	<time>2023-10-07T06:25:48.000Z</time>
</trkpt>
<trkpt lat="45.9330070" lon="9.5830390">
	<ele>1284.40</ele>
	<time>2023-10-07T06:25:49.000Z</time>
</trkpt>
<trkpt lat="45.9330110" lon="9.5830410">
	<ele>1284.60</ele>
	<time>2023-10-07T06:25:50.000Z</time>
</trkpt>
<trkpt lat="45.9330200" lon="9.5830470">
	<ele>1284.60</ele>
	<time>2023-10-07T06:25:51.000Z</time>
</trkpt>
<trkpt lat="45.9330270" lon="9.5830590">
	<ele>1284.80</ele>
	<time>2023-10-07T06:25:52.000Z</time>
</trkpt>
<trkpt lat="45.9330310" lon="9.5830630">
	<ele>1284.80</ele>
	<time>2023-10-07T06:25:53.000Z</time>
</trkpt>
<trkpt lat="45.9330360" lon="9.5830750">
	<ele>1285.00</ele>
	<time>2023-10-07T06:25:54.000Z</time>
</trkpt>
<trkpt lat="45.9330440" lon="9.5830880">
	<ele>1285.20</ele>
	<time>2023-10-07T06:25:55.000Z</time>
</trkpt>
<trkpt lat="45.9330530" lon="9.5830940">
	<ele>1285.40</ele>
	<time>2023-10-07T06:25:56.000Z</time>
</trkpt>
<trkpt lat="45.9330670" lon="9.5830900">
	<ele>1285.60</ele>
	<time>2023-10-07T06:25:57.000Z</time>
</trkpt>
<trkpt lat="45.9330780" lon="9.5830860">
	<ele>1285.80</ele>
	<time>2023-10-07T06:25:58.000Z</time>
</trkpt>
<trkpt lat="45.9330850" lon="9.5831020">
	<ele>1285.80</ele>
	<time>2023-10-07T06:25:59.000Z</time>
</trkpt>
<trkpt lat="45.9330910" lon="9.5831190">
	<ele>1286.00</ele>
	<time>2023-10-07T06:26:00.000Z</time>
</trkpt>
<trkpt lat="45.9331000" lon="9.5831340">
	<ele>1286.20</ele>
	<time>2023-10-07T06:26:01.000Z</time>
</trkpt>
<trkpt lat="45.9331130" lon="9.5831400">
	<ele>1286.20</ele>
	<time>2023-10-07T06:26:02.000Z</time>
</trkpt>
<trkpt lat="45.9331240" lon="9.5831490">
	<ele>1286.40</ele>
	<time>2023-10-07T06:26:03.000Z</time>
</trkpt>
<trkpt lat="45.9331370" lon="9.5831490">
	<ele>1286.60</ele>
	<time>2023-10-07T06:26:04.000Z</time>
</trkpt>
<trkpt lat="45.9331510" lon="9.5831490">
	<ele>1286.60</ele>
	<time>2023-10-07T06:26:05.000Z</time>
</trkpt>
<trkpt lat="45.9331580" lon="9.5831530">
	<ele>1286.80</ele>
	<time>2023-10-07T06:26:06.000Z</time>
</trkpt>
<trkpt lat="45.9331630" lon="9.5831520">
	<ele>1287.00</ele>
	<time>2023-10-07T06:26:07.000Z</time>
</trkpt>
<trkpt lat="45.9331690" lon="9.5831540">
	<ele>1287.00</ele>
	<time>2023-10-07T06:26:08.000Z</time>
</trkpt>
<trkpt lat="45.9331730" lon="9.5831620">
	<ele>1287.20</ele>
	<time>2023-10-07T06:26:09.000Z</time>
</trkpt>
<trkpt lat="45.9331750" lon="9.5831800">
	<ele>1287.40</ele>
	<time>2023-10-07T06:26:10.000Z</time>
</trkpt>
<trkpt lat="45.9331850" lon="9.5831890">
	<ele>1287.60</ele>
	<time>2023-10-07T06:26:11.000Z</time>
</trkpt>
<trkpt lat="45.9331920" lon="9.5831960">
	<ele>1287.60</ele>
	<time>2023-10-07T06:26:12.000Z</time>
</trkpt>
<trkpt lat="45.9332010" lon="9.5832050">
	<ele>1287.80</ele>
	<time>2023-10-07T06:26:13.000Z</time>
</trkpt>
<trkpt lat="45.9332120" lon="9.5832010">
	<ele>1288.00</ele>
	<time>2023-10-07T06:26:14.000Z</time>
</trkpt>
<trkpt lat="45.9332160" lon="9.5832250">
	<ele>1288.20</ele>
	<time>2023-10-07T06:26:15.000Z</time>
</trkpt>
<trkpt lat="45.9332200" lon="9.5832260">
	<ele>1288.20</ele>
	<time>2023-10-07T06:26:16.000Z</time>
</trkpt>
<trkpt lat="45.9332280" lon="9.5832370">
	<ele>1288.60</ele>
	<time>2023-10-07T06:26:17.000Z</time>
</trkpt>
<trkpt lat="45.9332320" lon="9.5832410">
	<ele>1288.60</ele>
	<time>2023-10-07T06:26:18.000Z</time>
</trkpt>
<trkpt lat="45.9332440" lon="9.5832390">
	<ele>1288.80</ele>
	<time>2023-10-07T06:26:19.000Z</time>
</trkpt>
<trkpt lat="45.9332470" lon="9.5832430">
	<ele>1288.80</ele>
	<time>2023-10-07T06:26:20.000Z</time>
</trkpt>
<trkpt lat="45.9332510" lon="9.5832450">
	<ele>1289.00</ele>
	<time>2023-10-07T06:26:21.000Z</time>
</trkpt>
<trkpt lat="45.9332650" lon="9.5832290">
	<ele>1289.00</ele>
	<time>2023-10-07T06:26:22.000Z</time>
</trkpt>
<trkpt lat="45.9332690" lon="9.5832350">
	<ele>1289.20</ele>
	<time>2023-10-07T06:26:23.000Z</time>
</trkpt>
<trkpt lat="45.9332720" lon="9.5832370">
	<ele>1289.40</ele>
	<time>2023-10-07T06:26:24.000Z</time>
</trkpt>
<trkpt lat="45.9332760" lon="9.5832520">
	<ele>1289.60</ele>
	<time>2023-10-07T06:26:25.000Z</time>
</trkpt>
<trkpt lat="45.9332790" lon="9.5832760">
	<ele>1289.60</ele>
	<time>2023-10-07T06:26:26.000Z</time>
</trkpt>
<trkpt lat="45.9332810" lon="9.5832970">
	<ele>1290.00</ele>
	<time>2023-10-07T06:26:27.000Z</time>
</trkpt>
<trkpt lat="45.9332880" lon="9.5833070">
	<ele>1290.00</ele>
	<time>2023-10-07T06:26:28.000Z</time>
</trkpt>
<trkpt lat="45.9332960" lon="9.5833100">
	<ele>1290.40</ele>
	<time>2023-10-07T06:26:29.000Z</time>
</trkpt>
<trkpt lat="45.9333060" lon="9.5833120">
	<ele>1290.40</ele>
	<time>2023-10-07T06:26:30.000Z</time>
</trkpt>
<trkpt lat="45.9333140" lon="9.5833130">
	<ele>1290.60</ele>
	<time>2023-10-07T06:26:31.000Z</time>
</trkpt>
<trkpt lat="45.9333230" lon="9.5833160">
	<ele>1290.80</ele>
	<time>2023-10-07T06:26:32.000Z</time>
</trkpt>
<trkpt lat="45.9333270" lon="9.5833270">
	<ele>1291.00</ele>
	<time>2023-10-07T06:26:33.000Z</time>
</trkpt>
<trkpt lat="45.9333320" lon="9.5833430">
	<ele>1291.00</ele>
	<time>2023-10-07T06:26:34.000Z</time>
</trkpt>
<trkpt lat="45.9333420" lon="9.5833520">
	<ele>1291.20</ele>
	<time>2023-10-07T06:26:35.000Z</time>
</trkpt>
<trkpt lat="45.9333480" lon="9.5833560">
	<ele>1291.40</ele>
	<time>2023-10-07T06:26:36.000Z</time>
</trkpt>
<trkpt lat="45.9333580" lon="9.5833650">
	<ele>1291.80</ele>
	<time>2023-10-07T06:26:37.000Z</time>
</trkpt>
<trkpt lat="45.9333680" lon="9.5833700">
	<ele>1292.00</ele>
	<time>2023-10-07T06:26:38.000Z</time>
</trkpt>
<trkpt lat="45.9333780" lon="9.5833870">
	<ele>1292.00</ele>
	<time>2023-10-07T06:26:39.000Z</time>
</trkpt>
<trkpt lat="45.9333880" lon="9.5834020">
	<ele>1292.20</ele>
	<time>2023-10-07T06:26:40.000Z</time>
</trkpt>
<trkpt lat="45.9333950" lon="9.5834120">
	<ele>1292.40</ele>
	<time>2023-10-07T06:26:41.000Z</time>
</trkpt>
<trkpt lat="45.9334060" lon="9.5834250">
	<ele>1292.40</ele>
	<time>2023-10-07T06:26:42.000Z</time>
</trkpt>
<trkpt lat="45.9334130" lon="9.5834410">
	<ele>1292.40</ele>
	<time>2023-10-07T06:26:43.000Z</time>
</trkpt>
<trkpt lat="45.9334210" lon="9.5834590">
	<ele>1292.60</ele>
	<time>2023-10-07T06:26:44.000Z</time>
</trkpt>
<trkpt lat="45.9334310" lon="9.5834770">
	<ele>1292.60</ele>
	<time>2023-10-07T06:26:45.000Z</time>
</trkpt>
<trkpt lat="45.9334410" lon="9.5834920">
	<ele>1292.60</ele>
	<time>2023-10-07T06:26:46.000Z</time>
</trkpt>
<trkpt lat="45.9334500" lon="9.5835090">
	<ele>1292.60</ele>
	<time>2023-10-07T06:26:47.000Z</time>
</trkpt>
<trkpt lat="45.9334580" lon="9.5835310">
	<ele>1292.60</ele>
	<time>2023-10-07T06:26:48.000Z</time>
</trkpt>
<trkpt lat="45.9334580" lon="9.5835570">
	<ele>1292.80</ele>
	<time>2023-10-07T06:26:49.000Z</time>
</trkpt>
<trkpt lat="45.9334590" lon="9.5835800">
	<ele>1292.80</ele>
	<time>2023-10-07T06:26:50.000Z</time>
</trkpt>
<trkpt lat="45.9334620" lon="9.5835850">
	<ele>1293.00</ele>
	<time>2023-10-07T06:26:51.000Z</time>
</trkpt>
<trkpt lat="45.9334620" lon="9.5835940">
	<ele>1293.20</ele>
	<time>2023-10-07T06:26:52.000Z</time>
</trkpt>
<trkpt lat="45.9334610" lon="9.5835940">
	<ele>1293.40</ele>
	<time>2023-10-07T06:26:53.000Z</time>
</trkpt>
<trkpt lat="45.9334600" lon="9.5836030">
	<ele>1293.60</ele>
	<time>2023-10-07T06:26:54.000Z</time>
</trkpt>
<trkpt lat="45.9334610" lon="9.5836040">
	<ele>1294.00</ele>
	<time>2023-10-07T06:26:55.000Z</time>
</trkpt>
<trkpt lat="45.9334590" lon="9.5836050">
	<ele>1294.20</ele>
	<time>2023-10-07T06:26:56.000Z</time>
</trkpt>
<trkpt lat="45.9334600" lon="9.5836080">
	<ele>1294.60</ele>
	<time>2023-10-07T06:26:57.000Z</time>
</trkpt>
<trkpt lat="45.9334610" lon="9.5836120">
	<ele>1294.60</ele>
	<time>2023-10-07T06:26:58.000Z</time>
</trkpt>
<trkpt lat="45.9334680" lon="9.5835920">
	<ele>1294.80</ele>
	<time>2023-10-07T06:26:59.000Z</time>
</trkpt>
<trkpt lat="45.9334670" lon="9.5836010">
	<ele>1295.00</ele>
	<time>2023-10-07T06:27:00.000Z</time>
</trkpt>
<trkpt lat="45.9334570" lon="9.5836370">
	<ele>1295.20</ele>
	<time>2023-10-07T06:27:01.000Z</time>
</trkpt>
<trkpt lat="45.9334540" lon="9.5836620">
	<ele>1295.40</ele>
	<time>2023-10-07T06:27:02.000Z</time>
</trkpt>
<trkpt lat="45.9334540" lon="9.5836830">
	<ele>1295.60</ele>
	<time>2023-10-07T06:27:03.000Z</time>
</trkpt>
<trkpt lat="45.9334560" lon="9.5837070">
	<ele>1295.80</ele>
	<time>2023-10-07T06:27:04.000Z</time>
</trkpt>
<trkpt lat="45.9334580" lon="9.5837290">
	<ele>1296.00</ele>
	<time>2023-10-07T06:27:05.000Z</time>
</trkpt>
<trkpt lat="45.9334550" lon="9.5837480">
	<ele>1296.20</ele>
	<time>2023-10-07T06:27:06.000Z</time>
</trkpt>
<trkpt lat="45.9334550" lon="9.5837720">
	<ele>1296.40</ele>
	<time>2023-10-07T06:27:07.000Z</time>
</trkpt>
<trkpt lat="45.9334670" lon="9.5837740">
	<ele>1296.40</ele>
	<time>2023-10-07T06:27:08.000Z</time>
</trkpt>
<trkpt lat="45.9334730" lon="9.5837840">
	<ele>1296.60</ele>
	<time>2023-10-07T06:27:09.000Z</time>
</trkpt>
<trkpt lat="45.9334800" lon="9.5837910">
	<ele>1296.80</ele>
	<time>2023-10-07T06:27:10.000Z</time>
</trkpt>
<trkpt lat="45.9334830" lon="9.5838030">
	<ele>1296.80</ele>
	<time>2023-10-07T06:27:11.000Z</time>
</trkpt>
<trkpt lat="45.9334810" lon="9.5838150">
	<ele>1297.00</ele>
	<time>2023-10-07T06:27:12.000Z</time>
</trkpt>
<trkpt lat="45.9334790" lon="9.5838290">
	<ele>1297.00</ele>
	<time>2023-10-07T06:27:13.000Z</time>
</trkpt>
<trkpt lat="45.9334810" lon="9.5838380">
	<ele>1297.20</ele>
	<time>2023-10-07T06:27:14.000Z</time>
</trkpt>
<trkpt lat="45.9334780" lon="9.5838550">
	<ele>1297.20</ele>
	<time>2023-10-07T06:27:15.000Z</time>
</trkpt>
<trkpt lat="45.9334770" lon="9.5838690">
	<ele>1297.40</ele>
	<time>2023-10-07T06:27:16.000Z</time>
</trkpt>
<trkpt lat="45.9334790" lon="9.5838820">
	<ele>1297.60</ele>
	<time>2023-10-07T06:27:17.000Z</time>
</trkpt>
<trkpt lat="45.9334800" lon="9.5838970">
	<ele>1297.60</ele>
	<time>2023-10-07T06:27:18.000Z</time>
</trkpt>
<trkpt lat="45.9334840" lon="9.5839130">
	<ele>1297.80</ele>
	<time>2023-10-07T06:27:19.000Z</time>
</trkpt>
<trkpt lat="45.9334880" lon="9.5839180">
	<ele>1298.00</ele>
	<time>2023-10-07T06:27:20.000Z</time>
</trkpt>
<trkpt lat="45.9334920" lon="9.5839260">
	<ele>1298.00</ele>
	<time>2023-10-07T06:27:21.000Z</time>
</trkpt>
<trkpt lat="45.9334970" lon="9.5839400">
	<ele>1298.20</ele>
	<time>2023-10-07T06:27:22.000Z</time>
</trkpt>
<trkpt lat="45.9334960" lon="9.5839600">
	<ele>1298.20</ele>
	<time>2023-10-07T06:27:23.000Z</time>
</trkpt>
<trkpt lat="45.9334970" lon="9.5839690">
	<ele>1298.40</ele>
	<time>2023-10-07T06:27:24.000Z</time>
</trkpt>
<trkpt lat="45.9334990" lon="9.5839860">
	<ele>1298.60</ele>
	<time>2023-10-07T06:27:25.000Z</time>
</trkpt>
<trkpt lat="45.9335020" lon="9.5839850">
	<ele>1298.80</ele>
	<time>2023-10-07T06:27:26.000Z</time>
</trkpt>
<trkpt lat="45.9335060" lon="9.5839890">
	<ele>1299.00</ele>
	<time>2023-10-07T06:27:27.000Z</time>
</trkpt>
<trkpt lat="45.9335170" lon="9.5839940">
	<ele>1299.20</ele>
	<time>2023-10-07T06:27:28.000Z</time>
</trkpt>
<trkpt lat="45.9335230" lon="9.5840040">
	<ele>1299.40</ele>
	<time>2023-10-07T06:27:29.000Z</time>
</trkpt>
<trkpt lat="45.9335270" lon="9.5840160">
	<ele>1299.40</ele>
	<time>2023-10-07T06:27:30.000Z</time>
</trkpt>
<trkpt lat="45.9335300" lon="9.5840310">
	<ele>1299.40</ele>
	<time>2023-10-07T06:27:31.000Z</time>
</trkpt>
<trkpt lat="45.9335350" lon="9.5840440">
	<ele>1299.40</ele>
	<time>2023-10-07T06:27:32.000Z</time>
</trkpt>
<trkpt lat="45.9335450" lon="9.5840480">
	<ele>1299.60</ele>
	<time>2023-10-07T06:27:33.000Z</time>
</trkpt>
<trkpt lat="45.9335560" lon="9.5840560">
	<ele>1299.60</ele>
	<time>2023-10-07T06:27:34.000Z</time>
</trkpt>
<trkpt lat="45.9335660" lon="9.5840640">
	<ele>1299.60</ele>
	<time>2023-10-07T06:27:35.000Z</time>
</trkpt>
<trkpt lat="45.9335690" lon="9.5840790">
	<ele>1299.60</ele>
	<time>2023-10-07T06:27:36.000Z</time>
</trkpt>
<trkpt lat="45.9335740" lon="9.5840910">
	<ele>1299.60</ele>
	<time>2023-10-07T06:27:37.000Z</time>
</trkpt>
<trkpt lat="45.9335770" lon="9.5841010">
	<ele>1299.80</ele>
	<time>2023-10-07T06:27:38.000Z</time>
</trkpt>
<trkpt lat="45.9335810" lon="9.5841160">
	<ele>1300.00</ele>
	<time>2023-10-07T06:27:39.000Z</time>
</trkpt>
<trkpt lat="45.9335860" lon="9.5841250">
	<ele>1300.00</ele>
	<time>2023-10-07T06:27:40.000Z</time>
</trkpt>
<trkpt lat="45.9335870" lon="9.5841330">
	<ele>1300.00</ele>
	<time>2023-10-07T06:27:41.000Z</time>
</trkpt>
<trkpt lat="45.9335920" lon="9.5841380">
	<ele>1300.20</ele>
	<time>2023-10-07T06:27:42.000Z</time>
</trkpt>
<trkpt lat="45.9335960" lon="9.5841480">
	<ele>1300.40</ele>
	<time>2023-10-07T06:27:43.000Z</time>
</trkpt>
<trkpt lat="45.9335950" lon="9.5841710">
	<ele>1300.80</ele>
	<time>2023-10-07T06:27:44.000Z</time>
</trkpt>
<trkpt lat="45.9335940" lon="9.5841960">
	<ele>1300.80</ele>
	<time>2023-10-07T06:27:45.000Z</time>
</trkpt>
<trkpt lat="45.9335960" lon="9.5842210">
	<ele>1301.00</ele>
	<time>2023-10-07T06:27:46.000Z</time>
</trkpt>
<trkpt lat="45.9336000" lon="9.5842290">
	<ele>1301.00</ele>
	<time>2023-10-07T06:27:47.000Z</time>
</trkpt>
<trkpt lat="45.9336060" lon="9.5842410">
	<ele>1301.40</ele>
	<time>2023-10-07T06:27:48.000Z</time>
</trkpt>
<trkpt lat="45.9336090" lon="9.5842560">
	<ele>1301.60</ele>
	<time>2023-10-07T06:27:49.000Z</time>
</trkpt>
<trkpt lat="45.9336160" lon="9.5842600">
	<ele>1301.80</ele>
	<time>2023-10-07T06:27:50.000Z</time>
</trkpt>
<trkpt lat="45.9336230" lon="9.5842710">
	<ele>1301.80</ele>
	<time>2023-10-07T06:27:51.000Z</time>
</trkpt>
<trkpt lat="45.9336190" lon="9.5842840">
	<ele>1302.00</ele>
	<time>2023-10-07T06:27:52.000Z</time>
</trkpt>
<trkpt lat="45.9336200" lon="9.5842800">
	<ele>1302.00</ele>
	<time>2023-10-07T06:27:53.000Z</time>
</trkpt>
<trkpt lat="45.9336170" lon="9.5842930">
	<ele>1302.20</ele>
	<time>2023-10-07T06:27:54.000Z</time>
</trkpt>
<trkpt lat="45.9336150" lon="9.5843000">
	<ele>1302.40</ele>
	<time>2023-10-07T06:27:55.000Z</time>
</trkpt>
<trkpt lat="45.9336140" lon="9.5843190">
	<ele>1302.60</ele>
	<time>2023-10-07T06:27:56.000Z</time>
</trkpt>
<trkpt lat="45.9336170" lon="9.5843230">
	<ele>1302.80</ele>
	<time>2023-10-07T06:27:57.000Z</time>
</trkpt>
<trkpt lat="45.9336170" lon="9.5843320">
	<ele>1303.00</ele>
	<time>2023-10-07T06:27:58.000Z</time>
</trkpt>
<trkpt lat="45.9336080" lon="9.5843580">
	<ele>1303.00</ele>
	<time>2023-10-07T06:27:59.000Z</time>
</trkpt>
<trkpt lat="45.9336140" lon="9.5843540">
	<ele>1303.20</ele>
	<time>2023-10-07T06:28:00.000Z</time>
</trkpt>
<trkpt lat="45.9336210" lon="9.5843550">
	<ele>1303.20</ele>
	<time>2023-10-07T06:28:01.000Z</time>
</trkpt>
<trkpt lat="45.9336260" lon="9.5843580">
	<ele>1303.20</ele>
	<time>2023-10-07T06:28:02.000Z</time>
</trkpt>
<trkpt lat="45.9336290" lon="9.5843730">
	<ele>1303.20</ele>
	<time>2023-10-07T06:28:03.000Z</time>
</trkpt>
<trkpt lat="45.9336380" lon="9.5843760">
	<ele>1303.40</ele>
	<time>2023-10-07T06:28:04.000Z</time>
</trkpt>
<trkpt lat="45.9336440" lon="9.5843860">
	<ele>1303.40</ele>
	<time>2023-10-07T06:28:05.000Z</time>
</trkpt>
<trkpt lat="45.9336450" lon="9.5844070">
	<ele>1303.40</ele>
	<time>2023-10-07T06:28:06.000Z</time>
</trkpt>
<trkpt lat="45.9336510" lon="9.5844280">
	<ele>1303.40</ele>
	<time>2023-10-07T06:28:07.000Z</time>
</trkpt>
<trkpt lat="45.9336530" lon="9.5844420">
	<ele>1303.60</ele>
	<time>2023-10-07T06:28:08.000Z</time>
</trkpt>
<trkpt lat="45.9336560" lon="9.5844580">
	<ele>1303.80</ele>
	<time>2023-10-07T06:28:09.000Z</time>
</trkpt>
<trkpt lat="45.9336600" lon="9.5844700">
	<ele>1303.80</ele>
	<time>2023-10-07T06:28:10.000Z</time>
</trkpt>
<trkpt lat="45.9336620" lon="9.5844840">
	<ele>1304.00</ele>
	<time>2023-10-07T06:28:11.000Z</time>
</trkpt>
<trkpt lat="45.9336600" lon="9.5845080">
	<ele>1304.00</ele>
	<time>2023-10-07T06:28:12.000Z</time>
</trkpt>
<trkpt lat="45.9336630" lon="9.5845200">
	<ele>1304.00</ele>
	<time>2023-10-07T06:28:13.000Z</time>
</trkpt>
<trkpt lat="45.9336610" lon="9.5845430">
	<ele>1304.00</ele>
	<time>2023-10-07T06:28:14.000Z</time>
</trkpt>
<trkpt lat="45.9336640" lon="9.5845540">
	<ele>1303.80</ele>
	<time>2023-10-07T06:28:15.000Z</time>
</trkpt>
<trkpt lat="45.9336660" lon="9.5845650">
	<ele>1303.60</ele>
	<time>2023-10-07T06:28:16.000Z</time>
</trkpt>
<trkpt lat="45.9336620" lon="9.5845890">
	<ele>1303.60</ele>
	<time>2023-10-07T06:28:17.000Z</time>
</trkpt>
<trkpt lat="45.9336640" lon="9.5846190">
	<ele>1303.40</ele>
	<time>2023-10-07T06:28:18.000Z</time>
</trkpt>
<trkpt lat="45.9336660" lon="9.5846430">
	<ele>1303.40</ele>
	<time>2023-10-07T06:28:19.000Z</time>
</trkpt>
<trkpt lat="45.9336680" lon="9.5846620">
	<ele>1303.40</ele>
	<time>2023-10-07T06:28:20.000Z</time>
</trkpt>
<trkpt lat="45.9336680" lon="9.5846730">
	<ele>1303.40</ele>
	<time>2023-10-07T06:28:21.000Z</time>
</trkpt>
<trkpt lat="45.9336660" lon="9.5846910">
	<ele>1303.40</ele>
	<time>2023-10-07T06:28:22.000Z</time>
</trkpt>
<trkpt lat="45.9336650" lon="9.5847110">
	<ele>1303.40</ele>
	<time>2023-10-07T06:28:23.000Z</time>
</trkpt>
<trkpt lat="45.9336640" lon="9.5847320">
	<ele>1303.40</ele>
	<time>2023-10-07T06:28:24.000Z</time>
</trkpt>
<trkpt lat="45.9336670" lon="9.5847390">
	<ele>1303.40</ele>
	<time>2023-10-07T06:28:25.000Z</time>
</trkpt>
<trkpt lat="45.9336740" lon="9.5847530">
	<ele>1303.40</ele>
	<time>2023-10-07T06:28:26.000Z</time>
</trkpt>
<trkpt lat="45.9336840" lon="9.5847600">
	<ele>1303.40</ele>
	<time>2023-10-07T06:28:27.000Z</time>
</trkpt>
<trkpt lat="45.9337020" lon="9.5847440">
	<ele>1303.40</ele>
	<time>2023-10-07T06:28:28.000Z</time>
</trkpt>
<trkpt lat="45.9337170" lon="9.5847420">
	<ele>1303.40</ele>
	<time>2023-10-07T06:28:29.000Z</time>
</trkpt>
<trkpt lat="45.9337210" lon="9.5847620">
	<ele>1303.40</ele>
	<time>2023-10-07T06:28:30.000Z</time>
</trkpt>
<trkpt lat="45.9337290" lon="9.5847780">
	<ele>1303.40</ele>
	<time>2023-10-07T06:28:31.000Z</time>
</trkpt>
<trkpt lat="45.9337310" lon="9.5847990">
	<ele>1303.20</ele>
	<time>2023-10-07T06:28:32.000Z</time>
</trkpt>
<trkpt lat="45.9337320" lon="9.5848050">
	<ele>1303.20</ele>
	<time>2023-10-07T06:28:33.000Z</time>
</trkpt>
<trkpt lat="45.9337340" lon="9.5848160">
	<ele>1303.20</ele>
	<time>2023-10-07T06:28:34.000Z</time>
</trkpt>
<trkpt lat="45.9337380" lon="9.5848090">
	<ele>1303.20</ele>
	<time>2023-10-07T06:28:35.000Z</time>
</trkpt>
<trkpt lat="45.9337400" lon="9.5848130">
	<ele>1303.20</ele>
	<time>2023-10-07T06:28:36.000Z</time>
</trkpt>
<trkpt lat="45.9337410" lon="9.5848140">
	<ele>1303.20</ele>
	<time>2023-10-07T06:28:37.000Z</time>
</trkpt>
<trkpt lat="45.9337400" lon="9.5848160">
	<ele>1303.20</ele>
	<time>2023-10-07T06:28:38.000Z</time>
</trkpt>
<trkpt lat="45.9337400" lon="9.5848160">
	<ele>1303.40</ele>
	<time>2023-10-07T06:28:39.000Z</time>
</trkpt>
<trkpt lat="45.9337400" lon="9.5848150">
	<ele>1303.60</ele>
	<time>2023-10-07T06:28:40.000Z</time>
</trkpt>
<trkpt lat="45.9337410" lon="9.5848120">
	<ele>1303.60</ele>
	<time>2023-10-07T06:28:41.000Z</time>
</trkpt>
<trkpt lat="45.9337390" lon="9.5848160">
	<ele>1303.80</ele>
	<time>2023-10-07T06:28:42.000Z</time>
</trkpt>
<trkpt lat="45.9337400" lon="9.5848150">
	<ele>1303.80</ele>
	<time>2023-10-07T06:28:43.000Z</time>
</trkpt>
<trkpt lat="45.9337390" lon="9.5848140">
	<ele>1303.80</ele>
	<time>2023-10-07T06:28:44.000Z</time>
</trkpt>
<trkpt lat="45.9337390" lon="9.5848110">
	<ele>1303.80</ele>
	<time>2023-10-07T06:28:45.000Z</time>
</trkpt>
<trkpt lat="45.9337390" lon="9.5848090">
	<ele>1303.80</ele>
	<time>2023-10-07T06:28:46.000Z</time>
</trkpt>
<trkpt lat="45.9337380" lon="9.5848110">
	<ele>1303.80</ele>
	<time>2023-10-07T06:28:47.000Z</time>
</trkpt>
<trkpt lat="45.9337380" lon="9.5848110">
	<ele>1303.80</ele>
	<time>2023-10-07T06:28:48.000Z</time>
</trkpt>
<trkpt lat="45.9337380" lon="9.5848110">
	<ele>1303.80</ele>
	<time>2023-10-07T06:28:49.000Z</time>
</trkpt>
<trkpt lat="45.9337380" lon="9.5848110">
	<ele>1303.40</ele>
	<time>2023-10-07T06:28:50.000Z</time>
</trkpt>
<trkpt lat="45.9337380" lon="9.5848110">
	<ele>1303.20</ele>
	<time>2023-10-07T06:28:51.000Z</time>
</trkpt>
<trkpt lat="45.9337380" lon="9.5848110">
	<ele>1303.00</ele>
	<time>2023-10-07T06:28:52.000Z</time>
</trkpt>
<trkpt lat="45.9337400" lon="9.5848130">
	<ele>1303.00</ele>
	<time>2023-10-07T06:28:53.000Z</time>
</trkpt>
<trkpt lat="45.9337420" lon="9.5848120">
	<ele>1303.00</ele>
	<time>2023-10-07T06:28:54.000Z</time>
</trkpt>
<trkpt lat="45.9337450" lon="9.5848140">
	<ele>1303.00</ele>
	<time>2023-10-07T06:28:55.000Z</time>
</trkpt>
<trkpt lat="45.9337450" lon="9.5848140">
	<ele>1303.00</ele>
	<time>2023-10-07T06:28:56.000Z</time>
</trkpt>
<trkpt lat="45.9337450" lon="9.5848140">
	<ele>1303.00</ele>
	<time>2023-10-07T06:28:57.000Z</time>
</trkpt>
<trkpt lat="45.9337450" lon="9.5848140">
	<ele>1303.00</ele>
	<time>2023-10-07T06:28:58.000Z</time>
</trkpt>
<trkpt lat="45.9337450" lon="9.5848140">
	<ele>1303.20</ele>
	<time>2023-10-07T06:28:59.000Z</time>
</trkpt>
<trkpt lat="45.9337450" lon="9.5848140">
	<ele>1303.40</ele>
	<time>2023-10-07T06:29:00.000Z</time>
</trkpt>
<trkpt lat="45.9337450" lon="9.5848140">
	<ele>1303.40</ele>
	<time>2023-10-07T06:29:01.000Z</time>
</trkpt>
<trkpt lat="45.9337450" lon="9.5848140">
	<ele>1303.60</ele>
	<time>2023-10-07T06:29:02.000Z</time>
</trkpt>
<trkpt lat="45.9337450" lon="9.5848140">
	<ele>1303.60</ele>
	<time>2023-10-07T06:29:03.000Z</time>
</trkpt>
<trkpt lat="45.9337450" lon="9.5848140">
	<ele>1303.40</ele>
	<time>2023-10-07T06:29:04.000Z</time>
</trkpt>
<trkpt lat="45.9337560" lon="9.5848140">
	<ele>1303.20</ele>
	<time>2023-10-07T06:29:05.000Z</time>
</trkpt>
<trkpt lat="45.9337590" lon="9.5848080">
	<ele>1303.00</ele>
	<time>2023-10-07T06:29:06.000Z</time>
</trkpt>
<trkpt lat="45.9337680" lon="9.5847950">
	<ele>1303.00</ele>
	<time>2023-10-07T06:29:07.000Z</time>
</trkpt>
<trkpt lat="45.9337740" lon="9.5847890">
	<ele>1302.80</ele>
	<time>2023-10-07T06:29:08.000Z</time>
</trkpt>
<trkpt lat="45.9337780" lon="9.5847830">
	<ele>1302.80</ele>
	<time>2023-10-07T06:29:09.000Z</time>
</trkpt>
<trkpt lat="45.9337830" lon="9.5847730">
	<ele>1302.80</ele>
	<time>2023-10-07T06:29:10.000Z</time>
</trkpt>
<trkpt lat="45.9337870" lon="9.5847680">
	<ele>1302.80</ele>
	<time>2023-10-07T06:29:11.000Z</time>
</trkpt>
<trkpt lat="45.9337910" lon="9.5847640">
	<ele>1302.80</ele>
	<time>2023-10-07T06:29:12.000Z</time>
</trkpt>
<trkpt lat="45.9337960" lon="9.5847580">
	<ele>1302.80</ele>
	<time>2023-10-07T06:29:13.000Z</time>
</trkpt>
<trkpt lat="45.9337820" lon="9.5847900">
	<ele>1303.00</ele>
	<time>2023-10-07T06:29:14.000Z</time>
</trkpt>
<trkpt lat="45.9337740" lon="9.5848060">
	<ele>1303.00</ele>
	<time>2023-10-07T06:29:15.000Z</time>
</trkpt>
<trkpt lat="45.9337720" lon="9.5848110">
	<ele>1303.00</ele>
	<time>2023-10-07T06:29:16.000Z</time>
</trkpt>
<trkpt lat="45.9337700" lon="9.5848140">
	<ele>1303.20</ele>
	<time>2023-10-07T06:29:17.000Z</time>
</trkpt>
<trkpt lat="45.9337680" lon="9.5848170">
	<ele>1303.40</ele>
	<time>2023-10-07T06:29:18.000Z</time>
</trkpt>
<trkpt lat="45.9337680" lon="9.5848210">
	<ele>1303.40</ele>
	<time>2023-10-07T06:29:19.000Z</time>
</trkpt>
<trkpt lat="45.9337680" lon="9.5848250">
	<ele>1303.40</ele>
	<time>2023-10-07T06:29:20.000Z</time>
</trkpt>
<trkpt lat="45.9337680" lon="9.5848260">
	<ele>1303.60</ele>
	<time>2023-10-07T06:29:21.000Z</time>
</trkpt>
<trkpt lat="45.9337680" lon="9.5848290">
	<ele>1303.60</ele>
	<time>2023-10-07T06:29:22.000Z</time>
</trkpt>
<trkpt lat="45.9337680" lon="9.5848310">
	<ele>1303.60</ele>
	<time>2023-10-07T06:29:23.000Z</time>
</trkpt>
<trkpt lat="45.9337680" lon="9.5848330">
	<ele>1303.40</ele>
	<time>2023-10-07T06:29:24.000Z</time>
</trkpt>
<trkpt lat="45.9337680" lon="9.5848350">
	<ele>1303.40</ele>
	<time>2023-10-07T06:29:25.000Z</time>
</trkpt>
<trkpt lat="45.9337680" lon="9.5848350">
	<ele>1303.20</ele>
	<time>2023-10-07T06:29:26.000Z</time>
</trkpt>
<trkpt lat="45.9337700" lon="9.5848310">
	<ele>1303.00</ele>
	<time>2023-10-07T06:29:27.000Z</time>
</trkpt>
<trkpt lat="45.9337680" lon="9.5848350">
	<ele>1303.00</ele>
	<time>2023-10-07T06:29:28.000Z</time>
</trkpt>
<trkpt lat="45.9337680" lon="9.5848320">
	<ele>1303.00</ele>
	<time>2023-10-07T06:29:29.000Z</time>
</trkpt>
<trkpt lat="45.9337670" lon="9.5848350">
	<ele>1303.00</ele>
	<time>2023-10-07T06:29:30.000Z</time>
</trkpt>
<trkpt lat="45.9337640" lon="9.5848390">
	<ele>1303.00</ele>
	<time>2023-10-07T06:29:31.000Z</time>
</trkpt>
<trkpt lat="45.9337600" lon="9.5848500">
	<ele>1302.80</ele>
	<time>2023-10-07T06:29:32.000Z</time>
</trkpt>
<trkpt lat="45.9337580" lon="9.5848530">
	<ele>1302.80</ele>
	<time>2023-10-07T06:29:33.000Z</time>
</trkpt>
<trkpt lat="45.9337600" lon="9.5848540">
	<ele>1302.80</ele>
	<time>2023-10-07T06:29:34.000Z</time>
</trkpt>
<trkpt lat="45.9337610" lon="9.5848530">
	<ele>1302.80</ele>
	<time>2023-10-07T06:29:35.000Z</time>
</trkpt>
<trkpt lat="45.9337630" lon="9.5848580">
	<ele>1302.80</ele>
	<time>2023-10-07T06:29:36.000Z</time>
</trkpt>
<trkpt lat="45.9337580" lon="9.5848710">
	<ele>1302.80</ele>
	<time>2023-10-07T06:29:37.000Z</time>
</trkpt>
<trkpt lat="45.9337570" lon="9.5848670">
	<ele>1302.80</ele>
	<time>2023-10-07T06:29:38.000Z</time>
</trkpt>
<trkpt lat="45.9337540" lon="9.5848640">
	<ele>1302.80</ele>
	<time>2023-10-07T06:29:39.000Z</time>
</trkpt>
<trkpt lat="45.9337520" lon="9.5848670">
	<ele>1303.00</ele>
	<time>2023-10-07T06:29:40.000Z</time>
</trkpt>
<trkpt lat="45.9337490" lon="9.5848880">
	<ele>1302.80</ele>
	<time>2023-10-07T06:29:41.000Z</time>
</trkpt>
<trkpt lat="45.9337470" lon="9.5849150">
	<ele>1303.00</ele>
	<time>2023-10-07T06:29:42.000Z</time>
</trkpt>
<trkpt lat="45.9337490" lon="9.5849360">
	<ele>1303.00</ele>
	<time>2023-10-07T06:29:43.000Z</time>
</trkpt>
<trkpt lat="45.9337510" lon="9.5849610">
	<ele>1303.00</ele>
	<time>2023-10-07T06:29:44.000Z</time>
</trkpt>
<trkpt lat="45.9337590" lon="9.5849760">
	<ele>1303.00</ele>
	<time>2023-10-07T06:29:45.000Z</time>
</trkpt>
<trkpt lat="45.9337680" lon="9.5849900">
	<ele>1303.00</ele>
	<time>2023-10-07T06:29:46.000Z</time>
</trkpt>
<trkpt lat="45.9337700" lon="9.5850060">
	<ele>1303.00</ele>
	<time>2023-10-07T06:29:47.000Z</time>
</trkpt>
<trkpt lat="45.9337800" lon="9.5850190">
	<ele>1303.00</ele>
	<time>2023-10-07T06:29:48.000Z</time>
</trkpt>
<trkpt lat="45.9337860" lon="9.5850330">
	<ele>1303.00</ele>
	<time>2023-10-07T06:29:49.000Z</time>
</trkpt>
<trkpt lat="45.9337880" lon="9.5850500">
	<ele>1303.20</ele>
	<time>2023-10-07T06:29:50.000Z</time>
</trkpt>
<trkpt lat="45.9337920" lon="9.5850690">
	<ele>1303.20</ele>
	<time>2023-10-07T06:29:51.000Z</time>
</trkpt>
<trkpt lat="45.9338030" lon="9.5850740">
	<ele>1303.20</ele>
	<time>2023-10-07T06:29:52.000Z</time>
</trkpt>
<trkpt lat="45.9338110" lon="9.5850870">
	<ele>1303.20</ele>
	<time>2023-10-07T06:29:53.000Z</time>
</trkpt>
<trkpt lat="45.9338160" lon="9.5851040">
	<ele>1303.20</ele>
	<time>2023-10-07T06:29:54.000Z</time>
</trkpt>
<trkpt lat="45.9338220" lon="9.5851080">
	<ele>1303.40</ele>
	<time>2023-10-07T06:29:55.000Z</time>
</trkpt>
<trkpt lat="45.9338280" lon="9.5851180">
	<ele>1303.40</ele>
	<time>2023-10-07T06:29:56.000Z</time>
</trkpt>
<trkpt lat="45.9338290" lon="9.5851260">
	<ele>1303.40</ele>
	<time>2023-10-07T06:29:57.000Z</time>
</trkpt>
<trkpt lat="45.9338360" lon="9.5851340">
	<ele>1303.60</ele>
	<time>2023-10-07T06:29:58.000Z</time>
</trkpt>
<trkpt lat="45.9338440" lon="9.5851390">
	<ele>1303.60</ele>
	<time>2023-10-07T06:29:59.000Z</time>
</trkpt>
<trkpt lat="45.9338570" lon="9.5851320">
	<ele>1303.80</ele>
	<time>2023-10-07T06:30:00.000Z</time>
</trkpt>
<trkpt lat="45.9338660" lon="9.5851350">
	<ele>1303.80</ele>
	<time>2023-10-07T06:30:01.000Z</time>
</trkpt>
<trkpt lat="45.9338710" lon="9.5851410">
	<ele>1303.80</ele>
	<time>2023-10-07T06:30:02.000Z</time>
</trkpt>
<trkpt lat="45.9338750" lon="9.5851520">
	<ele>1304.00</ele>
	<time>2023-10-07T06:30:03.000Z</time>
</trkpt>
<trkpt lat="45.9338790" lon="9.5851640">
	<ele>1304.00</ele>
	<time>2023-10-07T06:30:04.000Z</time>
</trkpt>
<trkpt lat="45.9338840" lon="9.5851700">
	<ele>1304.00</ele>
	<time>2023-10-07T06:30:05.000Z</time>
</trkpt>
<trkpt lat="45.9338920" lon="9.5851710">
	<ele>1304.40</ele>
	<time>2023-10-07T06:30:06.000Z</time>
</trkpt>
<trkpt lat="45.9339050" lon="9.5851720">
	<ele>1304.40</ele>
	<time>2023-10-07T06:30:07.000Z</time>
</trkpt>
<trkpt lat="45.9339150" lon="9.5851760">
	<ele>1304.60</ele>
	<time>2023-10-07T06:30:08.000Z</time>
</trkpt>
<trkpt lat="45.9339260" lon="9.5851800">
	<ele>1304.80</ele>
	<time>2023-10-07T06:30:09.000Z</time>
</trkpt>
<trkpt lat="45.9339340" lon="9.5851850">
	<ele>1305.00</ele>
	<time>2023-10-07T06:30:10.000Z</time>
</trkpt>
<trkpt lat="45.9339410" lon="9.5851930">
	<ele>1305.00</ele>
	<time>2023-10-07T06:30:11.000Z</time>
</trkpt>
<trkpt lat="45.9339490" lon="9.5852010">
	<ele>1305.20</ele>
	<time>2023-10-07T06:30:12.000Z</time>
</trkpt>
<trkpt lat="45.9339600" lon="9.5852100">
	<ele>1305.20</ele>
	<time>2023-10-07T06:30:13.000Z</time>
</trkpt>
<trkpt lat="45.9339660" lon="9.5852160">
	<ele>1305.20</ele>
	<time>2023-10-07T06:30:14.000Z</time>
</trkpt>
<trkpt lat="45.9339660" lon="9.5852210">
	<ele>1305.20</ele>
	<time>2023-10-07T06:30:15.000Z</time>
</trkpt>
<trkpt lat="45.9339650" lon="9.5852350">
	<ele>1305.20</ele>
	<time>2023-10-07T06:30:16.000Z</time>
</trkpt>
<trkpt lat="45.9339660" lon="9.5852410">
	<ele>1305.20</ele>
	<time>2023-10-07T06:30:17.000Z</time>
</trkpt>
<trkpt lat="45.9339690" lon="9.5852550">
	<ele>1305.20</ele>
	<time>2023-10-07T06:30:18.000Z</time>
</trkpt>
<trkpt lat="45.9339750" lon="9.5852560">
	<ele>1305.20</ele>
	<time>2023-10-07T06:30:19.000Z</time>
</trkpt>
<trkpt lat="45.9339910" lon="9.5852510">
	<ele>1305.20</ele>
	<time>2023-10-07T06:30:20.000Z</time>
</trkpt>
<trkpt lat="45.9339980" lon="9.5852600">
	<ele>1305.20</ele>
	<time>2023-10-07T06:30:21.000Z</time>
</trkpt>
<trkpt lat="45.9340080" lon="9.5852720">
	<ele>1305.20</ele>
	<time>2023-10-07T06:30:22.000Z</time>
</trkpt>
<trkpt lat="45.9340220" lon="9.5852780">
	<ele>1305.20</ele>
	<time>2023-10-07T06:30:23.000Z</time>
</trkpt>
<trkpt lat="45.9340350" lon="9.5852800">
	<ele>1305.20</ele>
	<time>2023-10-07T06:30:24.000Z</time>
</trkpt>
<trkpt lat="45.9340510" lon="9.5852800">
	<ele>1305.20</ele>
	<time>2023-10-07T06:30:25.000Z</time>
</trkpt>
<trkpt lat="45.9340750" lon="9.5852630">
	<ele>1305.20</ele>
	<time>2023-10-07T06:30:26.000Z</time>
</trkpt>
<trkpt lat="45.9340930" lon="9.5852620">
	<ele>1305.20</ele>
	<time>2023-10-07T06:30:27.000Z</time>
</trkpt>
<trkpt lat="45.9341060" lon="9.5852730">
	<ele>1305.20</ele>
	<time>2023-10-07T06:30:28.000Z</time>
</trkpt>
<trkpt lat="45.9341170" lon="9.5852850">
	<ele>1305.00</ele>
	<time>2023-10-07T06:30:29.000Z</time>
</trkpt>
<trkpt lat="45.9341260" lon="9.5853010">
	<ele>1304.80</ele>
	<time>2023-10-07T06:30:30.000Z</time>
</trkpt>
<trkpt lat="45.9341320" lon="9.5853210">
	<ele>1304.60</ele>
	<time>2023-10-07T06:30:31.000Z</time>
</trkpt>
<trkpt lat="45.9341440" lon="9.5853230">
	<ele>1304.60</ele>
	<time>2023-10-07T06:30:32.000Z</time>
</trkpt>
<trkpt lat="45.9341480" lon="9.5853440">
	<ele>1304.40</ele>
	<time>2023-10-07T06:30:33.000Z</time>
</trkpt>
<trkpt lat="45.9341630" lon="9.5853520">
	<ele>1304.40</ele>
	<time>2023-10-07T06:30:34.000Z</time>
</trkpt>
<trkpt lat="45.9341810" lon="9.5853540">
	<ele>1304.20</ele>
	<time>2023-10-07T06:30:35.000Z</time>
</trkpt>
<trkpt lat="45.9341920" lon="9.5853590">
	<ele>1304.00</ele>
	<time>2023-10-07T06:30:36.000Z</time>
</trkpt>
<trkpt lat="45.9341980" lon="9.5853720">
	<ele>1304.00</ele>
	<time>2023-10-07T06:30:37.000Z</time>
</trkpt>
<trkpt lat="45.9342040" lon="9.5853860">
	<ele>1303.80</ele>
	<time>2023-10-07T06:30:38.000Z</time>
</trkpt>
<trkpt lat="45.9342070" lon="9.5854010">
	<ele>1303.80</ele>
	<time>2023-10-07T06:30:39.000Z</time>
</trkpt>
<trkpt lat="45.9342160" lon="9.5854110">
	<ele>1303.80</ele>
	<time>2023-10-07T06:30:40.000Z</time>
</trkpt>
<trkpt lat="45.9342230" lon="9.5854240">
	<ele>1303.80</ele>
	<time>2023-10-07T06:30:41.000Z</time>
</trkpt>
<trkpt lat="45.9342330" lon="9.5854320">
	<ele>1303.80</ele>
	<time>2023-10-07T06:30:42.000Z</time>
</trkpt>
<trkpt lat="45.9342470" lon="9.5854350">
	<ele>1303.60</ele>
	<time>2023-10-07T06:30:43.000Z</time>
</trkpt>
<trkpt lat="45.9342580" lon="9.5854450">
	<ele>1303.60</ele>
	<time>2023-10-07T06:30:44.000Z</time>
</trkpt>
<trkpt lat="45.9342640" lon="9.5854570">
	<ele>1303.60</ele>
	<time>2023-10-07T06:30:45.000Z</time>
</trkpt>
<trkpt lat="45.9342660" lon="9.5854610">
	<ele>1303.60</ele>
	<time>2023-10-07T06:30:46.000Z</time>
</trkpt>
<trkpt lat="45.9342690" lon="9.5854690">
	<ele>1303.60</ele>
	<time>2023-10-07T06:30:47.000Z</time>
</trkpt>
<trkpt lat="45.9342710" lon="9.5854810">
	<ele>1303.40</ele>
	<time>2023-10-07T06:30:48.000Z</time>
</trkpt>
<trkpt lat="45.9342720" lon="9.5854950">
	<ele>1303.40</ele>
	<time>2023-10-07T06:30:49.000Z</time>
</trkpt>
<trkpt lat="45.9342750" lon="9.5855130">
	<ele>1303.20</ele>
	<time>2023-10-07T06:30:50.000Z</time>
</trkpt>
<trkpt lat="45.9342770" lon="9.5855170">
	<ele>1303.20</ele>
	<time>2023-10-07T06:30:51.000Z</time>
</trkpt>
<trkpt lat="45.9342770" lon="9.5855370">
	<ele>1303.00</ele>
	<time>2023-10-07T06:30:52.000Z</time>
</trkpt>
<trkpt lat="45.9342750" lon="9.5855560">
	<ele>1303.00</ele>
	<time>2023-10-07T06:30:53.000Z</time>
</trkpt>
<trkpt lat="45.9342740" lon="9.5855780">
	<ele>1303.00</ele>
	<time>2023-10-07T06:30:54.000Z</time>
</trkpt>
<trkpt lat="45.9342730" lon="9.5855980">
	<ele>1303.00</ele>
	<time>2023-10-07T06:30:55.000Z</time>
</trkpt>
<trkpt lat="45.9342710" lon="9.5856220">
	<ele>1303.00</ele>
	<time>2023-10-07T06:30:56.000Z</time>
</trkpt>
<trkpt lat="45.9342740" lon="9.5856420">
	<ele>1303.00</ele>
	<time>2023-10-07T06:30:57.000Z</time>
</trkpt>
<trkpt lat="45.9342780" lon="9.5856640">
	<ele>1302.80</ele>
	<time>2023-10-07T06:30:58.000Z</time>
</trkpt>
<trkpt lat="45.9342780" lon="9.5856880">
	<ele>1302.80</ele>
	<time>2023-10-07T06:30:59.000Z</time>
</trkpt>
<trkpt lat="45.9342790" lon="9.5857080">
	<ele>1302.80</ele>
	<time>2023-10-07T06:31:00.000Z</time>
</trkpt>
<trkpt lat="45.9342800" lon="9.5857250">
	<ele>1302.80</ele>
	<time>2023-10-07T06:31:01.000Z</time>
</trkpt>
<trkpt lat="45.9342830" lon="9.5857350">
	<ele>1302.80</ele>
	<time>2023-10-07T06:31:02.000Z</time>
</trkpt>
<trkpt lat="45.9342800" lon="9.5857510">
	<ele>1302.80</ele>
	<time>2023-10-07T06:31:03.000Z</time>
</trkpt>
<trkpt lat="45.9342840" lon="9.5857640">
	<ele>1303.00</ele>
	<time>2023-10-07T06:31:04.000Z</time>
</trkpt>
<trkpt lat="45.9342860" lon="9.5857790">
	<ele>1303.00</ele>
	<time>2023-10-07T06:31:05.000Z</time>
</trkpt>
<trkpt lat="45.9342880" lon="9.5857930">
	<ele>1303.20</ele>
	<time>2023-10-07T06:31:06.000Z</time>
</trkpt>
<trkpt lat="45.9342910" lon="9.5858050">
	<ele>1303.40</ele>
	<time>2023-10-07T06:31:07.000Z</time>
</trkpt>
<trkpt lat="45.9343020" lon="9.5858120">
	<ele>1303.60</ele>
	<time>2023-10-07T06:31:08.000Z</time>
</trkpt>
<trkpt lat="45.9343170" lon="9.5858150">
	<ele>1303.60</ele>
	<time>2023-10-07T06:31:09.000Z</time>
</trkpt>
<trkpt lat="45.9343310" lon="9.5858160">
	<ele>1303.60</ele>
	<time>2023-10-07T06:31:10.000Z</time>
</trkpt>
<trkpt lat="45.9343370" lon="9.5858280">
	<ele>1303.80</ele>
	<time>2023-10-07T06:31:11.000Z</time>
</trkpt>
<trkpt lat="45.9343400" lon="9.5858380">
	<ele>1303.80</ele>
	<time>2023-10-07T06:31:12.000Z</time>
</trkpt>
<trkpt lat="45.9343370" lon="9.5858490">
	<ele>1304.00</ele>
	<time>2023-10-07T06:31:13.000Z</time>
</trkpt>
<trkpt lat="45.9343320" lon="9.5858610">
	<ele>1304.00</ele>
	<time>2023-10-07T06:31:14.000Z</time>
</trkpt>
<trkpt lat="45.9343280" lon="9.5858690">
	<ele>1304.00</ele>
	<time>2023-10-07T06:31:15.000Z</time>
</trkpt>
<trkpt lat="45.9343270" lon="9.5858780">
	<ele>1304.00</ele>
	<time>2023-10-07T06:31:16.000Z</time>
</trkpt>
<trkpt lat="45.9343290" lon="9.5858790">
	<ele>1304.00</ele>
	<time>2023-10-07T06:31:17.000Z</time>
</trkpt>
<trkpt lat="45.9343370" lon="9.5858750">
	<ele>1304.00</ele>
	<time>2023-10-07T06:31:18.000Z</time>
</trkpt>
<trkpt lat="45.9343440" lon="9.5858820">
	<ele>1304.00</ele>
	<time>2023-10-07T06:31:19.000Z</time>
</trkpt>
<trkpt lat="45.9343520" lon="9.5858940">
	<ele>1304.00</ele>
	<time>2023-10-07T06:31:20.000Z</time>
</trkpt>
<trkpt lat="45.9343580" lon="9.5859060">
	<ele>1304.00</ele>
	<time>2023-10-07T06:31:21.000Z</time>
</trkpt>
<trkpt lat="45.9343620" lon="9.5859160">
	<ele>1304.00</ele>
	<time>2023-10-07T06:31:22.000Z</time>
</trkpt>
<trkpt lat="45.9343700" lon="9.5859260">
	<ele>1304.20</ele>
	<time>2023-10-07T06:31:23.000Z</time>
</trkpt>
<trkpt lat="45.9343810" lon="9.5859300">
	<ele>1304.20</ele>
	<time>2023-10-07T06:31:24.000Z</time>
</trkpt>
<trkpt lat="45.9343880" lon="9.5859460">
	<ele>1304.20</ele>
	<time>2023-10-07T06:31:25.000Z</time>
</trkpt>
<trkpt lat="45.9343900" lon="9.5859600">
	<ele>1304.20</ele>
	<time>2023-10-07T06:31:26.000Z</time>
</trkpt>
<trkpt lat="45.9343980" lon="9.5859740">
	<ele>1304.20</ele>
	<time>2023-10-07T06:31:27.000Z</time>
</trkpt>
<trkpt lat="45.9344020" lon="9.5859850">
	<ele>1304.20</ele>
	<time>2023-10-07T06:31:28.000Z</time>
</trkpt>
<trkpt lat="45.9344090" lon="9.5859890">
	<ele>1304.40</ele>
	<time>2023-10-07T06:31:29.000Z</time>
</trkpt>
<trkpt lat="45.9344210" lon="9.5859920">
	<ele>1304.60</ele>
	<time>2023-10-07T06:31:30.000Z</time>
</trkpt>
<trkpt lat="45.9344270" lon="9.5859910">
	<ele>1304.60</ele>
	<time>2023-10-07T06:31:31.000Z</time>
</trkpt>
<trkpt lat="45.9344340" lon="9.5859930">
	<ele>1304.80</ele>
	<time>2023-10-07T06:31:32.000Z</time>
</trkpt>
<trkpt lat="45.9344370" lon="9.5860020">
	<ele>1305.00</ele>
	<time>2023-10-07T06:31:33.000Z</time>
</trkpt>
<trkpt lat="45.9344390" lon="9.5860160">
	<ele>1305.00</ele>
	<time>2023-10-07T06:31:34.000Z</time>
</trkpt>
<trkpt lat="45.9344420" lon="9.5860290">
	<ele>1305.20</ele>
	<time>2023-10-07T06:31:35.000Z</time>
</trkpt>
<trkpt lat="45.9344480" lon="9.5860410">
	<ele>1305.60</ele>
	<time>2023-10-07T06:31:36.000Z</time>
</trkpt>
<trkpt lat="45.9344490" lon="9.5860550">
	<ele>1305.80</ele>
	<time>2023-10-07T06:31:37.000Z</time>
</trkpt>
<trkpt lat="45.9344600" lon="9.5860630">
	<ele>1305.80</ele>
	<time>2023-10-07T06:31:38.000Z</time>
</trkpt>
<trkpt lat="45.9344700" lon="9.5860720">
	<ele>1306.00</ele>
	<time>2023-10-07T06:31:39.000Z</time>
</trkpt>
<trkpt lat="45.9344780" lon="9.5860820">
	<ele>1306.00</ele>
	<time>2023-10-07T06:31:40.000Z</time>
</trkpt>
<trkpt lat="45.9344770" lon="9.5861030">
	<ele>1306.20</ele>
	<time>2023-10-07T06:31:41.000Z</time>
</trkpt>
<trkpt lat="45.9344760" lon="9.5861310">
	<ele>1306.20</ele>
	<time>2023-10-07T06:31:42.000Z</time>
</trkpt>
<trkpt lat="45.9344810" lon="9.5861560">
	<ele>1306.20</ele>
	<time>2023-10-07T06:31:43.000Z</time>
</trkpt>
<trkpt lat="45.9344920" lon="9.5861710">
	<ele>1306.40</ele>
	<time>2023-10-07T06:31:44.000Z</time>
</trkpt>
<trkpt lat="45.9345020" lon="9.5861810">
	<ele>1306.40</ele>
	<time>2023-10-07T06:31:45.000Z</time>
</trkpt>
<trkpt lat="45.9345080" lon="9.5861940">
	<ele>1306.40</ele>
	<time>2023-10-07T06:31:46.000Z</time>
</trkpt>
<trkpt lat="45.9345040" lon="9.5862190">
	<ele>1306.60</ele>
	<time>2023-10-07T06:31:47.000Z</time>
</trkpt>
<trkpt lat="45.9344910" lon="9.5862470">
	<ele>1306.60</ele>
	<time>2023-10-07T06:31:48.000Z</time>
</trkpt>
<trkpt lat="45.9344860" lon="9.5862690">
	<ele>1306.60</ele>
	<time>2023-10-07T06:31:49.000Z</time>
</trkpt>
<trkpt lat="45.9344810" lon="9.5862900">
	<ele>1306.60</ele>
	<time>2023-10-07T06:31:50.000Z</time>
</trkpt>
<trkpt lat="45.9344870" lon="9.5863090">
	<ele>1306.80</ele>
	<time>2023-10-07T06:31:51.000Z</time>
</trkpt>
<trkpt lat="45.9344960" lon="9.5863260">
	<ele>1307.00</ele>
	<time>2023-10-07T06:31:52.000Z</time>
</trkpt>
<trkpt lat="45.9345090" lon="9.5863380">
	<ele>1307.20</ele>
	<time>2023-10-07T06:31:53.000Z</time>
</trkpt>
<trkpt lat="45.9345170" lon="9.5863520">
	<ele>1307.20</ele>
	<time>2023-10-07T06:31:54.000Z</time>
</trkpt>
<trkpt lat="45.9345230" lon="9.5863570">
	<ele>1307.40</ele>
	<time>2023-10-07T06:31:55.000Z</time>
</trkpt>
<trkpt lat="45.9345220" lon="9.5863600">
	<ele>1307.80</ele>
	<time>2023-10-07T06:31:56.000Z</time>
</trkpt>
<trkpt lat="45.9345290" lon="9.5863700">
	<ele>1307.80</ele>
	<time>2023-10-07T06:31:57.000Z</time>
</trkpt>
<trkpt lat="45.9345410" lon="9.5863820">
	<ele>1308.00</ele>
	<time>2023-10-07T06:31:58.000Z</time>
</trkpt>
<trkpt lat="45.9345520" lon="9.5863960">
	<ele>1308.00</ele>
	<time>2023-10-07T06:31:59.000Z</time>
</trkpt>
<trkpt lat="45.9345580" lon="9.5864180">
	<ele>1308.20</ele>
	<time>2023-10-07T06:32:00.000Z</time>
</trkpt>
<trkpt lat="45.9345590" lon="9.5864360">
	<ele>1308.40</ele>
	<time>2023-10-07T06:32:01.000Z</time>
</trkpt>
<trkpt lat="45.9345600" lon="9.5864530">
	<ele>1308.40</ele>
	<time>2023-10-07T06:32:02.000Z</time>
</trkpt>
<trkpt lat="45.9345640" lon="9.5864690">
	<ele>1308.40</ele>
	<time>2023-10-07T06:32:03.000Z</time>
</trkpt>
<trkpt lat="45.9345660" lon="9.5864820">
	<ele>1308.60</ele>
	<time>2023-10-07T06:32:04.000Z</time>
</trkpt>
<trkpt lat="45.9345750" lon="9.5864890">
	<ele>1308.60</ele>
	<time>2023-10-07T06:32:05.000Z</time>
</trkpt>
<trkpt lat="45.9345840" lon="9.5864890">
	<ele>1308.60</ele>
	<time>2023-10-07T06:32:06.000Z</time>
</trkpt>
<trkpt lat="45.9345910" lon="9.5865000">
	<ele>1308.80</ele>
	<time>2023-10-07T06:32:07.000Z</time>
</trkpt>
<trkpt lat="45.9346010" lon="9.5865140">
	<ele>1308.80</ele>
	<time>2023-10-07T06:32:08.000Z</time>
</trkpt>
<trkpt lat="45.9346090" lon="9.5865260">
	<ele>1309.00</ele>
	<time>2023-10-07T06:32:09.000Z</time>
</trkpt>
<trkpt lat="45.9346210" lon="9.5865310">
	<ele>1309.00</ele>
	<time>2023-10-07T06:32:10.000Z</time>
</trkpt>
<trkpt lat="45.9346330" lon="9.5865370">
	<ele>1309.20</ele>
	<time>2023-10-07T06:32:11.000Z</time>
</trkpt>
<trkpt lat="45.9346420" lon="9.5865480">
	<ele>1309.20</ele>
	<time>2023-10-07T06:32:12.000Z</time>
</trkpt>
<trkpt lat="45.9346530" lon="9.5865570">
	<ele>1309.40</ele>
	<time>2023-10-07T06:32:13.000Z</time>
</trkpt>
<trkpt lat="45.9346620" lon="9.5865690">
	<ele>1309.60</ele>
	<time>2023-10-07T06:32:14.000Z</time>
</trkpt>
<trkpt lat="45.9346650" lon="9.5865900">
	<ele>1309.60</ele>
	<time>2023-10-07T06:32:15.000Z</time>
</trkpt>
<trkpt lat="45.9346670" lon="9.5866060">
	<ele>1309.80</ele>
	<time>2023-10-07T06:32:16.000Z</time>
</trkpt>
<trkpt lat="45.9346680" lon="9.5866140">
	<ele>1310.00</ele>
	<time>2023-10-07T06:32:17.000Z</time>
</trkpt>
<trkpt lat="45.9346670" lon="9.5866210">
	<ele>1310.20</ele>
	<time>2023-10-07T06:32:18.000Z</time>
</trkpt>
<trkpt lat="45.9346700" lon="9.5866220">
	<ele>1310.40</ele>
	<time>2023-10-07T06:32:19.000Z</time>
</trkpt>
<trkpt lat="45.9346710" lon="9.5866260">
	<ele>1310.60</ele>
	<time>2023-10-07T06:32:20.000Z</time>
</trkpt>
<trkpt lat="45.9346800" lon="9.5866310">
	<ele>1310.80</ele>
	<time>2023-10-07T06:32:21.000Z</time>
</trkpt>
<trkpt lat="45.9346920" lon="9.5866420">
	<ele>1311.00</ele>
	<time>2023-10-07T06:32:22.000Z</time>
</trkpt>
<trkpt lat="45.9346980" lon="9.5866610">
	<ele>1311.20</ele>
	<time>2023-10-07T06:32:23.000Z</time>
</trkpt>
<trkpt lat="45.9347060" lon="9.5866820">
	<ele>1311.20</ele>
	<time>2023-10-07T06:32:24.000Z</time>
</trkpt>
<trkpt lat="45.9347070" lon="9.5867120">
	<ele>1311.40</ele>
	<time>2023-10-07T06:32:25.000Z</time>
</trkpt>
<trkpt lat="45.9347120" lon="9.5867340">
	<ele>1311.40</ele>
	<time>2023-10-07T06:32:26.000Z</time>
</trkpt>
<trkpt lat="45.9347260" lon="9.5867440">
	<ele>1311.40</ele>
	<time>2023-10-07T06:32:27.000Z</time>
</trkpt>
<trkpt lat="45.9347350" lon="9.5867480">
	<ele>1311.40</ele>
	<time>2023-10-07T06:32:28.000Z</time>
</trkpt>
<trkpt lat="45.9347470" lon="9.5867500">
	<ele>1311.40</ele>
	<time>2023-10-07T06:32:29.000Z</time>
</trkpt>
<trkpt lat="45.9347460" lon="9.5867750">
	<ele>1311.40</ele>
	<time>2023-10-07T06:32:30.000Z</time>
</trkpt>
<trkpt lat="45.9347500" lon="9.5867900">
	<ele>1311.40</ele>
	<time>2023-10-07T06:32:31.000Z</time>
</trkpt>
<trkpt lat="45.9347570" lon="9.5868030">
	<ele>1311.40</ele>
	<time>2023-10-07T06:32:32.000Z</time>
</trkpt>
<trkpt lat="45.9347660" lon="9.5868090">
	<ele>1311.60</ele>
	<time>2023-10-07T06:32:33.000Z</time>
</trkpt>
<trkpt lat="45.9347800" lon="9.5868180">
	<ele>1311.60</ele>
	<time>2023-10-07T06:32:34.000Z</time>
</trkpt>
<trkpt lat="45.9347930" lon="9.5868330">
	<ele>1311.80</ele>
	<time>2023-10-07T06:32:35.000Z</time>
</trkpt>
<trkpt lat="45.9348000" lon="9.5868550">
	<ele>1311.80</ele>
	<time>2023-10-07T06:32:36.000Z</time>
</trkpt>
<trkpt lat="45.9348120" lon="9.5868710">
	<ele>1312.00</ele>
	<time>2023-10-07T06:32:37.000Z</time>
</trkpt>
<trkpt lat="45.9348150" lon="9.5868940">
	<ele>1312.20</ele>
	<time>2023-10-07T06:32:38.000Z</time>
</trkpt>
<trkpt lat="45.9348220" lon="9.5869120">
	<ele>1312.20</ele>
	<time>2023-10-07T06:32:39.000Z</time>
</trkpt>
<trkpt lat="45.9348290" lon="9.5869300">
	<ele>1312.40</ele>
	<time>2023-10-07T06:32:40.000Z</time>
</trkpt>
<trkpt lat="45.9348320" lon="9.5869520">
	<ele>1312.60</ele>
	<time>2023-10-07T06:32:41.000Z</time>
</trkpt>
<trkpt lat="45.9348390" lon="9.5869650">
	<ele>1312.80</ele>
	<time>2023-10-07T06:32:42.000Z</time>
</trkpt>
<trkpt lat="45.9348510" lon="9.5869730">
	<ele>1313.00</ele>
	<time>2023-10-07T06:32:43.000Z</time>
</trkpt>
<trkpt lat="45.9348710" lon="9.5869760">
	<ele>1313.20</ele>
	<time>2023-10-07T06:32:44.000Z</time>
</trkpt>
<trkpt lat="45.9348770" lon="9.5869870">
	<ele>1313.40</ele>
	<time>2023-10-07T06:32:45.000Z</time>
</trkpt>
<trkpt lat="45.9348820" lon="9.5870050">
	<ele>1313.60</ele>
	<time>2023-10-07T06:32:46.000Z</time>
</trkpt>
<trkpt lat="45.9348920" lon="9.5870150">
	<ele>1313.60</ele>
	<time>2023-10-07T06:32:47.000Z</time>
</trkpt>
<trkpt lat="45.9349030" lon="9.5870260">
	<ele>1313.60</ele>
	<time>2023-10-07T06:32:48.000Z</time>
</trkpt>
<trkpt lat="45.9349150" lon="9.5870420">
	<ele>1313.60</ele>
	<time>2023-10-07T06:32:49.000Z</time>
</trkpt>
<trkpt lat="45.9349200" lon="9.5870550">
	<ele>1313.60</ele>
	<time>2023-10-07T06:32:50.000Z</time>
</trkpt>
<trkpt lat="45.9349180" lon="9.5870730">
	<ele>1313.60</ele>
	<time>2023-10-07T06:32:51.000Z</time>
</trkpt>
<trkpt lat="45.9349090" lon="9.5870920">
	<ele>1313.60</ele>
	<time>2023-10-07T06:32:52.000Z</time>
</trkpt>
<trkpt lat="45.9349120" lon="9.5871020">
	<ele>1313.80</ele>
	<time>2023-10-07T06:32:53.000Z</time>
</trkpt>
<trkpt lat="45.9349130" lon="9.5871130">
	<ele>1314.00</ele>
	<time>2023-10-07T06:32:54.000Z</time>
</trkpt>
<trkpt lat="45.9349110" lon="9.5871330">
	<ele>1314.20</ele>
	<time>2023-10-07T06:32:55.000Z</time>
</trkpt>
<trkpt lat="45.9349170" lon="9.5871460">
	<ele>1314.40</ele>
	<time>2023-10-07T06:32:56.000Z</time>
</trkpt>
<trkpt lat="45.9349170" lon="9.5871510">
	<ele>1314.60</ele>
	<time>2023-10-07T06:32:57.000Z</time>
</trkpt>
<trkpt lat="45.9349130" lon="9.5871660">
	<ele>1314.60</ele>
	<time>2023-10-07T06:32:58.000Z</time>
</trkpt>
<trkpt lat="45.9349120" lon="9.5871870">
	<ele>1314.60</ele>
	<time>2023-10-07T06:32:59.000Z</time>
</trkpt>
<trkpt lat="45.9349150" lon="9.5872010">
	<ele>1314.60</ele>
	<time>2023-10-07T06:33:00.000Z</time>
</trkpt>
<trkpt lat="45.9349170" lon="9.5872180">
	<ele>1314.60</ele>
	<time>2023-10-07T06:33:01.000Z</time>
</trkpt>
<trkpt lat="45.9349180" lon="9.5872350">
	<ele>1314.60</ele>
	<time>2023-10-07T06:33:02.000Z</time>
</trkpt>
<trkpt lat="45.9349230" lon="9.5872510">
	<ele>1314.60</ele>
	<time>2023-10-07T06:33:03.000Z</time>
</trkpt>
<trkpt lat="45.9349280" lon="9.5872680">
	<ele>1314.60</ele>
	<time>2023-10-07T06:33:04.000Z</time>
</trkpt>
<trkpt lat="45.9349350" lon="9.5872900">
	<ele>1314.60</ele>
	<time>2023-10-07T06:33:05.000Z</time>
</trkpt>
<trkpt lat="45.9349500" lon="9.5873010">
	<ele>1314.60</ele>
	<time>2023-10-07T06:33:06.000Z</time>
</trkpt>
<trkpt lat="45.9349620" lon="9.5873120">
	<ele>1314.60</ele>
	<time>2023-10-07T06:33:07.000Z</time>
</trkpt>
<trkpt lat="45.9349730" lon="9.5873230">
	<ele>1314.60</ele>
	<time>2023-10-07T06:33:08.000Z</time>
</trkpt>
<trkpt lat="45.9349820" lon="9.5873400">
	<ele>1314.60</ele>
	<time>2023-10-07T06:33:09.000Z</time>
</trkpt>
<trkpt lat="45.9349940" lon="9.5873560">
	<ele>1314.60</ele>
	<time>2023-10-07T06:33:10.000Z</time>
</trkpt>
<trkpt lat="45.9350150" lon="9.5873690">
	<ele>1314.60</ele>
	<time>2023-10-07T06:33:11.000Z</time>
</trkpt>
<trkpt lat="45.9350270" lon="9.5873810">
	<ele>1314.80</ele>
	<time>2023-10-07T06:33:12.000Z</time>
</trkpt>
<trkpt lat="45.9350360" lon="9.5873930">
	<ele>1314.80</ele>
	<time>2023-10-07T06:33:13.000Z</time>
</trkpt>
<trkpt lat="45.9350490" lon="9.5874120">
	<ele>1315.00</ele>
	<time>2023-10-07T06:33:14.000Z</time>
</trkpt>
<trkpt lat="45.9350570" lon="9.5874340">
	<ele>1315.00</ele>
	<time>2023-10-07T06:33:15.000Z</time>
</trkpt>
<trkpt lat="45.9350610" lon="9.5874590">
	<ele>1315.20</ele>
	<time>2023-10-07T06:33:16.000Z</time>
</trkpt>
<trkpt lat="45.9350620" lon="9.5874810">
	<ele>1315.40</ele>
	<time>2023-10-07T06:33:17.000Z</time>
</trkpt>
<trkpt lat="45.9350640" lon="9.5875000">
	<ele>1315.60</ele>
	<time>2023-10-07T06:33:18.000Z</time>
</trkpt>
<trkpt lat="45.9350720" lon="9.5875100">
	<ele>1315.80</ele>
	<time>2023-10-07T06:33:19.000Z</time>
</trkpt>
<trkpt lat="45.9350790" lon="9.5875130">
	<ele>1315.80</ele>
	<time>2023-10-07T06:33:20.000Z</time>
</trkpt>
<trkpt lat="45.9350910" lon="9.5875200">
	<ele>1316.00</ele>
	<time>2023-10-07T06:33:21.000Z</time>
</trkpt>
<trkpt lat="45.9351040" lon="9.5875260">
	<ele>1316.20</ele>
	<time>2023-10-07T06:33:22.000Z</time>
</trkpt>
<trkpt lat="45.9351140" lon="9.5875350">
	<ele>1316.40</ele>
	<time>2023-10-07T06:33:23.000Z</time>
</trkpt>
<trkpt lat="45.9351200" lon="9.5875510">
	<ele>1316.60</ele>
	<time>2023-10-07T06:33:24.000Z</time>
</trkpt>
<trkpt lat="45.9351230" lon="9.5875680">
	<ele>1316.60</ele>
	<time>2023-10-07T06:33:25.000Z</time>
</trkpt>
<trkpt lat="45.9351260" lon="9.5875850">
	<ele>1316.80</ele>
	<time>2023-10-07T06:33:26.000Z</time>
</trkpt>
<trkpt lat="45.9351300" lon="9.5876000">
	<ele>1316.80</ele>
	<time>2023-10-07T06:33:27.000Z</time>
</trkpt>
<trkpt lat="45.9351320" lon="9.5876170">
	<ele>1316.80</ele>
	<time>2023-10-07T06:33:28.000Z</time>
</trkpt>
<trkpt lat="45.9351330" lon="9.5876320">
	<ele>1316.60</ele>
	<time>2023-10-07T06:33:29.000Z</time>
</trkpt>
<trkpt lat="45.9351330" lon="9.5876450">
	<ele>1316.60</ele>
	<time>2023-10-07T06:33:30.000Z</time>
</trkpt>
<trkpt lat="45.9351380" lon="9.5876520">
	<ele>1316.40</ele>
	<time>2023-10-07T06:33:31.000Z</time>
</trkpt>
<trkpt lat="45.9351450" lon="9.5876570">
	<ele>1316.40</ele>
	<time>2023-10-07T06:33:32.000Z</time>
</trkpt>
<trkpt lat="45.9351510" lon="9.5876660">
	<ele>1316.40</ele>
	<time>2023-10-07T06:33:33.000Z</time>
</trkpt>
<trkpt lat="45.9351490" lon="9.5876820">
	<ele>1316.40</ele>
	<time>2023-10-07T06:33:34.000Z</time>
</trkpt>
<trkpt lat="45.9351460" lon="9.5876920">
	<ele>1316.40</ele>
	<time>2023-10-07T06:33:35.000Z</time>
</trkpt>
<trkpt lat="45.9351480" lon="9.5876920">
	<ele>1316.40</ele>
	<time>2023-10-07T06:33:36.000Z</time>
</trkpt>
<trkpt lat="45.9351480" lon="9.5876970">
	<ele>1316.20</ele>
	<time>2023-10-07T06:33:37.000Z</time>
</trkpt>
<trkpt lat="45.9351520" lon="9.5877110">
	<ele>1316.20</ele>
	<time>2023-10-07T06:33:38.000Z</time>
</trkpt>
<trkpt lat="45.9351480" lon="9.5877320">
	<ele>1316.20</ele>
	<time>2023-10-07T06:33:39.000Z</time>
</trkpt>
<trkpt lat="45.9351520" lon="9.5877530">
	<ele>1316.20</ele>
	<time>2023-10-07T06:33:40.000Z</time>
</trkpt>
<trkpt lat="45.9351580" lon="9.5877710">
	<ele>1316.20</ele>
	<time>2023-10-07T06:33:41.000Z</time>
</trkpt>
<trkpt lat="45.9351620" lon="9.5877730">
	<ele>1316.20</ele>
	<time>2023-10-07T06:33:42.000Z</time>
</trkpt>
<trkpt lat="45.9351610" lon="9.5877850">
	<ele>1316.20</ele>
	<time>2023-10-07T06:33:43.000Z</time>
</trkpt>
<trkpt lat="45.9351570" lon="9.5878090">
	<ele>1316.20</ele>
	<time>2023-10-07T06:33:44.000Z</time>
</trkpt>
<trkpt lat="45.9351590" lon="9.5878330">
	<ele>1316.20</ele>
	<time>2023-10-07T06:33:45.000Z</time>
</trkpt>
<trkpt lat="45.9351650" lon="9.5878510">
	<ele>1316.00</ele>
	<time>2023-10-07T06:33:46.000Z</time>
</trkpt>
<trkpt lat="45.9351730" lon="9.5878690">
	<ele>1316.00</ele>
	<time>2023-10-07T06:33:47.000Z</time>
</trkpt>
<trkpt lat="45.9351770" lon="9.5878840">
	<ele>1316.00</ele>
	<time>2023-10-07T06:33:48.000Z</time>
</trkpt>
<trkpt lat="45.9351790" lon="9.5879000">
	<ele>1316.20</ele>
	<time>2023-10-07T06:33:49.000Z</time>
</trkpt>
<trkpt lat="45.9351840" lon="9.5879110">
	<ele>1316.20</ele>
	<time>2023-10-07T06:33:50.000Z</time>
</trkpt>
<trkpt lat="45.9351870" lon="9.5879140">
	<ele>1316.20</ele>
	<time>2023-10-07T06:33:51.000Z</time>
</trkpt>
<trkpt lat="45.9352000" lon="9.5879240">
	<ele>1316.40</ele>
	<time>2023-10-07T06:33:52.000Z</time>
</trkpt>
<trkpt lat="45.9352120" lon="9.5879380">
	<ele>1316.40</ele>
	<time>2023-10-07T06:33:53.000Z</time>
</trkpt>
<trkpt lat="45.9352150" lon="9.5879430">
	<ele>1316.40</ele>
	<time>2023-10-07T06:33:54.000Z</time>
</trkpt>
<trkpt lat="45.9352170" lon="9.5879570">
	<ele>1316.40</ele>
	<time>2023-10-07T06:33:55.000Z</time>
</trkpt>
<trkpt lat="45.9352240" lon="9.5879650">
	<ele>1316.40</ele>
	<time>2023-10-07T06:33:56.000Z</time>
</trkpt>
<trkpt lat="45.9352330" lon="9.5879710">
	<ele>1316.40</ele>
	<time>2023-10-07T06:33:57.000Z</time>
</trkpt>
<trkpt lat="45.9352410" lon="9.5879800">
	<ele>1316.40</ele>
	<time>2023-10-07T06:33:58.000Z</time>
</trkpt>
<trkpt lat="45.9352540" lon="9.5879820">
	<ele>1316.40</ele>
	<time>2023-10-07T06:33:59.000Z</time>
</trkpt>
<trkpt lat="45.9352680" lon="9.5879850">
	<ele>1316.60</ele>
	<time>2023-10-07T06:34:00.000Z</time>
</trkpt>
<trkpt lat="45.9352820" lon="9.5879950">
	<ele>1316.40</ele>
	<time>2023-10-07T06:34:01.000Z</time>
</trkpt>
<trkpt lat="45.9352900" lon="9.5880040">
	<ele>1316.40</ele>
	<time>2023-10-07T06:34:02.000Z</time>
</trkpt>
<trkpt lat="45.9352990" lon="9.5880100">
	<ele>1316.20</ele>
	<time>2023-10-07T06:34:03.000Z</time>
</trkpt>
<trkpt lat="45.9353110" lon="9.5880100">
	<ele>1316.20</ele>
	<time>2023-10-07T06:34:04.000Z</time>
</trkpt>
<trkpt lat="45.9353230" lon="9.5880080">
	<ele>1316.00</ele>
	<time>2023-10-07T06:34:05.000Z</time>
</trkpt>
<trkpt lat="45.9353320" lon="9.5880110">
	<ele>1316.00</ele>
	<time>2023-10-07T06:34:06.000Z</time>
</trkpt>
<trkpt lat="45.9353410" lon="9.5880160">
	<ele>1315.80</ele>
	<time>2023-10-07T06:34:07.000Z</time>
</trkpt>
<trkpt lat="45.9353510" lon="9.5880230">
	<ele>1315.80</ele>
	<time>2023-10-07T06:34:08.000Z</time>
</trkpt>
<trkpt lat="45.9353640" lon="9.5880190">
	<ele>1315.60</ele>
	<time>2023-10-07T06:34:09.000Z</time>
</trkpt>
<trkpt lat="45.9353770" lon="9.5880120">
	<ele>1315.60</ele>
	<time>2023-10-07T06:34:10.000Z</time>
</trkpt>
<trkpt lat="45.9353860" lon="9.5880150">
	<ele>1315.60</ele>
	<time>2023-10-07T06:34:11.000Z</time>
</trkpt>
<trkpt lat="45.9353950" lon="9.5880150">
	<ele>1315.40</ele>
	<time>2023-10-07T06:34:12.000Z</time>
</trkpt>
<trkpt lat="45.9354020" lon="9.5880250">
	<ele>1315.20</ele>
	<time>2023-10-07T06:34:13.000Z</time>
</trkpt>
<trkpt lat="45.9354170" lon="9.5880320">
	<ele>1315.00</ele>
	<time>2023-10-07T06:34:14.000Z</time>
</trkpt>
<trkpt lat="45.9354260" lon="9.5880420">
	<ele>1314.80</ele>
	<time>2023-10-07T06:34:15.000Z</time>
</trkpt>
<trkpt lat="45.9354300" lon="9.5880410">
	<ele>1314.80</ele>
	<time>2023-10-07T06:34:16.000Z</time>
</trkpt>
<trkpt lat="45.9354340" lon="9.5880420">
	<ele>1314.60</ele>
	<time>2023-10-07T06:34:17.000Z</time>
</trkpt>
<trkpt lat="45.9354430" lon="9.5880420">
	<ele>1314.40</ele>
	<time>2023-10-07T06:34:18.000Z</time>
</trkpt>
<trkpt lat="45.9354540" lon="9.5880430">
	<ele>1314.20</ele>
	<time>2023-10-07T06:34:19.000Z</time>
</trkpt>
<trkpt lat="45.9354670" lon="9.5880380">
	<ele>1314.00</ele>
	<time>2023-10-07T06:34:20.000Z</time>
</trkpt>
<trkpt lat="45.9354760" lon="9.5880510">
	<ele>1314.00</ele>
	<time>2023-10-07T06:34:21.000Z</time>
</trkpt>
<trkpt lat="45.9354800" lon="9.5880550">
	<ele>1313.80</ele>
	<time>2023-10-07T06:34:22.000Z</time>
</trkpt>
<trkpt lat="45.9354860" lon="9.5880630">
	<ele>1313.60</ele>
	<time>2023-10-07T06:34:23.000Z</time>
</trkpt>
<trkpt lat="45.9354870" lon="9.5880780">
	<ele>1313.60</ele>
	<time>2023-10-07T06:34:24.000Z</time>
</trkpt>
<trkpt lat="45.9354910" lon="9.5880810">
	<ele>1313.40</ele>
	<time>2023-10-07T06:34:25.000Z</time>
</trkpt>
<trkpt lat="45.9354970" lon="9.5880920">
	<ele>1313.20</ele>
	<time>2023-10-07T06:34:26.000Z</time>
</trkpt>
<trkpt lat="45.9355040" lon="9.5881030">
	<ele>1313.20</ele>
	<time>2023-10-07T06:34:27.000Z</time>
</trkpt>
<trkpt lat="45.9355040" lon="9.5881100">
	<ele>1313.00</ele>
	<time>2023-10-07T06:34:28.000Z</time>
</trkpt>
<trkpt lat="45.9355020" lon="9.5881360">
	<ele>1313.00</ele>
	<time>2023-10-07T06:34:29.000Z</time>
</trkpt>
<trkpt lat="45.9355080" lon="9.5881430">
	<ele>1312.80</ele>
	<time>2023-10-07T06:34:30.000Z</time>
</trkpt>
<trkpt lat="45.9355090" lon="9.5881630">
	<ele>1312.80</ele>
	<time>2023-10-07T06:34:31.000Z</time>
</trkpt>
<trkpt lat="45.9355120" lon="9.5881660">
	<ele>1313.00</ele>
	<time>2023-10-07T06:34:32.000Z</time>
</trkpt>
<trkpt lat="45.9355160" lon="9.5881620">
	<ele>1313.00</ele>
	<time>2023-10-07T06:34:33.000Z</time>
</trkpt>
<trkpt lat="45.9355170" lon="9.5881640">
	<ele>1313.00</ele>
	<time>2023-10-07T06:34:34.000Z</time>
</trkpt>
<trkpt lat="45.9355260" lon="9.5881650">
	<ele>1313.00</ele>
	<time>2023-10-07T06:34:35.000Z</time>
</trkpt>
<trkpt lat="45.9355420" lon="9.5881420">
	<ele>1313.20</ele>
	<time>2023-10-07T06:34:36.000Z</time>
</trkpt>
<trkpt lat="45.9355560" lon="9.5881250">
	<ele>1313.20</ele>
	<time>2023-10-07T06:34:37.000Z</time>
</trkpt>
<trkpt lat="45.9355670" lon="9.5881130">
	<ele>1313.20</ele>
	<time>2023-10-07T06:34:38.000Z</time>
</trkpt>
<trkpt lat="45.9355710" lon="9.5881160">
	<ele>1313.40</ele>
	<time>2023-10-07T06:34:39.000Z</time>
</trkpt>
<trkpt lat="45.9355730" lon="9.5881160">
	<ele>1313.40</ele>
	<time>2023-10-07T06:34:40.000Z</time>
</trkpt>
<trkpt lat="45.9355820" lon="9.5881160">
	<ele>1313.40</ele>
	<time>2023-10-07T06:34:41.000Z</time>
</trkpt>
<trkpt lat="45.9355880" lon="9.5881110">
	<ele>1313.40</ele>
	<time>2023-10-07T06:34:42.000Z</time>
</trkpt>
<trkpt lat="45.9355960" lon="9.5881170">
	<ele>1313.60</ele>
	<time>2023-10-07T06:34:43.000Z</time>
</trkpt>
<trkpt lat="45.9356000" lon="9.5881190">
	<ele>1313.60</ele>
	<time>2023-10-07T06:34:44.000Z</time>
</trkpt>
<trkpt lat="45.9356040" lon="9.5881220">
	<ele>1313.60</ele>
	<time>2023-10-07T06:34:45.000Z</time>
</trkpt>
<trkpt lat="45.9356080" lon="9.5881300">
	<ele>1313.80</ele>
	<time>2023-10-07T06:34:46.000Z</time>
</trkpt>
<trkpt lat="45.9356140" lon="9.5881240">
	<ele>1313.80</ele>
	<time>2023-10-07T06:34:47.000Z</time>
</trkpt>
<trkpt lat="45.9356160" lon="9.5881270">
	<ele>1314.00</ele>
	<time>2023-10-07T06:34:48.000Z</time>
</trkpt>
<trkpt lat="45.9356140" lon="9.5881400">
	<ele>1314.20</ele>
	<time>2023-10-07T06:34:49.000Z</time>
</trkpt>
<trkpt lat="45.9356130" lon="9.5881470">
	<ele>1314.20</ele>
	<time>2023-10-07T06:34:50.000Z</time>
</trkpt>
<trkpt lat="45.9356120" lon="9.5881570">
	<ele>1314.20</ele>
	<time>2023-10-07T06:34:51.000Z</time>
</trkpt>
<trkpt lat="45.9356260" lon="9.5881350">
	<ele>1314.00</ele>
	<time>2023-10-07T06:34:52.000Z</time>
</trkpt>
<trkpt lat="45.9356290" lon="9.5881280">
	<ele>1313.80</ele>
	<time>2023-10-07T06:34:53.000Z</time>
</trkpt>
<trkpt lat="45.9356280" lon="9.5881370">
	<ele>1313.60</ele>
	<time>2023-10-07T06:34:54.000Z</time>
</trkpt>
<trkpt lat="45.9356450" lon="9.5881220">
	<ele>1313.40</ele>
	<time>2023-10-07T06:34:55.000Z</time>
</trkpt>
<trkpt lat="45.9356610" lon="9.5881030">
	<ele>1313.00</ele>
	<time>2023-10-07T06:34:56.000Z</time>
</trkpt>
<trkpt lat="45.9356700" lon="9.5880950">
	<ele>1312.80</ele>
	<time>2023-10-07T06:34:57.000Z</time>
</trkpt>
<trkpt lat="45.9356780" lon="9.5881000">
	<ele>1312.80</ele>
	<time>2023-10-07T06:34:58.000Z</time>
</trkpt>
<trkpt lat="45.9356920" lon="9.5881070">
	<ele>1312.60</ele>
	<time>2023-10-07T06:34:59.000Z</time>
</trkpt>
<trkpt lat="45.9357080" lon="9.5881150">
	<ele>1312.40</ele>
	<time>2023-10-07T06:35:00.000Z</time>
</trkpt>
<trkpt lat="45.9357210" lon="9.5881210">
	<ele>1312.20</ele>
	<time>2023-10-07T06:35:01.000Z</time>
</trkpt>
<trkpt lat="45.9357360" lon="9.5881290">
	<ele>1312.00</ele>
	<time>2023-10-07T06:35:02.000Z</time>
</trkpt>
<trkpt lat="45.9357540" lon="9.5881250">
	<ele>1311.80</ele>
	<time>2023-10-07T06:35:03.000Z</time>
</trkpt>
<trkpt lat="45.9357710" lon="9.5881260">
	<ele>1311.40</ele>
	<time>2023-10-07T06:35:04.000Z</time>
</trkpt>
<trkpt lat="45.9357760" lon="9.5881460">
	<ele>1311.40</ele>
	<time>2023-10-07T06:35:05.000Z</time>
</trkpt>
<trkpt lat="45.9357790" lon="9.5881530">
	<ele>1311.20</ele>
	<time>2023-10-07T06:35:06.000Z</time>
</trkpt>
<trkpt lat="45.9357930" lon="9.5881560">
	<ele>1311.20</ele>
	<time>2023-10-07T06:35:07.000Z</time>
</trkpt>
<trkpt lat="45.9358040" lon="9.5881570">
	<ele>1311.00</ele>
	<time>2023-10-07T06:35:08.000Z</time>
</trkpt>
<trkpt lat="45.9358130" lon="9.5881560">
	<ele>1310.80</ele>
	<time>2023-10-07T06:35:09.000Z</time>
</trkpt>
<trkpt lat="45.9358250" lon="9.5881550">
	<ele>1310.80</ele>
	<time>2023-10-07T06:35:10.000Z</time>
</trkpt>
<trkpt lat="45.9358360" lon="9.5881590">
	<ele>1310.60</ele>
	<time>2023-10-07T06:35:11.000Z</time>
</trkpt>
<trkpt lat="45.9358490" lon="9.5881600">
	<ele>1310.60</ele>
	<time>2023-10-07T06:35:12.000Z</time>
</trkpt>
<trkpt lat="45.9358560" lon="9.5881580">
	<ele>1310.40</ele>
	<time>2023-10-07T06:35:13.000Z</time>
</trkpt>
<trkpt lat="45.9358700" lon="9.5881520">
	<ele>1310.20</ele>
	<time>2023-10-07T06:35:14.000Z</time>
</trkpt>
<trkpt lat="45.9358820" lon="9.5881510">
	<ele>1310.00</ele>
	<time>2023-10-07T06:35:15.000Z</time>
</trkpt>
<trkpt lat="45.9358950" lon="9.5881570">
	<ele>1309.80</ele>
	<time>2023-10-07T06:35:16.000Z</time>
</trkpt>
<trkpt lat="45.9359080" lon="9.5881760">
	<ele>1309.80</ele>
	<time>2023-10-07T06:35:17.000Z</time>
</trkpt>
<trkpt lat="45.9359240" lon="9.5881880">
	<ele>1309.80</ele>
	<time>2023-10-07T06:35:18.000Z</time>
</trkpt>
<trkpt lat="45.9359380" lon="9.5881930">
	<ele>1309.60</ele>
	<time>2023-10-07T06:35:19.000Z</time>
</trkpt>
<trkpt lat="45.9359540" lon="9.5881910">
	<ele>1309.80</ele>
	<time>2023-10-07T06:35:20.000Z</time>
</trkpt>
<trkpt lat="45.9359560" lon="9.5881950">
	<ele>1309.80</ele>
	<time>2023-10-07T06:35:21.000Z</time>
</trkpt>
<trkpt lat="45.9359680" lon="9.5881960">
	<ele>1309.60</ele>
	<time>2023-10-07T06:35:22.000Z</time>
</trkpt>
<trkpt lat="45.9359790" lon="9.5881950">
	<ele>1309.40</ele>
	<time>2023-10-07T06:35:23.000Z</time>
</trkpt>
<trkpt lat="45.9359900" lon="9.5882060">
	<ele>1309.40</ele>
	<time>2023-10-07T06:35:24.000Z</time>
</trkpt>
<trkpt lat="45.9360000" lon="9.5882340">
	<ele>1309.20</ele>
	<time>2023-10-07T06:35:25.000Z</time>
</trkpt>
<trkpt lat="45.9360090" lon="9.5882560">
	<ele>1309.20</ele>
	<time>2023-10-07T06:35:26.000Z</time>
</trkpt>
<trkpt lat="45.9360320" lon="9.5882560">
	<ele>1309.00</ele>
	<time>2023-10-07T06:35:27.000Z</time>
</trkpt>
<trkpt lat="45.9360490" lon="9.5882630">
	<ele>1309.00</ele>
	<time>2023-10-07T06:35:28.000Z</time>
</trkpt>
<trkpt lat="45.9360530" lon="9.5882490">
	<ele>1309.00</ele>
	<time>2023-10-07T06:35:29.000Z</time>
</trkpt>
<trkpt lat="45.9360630" lon="9.5882400">
	<ele>1308.80</ele>
	<time>2023-10-07T06:35:30.000Z</time>
</trkpt>
<trkpt lat="45.9360760" lon="9.5882260">
	<ele>1308.80</ele>
	<time>2023-10-07T06:35:31.000Z</time>
</trkpt>
<trkpt lat="45.9360870" lon="9.5882200">
	<ele>1308.80</ele>
	<time>2023-10-07T06:35:32.000Z</time>
</trkpt>
<trkpt lat="45.9360990" lon="9.5882200">
	<ele>1308.80</ele>
	<time>2023-10-07T06:35:33.000Z</time>
</trkpt>
<trkpt lat="45.9361020" lon="9.5882310">
	<ele>1308.60</ele>
	<time>2023-10-07T06:35:34.000Z</time>
</trkpt>
<trkpt lat="45.9361030" lon="9.5882350">
	<ele>1308.40</ele>
	<time>2023-10-07T06:35:35.000Z</time>
</trkpt>
<trkpt lat="45.9361140" lon="9.5882240">
	<ele>1308.40</ele>
	<time>2023-10-07T06:35:36.000Z</time>
</trkpt>
<trkpt lat="45.9361280" lon="9.5882110">
	<ele>1308.40</ele>
	<time>2023-10-07T06:35:37.000Z</time>
</trkpt>
<trkpt lat="45.9361420" lon="9.5881940">
	<ele>1308.20</ele>
	<time>2023-10-07T06:35:38.000Z</time>
</trkpt>
<trkpt lat="45.9361640" lon="9.5881670">
	<ele>1308.20</ele>
	<time>2023-10-07T06:35:39.000Z</time>
</trkpt>
<trkpt lat="45.9361890" lon="9.5881350">
	<ele>1308.20</ele>
	<time>2023-10-07T06:35:40.000Z</time>
</trkpt>
<trkpt lat="45.9362030" lon="9.5881200">
	<ele>1308.20</ele>
	<time>2023-10-07T06:35:41.000Z</time>
</trkpt>
<trkpt lat="45.9361940" lon="9.5881260">
	<ele>1308.40</ele>
	<time>2023-10-07T06:35:42.000Z</time>
</trkpt>
<trkpt lat="45.9361930" lon="9.5881310">
	<ele>1308.60</ele>
	<time>2023-10-07T06:35:43.000Z</time>
</trkpt>
<trkpt lat="45.9361910" lon="9.5881470">
	<ele>1308.80</ele>
	<time>2023-10-07T06:35:44.000Z</time>
</trkpt>
<trkpt lat="45.9361920" lon="9.5881600">
	<ele>1308.80</ele>
	<time>2023-10-07T06:35:45.000Z</time>
</trkpt>
<trkpt lat="45.9361930" lon="9.5881700">
	<ele>1309.00</ele>
	<time>2023-10-07T06:35:46.000Z</time>
</trkpt>
<trkpt lat="45.9361930" lon="9.5881720">
	<ele>1309.20</ele>
	<time>2023-10-07T06:35:47.000Z</time>
</trkpt>
<trkpt lat="45.9361910" lon="9.5881700">
	<ele>1309.20</ele>
	<time>2023-10-07T06:35:48.000Z</time>
</trkpt>
<trkpt lat="45.9361880" lon="9.5881710">
	<ele>1309.40</ele>
	<time>2023-10-07T06:35:49.000Z</time>
</trkpt>
<trkpt lat="45.9361900" lon="9.5881740">
	<ele>1309.60</ele>
	<time>2023-10-07T06:35:50.000Z</time>
</trkpt>
<trkpt lat="45.9361910" lon="9.5881780">
	<ele>1309.60</ele>
	<time>2023-10-07T06:35:51.000Z</time>
</trkpt>
<trkpt lat="45.9361990" lon="9.5881790">
	<ele>1309.80</ele>
	<time>2023-10-07T06:35:52.000Z</time>
</trkpt>
<trkpt lat="45.9362100" lon="9.5881740">
	<ele>1309.80</ele>
	<time>2023-10-07T06:35:53.000Z</time>
</trkpt>
<trkpt lat="45.9362210" lon="9.5881620">
	<ele>1309.60</ele>
	<time>2023-10-07T06:35:54.000Z</time>
</trkpt>
<trkpt lat="45.9362340" lon="9.5881460">
	<ele>1309.60</ele>
	<time>2023-10-07T06:35:55.000Z</time>
</trkpt>
<trkpt lat="45.9362350" lon="9.5881430">
	<ele>1309.60</ele>
	<time>2023-10-07T06:35:56.000Z</time>
</trkpt>
<trkpt lat="45.9362400" lon="9.5881420">
	<ele>1309.40</ele>
	<time>2023-10-07T06:35:57.000Z</time>
</trkpt>
<trkpt lat="45.9362450" lon="9.5881460">
	<ele>1309.40</ele>
	<time>2023-10-07T06:35:58.000Z</time>
</trkpt>
<trkpt lat="45.9362560" lon="9.5881480">
	<ele>1309.40</ele>
	<time>2023-10-07T06:35:59.000Z</time>
</trkpt>
<trkpt lat="45.9362670" lon="9.5881430">
	<ele>1309.40</ele>
	<time>2023-10-07T06:36:00.000Z</time>
</trkpt>
<trkpt lat="45.9362820" lon="9.5881280">
	<ele>1309.40</ele>
	<time>2023-10-07T06:36:01.000Z</time>
</trkpt>
<trkpt lat="45.9362970" lon="9.5881190">
	<ele>1309.20</ele>
	<time>2023-10-07T06:36:02.000Z</time>
</trkpt>
<trkpt lat="45.9363050" lon="9.5881240">
	<ele>1309.00</ele>
	<time>2023-10-07T06:36:03.000Z</time>
</trkpt>
<trkpt lat="45.9363070" lon="9.5881280">
	<ele>1308.60</ele>
	<time>2023-10-07T06:36:04.000Z</time>
</trkpt>
<trkpt lat="45.9363100" lon="9.5881280">
	<ele>1308.40</ele>
	<time>2023-10-07T06:36:05.000Z</time>
</trkpt>
<trkpt lat="45.9363120" lon="9.5881260">
	<ele>1308.40</ele>
	<time>2023-10-07T06:36:06.000Z</time>
</trkpt>
<trkpt lat="45.9363060" lon="9.5881300">
	<ele>1308.40</ele>
	<time>2023-10-07T06:36:07.000Z</time>
</trkpt>
<trkpt lat="45.9363210" lon="9.5881220">
	<ele>1308.40</ele>
	<time>2023-10-07T06:36:08.000Z</time>
</trkpt>
<trkpt lat="45.9363220" lon="9.5881230">
	<ele>1308.40</ele>
	<time>2023-10-07T06:36:09.000Z</time>
</trkpt>
<trkpt lat="45.9363340" lon="9.5881160">
	<ele>1308.40</ele>
	<time>2023-10-07T06:36:10.000Z</time>
</trkpt>
<trkpt lat="45.9363470" lon="9.5881150">
	<ele>1308.40</ele>
	<time>2023-10-07T06:36:11.000Z</time>
</trkpt>
<trkpt lat="45.9363590" lon="9.5881260">
	<ele>1308.40</ele>
	<time>2023-10-07T06:36:12.000Z</time>
</trkpt>
<trkpt lat="45.9363780" lon="9.5881250">
	<ele>1308.20</ele>
	<time>2023-10-07T06:36:13.000Z</time>
</trkpt>
<trkpt lat="45.9363960" lon="9.5881220">
	<ele>1308.00</ele>
	<time>2023-10-07T06:36:14.000Z</time>
</trkpt>
<trkpt lat="45.9363990" lon="9.5881250">
	<ele>1308.00</ele>
	<time>2023-10-07T06:36:15.000Z</time>
</trkpt>
<trkpt lat="45.9364130" lon="9.5881100">
	<ele>1307.80</ele>
	<time>2023-10-07T06:36:16.000Z</time>
</trkpt>
<trkpt lat="45.9364250" lon="9.5881180">
	<ele>1307.60</ele>
	<time>2023-10-07T06:36:17.000Z</time>
</trkpt>
<trkpt lat="45.9364420" lon="9.5881250">
	<ele>1307.60</ele>
	<time>2023-10-07T06:36:18.000Z</time>
</trkpt>
<trkpt lat="45.9364540" lon="9.5881300">
	<ele>1307.40</ele>
	<time>2023-10-07T06:36:19.000Z</time>
</trkpt>
<trkpt lat="45.9364730" lon="9.5881240">
	<ele>1307.40</ele>
	<time>2023-10-07T06:36:20.000Z</time>
</trkpt>
<trkpt lat="45.9364950" lon="9.5881060">
	<ele>1307.20</ele>
	<time>2023-10-07T06:36:21.000Z</time>
</trkpt>
<trkpt lat="45.9365150" lon="9.5880930">
	<ele>1307.20</ele>
	<time>2023-10-07T06:36:22.000Z</time>
</trkpt>
<trkpt lat="45.9365340" lon="9.5880800">
	<ele>1307.20</ele>
	<time>2023-10-07T06:36:23.000Z</time>
</trkpt>
<trkpt lat="45.9365490" lon="9.5880650">
	<ele>1307.00</ele>
	<time>2023-10-07T06:36:24.000Z</time>
</trkpt>
<trkpt lat="45.9365620" lon="9.5880550">
	<ele>1306.60</ele>
	<time>2023-10-07T06:36:25.000Z</time>
</trkpt>
<trkpt lat="45.9365810" lon="9.5880500">
	<ele>1306.40</ele>
	<time>2023-10-07T06:36:26.000Z</time>
</trkpt>
<trkpt lat="45.9365950" lon="9.5880450">
	<ele>1306.40</ele>
	<time>2023-10-07T06:36:27.000Z</time>
</trkpt>
<trkpt lat="45.9366090" lon="9.5880360">
	<ele>1306.20</ele>
	<time>2023-10-07T06:36:28.000Z</time>
</trkpt>
<trkpt lat="45.9366220" lon="9.5880280">
	<ele>1306.20</ele>
	<time>2023-10-07T06:36:29.000Z</time>
</trkpt>
<trkpt lat="45.9366360" lon="9.5880160">
	<ele>1306.20</ele>
	<time>2023-10-07T06:36:30.000Z</time>
</trkpt>
<trkpt lat="45.9366440" lon="9.5880180">
	<ele>1306.20</ele>
	<time>2023-10-07T06:36:31.000Z</time>
</trkpt>
<trkpt lat="45.9366530" lon="9.5880280">
	<ele>1306.20</ele>
	<time>2023-10-07T06:36:32.000Z</time>
</trkpt>
<trkpt lat="45.9366610" lon="9.5880360">
	<ele>1306.20</ele>
	<time>2023-10-07T06:36:33.000Z</time>
</trkpt>
<trkpt lat="45.9366680" lon="9.5880410">
	<ele>1306.00</ele>
	<time>2023-10-07T06:36:34.000Z</time>
</trkpt>
<trkpt lat="45.9366720" lon="9.5880460">
	<ele>1306.00</ele>
	<time>2023-10-07T06:36:35.000Z</time>
</trkpt>
<trkpt lat="45.9366820" lon="9.5880410">
	<ele>1305.80</ele>
	<time>2023-10-07T06:36:36.000Z</time>
</trkpt>
<trkpt lat="45.9367030" lon="9.5880310">
	<ele>1305.60</ele>
	<time>2023-10-07T06:36:37.000Z</time>
</trkpt>
<trkpt lat="45.9367170" lon="9.5880320">
	<ele>1305.40</ele>
	<time>2023-10-07T06:36:38.000Z</time>
</trkpt>
<trkpt lat="45.9367340" lon="9.5880220">
	<ele>1305.20</ele>
	<time>2023-10-07T06:36:39.000Z</time>
</trkpt>
<trkpt lat="45.9367470" lon="9.5880200">
	<ele>1305.00</ele>
	<time>2023-10-07T06:36:40.000Z</time>
</trkpt>
<trkpt lat="45.9367690" lon="9.5880160">
	<ele>1304.80</ele>
	<time>2023-10-07T06:36:41.000Z</time>
</trkpt>
<trkpt lat="45.9367850" lon="9.5880160">
	<ele>1304.80</ele>
	<time>2023-10-07T06:36:42.000Z</time>
</trkpt>
<trkpt lat="45.9367900" lon="9.5880280">
	<ele>1304.60</ele>
	<time>2023-10-07T06:36:43.000Z</time>
</trkpt>
<trkpt lat="45.9367990" lon="9.5880330">
	<ele>1304.40</ele>
	<time>2023-10-07T06:36:44.000Z</time>
</trkpt>
<trkpt lat="45.9368130" lon="9.5880390">
	<ele>1304.20</ele>
	<time>2023-10-07T06:36:45.000Z</time>
</trkpt>
<trkpt lat="45.9368310" lon="9.5880380">
	<ele>1304.00</ele>
	<time>2023-10-07T06:36:46.000Z</time>
</trkpt>
<trkpt lat="45.9368450" lon="9.5880340">
	<ele>1303.80</ele>
	<time>2023-10-07T06:36:47.000Z</time>
</trkpt>
<trkpt lat="45.9368560" lon="9.5880290">
	<ele>1303.80</ele>
	<time>2023-10-07T06:36:48.000Z</time>
</trkpt>
<trkpt lat="45.9368660" lon="9.5880280">
	<ele>1303.80</ele>
	<time>2023-10-07T06:36:49.000Z</time>
</trkpt>
<trkpt lat="45.9368800" lon="9.5880260">
	<ele>1303.60</ele>
	<time>2023-10-07T06:36:50.000Z</time>
</trkpt>
<trkpt lat="45.9368940" lon="9.5880260">
	<ele>1303.60</ele>
	<time>2023-10-07T06:36:51.000Z</time>
</trkpt>
<trkpt lat="45.9369040" lon="9.5880240">
	<ele>1303.60</ele>
	<time>2023-10-07T06:36:52.000Z</time>
</trkpt>
<trkpt lat="45.9369140" lon="9.5880320">
	<ele>1303.40</ele>
	<time>2023-10-07T06:36:53.000Z</time>
</trkpt>
<trkpt lat="45.9369230" lon="9.5880450">
	<ele>1303.20</ele>
	<time>2023-10-07T06:36:54.000Z</time>
</trkpt>
<trkpt lat="45.9369300" lon="9.5880600">
	<ele>1303.00</ele>
	<time>2023-10-07T06:36:55.000Z</time>
</trkpt>
<trkpt lat="45.9369480" lon="9.5880540">
	<ele>1302.80</ele>
	<time>2023-10-07T06:36:56.000Z</time>
</trkpt>
<trkpt lat="45.9369610" lon="9.5880610">
	<ele>1302.80</ele>
	<time>2023-10-07T06:36:57.000Z</time>
</trkpt>
<trkpt lat="45.9369690" lon="9.5880680">
	<ele>1302.80</ele>
	<time>2023-10-07T06:36:58.000Z</time>
</trkpt>
<trkpt lat="45.9369690" lon="9.5880720">
	<ele>1302.80</ele>
	<time>2023-10-07T06:36:59.000Z</time>
</trkpt>
<trkpt lat="45.9369690" lon="9.5880770">
	<ele>1302.60</ele>
	<time>2023-10-07T06:37:00.000Z</time>
</trkpt>
<trkpt lat="45.9369900" lon="9.5880660">
	<ele>1302.60</ele>
	<time>2023-10-07T06:37:01.000Z</time>
</trkpt>
<trkpt lat="45.9370090" lon="9.5880560">
	<ele>1302.60</ele>
	<time>2023-10-07T06:37:02.000Z</time>
</trkpt>
<trkpt lat="45.9370140" lon="9.5880600">
	<ele>1302.60</ele>
	<time>2023-10-07T06:37:03.000Z</time>
</trkpt>
<trkpt lat="45.9370300" lon="9.5880550">
	<ele>1302.60</ele>
	<time>2023-10-07T06:37:04.000Z</time>
</trkpt>
<trkpt lat="45.9370420" lon="9.5880550">
	<ele>1302.60</ele>
	<time>2023-10-07T06:37:05.000Z</time>
</trkpt>
<trkpt lat="45.9370520" lon="9.5880620">
	<ele>1302.60</ele>
	<time>2023-10-07T06:37:06.000Z</time>
</trkpt>
<trkpt lat="45.9370580" lon="9.5880640">
	<ele>1302.60</ele>
	<time>2023-10-07T06:37:07.000Z</time>
</trkpt>
<trkpt lat="45.9370600" lon="9.5880620">
	<ele>1302.60</ele>
	<time>2023-10-07T06:37:08.000Z</time>
</trkpt>
<trkpt lat="45.9370580" lon="9.5880630">
	<ele>1302.60</ele>
	<time>2023-10-07T06:37:09.000Z</time>
</trkpt>
<trkpt lat="45.9370590" lon="9.5880600">
	<ele>1302.60</ele>
	<time>2023-10-07T06:37:10.000Z</time>
</trkpt>
<trkpt lat="45.9370670" lon="9.5880560">
	<ele>1302.60</ele>
	<time>2023-10-07T06:37:11.000Z</time>
</trkpt>
<trkpt lat="45.9370730" lon="9.5880520">
	<ele>1302.60</ele>
	<time>2023-10-07T06:37:12.000Z</time>
</trkpt>
<trkpt lat="45.9370750" lon="9.5880480">
	<ele>1302.80</ele>
	<time>2023-10-07T06:37:13.000Z</time>
</trkpt>
<trkpt lat="45.9370830" lon="9.5880310">
	<ele>1302.80</ele>
	<time>2023-10-07T06:37:14.000Z</time>
</trkpt>
<trkpt lat="45.9370880" lon="9.5880240">
	<ele>1303.00</ele>
	<time>2023-10-07T06:37:15.000Z</time>
</trkpt>
<trkpt lat="45.9370890" lon="9.5880260">
	<ele>1303.20</ele>
	<time>2023-10-07T06:37:16.000Z</time>
</trkpt>
<trkpt lat="45.9370890" lon="9.5880230">
	<ele>1303.20</ele>
	<time>2023-10-07T06:37:17.000Z</time>
</trkpt>
<trkpt lat="45.9370880" lon="9.5880180">
	<ele>1303.20</ele>
	<time>2023-10-07T06:37:18.000Z</time>
</trkpt>
<trkpt lat="45.9370990" lon="9.5880100">
	<ele>1303.20</ele>
	<time>2023-10-07T06:37:19.000Z</time>
</trkpt>
<trkpt lat="45.9371100" lon="9.5880030">
	<ele>1303.20</ele>
	<time>2023-10-07T06:37:20.000Z</time>
</trkpt>
<trkpt lat="45.9371210" lon="9.5879980">
	<ele>1303.20</ele>
	<time>2023-10-07T06:37:21.000Z</time>
</trkpt>
<trkpt lat="45.9371200" lon="9.5879910">
	<ele>1303.00</ele>
	<time>2023-10-07T06:37:22.000Z</time>
</trkpt>
<trkpt lat="45.9371210" lon="9.5879830">
	<ele>1302.60</ele>
	<time>2023-10-07T06:37:23.000Z</time>
</trkpt>
<trkpt lat="45.9371290" lon="9.5879570">
	<ele>1302.60</ele>
	<time>2023-10-07T06:37:24.000Z</time>
</trkpt>
<trkpt lat="45.9371310" lon="9.5879620">
	<ele>1302.40</ele>
	<time>2023-10-07T06:37:25.000Z</time>
</trkpt>
<trkpt lat="45.9371380" lon="9.5879510">
	<ele>1302.40</ele>
	<time>2023-10-07T06:37:26.000Z</time>
</trkpt>
<trkpt lat="45.9371470" lon="9.5879470">
	<ele>1302.40</ele>
	<time>2023-10-07T06:37:27.000Z</time>
</trkpt>
<trkpt lat="45.9371610" lon="9.5879420">
	<ele>1302.40</ele>
	<time>2023-10-07T06:37:28.000Z</time>
</trkpt>
<trkpt lat="45.9371730" lon="9.5879320">
	<ele>1302.40</ele>
	<time>2023-10-07T06:37:29.000Z</time>
</trkpt>
<trkpt lat="45.9371830" lon="9.5879220">
	<ele>1302.60</ele>
	<time>2023-10-07T06:37:30.000Z</time>
</trkpt>
<trkpt lat="45.9371960" lon="9.5879160">
	<ele>1302.60</ele>
	<time>2023-10-07T06:37:31.000Z</time>
</trkpt>
<trkpt lat="45.9372100" lon="9.5879060">
	<ele>1302.60</ele>
	<time>2023-10-07T06:37:32.000Z</time>
</trkpt>
<trkpt lat="45.9372260" lon="9.5878840">
	<ele>1302.60</ele>
	<time>2023-10-07T06:37:33.000Z</time>
</trkpt>
<trkpt lat="45.9372400" lon="9.5878780">
	<ele>1302.60</ele>
	<time>2023-10-07T06:37:34.000Z</time>
</trkpt>
<trkpt lat="45.9372530" lon="9.5878720">
	<ele>1302.80</ele>
	<time>2023-10-07T06:37:35.000Z</time>
</trkpt>
<trkpt lat="45.9372650" lon="9.5878690">
	<ele>1303.00</ele>
	<time>2023-10-07T06:37:36.000Z</time>
</trkpt>
<trkpt lat="45.9372790" lon="9.5878610">
	<ele>1303.00</ele>
	<time>2023-10-07T06:37:37.000Z</time>
</trkpt>
<trkpt lat="45.9372830" lon="9.5878590">
	<ele>1303.00</ele>
	<time>2023-10-07T06:37:38.000Z</time>
</trkpt>
<trkpt lat="45.9372910" lon="9.5878770">
	<ele>1303.00</ele>
	<time>2023-10-07T06:37:39.000Z</time>
</trkpt>
<trkpt lat="45.9372980" lon="9.5878940">
	<ele>1303.40</ele>
	<time>2023-10-07T06:37:40.000Z</time>
</trkpt>
<trkpt lat="45.9373090" lon="9.5878940">
	<ele>1303.60</ele>
	<time>2023-10-07T06:37:41.000Z</time>
</trkpt>
<trkpt lat="45.9373180" lon="9.5879140">
	<ele>1303.80</ele>
	<time>2023-10-07T06:37:42.000Z</time>
</trkpt>
<trkpt lat="45.9373330" lon="9.5879160">
	<ele>1304.00</ele>
	<time>2023-10-07T06:37:43.000Z</time>
</trkpt>
<trkpt lat="45.9373500" lon="9.5879070">
	<ele>1304.20</ele>
	<time>2023-10-07T06:37:44.000Z</time>
</trkpt>
<trkpt lat="45.9373660" lon="9.5878940">
	<ele>1304.40</ele>
	<time>2023-10-07T06:37:45.000Z</time>
</trkpt>
<trkpt lat="45.9373810" lon="9.5878810">
	<ele>1304.60</ele>
	<time>2023-10-07T06:37:46.000Z</time>
</trkpt>
<trkpt lat="45.9373870" lon="9.5878730">
	<ele>1304.60</ele>
	<time>2023-10-07T06:37:47.000Z</time>
</trkpt>
<trkpt lat="45.9374030" lon="9.5878680">
	<ele>1304.80</ele>
	<time>2023-10-07T06:37:48.000Z</time>
</trkpt>
<trkpt lat="45.9374110" lon="9.5878760">
	<ele>1305.00</ele>
	<time>2023-10-07T06:37:49.000Z</time>
</trkpt>
<trkpt lat="45.9374180" lon="9.5878930">
	<ele>1305.20</ele>
	<time>2023-10-07T06:37:50.000Z</time>
</trkpt>
<trkpt lat="45.9374240" lon="9.5879000">
	<ele>1305.20</ele>
	<time>2023-10-07T06:37:51.000Z</time>
</trkpt>
<trkpt lat="45.9374230" lon="9.5879020">
	<ele>1305.40</ele>
	<time>2023-10-07T06:37:52.000Z</time>
</trkpt>
<trkpt lat="45.9374240" lon="9.5879020">
	<ele>1305.20</ele>
	<time>2023-10-07T06:37:53.000Z</time>
</trkpt>
<trkpt lat="45.9374260" lon="9.5879100">
	<ele>1305.20</ele>
	<time>2023-10-07T06:37:54.000Z</time>
</trkpt>
<trkpt lat="45.9374270" lon="9.5879130">
	<ele>1305.20</ele>
	<time>2023-10-07T06:37:55.000Z</time>
</trkpt>
<trkpt lat="45.9374270" lon="9.5879220">
	<ele>1305.40</ele>
	<time>2023-10-07T06:37:56.000Z</time>
</trkpt>
<trkpt lat="45.9374340" lon="9.5879280">
	<ele>1305.40</ele>
	<time>2023-10-07T06:37:57.000Z</time>
</trkpt>
<trkpt lat="45.9374370" lon="9.5879350">
	<ele>1305.60</ele>
	<time>2023-10-07T06:37:58.000Z</time>
</trkpt>
<trkpt lat="45.9374390" lon="9.5879450">
	<ele>1306.00</ele>
	<time>2023-10-07T06:37:59.000Z</time>
</trkpt>
<trkpt lat="45.9374430" lon="9.5879540">
	<ele>1306.00</ele>
	<time>2023-10-07T06:38:00.000Z</time>
</trkpt>
<trkpt lat="45.9374520" lon="9.5879600">
	<ele>1306.20</ele>
	<time>2023-10-07T06:38:01.000Z</time>
</trkpt>
<trkpt lat="45.9374640" lon="9.5879620">
	<ele>1306.20</ele>
	<time>2023-10-07T06:38:02.000Z</time>
</trkpt>
<trkpt lat="45.9374760" lon="9.5879720">
	<ele>1306.20</ele>
	<time>2023-10-07T06:38:03.000Z</time>
</trkpt>
<trkpt lat="45.9374900" lon="9.5879870">
	<ele>1306.20</ele>
	<time>2023-10-07T06:38:04.000Z</time>
</trkpt>
<trkpt lat="45.9375050" lon="9.5879790">
	<ele>1306.40</ele>
	<time>2023-10-07T06:38:05.000Z</time>
</trkpt>
<trkpt lat="45.9375200" lon="9.5879680">
	<ele>1306.20</ele>
	<time>2023-10-07T06:38:06.000Z</time>
</trkpt>
<trkpt lat="45.9375490" lon="9.5879450">
	<ele>1306.20</ele>
	<time>2023-10-07T06:38:07.000Z</time>
</trkpt>
<trkpt lat="45.9375670" lon="9.5879250">
	<ele>1306.40</ele>
	<time>2023-10-07T06:38:08.000Z</time>
</trkpt>
<trkpt lat="45.9375830" lon="9.5879210">
	<ele>1306.40</ele>
	<time>2023-10-07T06:38:09.000Z</time>
</trkpt>
<trkpt lat="45.9375970" lon="9.5879230">
	<ele>1306.40</ele>
	<time>2023-10-07T06:38:10.000Z</time>
</trkpt>
<trkpt lat="45.9376080" lon="9.5879330">
	<ele>1306.40</ele>
	<time>2023-10-07T06:38:11.000Z</time>
</trkpt>
<trkpt lat="45.9376160" lon="9.5879450">
	<ele>1306.40</ele>
	<time>2023-10-07T06:38:12.000Z</time>
</trkpt>
<trkpt lat="45.9376320" lon="9.5879370">
	<ele>1306.40</ele>
	<time>2023-10-07T06:38:13.000Z</time>
</trkpt>
<trkpt lat="45.9376420" lon="9.5879330">
	<ele>1306.60</ele>
	<time>2023-10-07T06:38:14.000Z</time>
</trkpt>
<trkpt lat="45.9376560" lon="9.5879320">
	<ele>1306.60</ele>
	<time>2023-10-07T06:38:15.000Z</time>
</trkpt>
<trkpt lat="45.9376740" lon="9.5879240">
	<ele>1306.80</ele>
	<time>2023-10-07T06:38:16.000Z</time>
</trkpt>
<trkpt lat="45.9376900" lon="9.5879180">
	<ele>1306.80</ele>
	<time>2023-10-07T06:38:17.000Z</time>
</trkpt>
<trkpt lat="45.9377060" lon="9.5878990">
	<ele>1307.00</ele>
	<time>2023-10-07T06:38:18.000Z</time>
</trkpt>
<trkpt lat="45.9377250" lon="9.5878860">
	<ele>1307.00</ele>
	<time>2023-10-07T06:38:19.000Z</time>
</trkpt>
<trkpt lat="45.9377320" lon="9.5879000">
	<ele>1307.20</ele>
	<time>2023-10-07T06:38:20.000Z</time>
</trkpt>
<trkpt lat="45.9377450" lon="9.5878960">
	<ele>1307.40</ele>
	<time>2023-10-07T06:38:21.000Z</time>
</trkpt>
<trkpt lat="45.9377530" lon="9.5878920">
	<ele>1307.40</ele>
	<time>2023-10-07T06:38:22.000Z</time>
</trkpt>
<trkpt lat="45.9377630" lon="9.5879010">
	<ele>1307.40</ele>
	<time>2023-10-07T06:38:23.000Z</time>
</trkpt>
<trkpt lat="45.9377720" lon="9.5879030">
	<ele>1307.60</ele>
	<time>2023-10-07T06:38:24.000Z</time>
</trkpt>
<trkpt lat="45.9377850" lon="9.5879030">
	<ele>1307.60</ele>
	<time>2023-10-07T06:38:25.000Z</time>
</trkpt>
<trkpt lat="45.9377890" lon="9.5879010">
	<ele>1307.60</ele>
	<time>2023-10-07T06:38:26.000Z</time>
</trkpt>
<trkpt lat="45.9378060" lon="9.5878860">
	<ele>1307.60</ele>
	<time>2023-10-07T06:38:27.000Z</time>
</trkpt>
<trkpt lat="45.9378220" lon="9.5878800">
	<ele>1307.60</ele>
	<time>2023-10-07T06:38:28.000Z</time>
</trkpt>
<trkpt lat="45.9378290" lon="9.5878770">
	<ele>1307.60</ele>
	<time>2023-10-07T06:38:29.000Z</time>
</trkpt>
<trkpt lat="45.9378420" lon="9.5878650">
	<ele>1307.60</ele>
	<time>2023-10-07T06:38:30.000Z</time>
</trkpt>
<trkpt lat="45.9378510" lon="9.5878600">
	<ele>1307.80</ele>
	<time>2023-10-07T06:38:31.000Z</time>
</trkpt>
<trkpt lat="45.9378630" lon="9.5878570">
	<ele>1307.80</ele>
	<time>2023-10-07T06:38:32.000Z</time>
</trkpt>
<trkpt lat="45.9378720" lon="9.5878420">
	<ele>1308.00</ele>
	<time>2023-10-07T06:38:33.000Z</time>
</trkpt>
<trkpt lat="45.9378810" lon="9.5878340">
	<ele>1308.00</ele>
	<time>2023-10-07T06:38:34.000Z</time>
</trkpt>
<trkpt lat="45.9378930" lon="9.5878290">
	<ele>1308.00</ele>
	<time>2023-10-07T06:38:35.000Z</time>
</trkpt>
<trkpt lat="45.9379060" lon="9.5878340">
	<ele>1307.80</ele>
	<time>2023-10-07T06:38:36.000Z</time>
</trkpt>
<trkpt lat="45.9379210" lon="9.5878220">
	<ele>1307.80</ele>
	<time>2023-10-07T06:38:37.000Z</time>
</trkpt>
<trkpt lat="45.9379400" lon="9.5878030">
	<ele>1307.60</ele>
	<time>2023-10-07T06:38:38.000Z</time>
</trkpt>
<trkpt lat="45.9379380" lon="9.5878190">
	<ele>1307.40</ele>
	<time>2023-10-07T06:38:39.000Z</time>
</trkpt>
<trkpt lat="45.9379480" lon="9.5878240">
	<ele>1307.40</ele>
	<time>2023-10-07T06:38:40.000Z</time>
</trkpt>
<trkpt lat="45.9379550" lon="9.5878310">
	<ele>1307.40</ele>
	<time>2023-10-07T06:38:41.000Z</time>
</trkpt>
<trkpt lat="45.9379690" lon="9.5878360">
	<ele>1307.40</ele>
	<time>2023-10-07T06:38:42.000Z</time>
</trkpt>
<trkpt lat="45.9379780" lon="9.5878390">
	<ele>1307.40</ele>
	<time>2023-10-07T06:38:43.000Z</time>
</trkpt>
<trkpt lat="45.9379770" lon="9.5878390">
	<ele>1307.60</ele>
	<time>2023-10-07T06:38:44.000Z</time>
</trkpt>
<trkpt lat="45.9379780" lon="9.5878410">
	<ele>1307.60</ele>
	<time>2023-10-07T06:38:45.000Z</time>
</trkpt>
<trkpt lat="45.9379980" lon="9.5878290">
	<ele>1307.80</ele>
	<time>2023-10-07T06:38:46.000Z</time>
</trkpt>
<trkpt lat="45.9379980" lon="9.5878300">
	<ele>1307.80</ele>
	<time>2023-10-07T06:38:47.000Z</time>
</trkpt>
<trkpt lat="45.9379980" lon="9.5878310">
	<ele>1307.80</ele>
	<time>2023-10-07T06:38:48.000Z</time>
</trkpt>
<trkpt lat="45.9379970" lon="9.5878390">
	<ele>1307.80</ele>
	<time>2023-10-07T06:38:49.000Z</time>
</trkpt>
<trkpt lat="45.9379930" lon="9.5878420">
	<ele>1307.80</ele>
	<time>2023-10-07T06:38:50.000Z</time>
</trkpt>
<trkpt lat="45.9380010" lon="9.5878380">
	<ele>1307.40</ele>
	<time>2023-10-07T06:38:51.000Z</time>
</trkpt>
<trkpt lat="45.9380000" lon="9.5878380">
	<ele>1307.40</ele>
	<time>2023-10-07T06:38:52.000Z</time>
</trkpt>
<trkpt lat="45.9380000" lon="9.5878330">
	<ele>1307.20</ele>
	<time>2023-10-07T06:38:53.000Z</time>
</trkpt>
<trkpt lat="45.9380060" lon="9.5878290">
	<ele>1307.20</ele>
	<time>2023-10-07T06:38:54.000Z</time>
</trkpt>
<trkpt lat="45.9380030" lon="9.5878420">
	<ele>1307.20</ele>
	<time>2023-10-07T06:38:55.000Z</time>
</trkpt>
<trkpt lat="45.9380060" lon="9.5878520">
	<ele>1307.20</ele>
	<time>2023-10-07T06:38:56.000Z</time>
</trkpt>
<trkpt lat="45.9380040" lon="9.5878710">
	<ele>1307.20</ele>
	<time>2023-10-07T06:38:57.000Z</time>
</trkpt>
<trkpt lat="45.9380120" lon="9.5878860">
	<ele>1307.20</ele>
	<time>2023-10-07T06:38:58.000Z</time>
</trkpt>
<trkpt lat="45.9380110" lon="9.5879060">
	<ele>1307.20</ele>
	<time>2023-10-07T06:38:59.000Z</time>
</trkpt>
<trkpt lat="45.9380120" lon="9.5879240">
	<ele>1307.20</ele>
	<time>2023-10-07T06:39:00.000Z</time>
</trkpt>
<trkpt lat="45.9380160" lon="9.5879370">
	<ele>1307.20</ele>
	<time>2023-10-07T06:39:01.000Z</time>
</trkpt>
<trkpt lat="45.9380170" lon="9.5879510">
	<ele>1307.40</ele>
	<time>2023-10-07T06:39:02.000Z</time>
</trkpt>
<trkpt lat="45.9380220" lon="9.5879610">
	<ele>1307.40</ele>
	<time>2023-10-07T06:39:03.000Z</time>
</trkpt>
<trkpt lat="45.9380270" lon="9.5879730">
	<ele>1307.60</ele>
	<time>2023-10-07T06:39:04.000Z</time>
</trkpt>
<trkpt lat="45.9380310" lon="9.5879890">
	<ele>1307.60</ele>
	<time>2023-10-07T06:39:05.000Z</time>
</trkpt>
<trkpt lat="45.9380360" lon="9.5880010">
	<ele>1307.80</ele>
	<time>2023-10-07T06:39:06.000Z</time>
</trkpt>
<trkpt lat="45.9380490" lon="9.5880050">
	<ele>1308.00</ele>
	<time>2023-10-07T06:39:07.000Z</time>
</trkpt>
<trkpt lat="45.9380600" lon="9.5880100">
	<ele>1308.00</ele>
	<time>2023-10-07T06:39:08.000Z</time>
</trkpt>
<trkpt lat="45.9380740" lon="9.5880120">
	<ele>1308.20</ele>
	<time>2023-10-07T06:39:09.000Z</time>
</trkpt>
<trkpt lat="45.9380860" lon="9.5880230">
	<ele>1308.40</ele>
	<time>2023-10-07T06:39:10.000Z</time>
</trkpt>
<trkpt lat="45.9381010" lon="9.5880320">
	<ele>1308.60</ele>
	<time>2023-10-07T06:39:11.000Z</time>
</trkpt>
<trkpt lat="45.9381170" lon="9.5880470">
	<ele>1308.80</ele>
	<time>2023-10-07T06:39:12.000Z</time>
</trkpt>
<trkpt lat="45.9381270" lon="9.5880540">
	<ele>1309.00</ele>
	<time>2023-10-07T06:39:13.000Z</time>
</trkpt>
<trkpt lat="45.9381410" lon="9.5880580">
	<ele>1309.20</ele>
	<time>2023-10-07T06:39:14.000Z</time>
</trkpt>
<trkpt lat="45.9381540" lon="9.5880630">
	<ele>1309.20</ele>
	<time>2023-10-07T06:39:15.000Z</time>
</trkpt>
<trkpt lat="45.9381680" lon="9.5880670">
	<ele>1309.40</ele>
	<time>2023-10-07T06:39:16.000Z</time>
</trkpt>
<trkpt lat="45.9381790" lon="9.5880690">
	<ele>1309.40</ele>
	<time>2023-10-07T06:39:17.000Z</time>
</trkpt>
<trkpt lat="45.9381920" lon="9.5880770">
	<ele>1309.60</ele>
	<time>2023-10-07T06:39:18.000Z</time>
</trkpt>
<trkpt lat="45.9382000" lon="9.5880850">
	<ele>1309.80</ele>
	<time>2023-10-07T06:39:19.000Z</time>
</trkpt>
<trkpt lat="45.9382100" lon="9.5880950">
	<ele>1309.80</ele>
	<time>2023-10-07T06:39:20.000Z</time>
</trkpt>
<trkpt lat="45.9382200" lon="9.5881010">
	<ele>1310.00</ele>
	<time>2023-10-07T06:39:21.000Z</time>
</trkpt>
<trkpt lat="45.9382340" lon="9.5881110">
	<ele>1310.20</ele>
	<time>2023-10-07T06:39:22.000Z</time>
</trkpt>
<trkpt lat="45.9382400" lon="9.5881270">
	<ele>1310.20</ele>
	<time>2023-10-07T06:39:23.000Z</time>
</trkpt>
<trkpt lat="45.9382490" lon="9.5881420">
	<ele>1310.40</ele>
	<time>2023-10-07T06:39:24.000Z</time>
</trkpt>
<trkpt lat="45.9382580" lon="9.5881510">
	<ele>1310.60</ele>
	<time>2023-10-07T06:39:25.000Z</time>
</trkpt>
<trkpt lat="45.9382640" lon="9.5881670">
	<ele>1310.60</ele>
	<time>2023-10-07T06:39:26.000Z</time>
</trkpt>
<trkpt lat="45.9382680" lon="9.5881860">
	<ele>1310.80</ele>
	<time>2023-10-07T06:39:27.000Z</time>
</trkpt>
<trkpt lat="45.9382690" lon="9.5882080">
	<ele>1310.80</ele>
	<time>2023-10-07T06:39:28.000Z</time>
</trkpt>
<trkpt lat="45.9382700" lon="9.5882260">
	<ele>1311.00</ele>
	<time>2023-10-07T06:39:29.000Z</time>
</trkpt>
<trkpt lat="45.9382770" lon="9.5882430">
	<ele>1311.20</ele>
	<time>2023-10-07T06:39:30.000Z</time>
</trkpt>
<trkpt lat="45.9382850" lon="9.5882530">
	<ele>1311.20</ele>
	<time>2023-10-07T06:39:31.000Z</time>
</trkpt>
<trkpt lat="45.9382940" lon="9.5882620">
	<ele>1311.20</ele>
	<time>2023-10-07T06:39:32.000Z</time>
</trkpt>
<trkpt lat="45.9383040" lon="9.5882760">
	<ele>1311.40</ele>
	<time>2023-10-07T06:39:33.000Z</time>
</trkpt>
<trkpt lat="45.9383080" lon="9.5882840">
	<ele>1311.60</ele>
	<time>2023-10-07T06:39:34.000Z</time>
</trkpt>
<trkpt lat="45.9383140" lon="9.5882930">
	<ele>1311.60</ele>
	<time>2023-10-07T06:39:35.000Z</time>
</trkpt>
<trkpt lat="45.9383210" lon="9.5883010">
	<ele>1311.80</ele>
	<time>2023-10-07T06:39:36.000Z</time>
</trkpt>
<trkpt lat="45.9383250" lon="9.5883120">
	<ele>1312.00</ele>
	<time>2023-10-07T06:39:37.000Z</time>
</trkpt>
<trkpt lat="45.9383280" lon="9.5883230">
	<ele>1312.20</ele>
	<time>2023-10-07T06:39:38.000Z</time>
</trkpt>
<trkpt lat="45.9383370" lon="9.5883300">
	<ele>1312.40</ele>
	<time>2023-10-07T06:39:39.000Z</time>
</trkpt>
<trkpt lat="45.9383430" lon="9.5883390">
	<ele>1312.60</ele>
	<time>2023-10-07T06:39:40.000Z</time>
</trkpt>
<trkpt lat="45.9383510" lon="9.5883450">
	<ele>1312.60</ele>
	<time>2023-10-07T06:39:41.000Z</time>
</trkpt>
<trkpt lat="45.9383520" lon="9.5883570">
	<ele>1312.80</ele>
	<time>2023-10-07T06:39:42.000Z</time>
</trkpt>
<trkpt lat="45.9383550" lon="9.5883670">
	<ele>1313.00</ele>
	<time>2023-10-07T06:39:43.000Z</time>
</trkpt>
<trkpt lat="45.9383600" lon="9.5883760">
	<ele>1313.00</ele>
	<time>2023-10-07T06:39:44.000Z</time>
</trkpt>
<trkpt lat="45.9383700" lon="9.5883830">
	<ele>1313.20</ele>
	<time>2023-10-07T06:39:45.000Z</time>
</trkpt>
<trkpt lat="45.9383830" lon="9.5883880">
	<ele>1313.40</ele>
	<time>2023-10-07T06:39:46.000Z</time>
</trkpt>
<trkpt lat="45.9383960" lon="9.5883920">
	<ele>1313.60</ele>
	<time>2023-10-07T06:39:47.000Z</time>
</trkpt>
<trkpt lat="45.9384060" lon="9.5883950">
	<ele>1313.60</ele>
	<time>2023-10-07T06:39:48.000Z</time>
</trkpt>
<trkpt lat="45.9384130" lon="9.5884040">
	<ele>1313.80</ele>
	<time>2023-10-07T06:39:49.000Z</time>
</trkpt>
<trkpt lat="45.9384190" lon="9.5884180">
	<ele>1314.00</ele>
	<time>2023-10-07T06:39:50.000Z</time>
</trkpt>
<trkpt lat="45.9384210" lon="9.5884360">
	<ele>1314.00</ele>
	<time>2023-10-07T06:39:51.000Z</time>
</trkpt>
<trkpt lat="45.9384270" lon="9.5884490">
	<ele>1314.20</ele>
	<time>2023-10-07T06:39:52.000Z</time>
</trkpt>
<trkpt lat="45.9384330" lon="9.5884610">
	<ele>1314.40</ele>
	<time>2023-10-07T06:39:53.000Z</time>
</trkpt>
<trkpt lat="45.9384380" lon="9.5884720">
	<ele>1314.60</ele>
	<time>2023-10-07T06:39:54.000Z</time>
</trkpt>
<trkpt lat="45.9384470" lon="9.5884820">
	<ele>1314.60</ele>
	<time>2023-10-07T06:39:55.000Z</time>
</trkpt>
<trkpt lat="45.9384520" lon="9.5884920">
	<ele>1314.80</ele>
	<time>2023-10-07T06:39:56.000Z</time>
</trkpt>
<trkpt lat="45.9384670" lon="9.5884970">
	<ele>1314.80</ele>
	<time>2023-10-07T06:39:57.000Z</time>
</trkpt>
<trkpt lat="45.9384720" lon="9.5885110">
	<ele>1314.80</ele>
	<time>2023-10-07T06:39:58.000Z</time>
</trkpt>
<trkpt lat="45.9384790" lon="9.5885220">
	<ele>1315.00</ele>
	<time>2023-10-07T06:39:59.000Z</time>
</trkpt>
<trkpt lat="45.9384800" lon="9.5885310">
	<ele>1315.00</ele>
	<time>2023-10-07T06:40:00.000Z</time>
</trkpt>
<trkpt lat="45.9384800" lon="9.5885460">
	<ele>1315.00</ele>
	<time>2023-10-07T06:40:01.000Z</time>
</trkpt>
<trkpt lat="45.9384790" lon="9.5885650">
	<ele>1315.20</ele>
	<time>2023-10-07T06:40:02.000Z</time>
</trkpt>
<trkpt lat="45.9384790" lon="9.5885820">
	<ele>1315.20</ele>
	<time>2023-10-07T06:40:03.000Z</time>
</trkpt>
<trkpt lat="45.9384780" lon="9.5885990">
	<ele>1315.20</ele>
	<time>2023-10-07T06:40:04.000Z</time>
</trkpt>
<trkpt lat="45.9384780" lon="9.5886110">
	<ele>1315.40</ele>
	<time>2023-10-07T06:40:05.000Z</time>
</trkpt>
<trkpt lat="45.9384760" lon="9.5886310">
	<ele>1315.40</ele>
	<time>2023-10-07T06:40:06.000Z</time>
</trkpt>
<trkpt lat="45.9384730" lon="9.5886500">
	<ele>1315.40</ele>
	<time>2023-10-07T06:40:07.000Z</time>
</trkpt>
<trkpt lat="45.9384750" lon="9.5886630">
	<ele>1315.40</ele>
	<time>2023-10-07T06:40:08.000Z</time>
</trkpt>
<trkpt lat="45.9384780" lon="9.5886770">
	<ele>1315.40</ele>
	<time>2023-10-07T06:40:09.000Z</time>
</trkpt>
<trkpt lat="45.9384830" lon="9.5886900">
	<ele>1315.40</ele>
	<time>2023-10-07T06:40:10.000Z</time>
</trkpt>
<trkpt lat="45.9384920" lon="9.5887020">
	<ele>1315.40</ele>
	<time>2023-10-07T06:40:11.000Z</time>
</trkpt>
<trkpt lat="45.9384960" lon="9.5887210">
	<ele>1315.20</ele>
	<time>2023-10-07T06:40:12.000Z</time>
</trkpt>
<trkpt lat="45.9384980" lon="9.5887400">
	<ele>1315.20</ele>
	<time>2023-10-07T06:40:13.000Z</time>
</trkpt>
<trkpt lat="45.9384970" lon="9.5887560">
	<ele>1315.00</ele>
	<time>2023-10-07T06:40:14.000Z</time>
</trkpt>
<trkpt lat="45.9384940" lon="9.5887780">
	<ele>1315.00</ele>
	<time>2023-10-07T06:40:15.000Z</time>
</trkpt>
<trkpt lat="45.9384910" lon="9.5887920">
	<ele>1315.00</ele>
	<time>2023-10-07T06:40:16.000Z</time>
</trkpt>
<trkpt lat="45.9384830" lon="9.5888090">
	<ele>1315.00</ele>
	<time>2023-10-07T06:40:17.000Z</time>
</trkpt>
<trkpt lat="45.9384770" lon="9.5888150">
	<ele>1315.00</ele>
	<time>2023-10-07T06:40:18.000Z</time>
</trkpt>
<trkpt lat="45.9384740" lon="9.5888220">
	<ele>1315.00</ele>
	<time>2023-10-07T06:40:19.000Z</time>
</trkpt>
<trkpt lat="45.9384720" lon="9.5888290">
	<ele>1315.00</ele>
	<time>2023-10-07T06:40:20.000Z</time>
</trkpt>
<trkpt lat="45.9384690" lon="9.5888330">
	<ele>1315.00</ele>
	<time>2023-10-07T06:40:21.000Z</time>
</trkpt>
<trkpt lat="45.9384670" lon="9.5888400">
	<ele>1315.00</ele>
	<time>2023-10-07T06:40:22.000Z</time>
</trkpt>
<trkpt lat="45.9384650" lon="9.5888530">
	<ele>1315.00</ele>
	<time>2023-10-07T06:40:23.000Z</time>
</trkpt>
<trkpt lat="45.9384620" lon="9.5888670">
	<ele>1315.00</ele>
	<time>2023-10-07T06:40:24.000Z</time>
</trkpt>
<trkpt lat="45.9384580" lon="9.5888820">
	<ele>1315.00</ele>
	<time>2023-10-07T06:40:25.000Z</time>
</trkpt>
<trkpt lat="45.9384540" lon="9.5888950">
	<ele>1315.20</ele>
	<time>2023-10-07T06:40:26.000Z</time>
</trkpt>
<trkpt lat="45.9384500" lon="9.5889050">
	<ele>1315.20</ele>
	<time>2023-10-07T06:40:27.000Z</time>
</trkpt>
<trkpt lat="45.9384420" lon="9.5889170">
	<ele>1315.40</ele>
	<time>2023-10-07T06:40:28.000Z</time>
</trkpt>
<trkpt lat="45.9384330" lon="9.5889310">
	<ele>1315.40</ele>
	<time>2023-10-07T06:40:29.000Z</time>
</trkpt>
<trkpt lat="45.9384220" lon="9.5889540">
	<ele>1315.40</ele>
	<time>2023-10-07T06:40:30.000Z</time>
</trkpt>
<trkpt lat="45.9384120" lon="9.5889780">
	<ele>1315.60</ele>
	<time>2023-10-07T06:40:31.000Z</time>
</trkpt>
<trkpt lat="45.9384060" lon="9.5889940">
	<ele>1315.60</ele>
	<time>2023-10-07T06:40:32.000Z</time>
</trkpt>
<trkpt lat="45.9384050" lon="9.5890010">
	<ele>1315.80</ele>
	<time>2023-10-07T06:40:33.000Z</time>
</trkpt>
<trkpt lat="45.9384040" lon="9.5890150">
	<ele>1316.00</ele>
	<time>2023-10-07T06:40:34.000Z</time>
</trkpt>
<trkpt lat="45.9384020" lon="9.5890270">
	<ele>1316.00</ele>
	<time>2023-10-07T06:40:35.000Z</time>
</trkpt>
<trkpt lat="45.9384000" lon="9.5890380">
	<ele>1316.00</ele>
	<time>2023-10-07T06:40:36.000Z</time>
</trkpt>
<trkpt lat="45.9383960" lon="9.5890490">
	<ele>1316.00</ele>
	<time>2023-10-07T06:40:37.000Z</time>
</trkpt>
<trkpt lat="45.9383930" lon="9.5890640">
	<ele>1316.20</ele>
	<time>2023-10-07T06:40:38.000Z</time>
</trkpt>
<trkpt lat="45.9383920" lon="9.5890730">
	<ele>1316.20</ele>
	<time>2023-10-07T06:40:39.000Z</time>
</trkpt>
<trkpt lat="45.9383890" lon="9.5890850">
	<ele>1316.40</ele>
	<time>2023-10-07T06:40:40.000Z</time>
</trkpt>
<trkpt lat="45.9383860" lon="9.5890960">
	<ele>1316.60</ele>
	<time>2023-10-07T06:40:41.000Z</time>
</trkpt>
<trkpt lat="45.9383800" lon="9.5891050">
	<ele>1316.80</ele>
	<time>2023-10-07T06:40:42.000Z</time>
</trkpt>
<trkpt lat="45.9383720" lon="9.5891190">
	<ele>1316.80</ele>
	<time>2023-10-07T06:40:43.000Z</time>
</trkpt>
<trkpt lat="45.9383590" lon="9.5891400">
	<ele>1317.00</ele>
	<time>2023-10-07T06:40:44.000Z</time>
</trkpt>
<trkpt lat="45.9383460" lon="9.5891630">
	<ele>1317.00</ele>
	<time>2023-10-07T06:40:45.000Z</time>
</trkpt>
<trkpt lat="45.9383380" lon="9.5891820">
	<ele>1317.00</ele>
	<time>2023-10-07T06:40:46.000Z</time>
</trkpt>
<trkpt lat="45.9383320" lon="9.5891990">
	<ele>1317.00</ele>
	<time>2023-10-07T06:40:47.000Z</time>
</trkpt>
<trkpt lat="45.9383280" lon="9.5892100">
	<ele>1317.00</ele>
	<time>2023-10-07T06:40:48.000Z</time>
</trkpt>
<trkpt lat="45.9383230" lon="9.5892230">
	<ele>1317.00</ele>
	<time>2023-10-07T06:40:49.000Z</time>
</trkpt>
<trkpt lat="45.9383150" lon="9.5892410">
	<ele>1317.00</ele>
	<time>2023-10-07T06:40:50.000Z</time>
</trkpt>
<trkpt lat="45.9383060" lon="9.5892580">
	<ele>1317.00</ele>
	<time>2023-10-07T06:40:51.000Z</time>
</trkpt>
<trkpt lat="45.9382990" lon="9.5892750">
	<ele>1317.20</ele>
	<time>2023-10-07T06:40:52.000Z</time>
</trkpt>
<trkpt lat="45.9382870" lon="9.5892970">
	<ele>1317.20</ele>
	<time>2023-10-07T06:40:53.000Z</time>
</trkpt>
<trkpt lat="45.9382760" lon="9.5893100">
	<ele>1317.40</ele>
	<time>2023-10-07T06:40:54.000Z</time>
</trkpt>
<trkpt lat="45.9382650" lon="9.5893170">
	<ele>1317.40</ele>
	<time>2023-10-07T06:40:55.000Z</time>
</trkpt>
<trkpt lat="45.9382550" lon="9.5893300">
	<ele>1317.40</ele>
	<time>2023-10-07T06:40:56.000Z</time>
</trkpt>
<trkpt lat="45.9382460" lon="9.5893400">
	<ele>1317.60</ele>
	<time>2023-10-07T06:40:57.000Z</time>
</trkpt>
<trkpt lat="45.9382390" lon="9.5893440">
	<ele>1317.60</ele>
	<time>2023-10-07T06:40:58.000Z</time>
</trkpt>
<trkpt lat="45.9382350" lon="9.5893570">
	<ele>1317.60</ele>
	<time>2023-10-07T06:40:59.000Z</time>
</trkpt>
<trkpt lat="45.9382270" lon="9.5893730">
	<ele>1317.60</ele>
	<time>2023-10-07T06:41:00.000Z</time>
</trkpt>
<trkpt lat="45.9382190" lon="9.5893810">
	<ele>1317.60</ele>
	<time>2023-10-07T06:41:01.000Z</time>
</trkpt>
<trkpt lat="45.9382090" lon="9.5893890">
	<ele>1317.80</ele>
	<time>2023-10-07T06:41:02.000Z</time>
</trkpt>
<trkpt lat="45.9382030" lon="9.5893930">
	<ele>1317.80</ele>
	<time>2023-10-07T06:41:03.000Z</time>
</trkpt>
<trkpt lat="45.9381980" lon="9.5894000">
	<ele>1318.00</ele>
	<time>2023-10-07T06:41:04.000Z</time>
</trkpt>
<trkpt lat="45.9381920" lon="9.5894160">
	<ele>1318.20</ele>
	<time>2023-10-07T06:41:05.000Z</time>
</trkpt>
<trkpt lat="45.9381910" lon="9.5894320">
	<ele>1318.40</ele>
	<time>2023-10-07T06:41:06.000Z</time>
</trkpt>
<trkpt lat="45.9381910" lon="9.5894400">
	<ele>1318.40</ele>
	<time>2023-10-07T06:41:07.000Z</time>
</trkpt>
<trkpt lat="45.9381870" lon="9.5894510">
	<ele>1318.60</ele>
	<time>2023-10-07T06:41:08.000Z</time>
</trkpt>
<trkpt lat="45.9381790" lon="9.5894630">
	<ele>1318.60</ele>
	<time>2023-10-07T06:41:09.000Z</time>
</trkpt>
<trkpt lat="45.9381690" lon="9.5894810">
	<ele>1318.60</ele>
	<time>2023-10-07T06:41:10.000Z</time>
</trkpt>
<trkpt lat="45.9381600" lon="9.5895000">
	<ele>1318.80</ele>
	<time>2023-10-07T06:41:11.000Z</time>
</trkpt>
<trkpt lat="45.9381500" lon="9.5895120">
	<ele>1319.00</ele>
	<time>2023-10-07T06:41:12.000Z</time>
</trkpt>
<trkpt lat="45.9381450" lon="9.5895190">
	<ele>1319.00</ele>
	<time>2023-10-07T06:41:13.000Z</time>
</trkpt>
<trkpt lat="45.9381390" lon="9.5895340">
	<ele>1319.20</ele>
	<time>2023-10-07T06:41:14.000Z</time>
</trkpt>
<trkpt lat="45.9381340" lon="9.5895480">
	<ele>1319.20</ele>
	<time>2023-10-07T06:41:15.000Z</time>
</trkpt>
<trkpt lat="45.9381290" lon="9.5895620">
	<ele>1319.20</ele>
	<time>2023-10-07T06:41:16.000Z</time>
</trkpt>
<trkpt lat="45.9381220" lon="9.5895790">
	<ele>1319.20</ele>
	<time>2023-10-07T06:41:17.000Z</time>
</trkpt>
<trkpt lat="45.9381180" lon="9.5895860">
	<ele>1319.20</ele>
	<time>2023-10-07T06:41:18.000Z</time>
</trkpt>
<trkpt lat="45.9381130" lon="9.5895960">
	<ele>1319.20</ele>
	<time>2023-10-07T06:41:19.000Z</time>
</trkpt>
<trkpt lat="45.9381070" lon="9.5896030">
	<ele>1319.40</ele>
	<time>2023-10-07T06:41:20.000Z</time>
</trkpt>
<trkpt lat="45.9381010" lon="9.5896140">
	<ele>1319.40</ele>
	<time>2023-10-07T06:41:21.000Z</time>
</trkpt>
<trkpt lat="45.9380930" lon="9.5896370">
	<ele>1319.60</ele>
	<time>2023-10-07T06:41:22.000Z</time>
</trkpt>
<trkpt lat="45.9380890" lon="9.5896520">
	<ele>1319.60</ele>
	<time>2023-10-07T06:41:23.000Z</time>
</trkpt>
<trkpt lat="45.9380840" lon="9.5896640">
	<ele>1319.40</ele>
	<time>2023-10-07T06:41:24.000Z</time>
</trkpt>
<trkpt lat="45.9380800" lon="9.5896710">
	<ele>1319.40</ele>
	<time>2023-10-07T06:41:25.000Z</time>
</trkpt>
<trkpt lat="45.9380740" lon="9.5896870">
	<ele>1319.40</ele>
	<time>2023-10-07T06:41:26.000Z</time>
</trkpt>
<trkpt lat="45.9380670" lon="9.5897000">
	<ele>1319.40</ele>
	<time>2023-10-07T06:41:27.000Z</time>
</trkpt>
<trkpt lat="45.9380640" lon="9.5897100">
	<ele>1319.40</ele>
	<time>2023-10-07T06:41:28.000Z</time>
</trkpt>
<trkpt lat="45.9380620" lon="9.5897220">
	<ele>1319.40</ele>
	<time>2023-10-07T06:41:29.000Z</time>
</trkpt>
<trkpt lat="45.9380590" lon="9.5897430">
	<ele>1319.40</ele>
	<time>2023-10-07T06:41:30.000Z</time>
</trkpt>
<trkpt lat="45.9380550" lon="9.5897590">
	<ele>1319.60</ele>
	<time>2023-10-07T06:41:31.000Z</time>
</trkpt>
<trkpt lat="45.9380510" lon="9.5897810">
	<ele>1319.60</ele>
	<time>2023-10-07T06:41:32.000Z</time>
</trkpt>
<trkpt lat="45.9380530" lon="9.5898010">
	<ele>1319.60</ele>
	<time>2023-10-07T06:41:33.000Z</time>
</trkpt>
<trkpt lat="45.9380480" lon="9.5898190">
	<ele>1319.80</ele>
	<time>2023-10-07T06:41:34.000Z</time>
</trkpt>
<trkpt lat="45.9380530" lon="9.5898260">
	<ele>1319.80</ele>
	<time>2023-10-07T06:41:35.000Z</time>
</trkpt>
<trkpt lat="45.9380580" lon="9.5898390">
	<ele>1319.80</ele>
	<time>2023-10-07T06:41:36.000Z</time>
</trkpt>
<trkpt lat="45.9380640" lon="9.5898520">
	<ele>1320.00</ele>
	<time>2023-10-07T06:41:37.000Z</time>
</trkpt>
<trkpt lat="45.9380650" lon="9.5898620">
	<ele>1320.20</ele>
	<time>2023-10-07T06:41:38.000Z</time>
</trkpt>
<trkpt lat="45.9380620" lon="9.5898680">
	<ele>1320.40</ele>
	<time>2023-10-07T06:41:39.000Z</time>
</trkpt>
<trkpt lat="45.9380620" lon="9.5898770">
	<ele>1320.60</ele>
	<time>2023-10-07T06:41:40.000Z</time>
</trkpt>
<trkpt lat="45.9380640" lon="9.5898980">
	<ele>1320.60</ele>
	<time>2023-10-07T06:41:41.000Z</time>
</trkpt>
<trkpt lat="45.9380620" lon="9.5899190">
	<ele>1320.80</ele>
	<time>2023-10-07T06:41:42.000Z</time>
</trkpt>
<trkpt lat="45.9380610" lon="9.5899360">
	<ele>1321.00</ele>
	<time>2023-10-07T06:41:43.000Z</time>
</trkpt>
<trkpt lat="45.9380600" lon="9.5899510">
	<ele>1321.00</ele>
	<time>2023-10-07T06:41:44.000Z</time>
</trkpt>
<trkpt lat="45.9380590" lon="9.5899640">
	<ele>1321.00</ele>
	<time>2023-10-07T06:41:45.000Z</time>
</trkpt>
<trkpt lat="45.9380540" lon="9.5899680">
	<ele>1321.00</ele>
	<time>2023-10-07T06:41:46.000Z</time>
</trkpt>
<trkpt lat="45.9380500" lon="9.5899860">
	<ele>1321.00</ele>
	<time>2023-10-07T06:41:47.000Z</time>
</trkpt>
<trkpt lat="45.9380440" lon="9.5900030">
	<ele>1321.00</ele>
	<time>2023-10-07T06:41:48.000Z</time>
</trkpt>
<trkpt lat="45.9380390" lon="9.5900180">
	<ele>1321.00</ele>
	<time>2023-10-07T06:41:49.000Z</time>
</trkpt>
<trkpt lat="45.9380350" lon="9.5900310">
	<ele>1321.00</ele>
	<time>2023-10-07T06:41:50.000Z</time>
</trkpt>
<trkpt lat="45.9380350" lon="9.5900550">
	<ele>1321.00</ele>
	<time>2023-10-07T06:41:51.000Z</time>
</trkpt>
<trkpt lat="45.9380310" lon="9.5900650">
	<ele>1321.00</ele>
	<time>2023-10-07T06:41:52.000Z</time>
</trkpt>
<trkpt lat="45.9380300" lon="9.5900780">
	<ele>1321.00</ele>
	<time>2023-10-07T06:41:53.000Z</time>
</trkpt>
<trkpt lat="45.9380240" lon="9.5900960">
	<ele>1321.00</ele>
	<time>2023-10-07T06:41:54.000Z</time>
</trkpt>
<trkpt lat="45.9380190" lon="9.5901160">
	<ele>1321.00</ele>
	<time>2023-10-07T06:41:55.000Z</time>
</trkpt>
<trkpt lat="45.9380150" lon="9.5901350">
	<ele>1321.00</ele>
	<time>2023-10-07T06:41:56.000Z</time>
</trkpt>
<trkpt lat="45.9380120" lon="9.5901470">
	<ele>1321.00</ele>
	<time>2023-10-07T06:41:57.000Z</time>
</trkpt>
<trkpt lat="45.9380040" lon="9.5901640">
	<ele>1320.80</ele>
	<time>2023-10-07T06:41:58.000Z</time>
</trkpt>
<trkpt lat="45.9379970" lon="9.5901830">
	<ele>1320.80</ele>
	<time>2023-10-07T06:41:59.000Z</time>
</trkpt>
<trkpt lat="45.9379920" lon="9.5901960">
	<ele>1320.80</ele>
	<time>2023-10-07T06:42:00.000Z</time>
</trkpt>
<trkpt lat="45.9379850" lon="9.5902120">
	<ele>1320.80</ele>
	<time>2023-10-07T06:42:01.000Z</time>
</trkpt>
<trkpt lat="45.9379780" lon="9.5902280">
	<ele>1320.80</ele>
	<time>2023-10-07T06:42:02.000Z</time>
</trkpt>
<trkpt lat="45.9379740" lon="9.5902440">
	<ele>1320.80</ele>
	<time>2023-10-07T06:42:03.000Z</time>
</trkpt>
<trkpt lat="45.9379720" lon="9.5902620">
	<ele>1320.80</ele>
	<time>2023-10-07T06:42:04.000Z</time>
</trkpt>
<trkpt lat="45.9379700" lon="9.5902790">
	<ele>1320.80</ele>
	<time>2023-10-07T06:42:05.000Z</time>
</trkpt>
<trkpt lat="45.9379730" lon="9.5902910">
	<ele>1320.80</ele>
	<time>2023-10-07T06:42:06.000Z</time>
</trkpt>
<trkpt lat="45.9379750" lon="9.5903060">
	<ele>1320.80</ele>
	<time>2023-10-07T06:42:07.000Z</time>
</trkpt>
<trkpt lat="45.9379750" lon="9.5903240">
	<ele>1320.80</ele>
	<time>2023-10-07T06:42:08.000Z</time>
</trkpt>
<trkpt lat="45.9379750" lon="9.5903430">
	<ele>1321.00</ele>
	<time>2023-10-07T06:42:09.000Z</time>
</trkpt>
<trkpt lat="45.9379760" lon="9.5903550">
	<ele>1321.20</ele>
	<time>2023-10-07T06:42:10.000Z</time>
</trkpt>
<trkpt lat="45.9379770" lon="9.5903730">
	<ele>1321.40</ele>
	<time>2023-10-07T06:42:11.000Z</time>
</trkpt>
<trkpt lat="45.9379780" lon="9.5903800">
	<ele>1321.40</ele>
	<time>2023-10-07T06:42:12.000Z</time>
</trkpt>
<trkpt lat="45.9379760" lon="9.5903950">
	<ele>1321.40</ele>
	<time>2023-10-07T06:42:13.000Z</time>
</trkpt>
<trkpt lat="45.9379770" lon="9.5904020">
	<ele>1321.60</ele>
	<time>2023-10-07T06:42:14.000Z</time>
</trkpt>
<trkpt lat="45.9379760" lon="9.5904150">
	<ele>1321.60</ele>
	<time>2023-10-07T06:42:15.000Z</time>
</trkpt>
<trkpt lat="45.9379740" lon="9.5904350">
	<ele>1321.80</ele>
	<time>2023-10-07T06:42:16.000Z</time>
</trkpt>
<trkpt lat="45.9379710" lon="9.5904530">
	<ele>1322.00</ele>
	<time>2023-10-07T06:42:17.000Z</time>
</trkpt>
<trkpt lat="45.9379670" lon="9.5904630">
	<ele>1322.00</ele>
	<time>2023-10-07T06:42:18.000Z</time>
</trkpt>
<trkpt lat="45.9379660" lon="9.5904770">
	<ele>1322.00</ele>
	<time>2023-10-07T06:42:19.000Z</time>
</trkpt>
<trkpt lat="45.9379660" lon="9.5904940">
	<ele>1322.20</ele>
	<time>2023-10-07T06:42:20.000Z</time>
</trkpt>
<trkpt lat="45.9379650" lon="9.5905120">
	<ele>1322.40</ele>
	<time>2023-10-07T06:42:21.000Z</time>
</trkpt>
<trkpt lat="45.9379670" lon="9.5905290">
	<ele>1322.60</ele>
	<time>2023-10-07T06:42:22.000Z</time>
</trkpt>
<trkpt lat="45.9379710" lon="9.5905390">
	<ele>1322.60</ele>
	<time>2023-10-07T06:42:23.000Z</time>
</trkpt>
<trkpt lat="45.9379710" lon="9.5905550">
	<ele>1322.60</ele>
	<time>2023-10-07T06:42:24.000Z</time>
</trkpt>
<trkpt lat="45.9379680" lon="9.5905730">
	<ele>1322.60</ele>
	<time>2023-10-07T06:42:25.000Z</time>
</trkpt>
<trkpt lat="45.9379690" lon="9.5905870">
	<ele>1322.40</ele>
	<time>2023-10-07T06:42:26.000Z</time>
</trkpt>
<trkpt lat="45.9379710" lon="9.5906030">
	<ele>1322.40</ele>
	<time>2023-10-07T06:42:27.000Z</time>
</trkpt>
<trkpt lat="45.9379740" lon="9.5906190">
	<ele>1322.40</ele>
	<time>2023-10-07T06:42:28.000Z</time>
</trkpt>
<trkpt lat="45.9379780" lon="9.5906340">
	<ele>1322.20</ele>
	<time>2023-10-07T06:42:29.000Z</time>
</trkpt>
<trkpt lat="45.9379800" lon="9.5906460">
	<ele>1322.20</ele>
	<time>2023-10-07T06:42:30.000Z</time>
</trkpt>
<trkpt lat="45.9379790" lon="9.5906550">
	<ele>1322.20</ele>
	<time>2023-10-07T06:42:31.000Z</time>
</trkpt>
<trkpt lat="45.9379790" lon="9.5906620">
	<ele>1322.20</ele>
	<time>2023-10-07T06:42:32.000Z</time>
</trkpt>
<trkpt lat="45.9379820" lon="9.5906630">
	<ele>1322.20</ele>
	<time>2023-10-07T06:42:33.000Z</time>
</trkpt>
<trkpt lat="45.9379830" lon="9.5906640">
	<ele>1322.40</ele>
	<time>2023-10-07T06:42:34.000Z</time>
</trkpt>
<trkpt lat="45.9379830" lon="9.5906640">
	<ele>1322.60</ele>
	<time>2023-10-07T06:42:35.000Z</time>
</trkpt>
<trkpt lat="45.9379830" lon="9.5906630">
	<ele>1322.60</ele>
	<time>2023-10-07T06:42:36.000Z</time>
</trkpt>
<trkpt lat="45.9379830" lon="9.5906640">
	<ele>1322.80</ele>
	<time>2023-10-07T06:42:37.000Z</time>
</trkpt>
<trkpt lat="45.9379840" lon="9.5906640">
	<ele>1322.80</ele>
	<time>2023-10-07T06:42:38.000Z</time>
</trkpt>
<trkpt lat="45.9379850" lon="9.5906640">
	<ele>1322.80</ele>
	<time>2023-10-07T06:42:39.000Z</time>
</trkpt>
<trkpt lat="45.9379860" lon="9.5906620">
	<ele>1322.80</ele>
	<time>2023-10-07T06:42:40.000Z</time>
</trkpt>
<trkpt lat="45.9379860" lon="9.5906600">
	<ele>1322.80</ele>
	<time>2023-10-07T06:42:41.000Z</time>
</trkpt>
<trkpt lat="45.9379840" lon="9.5906570">
	<ele>1322.60</ele>
	<time>2023-10-07T06:42:42.000Z</time>
</trkpt>
<trkpt lat="45.9379840" lon="9.5906540">
	<ele>1322.40</ele>
	<time>2023-10-07T06:42:43.000Z</time>
</trkpt>
<trkpt lat="45.9379840" lon="9.5906540">
	<ele>1322.40</ele>
	<time>2023-10-07T06:42:44.000Z</time>
</trkpt>
<trkpt lat="45.9379830" lon="9.5906550">
	<ele>1322.20</ele>
	<time>2023-10-07T06:42:45.000Z</time>
</trkpt>
<trkpt lat="45.9379830" lon="9.5906550">
	<ele>1322.20</ele>
	<time>2023-10-07T06:42:46.000Z</time>
</trkpt>
<trkpt lat="45.9379830" lon="9.5906550">
	<ele>1322.20</ele>
	<time>2023-10-07T06:42:47.000Z</time>
</trkpt>
<trkpt lat="45.9379830" lon="9.5906550">
	<ele>1322.00</ele>
	<time>2023-10-07T06:42:48.000Z</time>
</trkpt>
<trkpt lat="45.9379830" lon="9.5906550">
	<ele>1322.00</ele>
	<time>2023-10-07T06:42:49.000Z</time>
</trkpt>
<trkpt lat="45.9379830" lon="9.5906550">
	<ele>1322.00</ele>
	<time>2023-10-07T06:42:50.000Z</time>
</trkpt>
<trkpt lat="45.9379830" lon="9.5906550">
	<ele>1322.00</ele>
	<time>2023-10-07T06:42:51.000Z</time>
</trkpt>
<trkpt lat="45.9379840" lon="9.5906610">
	<ele>1322.00</ele>
	<time>2023-10-07T06:42:52.000Z</time>
</trkpt>
<trkpt lat="45.9379820" lon="9.5906860">
	<ele>1322.00</ele>
	<time>2023-10-07T06:42:53.000Z</time>
</trkpt>
<trkpt lat="45.9379830" lon="9.5907100">
	<ele>1321.80</ele>
	<time>2023-10-07T06:42:54.000Z</time>
</trkpt>
<trkpt lat="45.9379850" lon="9.5907360">
	<ele>1321.80</ele>
	<time>2023-10-07T06:42:55.000Z</time>
</trkpt>
<trkpt lat="45.9379840" lon="9.5907610">
	<ele>1321.80</ele>
	<time>2023-10-07T06:42:56.000Z</time>
</trkpt>
<trkpt lat="45.9379840" lon="9.5907860">
	<ele>1321.80</ele>
	<time>2023-10-07T06:42:57.000Z</time>
</trkpt>
<trkpt lat="45.9379840" lon="9.5908080">
	<ele>1322.00</ele>
	<time>2023-10-07T06:42:58.000Z</time>
</trkpt>
<trkpt lat="45.9379870" lon="9.5908290">
	<ele>1322.00</ele>
	<time>2023-10-07T06:42:59.000Z</time>
</trkpt>
<trkpt lat="45.9379870" lon="9.5908550">
	<ele>1322.00</ele>
	<time>2023-10-07T06:43:00.000Z</time>
</trkpt>
<trkpt lat="45.9379910" lon="9.5908750">
	<ele>1321.80</ele>
	<time>2023-10-07T06:43:01.000Z</time>
</trkpt>
<trkpt lat="45.9379940" lon="9.5908910">
	<ele>1322.00</ele>
	<time>2023-10-07T06:43:02.000Z</time>
</trkpt>
<trkpt lat="45.9379930" lon="9.5909070">
	<ele>1322.00</ele>
	<time>2023-10-07T06:43:03.000Z</time>
</trkpt>
<trkpt lat="45.9379960" lon="9.5909220">
	<ele>1322.00</ele>
	<time>2023-10-07T06:43:04.000Z</time>
</trkpt>
<trkpt lat="45.9380000" lon="9.5909370">
	<ele>1322.00</ele>
	<time>2023-10-07T06:43:05.000Z</time>
</trkpt>
<trkpt lat="45.9380020" lon="9.5909500">
	<ele>1322.00</ele>
	<time>2023-10-07T06:43:06.000Z</time>
</trkpt>
<trkpt lat="45.9380070" lon="9.5909590">
	<ele>1322.20</ele>
	<time>2023-10-07T06:43:07.000Z</time>
</trkpt>
<trkpt lat="45.9380160" lon="9.5909640">
	<ele>1322.20</ele>
	<time>2023-10-07T06:43:08.000Z</time>
</trkpt>
<trkpt lat="45.9380250" lon="9.5909710">
	<ele>1322.40</ele>
	<time>2023-10-07T06:43:09.000Z</time>
</trkpt>
<trkpt lat="45.9380320" lon="9.5909830">
	<ele>1322.60</ele>
	<time>2023-10-07T06:43:10.000Z</time>
</trkpt>
<trkpt lat="45.9380370" lon="9.5909920">
	<ele>1322.60</ele>
	<time>2023-10-07T06:43:11.000Z</time>
</trkpt>
<trkpt lat="45.9380470" lon="9.5910060">
	<ele>1322.80</ele>
	<time>2023-10-07T06:43:12.000Z</time>
</trkpt>
<trkpt lat="45.9380540" lon="9.5910100">
	<ele>1322.80</ele>
	<time>2023-10-07T06:43:13.000Z</time>
</trkpt>
<trkpt lat="45.9380520" lon="9.5910200">
	<ele>1323.00</ele>
	<time>2023-10-07T06:43:14.000Z</time>
</trkpt>
<trkpt lat="45.9380540" lon="9.5910230">
	<ele>1323.00</ele>
	<time>2023-10-07T06:43:15.000Z</time>
</trkpt>
<trkpt lat="45.9380550" lon="9.5910240">
	<ele>1323.00</ele>
	<time>2023-10-07T06:43:16.000Z</time>
</trkpt>
<trkpt lat="45.9380570" lon="9.5910260">
	<ele>1323.00</ele>
	<time>2023-10-07T06:43:17.000Z</time>
</trkpt>
<trkpt lat="45.9380580" lon="9.5910270">
	<ele>1323.00</ele>
	<time>2023-10-07T06:43:18.000Z</time>
</trkpt>
<trkpt lat="45.9380590" lon="9.5910280">
	<ele>1323.00</ele>
	<time>2023-10-07T06:43:19.000Z</time>
</trkpt>
<trkpt lat="45.9380590" lon="9.5910290">
	<ele>1323.20</ele>
	<time>2023-10-07T06:43:20.000Z</time>
</trkpt>
<trkpt lat="45.9380600" lon="9.5910300">
	<ele>1323.20</ele>
	<time>2023-10-07T06:43:21.000Z</time>
</trkpt>
<trkpt lat="45.9380600" lon="9.5910300">
	<ele>1323.20</ele>
	<time>2023-10-07T06:43:22.000Z</time>
</trkpt>
<trkpt lat="45.9380590" lon="9.5910290">
	<ele>1323.20</ele>
	<time>2023-10-07T06:43:23.000Z</time>
</trkpt>
<trkpt lat="45.9380600" lon="9.5910280">
	<ele>1323.20</ele>
	<time>2023-10-07T06:43:24.000Z</time>
</trkpt>
<trkpt lat="45.9380610" lon="9.5910290">
	<ele>1323.20</ele>
	<time>2023-10-07T06:43:25.000Z</time>
</trkpt>
<trkpt lat="45.9380620" lon="9.5910290">
	<ele>1323.20</ele>
	<time>2023-10-07T06:43:26.000Z</time>
</trkpt>
<trkpt lat="45.9380610" lon="9.5910300">
	<ele>1323.20</ele>
	<time>2023-10-07T06:43:27.000Z</time>
</trkpt>
<trkpt lat="45.9380620" lon="9.5910260">
	<ele>1323.00</ele>
	<time>2023-10-07T06:43:28.000Z</time>
</trkpt>
<trkpt lat="45.9380580" lon="9.5910200">
	<ele>1323.00</ele>
	<time>2023-10-07T06:43:29.000Z</time>
</trkpt>
<trkpt lat="45.9380550" lon="9.5910170">
	<ele>1323.00</ele>
	<time>2023-10-07T06:43:30.000Z</time>
</trkpt>
<trkpt lat="45.9380550" lon="9.5910170">
	<ele>1322.80</ele>
	<time>2023-10-07T06:43:31.000Z</time>
</trkpt>
<trkpt lat="45.9380550" lon="9.5910170">
	<ele>1322.80</ele>
	<time>2023-10-07T06:43:32.000Z</time>
</trkpt>
<trkpt lat="45.9380550" lon="9.5910170">
	<ele>1322.80</ele>
	<time>2023-10-07T06:43:33.000Z</time>
</trkpt>
<trkpt lat="45.9380550" lon="9.5910170">
	<ele>1323.00</ele>
	<time>2023-10-07T06:43:34.000Z</time>
</trkpt>
<trkpt lat="45.9380550" lon="9.5910170">
	<ele>1323.20</ele>
	<time>2023-10-07T06:43:35.000Z</time>
</trkpt>
<trkpt lat="45.9380550" lon="9.5910170">
	<ele>1323.20</ele>
	<time>2023-10-07T06:43:36.000Z</time>
</trkpt>
<trkpt lat="45.9380550" lon="9.5910170">
	<ele>1323.40</ele>
	<time>2023-10-07T06:43:37.000Z</time>
</trkpt>
<trkpt lat="45.9380550" lon="9.5910170">
	<ele>1323.40</ele>
	<time>2023-10-07T06:43:38.000Z</time>
</trkpt>
<trkpt lat="45.9380550" lon="9.5910170">
	<ele>1323.60</ele>
	<time>2023-10-07T06:43:39.000Z</time>
</trkpt>
<trkpt lat="45.9380550" lon="9.5910200">
	<ele>1323.60</ele>
	<time>2023-10-07T06:43:40.000Z</time>
</trkpt>
<trkpt lat="45.9380550" lon="9.5910250">
	<ele>1323.60</ele>
	<time>2023-10-07T06:43:41.000Z</time>
</trkpt>
<trkpt lat="45.9380550" lon="9.5910250">
	<ele>1323.60</ele>
	<time>2023-10-07T06:43:42.000Z</time>
</trkpt>
<trkpt lat="45.9380550" lon="9.5910250">
	<ele>1323.60</ele>
	<time>2023-10-07T06:43:43.000Z</time>
</trkpt>
<trkpt lat="45.9380560" lon="9.5910260">
	<ele>1323.20</ele>
	<time>2023-10-07T06:43:44.000Z</time>
</trkpt>
<trkpt lat="45.9380560" lon="9.5910260">
	<ele>1323.20</ele>
	<time>2023-10-07T06:43:45.000Z</time>
</trkpt>
<trkpt lat="45.9380560" lon="9.5910260">
	<ele>1323.20</ele>
	<time>2023-10-07T06:43:46.000Z</time>
</trkpt>
<trkpt lat="45.9380570" lon="9.5910270">
	<ele>1323.00</ele>
	<time>2023-10-07T06:43:47.000Z</time>
</trkpt>
<trkpt lat="45.9380580" lon="9.5910270">
	<ele>1323.00</ele>
	<time>2023-10-07T06:43:48.000Z</time>
</trkpt>
<trkpt lat="45.9380580" lon="9.5910280">
	<ele>1323.00</ele>
	<time>2023-10-07T06:43:49.000Z</time>
</trkpt>
<trkpt lat="45.9380580" lon="9.5910290">
	<ele>1323.00</ele>
	<time>2023-10-07T06:43:50.000Z</time>
</trkpt>
<trkpt lat="45.9380580" lon="9.5910290">
	<ele>1323.00</ele>
	<time>2023-10-07T06:43:51.000Z</time>
</trkpt>
<trkpt lat="45.9380580" lon="9.5910290">
	<ele>1323.00</ele>
	<time>2023-10-07T06:43:52.000Z</time>
</trkpt>
<trkpt lat="45.9380580" lon="9.5910300">
	<ele>1323.00</ele>
	<time>2023-10-07T06:43:53.000Z</time>
</trkpt>
<trkpt lat="45.9380580" lon="9.5910300">
	<ele>1323.00</ele>
	<time>2023-10-07T06:43:54.000Z</time>
</trkpt>
<trkpt lat="45.9380580" lon="9.5910310">
	<ele>1323.00</ele>
	<time>2023-10-07T06:43:55.000Z</time>
</trkpt>
<trkpt lat="45.9380580" lon="9.5910320">
	<ele>1323.20</ele>
	<time>2023-10-07T06:43:56.000Z</time>
</trkpt>
<trkpt lat="45.9380580" lon="9.5910320">
	<ele>1323.20</ele>
	<time>2023-10-07T06:43:57.000Z</time>
</trkpt>
<trkpt lat="45.9380580" lon="9.5910320">
	<ele>1323.20</ele>
	<time>2023-10-07T06:43:58.000Z</time>
</trkpt>
<trkpt lat="45.9380590" lon="9.5910320">
	<ele>1323.20</ele>
	<time>2023-10-07T06:43:59.000Z</time>
</trkpt>
<trkpt lat="45.9380590" lon="9.5910320">
	<ele>1323.20</ele>
	<time>2023-10-07T06:44:00.000Z</time>
</trkpt>
<trkpt lat="45.9380590" lon="9.5910320">
	<ele>1323.00</ele>
	<time>2023-10-07T06:44:01.000Z</time>
</trkpt>
<trkpt lat="45.9380590" lon="9.5910320">
	<ele>1323.00</ele>
	<time>2023-10-07T06:44:02.000Z</time>
</trkpt>
<trkpt lat="45.9380600" lon="9.5910320">
	<ele>1323.00</ele>
	<time>2023-10-07T06:44:03.000Z</time>
</trkpt>
<trkpt lat="45.9380600" lon="9.5910330">
	<ele>1323.00</ele>
	<time>2023-10-07T06:44:04.000Z</time>
</trkpt>
<trkpt lat="45.9380600" lon="9.5910350">
	<ele>1323.00</ele>
	<time>2023-10-07T06:44:05.000Z</time>
</trkpt>
<trkpt lat="45.9380600" lon="9.5910350">
	<ele>1323.20</ele>
	<time>2023-10-07T06:44:06.000Z</time>
</trkpt>
<trkpt lat="45.9380600" lon="9.5910370">
	<ele>1323.40</ele>
	<time>2023-10-07T06:44:07.000Z</time>
</trkpt>
<trkpt lat="45.9380660" lon="9.5910390">
	<ele>1323.40</ele>
	<time>2023-10-07T06:44:08.000Z</time>
</trkpt>
<trkpt lat="45.9380750" lon="9.5910490">
	<ele>1323.60</ele>
	<time>2023-10-07T06:44:09.000Z</time>
</trkpt>
<trkpt lat="45.9380840" lon="9.5910600">
	<ele>1323.60</ele>
	<time>2023-10-07T06:44:10.000Z</time>
</trkpt>
<trkpt lat="45.9380920" lon="9.5910690">
	<ele>1324.00</ele>
	<time>2023-10-07T06:44:11.000Z</time>
</trkpt>
<trkpt lat="45.9380980" lon="9.5910820">
	<ele>1324.00</ele>
	<time>2023-10-07T06:44:12.000Z</time>
</trkpt>
<trkpt lat="45.9381050" lon="9.5911000">
	<ele>1324.20</ele>
	<time>2023-10-07T06:44:13.000Z</time>
</trkpt>
<trkpt lat="45.9381110" lon="9.5911200">
	<ele>1324.40</ele>
	<time>2023-10-07T06:44:14.000Z</time>
</trkpt>
<trkpt lat="45.9381130" lon="9.5911410">
	<ele>1324.60</ele>
	<time>2023-10-07T06:44:15.000Z</time>
</trkpt>
<trkpt lat="45.9381160" lon="9.5911590">
	<ele>1324.60</ele>
	<time>2023-10-07T06:44:16.000Z</time>
</trkpt>
<trkpt lat="45.9381190" lon="9.5911760">
	<ele>1324.80</ele>
	<time>2023-10-07T06:44:17.000Z</time>
</trkpt>
<trkpt lat="45.9381150" lon="9.5911910">
	<ele>1324.80</ele>
	<time>2023-10-07T06:44:18.000Z</time>
</trkpt>
<trkpt lat="45.9381150" lon="9.5912040">
	<ele>1324.80</ele>
	<time>2023-10-07T06:44:19.000Z</time>
</trkpt>
<trkpt lat="45.9381170" lon="9.5912220">
	<ele>1325.00</ele>
	<time>2023-10-07T06:44:20.000Z</time>
</trkpt>
<trkpt lat="45.9381180" lon="9.5912350">
	<ele>1325.00</ele>
	<time>2023-10-07T06:44:21.000Z</time>
</trkpt>
<trkpt lat="45.9381180" lon="9.5912510">
	<ele>1325.00</ele>
	<time>2023-10-07T06:44:22.000Z</time>
</trkpt>
<trkpt lat="45.9381190" lon="9.5912660">
	<ele>1325.00</ele>
	<time>2023-10-07T06:44:23.000Z</time>
</trkpt>
<trkpt lat="45.9381180" lon="9.5912830">
	<ele>1325.00</ele>
	<time>2023-10-07T06:44:24.000Z</time>
</trkpt>
<trkpt lat="45.9381130" lon="9.5912990">
	<ele>1325.00</ele>
	<time>2023-10-07T06:44:25.000Z</time>
</trkpt>
<trkpt lat="45.9381130" lon="9.5913140">
	<ele>1325.00</ele>
	<time>2023-10-07T06:44:26.000Z</time>
</trkpt>
<trkpt lat="45.9381110" lon="9.5913270">
	<ele>1325.00</ele>
	<time>2023-10-07T06:44:27.000Z</time>
</trkpt>
<trkpt lat="45.9381100" lon="9.5913410">
	<ele>1324.80</ele>
	<time>2023-10-07T06:44:28.000Z</time>
</trkpt>
<trkpt lat="45.9381110" lon="9.5913510">
	<ele>1325.00</ele>
	<time>2023-10-07T06:44:29.000Z</time>
</trkpt>
<trkpt lat="45.9381100" lon="9.5913670">
	<ele>1325.00</ele>
	<time>2023-10-07T06:44:30.000Z</time>
</trkpt>
<trkpt lat="45.9381120" lon="9.5913850">
	<ele>1325.00</ele>
	<time>2023-10-07T06:44:31.000Z</time>
</trkpt>
<trkpt lat="45.9381150" lon="9.5914040">
	<ele>1325.00</ele>
	<time>2023-10-07T06:44:32.000Z</time>
</trkpt>
<trkpt lat="45.9381220" lon="9.5914180">
	<ele>1325.00</ele>
	<time>2023-10-07T06:44:33.000Z</time>
</trkpt>
<trkpt lat="45.9381320" lon="9.5914300">
	<ele>1325.00</ele>
	<time>2023-10-07T06:44:34.000Z</time>
</trkpt>
<trkpt lat="45.9381360" lon="9.5914430">
	<ele>1325.00</ele>
	<time>2023-10-07T06:44:35.000Z</time>
</trkpt>
<trkpt lat="45.9381440" lon="9.5914590">
	<ele>1325.00</ele>
	<time>2023-10-07T06:44:36.000Z</time>
</trkpt>
<trkpt lat="45.9381460" lon="9.5914780">
	<ele>1325.00</ele>
	<time>2023-10-07T06:44:37.000Z</time>
</trkpt>
<trkpt lat="45.9381460" lon="9.5914920">
	<ele>1325.20</ele>
	<time>2023-10-07T06:44:38.000Z</time>
</trkpt>
<trkpt lat="45.9381500" lon="9.5915020">
	<ele>1325.20</ele>
	<time>2023-10-07T06:44:39.000Z</time>
</trkpt>
<trkpt lat="45.9381570" lon="9.5915110">
	<ele>1325.20</ele>
	<time>2023-10-07T06:44:40.000Z</time>
</trkpt>
<trkpt lat="45.9381650" lon="9.5915230">
	<ele>1325.20</ele>
	<time>2023-10-07T06:44:41.000Z</time>
</trkpt>
<trkpt lat="45.9381710" lon="9.5915400">
	<ele>1325.40</ele>
	<time>2023-10-07T06:44:42.000Z</time>
</trkpt>
<trkpt lat="45.9381740" lon="9.5915590">
	<ele>1325.40</ele>
	<time>2023-10-07T06:44:43.000Z</time>
</trkpt>
<trkpt lat="45.9381700" lon="9.5915760">
	<ele>1325.40</ele>
	<time>2023-10-07T06:44:44.000Z</time>
</trkpt>
<trkpt lat="45.9381650" lon="9.5915930">
	<ele>1325.40</ele>
	<time>2023-10-07T06:44:45.000Z</time>
</trkpt>
<trkpt lat="45.9381610" lon="9.5916100">
	<ele>1325.40</ele>
	<time>2023-10-07T06:44:46.000Z</time>
</trkpt>
<trkpt lat="45.9381610" lon="9.5916290">
	<ele>1325.20</ele>
	<time>2023-10-07T06:44:47.000Z</time>
</trkpt>
<trkpt lat="45.9381610" lon="9.5916450">
	<ele>1325.20</ele>
	<time>2023-10-07T06:44:48.000Z</time>
</trkpt>
<trkpt lat="45.9381660" lon="9.5916650">
	<ele>1325.20</ele>
	<time>2023-10-07T06:44:49.000Z</time>
</trkpt>
<trkpt lat="45.9381740" lon="9.5916850">
	<ele>1325.20</ele>
	<time>2023-10-07T06:44:50.000Z</time>
</trkpt>
<trkpt lat="45.9381740" lon="9.5917010">
	<ele>1325.20</ele>
	<time>2023-10-07T06:44:51.000Z</time>
</trkpt>
<trkpt lat="45.9381760" lon="9.5917190">
	<ele>1325.20</ele>
	<time>2023-10-07T06:44:52.000Z</time>
</trkpt>
<trkpt lat="45.9381770" lon="9.5917320">
	<ele>1325.20</ele>
	<time>2023-10-07T06:44:53.000Z</time>
</trkpt>
<trkpt lat="45.9381810" lon="9.5917480">
	<ele>1325.20</ele>
	<time>2023-10-07T06:44:54.000Z</time>
</trkpt>
<trkpt lat="45.9381850" lon="9.5917690">
	<ele>1325.20</ele>
	<time>2023-10-07T06:44:55.000Z</time>
</trkpt>
<trkpt lat="45.9381920" lon="9.5917890">
	<ele>1325.40</ele>
	<time>2023-10-07T06:44:56.000Z</time>
</trkpt>
<trkpt lat="45.9381980" lon="9.5918050">
	<ele>1325.40</ele>
	<time>2023-10-07T06:44:57.000Z</time>
</trkpt>
<trkpt lat="45.9382000" lon="9.5918180">
	<ele>1325.40</ele>
	<time>2023-10-07T06:44:58.000Z</time>
</trkpt>
<trkpt lat="45.9382080" lon="9.5918360">
	<ele>1325.40</ele>
	<time>2023-10-07T06:44:59.000Z</time>
</trkpt>
<trkpt lat="45.9382140" lon="9.5918520">
	<ele>1325.60</ele>
	<time>2023-10-07T06:45:00.000Z</time>
</trkpt>
<trkpt lat="45.9382190" lon="9.5918690">
	<ele>1325.60</ele>
	<time>2023-10-07T06:45:01.000Z</time>
</trkpt>
<trkpt lat="45.9382270" lon="9.5918830">
	<ele>1325.60</ele>
	<time>2023-10-07T06:45:02.000Z</time>
</trkpt>
<trkpt lat="45.9382340" lon="9.5918960">
	<ele>1325.80</ele>
	<time>2023-10-07T06:45:03.000Z</time>
</trkpt>
<trkpt lat="45.9382390" lon="9.5919070">
	<ele>1325.80</ele>
	<time>2023-10-07T06:45:04.000Z</time>
</trkpt>
<trkpt lat="45.9382480" lon="9.5919220">
	<ele>1325.80</ele>
	<time>2023-10-07T06:45:05.000Z</time>
</trkpt>
<trkpt lat="45.9382560" lon="9.5919390">
	<ele>1325.80</ele>
	<time>2023-10-07T06:45:06.000Z</time>
</trkpt>
<trkpt lat="45.9382640" lon="9.5919570">
	<ele>1325.80</ele>
	<time>2023-10-07T06:45:07.000Z</time>
</trkpt>
<trkpt lat="45.9382690" lon="9.5919700">
	<ele>1326.00</ele>
	<time>2023-10-07T06:45:08.000Z</time>
</trkpt>
<trkpt lat="45.9382700" lon="9.5919870">
	<ele>1326.00</ele>
	<time>2023-10-07T06:45:09.000Z</time>
</trkpt>
<trkpt lat="45.9382710" lon="9.5920010">
	<ele>1326.00</ele>
	<time>2023-10-07T06:45:10.000Z</time>
</trkpt>
<trkpt lat="45.9382730" lon="9.5920180">
	<ele>1326.20</ele>
	<time>2023-10-07T06:45:11.000Z</time>
</trkpt>
<trkpt lat="45.9382740" lon="9.5920350">
	<ele>1326.20</ele>
	<time>2023-10-07T06:45:12.000Z</time>
</trkpt>
<trkpt lat="45.9382770" lon="9.5920550">
	<ele>1326.40</ele>
	<time>2023-10-07T06:45:13.000Z</time>
</trkpt>
<trkpt lat="45.9382820" lon="9.5920690">
	<ele>1326.40</ele>
	<time>2023-10-07T06:45:14.000Z</time>
</trkpt>
<trkpt lat="45.9382850" lon="9.5920850">
	<ele>1326.40</ele>
	<time>2023-10-07T06:45:15.000Z</time>
</trkpt>
<trkpt lat="45.9382890" lon="9.5920970">
	<ele>1326.40</ele>
	<time>2023-10-07T06:45:16.000Z</time>
</trkpt>
<trkpt lat="45.9382920" lon="9.5921130">
	<ele>1326.20</ele>
	<time>2023-10-07T06:45:17.000Z</time>
</trkpt>
<trkpt lat="45.9383010" lon="9.5921290">
	<ele>1326.20</ele>
	<time>2023-10-07T06:45:18.000Z</time>
</trkpt>
<trkpt lat="45.9383070" lon="9.5921430">
	<ele>1326.20</ele>
	<time>2023-10-07T06:45:19.000Z</time>
</trkpt>
<trkpt lat="45.9383120" lon="9.5921600">
	<ele>1326.00</ele>
	<time>2023-10-07T06:45:20.000Z</time>
</trkpt>
<trkpt lat="45.9383130" lon="9.5921770">
	<ele>1326.00</ele>
	<time>2023-10-07T06:45:21.000Z</time>
</trkpt>
<trkpt lat="45.9383140" lon="9.5921970">
	<ele>1326.00</ele>
	<time>2023-10-07T06:45:22.000Z</time>
</trkpt>
<trkpt lat="45.9383150" lon="9.5922140">
	<ele>1326.00</ele>
	<time>2023-10-07T06:45:23.000Z</time>
</trkpt>
<trkpt lat="45.9383160" lon="9.5922310">
	<ele>1326.00</ele>
	<time>2023-10-07T06:45:24.000Z</time>
</trkpt>
<trkpt lat="45.9383190" lon="9.5922480">
	<ele>1326.00</ele>
	<time>2023-10-07T06:45:25.000Z</time>
</trkpt>
<trkpt lat="45.9383220" lon="9.5922650">
	<ele>1326.00</ele>
	<time>2023-10-07T06:45:26.000Z</time>
</trkpt>
<trkpt lat="45.9383260" lon="9.5922810">
	<ele>1326.20</ele>
	<time>2023-10-07T06:45:27.000Z</time>
</trkpt>
<trkpt lat="45.9383290" lon="9.5922930">
	<ele>1326.20</ele>
	<time>2023-10-07T06:45:28.000Z</time>
</trkpt>
<trkpt lat="45.9383340" lon="9.5923090">
	<ele>1326.40</ele>
	<time>2023-10-07T06:45:29.000Z</time>
</trkpt>
<trkpt lat="45.9383370" lon="9.5923290">
	<ele>1326.40</ele>
	<time>2023-10-07T06:45:30.000Z</time>
</trkpt>
<trkpt lat="45.9383390" lon="9.5923440">
	<ele>1326.60</ele>
	<time>2023-10-07T06:45:31.000Z</time>
</trkpt>
<trkpt lat="45.9383420" lon="9.5923580">
	<ele>1326.80</ele>
	<time>2023-10-07T06:45:32.000Z</time>
</trkpt>
<trkpt lat="45.9383440" lon="9.5923750">
	<ele>1326.80</ele>
	<time>2023-10-07T06:45:33.000Z</time>
</trkpt>
<trkpt lat="45.9383470" lon="9.5923890">
	<ele>1327.00</ele>
	<time>2023-10-07T06:45:34.000Z</time>
</trkpt>
<trkpt lat="45.9383510" lon="9.5924010">
	<ele>1327.00</ele>
	<time>2023-10-07T06:45:35.000Z</time>
</trkpt>
<trkpt lat="45.9383550" lon="9.5924180">
	<ele>1327.20</ele>
	<time>2023-10-07T06:45:36.000Z</time>
</trkpt>
<trkpt lat="45.9383570" lon="9.5924360">
	<ele>1327.20</ele>
	<time>2023-10-07T06:45:37.000Z</time>
</trkpt>
<trkpt lat="45.9383630" lon="9.5924530">
	<ele>1327.40</ele>
	<time>2023-10-07T06:45:38.000Z</time>
</trkpt>
<trkpt lat="45.9383670" lon="9.5924670">
	<ele>1327.40</ele>
	<time>2023-10-07T06:45:39.000Z</time>
</trkpt>
<trkpt lat="45.9383710" lon="9.5924830">
	<ele>1327.40</ele>
	<time>2023-10-07T06:45:40.000Z</time>
</trkpt>
<trkpt lat="45.9383740" lon="9.5924970">
	<ele>1327.40</ele>
	<time>2023-10-07T06:45:41.000Z</time>
</trkpt>
<trkpt lat="45.9383800" lon="9.5925080">
	<ele>1327.40</ele>
	<time>2023-10-07T06:45:42.000Z</time>
</trkpt>
<trkpt lat="45.9383910" lon="9.5925180">
	<ele>1327.60</ele>
	<time>2023-10-07T06:45:43.000Z</time>
</trkpt>
<trkpt lat="45.9384010" lon="9.5925240">
	<ele>1327.80</ele>
	<time>2023-10-07T06:45:44.000Z</time>
</trkpt>
<trkpt lat="45.9384060" lon="9.5925360">
	<ele>1328.00</ele>
	<time>2023-10-07T06:45:45.000Z</time>
</trkpt>
<trkpt lat="45.9384100" lon="9.5925480">
	<ele>1328.20</ele>
	<time>2023-10-07T06:45:46.000Z</time>
</trkpt>
<trkpt lat="45.9384150" lon="9.5925570">
	<ele>1328.40</ele>
	<time>2023-10-07T06:45:47.000Z</time>
</trkpt>
<trkpt lat="45.9384230" lon="9.5925700">
	<ele>1328.60</ele>
	<time>2023-10-07T06:45:48.000Z</time>
</trkpt>
<trkpt lat="45.9384310" lon="9.5925800">
	<ele>1328.60</ele>
	<time>2023-10-07T06:45:49.000Z</time>
</trkpt>
<trkpt lat="45.9384330" lon="9.5925960">
	<ele>1328.80</ele>
	<time>2023-10-07T06:45:50.000Z</time>
</trkpt>
<trkpt lat="45.9384400" lon="9.5926070">
	<ele>1329.00</ele>
	<time>2023-10-07T06:45:51.000Z</time>
</trkpt>
<trkpt lat="45.9384420" lon="9.5926170">
	<ele>1329.20</ele>
	<time>2023-10-07T06:45:52.000Z</time>
</trkpt>
<trkpt lat="45.9384480" lon="9.5926270">
	<ele>1329.20</ele>
	<time>2023-10-07T06:45:53.000Z</time>
</trkpt>
<trkpt lat="45.9384510" lon="9.5926410">
	<ele>1329.40</ele>
	<time>2023-10-07T06:45:54.000Z</time>
</trkpt>
<trkpt lat="45.9384490" lon="9.5926560">
	<ele>1329.60</ele>
	<time>2023-10-07T06:45:55.000Z</time>
</trkpt>
<trkpt lat="45.9384480" lon="9.5926680">
	<ele>1329.80</ele>
	<time>2023-10-07T06:45:56.000Z</time>
</trkpt>
<trkpt lat="45.9384460" lon="9.5926810">
	<ele>1329.80</ele>
	<time>2023-10-07T06:45:57.000Z</time>
</trkpt>
<trkpt lat="45.9384460" lon="9.5926930">
	<ele>1330.00</ele>
	<time>2023-10-07T06:45:58.000Z</time>
</trkpt>
<trkpt lat="45.9384480" lon="9.5927070">
	<ele>1330.20</ele>
	<time>2023-10-07T06:45:59.000Z</time>
</trkpt>
<trkpt lat="45.9384500" lon="9.5927220">
	<ele>1330.20</ele>
	<time>2023-10-07T06:46:00.000Z</time>
</trkpt>
<trkpt lat="45.9384520" lon="9.5927320">
	<ele>1330.40</ele>
	<time>2023-10-07T06:46:01.000Z</time>
</trkpt>
<trkpt lat="45.9384550" lon="9.5927440">
	<ele>1330.60</ele>
	<time>2023-10-07T06:46:02.000Z</time>
</trkpt>
<trkpt lat="45.9384580" lon="9.5927560">
	<ele>1330.60</ele>
	<time>2023-10-07T06:46:03.000Z</time>
</trkpt>
<trkpt lat="45.9384590" lon="9.5927710">
	<ele>1330.80</ele>
	<time>2023-10-07T06:46:04.000Z</time>
</trkpt>
<trkpt lat="45.9384560" lon="9.5927850">
	<ele>1331.00</ele>
	<time>2023-10-07T06:46:05.000Z</time>
</trkpt>
<trkpt lat="45.9384530" lon="9.5928010">
	<ele>1331.00</ele>
	<time>2023-10-07T06:46:06.000Z</time>
</trkpt>
<trkpt lat="45.9384550" lon="9.5928120">
	<ele>1331.20</ele>
	<time>2023-10-07T06:46:07.000Z</time>
</trkpt>
<trkpt lat="45.9384590" lon="9.5928290">
	<ele>1331.40</ele>
	<time>2023-10-07T06:46:08.000Z</time>
</trkpt>
<trkpt lat="45.9384630" lon="9.5928370">
	<ele>1331.80</ele>
	<time>2023-10-07T06:46:09.000Z</time>
</trkpt>
<trkpt lat="45.9384660" lon="9.5928440">
	<ele>1332.00</ele>
	<time>2023-10-07T06:46:10.000Z</time>
</trkpt>
<trkpt lat="45.9384690" lon="9.5928530">
	<ele>1332.00</ele>
	<time>2023-10-07T06:46:11.000Z</time>
</trkpt>
<trkpt lat="45.9384730" lon="9.5928570">
	<ele>1332.20</ele>
	<time>2023-10-07T06:46:12.000Z</time>
</trkpt>
<trkpt lat="45.9384750" lon="9.5928650">
	<ele>1332.40</ele>
	<time>2023-10-07T06:46:13.000Z</time>
</trkpt>
<trkpt lat="45.9384800" lon="9.5928700">
	<ele>1332.60</ele>
	<time>2023-10-07T06:46:14.000Z</time>
</trkpt>
<trkpt lat="45.9384850" lon="9.5928740">
	<ele>1332.80</ele>
	<time>2023-10-07T06:46:15.000Z</time>
</trkpt>
<trkpt lat="45.9384890" lon="9.5928750">
	<ele>1332.80</ele>
	<time>2023-10-07T06:46:16.000Z</time>
</trkpt>
<trkpt lat="45.9384920" lon="9.5928850">
	<ele>1333.20</ele>
	<time>2023-10-07T06:46:17.000Z</time>
</trkpt>
<trkpt lat="45.9384930" lon="9.5928900">
	<ele>1333.40</ele>
	<time>2023-10-07T06:46:18.000Z</time>
</trkpt>
<trkpt lat="45.9384960" lon="9.5928990">
	<ele>1333.60</ele>
	<time>2023-10-07T06:46:19.000Z</time>
</trkpt>
<trkpt lat="45.9384990" lon="9.5929050">
	<ele>1333.80</ele>
	<time>2023-10-07T06:46:20.000Z</time>
</trkpt>
<trkpt lat="45.9385030" lon="9.5929070">
	<ele>1334.00</ele>
	<time>2023-10-07T06:46:21.000Z</time>
</trkpt>
<trkpt lat="45.9385080" lon="9.5929100">
	<ele>1334.20</ele>
	<time>2023-10-07T06:46:22.000Z</time>
</trkpt>
<trkpt lat="45.9385150" lon="9.5929190">
	<ele>1334.40</ele>
	<time>2023-10-07T06:46:23.000Z</time>
</trkpt>
<trkpt lat="45.9385210" lon="9.5929280">
	<ele>1334.60</ele>
	<time>2023-10-07T06:46:24.000Z</time>
</trkpt>
<trkpt lat="45.9385260" lon="9.5929320">
	<ele>1334.80</ele>
	<time>2023-10-07T06:46:25.000Z</time>
</trkpt>
<trkpt lat="45.9385330" lon="9.5929340">
	<ele>1335.00</ele>
	<time>2023-10-07T06:46:26.000Z</time>
</trkpt>
<trkpt lat="45.9385390" lon="9.5929400">
	<ele>1335.20</ele>
	<time>2023-10-07T06:46:27.000Z</time>
</trkpt>
<trkpt lat="45.9385450" lon="9.5929480">
	<ele>1335.40</ele>
	<time>2023-10-07T06:46:28.000Z</time>
</trkpt>
<trkpt lat="45.9385470" lon="9.5929570">
	<ele>1335.40</ele>
	<time>2023-10-07T06:46:29.000Z</time>
</trkpt>
<trkpt lat="45.9385510" lon="9.5929700">
	<ele>1335.40</ele>
	<time>2023-10-07T06:46:30.000Z</time>
</trkpt>
<trkpt lat="45.9385570" lon="9.5929810">
	<ele>1335.40</ele>
	<time>2023-10-07T06:46:31.000Z</time>
</trkpt>
<trkpt lat="45.9385620" lon="9.5929950">
	<ele>1335.40</ele>
	<time>2023-10-07T06:46:32.000Z</time>
</trkpt>
<trkpt lat="45.9385660" lon="9.5930090">
	<ele>1335.40</ele>
	<time>2023-10-07T06:46:33.000Z</time>
</trkpt>
<trkpt lat="45.9385660" lon="9.5930250">
	<ele>1335.40</ele>
	<time>2023-10-07T06:46:34.000Z</time>
</trkpt>
<trkpt lat="45.9385650" lon="9.5930470">
	<ele>1335.40</ele>
	<time>2023-10-07T06:46:35.000Z</time>
</trkpt>
<trkpt lat="45.9385640" lon="9.5930600">
	<ele>1335.60</ele>
	<time>2023-10-07T06:46:36.000Z</time>
</trkpt>
<trkpt lat="45.9385600" lon="9.5930760">
	<ele>1335.80</ele>
	<time>2023-10-07T06:46:37.000Z</time>
</trkpt>
<trkpt lat="45.9385590" lon="9.5930980">
	<ele>1336.00</ele>
	<time>2023-10-07T06:46:38.000Z</time>
</trkpt>
<trkpt lat="45.9385590" lon="9.5931100">
	<ele>1336.20</ele>
	<time>2023-10-07T06:46:39.000Z</time>
</trkpt>
<trkpt lat="45.9385570" lon="9.5931190">
	<ele>1336.40</ele>
	<time>2023-10-07T06:46:40.000Z</time>
</trkpt>
<trkpt lat="45.9385520" lon="9.5931280">
	<ele>1336.40</ele>
	<time>2023-10-07T06:46:41.000Z</time>
</trkpt>
<trkpt lat="45.9385450" lon="9.5931390">
	<ele>1336.60</ele>
	<time>2023-10-07T06:46:42.000Z</time>
</trkpt>
<trkpt lat="45.9385390" lon="9.5931480">
	<ele>1336.60</ele>
	<time>2023-10-07T06:46:43.000Z</time>
</trkpt>
<trkpt lat="45.9385310" lon="9.5931560">
	<ele>1336.80</ele>
	<time>2023-10-07T06:46:44.000Z</time>
</trkpt>
<trkpt lat="45.9385240" lon="9.5931620">
	<ele>1336.80</ele>
	<time>2023-10-07T06:46:45.000Z</time>
</trkpt>
<trkpt lat="45.9385130" lon="9.5931710">
	<ele>1336.80</ele>
	<time>2023-10-07T06:46:46.000Z</time>
</trkpt>
<trkpt lat="45.9385010" lon="9.5931780">
	<ele>1336.80</ele>
	<time>2023-10-07T06:46:47.000Z</time>
</trkpt>
<trkpt lat="45.9384920" lon="9.5931900">
	<ele>1336.80</ele>
	<time>2023-10-07T06:46:48.000Z</time>
</trkpt>
<trkpt lat="45.9384850" lon="9.5932040">
	<ele>1336.80</ele>
	<time>2023-10-07T06:46:49.000Z</time>
</trkpt>
<trkpt lat="45.9384790" lon="9.5932130">
	<ele>1336.60</ele>
	<time>2023-10-07T06:46:50.000Z</time>
</trkpt>
<trkpt lat="45.9384730" lon="9.5932260">
	<ele>1336.40</ele>
	<time>2023-10-07T06:46:51.000Z</time>
</trkpt>
<trkpt lat="45.9384670" lon="9.5932460">
	<ele>1336.40</ele>
	<time>2023-10-07T06:46:52.000Z</time>
</trkpt>
<trkpt lat="45.9384610" lon="9.5932640">
	<ele>1336.40</ele>
	<time>2023-10-07T06:46:53.000Z</time>
</trkpt>
<trkpt lat="45.9384580" lon="9.5932830">
	<ele>1336.20</ele>
	<time>2023-10-07T06:46:54.000Z</time>
</trkpt>
<trkpt lat="45.9384560" lon="9.5933010">
	<ele>1336.20</ele>
	<time>2023-10-07T06:46:55.000Z</time>
</trkpt>
<trkpt lat="45.9384530" lon="9.5933190">
	<ele>1336.20</ele>
	<time>2023-10-07T06:46:56.000Z</time>
</trkpt>
<trkpt lat="45.9384500" lon="9.5933340">
	<ele>1336.20</ele>
	<time>2023-10-07T06:46:57.000Z</time>
</trkpt>
<trkpt lat="45.9384470" lon="9.5933500">
	<ele>1336.20</ele>
	<time>2023-10-07T06:46:58.000Z</time>
</trkpt>
<trkpt lat="45.9384460" lon="9.5933650">
	<ele>1336.40</ele>
	<time>2023-10-07T06:46:59.000Z</time>
</trkpt>
<trkpt lat="45.9384420" lon="9.5933830">
	<ele>1336.40</ele>
	<time>2023-10-07T06:47:00.000Z</time>
</trkpt>
<trkpt lat="45.9384360" lon="9.5933940">
	<ele>1336.40</ele>
	<time>2023-10-07T06:47:01.000Z</time>
</trkpt>
<trkpt lat="45.9384280" lon="9.5934090">
	<ele>1336.40</ele>
	<time>2023-10-07T06:47:02.000Z</time>
</trkpt>
<trkpt lat="45.9384240" lon="9.5934190">
	<ele>1336.40</ele>
	<time>2023-10-07T06:47:03.000Z</time>
</trkpt>
<trkpt lat="45.9384200" lon="9.5934380">
	<ele>1336.40</ele>
	<time>2023-10-07T06:47:04.000Z</time>
</trkpt>
<trkpt lat="45.9384230" lon="9.5934530">
	<ele>1336.40</ele>
	<time>2023-10-07T06:47:05.000Z</time>
</trkpt>
<trkpt lat="45.9384240" lon="9.5934730">
	<ele>1336.40</ele>
	<time>2023-10-07T06:47:06.000Z</time>
</trkpt>
<trkpt lat="45.9384240" lon="9.5934910">
	<ele>1336.60</ele>
	<time>2023-10-07T06:47:07.000Z</time>
</trkpt>
<trkpt lat="45.9384190" lon="9.5935130">
	<ele>1336.60</ele>
	<time>2023-10-07T06:47:08.000Z</time>
</trkpt>
<trkpt lat="45.9384110" lon="9.5935300">
	<ele>1336.60</ele>
	<time>2023-10-07T06:47:09.000Z</time>
</trkpt>
<trkpt lat="45.9384030" lon="9.5935430">
	<ele>1336.80</ele>
	<time>2023-10-07T06:47:10.000Z</time>
</trkpt>
<trkpt lat="45.9383920" lon="9.5935550">
	<ele>1336.80</ele>
	<time>2023-10-07T06:47:11.000Z</time>
</trkpt>
<trkpt lat="45.9383830" lon="9.5935730">
	<ele>1336.80</ele>
	<time>2023-10-07T06:47:12.000Z</time>
</trkpt>
<trkpt lat="45.9383780" lon="9.5935900">
	<ele>1336.80</ele>
	<time>2023-10-07T06:47:13.000Z</time>
</trkpt>
<trkpt lat="45.9383830" lon="9.5936030">
	<ele>1336.60</ele>
	<time>2023-10-07T06:47:14.000Z</time>
</trkpt>
<trkpt lat="45.9383840" lon="9.5936200">
	<ele>1336.60</ele>
	<time>2023-10-07T06:47:15.000Z</time>
</trkpt>
<trkpt lat="45.9383860" lon="9.5936420">
	<ele>1336.60</ele>
	<time>2023-10-07T06:47:16.000Z</time>
</trkpt>
<trkpt lat="45.9383870" lon="9.5936630">
	<ele>1336.60</ele>
	<time>2023-10-07T06:47:17.000Z</time>
</trkpt>
<trkpt lat="45.9383810" lon="9.5936770">
	<ele>1336.60</ele>
	<time>2023-10-07T06:47:18.000Z</time>
</trkpt>
<trkpt lat="45.9383740" lon="9.5936910">
	<ele>1336.40</ele>
	<time>2023-10-07T06:47:19.000Z</time>
</trkpt>
<trkpt lat="45.9383640" lon="9.5937020">
	<ele>1336.40</ele>
	<time>2023-10-07T06:47:20.000Z</time>
</trkpt>
<trkpt lat="45.9383560" lon="9.5937170">
	<ele>1336.20</ele>
	<time>2023-10-07T06:47:21.000Z</time>
</trkpt>
<trkpt lat="45.9383500" lon="9.5937260">
	<ele>1336.20</ele>
	<time>2023-10-07T06:47:22.000Z</time>
</trkpt>
<trkpt lat="45.9383480" lon="9.5937350">
	<ele>1336.20</ele>
	<time>2023-10-07T06:47:23.000Z</time>
</trkpt>
<trkpt lat="45.9383450" lon="9.5937440">
	<ele>1336.20</ele>
	<time>2023-10-07T06:47:24.000Z</time>
</trkpt>
<trkpt lat="45.9383410" lon="9.5937610">
	<ele>1336.20</ele>
	<time>2023-10-07T06:47:25.000Z</time>
</trkpt>
<trkpt lat="45.9383370" lon="9.5937790">
	<ele>1336.20</ele>
	<time>2023-10-07T06:47:26.000Z</time>
</trkpt>
<trkpt lat="45.9383320" lon="9.5937970">
	<ele>1336.20</ele>
	<time>2023-10-07T06:47:27.000Z</time>
</trkpt>
<trkpt lat="45.9383260" lon="9.5938130">
	<ele>1336.20</ele>
	<time>2023-10-07T06:47:28.000Z</time>
</trkpt>
<trkpt lat="45.9383200" lon="9.5938370">
	<ele>1336.00</ele>
	<time>2023-10-07T06:47:29.000Z</time>
</trkpt>
<trkpt lat="45.9383150" lon="9.5938570">
	<ele>1336.00</ele>
	<time>2023-10-07T06:47:30.000Z</time>
</trkpt>
<trkpt lat="45.9383070" lon="9.5938700">
	<ele>1336.00</ele>
	<time>2023-10-07T06:47:31.000Z</time>
</trkpt>
<trkpt lat="45.9383000" lon="9.5938870">
	<ele>1336.00</ele>
	<time>2023-10-07T06:47:32.000Z</time>
</trkpt>
<trkpt lat="45.9382970" lon="9.5939020">
	<ele>1336.00</ele>
	<time>2023-10-07T06:47:33.000Z</time>
</trkpt>
<trkpt lat="45.9382910" lon="9.5939150">
	<ele>1335.80</ele>
	<time>2023-10-07T06:47:34.000Z</time>
</trkpt>
<trkpt lat="45.9382880" lon="9.5939220">
	<ele>1335.80</ele>
	<time>2023-10-07T06:47:35.000Z</time>
</trkpt>
<trkpt lat="45.9382890" lon="9.5939210">
	<ele>1335.80</ele>
	<time>2023-10-07T06:47:36.000Z</time>
</trkpt>
<trkpt lat="45.9382890" lon="9.5939200">
	<ele>1335.80</ele>
	<time>2023-10-07T06:47:37.000Z</time>
</trkpt>
<trkpt lat="45.9382880" lon="9.5939190">
	<ele>1335.80</ele>
	<time>2023-10-07T06:47:38.000Z</time>
</trkpt>
<trkpt lat="45.9382870" lon="9.5939150">
	<ele>1335.80</ele>
	<time>2023-10-07T06:47:39.000Z</time>
</trkpt>
<trkpt lat="45.9382880" lon="9.5939140">
	<ele>1335.80</ele>
	<time>2023-10-07T06:47:40.000Z</time>
</trkpt>
<trkpt lat="45.9382880" lon="9.5939150">
	<ele>1336.00</ele>
	<time>2023-10-07T06:47:41.000Z</time>
</trkpt>
<trkpt lat="45.9382890" lon="9.5939160">
	<ele>1336.00</ele>
	<time>2023-10-07T06:47:42.000Z</time>
</trkpt>
<trkpt lat="45.9382890" lon="9.5939160">
	<ele>1336.20</ele>
	<time>2023-10-07T06:47:43.000Z</time>
</trkpt>
<trkpt lat="45.9382880" lon="9.5939150">
	<ele>1336.20</ele>
	<time>2023-10-07T06:47:44.000Z</time>
</trkpt>
<trkpt lat="45.9382890" lon="9.5939150">
	<ele>1336.20</ele>
	<time>2023-10-07T06:47:45.000Z</time>
</trkpt>
<trkpt lat="45.9382890" lon="9.5939160">
	<ele>1336.40</ele>
	<time>2023-10-07T06:47:46.000Z</time>
</trkpt>
<trkpt lat="45.9382890" lon="9.5939160">
	<ele>1336.40</ele>
	<time>2023-10-07T06:47:47.000Z</time>
</trkpt>
<trkpt lat="45.9382890" lon="9.5939160">
	<ele>1336.40</ele>
	<time>2023-10-07T06:47:48.000Z</time>
</trkpt>
<trkpt lat="45.9382890" lon="9.5939160">
	<ele>1336.00</ele>
	<time>2023-10-07T06:47:49.000Z</time>
</trkpt>
<trkpt lat="45.9382890" lon="9.5939160">
	<ele>1335.80</ele>
	<time>2023-10-07T06:47:50.000Z</time>
</trkpt>
<trkpt lat="45.9382890" lon="9.5939160">
	<ele>1335.80</ele>
	<time>2023-10-07T06:47:51.000Z</time>
</trkpt>
<trkpt lat="45.9382890" lon="9.5939160">
	<ele>1335.60</ele>
	<time>2023-10-07T06:47:52.000Z</time>
</trkpt>
<trkpt lat="45.9382890" lon="9.5939160">
	<ele>1335.60</ele>
	<time>2023-10-07T06:47:53.000Z</time>
</trkpt>
<trkpt lat="45.9382890" lon="9.5939160">
	<ele>1335.60</ele>
	<time>2023-10-07T06:47:54.000Z</time>
</trkpt>
<trkpt lat="45.9382890" lon="9.5939160">
	<ele>1335.80</ele>
	<time>2023-10-07T06:47:55.000Z</time>
</trkpt>
<trkpt lat="45.9382890" lon="9.5939160">
	<ele>1335.80</ele>
	<time>2023-10-07T06:47:56.000Z</time>
</trkpt>
<trkpt lat="45.9382890" lon="9.5939160">
	<ele>1335.80</ele>
	<time>2023-10-07T06:47:57.000Z</time>
</trkpt>
<trkpt lat="45.9382890" lon="9.5939160">
	<ele>1335.80</ele>
	<time>2023-10-07T06:47:58.000Z</time>
</trkpt>
<trkpt lat="45.9382880" lon="9.5939230">
	<ele>1335.80</ele>
	<time>2023-10-07T06:47:59.000Z</time>
</trkpt>
<trkpt lat="45.9382840" lon="9.5939460">
	<ele>1335.80</ele>
	<time>2023-10-07T06:48:00.000Z</time>
</trkpt>
<trkpt lat="45.9382800" lon="9.5939710">
	<ele>1335.80</ele>
	<time>2023-10-07T06:48:01.000Z</time>
</trkpt>
<trkpt lat="45.9382750" lon="9.5939930">
	<ele>1335.80</ele>
	<time>2023-10-07T06:48:02.000Z</time>
</trkpt>
<trkpt lat="45.9382690" lon="9.5940190">
	<ele>1335.80</ele>
	<time>2023-10-07T06:48:03.000Z</time>
</trkpt>
<trkpt lat="45.9382640" lon="9.5940440">
	<ele>1336.00</ele>
	<time>2023-10-07T06:48:04.000Z</time>
</trkpt>
<trkpt lat="45.9382590" lon="9.5940670">
	<ele>1336.00</ele>
	<time>2023-10-07T06:48:05.000Z</time>
</trkpt>
<trkpt lat="45.9382550" lon="9.5940900">
	<ele>1336.00</ele>
	<time>2023-10-07T06:48:06.000Z</time>
</trkpt>
<trkpt lat="45.9382460" lon="9.5941150">
	<ele>1336.00</ele>
	<time>2023-10-07T06:48:07.000Z</time>
</trkpt>
<trkpt lat="45.9382390" lon="9.5941380">
	<ele>1336.00</ele>
	<time>2023-10-07T06:48:08.000Z</time>
</trkpt>
<trkpt lat="45.9382330" lon="9.5941520">
	<ele>1336.00</ele>
	<time>2023-10-07T06:48:09.000Z</time>
</trkpt>
<trkpt lat="45.9382270" lon="9.5941670">
	<ele>1336.00</ele>
	<time>2023-10-07T06:48:10.000Z</time>
</trkpt>
<trkpt lat="45.9382230" lon="9.5941810">
	<ele>1336.00</ele>
	<time>2023-10-07T06:48:11.000Z</time>
</trkpt>
<trkpt lat="45.9382200" lon="9.5941950">
	<ele>1336.00</ele>
	<time>2023-10-07T06:48:12.000Z</time>
</trkpt>
<trkpt lat="45.9382130" lon="9.5942100">
	<ele>1336.00</ele>
	<time>2023-10-07T06:48:13.000Z</time>
</trkpt>
<trkpt lat="45.9382080" lon="9.5942270">
	<ele>1336.00</ele>
	<time>2023-10-07T06:48:14.000Z</time>
</trkpt>
<trkpt lat="45.9382030" lon="9.5942500">
	<ele>1336.00</ele>
	<time>2023-10-07T06:48:15.000Z</time>
</trkpt>
<trkpt lat="45.9381990" lon="9.5942650">
	<ele>1336.00</ele>
	<time>2023-10-07T06:48:16.000Z</time>
</trkpt>
<trkpt lat="45.9381950" lon="9.5942790">
	<ele>1336.00</ele>
	<time>2023-10-07T06:48:17.000Z</time>
</trkpt>
<trkpt lat="45.9381920" lon="9.5942860">
	<ele>1336.00</ele>
	<time>2023-10-07T06:48:18.000Z</time>
</trkpt>
<trkpt lat="45.9381860" lon="9.5942970">
	<ele>1336.00</ele>
	<time>2023-10-07T06:48:19.000Z</time>
</trkpt>
<trkpt lat="45.9381740" lon="9.5943180">
	<ele>1336.00</ele>
	<time>2023-10-07T06:48:20.000Z</time>
</trkpt>
<trkpt lat="45.9381700" lon="9.5943360">
	<ele>1336.00</ele>
	<time>2023-10-07T06:48:21.000Z</time>
</trkpt>
<trkpt lat="45.9381640" lon="9.5943520">
	<ele>1335.80</ele>
	<time>2023-10-07T06:48:22.000Z</time>
</trkpt>
<trkpt lat="45.9381560" lon="9.5943670">
	<ele>1335.80</ele>
	<time>2023-10-07T06:48:23.000Z</time>
</trkpt>
<trkpt lat="45.9381500" lon="9.5943820">
	<ele>1335.80</ele>
	<time>2023-10-07T06:48:24.000Z</time>
</trkpt>
<trkpt lat="45.9381430" lon="9.5944020">
	<ele>1335.80</ele>
	<time>2023-10-07T06:48:25.000Z</time>
</trkpt>
<trkpt lat="45.9381380" lon="9.5944200">
	<ele>1335.80</ele>
	<time>2023-10-07T06:48:26.000Z</time>
</trkpt>
<trkpt lat="45.9381330" lon="9.5944380">
	<ele>1335.80</ele>
	<time>2023-10-07T06:48:27.000Z</time>
</trkpt>
<trkpt lat="45.9381300" lon="9.5944590">
	<ele>1335.80</ele>
	<time>2023-10-07T06:48:28.000Z</time>
</trkpt>
<trkpt lat="45.9381250" lon="9.5944750">
	<ele>1335.80</ele>
	<time>2023-10-07T06:48:29.000Z</time>
</trkpt>
<trkpt lat="45.9381200" lon="9.5944900">
	<ele>1335.60</ele>
	<time>2023-10-07T06:48:30.000Z</time>
</trkpt>
<trkpt lat="45.9381150" lon="9.5945040">
	<ele>1335.60</ele>
	<time>2023-10-07T06:48:31.000Z</time>
</trkpt>
<trkpt lat="45.9381080" lon="9.5945170">
	<ele>1335.60</ele>
	<time>2023-10-07T06:48:32.000Z</time>
</trkpt>
<trkpt lat="45.9381000" lon="9.5945350">
	<ele>1335.60</ele>
	<time>2023-10-07T06:48:33.000Z</time>
</trkpt>
<trkpt lat="45.9380900" lon="9.5945590">
	<ele>1335.40</ele>
	<time>2023-10-07T06:48:34.000Z</time>
</trkpt>
<trkpt lat="45.9380850" lon="9.5945770">
	<ele>1335.40</ele>
	<time>2023-10-07T06:48:35.000Z</time>
</trkpt>
<trkpt lat="45.9380790" lon="9.5945930">
	<ele>1335.20</ele>
	<time>2023-10-07T06:48:36.000Z</time>
</trkpt>
<trkpt lat="45.9380750" lon="9.5946110">
	<ele>1335.20</ele>
	<time>2023-10-07T06:48:37.000Z</time>
</trkpt>
<trkpt lat="45.9380670" lon="9.5946280">
	<ele>1335.20</ele>
	<time>2023-10-07T06:48:38.000Z</time>
</trkpt>
<trkpt lat="45.9380610" lon="9.5946430">
	<ele>1335.20</ele>
	<time>2023-10-07T06:48:39.000Z</time>
</trkpt>
<trkpt lat="45.9380560" lon="9.5946590">
	<ele>1335.20</ele>
	<time>2023-10-07T06:48:40.000Z</time>
</trkpt>
<trkpt lat="45.9380500" lon="9.5946750">
	<ele>1335.00</ele>
	<time>2023-10-07T06:48:41.000Z</time>
</trkpt>
<trkpt lat="45.9380460" lon="9.5946950">
	<ele>1335.00</ele>
	<time>2023-10-07T06:48:42.000Z</time>
</trkpt>
<trkpt lat="45.9380440" lon="9.5947120">
	<ele>1335.00</ele>
	<time>2023-10-07T06:48:43.000Z</time>
</trkpt>
<trkpt lat="45.9380440" lon="9.5947180">
	<ele>1335.00</ele>
	<time>2023-10-07T06:48:44.000Z</time>
</trkpt>
<trkpt lat="45.9380420" lon="9.5947320">
	<ele>1335.00</ele>
	<time>2023-10-07T06:48:45.000Z</time>
</trkpt>
<trkpt lat="45.9380380" lon="9.5947500">
	<ele>1335.20</ele>
	<time>2023-10-07T06:48:46.000Z</time>
</trkpt>
<trkpt lat="45.9380350" lon="9.5947670">
	<ele>1335.20</ele>
	<time>2023-10-07T06:48:47.000Z</time>
</trkpt>
<trkpt lat="45.9380320" lon="9.5947820">
	<ele>1335.20</ele>
	<time>2023-10-07T06:48:48.000Z</time>
</trkpt>
<trkpt lat="45.9380280" lon="9.5948010">
	<ele>1335.20</ele>
	<time>2023-10-07T06:48:49.000Z</time>
</trkpt>
<trkpt lat="45.9380250" lon="9.5948160">
	<ele>1335.40</ele>
	<time>2023-10-07T06:48:50.000Z</time>
</trkpt>
<trkpt lat="45.9380230" lon="9.5948330">
	<ele>1335.40</ele>
	<time>2023-10-07T06:48:51.000Z</time>
</trkpt>
<trkpt lat="45.9380190" lon="9.5948460">
	<ele>1335.40</ele>
	<time>2023-10-07T06:48:52.000Z</time>
</trkpt>
<trkpt lat="45.9380170" lon="9.5948600">
	<ele>1335.40</ele>
	<time>2023-10-07T06:48:53.000Z</time>
</trkpt>
<trkpt lat="45.9380150" lon="9.5948760">
	<ele>1335.40</ele>
	<time>2023-10-07T06:48:54.000Z</time>
</trkpt>
<trkpt lat="45.9380120" lon="9.5948930">
	<ele>1335.40</ele>
	<time>2023-10-07T06:48:55.000Z</time>
</trkpt>
<trkpt lat="45.9380090" lon="9.5949080">
	<ele>1335.40</ele>
	<time>2023-10-07T06:48:56.000Z</time>
</trkpt>
<trkpt lat="45.9380080" lon="9.5949220">
	<ele>1335.40</ele>
	<time>2023-10-07T06:48:57.000Z</time>
</trkpt>
<trkpt lat="45.9380050" lon="9.5949330">
	<ele>1335.60</ele>
	<time>2023-10-07T06:48:58.000Z</time>
</trkpt>
<trkpt lat="45.9380020" lon="9.5949430">
	<ele>1335.60</ele>
	<time>2023-10-07T06:48:59.000Z</time>
</trkpt>
<trkpt lat="45.9379980" lon="9.5949570">
	<ele>1335.60</ele>
	<time>2023-10-07T06:49:00.000Z</time>
</trkpt>
<trkpt lat="45.9379940" lon="9.5949770">
	<ele>1335.60</ele>
	<time>2023-10-07T06:49:01.000Z</time>
</trkpt>
<trkpt lat="45.9379900" lon="9.5949980">
	<ele>1335.80</ele>
	<time>2023-10-07T06:49:02.000Z</time>
</trkpt>
<trkpt lat="45.9379870" lon="9.5950160">
	<ele>1335.80</ele>
	<time>2023-10-07T06:49:03.000Z</time>
</trkpt>
<trkpt lat="45.9379840" lon="9.5950310">
	<ele>1335.80</ele>
	<time>2023-10-07T06:49:04.000Z</time>
</trkpt>
<trkpt lat="45.9379810" lon="9.5950480">
	<ele>1335.80</ele>
	<time>2023-10-07T06:49:05.000Z</time>
</trkpt>
<trkpt lat="45.9379780" lon="9.5950650">
	<ele>1335.80</ele>
	<time>2023-10-07T06:49:06.000Z</time>
</trkpt>
<trkpt lat="45.9379750" lon="9.5950820">
	<ele>1335.80</ele>
	<time>2023-10-07T06:49:07.000Z</time>
</trkpt>
<trkpt lat="45.9379720" lon="9.5950990">
	<ele>1335.80</ele>
	<time>2023-10-07T06:49:08.000Z</time>
</trkpt>
<trkpt lat="45.9379660" lon="9.5951160">
	<ele>1335.80</ele>
	<time>2023-10-07T06:49:09.000Z</time>
</trkpt>
<trkpt lat="45.9379610" lon="9.5951330">
	<ele>1335.80</ele>
	<time>2023-10-07T06:49:10.000Z</time>
</trkpt>
<trkpt lat="45.9379580" lon="9.5951470">
	<ele>1335.80</ele>
	<time>2023-10-07T06:49:11.000Z</time>
</trkpt>
<trkpt lat="45.9379550" lon="9.5951660">
	<ele>1335.80</ele>
	<time>2023-10-07T06:49:12.000Z</time>
</trkpt>
<trkpt lat="45.9379520" lon="9.5951820">
	<ele>1335.80</ele>
	<time>2023-10-07T06:49:13.000Z</time>
</trkpt>
<trkpt lat="45.9379500" lon="9.5951980">
	<ele>1335.80</ele>
	<time>2023-10-07T06:49:14.000Z</time>
</trkpt>
<trkpt lat="45.9379460" lon="9.5952110">
	<ele>1335.80</ele>
	<time>2023-10-07T06:49:15.000Z</time>
</trkpt>
<trkpt lat="45.9379410" lon="9.5952300">
	<ele>1335.80</ele>
	<time>2023-10-07T06:49:16.000Z</time>
</trkpt>
<trkpt lat="45.9379400" lon="9.5952440">
	<ele>1335.80</ele>
	<time>2023-10-07T06:49:17.000Z</time>
</trkpt>
<trkpt lat="45.9379360" lon="9.5952620">
	<ele>1335.80</ele>
	<time>2023-10-07T06:49:18.000Z</time>
</trkpt>
<trkpt lat="45.9379320" lon="9.5952820">
	<ele>1335.80</ele>
	<time>2023-10-07T06:49:19.000Z</time>
</trkpt>
<trkpt lat="45.9379300" lon="9.5952990">
	<ele>1335.80</ele>
	<time>2023-10-07T06:49:20.000Z</time>
</trkpt>
<trkpt lat="45.9379260" lon="9.5953220">
	<ele>1335.60</ele>
	<time>2023-10-07T06:49:21.000Z</time>
</trkpt>
<trkpt lat="45.9379240" lon="9.5953390">
	<ele>1335.60</ele>
	<time>2023-10-07T06:49:22.000Z</time>
</trkpt>
<trkpt lat="45.9379190" lon="9.5953590">
	<ele>1335.60</ele>
	<time>2023-10-07T06:49:23.000Z</time>
</trkpt>
<trkpt lat="45.9379150" lon="9.5953770">
	<ele>1335.40</ele>
	<time>2023-10-07T06:49:24.000Z</time>
</trkpt>
<trkpt lat="45.9379050" lon="9.5953910">
	<ele>1335.40</ele>
	<time>2023-10-07T06:49:25.000Z</time>
</trkpt>
<trkpt lat="45.9378990" lon="9.5954050">
	<ele>1335.40</ele>
	<time>2023-10-07T06:49:26.000Z</time>
</trkpt>
<trkpt lat="45.9378940" lon="9.5954220">
	<ele>1335.40</ele>
	<time>2023-10-07T06:49:27.000Z</time>
</trkpt>
<trkpt lat="45.9378910" lon="9.5954390">
	<ele>1335.40</ele>
	<time>2023-10-07T06:49:28.000Z</time>
</trkpt>
<trkpt lat="45.9378890" lon="9.5954560">
	<ele>1335.60</ele>
	<time>2023-10-07T06:49:29.000Z</time>
</trkpt>
<trkpt lat="45.9378850" lon="9.5954740">
	<ele>1335.60</ele>
	<time>2023-10-07T06:49:30.000Z</time>
</trkpt>
<trkpt lat="45.9378810" lon="9.5954930">
	<ele>1335.60</ele>
	<time>2023-10-07T06:49:31.000Z</time>
</trkpt>
<trkpt lat="45.9378750" lon="9.5955080">
	<ele>1335.60</ele>
	<time>2023-10-07T06:49:32.000Z</time>
</trkpt>
<trkpt lat="45.9378710" lon="9.5955270">
	<ele>1335.60</ele>
	<time>2023-10-07T06:49:33.000Z</time>
</trkpt>
<trkpt lat="45.9378680" lon="9.5955430">
	<ele>1335.60</ele>
	<time>2023-10-07T06:49:34.000Z</time>
</trkpt>
<trkpt lat="45.9378650" lon="9.5955640">
	<ele>1335.60</ele>
	<time>2023-10-07T06:49:35.000Z</time>
</trkpt>
<trkpt lat="45.9378610" lon="9.5955830">
	<ele>1335.80</ele>
	<time>2023-10-07T06:49:36.000Z</time>
</trkpt>
<trkpt lat="45.9378570" lon="9.5955950">
	<ele>1336.00</ele>
	<time>2023-10-07T06:49:37.000Z</time>
</trkpt>
<trkpt lat="45.9378510" lon="9.5956080">
	<ele>1336.00</ele>
	<time>2023-10-07T06:49:38.000Z</time>
</trkpt>
<trkpt lat="45.9378450" lon="9.5956250">
	<ele>1336.00</ele>
	<time>2023-10-07T06:49:39.000Z</time>
</trkpt>
<trkpt lat="45.9378390" lon="9.5956400">
	<ele>1336.20</ele>
	<time>2023-10-07T06:49:40.000Z</time>
</trkpt>
<trkpt lat="45.9378350" lon="9.5956520">
	<ele>1336.20</ele>
	<time>2023-10-07T06:49:41.000Z</time>
</trkpt>
<trkpt lat="45.9378260" lon="9.5956690">
	<ele>1336.20</ele>
	<time>2023-10-07T06:49:42.000Z</time>
</trkpt>
<trkpt lat="45.9378180" lon="9.5956860">
	<ele>1336.20</ele>
	<time>2023-10-07T06:49:43.000Z</time>
</trkpt>
<trkpt lat="45.9378130" lon="9.5957010">
	<ele>1336.40</ele>
	<time>2023-10-07T06:49:44.000Z</time>
</trkpt>
<trkpt lat="45.9378060" lon="9.5957130">
	<ele>1336.60</ele>
	<time>2023-10-07T06:49:45.000Z</time>
</trkpt>
<trkpt lat="45.9377980" lon="9.5957220">
	<ele>1336.60</ele>
	<time>2023-10-07T06:49:46.000Z</time>
</trkpt>
<trkpt lat="45.9377930" lon="9.5957370">
	<ele>1336.60</ele>
	<time>2023-10-07T06:49:47.000Z</time>
</trkpt>
<trkpt lat="45.9377890" lon="9.5957480">
	<ele>1336.80</ele>
	<time>2023-10-07T06:49:48.000Z</time>
</trkpt>
<trkpt lat="45.9377880" lon="9.5957630">
	<ele>1336.80</ele>
	<time>2023-10-07T06:49:49.000Z</time>
</trkpt>
<trkpt lat="45.9377880" lon="9.5957820">
	<ele>1337.00</ele>
	<time>2023-10-07T06:49:50.000Z</time>
</trkpt>
<trkpt lat="45.9377880" lon="9.5958000">
	<ele>1337.00</ele>
	<time>2023-10-07T06:49:51.000Z</time>
</trkpt>
<trkpt lat="45.9377790" lon="9.5958150">
	<ele>1337.00</ele>
	<time>2023-10-07T06:49:52.000Z</time>
</trkpt>
<trkpt lat="45.9377700" lon="9.5958200">
	<ele>1337.20</ele>
	<time>2023-10-07T06:49:53.000Z</time>
</trkpt>
<trkpt lat="45.9377640" lon="9.5958290">
	<ele>1337.60</ele>
	<time>2023-10-07T06:49:54.000Z</time>
</trkpt>
<trkpt lat="45.9377510" lon="9.5958400">
	<ele>1337.60</ele>
	<time>2023-10-07T06:49:55.000Z</time>
</trkpt>
<trkpt lat="45.9377420" lon="9.5958510">
	<ele>1337.80</ele>
	<time>2023-10-07T06:49:56.000Z</time>
</trkpt>
<trkpt lat="45.9377400" lon="9.5958580">
	<ele>1337.80</ele>
	<time>2023-10-07T06:49:57.000Z</time>
</trkpt>
<trkpt lat="45.9377340" lon="9.5958640">
	<ele>1338.00</ele>
	<time>2023-10-07T06:49:58.000Z</time>
</trkpt>
<trkpt lat="45.9377280" lon="9.5958760">
	<ele>1338.20</ele>
	<time>2023-10-07T06:49:59.000Z</time>
</trkpt>
<trkpt lat="45.9377270" lon="9.5958840">
	<ele>1338.40</ele>
	<time>2023-10-07T06:50:00.000Z</time>
</trkpt>
<trkpt lat="45.9377280" lon="9.5958950">
	<ele>1338.40</ele>
	<time>2023-10-07T06:50:01.000Z</time>
</trkpt>
<trkpt lat="45.9377260" lon="9.5959050">
	<ele>1338.80</ele>
	<time>2023-10-07T06:50:02.000Z</time>
</trkpt>
<trkpt lat="45.9377270" lon="9.5959220">
	<ele>1339.00</ele>
	<time>2023-10-07T06:50:03.000Z</time>
</trkpt>
<trkpt lat="45.9377280" lon="9.5959390">
	<ele>1339.00</ele>
	<time>2023-10-07T06:50:04.000Z</time>
</trkpt>
<trkpt lat="45.9377250" lon="9.5959580">
	<ele>1339.20</ele>
	<time>2023-10-07T06:50:05.000Z</time>
</trkpt>
<trkpt lat="45.9377210" lon="9.5959750">
	<ele>1339.40</ele>
	<time>2023-10-07T06:50:06.000Z</time>
</trkpt>
<trkpt lat="45.9377160" lon="9.5959920">
	<ele>1339.40</ele>
	<time>2023-10-07T06:50:07.000Z</time>
</trkpt>
<trkpt lat="45.9377180" lon="9.5960050">
	<ele>1339.60</ele>
	<time>2023-10-07T06:50:08.000Z</time>
</trkpt>
<trkpt lat="45.9377210" lon="9.5960230">
	<ele>1339.60</ele>
	<time>2023-10-07T06:50:09.000Z</time>
</trkpt>
<trkpt lat="45.9377240" lon="9.5960370">
	<ele>1339.80</ele>
	<time>2023-10-07T06:50:10.000Z</time>
</trkpt>
<trkpt lat="45.9377230" lon="9.5960570">
	<ele>1340.00</ele>
	<time>2023-10-07T06:50:11.000Z</time>
</trkpt>
<trkpt lat="45.9377230" lon="9.5960660">
	<ele>1340.00</ele>
	<time>2023-10-07T06:50:12.000Z</time>
</trkpt>
<trkpt lat="45.9377220" lon="9.5960760">
	<ele>1340.20</ele>
	<time>2023-10-07T06:50:13.000Z</time>
</trkpt>
<trkpt lat="45.9377210" lon="9.5960840">
	<ele>1340.40</ele>
	<time>2023-10-07T06:50:14.000Z</time>
</trkpt>
<trkpt lat="45.9377180" lon="9.5960950">
	<ele>1340.60</ele>
	<time>2023-10-07T06:50:15.000Z</time>
</trkpt>
<trkpt lat="45.9377160" lon="9.5961090">
	<ele>1340.80</ele>
	<time>2023-10-07T06:50:16.000Z</time>
</trkpt>
<trkpt lat="45.9377140" lon="9.5961260">
	<ele>1341.00</ele>
	<time>2023-10-07T06:50:17.000Z</time>
</trkpt>
<trkpt lat="45.9377130" lon="9.5961410">
	<ele>1341.00</ele>
	<time>2023-10-07T06:50:18.000Z</time>
</trkpt>
<trkpt lat="45.9377110" lon="9.5961520">
	<ele>1341.20</ele>
	<time>2023-10-07T06:50:19.000Z</time>
</trkpt>
<trkpt lat="45.9377110" lon="9.5961580">
	<ele>1341.20</ele>
	<time>2023-10-07T06:50:20.000Z</time>
</trkpt>
<trkpt lat="45.9377090" lon="9.5961670">
	<ele>1341.20</ele>
	<time>2023-10-07T06:50:21.000Z</time>
</trkpt>
<trkpt lat="45.9377060" lon="9.5961830">
	<ele>1341.20</ele>
	<time>2023-10-07T06:50:22.000Z</time>
</trkpt>
<trkpt lat="45.9377040" lon="9.5961970">
	<ele>1341.40</ele>
	<time>2023-10-07T06:50:23.000Z</time>
</trkpt>
<trkpt lat="45.9377020" lon="9.5962090">
	<ele>1341.40</ele>
	<time>2023-10-07T06:50:24.000Z</time>
</trkpt>
<trkpt lat="45.9377010" lon="9.5962240">
	<ele>1341.40</ele>
	<time>2023-10-07T06:50:25.000Z</time>
</trkpt>
<trkpt lat="45.9377030" lon="9.5962380">
	<ele>1341.60</ele>
	<time>2023-10-07T06:50:26.000Z</time>
</trkpt>
<trkpt lat="45.9377040" lon="9.5962500">
	<ele>1341.60</ele>
	<time>2023-10-07T06:50:27.000Z</time>
</trkpt>
<trkpt lat="45.9377040" lon="9.5962610">
	<ele>1341.40</ele>
	<time>2023-10-07T06:50:28.000Z</time>
</trkpt>
<trkpt lat="45.9377000" lon="9.5962790">
	<ele>1341.40</ele>
	<time>2023-10-07T06:50:29.000Z</time>
</trkpt>
<trkpt lat="45.9376970" lon="9.5962930">
	<ele>1341.40</ele>
	<time>2023-10-07T06:50:30.000Z</time>
</trkpt>
<trkpt lat="45.9376950" lon="9.5963060">
	<ele>1341.40</ele>
	<time>2023-10-07T06:50:31.000Z</time>
</trkpt>
<trkpt lat="45.9376940" lon="9.5963140">
	<ele>1341.40</ele>
	<time>2023-10-07T06:50:32.000Z</time>
</trkpt>
<trkpt lat="45.9376950" lon="9.5963310">
	<ele>1341.60</ele>
	<time>2023-10-07T06:50:33.000Z</time>
</trkpt>
<trkpt lat="45.9377030" lon="9.5963530">
	<ele>1341.60</ele>
	<time>2023-10-07T06:50:34.000Z</time>
</trkpt>
<trkpt lat="45.9377060" lon="9.5963650">
	<ele>1341.60</ele>
	<time>2023-10-07T06:50:35.000Z</time>
</trkpt>
<trkpt lat="45.9377070" lon="9.5963740">
	<ele>1341.80</ele>
	<time>2023-10-07T06:50:36.000Z</time>
</trkpt>
<trkpt lat="45.9377080" lon="9.5963860">
	<ele>1342.00</ele>
	<time>2023-10-07T06:50:37.000Z</time>
</trkpt>
<trkpt lat="45.9377080" lon="9.5964030">
	<ele>1342.00</ele>
	<time>2023-10-07T06:50:38.000Z</time>
</trkpt>
<trkpt lat="45.9377080" lon="9.5964210">
	<ele>1342.20</ele>
	<time>2023-10-07T06:50:39.000Z</time>
</trkpt>
<trkpt lat="45.9377160" lon="9.5964440">
	<ele>1342.40</ele>
	<time>2023-10-07T06:50:40.000Z</time>
</trkpt>
<trkpt lat="45.9377190" lon="9.5964670">
	<ele>1342.40</ele>
	<time>2023-10-07T06:50:41.000Z</time>
</trkpt>
<trkpt lat="45.9377260" lon="9.5964840">
	<ele>1342.40</ele>
	<time>2023-10-07T06:50:42.000Z</time>
</trkpt>
<trkpt lat="45.9377250" lon="9.5964980">
	<ele>1342.80</ele>
	<time>2023-10-07T06:50:43.000Z</time>
</trkpt>
<trkpt lat="45.9377230" lon="9.5965160">
	<ele>1342.80</ele>
	<time>2023-10-07T06:50:44.000Z</time>
</trkpt>
<trkpt lat="45.9377240" lon="9.5965270">
	<ele>1343.00</ele>
	<time>2023-10-07T06:50:45.000Z</time>
</trkpt>
<trkpt lat="45.9377260" lon="9.5965330">
	<ele>1343.00</ele>
	<time>2023-10-07T06:50:46.000Z</time>
</trkpt>
<trkpt lat="45.9377310" lon="9.5965450">
	<ele>1343.20</ele>
	<time>2023-10-07T06:50:47.000Z</time>
</trkpt>
<trkpt lat="45.9377330" lon="9.5965590">
	<ele>1343.40</ele>
	<time>2023-10-07T06:50:48.000Z</time>
</trkpt>
<trkpt lat="45.9377350" lon="9.5965710">
	<ele>1343.60</ele>
	<time>2023-10-07T06:50:49.000Z</time>
</trkpt>
<trkpt lat="45.9377340" lon="9.5965900">
	<ele>1343.60</ele>
	<time>2023-10-07T06:50:50.000Z</time>
</trkpt>
<trkpt lat="45.9377310" lon="9.5966060">
	<ele>1343.60</ele>
	<time>2023-10-07T06:50:51.000Z</time>
</trkpt>
<trkpt lat="45.9377270" lon="9.5966290">
	<ele>1343.80</ele>
	<time>2023-10-07T06:50:52.000Z</time>
</trkpt>
<trkpt lat="45.9377240" lon="9.5966430">
	<ele>1343.80</ele>
	<time>2023-10-07T06:50:53.000Z</time>
</trkpt>
<trkpt lat="45.9377190" lon="9.5966610">
	<ele>1344.00</ele>
	<time>2023-10-07T06:50:54.000Z</time>
</trkpt>
<trkpt lat="45.9377060" lon="9.5966830">
	<ele>1344.20</ele>
	<time>2023-10-07T06:50:55.000Z</time>
</trkpt>
<trkpt lat="45.9377010" lon="9.5966920">
	<ele>1344.60</ele>
	<time>2023-10-07T06:50:56.000Z</time>
</trkpt>
<trkpt lat="45.9377020" lon="9.5967020">
	<ele>1344.80</ele>
	<time>2023-10-07T06:50:57.000Z</time>
</trkpt>
<trkpt lat="45.9377010" lon="9.5967060">
	<ele>1345.00</ele>
	<time>2023-10-07T06:50:58.000Z</time>
</trkpt>
<trkpt lat="45.9376960" lon="9.5967160">
	<ele>1345.00</ele>
	<time>2023-10-07T06:50:59.000Z</time>
</trkpt>
<trkpt lat="45.9376950" lon="9.5967290">
	<ele>1345.40</ele>
	<time>2023-10-07T06:51:00.000Z</time>
</trkpt>
<trkpt lat="45.9376910" lon="9.5967480">
	<ele>1345.60</ele>
	<time>2023-10-07T06:51:01.000Z</time>
</trkpt>
<trkpt lat="45.9376850" lon="9.5967570">
	<ele>1345.60</ele>
	<time>2023-10-07T06:51:02.000Z</time>
</trkpt>
<trkpt lat="45.9376860" lon="9.5967630">
	<ele>1345.60</ele>
	<time>2023-10-07T06:51:03.000Z</time>
</trkpt>
<trkpt lat="45.9376850" lon="9.5967660">
	<ele>1345.60</ele>
	<time>2023-10-07T06:51:04.000Z</time>
</trkpt>
<trkpt lat="45.9376830" lon="9.5967720">
	<ele>1345.60</ele>
	<time>2023-10-07T06:51:05.000Z</time>
</trkpt>
<trkpt lat="45.9376840" lon="9.5967720">
	<ele>1345.60</ele>
	<time>2023-10-07T06:51:06.000Z</time>
</trkpt>
<trkpt lat="45.9376770" lon="9.5967670">
	<ele>1345.60</ele>
	<time>2023-10-07T06:51:07.000Z</time>
</trkpt>
<trkpt lat="45.9376700" lon="9.5967640">
	<ele>1345.60</ele>
	<time>2023-10-07T06:51:08.000Z</time>
</trkpt>
<trkpt lat="45.9376630" lon="9.5967630">
	<ele>1345.60</ele>
	<time>2023-10-07T06:51:09.000Z</time>
</trkpt>
<trkpt lat="45.9376620" lon="9.5967740">
	<ele>1345.60</ele>
	<time>2023-10-07T06:51:10.000Z</time>
</trkpt>
<trkpt lat="45.9376610" lon="9.5967830">
	<ele>1345.60</ele>
	<time>2023-10-07T06:51:11.000Z</time>
</trkpt>
<trkpt lat="45.9376640" lon="9.5967970">
	<ele>1345.60</ele>
	<time>2023-10-07T06:51:12.000Z</time>
</trkpt>
<trkpt lat="45.9376620" lon="9.5968130">
	<ele>1345.60</ele>
	<time>2023-10-07T06:51:13.000Z</time>
</trkpt>
<trkpt lat="45.9376570" lon="9.5968300">
	<ele>1345.60</ele>
	<time>2023-10-07T06:51:14.000Z</time>
</trkpt>
<trkpt lat="45.9376570" lon="9.5968460">
	<ele>1345.60</ele>
	<time>2023-10-07T06:51:15.000Z</time>
</trkpt>
<trkpt lat="45.9376580" lon="9.5968580">
	<ele>1345.60</ele>
	<time>2023-10-07T06:51:16.000Z</time>
</trkpt>
<trkpt lat="45.9376520" lon="9.5968710">
	<ele>1345.60</ele>
	<time>2023-10-07T06:51:17.000Z</time>
</trkpt>
<trkpt lat="45.9376470" lon="9.5968820">
	<ele>1345.60</ele>
	<time>2023-10-07T06:51:18.000Z</time>
</trkpt>
<trkpt lat="45.9376460" lon="9.5968890">
	<ele>1345.80</ele>
	<time>2023-10-07T06:51:19.000Z</time>
</trkpt>
<trkpt lat="45.9376430" lon="9.5969020">
	<ele>1345.80</ele>
	<time>2023-10-07T06:51:20.000Z</time>
</trkpt>
<trkpt lat="45.9376350" lon="9.5969150">
	<ele>1345.80</ele>
	<time>2023-10-07T06:51:21.000Z</time>
</trkpt>
<trkpt lat="45.9376280" lon="9.5969290">
	<ele>1345.80</ele>
	<time>2023-10-07T06:51:22.000Z</time>
</trkpt>
<trkpt lat="45.9376100" lon="9.5969450">
	<ele>1346.00</ele>
	<time>2023-10-07T06:51:23.000Z</time>
</trkpt>
<trkpt lat="45.9376050" lon="9.5969500">
	<ele>1346.00</ele>
	<time>2023-10-07T06:51:24.000Z</time>
</trkpt>
<trkpt lat="45.9376000" lon="9.5969600">
	<ele>1346.20</ele>
	<time>2023-10-07T06:51:25.000Z</time>
</trkpt>
<trkpt lat="45.9375930" lon="9.5969710">
	<ele>1346.20</ele>
	<time>2023-10-07T06:51:26.000Z</time>
</trkpt>
<trkpt lat="45.9375950" lon="9.5969820">
	<ele>1346.40</ele>
	<time>2023-10-07T06:51:27.000Z</time>
</trkpt>
<trkpt lat="45.9375920" lon="9.5969880">
	<ele>1346.60</ele>
	<time>2023-10-07T06:51:28.000Z</time>
</trkpt>
<trkpt lat="45.9375870" lon="9.5969870">
	<ele>1346.80</ele>
	<time>2023-10-07T06:51:29.000Z</time>
</trkpt>
<trkpt lat="45.9375760" lon="9.5969870">
	<ele>1347.00</ele>
	<time>2023-10-07T06:51:30.000Z</time>
</trkpt>
<trkpt lat="45.9375730" lon="9.5969900">
	<ele>1347.00</ele>
	<time>2023-10-07T06:51:31.000Z</time>
</trkpt>
<trkpt lat="45.9375660" lon="9.5970000">
	<ele>1347.00</ele>
	<time>2023-10-07T06:51:32.000Z</time>
</trkpt>
<trkpt lat="45.9375580" lon="9.5970060">
	<ele>1347.20</ele>
	<time>2023-10-07T06:51:33.000Z</time>
</trkpt>
<trkpt lat="45.9375480" lon="9.5970070">
	<ele>1347.40</ele>
	<time>2023-10-07T06:51:34.000Z</time>
</trkpt>
<trkpt lat="45.9375400" lon="9.5970120">
	<ele>1347.60</ele>
	<time>2023-10-07T06:51:35.000Z</time>
</trkpt>
<trkpt lat="45.9375310" lon="9.5970160">
	<ele>1347.80</ele>
	<time>2023-10-07T06:51:36.000Z</time>
</trkpt>
<trkpt lat="45.9375240" lon="9.5970260">
	<ele>1348.00</ele>
	<time>2023-10-07T06:51:37.000Z</time>
</trkpt>
<trkpt lat="45.9375180" lon="9.5970380">
	<ele>1348.00</ele>
	<time>2023-10-07T06:51:38.000Z</time>
</trkpt>
<trkpt lat="45.9375200" lon="9.5970500">
	<ele>1348.40</ele>
	<time>2023-10-07T06:51:39.000Z</time>
</trkpt>
<trkpt lat="45.9375250" lon="9.5970680">
	<ele>1348.60</ele>
	<time>2023-10-07T06:51:40.000Z</time>
</trkpt>
<trkpt lat="45.9375230" lon="9.5970760">
	<ele>1348.80</ele>
	<time>2023-10-07T06:51:41.000Z</time>
</trkpt>
<trkpt lat="45.9375170" lon="9.5970800">
	<ele>1349.00</ele>
	<time>2023-10-07T06:51:42.000Z</time>
</trkpt>
<trkpt lat="45.9375060" lon="9.5970810">
	<ele>1349.20</ele>
	<time>2023-10-07T06:51:43.000Z</time>
</trkpt>
<trkpt lat="45.9375000" lon="9.5970860">
	<ele>1349.20</ele>
	<time>2023-10-07T06:51:44.000Z</time>
</trkpt>
<trkpt lat="45.9375000" lon="9.5970930">
	<ele>1349.40</ele>
	<time>2023-10-07T06:51:45.000Z</time>
</trkpt>
<trkpt lat="45.9374940" lon="9.5971040">
	<ele>1349.60</ele>
	<time>2023-10-07T06:51:46.000Z</time>
</trkpt>
<trkpt lat="45.9374890" lon="9.5971180">
	<ele>1349.80</ele>
	<time>2023-10-07T06:51:47.000Z</time>
</trkpt>
<trkpt lat="45.9374880" lon="9.5971260">
	<ele>1350.00</ele>
	<time>2023-10-07T06:51:48.000Z</time>
</trkpt>
<trkpt lat="45.9374860" lon="9.5971460">
	<ele>1350.20</ele>
	<time>2023-10-07T06:51:49.000Z</time>
</trkpt>
<trkpt lat="45.9374890" lon="9.5971600">
	<ele>1350.20</ele>
	<time>2023-10-07T06:51:50.000Z</time>
</trkpt>
<trkpt lat="45.9374860" lon="9.5971760">
	<ele>1350.40</ele>
	<time>2023-10-07T06:51:51.000Z</time>
</trkpt>
<trkpt lat="45.9374820" lon="9.5971910">
	<ele>1350.40</ele>
	<time>2023-10-07T06:51:52.000Z</time>
</trkpt>
<trkpt lat="45.9374790" lon="9.5971980">
	<ele>1350.80</ele>
	<time>2023-10-07T06:51:53.000Z</time>
</trkpt>
<trkpt lat="45.9374780" lon="9.5972220">
	<ele>1351.00</ele>
	<time>2023-10-07T06:51:54.000Z</time>
</trkpt>
<trkpt lat="45.9374760" lon="9.5972410">
	<ele>1351.20</ele>
	<time>2023-10-07T06:51:55.000Z</time>
</trkpt>
<trkpt lat="45.9374730" lon="9.5972530">
	<ele>1351.40</ele>
	<time>2023-10-07T06:51:56.000Z</time>
</trkpt>
<trkpt lat="45.9374670" lon="9.5972670">
	<ele>1351.40</ele>
	<time>2023-10-07T06:51:57.000Z</time>
</trkpt>
<trkpt lat="45.9374650" lon="9.5972790">
	<ele>1351.60</ele>
	<time>2023-10-07T06:51:58.000Z</time>
</trkpt>
<trkpt lat="45.9374640" lon="9.5972850">
	<ele>1351.80</ele>
	<time>2023-10-07T06:51:59.000Z</time>
</trkpt>
<trkpt lat="45.9374650" lon="9.5972950">
	<ele>1352.00</ele>
	<time>2023-10-07T06:52:00.000Z</time>
</trkpt>
<trkpt lat="45.9374620" lon="9.5973070">
	<ele>1352.20</ele>
	<time>2023-10-07T06:52:01.000Z</time>
</trkpt>
<trkpt lat="45.9374600" lon="9.5973110">
	<ele>1352.40</ele>
	<time>2023-10-07T06:52:02.000Z</time>
</trkpt>
<trkpt lat="45.9374520" lon="9.5973220">
	<ele>1352.60</ele>
	<time>2023-10-07T06:52:03.000Z</time>
</trkpt>
<trkpt lat="45.9374460" lon="9.5973330">
	<ele>1352.80</ele>
	<time>2023-10-07T06:52:04.000Z</time>
</trkpt>
<trkpt lat="45.9374410" lon="9.5973420">
	<ele>1352.80</ele>
	<time>2023-10-07T06:52:05.000Z</time>
</trkpt>
<trkpt lat="45.9374370" lon="9.5973550">
	<ele>1353.00</ele>
	<time>2023-10-07T06:52:06.000Z</time>
</trkpt>
<trkpt lat="45.9374360" lon="9.5973630">
	<ele>1353.20</ele>
	<time>2023-10-07T06:52:07.000Z</time>
</trkpt>
<trkpt lat="45.9374400" lon="9.5973850">
	<ele>1353.40</ele>
	<time>2023-10-07T06:52:08.000Z</time>
</trkpt>
<trkpt lat="45.9374380" lon="9.5974000">
	<ele>1353.60</ele>
	<time>2023-10-07T06:52:09.000Z</time>
</trkpt>
<trkpt lat="45.9374360" lon="9.5974070">
	<ele>1353.80</ele>
	<time>2023-10-07T06:52:10.000Z</time>
</trkpt>
<trkpt lat="45.9374300" lon="9.5974150">
	<ele>1354.00</ele>
	<time>2023-10-07T06:52:11.000Z</time>
</trkpt>
<trkpt lat="45.9374280" lon="9.5974270">
	<ele>1354.00</ele>
	<time>2023-10-07T06:52:12.000Z</time>
</trkpt>
<trkpt lat="45.9374260" lon="9.5974420">
	<ele>1354.20</ele>
	<time>2023-10-07T06:52:13.000Z</time>
</trkpt>
<trkpt lat="45.9374250" lon="9.5974620">
	<ele>1354.60</ele>
	<time>2023-10-07T06:52:14.000Z</time>
</trkpt>
<trkpt lat="45.9374170" lon="9.5974730">
	<ele>1354.80</ele>
	<time>2023-10-07T06:52:15.000Z</time>
</trkpt>
<trkpt lat="45.9374140" lon="9.5974800">
	<ele>1355.00</ele>
	<time>2023-10-07T06:52:16.000Z</time>
</trkpt>
<trkpt lat="45.9374150" lon="9.5974920">
	<ele>1355.20</ele>
	<time>2023-10-07T06:52:17.000Z</time>
</trkpt>
<trkpt lat="45.9374110" lon="9.5975030">
	<ele>1355.40</ele>
	<time>2023-10-07T06:52:18.000Z</time>
</trkpt>
<trkpt lat="45.9374100" lon="9.5975170">
	<ele>1355.60</ele>
	<time>2023-10-07T06:52:19.000Z</time>
</trkpt>
<trkpt lat="45.9374060" lon="9.5975300">
	<ele>1355.80</ele>
	<time>2023-10-07T06:52:20.000Z</time>
</trkpt>
<trkpt lat="45.9374020" lon="9.5975390">
	<ele>1356.00</ele>
	<time>2023-10-07T06:52:21.000Z</time>
</trkpt>
<trkpt lat="45.9373990" lon="9.5975540">
	<ele>1356.00</ele>
	<time>2023-10-07T06:52:22.000Z</time>
</trkpt>
<trkpt lat="45.9373980" lon="9.5975650">
	<ele>1356.20</ele>
	<time>2023-10-07T06:52:23.000Z</time>
</trkpt>
<trkpt lat="45.9373980" lon="9.5975730">
	<ele>1356.40</ele>
	<time>2023-10-07T06:52:24.000Z</time>
</trkpt>
<trkpt lat="45.9373940" lon="9.5975870">
	<ele>1356.60</ele>
	<time>2023-10-07T06:52:25.000Z</time>
</trkpt>
<trkpt lat="45.9373870" lon="9.5975980">
	<ele>1356.60</ele>
	<time>2023-10-07T06:52:26.000Z</time>
</trkpt>
<trkpt lat="45.9373850" lon="9.5976020">
	<ele>1356.60</ele>
	<time>2023-10-07T06:52:27.000Z</time>
</trkpt>
<trkpt lat="45.9373770" lon="9.5976140">
	<ele>1357.00</ele>
	<time>2023-10-07T06:52:28.000Z</time>
</trkpt>
<trkpt lat="45.9373710" lon="9.5976250">
	<ele>1357.20</ele>
	<time>2023-10-07T06:52:29.000Z</time>
</trkpt>
<trkpt lat="45.9373610" lon="9.5976320">
	<ele>1357.40</ele>
	<time>2023-10-07T06:52:30.000Z</time>
</trkpt>
<trkpt lat="45.9373540" lon="9.5976420">
	<ele>1357.60</ele>
	<time>2023-10-07T06:52:31.000Z</time>
</trkpt>
<trkpt lat="45.9373460" lon="9.5976550">
	<ele>1357.80</ele>
	<time>2023-10-07T06:52:32.000Z</time>
</trkpt>
<trkpt lat="45.9373360" lon="9.5976670">
	<ele>1358.00</ele>
	<time>2023-10-07T06:52:33.000Z</time>
</trkpt>
<trkpt lat="45.9373290" lon="9.5976770">
	<ele>1358.20</ele>
	<time>2023-10-07T06:52:34.000Z</time>
</trkpt>
<trkpt lat="45.9373260" lon="9.5976880">
	<ele>1358.20</ele>
	<time>2023-10-07T06:52:35.000Z</time>
</trkpt>
<trkpt lat="45.9373220" lon="9.5976970">
	<ele>1358.40</ele>
	<time>2023-10-07T06:52:36.000Z</time>
</trkpt>
<trkpt lat="45.9373170" lon="9.5977100">
	<ele>1358.60</ele>
	<time>2023-10-07T06:52:37.000Z</time>
</trkpt>
<trkpt lat="45.9373120" lon="9.5977220">
	<ele>1358.60</ele>
	<time>2023-10-07T06:52:38.000Z</time>
</trkpt>
<trkpt lat="45.9373030" lon="9.5977320">
	<ele>1358.60</ele>
	<time>2023-10-07T06:52:39.000Z</time>
</trkpt>
<trkpt lat="45.9372910" lon="9.5977340">
	<ele>1358.80</ele>
	<time>2023-10-07T06:52:40.000Z</time>
</trkpt>
<trkpt lat="45.9372810" lon="9.5977500">
	<ele>1359.00</ele>
	<time>2023-10-07T06:52:41.000Z</time>
</trkpt>
<trkpt lat="45.9372740" lon="9.5977530">
	<ele>1359.00</ele>
	<time>2023-10-07T06:52:42.000Z</time>
</trkpt>
<trkpt lat="45.9372660" lon="9.5977570">
	<ele>1359.20</ele>
	<time>2023-10-07T06:52:43.000Z</time>
</trkpt>
<trkpt lat="45.9372560" lon="9.5977620">
	<ele>1359.40</ele>
	<time>2023-10-07T06:52:44.000Z</time>
</trkpt>
<trkpt lat="45.9372500" lon="9.5977760">
	<ele>1359.60</ele>
	<time>2023-10-07T06:52:45.000Z</time>
</trkpt>
<trkpt lat="45.9372510" lon="9.5977850">
	<ele>1359.80</ele>
	<time>2023-10-07T06:52:46.000Z</time>
</trkpt>
<trkpt lat="45.9372510" lon="9.5977920">
	<ele>1360.00</ele>
	<time>2023-10-07T06:52:47.000Z</time>
</trkpt>
<trkpt lat="45.9372460" lon="9.5978060">
	<ele>1360.20</ele>
	<time>2023-10-07T06:52:48.000Z</time>
</trkpt>
<trkpt lat="45.9372450" lon="9.5978140">
	<ele>1360.40</ele>
	<time>2023-10-07T06:52:49.000Z</time>
</trkpt>
<trkpt lat="45.9372430" lon="9.5978220">
	<ele>1360.60</ele>
	<time>2023-10-07T06:52:50.000Z</time>
</trkpt>
<trkpt lat="45.9372400" lon="9.5978290">
	<ele>1360.80</ele>
	<time>2023-10-07T06:52:51.000Z</time>
</trkpt>
<trkpt lat="45.9372380" lon="9.5978410">
	<ele>1361.00</ele>
	<time>2023-10-07T06:52:52.000Z</time>
</trkpt>
<trkpt lat="45.9372340" lon="9.5978530">
	<ele>1361.00</ele>
	<time>2023-10-07T06:52:53.000Z</time>
</trkpt>
<trkpt lat="45.9372230" lon="9.5978570">
	<ele>1361.00</ele>
	<time>2023-10-07T06:52:54.000Z</time>
</trkpt>
<trkpt lat="45.9372190" lon="9.5978650">
	<ele>1361.20</ele>
	<time>2023-10-07T06:52:55.000Z</time>
</trkpt>
<trkpt lat="45.9372130" lon="9.5978640">
	<ele>1361.40</ele>
	<time>2023-10-07T06:52:56.000Z</time>
</trkpt>
<trkpt lat="45.9372050" lon="9.5978690">
	<ele>1361.40</ele>
	<time>2023-10-07T06:52:57.000Z</time>
</trkpt>
<trkpt lat="45.9372020" lon="9.5978730">
	<ele>1361.60</ele>
	<time>2023-10-07T06:52:58.000Z</time>
</trkpt>
<trkpt lat="45.9371980" lon="9.5978870">
	<ele>1361.80</ele>
	<time>2023-10-07T06:52:59.000Z</time>
</trkpt>
<trkpt lat="45.9371930" lon="9.5978940">
	<ele>1362.00</ele>
	<time>2023-10-07T06:53:00.000Z</time>
</trkpt>
<trkpt lat="45.9371830" lon="9.5978980">
	<ele>1362.20</ele>
	<time>2023-10-07T06:53:01.000Z</time>
</trkpt>
<trkpt lat="45.9371710" lon="9.5979030">
	<ele>1362.20</ele>
	<time>2023-10-07T06:53:02.000Z</time>
</trkpt>
<trkpt lat="45.9371610" lon="9.5979090">
	<ele>1362.40</ele>
	<time>2023-10-07T06:53:03.000Z</time>
</trkpt>
<trkpt lat="45.9371500" lon="9.5979120">
	<ele>1362.40</ele>
	<time>2023-10-07T06:53:04.000Z</time>
</trkpt>
<trkpt lat="45.9371460" lon="9.5979250">
	<ele>1362.60</ele>
	<time>2023-10-07T06:53:05.000Z</time>
</trkpt>
<trkpt lat="45.9371450" lon="9.5979440">
	<ele>1362.60</ele>
	<time>2023-10-07T06:53:06.000Z</time>
</trkpt>
<trkpt lat="45.9371450" lon="9.5979680">
	<ele>1362.80</ele>
	<time>2023-10-07T06:53:07.000Z</time>
</trkpt>
<trkpt lat="45.9371390" lon="9.5979640">
	<ele>1362.80</ele>
	<time>2023-10-07T06:53:08.000Z</time>
</trkpt>
<trkpt lat="45.9371340" lon="9.5979590">
	<ele>1363.00</ele>
	<time>2023-10-07T06:53:09.000Z</time>
</trkpt>
<trkpt lat="45.9371330" lon="9.5979700">
	<ele>1363.00</ele>
	<time>2023-10-07T06:53:10.000Z</time>
</trkpt>
<trkpt lat="45.9371260" lon="9.5979940">
	<ele>1363.00</ele>
	<time>2023-10-07T06:53:11.000Z</time>
</trkpt>
<trkpt lat="45.9371260" lon="9.5980200">
	<ele>1363.20</ele>
	<time>2023-10-07T06:53:12.000Z</time>
</trkpt>
<trkpt lat="45.9371200" lon="9.5980400">
	<ele>1363.40</ele>
	<time>2023-10-07T06:53:13.000Z</time>
</trkpt>
<trkpt lat="45.9371170" lon="9.5980460">
	<ele>1363.40</ele>
	<time>2023-10-07T06:53:14.000Z</time>
</trkpt>
<trkpt lat="45.9371250" lon="9.5980600">
	<ele>1363.60</ele>
	<time>2023-10-07T06:53:15.000Z</time>
</trkpt>
<trkpt lat="45.9371240" lon="9.5980750">
	<ele>1363.60</ele>
	<time>2023-10-07T06:53:16.000Z</time>
</trkpt>
<trkpt lat="45.9371180" lon="9.5980720">
	<ele>1363.80</ele>
	<time>2023-10-07T06:53:17.000Z</time>
</trkpt>
<trkpt lat="45.9371170" lon="9.5980820">
	<ele>1363.80</ele>
	<time>2023-10-07T06:53:18.000Z</time>
</trkpt>
<trkpt lat="45.9371130" lon="9.5980930">
	<ele>1364.00</ele>
	<time>2023-10-07T06:53:19.000Z</time>
</trkpt>
<trkpt lat="45.9371090" lon="9.5981040">
	<ele>1364.20</ele>
	<time>2023-10-07T06:53:20.000Z</time>
</trkpt>
<trkpt lat="45.9371080" lon="9.5981190">
	<ele>1364.40</ele>
	<time>2023-10-07T06:53:21.000Z</time>
</trkpt>
<trkpt lat="45.9371060" lon="9.5981340">
	<ele>1364.60</ele>
	<time>2023-10-07T06:53:22.000Z</time>
</trkpt>
<trkpt lat="45.9371050" lon="9.5981510">
	<ele>1364.60</ele>
	<time>2023-10-07T06:53:23.000Z</time>
</trkpt>
<trkpt lat="45.9371010" lon="9.5981650">
	<ele>1364.80</ele>
	<time>2023-10-07T06:53:24.000Z</time>
</trkpt>
<trkpt lat="45.9370970" lon="9.5981820">
	<ele>1365.00</ele>
	<time>2023-10-07T06:53:25.000Z</time>
</trkpt>
<trkpt lat="45.9370900" lon="9.5981880">
	<ele>1365.00</ele>
	<time>2023-10-07T06:53:26.000Z</time>
</trkpt>
<trkpt lat="45.9370810" lon="9.5981960">
	<ele>1365.20</ele>
	<time>2023-10-07T06:53:27.000Z</time>
</trkpt>
<trkpt lat="45.9370750" lon="9.5982010">
	<ele>1365.40</ele>
	<time>2023-10-07T06:53:28.000Z</time>
</trkpt>
<trkpt lat="45.9370700" lon="9.5982120">
	<ele>1365.60</ele>
	<time>2023-10-07T06:53:29.000Z</time>
</trkpt>
<trkpt lat="45.9370640" lon="9.5982180">
	<ele>1365.80</ele>
	<time>2023-10-07T06:53:30.000Z</time>
</trkpt>
<trkpt lat="45.9370610" lon="9.5982390">
	<ele>1366.00</ele>
	<time>2023-10-07T06:53:31.000Z</time>
</trkpt>
<trkpt lat="45.9370580" lon="9.5982480">
	<ele>1366.00</ele>
	<time>2023-10-07T06:53:32.000Z</time>
</trkpt>
<trkpt lat="45.9370550" lon="9.5982600">
	<ele>1366.00</ele>
	<time>2023-10-07T06:53:33.000Z</time>
</trkpt>
<trkpt lat="45.9370510" lon="9.5982680">
	<ele>1366.20</ele>
	<time>2023-10-07T06:53:34.000Z</time>
</trkpt>
<trkpt lat="45.9370440" lon="9.5982780">
	<ele>1366.20</ele>
	<time>2023-10-07T06:53:35.000Z</time>
</trkpt>
<trkpt lat="45.9370400" lon="9.5982890">
	<ele>1366.40</ele>
	<time>2023-10-07T06:53:36.000Z</time>
</trkpt>
<trkpt lat="45.9370330" lon="9.5982950">
	<ele>1366.60</ele>
	<time>2023-10-07T06:53:37.000Z</time>
</trkpt>
<trkpt lat="45.9370310" lon="9.5983080">
	<ele>1366.60</ele>
	<time>2023-10-07T06:53:38.000Z</time>
</trkpt>
<trkpt lat="45.9370300" lon="9.5983240">
	<ele>1366.80</ele>
	<time>2023-10-07T06:53:39.000Z</time>
</trkpt>
<trkpt lat="45.9370270" lon="9.5983340">
	<ele>1367.00</ele>
	<time>2023-10-07T06:53:40.000Z</time>
</trkpt>
<trkpt lat="45.9370250" lon="9.5983480">
	<ele>1367.00</ele>
	<time>2023-10-07T06:53:41.000Z</time>
</trkpt>
<trkpt lat="45.9370220" lon="9.5983570">
	<ele>1367.20</ele>
	<time>2023-10-07T06:53:42.000Z</time>
</trkpt>
<trkpt lat="45.9370180" lon="9.5983660">
	<ele>1367.20</ele>
	<time>2023-10-07T06:53:43.000Z</time>
</trkpt>
<trkpt lat="45.9370120" lon="9.5983750">
	<ele>1367.40</ele>
	<time>2023-10-07T06:53:44.000Z</time>
</trkpt>
<trkpt lat="45.9370040" lon="9.5983840">
	<ele>1367.40</ele>
	<time>2023-10-07T06:53:45.000Z</time>
</trkpt>
<trkpt lat="45.9369960" lon="9.5983930">
	<ele>1367.60</ele>
	<time>2023-10-07T06:53:46.000Z</time>
</trkpt>
<trkpt lat="45.9369920" lon="9.5984110">
	<ele>1367.60</ele>
	<time>2023-10-07T06:53:47.000Z</time>
</trkpt>
<trkpt lat="45.9369810" lon="9.5984200">
	<ele>1367.80</ele>
	<time>2023-10-07T06:53:48.000Z</time>
</trkpt>
<trkpt lat="45.9369710" lon="9.5984200">
	<ele>1368.00</ele>
	<time>2023-10-07T06:53:49.000Z</time>
</trkpt>
<trkpt lat="45.9369690" lon="9.5984290">
	<ele>1368.00</ele>
	<time>2023-10-07T06:53:50.000Z</time>
</trkpt>
<trkpt lat="45.9369680" lon="9.5984420">
	<ele>1368.20</ele>
	<time>2023-10-07T06:53:51.000Z</time>
</trkpt>
<trkpt lat="45.9369710" lon="9.5984570">
	<ele>1368.20</ele>
	<time>2023-10-07T06:53:52.000Z</time>
</trkpt>
<trkpt lat="45.9369700" lon="9.5984640">
	<ele>1368.40</ele>
	<time>2023-10-07T06:53:53.000Z</time>
</trkpt>
<trkpt lat="45.9369650" lon="9.5984650">
	<ele>1368.40</ele>
	<time>2023-10-07T06:53:54.000Z</time>
</trkpt>
<trkpt lat="45.9369610" lon="9.5984760">
	<ele>1368.60</ele>
	<time>2023-10-07T06:53:55.000Z</time>
</trkpt>
<trkpt lat="45.9369600" lon="9.5984880">
	<ele>1368.60</ele>
	<time>2023-10-07T06:53:56.000Z</time>
</trkpt>
<trkpt lat="45.9369560" lon="9.5985020">
	<ele>1368.80</ele>
	<time>2023-10-07T06:53:57.000Z</time>
</trkpt>
<trkpt lat="45.9369540" lon="9.5985110">
	<ele>1369.00</ele>
	<time>2023-10-07T06:53:58.000Z</time>
</trkpt>
<trkpt lat="45.9369490" lon="9.5985170">
	<ele>1369.20</ele>
	<time>2023-10-07T06:53:59.000Z</time>
</trkpt>
<trkpt lat="45.9369450" lon="9.5985320">
	<ele>1369.40</ele>
	<time>2023-10-07T06:54:00.000Z</time>
</trkpt>
<trkpt lat="45.9369420" lon="9.5985420">
	<ele>1369.40</ele>
	<time>2023-10-07T06:54:01.000Z</time>
</trkpt>
<trkpt lat="45.9369410" lon="9.5985520">
	<ele>1369.60</ele>
	<time>2023-10-07T06:54:02.000Z</time>
</trkpt>
<trkpt lat="45.9369400" lon="9.5985630">
	<ele>1369.80</ele>
	<time>2023-10-07T06:54:03.000Z</time>
</trkpt>
<trkpt lat="45.9369430" lon="9.5985720">
	<ele>1370.00</ele>
	<time>2023-10-07T06:54:04.000Z</time>
</trkpt>
<trkpt lat="45.9369410" lon="9.5985850">
	<ele>1370.20</ele>
	<time>2023-10-07T06:54:05.000Z</time>
</trkpt>
<trkpt lat="45.9369390" lon="9.5985990">
	<ele>1370.20</ele>
	<time>2023-10-07T06:54:06.000Z</time>
</trkpt>
<trkpt lat="45.9369360" lon="9.5986070">
	<ele>1370.40</ele>
	<time>2023-10-07T06:54:07.000Z</time>
</trkpt>
<trkpt lat="45.9369320" lon="9.5986190">
	<ele>1370.60</ele>
	<time>2023-10-07T06:54:08.000Z</time>
</trkpt>
<trkpt lat="45.9369310" lon="9.5986300">
	<ele>1370.60</ele>
	<time>2023-10-07T06:54:09.000Z</time>
</trkpt>
<trkpt lat="45.9369290" lon="9.5986440">
	<ele>1370.80</ele>
	<time>2023-10-07T06:54:10.000Z</time>
</trkpt>
<trkpt lat="45.9369250" lon="9.5986600">
	<ele>1370.80</ele>
	<time>2023-10-07T06:54:11.000Z</time>
</trkpt>
<trkpt lat="45.9369170" lon="9.5986750">
	<ele>1371.00</ele>
	<time>2023-10-07T06:54:12.000Z</time>
</trkpt>
<trkpt lat="45.9369090" lon="9.5986800">
	<ele>1371.20</ele>
	<time>2023-10-07T06:54:13.000Z</time>
</trkpt>
<trkpt lat="45.9368970" lon="9.5986870">
	<ele>1371.40</ele>
	<time>2023-10-07T06:54:14.000Z</time>
</trkpt>
<trkpt lat="45.9368910" lon="9.5986980">
	<ele>1371.60</ele>
	<time>2023-10-07T06:54:15.000Z</time>
</trkpt>
<trkpt lat="45.9368900" lon="9.5987120">
	<ele>1371.60</ele>
	<time>2023-10-07T06:54:16.000Z</time>
</trkpt>
<trkpt lat="45.9368870" lon="9.5987270">
	<ele>1371.80</ele>
	<time>2023-10-07T06:54:17.000Z</time>
</trkpt>
<trkpt lat="45.9368840" lon="9.5987390">
	<ele>1371.80</ele>
	<time>2023-10-07T06:54:18.000Z</time>
</trkpt>
<trkpt lat="45.9368830" lon="9.5987490">
	<ele>1372.20</ele>
	<time>2023-10-07T06:54:19.000Z</time>
</trkpt>
<trkpt lat="45.9368810" lon="9.5987610">
	<ele>1372.40</ele>
	<time>2023-10-07T06:54:20.000Z</time>
</trkpt>
<trkpt lat="45.9368770" lon="9.5987710">
	<ele>1372.60</ele>
	<time>2023-10-07T06:54:21.000Z</time>
</trkpt>
<trkpt lat="45.9368710" lon="9.5987820">
	<ele>1372.80</ele>
	<time>2023-10-07T06:54:22.000Z</time>
</trkpt>
<trkpt lat="45.9368590" lon="9.5987910">
	<ele>1372.80</ele>
	<time>2023-10-07T06:54:23.000Z</time>
</trkpt>
<trkpt lat="45.9368470" lon="9.5987950">
	<ele>1372.80</ele>
	<time>2023-10-07T06:54:24.000Z</time>
</trkpt>
<trkpt lat="45.9368390" lon="9.5987950">
	<ele>1372.80</ele>
	<time>2023-10-07T06:54:25.000Z</time>
</trkpt>
<trkpt lat="45.9368320" lon="9.5988020">
	<ele>1373.00</ele>
	<time>2023-10-07T06:54:26.000Z</time>
</trkpt>
<trkpt lat="45.9368230" lon="9.5988070">
	<ele>1373.00</ele>
	<time>2023-10-07T06:54:27.000Z</time>
</trkpt>
<trkpt lat="45.9368190" lon="9.5988170">
	<ele>1373.20</ele>
	<time>2023-10-07T06:54:28.000Z</time>
</trkpt>
<trkpt lat="45.9368150" lon="9.5988280">
	<ele>1373.40</ele>
	<time>2023-10-07T06:54:29.000Z</time>
</trkpt>
<trkpt lat="45.9368130" lon="9.5988400">
	<ele>1373.40</ele>
	<time>2023-10-07T06:54:30.000Z</time>
</trkpt>
<trkpt lat="45.9368100" lon="9.5988540">
	<ele>1373.60</ele>
	<time>2023-10-07T06:54:31.000Z</time>
</trkpt>
<trkpt lat="45.9368050" lon="9.5988680">
	<ele>1373.80</ele>
	<time>2023-10-07T06:54:32.000Z</time>
</trkpt>
<trkpt lat="45.9368020" lon="9.5988790">
	<ele>1374.00</ele>
	<time>2023-10-07T06:54:33.000Z</time>
</trkpt>
<trkpt lat="45.9367950" lon="9.5988920">
	<ele>1374.20</ele>
	<time>2023-10-07T06:54:34.000Z</time>
</trkpt>
<trkpt lat="45.9367800" lon="9.5988960">
	<ele>1374.40</ele>
	<time>2023-10-07T06:54:35.000Z</time>
</trkpt>
<trkpt lat="45.9367610" lon="9.5989000">
	<ele>1374.60</ele>
	<time>2023-10-07T06:54:36.000Z</time>
</trkpt>
<trkpt lat="45.9367500" lon="9.5989080">
	<ele>1374.60</ele>
	<time>2023-10-07T06:54:37.000Z</time>
</trkpt>
<trkpt lat="45.9367470" lon="9.5989180">
	<ele>1374.80</ele>
	<time>2023-10-07T06:54:38.000Z</time>
</trkpt>
<trkpt lat="45.9367430" lon="9.5989310">
	<ele>1375.00</ele>
	<time>2023-10-07T06:54:39.000Z</time>
</trkpt>
<trkpt lat="45.9367410" lon="9.5989410">
	<ele>1375.00</ele>
	<time>2023-10-07T06:54:40.000Z</time>
</trkpt>
<trkpt lat="45.9367410" lon="9.5989530">
	<ele>1375.20</ele>
	<time>2023-10-07T06:54:41.000Z</time>
</trkpt>
<trkpt lat="45.9367370" lon="9.5989640">
	<ele>1375.40</ele>
	<time>2023-10-07T06:54:42.000Z</time>
</trkpt>
<trkpt lat="45.9367330" lon="9.5989730">
	<ele>1375.60</ele>
	<time>2023-10-07T06:54:43.000Z</time>
</trkpt>
<trkpt lat="45.9367260" lon="9.5989770">
	<ele>1375.80</ele>
	<time>2023-10-07T06:54:44.000Z</time>
</trkpt>
<trkpt lat="45.9367230" lon="9.5989870">
	<ele>1375.80</ele>
	<time>2023-10-07T06:54:45.000Z</time>
</trkpt>
<trkpt lat="45.9367240" lon="9.5990010">
	<ele>1376.00</ele>
	<time>2023-10-07T06:54:46.000Z</time>
</trkpt>
<trkpt lat="45.9367260" lon="9.5990220">
	<ele>1376.00</ele>
	<time>2023-10-07T06:54:47.000Z</time>
</trkpt>
<trkpt lat="45.9367270" lon="9.5990350">
	<ele>1376.20</ele>
	<time>2023-10-07T06:54:48.000Z</time>
</trkpt>
<trkpt lat="45.9367260" lon="9.5990440">
	<ele>1376.40</ele>
	<time>2023-10-07T06:54:49.000Z</time>
</trkpt>
<trkpt lat="45.9367220" lon="9.5990440">
	<ele>1376.60</ele>
	<time>2023-10-07T06:54:50.000Z</time>
</trkpt>
<trkpt lat="45.9367170" lon="9.5990560">
	<ele>1376.80</ele>
	<time>2023-10-07T06:54:51.000Z</time>
</trkpt>
<trkpt lat="45.9367180" lon="9.5990680">
	<ele>1377.00</ele>
	<time>2023-10-07T06:54:52.000Z</time>
</trkpt>
<trkpt lat="45.9367120" lon="9.5990810">
	<ele>1377.20</ele>
	<time>2023-10-07T06:54:53.000Z</time>
</trkpt>
<trkpt lat="45.9367070" lon="9.5990870">
	<ele>1377.20</ele>
	<time>2023-10-07T06:54:54.000Z</time>
</trkpt>
<trkpt lat="45.9367010" lon="9.5990910">
	<ele>1377.40</ele>
	<time>2023-10-07T06:54:55.000Z</time>
</trkpt>
<trkpt lat="45.9366950" lon="9.5991030">
	<ele>1377.60</ele>
	<time>2023-10-07T06:54:56.000Z</time>
</trkpt>
<trkpt lat="45.9366930" lon="9.5991070">
	<ele>1378.00</ele>
	<time>2023-10-07T06:54:57.000Z</time>
</trkpt>
<trkpt lat="45.9366870" lon="9.5991140">
	<ele>1378.00</ele>
	<time>2023-10-07T06:54:58.000Z</time>
</trkpt>
<trkpt lat="45.9366890" lon="9.5991390">
	<ele>1378.20</ele>
	<time>2023-10-07T06:54:59.000Z</time>
</trkpt>
<trkpt lat="45.9366900" lon="9.5991570">
	<ele>1378.40</ele>
	<time>2023-10-07T06:55:00.000Z</time>
</trkpt>
<trkpt lat="45.9366880" lon="9.5991650">
	<ele>1378.60</ele>
	<time>2023-10-07T06:55:01.000Z</time>
</trkpt>
<trkpt lat="45.9366890" lon="9.5991710">
	<ele>1378.80</ele>
	<time>2023-10-07T06:55:02.000Z</time>
</trkpt>
<trkpt lat="45.9366900" lon="9.5991770">
	<ele>1379.00</ele>
	<time>2023-10-07T06:55:03.000Z</time>
</trkpt>
<trkpt lat="45.9366870" lon="9.5991880">
	<ele>1379.20</ele>
	<time>2023-10-07T06:55:04.000Z</time>
</trkpt>
<trkpt lat="45.9366880" lon="9.5991990">
	<ele>1379.40</ele>
	<time>2023-10-07T06:55:05.000Z</time>
</trkpt>
<trkpt lat="45.9366870" lon="9.5992070">
	<ele>1379.60</ele>
	<time>2023-10-07T06:55:06.000Z</time>
</trkpt>
<trkpt lat="45.9366800" lon="9.5992110">
	<ele>1379.80</ele>
	<time>2023-10-07T06:55:07.000Z</time>
</trkpt>
<trkpt lat="45.9366720" lon="9.5992180">
	<ele>1380.00</ele>
	<time>2023-10-07T06:55:08.000Z</time>
</trkpt>
<trkpt lat="45.9366640" lon="9.5992310">
	<ele>1380.20</ele>
	<time>2023-10-07T06:55:09.000Z</time>
</trkpt>
<trkpt lat="45.9366490" lon="9.5992340">
	<ele>1380.40</ele>
	<time>2023-10-07T06:55:10.000Z</time>
</trkpt>
<trkpt lat="45.9366420" lon="9.5992400">
	<ele>1380.60</ele>
	<time>2023-10-07T06:55:11.000Z</time>
</trkpt>
<trkpt lat="45.9366400" lon="9.5992460">
	<ele>1380.80</ele>
	<time>2023-10-07T06:55:12.000Z</time>
</trkpt>
<trkpt lat="45.9366400" lon="9.5992530">
	<ele>1381.00</ele>
	<time>2023-10-07T06:55:13.000Z</time>
</trkpt>
<trkpt lat="45.9366330" lon="9.5992540">
	<ele>1381.00</ele>
	<time>2023-10-07T06:55:14.000Z</time>
</trkpt>
<trkpt lat="45.9366270" lon="9.5992650">
	<ele>1381.20</ele>
	<time>2023-10-07T06:55:15.000Z</time>
</trkpt>
<trkpt lat="45.9366240" lon="9.5992770">
	<ele>1381.20</ele>
	<time>2023-10-07T06:55:16.000Z</time>
</trkpt>
<trkpt lat="45.9366220" lon="9.5992840">
	<ele>1381.60</ele>
	<time>2023-10-07T06:55:17.000Z</time>
</trkpt>
<trkpt lat="45.9366180" lon="9.5992980">
	<ele>1381.80</ele>
	<time>2023-10-07T06:55:18.000Z</time>
</trkpt>
<trkpt lat="45.9366140" lon="9.5993080">
	<ele>1381.80</ele>
	<time>2023-10-07T06:55:19.000Z</time>
</trkpt>
<trkpt lat="45.9366150" lon="9.5993240">
	<ele>1382.00</ele>
	<time>2023-10-07T06:55:20.000Z</time>
</trkpt>
<trkpt lat="45.9366130" lon="9.5993340">
	<ele>1382.20</ele>
	<time>2023-10-07T06:55:21.000Z</time>
</trkpt>
<trkpt lat="45.9366120" lon="9.5993410">
	<ele>1382.40</ele>
	<time>2023-10-07T06:55:22.000Z</time>
</trkpt>
<trkpt lat="45.9366130" lon="9.5993510">
	<ele>1382.60</ele>
	<time>2023-10-07T06:55:23.000Z</time>
</trkpt>
<trkpt lat="45.9366120" lon="9.5993650">
	<ele>1382.80</ele>
	<time>2023-10-07T06:55:24.000Z</time>
</trkpt>
<trkpt lat="45.9366070" lon="9.5993770">
	<ele>1383.00</ele>
	<time>2023-10-07T06:55:25.000Z</time>
</trkpt>
<trkpt lat="45.9366020" lon="9.5993850">
	<ele>1383.20</ele>
	<time>2023-10-07T06:55:26.000Z</time>
</trkpt>
<trkpt lat="45.9365990" lon="9.5994000">
	<ele>1383.40</ele>
	<time>2023-10-07T06:55:27.000Z</time>
</trkpt>
<trkpt lat="45.9365940" lon="9.5994060">
	<ele>1383.60</ele>
	<time>2023-10-07T06:55:28.000Z</time>
</trkpt>
<trkpt lat="45.9365940" lon="9.5994170">
	<ele>1383.80</ele>
	<time>2023-10-07T06:55:29.000Z</time>
</trkpt>
<trkpt lat="45.9365980" lon="9.5994280">
	<ele>1384.20</ele>
	<time>2023-10-07T06:55:30.000Z</time>
</trkpt>
<trkpt lat="45.9365890" lon="9.5994310">
	<ele>1384.40</ele>
	<time>2023-10-07T06:55:31.000Z</time>
</trkpt>
<trkpt lat="45.9365830" lon="9.5994370">
	<ele>1384.60</ele>
	<time>2023-10-07T06:55:32.000Z</time>
</trkpt>
<trkpt lat="45.9365750" lon="9.5994420">
	<ele>1384.60</ele>
	<time>2023-10-07T06:55:33.000Z</time>
</trkpt>
<trkpt lat="45.9365720" lon="9.5994520">
	<ele>1384.80</ele>
	<time>2023-10-07T06:55:34.000Z</time>
</trkpt>
<trkpt lat="45.9365680" lon="9.5994590">
	<ele>1385.00</ele>
	<time>2023-10-07T06:55:35.000Z</time>
</trkpt>
<trkpt lat="45.9365620" lon="9.5994660">
	<ele>1385.20</ele>
	<time>2023-10-07T06:55:36.000Z</time>
</trkpt>
<trkpt lat="45.9365530" lon="9.5994690">
	<ele>1385.40</ele>
	<time>2023-10-07T06:55:37.000Z</time>
</trkpt>
<trkpt lat="45.9365420" lon="9.5994660">
	<ele>1385.80</ele>
	<time>2023-10-07T06:55:38.000Z</time>
</trkpt>
<trkpt lat="45.9365270" lon="9.5994640">
	<ele>1386.00</ele>
	<time>2023-10-07T06:55:39.000Z</time>
</trkpt>
<trkpt lat="45.9365200" lon="9.5994670">
	<ele>1386.20</ele>
	<time>2023-10-07T06:55:40.000Z</time>
</trkpt>
<trkpt lat="45.9365110" lon="9.5994690">
	<ele>1386.20</ele>
	<time>2023-10-07T06:55:41.000Z</time>
</trkpt>
<trkpt lat="45.9365040" lon="9.5994700">
	<ele>1386.40</ele>
	<time>2023-10-07T06:55:42.000Z</time>
</trkpt>
<trkpt lat="45.9364970" lon="9.5994760">
	<ele>1386.60</ele>
	<time>2023-10-07T06:55:43.000Z</time>
</trkpt>
<trkpt lat="45.9364890" lon="9.5994840">
	<ele>1386.60</ele>
	<time>2023-10-07T06:55:44.000Z</time>
</trkpt>
<trkpt lat="45.9364820" lon="9.5994920">
	<ele>1387.00</ele>
	<time>2023-10-07T06:55:45.000Z</time>
</trkpt>
<trkpt lat="45.9364820" lon="9.5994970">
	<ele>1387.20</ele>
	<time>2023-10-07T06:55:46.000Z</time>
</trkpt>
<trkpt lat="45.9364800" lon="9.5995090">
	<ele>1387.40</ele>
	<time>2023-10-07T06:55:47.000Z</time>
</trkpt>
<trkpt lat="45.9364830" lon="9.5995250">
	<ele>1387.60</ele>
	<time>2023-10-07T06:55:48.000Z</time>
</trkpt>
<trkpt lat="45.9364800" lon="9.5995380">
	<ele>1387.60</ele>
	<time>2023-10-07T06:55:49.000Z</time>
</trkpt>
<trkpt lat="45.9364730" lon="9.5995420">
	<ele>1387.80</ele>
	<time>2023-10-07T06:55:50.000Z</time>
</trkpt>
<trkpt lat="45.9364680" lon="9.5995420">
	<ele>1387.80</ele>
	<time>2023-10-07T06:55:51.000Z</time>
</trkpt>
<trkpt lat="45.9364590" lon="9.5995460">
	<ele>1388.00</ele>
	<time>2023-10-07T06:55:52.000Z</time>
</trkpt>
<trkpt lat="45.9364550" lon="9.5995500">
	<ele>1388.20</ele>
	<time>2023-10-07T06:55:53.000Z</time>
</trkpt>
<trkpt lat="45.9364450" lon="9.5995530">
	<ele>1388.60</ele>
	<time>2023-10-07T06:55:54.000Z</time>
</trkpt>
<trkpt lat="45.9364390" lon="9.5995650">
	<ele>1388.80</ele>
	<time>2023-10-07T06:55:55.000Z</time>
</trkpt>
<trkpt lat="45.9364320" lon="9.5995680">
	<ele>1389.00</ele>
	<time>2023-10-07T06:55:56.000Z</time>
</trkpt>
<trkpt lat="45.9364200" lon="9.5995700">
	<ele>1389.00</ele>
	<time>2023-10-07T06:55:57.000Z</time>
</trkpt>
<trkpt lat="45.9364060" lon="9.5995730">
	<ele>1389.40</ele>
	<time>2023-10-07T06:55:58.000Z</time>
</trkpt>
<trkpt lat="45.9363940" lon="9.5995750">
	<ele>1389.60</ele>
	<time>2023-10-07T06:55:59.000Z</time>
</trkpt>
<trkpt lat="45.9363840" lon="9.5995790">
	<ele>1389.80</ele>
	<time>2023-10-07T06:56:00.000Z</time>
</trkpt>
<trkpt lat="45.9363740" lon="9.5995820">
	<ele>1389.80</ele>
	<time>2023-10-07T06:56:01.000Z</time>
</trkpt>
<trkpt lat="45.9363650" lon="9.5995890">
	<ele>1390.00</ele>
	<time>2023-10-07T06:56:02.000Z</time>
</trkpt>
<trkpt lat="45.9363540" lon="9.5995910">
	<ele>1390.00</ele>
	<time>2023-10-07T06:56:03.000Z</time>
</trkpt>
<trkpt lat="45.9363450" lon="9.5995930">
	<ele>1390.00</ele>
	<time>2023-10-07T06:56:04.000Z</time>
</trkpt>
<trkpt lat="45.9363370" lon="9.5996010">
	<ele>1390.00</ele>
	<time>2023-10-07T06:56:05.000Z</time>
</trkpt>
<trkpt lat="45.9363310" lon="9.5996120">
	<ele>1390.20</ele>
	<time>2023-10-07T06:56:06.000Z</time>
</trkpt>
<trkpt lat="45.9363240" lon="9.5996210">
	<ele>1390.20</ele>
	<time>2023-10-07T06:56:07.000Z</time>
</trkpt>
<trkpt lat="45.9363180" lon="9.5996240">
	<ele>1390.40</ele>
	<time>2023-10-07T06:56:08.000Z</time>
</trkpt>
<trkpt lat="45.9363110" lon="9.5996290">
	<ele>1390.40</ele>
	<time>2023-10-07T06:56:09.000Z</time>
</trkpt>
<trkpt lat="45.9363040" lon="9.5996390">
	<ele>1390.60</ele>
	<time>2023-10-07T06:56:10.000Z</time>
</trkpt>
<trkpt lat="45.9362960" lon="9.5996510">
	<ele>1390.80</ele>
	<time>2023-10-07T06:56:11.000Z</time>
</trkpt>
<trkpt lat="45.9362890" lon="9.5996640">
	<ele>1391.00</ele>
	<time>2023-10-07T06:56:12.000Z</time>
</trkpt>
<trkpt lat="45.9362740" lon="9.5996760">
	<ele>1391.20</ele>
	<time>2023-10-07T06:56:13.000Z</time>
</trkpt>
<trkpt lat="45.9362670" lon="9.5996870">
	<ele>1391.20</ele>
	<time>2023-10-07T06:56:14.000Z</time>
</trkpt>
<trkpt lat="45.9362640" lon="9.5997070">
	<ele>1391.40</ele>
	<time>2023-10-07T06:56:15.000Z</time>
</trkpt>
<trkpt lat="45.9362650" lon="9.5997330">
	<ele>1391.40</ele>
	<time>2023-10-07T06:56:16.000Z</time>
</trkpt>
<trkpt lat="45.9362620" lon="9.5997550">
	<ele>1391.60</ele>
	<time>2023-10-07T06:56:17.000Z</time>
</trkpt>
<trkpt lat="45.9362430" lon="9.5997720">
	<ele>1391.60</ele>
	<time>2023-10-07T06:56:18.000Z</time>
</trkpt>
<trkpt lat="45.9362320" lon="9.5997820">
	<ele>1391.80</ele>
	<time>2023-10-07T06:56:19.000Z</time>
</trkpt>
<trkpt lat="45.9362240" lon="9.5997880">
	<ele>1392.00</ele>
	<time>2023-10-07T06:56:20.000Z</time>
</trkpt>
<trkpt lat="45.9362180" lon="9.5997960">
	<ele>1392.00</ele>
	<time>2023-10-07T06:56:21.000Z</time>
</trkpt>
<trkpt lat="45.9362180" lon="9.5998070">
	<ele>1392.00</ele>
	<time>2023-10-07T06:56:22.000Z</time>
</trkpt>
<trkpt lat="45.9362150" lon="9.5998130">
	<ele>1392.00</ele>
	<time>2023-10-07T06:56:23.000Z</time>
</trkpt>
<trkpt lat="45.9362190" lon="9.5998250">
	<ele>1392.00</ele>
	<time>2023-10-07T06:56:24.000Z</time>
</trkpt>
<trkpt lat="45.9362160" lon="9.5998340">
	<ele>1392.00</ele>
	<time>2023-10-07T06:56:25.000Z</time>
</trkpt>
<trkpt lat="45.9362060" lon="9.5998480">
	<ele>1392.00</ele>
	<time>2023-10-07T06:56:26.000Z</time>
</trkpt>
<trkpt lat="45.9361960" lon="9.5998570">
	<ele>1392.20</ele>
	<time>2023-10-07T06:56:27.000Z</time>
</trkpt>
<trkpt lat="45.9361920" lon="9.5998590">
	<ele>1392.20</ele>
	<time>2023-10-07T06:56:28.000Z</time>
</trkpt>
<trkpt lat="45.9361890" lon="9.5998650">
	<ele>1392.20</ele>
	<time>2023-10-07T06:56:29.000Z</time>
</trkpt>
<trkpt lat="45.9361880" lon="9.5998790">
	<ele>1392.20</ele>
	<time>2023-10-07T06:56:30.000Z</time>
</trkpt>
<trkpt lat="45.9361850" lon="9.5998960">
	<ele>1392.40</ele>
	<time>2023-10-07T06:56:31.000Z</time>
</trkpt>
<trkpt lat="45.9361790" lon="9.5999000">
	<ele>1392.40</ele>
	<time>2023-10-07T06:56:32.000Z</time>
</trkpt>
<trkpt lat="45.9361730" lon="9.5999070">
	<ele>1392.40</ele>
	<time>2023-10-07T06:56:33.000Z</time>
</trkpt>
<trkpt lat="45.9361630" lon="9.5999170">
	<ele>1392.40</ele>
	<time>2023-10-07T06:56:34.000Z</time>
</trkpt>
<trkpt lat="45.9361550" lon="9.5999290">
	<ele>1392.40</ele>
	<time>2023-10-07T06:56:35.000Z</time>
</trkpt>
<trkpt lat="45.9361480" lon="9.5999450">
	<ele>1392.40</ele>
	<time>2023-10-07T06:56:36.000Z</time>
</trkpt>
<trkpt lat="45.9361440" lon="9.5999600">
	<ele>1392.40</ele>
	<time>2023-10-07T06:56:37.000Z</time>
</trkpt>
<trkpt lat="45.9361400" lon="9.5999720">
	<ele>1392.40</ele>
	<time>2023-10-07T06:56:38.000Z</time>
</trkpt>
<trkpt lat="45.9361370" lon="9.5999960">
	<ele>1392.40</ele>
	<time>2023-10-07T06:56:39.000Z</time>
</trkpt>
<trkpt lat="45.9361330" lon="9.6000110">
	<ele>1392.40</ele>
	<time>2023-10-07T06:56:40.000Z</time>
</trkpt>
<trkpt lat="45.9361310" lon="9.6000280">
	<ele>1392.40</ele>
	<time>2023-10-07T06:56:41.000Z</time>
</trkpt>
<trkpt lat="45.9361270" lon="9.6000470">
	<ele>1392.20</ele>
	<time>2023-10-07T06:56:42.000Z</time>
</trkpt>
<trkpt lat="45.9361250" lon="9.6000600">
	<ele>1392.20</ele>
	<time>2023-10-07T06:56:43.000Z</time>
</trkpt>
<trkpt lat="45.9361270" lon="9.6000780">
	<ele>1392.40</ele>
	<time>2023-10-07T06:56:44.000Z</time>
</trkpt>
<trkpt lat="45.9361260" lon="9.6000900">
	<ele>1392.40</ele>
	<time>2023-10-07T06:56:45.000Z</time>
</trkpt>
<trkpt lat="45.9361250" lon="9.6001090">
	<ele>1392.40</ele>
	<time>2023-10-07T06:56:46.000Z</time>
</trkpt>
<trkpt lat="45.9361250" lon="9.6001320">
	<ele>1392.60</ele>
	<time>2023-10-07T06:56:47.000Z</time>
</trkpt>
<trkpt lat="45.9361260" lon="9.6001530">
	<ele>1392.60</ele>
	<time>2023-10-07T06:56:48.000Z</time>
</trkpt>
<trkpt lat="45.9361230" lon="9.6001670">
	<ele>1392.60</ele>
	<time>2023-10-07T06:56:49.000Z</time>
</trkpt>
<trkpt lat="45.9361180" lon="9.6001760">
	<ele>1392.80</ele>
	<time>2023-10-07T06:56:50.000Z</time>
</trkpt>
<trkpt lat="45.9361110" lon="9.6001810">
	<ele>1392.80</ele>
	<time>2023-10-07T06:56:51.000Z</time>
</trkpt>
<trkpt lat="45.9361100" lon="9.6001930">
	<ele>1392.80</ele>
	<time>2023-10-07T06:56:52.000Z</time>
</trkpt>
<trkpt lat="45.9361140" lon="9.6002040">
	<ele>1393.00</ele>
	<time>2023-10-07T06:56:53.000Z</time>
</trkpt>
<trkpt lat="45.9361180" lon="9.6002210">
	<ele>1393.00</ele>
	<time>2023-10-07T06:56:54.000Z</time>
</trkpt>
<trkpt lat="45.9361250" lon="9.6002380">
	<ele>1393.20</ele>
	<time>2023-10-07T06:56:55.000Z</time>
</trkpt>
<trkpt lat="45.9361320" lon="9.6002530">
	<ele>1393.20</ele>
	<time>2023-10-07T06:56:56.000Z</time>
</trkpt>
<trkpt lat="45.9361390" lon="9.6002670">
	<ele>1393.40</ele>
	<time>2023-10-07T06:56:57.000Z</time>
</trkpt>
<trkpt lat="45.9361460" lon="9.6002820">
	<ele>1393.40</ele>
	<time>2023-10-07T06:56:58.000Z</time>
</trkpt>
<trkpt lat="45.9361470" lon="9.6002920">
	<ele>1393.60</ele>
	<time>2023-10-07T06:56:59.000Z</time>
</trkpt>
<trkpt lat="45.9361450" lon="9.6003000">
	<ele>1393.80</ele>
	<time>2023-10-07T06:57:00.000Z</time>
</trkpt>
<trkpt lat="45.9361420" lon="9.6003170">
	<ele>1394.00</ele>
	<time>2023-10-07T06:57:01.000Z</time>
</trkpt>
<trkpt lat="45.9361430" lon="9.6003290">
	<ele>1394.00</ele>
	<time>2023-10-07T06:57:02.000Z</time>
</trkpt>
<trkpt lat="45.9361440" lon="9.6003450">
	<ele>1394.20</ele>
	<time>2023-10-07T06:57:03.000Z</time>
</trkpt>
<trkpt lat="45.9361430" lon="9.6003650">
	<ele>1394.20</ele>
	<time>2023-10-07T06:57:04.000Z</time>
</trkpt>
<trkpt lat="45.9361420" lon="9.6003780">
	<ele>1394.20</ele>
	<time>2023-10-07T06:57:05.000Z</time>
</trkpt>
<trkpt lat="45.9361410" lon="9.6003930">
	<ele>1394.40</ele>
	<time>2023-10-07T06:57:06.000Z</time>
</trkpt>
<trkpt lat="45.9361380" lon="9.6004050">
	<ele>1394.40</ele>
	<time>2023-10-07T06:57:07.000Z</time>
</trkpt>
<trkpt lat="45.9361410" lon="9.6004210">
	<ele>1394.40</ele>
	<time>2023-10-07T06:57:08.000Z</time>
</trkpt>
<trkpt lat="45.9361450" lon="9.6004370">
	<ele>1394.20</ele>
	<time>2023-10-07T06:57:09.000Z</time>
</trkpt>
<trkpt lat="45.9361470" lon="9.6004510">
	<ele>1394.00</ele>
	<time>2023-10-07T06:57:10.000Z</time>
</trkpt>
<trkpt lat="45.9361430" lon="9.6004670">
	<ele>1394.00</ele>
	<time>2023-10-07T06:57:11.000Z</time>
</trkpt>
<trkpt lat="45.9361420" lon="9.6004830">
	<ele>1394.20</ele>
	<time>2023-10-07T06:57:12.000Z</time>
</trkpt>
<trkpt lat="45.9361430" lon="9.6004960">
	<ele>1394.20</ele>
	<time>2023-10-07T06:57:13.000Z</time>
</trkpt>
<trkpt lat="45.9361360" lon="9.6005100">
	<ele>1394.40</ele>
	<time>2023-10-07T06:57:14.000Z</time>
</trkpt>
<trkpt lat="45.9361370" lon="9.6005180">
	<ele>1394.40</ele>
	<time>2023-10-07T06:57:15.000Z</time>
</trkpt>
<trkpt lat="45.9361410" lon="9.6005230">
	<ele>1394.40</ele>
	<time>2023-10-07T06:57:16.000Z</time>
</trkpt>
<trkpt lat="45.9361450" lon="9.6005340">
	<ele>1394.60</ele>
	<time>2023-10-07T06:57:17.000Z</time>
</trkpt>
<trkpt lat="45.9361500" lon="9.6005520">
	<ele>1394.60</ele>
	<time>2023-10-07T06:57:18.000Z</time>
</trkpt>
<trkpt lat="45.9361520" lon="9.6005670">
	<ele>1394.80</ele>
	<time>2023-10-07T06:57:19.000Z</time>
</trkpt>
<trkpt lat="45.9361520" lon="9.6005810">
	<ele>1394.80</ele>
	<time>2023-10-07T06:57:20.000Z</time>
</trkpt>
<trkpt lat="45.9361550" lon="9.6005950">
	<ele>1394.80</ele>
	<time>2023-10-07T06:57:21.000Z</time>
</trkpt>
<trkpt lat="45.9361580" lon="9.6006080">
	<ele>1394.80</ele>
	<time>2023-10-07T06:57:22.000Z</time>
</trkpt>
<trkpt lat="45.9361600" lon="9.6006320">
	<ele>1394.80</ele>
	<time>2023-10-07T06:57:23.000Z</time>
</trkpt>
<trkpt lat="45.9361640" lon="9.6006560">
	<ele>1394.80</ele>
	<time>2023-10-07T06:57:24.000Z</time>
</trkpt>
<trkpt lat="45.9361670" lon="9.6006750">
	<ele>1394.80</ele>
	<time>2023-10-07T06:57:25.000Z</time>
</trkpt>
<trkpt lat="45.9361700" lon="9.6006950">
	<ele>1394.60</ele>
	<time>2023-10-07T06:57:26.000Z</time>
</trkpt>
<trkpt lat="45.9361720" lon="9.6007110">
	<ele>1394.40</ele>
	<time>2023-10-07T06:57:27.000Z</time>
</trkpt>
<trkpt lat="45.9361800" lon="9.6007400">
	<ele>1394.40</ele>
	<time>2023-10-07T06:57:28.000Z</time>
</trkpt>
<trkpt lat="45.9361890" lon="9.6007600">
	<ele>1394.20</ele>
	<time>2023-10-07T06:57:29.000Z</time>
</trkpt>
<trkpt lat="45.9361950" lon="9.6007840">
	<ele>1393.80</ele>
	<time>2023-10-07T06:57:30.000Z</time>
</trkpt>
<trkpt lat="45.9361980" lon="9.6008110">
	<ele>1393.60</ele>
	<time>2023-10-07T06:57:31.000Z</time>
</trkpt>
<trkpt lat="45.9362010" lon="9.6008290">
	<ele>1393.60</ele>
	<time>2023-10-07T06:57:32.000Z</time>
</trkpt>
<trkpt lat="45.9362050" lon="9.6008520">
	<ele>1393.40</ele>
	<time>2023-10-07T06:57:33.000Z</time>
</trkpt>
<trkpt lat="45.9362060" lon="9.6008700">
	<ele>1393.40</ele>
	<time>2023-10-07T06:57:34.000Z</time>
</trkpt>
<trkpt lat="45.9362120" lon="9.6008860">
	<ele>1393.20</ele>
	<time>2023-10-07T06:57:35.000Z</time>
</trkpt>
<trkpt lat="45.9362190" lon="9.6008940">
	<ele>1393.20</ele>
	<time>2023-10-07T06:57:36.000Z</time>
</trkpt>
<trkpt lat="45.9362290" lon="9.6009020">
	<ele>1393.20</ele>
	<time>2023-10-07T06:57:37.000Z</time>
</trkpt>
<trkpt lat="45.9362350" lon="9.6009140">
	<ele>1393.20</ele>
	<time>2023-10-07T06:57:38.000Z</time>
</trkpt>
<trkpt lat="45.9362400" lon="9.6009270">
	<ele>1393.20</ele>
	<time>2023-10-07T06:57:39.000Z</time>
</trkpt>
<trkpt lat="45.9362430" lon="9.6009410">
	<ele>1393.20</ele>
	<time>2023-10-07T06:57:40.000Z</time>
</trkpt>
<trkpt lat="45.9362460" lon="9.6009550">
	<ele>1393.20</ele>
	<time>2023-10-07T06:57:41.000Z</time>
</trkpt>
<trkpt lat="45.9362480" lon="9.6009700">
	<ele>1393.20</ele>
	<time>2023-10-07T06:57:42.000Z</time>
</trkpt>
<trkpt lat="45.9362480" lon="9.6009840">
	<ele>1393.00</ele>
	<time>2023-10-07T06:57:43.000Z</time>
</trkpt>
<trkpt lat="45.9362500" lon="9.6009920">
	<ele>1392.80</ele>
	<time>2023-10-07T06:57:44.000Z</time>
</trkpt>
<trkpt lat="45.9362500" lon="9.6010070">
	<ele>1392.60</ele>
	<time>2023-10-07T06:57:45.000Z</time>
</trkpt>
<trkpt lat="45.9362490" lon="9.6010240">
	<ele>1392.60</ele>
	<time>2023-10-07T06:57:46.000Z</time>
</trkpt>
<trkpt lat="45.9362500" lon="9.6010390">
	<ele>1392.40</ele>
	<time>2023-10-07T06:57:47.000Z</time>
</trkpt>
<trkpt lat="45.9362530" lon="9.6010530">
	<ele>1392.40</ele>
	<time>2023-10-07T06:57:48.000Z</time>
</trkpt>
<trkpt lat="45.9362530" lon="9.6010690">
	<ele>1392.40</ele>
	<time>2023-10-07T06:57:49.000Z</time>
</trkpt>
<trkpt lat="45.9362550" lon="9.6010870">
	<ele>1392.40</ele>
	<time>2023-10-07T06:57:50.000Z</time>
</trkpt>
<trkpt lat="45.9362550" lon="9.6011030">
	<ele>1392.40</ele>
	<time>2023-10-07T06:57:51.000Z</time>
</trkpt>
<trkpt lat="45.9362530" lon="9.6011250">
	<ele>1392.40</ele>
	<time>2023-10-07T06:57:52.000Z</time>
</trkpt>
<trkpt lat="45.9362490" lon="9.6011540">
	<ele>1392.40</ele>
	<time>2023-10-07T06:57:53.000Z</time>
</trkpt>
<trkpt lat="45.9362450" lon="9.6011760">
	<ele>1392.60</ele>
	<time>2023-10-07T06:57:54.000Z</time>
</trkpt>
<trkpt lat="45.9362440" lon="9.6011930">
	<ele>1392.60</ele>
	<time>2023-10-07T06:57:55.000Z</time>
</trkpt>
<trkpt lat="45.9362470" lon="9.6012080">
	<ele>1392.60</ele>
	<time>2023-10-07T06:57:56.000Z</time>
</trkpt>
<trkpt lat="45.9362470" lon="9.6012280">
	<ele>1392.60</ele>
	<time>2023-10-07T06:57:57.000Z</time>
</trkpt>
<trkpt lat="45.9362440" lon="9.6012510">
	<ele>1392.60</ele>
	<time>2023-10-07T06:57:58.000Z</time>
</trkpt>
<trkpt lat="45.9362390" lon="9.6012730">
	<ele>1392.80</ele>
	<time>2023-10-07T06:57:59.000Z</time>
</trkpt>
<trkpt lat="45.9362380" lon="9.6012850">
	<ele>1392.80</ele>
	<time>2023-10-07T06:58:00.000Z</time>
</trkpt>
<trkpt lat="45.9362360" lon="9.6012980">
	<ele>1393.00</ele>
	<time>2023-10-07T06:58:01.000Z</time>
</trkpt>
<trkpt lat="45.9362350" lon="9.6013110">
	<ele>1393.00</ele>
	<time>2023-10-07T06:58:02.000Z</time>
</trkpt>
<trkpt lat="45.9362360" lon="9.6013190">
	<ele>1393.20</ele>
	<time>2023-10-07T06:58:03.000Z</time>
</trkpt>
<trkpt lat="45.9362360" lon="9.6013300">
	<ele>1393.20</ele>
	<time>2023-10-07T06:58:04.000Z</time>
</trkpt>
<trkpt lat="45.9362360" lon="9.6013380">
	<ele>1393.20</ele>
	<time>2023-10-07T06:58:05.000Z</time>
</trkpt>
<trkpt lat="45.9362360" lon="9.6013520">
	<ele>1393.20</ele>
	<time>2023-10-07T06:58:06.000Z</time>
</trkpt>
<trkpt lat="45.9362360" lon="9.6013760">
	<ele>1393.20</ele>
	<time>2023-10-07T06:58:07.000Z</time>
</trkpt>
<trkpt lat="45.9362300" lon="9.6014030">
	<ele>1393.20</ele>
	<time>2023-10-07T06:58:08.000Z</time>
</trkpt>
<trkpt lat="45.9362190" lon="9.6014300">
	<ele>1393.00</ele>
	<time>2023-10-07T06:58:09.000Z</time>
</trkpt>
<trkpt lat="45.9362100" lon="9.6014530">
	<ele>1393.00</ele>
	<time>2023-10-07T06:58:10.000Z</time>
</trkpt>
<trkpt lat="45.9362030" lon="9.6014670">
	<ele>1393.00</ele>
	<time>2023-10-07T06:58:11.000Z</time>
</trkpt>
<trkpt lat="45.9362030" lon="9.6014730">
	<ele>1392.80</ele>
	<time>2023-10-07T06:58:12.000Z</time>
</trkpt>
<trkpt lat="45.9362070" lon="9.6014840">
	<ele>1392.80</ele>
	<time>2023-10-07T06:58:13.000Z</time>
</trkpt>
<trkpt lat="45.9362100" lon="9.6014960">
	<ele>1392.80</ele>
	<time>2023-10-07T06:58:14.000Z</time>
</trkpt>
<trkpt lat="45.9362060" lon="9.6015130">
	<ele>1392.60</ele>
	<time>2023-10-07T06:58:15.000Z</time>
</trkpt>
<trkpt lat="45.9362080" lon="9.6015320">
	<ele>1392.40</ele>
	<time>2023-10-07T06:58:16.000Z</time>
</trkpt>
<trkpt lat="45.9362120" lon="9.6015510">
	<ele>1392.40</ele>
	<time>2023-10-07T06:58:17.000Z</time>
</trkpt>
<trkpt lat="45.9362110" lon="9.6015720">
	<ele>1392.40</ele>
	<time>2023-10-07T06:58:18.000Z</time>
</trkpt>
<trkpt lat="45.9362110" lon="9.6015780">
	<ele>1392.40</ele>
	<time>2023-10-07T06:58:19.000Z</time>
</trkpt>
<trkpt lat="45.9362090" lon="9.6015900">
	<ele>1392.60</ele>
	<time>2023-10-07T06:58:20.000Z</time>
</trkpt>
<trkpt lat="45.9362080" lon="9.6016030">
	<ele>1392.80</ele>
	<time>2023-10-07T06:58:21.000Z</time>
</trkpt>
<trkpt lat="45.9361990" lon="9.6016100">
	<ele>1393.00</ele>
	<time>2023-10-07T06:58:22.000Z</time>
</trkpt>
<trkpt lat="45.9361900" lon="9.6016170">
	<ele>1393.00</ele>
	<time>2023-10-07T06:58:23.000Z</time>
</trkpt>
<trkpt lat="45.9361830" lon="9.6016300">
	<ele>1393.00</ele>
	<time>2023-10-07T06:58:24.000Z</time>
</trkpt>
<trkpt lat="45.9361810" lon="9.6016510">
	<ele>1393.00</ele>
	<time>2023-10-07T06:58:25.000Z</time>
</trkpt>
<trkpt lat="45.9361770" lon="9.6016660">
	<ele>1393.00</ele>
	<time>2023-10-07T06:58:26.000Z</time>
</trkpt>
<trkpt lat="45.9361790" lon="9.6016850">
	<ele>1393.20</ele>
	<time>2023-10-07T06:58:27.000Z</time>
</trkpt>
<trkpt lat="45.9361830" lon="9.6017030">
	<ele>1393.20</ele>
	<time>2023-10-07T06:58:28.000Z</time>
</trkpt>
<trkpt lat="45.9361850" lon="9.6017160">
	<ele>1393.20</ele>
	<time>2023-10-07T06:58:29.000Z</time>
</trkpt>
<trkpt lat="45.9361800" lon="9.6017320">
	<ele>1393.40</ele>
	<time>2023-10-07T06:58:30.000Z</time>
</trkpt>
<trkpt lat="45.9361810" lon="9.6017460">
	<ele>1393.80</ele>
	<time>2023-10-07T06:58:31.000Z</time>
</trkpt>
<trkpt lat="45.9361860" lon="9.6017730">
	<ele>1394.00</ele>
	<time>2023-10-07T06:58:32.000Z</time>
</trkpt>
<trkpt lat="45.9361850" lon="9.6017930">
	<ele>1394.20</ele>
	<time>2023-10-07T06:58:33.000Z</time>
</trkpt>
<trkpt lat="45.9361840" lon="9.6018160">
	<ele>1394.40</ele>
	<time>2023-10-07T06:58:34.000Z</time>
</trkpt>
<trkpt lat="45.9361850" lon="9.6018360">
	<ele>1394.60</ele>
	<time>2023-10-07T06:58:35.000Z</time>
</trkpt>
<trkpt lat="45.9361840" lon="9.6018610">
	<ele>1394.80</ele>
	<time>2023-10-07T06:58:36.000Z</time>
</trkpt>
<trkpt lat="45.9361830" lon="9.6018820">
	<ele>1395.00</ele>
	<time>2023-10-07T06:58:37.000Z</time>
</trkpt>
<trkpt lat="45.9361890" lon="9.6018970">
	<ele>1395.20</ele>
	<time>2023-10-07T06:58:38.000Z</time>
</trkpt>
<trkpt lat="45.9361930" lon="9.6019070">
	<ele>1395.20</ele>
	<time>2023-10-07T06:58:39.000Z</time>
</trkpt>
<trkpt lat="45.9361950" lon="9.6019260">
	<ele>1395.40</ele>
	<time>2023-10-07T06:58:40.000Z</time>
</trkpt>
<trkpt lat="45.9361920" lon="9.6019430">
	<ele>1395.40</ele>
	<time>2023-10-07T06:58:41.000Z</time>
</trkpt>
<trkpt lat="45.9361920" lon="9.6019490">
	<ele>1395.60</ele>
	<time>2023-10-07T06:58:42.000Z</time>
</trkpt>
<trkpt lat="45.9361870" lon="9.6019680">
	<ele>1395.60</ele>
	<time>2023-10-07T06:58:43.000Z</time>
</trkpt>
<trkpt lat="45.9361840" lon="9.6019840">
	<ele>1395.80</ele>
	<time>2023-10-07T06:58:44.000Z</time>
</trkpt>
<trkpt lat="45.9361780" lon="9.6019990">
	<ele>1395.80</ele>
	<time>2023-10-07T06:58:45.000Z</time>
</trkpt>
<trkpt lat="45.9361760" lon="9.6020160">
	<ele>1395.80</ele>
	<time>2023-10-07T06:58:46.000Z</time>
</trkpt>
<trkpt lat="45.9361720" lon="9.6020230">
	<ele>1396.00</ele>
	<time>2023-10-07T06:58:47.000Z</time>
</trkpt>
<trkpt lat="45.9361650" lon="9.6020290">
	<ele>1396.00</ele>
	<time>2023-10-07T06:58:48.000Z</time>
</trkpt>
<trkpt lat="45.9361610" lon="9.6020390">
	<ele>1396.00</ele>
	<time>2023-10-07T06:58:49.000Z</time>
</trkpt>
<trkpt lat="45.9361540" lon="9.6020540">
	<ele>1396.00</ele>
	<time>2023-10-07T06:58:50.000Z</time>
</trkpt>
<trkpt lat="45.9361540" lon="9.6020790">
	<ele>1396.00</ele>
	<time>2023-10-07T06:58:51.000Z</time>
</trkpt>
<trkpt lat="45.9361460" lon="9.6020910">
	<ele>1396.00</ele>
	<time>2023-10-07T06:58:52.000Z</time>
</trkpt>
<trkpt lat="45.9361400" lon="9.6021040">
	<ele>1396.00</ele>
	<time>2023-10-07T06:58:53.000Z</time>
</trkpt>
<trkpt lat="45.9361330" lon="9.6021180">
	<ele>1395.80</ele>
	<time>2023-10-07T06:58:54.000Z</time>
</trkpt>
<trkpt lat="45.9361240" lon="9.6021340">
	<ele>1395.80</ele>
	<time>2023-10-07T06:58:55.000Z</time>
</trkpt>
<trkpt lat="45.9361150" lon="9.6021520">
	<ele>1395.60</ele>
	<time>2023-10-07T06:58:56.000Z</time>
</trkpt>
<trkpt lat="45.9361080" lon="9.6021730">
	<ele>1395.60</ele>
	<time>2023-10-07T06:58:57.000Z</time>
</trkpt>
<trkpt lat="45.9361060" lon="9.6021890">
	<ele>1395.60</ele>
	<time>2023-10-07T06:58:58.000Z</time>
</trkpt>
<trkpt lat="45.9361020" lon="9.6022030">
	<ele>1395.60</ele>
	<time>2023-10-07T06:58:59.000Z</time>
</trkpt>
<trkpt lat="45.9360980" lon="9.6022170">
	<ele>1395.60</ele>
	<time>2023-10-07T06:59:00.000Z</time>
</trkpt>
<trkpt lat="45.9360980" lon="9.6022330">
	<ele>1395.60</ele>
	<time>2023-10-07T06:59:01.000Z</time>
</trkpt>
<trkpt lat="45.9360980" lon="9.6022490">
	<ele>1395.80</ele>
	<time>2023-10-07T06:59:02.000Z</time>
</trkpt>
<trkpt lat="45.9361030" lon="9.6022580">
	<ele>1396.00</ele>
	<time>2023-10-07T06:59:03.000Z</time>
</trkpt>
<trkpt lat="45.9360990" lon="9.6022690">
	<ele>1396.00</ele>
	<time>2023-10-07T06:59:04.000Z</time>
</trkpt>
<trkpt lat="45.9360980" lon="9.6022750">
	<ele>1396.20</ele>
	<time>2023-10-07T06:59:05.000Z</time>
</trkpt>
<trkpt lat="45.9360950" lon="9.6022850">
	<ele>1396.40</ele>
	<time>2023-10-07T06:59:06.000Z</time>
</trkpt>
<trkpt lat="45.9360910" lon="9.6022990">
	<ele>1396.60</ele>
	<time>2023-10-07T06:59:07.000Z</time>
</trkpt>
<trkpt lat="45.9360880" lon="9.6023150">
	<ele>1396.60</ele>
	<time>2023-10-07T06:59:08.000Z</time>
</trkpt>
<trkpt lat="45.9360860" lon="9.6023360">
	<ele>1396.80</ele>
	<time>2023-10-07T06:59:09.000Z</time>
</trkpt>
<trkpt lat="45.9360830" lon="9.6023500">
	<ele>1396.80</ele>
	<time>2023-10-07T06:59:10.000Z</time>
</trkpt>
<trkpt lat="45.9360810" lon="9.6023530">
	<ele>1396.80</ele>
	<time>2023-10-07T06:59:11.000Z</time>
</trkpt>
<trkpt lat="45.9360760" lon="9.6023670">
	<ele>1396.60</ele>
	<time>2023-10-07T06:59:12.000Z</time>
</trkpt>
<trkpt lat="45.9360650" lon="9.6023810">
	<ele>1396.60</ele>
	<time>2023-10-07T06:59:13.000Z</time>
</trkpt>
<trkpt lat="45.9360540" lon="9.6023990">
	<ele>1396.60</ele>
	<time>2023-10-07T06:59:14.000Z</time>
</trkpt>
<trkpt lat="45.9360510" lon="9.6024190">
	<ele>1396.60</ele>
	<time>2023-10-07T06:59:15.000Z</time>
</trkpt>
<trkpt lat="45.9360490" lon="9.6024400">
	<ele>1396.60</ele>
	<time>2023-10-07T06:59:16.000Z</time>
</trkpt>
<trkpt lat="45.9360400" lon="9.6024690">
	<ele>1396.60</ele>
	<time>2023-10-07T06:59:17.000Z</time>
</trkpt>
<trkpt lat="45.9360300" lon="9.6024910">
	<ele>1396.40</ele>
	<time>2023-10-07T06:59:18.000Z</time>
</trkpt>
<trkpt lat="45.9360230" lon="9.6025120">
	<ele>1396.40</ele>
	<time>2023-10-07T06:59:19.000Z</time>
</trkpt>
<trkpt lat="45.9360160" lon="9.6025300">
	<ele>1396.40</ele>
	<time>2023-10-07T06:59:20.000Z</time>
</trkpt>
<trkpt lat="45.9360070" lon="9.6025460">
	<ele>1396.20</ele>
	<time>2023-10-07T06:59:21.000Z</time>
</trkpt>
<trkpt lat="45.9359980" lon="9.6025620">
	<ele>1396.20</ele>
	<time>2023-10-07T06:59:22.000Z</time>
</trkpt>
<trkpt lat="45.9359960" lon="9.6025910">
	<ele>1396.20</ele>
	<time>2023-10-07T06:59:23.000Z</time>
</trkpt>
<trkpt lat="45.9359960" lon="9.6026120">
	<ele>1396.00</ele>
	<time>2023-10-07T06:59:24.000Z</time>
</trkpt>
<trkpt lat="45.9359940" lon="9.6026280">
	<ele>1396.00</ele>
	<time>2023-10-07T06:59:25.000Z</time>
</trkpt>
<trkpt lat="45.9359890" lon="9.6026420">
	<ele>1396.00</ele>
	<time>2023-10-07T06:59:26.000Z</time>
</trkpt>
<trkpt lat="45.9359880" lon="9.6026610">
	<ele>1396.00</ele>
	<time>2023-10-07T06:59:27.000Z</time>
</trkpt>
<trkpt lat="45.9359880" lon="9.6026770">
	<ele>1396.00</ele>
	<time>2023-10-07T06:59:28.000Z</time>
</trkpt>
<trkpt lat="45.9359840" lon="9.6026920">
	<ele>1396.00</ele>
	<time>2023-10-07T06:59:29.000Z</time>
</trkpt>
<trkpt lat="45.9359810" lon="9.6027060">
	<ele>1396.00</ele>
	<time>2023-10-07T06:59:30.000Z</time>
</trkpt>
<trkpt lat="45.9359710" lon="9.6027250">
	<ele>1396.00</ele>
	<time>2023-10-07T06:59:31.000Z</time>
</trkpt>
<trkpt lat="45.9359650" lon="9.6027450">
	<ele>1396.00</ele>
	<time>2023-10-07T06:59:32.000Z</time>
</trkpt>
<trkpt lat="45.9359590" lon="9.6027640">
	<ele>1396.00</ele>
	<time>2023-10-07T06:59:33.000Z</time>
</trkpt>
<trkpt lat="45.9359460" lon="9.6027850">
	<ele>1396.00</ele>
	<time>2023-10-07T06:59:34.000Z</time>
</trkpt>
<trkpt lat="45.9359410" lon="9.6028030">
	<ele>1396.20</ele>
	<time>2023-10-07T06:59:35.000Z</time>
</trkpt>
<trkpt lat="45.9359360" lon="9.6028140">
	<ele>1396.20</ele>
	<time>2023-10-07T06:59:36.000Z</time>
</trkpt>
<trkpt lat="45.9359290" lon="9.6028230">
	<ele>1396.20</ele>
	<time>2023-10-07T06:59:37.000Z</time>
</trkpt>
<trkpt lat="45.9359290" lon="9.6028400">
	<ele>1396.20</ele>
	<time>2023-10-07T06:59:38.000Z</time>
</trkpt>
<trkpt lat="45.9359250" lon="9.6028580">
	<ele>1396.20</ele>
	<time>2023-10-07T06:59:39.000Z</time>
</trkpt>
<trkpt lat="45.9359210" lon="9.6028780">
	<ele>1396.20</ele>
	<time>2023-10-07T06:59:40.000Z</time>
</trkpt>
<trkpt lat="45.9359090" lon="9.6028910">
	<ele>1396.20</ele>
	<time>2023-10-07T06:59:41.000Z</time>
</trkpt>
<trkpt lat="45.9358980" lon="9.6029030">
	<ele>1396.20</ele>
	<time>2023-10-07T06:59:42.000Z</time>
</trkpt>
<trkpt lat="45.9358960" lon="9.6029200">
	<ele>1396.40</ele>
	<time>2023-10-07T06:59:43.000Z</time>
</trkpt>
<trkpt lat="45.9359000" lon="9.6029410">
	<ele>1396.40</ele>
	<time>2023-10-07T06:59:44.000Z</time>
</trkpt>
<trkpt lat="45.9359050" lon="9.6029580">
	<ele>1396.40</ele>
	<time>2023-10-07T06:59:45.000Z</time>
</trkpt>
<trkpt lat="45.9359070" lon="9.6029760">
	<ele>1396.40</ele>
	<time>2023-10-07T06:59:46.000Z</time>
</trkpt>
<trkpt lat="45.9359100" lon="9.6029940">
	<ele>1396.40</ele>
	<time>2023-10-07T06:59:47.000Z</time>
</trkpt>
<trkpt lat="45.9359140" lon="9.6030080">
	<ele>1396.40</ele>
	<time>2023-10-07T06:59:48.000Z</time>
</trkpt>
<trkpt lat="45.9359140" lon="9.6030220">
	<ele>1396.60</ele>
	<time>2023-10-07T06:59:49.000Z</time>
</trkpt>
<trkpt lat="45.9359130" lon="9.6030310">
	<ele>1396.80</ele>
	<time>2023-10-07T06:59:50.000Z</time>
</trkpt>
<trkpt lat="45.9359130" lon="9.6030500">
	<ele>1397.00</ele>
	<time>2023-10-07T06:59:51.000Z</time>
</trkpt>
<trkpt lat="45.9359090" lon="9.6030630">
	<ele>1397.20</ele>
	<time>2023-10-07T06:59:52.000Z</time>
</trkpt>
<trkpt lat="45.9359050" lon="9.6030740">
	<ele>1397.20</ele>
	<time>2023-10-07T06:59:53.000Z</time>
</trkpt>
<trkpt lat="45.9359050" lon="9.6030760">
	<ele>1397.20</ele>
	<time>2023-10-07T06:59:54.000Z</time>
</trkpt>
<trkpt lat="45.9359040" lon="9.6030790">
	<ele>1397.40</ele>
	<time>2023-10-07T06:59:55.000Z</time>
</trkpt>
<trkpt lat="45.9359020" lon="9.6030790">
	<ele>1397.40</ele>
	<time>2023-10-07T06:59:56.000Z</time>
</trkpt>
<trkpt lat="45.9359030" lon="9.6030750">
	<ele>1397.40</ele>
	<time>2023-10-07T06:59:57.000Z</time>
</trkpt>
<trkpt lat="45.9359040" lon="9.6030720">
	<ele>1397.40</ele>
	<time>2023-10-07T06:59:58.000Z</time>
</trkpt>
<trkpt lat="45.9359030" lon="9.6030690">
	<ele>1397.60</ele>
	<time>2023-10-07T06:59:59.000Z</time>
</trkpt>
<trkpt lat="45.9359020" lon="9.6030690">
	<ele>1397.60</ele>
	<time>2023-10-07T07:00:00.000Z</time>
</trkpt>
<trkpt lat="45.9359010" lon="9.6030690">
	<ele>1397.80</ele>
	<time>2023-10-07T07:00:01.000Z</time>
</trkpt>
<trkpt lat="45.9359010" lon="9.6030700">
	<ele>1397.80</ele>
	<time>2023-10-07T07:00:02.000Z</time>
</trkpt>
<trkpt lat="45.9359010" lon="9.6030770">
	<ele>1397.80</ele>
	<time>2023-10-07T07:00:03.000Z</time>
</trkpt>
<trkpt lat="45.9359010" lon="9.6030790">
	<ele>1398.00</ele>
	<time>2023-10-07T07:00:04.000Z</time>
</trkpt>
<trkpt lat="45.9359010" lon="9.6030800">
	<ele>1398.00</ele>
	<time>2023-10-07T07:00:05.000Z</time>
</trkpt>
<trkpt lat="45.9359010" lon="9.6030800">
	<ele>1398.20</ele>
	<time>2023-10-07T07:00:06.000Z</time>
</trkpt>
<trkpt lat="45.9359010" lon="9.6030800">
	<ele>1398.20</ele>
	<time>2023-10-07T07:00:07.000Z</time>
</trkpt>
<trkpt lat="45.9359010" lon="9.6030800">
	<ele>1398.20</ele>
	<time>2023-10-07T07:00:08.000Z</time>
</trkpt>
<trkpt lat="45.9359010" lon="9.6030800">
	<ele>1398.20</ele>
	<time>2023-10-07T07:00:09.000Z</time>
</trkpt>
<trkpt lat="45.9359010" lon="9.6030800">
	<ele>1398.20</ele>
	<time>2023-10-07T07:00:10.000Z</time>
</trkpt>
<trkpt lat="45.9359010" lon="9.6030800">
	<ele>1398.00</ele>
	<time>2023-10-07T07:00:11.000Z</time>
</trkpt>
<trkpt lat="45.9359010" lon="9.6030800">
	<ele>1398.00</ele>
	<time>2023-10-07T07:00:12.000Z</time>
</trkpt>
<trkpt lat="45.9359010" lon="9.6030790">
	<ele>1398.00</ele>
	<time>2023-10-07T07:00:13.000Z</time>
</trkpt>
<trkpt lat="45.9359010" lon="9.6030770">
	<ele>1397.80</ele>
	<time>2023-10-07T07:00:14.000Z</time>
</trkpt>
<trkpt lat="45.9359010" lon="9.6030770">
	<ele>1397.60</ele>
	<time>2023-10-07T07:00:15.000Z</time>
</trkpt>
<trkpt lat="45.9359010" lon="9.6030770">
	<ele>1397.60</ele>
	<time>2023-10-07T07:00:16.000Z</time>
</trkpt>
<trkpt lat="45.9359010" lon="9.6030770">
	<ele>1397.60</ele>
	<time>2023-10-07T07:00:17.000Z</time>
</trkpt>
<trkpt lat="45.9359000" lon="9.6030820">
	<ele>1397.60</ele>
	<time>2023-10-07T07:00:18.000Z</time>
</trkpt>
<trkpt lat="45.9358950" lon="9.6030960">
	<ele>1397.60</ele>
	<time>2023-10-07T07:00:19.000Z</time>
</trkpt>
<trkpt lat="45.9358920" lon="9.6031140">
	<ele>1397.80</ele>
	<time>2023-10-07T07:00:20.000Z</time>
</trkpt>
<trkpt lat="45.9358880" lon="9.6031320">
	<ele>1397.80</ele>
	<time>2023-10-07T07:00:21.000Z</time>
</trkpt>
<trkpt lat="45.9358830" lon="9.6031500">
	<ele>1397.80</ele>
	<time>2023-10-07T07:00:22.000Z</time>
</trkpt>
<trkpt lat="45.9358800" lon="9.6031740">
	<ele>1397.80</ele>
	<time>2023-10-07T07:00:23.000Z</time>
</trkpt>
<trkpt lat="45.9358730" lon="9.6031920">
	<ele>1398.00</ele>
	<time>2023-10-07T07:00:24.000Z</time>
</trkpt>
<trkpt lat="45.9358680" lon="9.6032130">
	<ele>1398.00</ele>
	<time>2023-10-07T07:00:25.000Z</time>
</trkpt>
<trkpt lat="45.9358630" lon="9.6032310">
	<ele>1398.00</ele>
	<time>2023-10-07T07:00:26.000Z</time>
</trkpt>
<trkpt lat="45.9358590" lon="9.6032530">
	<ele>1398.00</ele>
	<time>2023-10-07T07:00:27.000Z</time>
</trkpt>
<trkpt lat="45.9358570" lon="9.6032700">
	<ele>1398.20</ele>
	<time>2023-10-07T07:00:28.000Z</time>
</trkpt>
<trkpt lat="45.9358560" lon="9.6032840">
	<ele>1398.40</ele>
	<time>2023-10-07T07:00:29.000Z</time>
</trkpt>
<trkpt lat="45.9358550" lon="9.6032990">
	<ele>1398.40</ele>
	<time>2023-10-07T07:00:30.000Z</time>
</trkpt>
<trkpt lat="45.9358560" lon="9.6033100">
	<ele>1398.60</ele>
	<time>2023-10-07T07:00:31.000Z</time>
</trkpt>
<trkpt lat="45.9358580" lon="9.6033230">
	<ele>1399.00</ele>
	<time>2023-10-07T07:00:32.000Z</time>
</trkpt>
<trkpt lat="45.9358580" lon="9.6033290">
	<ele>1399.20</ele>
	<time>2023-10-07T07:00:33.000Z</time>
</trkpt>
<trkpt lat="45.9358570" lon="9.6033400">
	<ele>1399.40</ele>
	<time>2023-10-07T07:00:34.000Z</time>
</trkpt>
<trkpt lat="45.9358550" lon="9.6033500">
	<ele>1399.60</ele>
	<time>2023-10-07T07:00:35.000Z</time>
</trkpt>
<trkpt lat="45.9358550" lon="9.6033590">
	<ele>1399.80</ele>
	<time>2023-10-07T07:00:36.000Z</time>
</trkpt>
<trkpt lat="45.9358550" lon="9.6033690">
	<ele>1400.00</ele>
	<time>2023-10-07T07:00:37.000Z</time>
</trkpt>
<trkpt lat="45.9358520" lon="9.6033800">
	<ele>1400.00</ele>
	<time>2023-10-07T07:00:38.000Z</time>
</trkpt>
<trkpt lat="45.9358490" lon="9.6033900">
	<ele>1400.20</ele>
	<time>2023-10-07T07:00:39.000Z</time>
</trkpt>
<trkpt lat="45.9358500" lon="9.6034010">
	<ele>1400.40</ele>
	<time>2023-10-07T07:00:40.000Z</time>
</trkpt>
<trkpt lat="45.9358530" lon="9.6034140">
	<ele>1400.60</ele>
	<time>2023-10-07T07:00:41.000Z</time>
</trkpt>
<trkpt lat="45.9358550" lon="9.6034240">
	<ele>1400.80</ele>
	<time>2023-10-07T07:00:42.000Z</time>
</trkpt>
<trkpt lat="45.9358550" lon="9.6034380">
	<ele>1401.00</ele>
	<time>2023-10-07T07:00:43.000Z</time>
</trkpt>
<trkpt lat="45.9358570" lon="9.6034510">
	<ele>1401.20</ele>
	<time>2023-10-07T07:00:44.000Z</time>
</trkpt>
<trkpt lat="45.9358570" lon="9.6034590">
	<ele>1401.40</ele>
	<time>2023-10-07T07:00:45.000Z</time>
</trkpt>
<trkpt lat="45.9358580" lon="9.6034670">
	<ele>1401.60</ele>
	<time>2023-10-07T07:00:46.000Z</time>
</trkpt>
<trkpt lat="45.9358570" lon="9.6034790">
	<ele>1401.80</ele>
	<time>2023-10-07T07:00:47.000Z</time>
</trkpt>
<trkpt lat="45.9358560" lon="9.6034880">
	<ele>1401.80</ele>
	<time>2023-10-07T07:00:48.000Z</time>
</trkpt>
<trkpt lat="45.9358520" lon="9.6034940">
	<ele>1402.20</ele>
	<time>2023-10-07T07:00:49.000Z</time>
</trkpt>
<trkpt lat="45.9358470" lon="9.6035050">
	<ele>1402.40</ele>
	<time>2023-10-07T07:00:50.000Z</time>
</trkpt>
<trkpt lat="45.9358430" lon="9.6035130">
	<ele>1402.60</ele>
	<time>2023-10-07T07:00:51.000Z</time>
</trkpt>
<trkpt lat="45.9358420" lon="9.6035210">
	<ele>1402.80</ele>
	<time>2023-10-07T07:00:52.000Z</time>
</trkpt>
<trkpt lat="45.9358400" lon="9.6035320">
	<ele>1403.00</ele>
	<time>2023-10-07T07:00:53.000Z</time>
</trkpt>
<trkpt lat="45.9358340" lon="9.6035400">
	<ele>1403.00</ele>
	<time>2023-10-07T07:00:54.000Z</time>
</trkpt>
<trkpt lat="45.9358320" lon="9.6035480">
	<ele>1403.20</ele>
	<time>2023-10-07T07:00:55.000Z</time>
</trkpt>
<trkpt lat="45.9358340" lon="9.6035600">
	<ele>1403.40</ele>
	<time>2023-10-07T07:00:56.000Z</time>
</trkpt>
<trkpt lat="45.9358340" lon="9.6035750">
	<ele>1403.40</ele>
	<time>2023-10-07T07:00:57.000Z</time>
</trkpt>
<trkpt lat="45.9358340" lon="9.6035880">
	<ele>1403.60</ele>
	<time>2023-10-07T07:00:58.000Z</time>
</trkpt>
<trkpt lat="45.9358330" lon="9.6035980">
	<ele>1403.80</ele>
	<time>2023-10-07T07:00:59.000Z</time>
</trkpt>
<trkpt lat="45.9358320" lon="9.6036060">
	<ele>1404.00</ele>
	<time>2023-10-07T07:01:00.000Z</time>
</trkpt>
<trkpt lat="45.9358320" lon="9.6036180">
	<ele>1404.00</ele>
	<time>2023-10-07T07:01:01.000Z</time>
</trkpt>
<trkpt lat="45.9358310" lon="9.6036270">
	<ele>1404.00</ele>
	<time>2023-10-07T07:01:02.000Z</time>
</trkpt>
<trkpt lat="45.9358280" lon="9.6036380">
	<ele>1404.20</ele>
	<time>2023-10-07T07:01:03.000Z</time>
</trkpt>
<trkpt lat="45.9358290" lon="9.6036490">
	<ele>1404.40</ele>
	<time>2023-10-07T07:01:04.000Z</time>
</trkpt>
<trkpt lat="45.9358300" lon="9.6036590">
	<ele>1404.60</ele>
	<time>2023-10-07T07:01:05.000Z</time>
</trkpt>
<trkpt lat="45.9358300" lon="9.6036630">
	<ele>1404.80</ele>
	<time>2023-10-07T07:01:06.000Z</time>
</trkpt>
<trkpt lat="45.9358280" lon="9.6036670">
	<ele>1404.80</ele>
	<time>2023-10-07T07:01:07.000Z</time>
</trkpt>
<trkpt lat="45.9358270" lon="9.6036680">
	<ele>1405.00</ele>
	<time>2023-10-07T07:01:08.000Z</time>
</trkpt>
<trkpt lat="45.9358260" lon="9.6036710">
	<ele>1405.00</ele>
	<time>2023-10-07T07:01:09.000Z</time>
</trkpt>
<trkpt lat="45.9358230" lon="9.6036720">
	<ele>1405.00</ele>
	<time>2023-10-07T07:01:10.000Z</time>
</trkpt>
<trkpt lat="45.9358200" lon="9.6036760">
	<ele>1405.00</ele>
	<time>2023-10-07T07:01:11.000Z</time>
</trkpt>
<trkpt lat="45.9358190" lon="9.6036760">
	<ele>1405.00</ele>
	<time>2023-10-07T07:01:12.000Z</time>
</trkpt>
<trkpt lat="45.9358210" lon="9.6036750">
	<ele>1405.00</ele>
	<time>2023-10-07T07:01:13.000Z</time>
</trkpt>
<trkpt lat="45.9358220" lon="9.6036740">
	<ele>1405.00</ele>
	<time>2023-10-07T07:01:14.000Z</time>
</trkpt>
<trkpt lat="45.9358220" lon="9.6036730">
	<ele>1405.00</ele>
	<time>2023-10-07T07:01:15.000Z</time>
</trkpt>
<trkpt lat="45.9358220" lon="9.6036740">
	<ele>1405.20</ele>
	<time>2023-10-07T07:01:16.000Z</time>
</trkpt>
<trkpt lat="45.9358220" lon="9.6036740">
	<ele>1405.40</ele>
	<time>2023-10-07T07:01:17.000Z</time>
</trkpt>
<trkpt lat="45.9358220" lon="9.6036740">
	<ele>1405.40</ele>
	<time>2023-10-07T07:01:18.000Z</time>
</trkpt>
<trkpt lat="45.9358220" lon="9.6036740">
	<ele>1405.60</ele>
	<time>2023-10-07T07:01:19.000Z</time>
</trkpt>
<trkpt lat="45.9358220" lon="9.6036740">
	<ele>1405.60</ele>
	<time>2023-10-07T07:01:20.000Z</time>
</trkpt>
<trkpt lat="45.9358220" lon="9.6036740">
	<ele>1405.60</ele>
	<time>2023-10-07T07:01:21.000Z</time>
</trkpt>
<trkpt lat="45.9358220" lon="9.6036740">
	<ele>1405.60</ele>
	<time>2023-10-07T07:01:22.000Z</time>
</trkpt>
<trkpt lat="45.9358220" lon="9.6036740">
	<ele>1405.60</ele>
	<time>2023-10-07T07:01:23.000Z</time>
</trkpt>
<trkpt lat="45.9358220" lon="9.6036740">
	<ele>1405.60</ele>
	<time>2023-10-07T07:01:24.000Z</time>
</trkpt>
<trkpt lat="45.9358220" lon="9.6036740">
	<ele>1405.60</ele>
	<time>2023-10-07T07:01:25.000Z</time>
</trkpt>
<trkpt lat="45.9358220" lon="9.6036740">
	<ele>1405.60</ele>
	<time>2023-10-07T07:01:26.000Z</time>
</trkpt>
<trkpt lat="45.9358220" lon="9.6036740">
	<ele>1405.80</ele>
	<time>2023-10-07T07:01:27.000Z</time>
</trkpt>
<trkpt lat="45.9358220" lon="9.6036730">
	<ele>1405.80</ele>
	<time>2023-10-07T07:01:28.000Z</time>
</trkpt>
<trkpt lat="45.9358220" lon="9.6036730">
	<ele>1405.80</ele>
	<time>2023-10-07T07:01:29.000Z</time>
</trkpt>
<trkpt lat="45.9358220" lon="9.6036730">
	<ele>1405.20</ele>
	<time>2023-10-07T07:01:30.000Z</time>
</trkpt>
<trkpt lat="45.9358220" lon="9.6036730">
	<ele>1405.00</ele>
	<time>2023-10-07T07:01:31.000Z</time>
</trkpt>
<trkpt lat="45.9358220" lon="9.6036730">
	<ele>1404.80</ele>
	<time>2023-10-07T07:01:32.000Z</time>
</trkpt>
<trkpt lat="45.9358220" lon="9.6036730">
	<ele>1404.80</ele>
	<time>2023-10-07T07:01:33.000Z</time>
</trkpt>
<trkpt lat="45.9358220" lon="9.6036730">
	<ele>1404.60</ele>
	<time>2023-10-07T07:01:34.000Z</time>
</trkpt>
<trkpt lat="45.9358220" lon="9.6036730">
	<ele>1404.80</ele>
	<time>2023-10-07T07:01:35.000Z</time>
</trkpt>
<trkpt lat="45.9358220" lon="9.6036730">
	<ele>1404.80</ele>
	<time>2023-10-07T07:01:36.000Z</time>
</trkpt>
<trkpt lat="45.9358220" lon="9.6036730">
	<ele>1404.80</ele>
	<time>2023-10-07T07:01:37.000Z</time>
</trkpt>
<trkpt lat="45.9358220" lon="9.6036730">
	<ele>1405.00</ele>
	<time>2023-10-07T07:01:38.000Z</time>
</trkpt>
<trkpt lat="45.9358220" lon="9.6036730">
	<ele>1405.00</ele>
	<time>2023-10-07T07:01:39.000Z</time>
</trkpt>
<trkpt lat="45.9358220" lon="9.6036730">
	<ele>1405.00</ele>
	<time>2023-10-07T07:01:40.000Z</time>
</trkpt>
<trkpt lat="45.9358230" lon="9.6036730">
	<ele>1405.00</ele>
	<time>2023-10-07T07:01:41.000Z</time>
</trkpt>
<trkpt lat="45.9358230" lon="9.6036730">
	<ele>1405.20</ele>
	<time>2023-10-07T07:01:42.000Z</time>
</trkpt>
<trkpt lat="45.9358230" lon="9.6036730">
	<ele>1405.40</ele>
	<time>2023-10-07T07:01:43.000Z</time>
</trkpt>
<trkpt lat="45.9358230" lon="9.6036720">
	<ele>1405.40</ele>
	<time>2023-10-07T07:01:44.000Z</time>
</trkpt>
<trkpt lat="45.9358230" lon="9.6036720">
	<ele>1405.40</ele>
	<time>2023-10-07T07:01:45.000Z</time>
</trkpt>
<trkpt lat="45.9358240" lon="9.6036710">
	<ele>1405.40</ele>
	<time>2023-10-07T07:01:46.000Z</time>
</trkpt>
<trkpt lat="45.9358260" lon="9.6036710">
	<ele>1405.40</ele>
	<time>2023-10-07T07:01:47.000Z</time>
</trkpt>
<trkpt lat="45.9358260" lon="9.6036710">
	<ele>1405.40</ele>
	<time>2023-10-07T07:01:48.000Z</time>
</trkpt>
<trkpt lat="45.9358270" lon="9.6036700">
	<ele>1405.40</ele>
	<time>2023-10-07T07:01:49.000Z</time>
</trkpt>
<trkpt lat="45.9358270" lon="9.6036700">
	<ele>1405.20</ele>
	<time>2023-10-07T07:01:50.000Z</time>
</trkpt>
<trkpt lat="45.9358280" lon="9.6036700">
	<ele>1405.20</ele>
	<time>2023-10-07T07:01:51.000Z</time>
</trkpt>
<trkpt lat="45.9358280" lon="9.6036700">
	<ele>1405.20</ele>
	<time>2023-10-07T07:01:52.000Z</time>
</trkpt>
<trkpt lat="45.9358290" lon="9.6036700">
	<ele>1405.20</ele>
	<time>2023-10-07T07:01:53.000Z</time>
</trkpt>
<trkpt lat="45.9358300" lon="9.6036700">
	<ele>1405.20</ele>
	<time>2023-10-07T07:01:54.000Z</time>
</trkpt>
<trkpt lat="45.9358320" lon="9.6036710">
	<ele>1405.20</ele>
	<time>2023-10-07T07:01:55.000Z</time>
</trkpt>
<trkpt lat="45.9358320" lon="9.6036710">
	<ele>1405.40</ele>
	<time>2023-10-07T07:01:56.000Z</time>
</trkpt>
<trkpt lat="45.9358320" lon="9.6036720">
	<ele>1405.60</ele>
	<time>2023-10-07T07:01:57.000Z</time>
</trkpt>
<trkpt lat="45.9358320" lon="9.6036730">
	<ele>1405.60</ele>
	<time>2023-10-07T07:01:58.000Z</time>
</trkpt>
<trkpt lat="45.9358330" lon="9.6036730">
	<ele>1405.80</ele>
	<time>2023-10-07T07:01:59.000Z</time>
</trkpt>
<trkpt lat="45.9358330" lon="9.6036730">
	<ele>1406.00</ele>
	<time>2023-10-07T07:02:00.000Z</time>
</trkpt>
<trkpt lat="45.9358330" lon="9.6036730">
	<ele>1406.00</ele>
	<time>2023-10-07T07:02:01.000Z</time>
</trkpt>
<trkpt lat="45.9358330" lon="9.6036730">
	<ele>1406.00</ele>
	<time>2023-10-07T07:02:02.000Z</time>
</trkpt>
<trkpt lat="45.9358340" lon="9.6036730">
	<ele>1406.00</ele>
	<time>2023-10-07T07:02:03.000Z</time>
</trkpt>
<trkpt lat="45.9358350" lon="9.6036730">
	<ele>1406.00</ele>
	<time>2023-10-07T07:02:04.000Z</time>
</trkpt>
<trkpt lat="45.9358370" lon="9.6036730">
	<ele>1406.00</ele>
	<time>2023-10-07T07:02:05.000Z</time>
</trkpt>
<trkpt lat="45.9358410" lon="9.6036760">
	<ele>1406.00</ele>
	<time>2023-10-07T07:02:06.000Z</time>
</trkpt>
<trkpt lat="45.9358460" lon="9.6036800">
	<ele>1406.00</ele>
	<time>2023-10-07T07:02:07.000Z</time>
</trkpt>
<trkpt lat="45.9358500" lon="9.6036870">
	<ele>1406.00</ele>
	<time>2023-10-07T07:02:08.000Z</time>
</trkpt>
<trkpt lat="45.9358550" lon="9.6036910">
	<ele>1406.20</ele>
	<time>2023-10-07T07:02:09.000Z</time>
</trkpt>
<trkpt lat="45.9358580" lon="9.6036970">
	<ele>1406.20</ele>
	<time>2023-10-07T07:02:10.000Z</time>
</trkpt>
<trkpt lat="45.9358610" lon="9.6037020">
	<ele>1406.20</ele>
	<time>2023-10-07T07:02:11.000Z</time>
</trkpt>
<trkpt lat="45.9358640" lon="9.6037050">
	<ele>1406.00</ele>
	<time>2023-10-07T07:02:12.000Z</time>
</trkpt>
<trkpt lat="45.9358680" lon="9.6037070">
	<ele>1405.80</ele>
	<time>2023-10-07T07:02:13.000Z</time>
</trkpt>
<trkpt lat="45.9358710" lon="9.6037120">
	<ele>1405.60</ele>
	<time>2023-10-07T07:02:14.000Z</time>
</trkpt>
<trkpt lat="45.9358760" lon="9.6037160">
	<ele>1405.60</ele>
	<time>2023-10-07T07:02:15.000Z</time>
</trkpt>
<trkpt lat="45.9358830" lon="9.6037200">
	<ele>1405.40</ele>
	<time>2023-10-07T07:02:16.000Z</time>
</trkpt>
<trkpt lat="45.9358900" lon="9.6037230">
	<ele>1405.40</ele>
	<time>2023-10-07T07:02:17.000Z</time>
</trkpt>
<trkpt lat="45.9358970" lon="9.6037280">
	<ele>1405.40</ele>
	<time>2023-10-07T07:02:18.000Z</time>
</trkpt>
<trkpt lat="45.9359040" lon="9.6037320">
	<ele>1405.40</ele>
	<time>2023-10-07T07:02:19.000Z</time>
</trkpt>
<trkpt lat="45.9359110" lon="9.6037330">
	<ele>1405.20</ele>
	<time>2023-10-07T07:02:20.000Z</time>
</trkpt>
<trkpt lat="45.9359180" lon="9.6037340">
	<ele>1405.20</ele>
	<time>2023-10-07T07:02:21.000Z</time>
</trkpt>
<trkpt lat="45.9359250" lon="9.6037340">
	<ele>1405.40</ele>
	<time>2023-10-07T07:02:22.000Z</time>
</trkpt>
<trkpt lat="45.9359310" lon="9.6037340">
	<ele>1405.40</ele>
	<time>2023-10-07T07:02:23.000Z</time>
</trkpt>
<trkpt lat="45.9359330" lon="9.6037350">
	<ele>1405.40</ele>
	<time>2023-10-07T07:02:24.000Z</time>
</trkpt>
<trkpt lat="45.9359330" lon="9.6037360">
	<ele>1405.60</ele>
	<time>2023-10-07T07:02:25.000Z</time>
</trkpt>
<trkpt lat="45.9359340" lon="9.6037360">
	<ele>1405.60</ele>
	<time>2023-10-07T07:02:26.000Z</time>
</trkpt>
<trkpt lat="45.9359340" lon="9.6037370">
	<ele>1405.60</ele>
	<time>2023-10-07T07:02:27.000Z</time>
</trkpt>
<trkpt lat="45.9359340" lon="9.6037370">
	<ele>1405.60</ele>
	<time>2023-10-07T07:02:28.000Z</time>
</trkpt>
<trkpt lat="45.9359340" lon="9.6037370">
	<ele>1405.60</ele>
	<time>2023-10-07T07:02:29.000Z</time>
</trkpt>
<trkpt lat="45.9359340" lon="9.6037380">
	<ele>1405.60</ele>
	<time>2023-10-07T07:02:30.000Z</time>
</trkpt>
<trkpt lat="45.9359340" lon="9.6037380">
	<ele>1405.60</ele>
	<time>2023-10-07T07:02:31.000Z</time>
</trkpt>
<trkpt lat="45.9359340" lon="9.6037380">
	<ele>1405.60</ele>
	<time>2023-10-07T07:02:32.000Z</time>
</trkpt>
<trkpt lat="45.9359340" lon="9.6037380">
	<ele>1405.60</ele>
	<time>2023-10-07T07:02:33.000Z</time>
</trkpt>
<trkpt lat="45.9359340" lon="9.6037380">
	<ele>1405.60</ele>
	<time>2023-10-07T07:02:34.000Z</time>
</trkpt>
<trkpt lat="45.9359340" lon="9.6037380">
	<ele>1405.60</ele>
	<time>2023-10-07T07:02:35.000Z</time>
</trkpt>
<trkpt lat="45.9359340" lon="9.6037380">
	<ele>1405.60</ele>
	<time>2023-10-07T07:02:36.000Z</time>
</trkpt>
<trkpt lat="45.9359340" lon="9.6037380">
	<ele>1405.60</ele>
	<time>2023-10-07T07:02:37.000Z</time>
</trkpt>
<trkpt lat="45.9359340" lon="9.6037380">
	<ele>1405.60</ele>
	<time>2023-10-07T07:02:38.000Z</time>
</trkpt>
<trkpt lat="45.9359340" lon="9.6037380">
	<ele>1405.60</ele>
	<time>2023-10-07T07:02:39.000Z</time>
</trkpt>
<trkpt lat="45.9359340" lon="9.6037380">
	<ele>1405.60</ele>
	<time>2023-10-07T07:02:40.000Z</time>
</trkpt>
<trkpt lat="45.9359330" lon="9.6037380">
	<ele>1405.60</ele>
	<time>2023-10-07T07:02:41.000Z</time>
</trkpt>
<trkpt lat="45.9359330" lon="9.6037380">
	<ele>1405.60</ele>
	<time>2023-10-07T07:02:42.000Z</time>
</trkpt>
<trkpt lat="45.9359330" lon="9.6037380">
	<ele>1405.60</ele>
	<time>2023-10-07T07:02:43.000Z</time>
</trkpt>
<trkpt lat="45.9359320" lon="9.6037380">
	<ele>1405.60</ele>
	<time>2023-10-07T07:02:44.000Z</time>
</trkpt>
<trkpt lat="45.9359320" lon="9.6037380">
	<ele>1405.60</ele>
	<time>2023-10-07T07:02:45.000Z</time>
</trkpt>
<trkpt lat="45.9359320" lon="9.6037380">
	<ele>1405.60</ele>
	<time>2023-10-07T07:02:46.000Z</time>
</trkpt>
<trkpt lat="45.9359320" lon="9.6037380">
	<ele>1405.60</ele>
	<time>2023-10-07T07:02:47.000Z</time>
</trkpt>
<trkpt lat="45.9359320" lon="9.6037380">
	<ele>1405.60</ele>
	<time>2023-10-07T07:02:48.000Z</time>
</trkpt>
<trkpt lat="45.9359320" lon="9.6037380">
	<ele>1405.60</ele>
	<time>2023-10-07T07:02:49.000Z</time>
</trkpt>
<trkpt lat="45.9359320" lon="9.6037380">
	<ele>1405.60</ele>
	<time>2023-10-07T07:02:50.000Z</time>
</trkpt>
<trkpt lat="45.9359310" lon="9.6037390">
	<ele>1405.60</ele>
	<time>2023-10-07T07:02:51.000Z</time>
</trkpt>
<trkpt lat="45.9359310" lon="9.6037390">
	<ele>1405.60</ele>
	<time>2023-10-07T07:02:52.000Z</time>
</trkpt>
<trkpt lat="45.9359310" lon="9.6037390">
	<ele>1405.60</ele>
	<time>2023-10-07T07:02:53.000Z</time>
</trkpt>
<trkpt lat="45.9359310" lon="9.6037390">
	<ele>1405.60</ele>
	<time>2023-10-07T07:02:54.000Z</time>
</trkpt>
<trkpt lat="45.9359310" lon="9.6037390">
	<ele>1405.60</ele>
	<time>2023-10-07T07:02:55.000Z</time>
</trkpt>
<trkpt lat="45.9359310" lon="9.6037390">
	<ele>1405.60</ele>
	<time>2023-10-07T07:02:56.000Z</time>
</trkpt>
<trkpt lat="45.9359310" lon="9.6037390">
	<ele>1405.60</ele>
	<time>2023-10-07T07:02:57.000Z</time>
</trkpt>
<trkpt lat="45.9359310" lon="9.6037390">
	<ele>1405.60</ele>
	<time>2023-10-07T07:02:58.000Z</time>
</trkpt>
<trkpt lat="45.9359310" lon="9.6037380">
	<ele>1405.60</ele>
	<time>2023-10-07T07:02:59.000Z</time>
</trkpt>
<trkpt lat="45.9359310" lon="9.6037380">
	<ele>1405.60</ele>
	<time>2023-10-07T07:03:00.000Z</time>
</trkpt>
<trkpt lat="45.9359300" lon="9.6037380">
	<ele>1405.60</ele>
	<time>2023-10-07T07:03:01.000Z</time>
</trkpt>
<trkpt lat="45.9359300" lon="9.6037380">
	<ele>1405.60</ele>
	<time>2023-10-07T07:03:02.000Z</time>
</trkpt>
<trkpt lat="45.9359280" lon="9.6037380">
	<ele>1405.60</ele>
	<time>2023-10-07T07:03:03.000Z</time>
</trkpt>
<trkpt lat="45.9359270" lon="9.6037380">
	<ele>1405.60</ele>
	<time>2023-10-07T07:03:04.000Z</time>
</trkpt>
<trkpt lat="45.9359270" lon="9.6037380">
	<ele>1405.60</ele>
	<time>2023-10-07T07:03:05.000Z</time>
</trkpt>
<trkpt lat="45.9359260" lon="9.6037380">
	<ele>1405.60</ele>
	<time>2023-10-07T07:03:06.000Z</time>
</trkpt>
<trkpt lat="45.9359260" lon="9.6037370">
	<ele>1405.60</ele>
	<time>2023-10-07T07:03:07.000Z</time>
</trkpt>
<trkpt lat="45.9359260" lon="9.6037370">
	<ele>1405.60</ele>
	<time>2023-10-07T07:03:08.000Z</time>
</trkpt>
<trkpt lat="45.9359250" lon="9.6037360">
	<ele>1405.60</ele>
	<time>2023-10-07T07:03:09.000Z</time>
</trkpt>
<trkpt lat="45.9359250" lon="9.6037360">
	<ele>1405.60</ele>
	<time>2023-10-07T07:03:10.000Z</time>
</trkpt>
<trkpt lat="45.9359250" lon="9.6037360">
	<ele>1405.60</ele>
	<time>2023-10-07T07:03:11.000Z</time>
</trkpt>
<trkpt lat="45.9359250" lon="9.6037340">
	<ele>1405.60</ele>
	<time>2023-10-07T07:03:12.000Z</time>
</trkpt>
<trkpt lat="45.9359240" lon="9.6037330">
	<ele>1405.60</ele>
	<time>2023-10-07T07:03:13.000Z</time>
</trkpt>
<trkpt lat="45.9359240" lon="9.6037320">
	<ele>1405.60</ele>
	<time>2023-10-07T07:03:14.000Z</time>
</trkpt>
<trkpt lat="45.9359240" lon="9.6037310">
	<ele>1405.60</ele>
	<time>2023-10-07T07:03:15.000Z</time>
</trkpt>
<trkpt lat="45.9359240" lon="9.6037300">
	<ele>1405.60</ele>
	<time>2023-10-07T07:03:16.000Z</time>
</trkpt>
<trkpt lat="45.9359240" lon="9.6037300">
	<ele>1405.60</ele>
	<time>2023-10-07T07:03:17.000Z</time>
</trkpt>
<trkpt lat="45.9359240" lon="9.6037300">
	<ele>1405.60</ele>
	<time>2023-10-07T07:03:18.000Z</time>
</trkpt>
<trkpt lat="45.9359240" lon="9.6037300">
	<ele>1405.60</ele>
	<time>2023-10-07T07:03:19.000Z</time>
</trkpt>
<trkpt lat="45.9359240" lon="9.6037290">
	<ele>1405.60</ele>
	<time>2023-10-07T07:03:20.000Z</time>
</trkpt>
<trkpt lat="45.9359240" lon="9.6037290">
	<ele>1405.60</ele>
	<time>2023-10-07T07:03:21.000Z</time>
</trkpt>
<trkpt lat="45.9359240" lon="9.6037290">
	<ele>1405.60</ele>
	<time>2023-10-07T07:03:22.000Z</time>
</trkpt>
<trkpt lat="45.9359240" lon="9.6037290">
	<ele>1405.60</ele>
	<time>2023-10-07T07:03:23.000Z</time>
</trkpt>
<trkpt lat="45.9359230" lon="9.6037280">
	<ele>1405.60</ele>
	<time>2023-10-07T07:03:24.000Z</time>
</trkpt>
<trkpt lat="45.9359230" lon="9.6037280">
	<ele>1405.60</ele>
	<time>2023-10-07T07:03:25.000Z</time>
</trkpt>
<trkpt lat="45.9359230" lon="9.6037280">
	<ele>1405.60</ele>
	<time>2023-10-07T07:03:26.000Z</time>
</trkpt>
<trkpt lat="45.9359230" lon="9.6037270">
	<ele>1405.60</ele>
	<time>2023-10-07T07:03:27.000Z</time>
</trkpt>
<trkpt lat="45.9359230" lon="9.6037270">
	<ele>1405.60</ele>
	<time>2023-10-07T07:03:28.000Z</time>
</trkpt>
<trkpt lat="45.9359230" lon="9.6037270">
	<ele>1405.60</ele>
	<time>2023-10-07T07:03:29.000Z</time>
</trkpt>
<trkpt lat="45.9359240" lon="9.6037270">
	<ele>1405.60</ele>
	<time>2023-10-07T07:03:30.000Z</time>
</trkpt>
<trkpt lat="45.9359240" lon="9.6037260">
	<ele>1405.60</ele>
	<time>2023-10-07T07:03:31.000Z</time>
</trkpt>
<trkpt lat="45.9359240" lon="9.6037260">
	<ele>1405.60</ele>
	<time>2023-10-07T07:03:32.000Z</time>
</trkpt>
<trkpt lat="45.9359240" lon="9.6037260">
	<ele>1405.60</ele>
	<time>2023-10-07T07:03:33.000Z</time>
</trkpt>
<trkpt lat="45.9359230" lon="9.6037260">
	<ele>1405.60</ele>
	<time>2023-10-07T07:03:34.000Z</time>
</trkpt>
<trkpt lat="45.9359230" lon="9.6037260">
	<ele>1405.60</ele>
	<time>2023-10-07T07:03:35.000Z</time>
</trkpt>
<trkpt lat="45.9359230" lon="9.6037260">
	<ele>1405.60</ele>
	<time>2023-10-07T07:03:36.000Z</time>
</trkpt>
<trkpt lat="45.9359230" lon="9.6037250">
	<ele>1405.60</ele>
	<time>2023-10-07T07:03:37.000Z</time>
</trkpt>
<trkpt lat="45.9359230" lon="9.6037250">
	<ele>1405.60</ele>
	<time>2023-10-07T07:03:38.000Z</time>
</trkpt>
<trkpt lat="45.9359230" lon="9.6037250">
	<ele>1405.60</ele>
	<time>2023-10-07T07:03:39.000Z</time>
</trkpt>
<trkpt lat="45.9359230" lon="9.6037250">
	<ele>1405.60</ele>
	<time>2023-10-07T07:03:40.000Z</time>
</trkpt>
<trkpt lat="45.9359230" lon="9.6037250">
	<ele>1405.60</ele>
	<time>2023-10-07T07:03:41.000Z</time>
</trkpt>
<trkpt lat="45.9359230" lon="9.6037250">
	<ele>1405.60</ele>
	<time>2023-10-07T07:03:42.000Z</time>
</trkpt>
<trkpt lat="45.9359230" lon="9.6037250">
	<ele>1405.60</ele>
	<time>2023-10-07T07:03:43.000Z</time>
</trkpt>
<trkpt lat="45.9359230" lon="9.6037250">
	<ele>1405.60</ele>
	<time>2023-10-07T07:03:44.000Z</time>
</trkpt>
<trkpt lat="45.9359230" lon="9.6037250">
	<ele>1405.60</ele>
	<time>2023-10-07T07:03:45.000Z</time>
</trkpt>
<trkpt lat="45.9359240" lon="9.6037250">
	<ele>1405.60</ele>
	<time>2023-10-07T07:03:46.000Z</time>
</trkpt>
<trkpt lat="45.9359240" lon="9.6037250">
	<ele>1405.60</ele>
	<time>2023-10-07T07:03:47.000Z</time>
</trkpt>
<trkpt lat="45.9359240" lon="9.6037250">
	<ele>1405.60</ele>
	<time>2023-10-07T07:03:48.000Z</time>
</trkpt>
<trkpt lat="45.9359240" lon="9.6037250">
	<ele>1405.60</ele>
	<time>2023-10-07T07:03:49.000Z</time>
</trkpt>
<trkpt lat="45.9359240" lon="9.6037250">
	<ele>1405.60</ele>
	<time>2023-10-07T07:03:50.000Z</time>
</trkpt>
<trkpt lat="45.9359240" lon="9.6037240">
	<ele>1405.60</ele>
	<time>2023-10-07T07:03:51.000Z</time>
</trkpt>
<trkpt lat="45.9359250" lon="9.6037240">
	<ele>1405.60</ele>
	<time>2023-10-07T07:03:52.000Z</time>
</trkpt>
<trkpt lat="45.9359250" lon="9.6037240">
	<ele>1405.60</ele>
	<time>2023-10-07T07:03:53.000Z</time>
</trkpt>
<trkpt lat="45.9359250" lon="9.6037240">
	<ele>1405.60</ele>
	<time>2023-10-07T07:03:54.000Z</time>
</trkpt>
<trkpt lat="45.9359250" lon="9.6037240">
	<ele>1405.60</ele>
	<time>2023-10-07T07:03:55.000Z</time>
</trkpt>
<trkpt lat="45.9359260" lon="9.6037240">
	<ele>1405.60</ele>
	<time>2023-10-07T07:03:56.000Z</time>
</trkpt>
<trkpt lat="45.9359260" lon="9.6037230">
	<ele>1405.60</ele>
	<time>2023-10-07T07:03:57.000Z</time>
</trkpt>
<trkpt lat="45.9359270" lon="9.6037230">
	<ele>1405.60</ele>
	<time>2023-10-07T07:03:58.000Z</time>
</trkpt>
<trkpt lat="45.9359270" lon="9.6037230">
	<ele>1405.60</ele>
	<time>2023-10-07T07:03:59.000Z</time>
</trkpt>
<trkpt lat="45.9359270" lon="9.6037230">
	<ele>1405.60</ele>
	<time>2023-10-07T07:04:00.000Z</time>
</trkpt>
<trkpt lat="45.9359280" lon="9.6037230">
	<ele>1405.60</ele>
	<time>2023-10-07T07:04:01.000Z</time>
</trkpt>
<trkpt lat="45.9359280" lon="9.6037220">
	<ele>1405.60</ele>
	<time>2023-10-07T07:04:02.000Z</time>
</trkpt>
<trkpt lat="45.9359290" lon="9.6037220">
	<ele>1405.60</ele>
	<time>2023-10-07T07:04:03.000Z</time>
</trkpt>
<trkpt lat="45.9359300" lon="9.6037220">
	<ele>1405.60</ele>
	<time>2023-10-07T07:04:04.000Z</time>
</trkpt>
<trkpt lat="45.9359320" lon="9.6037220">
	<ele>1405.60</ele>
	<time>2023-10-07T07:04:05.000Z</time>
</trkpt>
<trkpt lat="45.9359330" lon="9.6037220">
	<ele>1405.60</ele>
	<time>2023-10-07T07:04:06.000Z</time>
</trkpt>
<trkpt lat="45.9359340" lon="9.6037210">
	<ele>1405.60</ele>
	<time>2023-10-07T07:04:07.000Z</time>
</trkpt>
<trkpt lat="45.9359350" lon="9.6037200">
	<ele>1405.60</ele>
	<time>2023-10-07T07:04:08.000Z</time>
</trkpt>
<trkpt lat="45.9359360" lon="9.6037190">
	<ele>1405.60</ele>
	<time>2023-10-07T07:04:09.000Z</time>
</trkpt>
<trkpt lat="45.9359370" lon="9.6037180">
	<ele>1405.60</ele>
	<time>2023-10-07T07:04:10.000Z</time>
</trkpt>
<trkpt lat="45.9359380" lon="9.6037170">
	<ele>1405.60</ele>
	<time>2023-10-07T07:04:11.000Z</time>
</trkpt>
<trkpt lat="45.9359380" lon="9.6037170">
	<ele>1405.60</ele>
	<time>2023-10-07T07:04:12.000Z</time>
</trkpt>
<trkpt lat="45.9359390" lon="9.6037160">
	<ele>1405.60</ele>
	<time>2023-10-07T07:04:13.000Z</time>
</trkpt>
<trkpt lat="45.9359390" lon="9.6037150">
	<ele>1405.60</ele>
	<time>2023-10-07T07:04:14.000Z</time>
</trkpt>
<trkpt lat="45.9359400" lon="9.6037150">
	<ele>1405.60</ele>
	<time>2023-10-07T07:04:15.000Z</time>
</trkpt>
<trkpt lat="45.9359400" lon="9.6037140">
	<ele>1405.60</ele>
	<time>2023-10-07T07:04:16.000Z</time>
</trkpt>
<trkpt lat="45.9359400" lon="9.6037140">
	<ele>1405.60</ele>
	<time>2023-10-07T07:04:17.000Z</time>
</trkpt>
<trkpt lat="45.9359410" lon="9.6037140">
	<ele>1405.60</ele>
	<time>2023-10-07T07:04:18.000Z</time>
</trkpt>
<trkpt lat="45.9359410" lon="9.6037130">
	<ele>1405.60</ele>
	<time>2023-10-07T07:04:19.000Z</time>
</trkpt>
<trkpt lat="45.9359410" lon="9.6037130">
	<ele>1405.60</ele>
	<time>2023-10-07T07:04:20.000Z</time>
</trkpt>
<trkpt lat="45.9359410" lon="9.6037130">
	<ele>1405.60</ele>
	<time>2023-10-07T07:04:21.000Z</time>
</trkpt>
<trkpt lat="45.9359420" lon="9.6037130">
	<ele>1405.60</ele>
	<time>2023-10-07T07:04:22.000Z</time>
</trkpt>
<trkpt lat="45.9359420" lon="9.6037120">
	<ele>1405.60</ele>
	<time>2023-10-07T07:04:23.000Z</time>
</trkpt>
<trkpt lat="45.9359420" lon="9.6037120">
	<ele>1405.60</ele>
	<time>2023-10-07T07:04:24.000Z</time>
</trkpt>
<trkpt lat="45.9359420" lon="9.6037120">
	<ele>1405.60</ele>
	<time>2023-10-07T07:04:25.000Z</time>
</trkpt>
<trkpt lat="45.9359420" lon="9.6037120">
	<ele>1405.60</ele>
	<time>2023-10-07T07:04:26.000Z</time>
</trkpt>
<trkpt lat="45.9359420" lon="9.6037110">
	<ele>1405.60</ele>
	<time>2023-10-07T07:04:27.000Z</time>
</trkpt>
<trkpt lat="45.9359420" lon="9.6037110">
	<ele>1405.60</ele>
	<time>2023-10-07T07:04:28.000Z</time>
</trkpt>
<trkpt lat="45.9359420" lon="9.6037110">
	<ele>1405.60</ele>
	<time>2023-10-07T07:04:29.000Z</time>
</trkpt>
<trkpt lat="45.9359420" lon="9.6037110">
	<ele>1405.60</ele>
	<time>2023-10-07T07:04:30.000Z</time>
</trkpt>
<trkpt lat="45.9359420" lon="9.6037110">
	<ele>1405.60</ele>
	<time>2023-10-07T07:04:31.000Z</time>
</trkpt>
<trkpt lat="45.9359420" lon="9.6037110">
	<ele>1405.60</ele>
	<time>2023-10-07T07:04:32.000Z</time>
</trkpt>
<trkpt lat="45.9359430" lon="9.6037110">
	<ele>1405.60</ele>
	<time>2023-10-07T07:04:33.000Z</time>
</trkpt>
<trkpt lat="45.9359430" lon="9.6037110">
	<ele>1405.60</ele>
	<time>2023-10-07T07:04:34.000Z</time>
</trkpt>
<trkpt lat="45.9359430" lon="9.6037110">
	<ele>1405.60</ele>
	<time>2023-10-07T07:04:35.000Z</time>
</trkpt>
<trkpt lat="45.9359430" lon="9.6037110">
	<ele>1405.60</ele>
	<time>2023-10-07T07:04:36.000Z</time>
</trkpt>
<trkpt lat="45.9359430" lon="9.6037110">
	<ele>1405.60</ele>
	<time>2023-10-07T07:04:37.000Z</time>
</trkpt>
<trkpt lat="45.9359430" lon="9.6037110">
	<ele>1405.60</ele>
	<time>2023-10-07T07:04:38.000Z</time>
</trkpt>
<trkpt lat="45.9359430" lon="9.6037110">
	<ele>1405.60</ele>
	<time>2023-10-07T07:04:39.000Z</time>
</trkpt>
<trkpt lat="45.9359430" lon="9.6037110">
	<ele>1405.60</ele>
	<time>2023-10-07T07:04:40.000Z</time>
</trkpt>
<trkpt lat="45.9359430" lon="9.6037110">
	<ele>1405.60</ele>
	<time>2023-10-07T07:04:41.000Z</time>
</trkpt>
<trkpt lat="45.9359430" lon="9.6037110">
	<ele>1405.60</ele>
	<time>2023-10-07T07:04:42.000Z</time>
</trkpt>
<trkpt lat="45.9359420" lon="9.6037110">
	<ele>1405.60</ele>
	<time>2023-10-07T07:04:43.000Z</time>
</trkpt>
<trkpt lat="45.9359430" lon="9.6037110">
	<ele>1405.60</ele>
	<time>2023-10-07T07:04:44.000Z</time>
</trkpt>
<trkpt lat="45.9359430" lon="9.6037110">
	<ele>1405.60</ele>
	<time>2023-10-07T07:04:45.000Z</time>
</trkpt>
<trkpt lat="45.9359430" lon="9.6037110">
	<ele>1405.60</ele>
	<time>2023-10-07T07:04:46.000Z</time>
</trkpt>
<trkpt lat="45.9359430" lon="9.6037110">
	<ele>1405.60</ele>
	<time>2023-10-07T07:04:47.000Z</time>
</trkpt>
<trkpt lat="45.9359430" lon="9.6037120">
	<ele>1405.60</ele>
	<time>2023-10-07T07:04:48.000Z</time>
</trkpt>
<trkpt lat="45.9359430" lon="9.6037120">
	<ele>1405.60</ele>
	<time>2023-10-07T07:04:49.000Z</time>
</trkpt>
<trkpt lat="45.9359430" lon="9.6037120">
	<ele>1405.60</ele>
	<time>2023-10-07T07:04:50.000Z</time>
</trkpt>
<trkpt lat="45.9359430" lon="9.6037120">
	<ele>1405.60</ele>
	<time>2023-10-07T07:04:51.000Z</time>
</trkpt>
<trkpt lat="45.9359430" lon="9.6037120">
	<ele>1405.60</ele>
	<time>2023-10-07T07:04:52.000Z</time>
</trkpt>
<trkpt lat="45.9359430" lon="9.6037120">
	<ele>1405.60</ele>
	<time>2023-10-07T07:04:53.000Z</time>
</trkpt>
<trkpt lat="45.9359430" lon="9.6037120">
	<ele>1405.60</ele>
	<time>2023-10-07T07:04:54.000Z</time>
</trkpt>
<trkpt lat="45.9359430" lon="9.6037120">
	<ele>1405.60</ele>
	<time>2023-10-07T07:04:55.000Z</time>
</trkpt>
<trkpt lat="45.9359430" lon="9.6037120">
	<ele>1405.60</ele>
	<time>2023-10-07T07:04:56.000Z</time>
</trkpt>
<trkpt lat="45.9359430" lon="9.6037120">
	<ele>1405.60</ele>
	<time>2023-10-07T07:04:57.000Z</time>
</trkpt>
<trkpt lat="45.9359430" lon="9.6037120">
	<ele>1405.60</ele>
	<time>2023-10-07T07:04:58.000Z</time>
</trkpt>
<trkpt lat="45.9359430" lon="9.6037120">
	<ele>1405.60</ele>
	<time>2023-10-07T07:04:59.000Z</time>
</trkpt>
<trkpt lat="45.9359430" lon="9.6037120">
	<ele>1405.60</ele>
	<time>2023-10-07T07:05:00.000Z</time>
</trkpt>
<trkpt lat="45.9359430" lon="9.6037120">
	<ele>1405.60</ele>
	<time>2023-10-07T07:05:01.000Z</time>
</trkpt>
<trkpt lat="45.9359430" lon="9.6037120">
	<ele>1405.60</ele>
	<time>2023-10-07T07:05:02.000Z</time>
</trkpt>
<trkpt lat="45.9359430" lon="9.6037120">
	<ele>1405.60</ele>
	<time>2023-10-07T07:05:03.000Z</time>
</trkpt>
<trkpt lat="45.9359430" lon="9.6037120">
	<ele>1405.60</ele>
	<time>2023-10-07T07:05:04.000Z</time>
</trkpt>
<trkpt lat="45.9359430" lon="9.6037120">
	<ele>1405.60</ele>
	<time>2023-10-07T07:05:05.000Z</time>
</trkpt>
<trkpt lat="45.9359430" lon="9.6037120">
	<ele>1405.60</ele>
	<time>2023-10-07T07:05:06.000Z</time>
</trkpt>
<trkpt lat="45.9359430" lon="9.6037120">
	<ele>1405.60</ele>
	<time>2023-10-07T07:05:07.000Z</time>
</trkpt>
<trkpt lat="45.9359430" lon="9.6037120">
	<ele>1405.60</ele>
	<time>2023-10-07T07:05:08.000Z</time>
</trkpt>
<trkpt lat="45.9359430" lon="9.6037120">
	<ele>1405.60</ele>
	<time>2023-10-07T07:05:09.000Z</time>
</trkpt>
<trkpt lat="45.9359430" lon="9.6037120">
	<ele>1405.60</ele>
	<time>2023-10-07T07:05:10.000Z</time>
</trkpt>
<trkpt lat="45.9359430" lon="9.6037130">
	<ele>1405.60</ele>
	<time>2023-10-07T07:05:11.000Z</time>
</trkpt>
<trkpt lat="45.9359430" lon="9.6037130">
	<ele>1405.60</ele>
	<time>2023-10-07T07:05:12.000Z</time>
</trkpt>
<trkpt lat="45.9359430" lon="9.6037130">
	<ele>1405.60</ele>
	<time>2023-10-07T07:05:13.000Z</time>
</trkpt>
<trkpt lat="45.9359430" lon="9.6037130">
	<ele>1405.60</ele>
	<time>2023-10-07T07:05:14.000Z</time>
</trkpt>
<trkpt lat="45.9359430" lon="9.6037130">
	<ele>1405.60</ele>
	<time>2023-10-07T07:05:15.000Z</time>
</trkpt>
<trkpt lat="45.9359420" lon="9.6037120">
	<ele>1405.60</ele>
	<time>2023-10-07T07:05:16.000Z</time>
</trkpt>
<trkpt lat="45.9359420" lon="9.6037120">
	<ele>1405.60</ele>
	<time>2023-10-07T07:05:17.000Z</time>
</trkpt>
<trkpt lat="45.9359420" lon="9.6037120">
	<ele>1405.60</ele>
	<time>2023-10-07T07:05:18.000Z</time>
</trkpt>
<trkpt lat="45.9359420" lon="9.6037120">
	<ele>1405.60</ele>
	<time>2023-10-07T07:05:19.000Z</time>
</trkpt>
<trkpt lat="45.9359420" lon="9.6037120">
	<ele>1405.60</ele>
	<time>2023-10-07T07:05:20.000Z</time>
</trkpt>
<trkpt lat="45.9359420" lon="9.6037120">
	<ele>1405.60</ele>
	<time>2023-10-07T07:05:21.000Z</time>
</trkpt>
<trkpt lat="45.9359420" lon="9.6037020">
	<ele>1405.60</ele>
	<time>2023-10-07T07:05:22.000Z</time>
</trkpt>
<trkpt lat="45.9359470" lon="9.6036840">
	<ele>1405.60</ele>
	<time>2023-10-07T07:05:23.000Z</time>
</trkpt>
<trkpt lat="45.9359510" lon="9.6036620">
	<ele>1405.60</ele>
	<time>2023-10-07T07:05:24.000Z</time>
</trkpt>
<trkpt lat="45.9359550" lon="9.6036400">
	<ele>1405.60</ele>
	<time>2023-10-07T07:05:25.000Z</time>
</trkpt>
<trkpt lat="45.9359610" lon="9.6036210">
	<ele>1405.60</ele>
	<time>2023-10-07T07:05:26.000Z</time>
</trkpt>
<trkpt lat="45.9359700" lon="9.6036050">
	<ele>1405.60</ele>
	<time>2023-10-07T07:05:27.000Z</time>
</trkpt>
<trkpt lat="45.9359750" lon="9.6035860">
	<ele>1405.60</ele>
	<time>2023-10-07T07:05:28.000Z</time>
</trkpt>
<trkpt lat="45.9359800" lon="9.6035670">
	<ele>1405.60</ele>
	<time>2023-10-07T07:05:29.000Z</time>
</trkpt>
<trkpt lat="45.9359850" lon="9.6035500">
	<ele>1405.60</ele>
	<time>2023-10-07T07:05:30.000Z</time>
</trkpt>
<trkpt lat="45.9359910" lon="9.6035330">
	<ele>1405.60</ele>
	<time>2023-10-07T07:05:31.000Z</time>
</trkpt>
<trkpt lat="45.9359970" lon="9.6035200">
	<ele>1405.60</ele>
	<time>2023-10-07T07:05:32.000Z</time>
</trkpt>
<trkpt lat="45.9360000" lon="9.6035070">
	<ele>1405.60</ele>
	<time>2023-10-07T07:05:33.000Z</time>
</trkpt>
<trkpt lat="45.9360020" lon="9.6035000">
	<ele>1405.60</ele>
	<time>2023-10-07T07:05:34.000Z</time>
</trkpt>
<trkpt lat="45.9360070" lon="9.6034940">
	<ele>1405.60</ele>
	<time>2023-10-07T07:05:35.000Z</time>
</trkpt>
<trkpt lat="45.9360130" lon="9.6034830">
	<ele>1405.60</ele>
	<time>2023-10-07T07:05:36.000Z</time>
</trkpt>
<trkpt lat="45.9360180" lon="9.6034790">
	<ele>1405.60</ele>
	<time>2023-10-07T07:05:37.000Z</time>
</trkpt>
<trkpt lat="45.9360250" lon="9.6034730">
	<ele>1405.60</ele>
	<time>2023-10-07T07:05:38.000Z</time>
</trkpt>
<trkpt lat="45.9360290" lon="9.6034600">
	<ele>1405.60</ele>
	<time>2023-10-07T07:05:39.000Z</time>
</trkpt>
<trkpt lat="45.9360320" lon="9.6034520">
	<ele>1405.60</ele>
	<time>2023-10-07T07:05:40.000Z</time>
</trkpt>
<trkpt lat="45.9360370" lon="9.6034450">
	<ele>1405.60</ele>
	<time>2023-10-07T07:05:41.000Z</time>
</trkpt>
<trkpt lat="45.9360440" lon="9.6034400">
	<ele>1405.60</ele>
	<time>2023-10-07T07:05:42.000Z</time>
</trkpt>
<trkpt lat="45.9360480" lon="9.6034320">
	<ele>1405.60</ele>
	<time>2023-10-07T07:05:43.000Z</time>
</trkpt>
<trkpt lat="45.9360530" lon="9.6034240">
	<ele>1405.60</ele>
	<time>2023-10-07T07:05:44.000Z</time>
</trkpt>
<trkpt lat="45.9360570" lon="9.6034120">
	<ele>1405.60</ele>
	<time>2023-10-07T07:05:45.000Z</time>
</trkpt>
<trkpt lat="45.9360600" lon="9.6034040">
	<ele>1405.60</ele>
	<time>2023-10-07T07:05:46.000Z</time>
</trkpt>
<trkpt lat="45.9360700" lon="9.6034000">
	<ele>1405.60</ele>
	<time>2023-10-07T07:05:47.000Z</time>
</trkpt>
<trkpt lat="45.9360790" lon="9.6033920">
	<ele>1405.60</ele>
	<time>2023-10-07T07:05:48.000Z</time>
</trkpt>
<trkpt lat="45.9360850" lon="9.6033860">
	<ele>1405.60</ele>
	<time>2023-10-07T07:05:49.000Z</time>
</trkpt>
<trkpt lat="45.9360880" lon="9.6033830">
	<ele>1405.60</ele>
	<time>2023-10-07T07:05:50.000Z</time>
</trkpt>
<trkpt lat="45.9360890" lon="9.6033770">
	<ele>1405.60</ele>
	<time>2023-10-07T07:05:51.000Z</time>
</trkpt>
<trkpt lat="45.9360900" lon="9.6033750">
	<ele>1405.60</ele>
	<time>2023-10-07T07:05:52.000Z</time>
</trkpt>
<trkpt lat="45.9360970" lon="9.6033740">
	<ele>1405.60</ele>
	<time>2023-10-07T07:05:53.000Z</time>
</trkpt>
<trkpt lat="45.9360990" lon="9.6033710">
	<ele>1405.60</ele>
	<time>2023-10-07T07:05:54.000Z</time>
</trkpt>
<trkpt lat="45.9361010" lon="9.6033680">
	<ele>1405.60</ele>
	<time>2023-10-07T07:05:55.000Z</time>
</trkpt>
<trkpt lat="45.9361010" lon="9.6033670">
	<ele>1405.60</ele>
	<time>2023-10-07T07:05:56.000Z</time>
</trkpt>
<trkpt lat="45.9361020" lon="9.6033660">
	<ele>1405.60</ele>
	<time>2023-10-07T07:05:57.000Z</time>
</trkpt>
<trkpt lat="45.9361020" lon="9.6033670">
	<ele>1405.60</ele>
	<time>2023-10-07T07:05:58.000Z</time>
</trkpt>
<trkpt lat="45.9361020" lon="9.6033670">
	<ele>1405.60</ele>
	<time>2023-10-07T07:05:59.000Z</time>
</trkpt>
<trkpt lat="45.9361020" lon="9.6033650">
	<ele>1405.60</ele>
	<time>2023-10-07T07:06:00.000Z</time>
</trkpt>
<trkpt lat="45.9361020" lon="9.6033650">
	<ele>1405.60</ele>
	<time>2023-10-07T07:06:01.000Z</time>
</trkpt>
<trkpt lat="45.9361020" lon="9.6033660">
	<ele>1405.60</ele>
	<time>2023-10-07T07:06:02.000Z</time>
</trkpt>
<trkpt lat="45.9361020" lon="9.6033660">
	<ele>1405.60</ele>
	<time>2023-10-07T07:06:03.000Z</time>
</trkpt>
<trkpt lat="45.9361020" lon="9.6033670">
	<ele>1405.60</ele>
	<time>2023-10-07T07:06:04.000Z</time>
</trkpt>
<trkpt lat="45.9361030" lon="9.6033680">
	<ele>1405.60</ele>
	<time>2023-10-07T07:06:05.000Z</time>
</trkpt>
<trkpt lat="45.9361040" lon="9.6033660">
	<ele>1405.60</ele>
	<time>2023-10-07T07:06:06.000Z</time>
</trkpt>
<trkpt lat="45.9361040" lon="9.6033650">
	<ele>1405.60</ele>
	<time>2023-10-07T07:06:07.000Z</time>
</trkpt>
<trkpt lat="45.9361040" lon="9.6033650">
	<ele>1405.60</ele>
	<time>2023-10-07T07:06:08.000Z</time>
</trkpt>
<trkpt lat="45.9361040" lon="9.6033650">
	<ele>1405.60</ele>
	<time>2023-10-07T07:06:09.000Z</time>
</trkpt>
<trkpt lat="45.9361040" lon="9.6033650">
	<ele>1405.60</ele>
	<time>2023-10-07T07:06:10.000Z</time>
</trkpt>
<trkpt lat="45.9361040" lon="9.6033650">
	<ele>1405.60</ele>
	<time>2023-10-07T07:06:11.000Z</time>
</trkpt>
<trkpt lat="45.9361040" lon="9.6033650">
	<ele>1405.60</ele>
	<time>2023-10-07T07:06:12.000Z</time>
</trkpt>
<trkpt lat="45.9361040" lon="9.6033650">
	<ele>1405.60</ele>
	<time>2023-10-07T07:06:13.000Z</time>
</trkpt>
<trkpt lat="45.9361040" lon="9.6033650">
	<ele>1405.60</ele>
	<time>2023-10-07T07:06:14.000Z</time>
</trkpt>
<trkpt lat="45.9361040" lon="9.6033650">
	<ele>1405.60</ele>
	<time>2023-10-07T07:06:15.000Z</time>
</trkpt>
<trkpt lat="45.9361040" lon="9.6033650">
	<ele>1405.60</ele>
	<time>2023-10-07T07:06:16.000Z</time>
</trkpt>
<trkpt lat="45.9361040" lon="9.6033650">
	<ele>1405.60</ele>
	<time>2023-10-07T07:06:17.000Z</time>
</trkpt>
<trkpt lat="45.9361040" lon="9.6033650">
	<ele>1405.60</ele>
	<time>2023-10-07T07:06:18.000Z</time>
</trkpt>
<trkpt lat="45.9361040" lon="9.6033650">
	<ele>1405.60</ele>
	<time>2023-10-07T07:06:19.000Z</time>
</trkpt>
<trkpt lat="45.9361040" lon="9.6033650">
	<ele>1405.60</ele>
	<time>2023-10-07T07:06:20.000Z</time>
</trkpt>
<trkpt lat="45.9361040" lon="9.6033650">
	<ele>1405.60</ele>
	<time>2023-10-07T07:06:21.000Z</time>
</trkpt>
<trkpt lat="45.9361040" lon="9.6033650">
	<ele>1405.60</ele>
	<time>2023-10-07T07:06:22.000Z</time>
</trkpt>
<trkpt lat="45.9361040" lon="9.6033650">
	<ele>1405.60</ele>
	<time>2023-10-07T07:06:23.000Z</time>
</trkpt>
<trkpt lat="45.9361040" lon="9.6033650">
	<ele>1405.60</ele>
	<time>2023-10-07T07:06:24.000Z</time>
</trkpt>
<trkpt lat="45.9361040" lon="9.6033650">
	<ele>1405.60</ele>
	<time>2023-10-07T07:06:25.000Z</time>
</trkpt>
<trkpt lat="45.9361040" lon="9.6033650">
	<ele>1405.60</ele>
	<time>2023-10-07T07:06:26.000Z</time>
</trkpt>
<trkpt lat="45.9361040" lon="9.6033650">
	<ele>1405.60</ele>
	<time>2023-10-07T07:06:27.000Z</time>
</trkpt>
<trkpt lat="45.9361050" lon="9.6033650">
	<ele>1405.60</ele>
	<time>2023-10-07T07:06:28.000Z</time>
</trkpt>
<trkpt lat="45.9361070" lon="9.6033640">
	<ele>1413.80</ele>
	<time>2023-10-07T07:06:29.000Z</time>
</trkpt>
<trkpt lat="45.9361120" lon="9.6033580">
	<ele>1413.80</ele>
	<time>2023-10-07T07:06:30.000Z</time>
</trkpt>
<trkpt lat="45.9361170" lon="9.6033550">
	<ele>1413.80</ele>
	<time>2023-10-07T07:06:31.000Z</time>
</trkpt>
<trkpt lat="45.9361220" lon="9.6033540">
	<ele>1413.80</ele>
	<time>2023-10-07T07:06:32.000Z</time>
</trkpt>
<trkpt lat="45.9361260" lon="9.6033520">
	<ele>1413.80</ele>
	<time>2023-10-07T07:06:33.000Z</time>
</trkpt>
<trkpt lat="45.9361360" lon="9.6033450">
	<ele>1414.20</ele>
	<time>2023-10-07T07:06:34.000Z</time>
</trkpt>
<trkpt lat="45.9361540" lon="9.6033360">
	<ele>1414.20</ele>
	<time>2023-10-07T07:06:35.000Z</time>
</trkpt>
<trkpt lat="45.9361710" lon="9.6033230">
	<ele>1414.40</ele>
	<time>2023-10-07T07:06:36.000Z</time>
</trkpt>
<trkpt lat="45.9361880" lon="9.6033110">
	<ele>1414.60</ele>
	<time>2023-10-07T07:06:37.000Z</time>
</trkpt>
<trkpt lat="45.9362030" lon="9.6033040">
	<ele>1414.60</ele>
	<time>2023-10-07T07:06:38.000Z</time>
</trkpt>
<trkpt lat="45.9362170" lon="9.6032960">
	<ele>1414.80</ele>
	<time>2023-10-07T07:06:39.000Z</time>
</trkpt>
<trkpt lat="45.9362310" lon="9.6032860">
	<ele>1415.20</ele>
	<time>2023-10-07T07:06:40.000Z</time>
</trkpt>
<trkpt lat="45.9362450" lon="9.6032740">
	<ele>1415.40</ele>
	<time>2023-10-07T07:06:41.000Z</time>
</trkpt>
<trkpt lat="45.9362570" lon="9.6032600">
	<ele>1415.40</ele>
	<time>2023-10-07T07:06:42.000Z</time>
</trkpt>
<trkpt lat="45.9362680" lon="9.6032480">
	<ele>1415.60</ele>
	<time>2023-10-07T07:06:43.000Z</time>
</trkpt>
<trkpt lat="45.9362700" lon="9.6032420">
	<ele>1415.80</ele>
	<time>2023-10-07T07:06:44.000Z</time>
</trkpt>
<trkpt lat="45.9362710" lon="9.6032340">
	<ele>1416.00</ele>
	<time>2023-10-07T07:06:45.000Z</time>
</trkpt>
<trkpt lat="45.9362710" lon="9.6032280">
	<ele>1416.20</ele>
	<time>2023-10-07T07:06:46.000Z</time>
</trkpt>
<trkpt lat="45.9362710" lon="9.6032200">
	<ele>1416.40</ele>
	<time>2023-10-07T07:06:47.000Z</time>
</trkpt>
<trkpt lat="45.9362720" lon="9.6032130">
	<ele>1416.60</ele>
	<time>2023-10-07T07:06:48.000Z</time>
</trkpt>
<trkpt lat="45.9362730" lon="9.6032060">
	<ele>1416.60</ele>
	<time>2023-10-07T07:06:49.000Z</time>
</trkpt>
<trkpt lat="45.9362730" lon="9.6031970">
	<ele>1416.80</ele>
	<time>2023-10-07T07:06:50.000Z</time>
</trkpt>
<trkpt lat="45.9362790" lon="9.6031930">
	<ele>1417.00</ele>
	<time>2023-10-07T07:06:51.000Z</time>
</trkpt>
<trkpt lat="45.9362820" lon="9.6031900">
	<ele>1417.20</ele>
	<time>2023-10-07T07:06:52.000Z</time>
</trkpt>
<trkpt lat="45.9362840" lon="9.6031850">
	<ele>1417.40</ele>
	<time>2023-10-07T07:06:53.000Z</time>
</trkpt>
<trkpt lat="45.9362870" lon="9.6031800">
	<ele>1417.60</ele>
	<time>2023-10-07T07:06:54.000Z</time>
</trkpt>
<trkpt lat="45.9362890" lon="9.6031750">
	<ele>1417.80</ele>
	<time>2023-10-07T07:06:55.000Z</time>
</trkpt>
<trkpt lat="45.9362920" lon="9.6031730">
	<ele>1418.00</ele>
	<time>2023-10-07T07:06:56.000Z</time>
</trkpt>
<trkpt lat="45.9362930" lon="9.6031720">
	<ele>1418.20</ele>
	<time>2023-10-07T07:06:57.000Z</time>
</trkpt>
<trkpt lat="45.9362950" lon="9.6031700">
	<ele>1418.40</ele>
	<time>2023-10-07T07:06:58.000Z</time>
</trkpt>
<trkpt lat="45.9362960" lon="9.6031670">
	<ele>1418.40</ele>
	<time>2023-10-07T07:06:59.000Z</time>
</trkpt>
<trkpt lat="45.9362960" lon="9.6031650">
	<ele>1418.60</ele>
	<time>2023-10-07T07:07:00.000Z</time>
</trkpt>
<trkpt lat="45.9363000" lon="9.6031670">
	<ele>1418.80</ele>
	<time>2023-10-07T07:07:01.000Z</time>
</trkpt>
<trkpt lat="45.9363070" lon="9.6031690">
	<ele>1419.00</ele>
	<time>2023-10-07T07:07:02.000Z</time>
</trkpt>
<trkpt lat="45.9363110" lon="9.6031690">
	<ele>1419.20</ele>
	<time>2023-10-07T07:07:03.000Z</time>
</trkpt>
<trkpt lat="45.9363140" lon="9.6031680">
	<ele>1419.40</ele>
	<time>2023-10-07T07:07:04.000Z</time>
</trkpt>
<trkpt lat="45.9363180" lon="9.6031630">
	<ele>1419.60</ele>
	<time>2023-10-07T07:07:05.000Z</time>
</trkpt>
<trkpt lat="45.9363220" lon="9.6031560">
	<ele>1419.80</ele>
	<time>2023-10-07T07:07:06.000Z</time>
</trkpt>
<trkpt lat="45.9363240" lon="9.6031530">
	<ele>1420.00</ele>
	<time>2023-10-07T07:07:07.000Z</time>
</trkpt>
<trkpt lat="45.9363190" lon="9.6031450">
	<ele>1420.20</ele>
	<time>2023-10-07T07:07:08.000Z</time>
</trkpt>
<trkpt lat="45.9363180" lon="9.6031420">
	<ele>1420.20</ele>
	<time>2023-10-07T07:07:09.000Z</time>
</trkpt>
<trkpt lat="45.9363210" lon="9.6031400">
	<ele>1420.40</ele>
	<time>2023-10-07T07:07:10.000Z</time>
</trkpt>
<trkpt lat="45.9363240" lon="9.6031390">
	<ele>1420.60</ele>
	<time>2023-10-07T07:07:11.000Z</time>
</trkpt>
<trkpt lat="45.9363270" lon="9.6031350">
	<ele>1420.80</ele>
	<time>2023-10-07T07:07:12.000Z</time>
</trkpt>
<trkpt lat="45.9363320" lon="9.6031320">
	<ele>1421.00</ele>
	<time>2023-10-07T07:07:13.000Z</time>
</trkpt>
<trkpt lat="45.9363350" lon="9.6031280">
	<ele>1421.20</ele>
	<time>2023-10-07T07:07:14.000Z</time>
</trkpt>
<trkpt lat="45.9363400" lon="9.6031230">
	<ele>1421.20</ele>
	<time>2023-10-07T07:07:15.000Z</time>
</trkpt>
<trkpt lat="45.9363450" lon="9.6031210">
	<ele>1421.40</ele>
	<time>2023-10-07T07:07:16.000Z</time>
</trkpt>
<trkpt lat="45.9363490" lon="9.6031170">
	<ele>1421.60</ele>
	<time>2023-10-07T07:07:17.000Z</time>
</trkpt>
<trkpt lat="45.9363550" lon="9.6031180">
	<ele>1421.80</ele>
	<time>2023-10-07T07:07:18.000Z</time>
</trkpt>
<trkpt lat="45.9363600" lon="9.6031110">
	<ele>1422.00</ele>
	<time>2023-10-07T07:07:19.000Z</time>
</trkpt>
<trkpt lat="45.9363660" lon="9.6031050">
	<ele>1422.20</ele>
	<time>2023-10-07T07:07:20.000Z</time>
</trkpt>
<trkpt lat="45.9363720" lon="9.6031000">
	<ele>1422.40</ele>
	<time>2023-10-07T07:07:21.000Z</time>
</trkpt>
<trkpt lat="45.9363730" lon="9.6030920">
	<ele>1422.60</ele>
	<time>2023-10-07T07:07:22.000Z</time>
</trkpt>
<trkpt lat="45.9363720" lon="9.6030820">
	<ele>1422.80</ele>
	<time>2023-10-07T07:07:23.000Z</time>
</trkpt>
<trkpt lat="45.9363740" lon="9.6030750">
	<ele>1422.80</ele>
	<time>2023-10-07T07:07:24.000Z</time>
</trkpt>
<trkpt lat="45.9363780" lon="9.6030700">
	<ele>1423.20</ele>
	<time>2023-10-07T07:07:25.000Z</time>
</trkpt>
<trkpt lat="45.9363800" lon="9.6030660">
	<ele>1423.40</ele>
	<time>2023-10-07T07:07:26.000Z</time>
</trkpt>
<trkpt lat="45.9363830" lon="9.6030610">
	<ele>1423.40</ele>
	<time>2023-10-07T07:07:27.000Z</time>
</trkpt>
<trkpt lat="45.9363840" lon="9.6030530">
	<ele>1423.60</ele>
	<time>2023-10-07T07:07:28.000Z</time>
</trkpt>
<trkpt lat="45.9363860" lon="9.6030490">
	<ele>1423.80</ele>
	<time>2023-10-07T07:07:29.000Z</time>
</trkpt>
<trkpt lat="45.9363890" lon="9.6030470">
	<ele>1424.00</ele>
	<time>2023-10-07T07:07:30.000Z</time>
</trkpt>
<trkpt lat="45.9363930" lon="9.6030430">
	<ele>1424.20</ele>
	<time>2023-10-07T07:07:31.000Z</time>
</trkpt>
<trkpt lat="45.9363970" lon="9.6030380">
	<ele>1424.20</ele>
	<time>2023-10-07T07:07:32.000Z</time>
</trkpt>
<trkpt lat="45.9363980" lon="9.6030350">
	<ele>1424.60</ele>
	<time>2023-10-07T07:07:33.000Z</time>
</trkpt>
<trkpt lat="45.9364010" lon="9.6030340">
	<ele>1424.80</ele>
	<time>2023-10-07T07:07:34.000Z</time>
</trkpt>
<trkpt lat="45.9364040" lon="9.6030310">
	<ele>1425.00</ele>
	<time>2023-10-07T07:07:35.000Z</time>
</trkpt>
<trkpt lat="45.9364060" lon="9.6030260">
	<ele>1425.20</ele>
	<time>2023-10-07T07:07:36.000Z</time>
</trkpt>
<trkpt lat="45.9364060" lon="9.6030220">
	<ele>1425.40</ele>
	<time>2023-10-07T07:07:37.000Z</time>
</trkpt>
<trkpt lat="45.9364080" lon="9.6030180">
	<ele>1425.60</ele>
	<time>2023-10-07T07:07:38.000Z</time>
</trkpt>
<trkpt lat="45.9364110" lon="9.6030110">
	<ele>1425.60</ele>
	<time>2023-10-07T07:07:39.000Z</time>
</trkpt>
<trkpt lat="45.9364120" lon="9.6030070">
	<ele>1425.80</ele>
	<time>2023-10-07T07:07:40.000Z</time>
</trkpt>
<trkpt lat="45.9364140" lon="9.6030050">
	<ele>1426.00</ele>
	<time>2023-10-07T07:07:41.000Z</time>
</trkpt>
<trkpt lat="45.9364160" lon="9.6029970">
	<ele>1426.00</ele>
	<time>2023-10-07T07:07:42.000Z</time>
</trkpt>
<trkpt lat="45.9364190" lon="9.6029910">
	<ele>1426.20</ele>
	<time>2023-10-07T07:07:43.000Z</time>
</trkpt>
<trkpt lat="45.9364220" lon="9.6029840">
	<ele>1426.40</ele>
	<time>2023-10-07T07:07:44.000Z</time>
</trkpt>
<trkpt lat="45.9364250" lon="9.6029800">
	<ele>1426.60</ele>
	<time>2023-10-07T07:07:45.000Z</time>
</trkpt>
<trkpt lat="45.9364270" lon="9.6029770">
	<ele>1426.80</ele>
	<time>2023-10-07T07:07:46.000Z</time>
</trkpt>
<trkpt lat="45.9364290" lon="9.6029720">
	<ele>1426.80</ele>
	<time>2023-10-07T07:07:47.000Z</time>
</trkpt>
<trkpt lat="45.9364310" lon="9.6029710">
	<ele>1427.00</ele>
	<time>2023-10-07T07:07:48.000Z</time>
</trkpt>
<trkpt lat="45.9364350" lon="9.6029690">
	<ele>1427.20</ele>
	<time>2023-10-07T07:07:49.000Z</time>
</trkpt>
<trkpt lat="45.9364380" lon="9.6029690">
	<ele>1427.60</ele>
	<time>2023-10-07T07:07:50.000Z</time>
</trkpt>
<trkpt lat="45.9364400" lon="9.6029650">
	<ele>1427.60</ele>
	<time>2023-10-07T07:07:51.000Z</time>
</trkpt>
<trkpt lat="45.9364430" lon="9.6029630">
	<ele>1427.80</ele>
	<time>2023-10-07T07:07:52.000Z</time>
</trkpt>
<trkpt lat="45.9364460" lon="9.6029580">
	<ele>1427.80</ele>
	<time>2023-10-07T07:07:53.000Z</time>
</trkpt>
<trkpt lat="45.9364490" lon="9.6029530">
	<ele>1428.00</ele>
	<time>2023-10-07T07:07:54.000Z</time>
</trkpt>
<trkpt lat="45.9364520" lon="9.6029500">
	<ele>1428.00</ele>
	<time>2023-10-07T07:07:55.000Z</time>
</trkpt>
<trkpt lat="45.9364550" lon="9.6029450">
	<ele>1428.20</ele>
	<time>2023-10-07T07:07:56.000Z</time>
</trkpt>
<trkpt lat="45.9364570" lon="9.6029370">
	<ele>1428.40</ele>
	<time>2023-10-07T07:07:57.000Z</time>
</trkpt>
<trkpt lat="45.9364580" lon="9.6029350">
	<ele>1428.60</ele>
	<time>2023-10-07T07:07:58.000Z</time>
</trkpt>
<trkpt lat="45.9364600" lon="9.6029320">
	<ele>1428.80</ele>
	<time>2023-10-07T07:07:59.000Z</time>
</trkpt>
<trkpt lat="45.9364630" lon="9.6029270">
	<ele>1429.00</ele>
	<time>2023-10-07T07:08:00.000Z</time>
</trkpt>
<trkpt lat="45.9364620" lon="9.6029140">
	<ele>1429.20</ele>
	<time>2023-10-07T07:08:01.000Z</time>
</trkpt>
<trkpt lat="45.9364640" lon="9.6029070">
	<ele>1429.20</ele>
	<time>2023-10-07T07:08:02.000Z</time>
</trkpt>
<trkpt lat="45.9364660" lon="9.6028980">
	<ele>1429.40</ele>
	<time>2023-10-07T07:08:03.000Z</time>
</trkpt>
<trkpt lat="45.9364660" lon="9.6028900">
	<ele>1429.60</ele>
	<time>2023-10-07T07:08:04.000Z</time>
</trkpt>
<trkpt lat="45.9364690" lon="9.6028860">
	<ele>1429.80</ele>
	<time>2023-10-07T07:08:05.000Z</time>
</trkpt>
<trkpt lat="45.9364710" lon="9.6028810">
	<ele>1429.80</ele>
	<time>2023-10-07T07:08:06.000Z</time>
</trkpt>
<trkpt lat="45.9364750" lon="9.6028780">
	<ele>1430.00</ele>
	<time>2023-10-07T07:08:07.000Z</time>
</trkpt>
<trkpt lat="45.9364780" lon="9.6028740">
	<ele>1430.20</ele>
	<time>2023-10-07T07:08:08.000Z</time>
</trkpt>
<trkpt lat="45.9364800" lon="9.6028720">
	<ele>1430.40</ele>
	<time>2023-10-07T07:08:09.000Z</time>
</trkpt>
<trkpt lat="45.9364800" lon="9.6028710">
	<ele>1430.60</ele>
	<time>2023-10-07T07:08:10.000Z</time>
</trkpt>
<trkpt lat="45.9364850" lon="9.6028720">
	<ele>1430.60</ele>
	<time>2023-10-07T07:08:11.000Z</time>
</trkpt>
<trkpt lat="45.9364900" lon="9.6028680">
	<ele>1430.80</ele>
	<time>2023-10-07T07:08:12.000Z</time>
</trkpt>
<trkpt lat="45.9364920" lon="9.6028660">
	<ele>1430.80</ele>
	<time>2023-10-07T07:08:13.000Z</time>
</trkpt>
<trkpt lat="45.9364930" lon="9.6028650">
	<ele>1431.00</ele>
	<time>2023-10-07T07:08:14.000Z</time>
</trkpt>
<trkpt lat="45.9364940" lon="9.6028660">
	<ele>1431.00</ele>
	<time>2023-10-07T07:08:15.000Z</time>
</trkpt>
<trkpt lat="45.9364950" lon="9.6028650">
	<ele>1431.20</ele>
	<time>2023-10-07T07:08:16.000Z</time>
</trkpt>
<trkpt lat="45.9364990" lon="9.6028640">
	<ele>1431.20</ele>
	<time>2023-10-07T07:08:17.000Z</time>
</trkpt>
<trkpt lat="45.9365020" lon="9.6028630">
	<ele>1431.40</ele>
	<time>2023-10-07T07:08:18.000Z</time>
</trkpt>
<trkpt lat="45.9365020" lon="9.6028600">
	<ele>1431.40</ele>
	<time>2023-10-07T07:08:19.000Z</time>
</trkpt>
<trkpt lat="45.9365080" lon="9.6028600">
	<ele>1431.60</ele>
	<time>2023-10-07T07:08:20.000Z</time>
</trkpt>
<trkpt lat="45.9365150" lon="9.6028570">
	<ele>1431.80</ele>
	<time>2023-10-07T07:08:21.000Z</time>
</trkpt>
<trkpt lat="45.9365170" lon="9.6028540">
	<ele>1432.00</ele>
	<time>2023-10-07T07:08:22.000Z</time>
</trkpt>
<trkpt lat="45.9365210" lon="9.6028510">
	<ele>1432.20</ele>
	<time>2023-10-07T07:08:23.000Z</time>
</trkpt>
<trkpt lat="45.9365280" lon="9.6028440">
	<ele>1432.40</ele>
	<time>2023-10-07T07:08:24.000Z</time>
</trkpt>
<trkpt lat="45.9365330" lon="9.6028420">
	<ele>1432.60</ele>
	<time>2023-10-07T07:08:25.000Z</time>
</trkpt>
<trkpt lat="45.9365420" lon="9.6028400">
	<ele>1432.60</ele>
	<time>2023-10-07T07:08:26.000Z</time>
</trkpt>
<trkpt lat="45.9365500" lon="9.6028410">
	<ele>1432.60</ele>
	<time>2023-10-07T07:08:27.000Z</time>
</trkpt>
<trkpt lat="45.9365560" lon="9.6028400">
	<ele>1432.80</ele>
	<time>2023-10-07T07:08:28.000Z</time>
</trkpt>
<trkpt lat="45.9365610" lon="9.6028390">
	<ele>1433.20</ele>
	<time>2023-10-07T07:08:29.000Z</time>
</trkpt>
<trkpt lat="45.9365670" lon="9.6028390">
	<ele>1433.40</ele>
	<time>2023-10-07T07:08:30.000Z</time>
</trkpt>
<trkpt lat="45.9365700" lon="9.6028390">
	<ele>1433.60</ele>
	<time>2023-10-07T07:08:31.000Z</time>
</trkpt>
<trkpt lat="45.9365730" lon="9.6028300">
	<ele>1433.80</ele>
	<time>2023-10-07T07:08:32.000Z</time>
</trkpt>
<trkpt lat="45.9365760" lon="9.6028260">
	<ele>1434.00</ele>
	<time>2023-10-07T07:08:33.000Z</time>
</trkpt>
<trkpt lat="45.9365790" lon="9.6028180">
	<ele>1434.00</ele>
	<time>2023-10-07T07:08:34.000Z</time>
</trkpt>
<trkpt lat="45.9365800" lon="9.6028110">
	<ele>1434.20</ele>
	<time>2023-10-07T07:08:35.000Z</time>
</trkpt>
<trkpt lat="45.9365830" lon="9.6028080">
	<ele>1434.40</ele>
	<time>2023-10-07T07:08:36.000Z</time>
</trkpt>
<trkpt lat="45.9365860" lon="9.6028010">
	<ele>1434.60</ele>
	<time>2023-10-07T07:08:37.000Z</time>
</trkpt>
<trkpt lat="45.9365880" lon="9.6027950">
	<ele>1434.80</ele>
	<time>2023-10-07T07:08:38.000Z</time>
</trkpt>
<trkpt lat="45.9365890" lon="9.6027890">
	<ele>1435.00</ele>
	<time>2023-10-07T07:08:39.000Z</time>
</trkpt>
<trkpt lat="45.9365920" lon="9.6027810">
	<ele>1435.00</ele>
	<time>2023-10-07T07:08:40.000Z</time>
</trkpt>
<trkpt lat="45.9365940" lon="9.6027700">
	<ele>1435.20</ele>
	<time>2023-10-07T07:08:41.000Z</time>
</trkpt>
<trkpt lat="45.9365950" lon="9.6027630">
	<ele>1435.40</ele>
	<time>2023-10-07T07:08:42.000Z</time>
</trkpt>
<trkpt lat="45.9365980" lon="9.6027570">
	<ele>1435.80</ele>
	<time>2023-10-07T07:08:43.000Z</time>
</trkpt>
<trkpt lat="45.9366020" lon="9.6027490">
	<ele>1435.80</ele>
	<time>2023-10-07T07:08:44.000Z</time>
</trkpt>
<trkpt lat="45.9366040" lon="9.6027420">
	<ele>1436.00</ele>
	<time>2023-10-07T07:08:45.000Z</time>
</trkpt>
<trkpt lat="45.9366050" lon="9.6027380">
	<ele>1436.20</ele>
	<time>2023-10-07T07:08:46.000Z</time>
</trkpt>
<trkpt lat="45.9366070" lon="9.6027280">
	<ele>1436.40</ele>
	<time>2023-10-07T07:08:47.000Z</time>
</trkpt>
<trkpt lat="45.9366120" lon="9.6027210">
	<ele>1436.40</ele>
	<time>2023-10-07T07:08:48.000Z</time>
</trkpt>
<trkpt lat="45.9366160" lon="9.6027130">
	<ele>1436.40</ele>
	<time>2023-10-07T07:08:49.000Z</time>
</trkpt>
<trkpt lat="45.9366170" lon="9.6027080">
	<ele>1436.80</ele>
	<time>2023-10-07T07:08:50.000Z</time>
</trkpt>
<trkpt lat="45.9366200" lon="9.6027000">
	<ele>1437.00</ele>
	<time>2023-10-07T07:08:51.000Z</time>
</trkpt>
<trkpt lat="45.9366240" lon="9.6026920">
	<ele>1437.20</ele>
	<time>2023-10-07T07:08:52.000Z</time>
</trkpt>
<trkpt lat="45.9366270" lon="9.6026850">
	<ele>1437.40</ele>
	<time>2023-10-07T07:08:53.000Z</time>
</trkpt>
<trkpt lat="45.9366290" lon="9.6026740">
	<ele>1437.40</ele>
	<time>2023-10-07T07:08:54.000Z</time>
</trkpt>
<trkpt lat="45.9366330" lon="9.6026660">
	<ele>1437.60</ele>
	<time>2023-10-07T07:08:55.000Z</time>
</trkpt>
<trkpt lat="45.9366380" lon="9.6026550">
	<ele>1437.80</ele>
	<time>2023-10-07T07:08:56.000Z</time>
</trkpt>
<trkpt lat="45.9366400" lon="9.6026540">
	<ele>1438.00</ele>
	<time>2023-10-07T07:08:57.000Z</time>
</trkpt>
<trkpt lat="45.9366390" lon="9.6026520">
	<ele>1438.00</ele>
	<time>2023-10-07T07:08:58.000Z</time>
</trkpt>
<trkpt lat="45.9366410" lon="9.6026490">
	<ele>1438.00</ele>
	<time>2023-10-07T07:08:59.000Z</time>
</trkpt>
<trkpt lat="45.9366450" lon="9.6026490">
	<ele>1438.00</ele>
	<time>2023-10-07T07:09:00.000Z</time>
</trkpt>
<trkpt lat="45.9366470" lon="9.6026480">
	<ele>1438.00</ele>
	<time>2023-10-07T07:09:01.000Z</time>
</trkpt>
<trkpt lat="45.9366470" lon="9.6026480">
	<ele>1438.40</ele>
	<time>2023-10-07T07:09:02.000Z</time>
</trkpt>
<trkpt lat="45.9366470" lon="9.6026470">
	<ele>1438.60</ele>
	<time>2023-10-07T07:09:03.000Z</time>
</trkpt>
<trkpt lat="45.9366470" lon="9.6026470">
	<ele>1438.80</ele>
	<time>2023-10-07T07:09:04.000Z</time>
</trkpt>
<trkpt lat="45.9366470" lon="9.6026470">
	<ele>1438.80</ele>
	<time>2023-10-07T07:09:05.000Z</time>
</trkpt>
<trkpt lat="45.9366460" lon="9.6026460">
	<ele>1438.80</ele>
	<time>2023-10-07T07:09:06.000Z</time>
</trkpt>
<trkpt lat="45.9366470" lon="9.6026500">
	<ele>1439.00</ele>
	<time>2023-10-07T07:09:07.000Z</time>
</trkpt>
<trkpt lat="45.9366470" lon="9.6026540">
	<ele>1439.00</ele>
	<time>2023-10-07T07:09:08.000Z</time>
</trkpt>
<trkpt lat="45.9366460" lon="9.6026560">
	<ele>1439.00</ele>
	<time>2023-10-07T07:09:09.000Z</time>
</trkpt>
<trkpt lat="45.9366460" lon="9.6026550">
	<ele>1439.00</ele>
	<time>2023-10-07T07:09:10.000Z</time>
</trkpt>
<trkpt lat="45.9366460" lon="9.6026550">
	<ele>1439.00</ele>
	<time>2023-10-07T07:09:11.000Z</time>
</trkpt>
<trkpt lat="45.9366460" lon="9.6026550">
	<ele>1439.00</ele>
	<time>2023-10-07T07:09:12.000Z</time>
</trkpt>
<trkpt lat="45.9366460" lon="9.6026550">
	<ele>1439.00</ele>
	<time>2023-10-07T07:09:13.000Z</time>
</trkpt>
<trkpt lat="45.9366460" lon="9.6026550">
	<ele>1438.80</ele>
	<time>2023-10-07T07:09:14.000Z</time>
</trkpt>
<trkpt lat="45.9366460" lon="9.6026550">
	<ele>1438.60</ele>
	<time>2023-10-07T07:09:15.000Z</time>
</trkpt>
<trkpt lat="45.9366460" lon="9.6026550">
	<ele>1438.40</ele>
	<time>2023-10-07T07:09:16.000Z</time>
</trkpt>
<trkpt lat="45.9366460" lon="9.6026550">
	<ele>1438.20</ele>
	<time>2023-10-07T07:09:17.000Z</time>
</trkpt>
<trkpt lat="45.9366460" lon="9.6026550">
	<ele>1438.20</ele>
	<time>2023-10-07T07:09:18.000Z</time>
</trkpt>
<trkpt lat="45.9366460" lon="9.6026550">
	<ele>1438.20</ele>
	<time>2023-10-07T07:09:19.000Z</time>
</trkpt>
<trkpt lat="45.9366460" lon="9.6026550">
	<ele>1438.20</ele>
	<time>2023-10-07T07:09:20.000Z</time>
</trkpt>
<trkpt lat="45.9366460" lon="9.6026550">
	<ele>1438.20</ele>
	<time>2023-10-07T07:09:21.000Z</time>
</trkpt>
<trkpt lat="45.9366460" lon="9.6026550">
	<ele>1438.40</ele>
	<time>2023-10-07T07:09:22.000Z</time>
</trkpt>
<trkpt lat="45.9366460" lon="9.6026550">
	<ele>1438.60</ele>
	<time>2023-10-07T07:09:23.000Z</time>
</trkpt>
<trkpt lat="45.9366460" lon="9.6026550">
	<ele>1438.60</ele>
	<time>2023-10-07T07:09:24.000Z</time>
</trkpt>
<trkpt lat="45.9366460" lon="9.6026540">
	<ele>1438.80</ele>
	<time>2023-10-07T07:09:25.000Z</time>
</trkpt>
<trkpt lat="45.9366480" lon="9.6026460">
	<ele>1438.80</ele>
	<time>2023-10-07T07:09:26.000Z</time>
</trkpt>
<trkpt lat="45.9366560" lon="9.6026250">
	<ele>1439.00</ele>
	<time>2023-10-07T07:09:27.000Z</time>
</trkpt>
<trkpt lat="45.9366630" lon="9.6026110">
	<ele>1439.00</ele>
	<time>2023-10-07T07:09:28.000Z</time>
</trkpt>
<trkpt lat="45.9366720" lon="9.6025930">
	<ele>1439.00</ele>
	<time>2023-10-07T07:09:29.000Z</time>
</trkpt>
<trkpt lat="45.9366780" lon="9.6025730">
	<ele>1439.20</ele>
	<time>2023-10-07T07:09:30.000Z</time>
</trkpt>
<trkpt lat="45.9366830" lon="9.6025550">
	<ele>1439.20</ele>
	<time>2023-10-07T07:09:31.000Z</time>
</trkpt>
<trkpt lat="45.9366910" lon="9.6025420">
	<ele>1439.20</ele>
	<time>2023-10-07T07:09:32.000Z</time>
</trkpt>
<trkpt lat="45.9366960" lon="9.6025310">
	<ele>1439.20</ele>
	<time>2023-10-07T07:09:33.000Z</time>
</trkpt>
<trkpt lat="45.9367060" lon="9.6025160">
	<ele>1439.20</ele>
	<time>2023-10-07T07:09:34.000Z</time>
</trkpt>
<trkpt lat="45.9367130" lon="9.6024980">
	<ele>1439.00</ele>
	<time>2023-10-07T07:09:35.000Z</time>
</trkpt>
<trkpt lat="45.9367160" lon="9.6024840">
	<ele>1439.00</ele>
	<time>2023-10-07T07:09:36.000Z</time>
</trkpt>
<trkpt lat="45.9367200" lon="9.6024640">
	<ele>1439.00</ele>
	<time>2023-10-07T07:09:37.000Z</time>
</trkpt>
<trkpt lat="45.9367220" lon="9.6024430">
	<ele>1438.80</ele>
	<time>2023-10-07T07:09:38.000Z</time>
</trkpt>
<trkpt lat="45.9367250" lon="9.6024290">
	<ele>1438.80</ele>
	<time>2023-10-07T07:09:39.000Z</time>
</trkpt>
<trkpt lat="45.9367280" lon="9.6024110">
	<ele>1438.80</ele>
	<time>2023-10-07T07:09:40.000Z</time>
</trkpt>
<trkpt lat="45.9367330" lon="9.6023980">
	<ele>1438.80</ele>
	<time>2023-10-07T07:09:41.000Z</time>
</trkpt>
<trkpt lat="45.9367340" lon="9.6023830">
	<ele>1439.00</ele>
	<time>2023-10-07T07:09:42.000Z</time>
</trkpt>
<trkpt lat="45.9367350" lon="9.6023670">
	<ele>1439.00</ele>
	<time>2023-10-07T07:09:43.000Z</time>
</trkpt>
<trkpt lat="45.9367370" lon="9.6023600">
	<ele>1439.20</ele>
	<time>2023-10-07T07:09:44.000Z</time>
</trkpt>
<trkpt lat="45.9367420" lon="9.6023500">
	<ele>1439.20</ele>
	<time>2023-10-07T07:09:45.000Z</time>
</trkpt>
<trkpt lat="45.9367480" lon="9.6023450">
	<ele>1439.40</ele>
	<time>2023-10-07T07:09:46.000Z</time>
</trkpt>
<trkpt lat="45.9367510" lon="9.6023410">
	<ele>1439.80</ele>
	<time>2023-10-07T07:09:47.000Z</time>
</trkpt>
<trkpt lat="45.9367580" lon="9.6023420">
	<ele>1440.00</ele>
	<time>2023-10-07T07:09:48.000Z</time>
</trkpt>
<trkpt lat="45.9367600" lon="9.6023400">
	<ele>1440.20</ele>
	<time>2023-10-07T07:09:49.000Z</time>
</trkpt>
<trkpt lat="45.9367630" lon="9.6023380">
	<ele>1440.20</ele>
	<time>2023-10-07T07:09:50.000Z</time>
</trkpt>
<trkpt lat="45.9367680" lon="9.6023340">
	<ele>1440.20</ele>
	<time>2023-10-07T07:09:51.000Z</time>
</trkpt>
<trkpt lat="45.9367710" lon="9.6023290">
	<ele>1440.60</ele>
	<time>2023-10-07T07:09:52.000Z</time>
</trkpt>
<trkpt lat="45.9367760" lon="9.6023220">
	<ele>1440.80</ele>
	<time>2023-10-07T07:09:53.000Z</time>
</trkpt>
<trkpt lat="45.9367780" lon="9.6023130">
	<ele>1441.00</ele>
	<time>2023-10-07T07:09:54.000Z</time>
</trkpt>
<trkpt lat="45.9367800" lon="9.6023030">
	<ele>1441.00</ele>
	<time>2023-10-07T07:09:55.000Z</time>
</trkpt>
<trkpt lat="45.9367810" lon="9.6022890">
	<ele>1441.20</ele>
	<time>2023-10-07T07:09:56.000Z</time>
</trkpt>
<trkpt lat="45.9367830" lon="9.6022770">
	<ele>1441.40</ele>
	<time>2023-10-07T07:09:57.000Z</time>
</trkpt>
<trkpt lat="45.9367870" lon="9.6022690">
	<ele>1441.40</ele>
	<time>2023-10-07T07:09:58.000Z</time>
</trkpt>
<trkpt lat="45.9367910" lon="9.6022600">
	<ele>1441.60</ele>
	<time>2023-10-07T07:09:59.000Z</time>
</trkpt>
<trkpt lat="45.9367930" lon="9.6022510">
	<ele>1441.60</ele>
	<time>2023-10-07T07:10:00.000Z</time>
</trkpt>
<trkpt lat="45.9367990" lon="9.6022420">
	<ele>1441.60</ele>
	<time>2023-10-07T07:10:01.000Z</time>
</trkpt>
<trkpt lat="45.9368040" lon="9.6022340">
	<ele>1441.80</ele>
	<time>2023-10-07T07:10:02.000Z</time>
</trkpt>
<trkpt lat="45.9368080" lon="9.6022260">
	<ele>1442.00</ele>
	<time>2023-10-07T07:10:03.000Z</time>
</trkpt>
<trkpt lat="45.9368140" lon="9.6022170">
	<ele>1442.20</ele>
	<time>2023-10-07T07:10:04.000Z</time>
</trkpt>
<trkpt lat="45.9368180" lon="9.6022090">
	<ele>1442.20</ele>
	<time>2023-10-07T07:10:05.000Z</time>
</trkpt>
<trkpt lat="45.9368210" lon="9.6022010">
	<ele>1442.40</ele>
	<time>2023-10-07T07:10:06.000Z</time>
</trkpt>
<trkpt lat="45.9368260" lon="9.6021920">
	<ele>1442.40</ele>
	<time>2023-10-07T07:10:07.000Z</time>
</trkpt>
<trkpt lat="45.9368250" lon="9.6021850">
	<ele>1442.60</ele>
	<time>2023-10-07T07:10:08.000Z</time>
</trkpt>
<trkpt lat="45.9368290" lon="9.6021740">
	<ele>1442.80</ele>
	<time>2023-10-07T07:10:09.000Z</time>
</trkpt>
<trkpt lat="45.9368340" lon="9.6021670">
	<ele>1443.00</ele>
	<time>2023-10-07T07:10:10.000Z</time>
</trkpt>
<trkpt lat="45.9368400" lon="9.6021600">
	<ele>1443.00</ele>
	<time>2023-10-07T07:10:11.000Z</time>
</trkpt>
<trkpt lat="45.9368450" lon="9.6021520">
	<ele>1443.00</ele>
	<time>2023-10-07T07:10:12.000Z</time>
</trkpt>
<trkpt lat="45.9368490" lon="9.6021460">
	<ele>1443.20</ele>
	<time>2023-10-07T07:10:13.000Z</time>
</trkpt>
<trkpt lat="45.9368540" lon="9.6021390">
	<ele>1443.40</ele>
	<time>2023-10-07T07:10:14.000Z</time>
</trkpt>
<trkpt lat="45.9368580" lon="9.6021290">
	<ele>1443.60</ele>
	<time>2023-10-07T07:10:15.000Z</time>
</trkpt>
<trkpt lat="45.9368680" lon="9.6021210">
	<ele>1443.80</ele>
	<time>2023-10-07T07:10:16.000Z</time>
</trkpt>
<trkpt lat="45.9368730" lon="9.6021110">
	<ele>1443.80</ele>
	<time>2023-10-07T07:10:17.000Z</time>
</trkpt>
<trkpt lat="45.9368800" lon="9.6021030">
	<ele>1444.00</ele>
	<time>2023-10-07T07:10:18.000Z</time>
</trkpt>
<trkpt lat="45.9368840" lon="9.6020950">
	<ele>1444.20</ele>
	<time>2023-10-07T07:10:19.000Z</time>
</trkpt>
<trkpt lat="45.9368850" lon="9.6020880">
	<ele>1444.40</ele>
	<time>2023-10-07T07:10:20.000Z</time>
</trkpt>
<trkpt lat="45.9368880" lon="9.6020810">
	<ele>1444.60</ele>
	<time>2023-10-07T07:10:21.000Z</time>
</trkpt>
<trkpt lat="45.9368930" lon="9.6020760">
	<ele>1444.80</ele>
	<time>2023-10-07T07:10:22.000Z</time>
</trkpt>
<trkpt lat="45.9369000" lon="9.6020740">
	<ele>1444.80</ele>
	<time>2023-10-07T07:10:23.000Z</time>
</trkpt>
<trkpt lat="45.9369040" lon="9.6020710">
	<ele>1445.00</ele>
	<time>2023-10-07T07:10:24.000Z</time>
</trkpt>
<trkpt lat="45.9369140" lon="9.6020690">
	<ele>1445.00</ele>
	<time>2023-10-07T07:10:25.000Z</time>
</trkpt>
<trkpt lat="45.9369210" lon="9.6020670">
	<ele>1445.20</ele>
	<time>2023-10-07T07:10:26.000Z</time>
</trkpt>
<trkpt lat="45.9369280" lon="9.6020660">
	<ele>1445.40</ele>
	<time>2023-10-07T07:10:27.000Z</time>
</trkpt>
<trkpt lat="45.9369330" lon="9.6020630">
	<ele>1445.60</ele>
	<time>2023-10-07T07:10:28.000Z</time>
</trkpt>
<trkpt lat="45.9369400" lon="9.6020530">
	<ele>1445.80</ele>
	<time>2023-10-07T07:10:29.000Z</time>
</trkpt>
<trkpt lat="45.9369420" lon="9.6020420">
	<ele>1446.00</ele>
	<time>2023-10-07T07:10:30.000Z</time>
</trkpt>
<trkpt lat="45.9369450" lon="9.6020300">
	<ele>1446.20</ele>
	<time>2023-10-07T07:10:31.000Z</time>
</trkpt>
<trkpt lat="45.9369490" lon="9.6020210">
	<ele>1446.40</ele>
	<time>2023-10-07T07:10:32.000Z</time>
</trkpt>
<trkpt lat="45.9369530" lon="9.6020130">
	<ele>1446.40</ele>
	<time>2023-10-07T07:10:33.000Z</time>
</trkpt>
<trkpt lat="45.9369600" lon="9.6020030">
	<ele>1446.60</ele>
	<time>2023-10-07T07:10:34.000Z</time>
</trkpt>
<trkpt lat="45.9369650" lon="9.6019890">
	<ele>1446.60</ele>
	<time>2023-10-07T07:10:35.000Z</time>
</trkpt>
<trkpt lat="45.9369720" lon="9.6019810">
	<ele>1446.60</ele>
	<time>2023-10-07T07:10:36.000Z</time>
</trkpt>
<trkpt lat="45.9369740" lon="9.6019700">
	<ele>1446.80</ele>
	<time>2023-10-07T07:10:37.000Z</time>
</trkpt>
<trkpt lat="45.9369820" lon="9.6019630">
	<ele>1446.80</ele>
	<time>2023-10-07T07:10:38.000Z</time>
</trkpt>
<trkpt lat="45.9369890" lon="9.6019610">
	<ele>1447.00</ele>
	<time>2023-10-07T07:10:39.000Z</time>
</trkpt>
<trkpt lat="45.9369950" lon="9.6019530">
	<ele>1447.20</ele>
	<time>2023-10-07T07:10:40.000Z</time>
</trkpt>
<trkpt lat="45.9370020" lon="9.6019470">
	<ele>1447.20</ele>
	<time>2023-10-07T07:10:41.000Z</time>
</trkpt>
<trkpt lat="45.9370050" lon="9.6019340">
	<ele>1447.40</ele>
	<time>2023-10-07T07:10:42.000Z</time>
</trkpt>
<trkpt lat="45.9370100" lon="9.6019230">
	<ele>1447.40</ele>
	<time>2023-10-07T07:10:43.000Z</time>
</trkpt>
<trkpt lat="45.9370120" lon="9.6019110">
	<ele>1447.60</ele>
	<time>2023-10-07T07:10:44.000Z</time>
</trkpt>
<trkpt lat="45.9370140" lon="9.6018980">
	<ele>1447.60</ele>
	<time>2023-10-07T07:10:45.000Z</time>
</trkpt>
<trkpt lat="45.9370180" lon="9.6018840">
	<ele>1447.80</ele>
	<time>2023-10-07T07:10:46.000Z</time>
</trkpt>
<trkpt lat="45.9370240" lon="9.6018700">
	<ele>1447.80</ele>
	<time>2023-10-07T07:10:47.000Z</time>
</trkpt>
<trkpt lat="45.9370290" lon="9.6018590">
	<ele>1447.80</ele>
	<time>2023-10-07T07:10:48.000Z</time>
</trkpt>
<trkpt lat="45.9370330" lon="9.6018490">
	<ele>1447.80</ele>
	<time>2023-10-07T07:10:49.000Z</time>
</trkpt>
<trkpt lat="45.9370380" lon="9.6018340">
	<ele>1448.00</ele>
	<time>2023-10-07T07:10:50.000Z</time>
</trkpt>
<trkpt lat="45.9370420" lon="9.6018240">
	<ele>1448.20</ele>
	<time>2023-10-07T07:10:51.000Z</time>
</trkpt>
<trkpt lat="45.9370440" lon="9.6018110">
	<ele>1448.20</ele>
	<time>2023-10-07T07:10:52.000Z</time>
</trkpt>
<trkpt lat="45.9370480" lon="9.6017990">
	<ele>1448.40</ele>
	<time>2023-10-07T07:10:53.000Z</time>
</trkpt>
<trkpt lat="45.9370520" lon="9.6017900">
	<ele>1448.40</ele>
	<time>2023-10-07T07:10:54.000Z</time>
</trkpt>
<trkpt lat="45.9370580" lon="9.6017820">
	<ele>1448.40</ele>
	<time>2023-10-07T07:10:55.000Z</time>
</trkpt>
<trkpt lat="45.9370620" lon="9.6017690">
	<ele>1448.60</ele>
	<time>2023-10-07T07:10:56.000Z</time>
</trkpt>
<trkpt lat="45.9370680" lon="9.6017600">
	<ele>1448.60</ele>
	<time>2023-10-07T07:10:57.000Z</time>
</trkpt>
<trkpt lat="45.9370710" lon="9.6017550">
	<ele>1448.80</ele>
	<time>2023-10-07T07:10:58.000Z</time>
</trkpt>
<trkpt lat="45.9370740" lon="9.6017420">
	<ele>1448.80</ele>
	<time>2023-10-07T07:10:59.000Z</time>
</trkpt>
<trkpt lat="45.9370770" lon="9.6017310">
	<ele>1449.00</ele>
	<time>2023-10-07T07:11:00.000Z</time>
</trkpt>
<trkpt lat="45.9370780" lon="9.6017090">
	<ele>1449.20</ele>
	<time>2023-10-07T07:11:01.000Z</time>
</trkpt>
<trkpt lat="45.9370790" lon="9.6017040">
	<ele>1449.40</ele>
	<time>2023-10-07T07:11:02.000Z</time>
</trkpt>
<trkpt lat="45.9370850" lon="9.6016950">
	<ele>1449.60</ele>
	<time>2023-10-07T07:11:03.000Z</time>
</trkpt>
<trkpt lat="45.9370910" lon="9.6016890">
	<ele>1449.60</ele>
	<time>2023-10-07T07:11:04.000Z</time>
</trkpt>
<trkpt lat="45.9370970" lon="9.6016870">
	<ele>1450.00</ele>
	<time>2023-10-07T07:11:05.000Z</time>
</trkpt>
<trkpt lat="45.9371030" lon="9.6016780">
	<ele>1450.00</ele>
	<time>2023-10-07T07:11:06.000Z</time>
</trkpt>
<trkpt lat="45.9371050" lon="9.6016700">
	<ele>1450.40</ele>
	<time>2023-10-07T07:11:07.000Z</time>
</trkpt>
<trkpt lat="45.9371100" lon="9.6016640">
	<ele>1450.40</ele>
	<time>2023-10-07T07:11:08.000Z</time>
</trkpt>
<trkpt lat="45.9371140" lon="9.6016540">
	<ele>1450.60</ele>
	<time>2023-10-07T07:11:09.000Z</time>
</trkpt>
<trkpt lat="45.9371170" lon="9.6016420">
	<ele>1450.80</ele>
	<time>2023-10-07T07:11:10.000Z</time>
</trkpt>
<trkpt lat="45.9371170" lon="9.6016300">
	<ele>1450.80</ele>
	<time>2023-10-07T07:11:11.000Z</time>
</trkpt>
<trkpt lat="45.9371180" lon="9.6016190">
	<ele>1451.00</ele>
	<time>2023-10-07T07:11:12.000Z</time>
</trkpt>
<trkpt lat="45.9371200" lon="9.6016090">
	<ele>1451.20</ele>
	<time>2023-10-07T07:11:13.000Z</time>
</trkpt>
<trkpt lat="45.9371220" lon="9.6015990">
	<ele>1451.20</ele>
	<time>2023-10-07T07:11:14.000Z</time>
</trkpt>
<trkpt lat="45.9371270" lon="9.6015930">
	<ele>1451.40</ele>
	<time>2023-10-07T07:11:15.000Z</time>
</trkpt>
<trkpt lat="45.9371290" lon="9.6015850">
	<ele>1451.60</ele>
	<time>2023-10-07T07:11:16.000Z</time>
</trkpt>
<trkpt lat="45.9371300" lon="9.6015790">
	<ele>1451.80</ele>
	<time>2023-10-07T07:11:17.000Z</time>
</trkpt>
<trkpt lat="45.9371320" lon="9.6015730">
	<ele>1451.80</ele>
	<time>2023-10-07T07:11:18.000Z</time>
</trkpt>
<trkpt lat="45.9371340" lon="9.6015610">
	<ele>1452.00</ele>
	<time>2023-10-07T07:11:19.000Z</time>
</trkpt>
<trkpt lat="45.9371340" lon="9.6015580">
	<ele>1452.40</ele>
	<time>2023-10-07T07:11:20.000Z</time>
</trkpt>
<trkpt lat="45.9371350" lon="9.6015510">
	<ele>1452.60</ele>
	<time>2023-10-07T07:11:21.000Z</time>
</trkpt>
<trkpt lat="45.9371380" lon="9.6015490">
	<ele>1452.80</ele>
	<time>2023-10-07T07:11:22.000Z</time>
</trkpt>
<trkpt lat="45.9371410" lon="9.6015410">
	<ele>1452.80</ele>
	<time>2023-10-07T07:11:23.000Z</time>
</trkpt>
<trkpt lat="45.9371430" lon="9.6015370">
	<ele>1453.00</ele>
	<time>2023-10-07T07:11:24.000Z</time>
</trkpt>
<trkpt lat="45.9371440" lon="9.6015340">
	<ele>1453.20</ele>
	<time>2023-10-07T07:11:25.000Z</time>
</trkpt>
<trkpt lat="45.9371460" lon="9.6015280">
	<ele>1453.40</ele>
	<time>2023-10-07T07:11:26.000Z</time>
</trkpt>
<trkpt lat="45.9371460" lon="9.6015160">
	<ele>1453.60</ele>
	<time>2023-10-07T07:11:27.000Z</time>
</trkpt>
<trkpt lat="45.9371460" lon="9.6015070">
	<ele>1453.60</ele>
	<time>2023-10-07T07:11:28.000Z</time>
</trkpt>
<trkpt lat="45.9371470" lon="9.6014970">
	<ele>1453.80</ele>
	<time>2023-10-07T07:11:29.000Z</time>
</trkpt>
<trkpt lat="45.9371520" lon="9.6014890">
	<ele>1454.20</ele>
	<time>2023-10-07T07:11:30.000Z</time>
</trkpt>
<trkpt lat="45.9371570" lon="9.6014860">
	<ele>1454.40</ele>
	<time>2023-10-07T07:11:31.000Z</time>
</trkpt>
<trkpt lat="45.9371610" lon="9.6014810">
	<ele>1454.40</ele>
	<time>2023-10-07T07:11:32.000Z</time>
</trkpt>
<trkpt lat="45.9371640" lon="9.6014750">
	<ele>1454.60</ele>
	<time>2023-10-07T07:11:33.000Z</time>
</trkpt>
<trkpt lat="45.9371670" lon="9.6014670">
	<ele>1454.60</ele>
	<time>2023-10-07T07:11:34.000Z</time>
</trkpt>
<trkpt lat="45.9371710" lon="9.6014610">
	<ele>1455.00</ele>
	<time>2023-10-07T07:11:35.000Z</time>
</trkpt>
<trkpt lat="45.9371730" lon="9.6014520">
	<ele>1455.20</ele>
	<time>2023-10-07T07:11:36.000Z</time>
</trkpt>
<trkpt lat="45.9371750" lon="9.6014480">
	<ele>1455.40</ele>
	<time>2023-10-07T07:11:37.000Z</time>
</trkpt>
<trkpt lat="45.9371760" lon="9.6014440">
	<ele>1455.60</ele>
	<time>2023-10-07T07:11:38.000Z</time>
</trkpt>
<trkpt lat="45.9371760" lon="9.6014370">
	<ele>1455.80</ele>
	<time>2023-10-07T07:11:39.000Z</time>
</trkpt>
<trkpt lat="45.9371790" lon="9.6014320">
	<ele>1455.80</ele>
	<time>2023-10-07T07:11:40.000Z</time>
</trkpt>
<trkpt lat="45.9371820" lon="9.6014290">
	<ele>1456.00</ele>
	<time>2023-10-07T07:11:41.000Z</time>
</trkpt>
<trkpt lat="45.9371860" lon="9.6014250">
	<ele>1456.20</ele>
	<time>2023-10-07T07:11:42.000Z</time>
</trkpt>
<trkpt lat="45.9371860" lon="9.6014200">
	<ele>1456.40</ele>
	<time>2023-10-07T07:11:43.000Z</time>
</trkpt>
<trkpt lat="45.9371890" lon="9.6014170">
	<ele>1456.40</ele>
	<time>2023-10-07T07:11:44.000Z</time>
</trkpt>
<trkpt lat="45.9371930" lon="9.6014100">
	<ele>1456.60</ele>
	<time>2023-10-07T07:11:45.000Z</time>
</trkpt>
<trkpt lat="45.9371950" lon="9.6014080">
	<ele>1456.80</ele>
	<time>2023-10-07T07:11:46.000Z</time>
</trkpt>
<trkpt lat="45.9371970" lon="9.6014050">
	<ele>1457.00</ele>
	<time>2023-10-07T07:11:47.000Z</time>
</trkpt>
<trkpt lat="45.9372010" lon="9.6014030">
	<ele>1457.20</ele>
	<time>2023-10-07T07:11:48.000Z</time>
</trkpt>
<trkpt lat="45.9372060" lon="9.6014000">
	<ele>1457.40</ele>
	<time>2023-10-07T07:11:49.000Z</time>
</trkpt>
<trkpt lat="45.9372110" lon="9.6013970">
	<ele>1457.60</ele>
	<time>2023-10-07T07:11:50.000Z</time>
</trkpt>
<trkpt lat="45.9372140" lon="9.6013940">
	<ele>1457.80</ele>
	<time>2023-10-07T07:11:51.000Z</time>
</trkpt>
<trkpt lat="45.9372150" lon="9.6013910">
	<ele>1458.00</ele>
	<time>2023-10-07T07:11:52.000Z</time>
</trkpt>
<trkpt lat="45.9372190" lon="9.6013860">
	<ele>1458.20</ele>
	<time>2023-10-07T07:11:53.000Z</time>
</trkpt>
<trkpt lat="45.9372210" lon="9.6013820">
	<ele>1458.60</ele>
	<time>2023-10-07T07:11:54.000Z</time>
</trkpt>
<trkpt lat="45.9372240" lon="9.6013790">
	<ele>1458.60</ele>
	<time>2023-10-07T07:11:55.000Z</time>
</trkpt>
<trkpt lat="45.9372280" lon="9.6013770">
	<ele>1459.00</ele>
	<time>2023-10-07T07:11:56.000Z</time>
</trkpt>
<trkpt lat="45.9372330" lon="9.6013700">
	<ele>1459.20</ele>
	<time>2023-10-07T07:11:57.000Z</time>
</trkpt>
<trkpt lat="45.9372370" lon="9.6013630">
	<ele>1459.40</ele>
	<time>2023-10-07T07:11:58.000Z</time>
</trkpt>
<trkpt lat="45.9372380" lon="9.6013540">
	<ele>1459.60</ele>
	<time>2023-10-07T07:11:59.000Z</time>
</trkpt>
<trkpt lat="45.9372380" lon="9.6013430">
	<ele>1459.80</ele>
	<time>2023-10-07T07:12:00.000Z</time>
</trkpt>
<trkpt lat="45.9372390" lon="9.6013350">
	<ele>1459.80</ele>
	<time>2023-10-07T07:12:01.000Z</time>
</trkpt>
<trkpt lat="45.9372420" lon="9.6013250">
	<ele>1460.00</ele>
	<time>2023-10-07T07:12:02.000Z</time>
</trkpt>
<trkpt lat="45.9372440" lon="9.6013180">
	<ele>1460.00</ele>
	<time>2023-10-07T07:12:03.000Z</time>
</trkpt>
<trkpt lat="45.9372470" lon="9.6013080">
	<ele>1460.20</ele>
	<time>2023-10-07T07:12:04.000Z</time>
</trkpt>
<trkpt lat="45.9372500" lon="9.6013010">
	<ele>1460.20</ele>
	<time>2023-10-07T07:12:05.000Z</time>
</trkpt>
<trkpt lat="45.9372520" lon="9.6012920">
	<ele>1460.40</ele>
	<time>2023-10-07T07:12:06.000Z</time>
</trkpt>
<trkpt lat="45.9372550" lon="9.6012810">
	<ele>1460.40</ele>
	<time>2023-10-07T07:12:07.000Z</time>
</trkpt>
<trkpt lat="45.9372600" lon="9.6012750">
	<ele>1460.60</ele>
	<time>2023-10-07T07:12:08.000Z</time>
</trkpt>
<trkpt lat="45.9372630" lon="9.6012660">
	<ele>1460.80</ele>
	<time>2023-10-07T07:12:09.000Z</time>
</trkpt>
<trkpt lat="45.9372680" lon="9.6012580">
	<ele>1461.00</ele>
	<time>2023-10-07T07:12:10.000Z</time>
</trkpt>
<trkpt lat="45.9372720" lon="9.6012490">
	<ele>1461.00</ele>
	<time>2023-10-07T07:12:11.000Z</time>
</trkpt>
<trkpt lat="45.9372780" lon="9.6012440">
	<ele>1461.00</ele>
	<time>2023-10-07T07:12:12.000Z</time>
</trkpt>
<trkpt lat="45.9372850" lon="9.6012390">
	<ele>1461.20</ele>
	<time>2023-10-07T07:12:13.000Z</time>
</trkpt>
<trkpt lat="45.9372900" lon="9.6012320">
	<ele>1461.40</ele>
	<time>2023-10-07T07:12:14.000Z</time>
</trkpt>
<trkpt lat="45.9372930" lon="9.6012260">
	<ele>1461.40</ele>
	<time>2023-10-07T07:12:15.000Z</time>
</trkpt>
<trkpt lat="45.9372940" lon="9.6012250">
	<ele>1461.40</ele>
	<time>2023-10-07T07:12:16.000Z</time>
</trkpt>
<trkpt lat="45.9372950" lon="9.6012270">
	<ele>1461.40</ele>
	<time>2023-10-07T07:12:17.000Z</time>
</trkpt>
<trkpt lat="45.9372960" lon="9.6012300">
	<ele>1461.40</ele>
	<time>2023-10-07T07:12:18.000Z</time>
</trkpt>
<trkpt lat="45.9372990" lon="9.6012340">
	<ele>1461.60</ele>
	<time>2023-10-07T07:12:19.000Z</time>
</trkpt>
<trkpt lat="45.9373000" lon="9.6012350">
	<ele>1461.60</ele>
	<time>2023-10-07T07:12:20.000Z</time>
</trkpt>
<trkpt lat="45.9373010" lon="9.6012350">
	<ele>1461.60</ele>
	<time>2023-10-07T07:12:21.000Z</time>
</trkpt>
<trkpt lat="45.9373010" lon="9.6012360">
	<ele>1461.60</ele>
	<time>2023-10-07T07:12:22.000Z</time>
</trkpt>
<trkpt lat="45.9373020" lon="9.6012360">
	<ele>1461.60</ele>
	<time>2023-10-07T07:12:23.000Z</time>
</trkpt>
<trkpt lat="45.9373020" lon="9.6012360">
	<ele>1461.80</ele>
	<time>2023-10-07T07:12:24.000Z</time>
</trkpt>
<trkpt lat="45.9373010" lon="9.6012360">
	<ele>1461.80</ele>
	<time>2023-10-07T07:12:25.000Z</time>
</trkpt>
<trkpt lat="45.9373010" lon="9.6012360">
	<ele>1461.80</ele>
	<time>2023-10-07T07:12:26.000Z</time>
</trkpt>
<trkpt lat="45.9373010" lon="9.6012360">
	<ele>1461.80</ele>
	<time>2023-10-07T07:12:27.000Z</time>
</trkpt>
<trkpt lat="45.9373010" lon="9.6012360">
	<ele>1461.80</ele>
	<time>2023-10-07T07:12:28.000Z</time>
</trkpt>
<trkpt lat="45.9373010" lon="9.6012360">
	<ele>1461.80</ele>
	<time>2023-10-07T07:12:29.000Z</time>
</trkpt>
<trkpt lat="45.9373010" lon="9.6012360">
	<ele>1461.80</ele>
	<time>2023-10-07T07:12:30.000Z</time>
</trkpt>
<trkpt lat="45.9373010" lon="9.6012360">
	<ele>1461.80</ele>
	<time>2023-10-07T07:12:31.000Z</time>
</trkpt>
<trkpt lat="45.9373010" lon="9.6012360">
	<ele>1461.80</ele>
	<time>2023-10-07T07:12:32.000Z</time>
</trkpt>
<trkpt lat="45.9373010" lon="9.6012360">
	<ele>1461.80</ele>
	<time>2023-10-07T07:12:33.000Z</time>
</trkpt>
<trkpt lat="45.9373010" lon="9.6012360">
	<ele>1461.80</ele>
	<time>2023-10-07T07:12:34.000Z</time>
</trkpt>
<trkpt lat="45.9373010" lon="9.6012360">
	<ele>1461.80</ele>
	<time>2023-10-07T07:12:35.000Z</time>
</trkpt>
<trkpt lat="45.9373010" lon="9.6012350">
	<ele>1461.80</ele>
	<time>2023-10-07T07:12:36.000Z</time>
</trkpt>
<trkpt lat="45.9373010" lon="9.6012350">
	<ele>1461.80</ele>
	<time>2023-10-07T07:12:37.000Z</time>
</trkpt>
<trkpt lat="45.9373010" lon="9.6012350">
	<ele>1461.80</ele>
	<time>2023-10-07T07:12:38.000Z</time>
</trkpt>
<trkpt lat="45.9373010" lon="9.6012340">
	<ele>1461.80</ele>
	<time>2023-10-07T07:12:39.000Z</time>
</trkpt>
<trkpt lat="45.9373010" lon="9.6012330">
	<ele>1461.80</ele>
	<time>2023-10-07T07:12:40.000Z</time>
</trkpt>
<trkpt lat="45.9373010" lon="9.6012330">
	<ele>1462.00</ele>
	<time>2023-10-07T07:12:41.000Z</time>
</trkpt>
<trkpt lat="45.9373010" lon="9.6012320">
	<ele>1462.00</ele>
	<time>2023-10-07T07:12:42.000Z</time>
</trkpt>
<trkpt lat="45.9373010" lon="9.6012320">
	<ele>1462.00</ele>
	<time>2023-10-07T07:12:43.000Z</time>
</trkpt>
<trkpt lat="45.9373010" lon="9.6012250">
	<ele>1462.20</ele>
	<time>2023-10-07T07:12:44.000Z</time>
</trkpt>
<trkpt lat="45.9373040" lon="9.6012110">
	<ele>1462.40</ele>
	<time>2023-10-07T07:12:45.000Z</time>
</trkpt>
<trkpt lat="45.9373060" lon="9.6011970">
	<ele>1462.60</ele>
	<time>2023-10-07T07:12:46.000Z</time>
</trkpt>
<trkpt lat="45.9373070" lon="9.6011860">
	<ele>1462.80</ele>
	<time>2023-10-07T07:12:47.000Z</time>
</trkpt>
<trkpt lat="45.9373100" lon="9.6011720">
	<ele>1463.00</ele>
	<time>2023-10-07T07:12:48.000Z</time>
</trkpt>
<trkpt lat="45.9373140" lon="9.6011590">
	<ele>1463.40</ele>
	<time>2023-10-07T07:12:49.000Z</time>
</trkpt>
<trkpt lat="45.9373190" lon="9.6011460">
	<ele>1463.40</ele>
	<time>2023-10-07T07:12:50.000Z</time>
</trkpt>
<trkpt lat="45.9373240" lon="9.6011320">
	<ele>1463.60</ele>
	<time>2023-10-07T07:12:51.000Z</time>
</trkpt>
<trkpt lat="45.9373290" lon="9.6011160">
	<ele>1463.80</ele>
	<time>2023-10-07T07:12:52.000Z</time>
</trkpt>
<trkpt lat="45.9373350" lon="9.6011020">
	<ele>1463.80</ele>
	<time>2023-10-07T07:12:53.000Z</time>
</trkpt>
<trkpt lat="45.9373400" lon="9.6010970">
	<ele>1464.00</ele>
	<time>2023-10-07T07:12:54.000Z</time>
</trkpt>
<trkpt lat="45.9373440" lon="9.6010910">
	<ele>1464.20</ele>
	<time>2023-10-07T07:12:55.000Z</time>
</trkpt>
<trkpt lat="45.9373460" lon="9.6010890">
	<ele>1464.20</ele>
	<time>2023-10-07T07:12:56.000Z</time>
</trkpt>
<trkpt lat="45.9373490" lon="9.6010880">
	<ele>1464.40</ele>
	<time>2023-10-07T07:12:57.000Z</time>
</trkpt>
<trkpt lat="45.9373500" lon="9.6010880">
	<ele>1464.60</ele>
	<time>2023-10-07T07:12:58.000Z</time>
</trkpt>
<trkpt lat="45.9373510" lon="9.6010880">
	<ele>1464.80</ele>
	<time>2023-10-07T07:12:59.000Z</time>
</trkpt>
<trkpt lat="45.9373510" lon="9.6010880">
	<ele>1464.80</ele>
	<time>2023-10-07T07:13:00.000Z</time>
</trkpt>
<trkpt lat="45.9373520" lon="9.6010880">
	<ele>1465.00</ele>
	<time>2023-10-07T07:13:01.000Z</time>
</trkpt>
<trkpt lat="45.9373520" lon="9.6010880">
	<ele>1465.00</ele>
	<time>2023-10-07T07:13:02.000Z</time>
</trkpt>
<trkpt lat="45.9373520" lon="9.6010880">
	<ele>1465.00</ele>
	<time>2023-10-07T07:13:03.000Z</time>
</trkpt>
<trkpt lat="45.9373530" lon="9.6010890">
	<ele>1465.20</ele>
	<time>2023-10-07T07:13:04.000Z</time>
</trkpt>
<trkpt lat="45.9373540" lon="9.6010890">
	<ele>1465.20</ele>
	<time>2023-10-07T07:13:05.000Z</time>
</trkpt>
<trkpt lat="45.9373540" lon="9.6010890">
	<ele>1465.20</ele>
	<time>2023-10-07T07:13:06.000Z</time>
</trkpt>
<trkpt lat="45.9373540" lon="9.6010890">
	<ele>1465.20</ele>
	<time>2023-10-07T07:13:07.000Z</time>
</trkpt>
<trkpt lat="45.9373540" lon="9.6010890">
	<ele>1465.20</ele>
	<time>2023-10-07T07:13:08.000Z</time>
</trkpt>
<trkpt lat="45.9373540" lon="9.6010890">
	<ele>1465.20</ele>
	<time>2023-10-07T07:13:09.000Z</time>
</trkpt>
<trkpt lat="45.9373540" lon="9.6010890">
	<ele>1465.00</ele>
	<time>2023-10-07T07:13:10.000Z</time>
</trkpt>
<trkpt lat="45.9373540" lon="9.6010890">
	<ele>1464.80</ele>
	<time>2023-10-07T07:13:11.000Z</time>
</trkpt>
<trkpt lat="45.9373540" lon="9.6010890">
	<ele>1464.80</ele>
	<time>2023-10-07T07:13:12.000Z</time>
</trkpt>
<trkpt lat="45.9373540" lon="9.6010890">
	<ele>1464.60</ele>
	<time>2023-10-07T07:13:13.000Z</time>
</trkpt>
<trkpt lat="45.9373540" lon="9.6010890">
	<ele>1464.60</ele>
	<time>2023-10-07T07:13:14.000Z</time>
</trkpt>
<trkpt lat="45.9373540" lon="9.6010890">
	<ele>1464.60</ele>
	<time>2023-10-07T07:13:15.000Z</time>
</trkpt>
<trkpt lat="45.9373530" lon="9.6010890">
	<ele>1464.60</ele>
	<time>2023-10-07T07:13:16.000Z</time>
</trkpt>
<trkpt lat="45.9373520" lon="9.6010890">
	<ele>1464.60</ele>
	<time>2023-10-07T07:13:17.000Z</time>
</trkpt>
<trkpt lat="45.9373520" lon="9.6010890">
	<ele>1464.60</ele>
	<time>2023-10-07T07:13:18.000Z</time>
</trkpt>
<trkpt lat="45.9373520" lon="9.6010890">
	<ele>1464.40</ele>
	<time>2023-10-07T07:13:19.000Z</time>
</trkpt>
<trkpt lat="45.9373520" lon="9.6010890">
	<ele>1464.40</ele>
	<time>2023-10-07T07:13:20.000Z</time>
</trkpt>
<trkpt lat="45.9373520" lon="9.6010890">
	<ele>1464.40</ele>
	<time>2023-10-07T07:13:21.000Z</time>
</trkpt>
<trkpt lat="45.9373520" lon="9.6010890">
	<ele>1464.80</ele>
	<time>2023-10-07T07:13:22.000Z</time>
</trkpt>
<trkpt lat="45.9373520" lon="9.6010900">
	<ele>1465.00</ele>
	<time>2023-10-07T07:13:23.000Z</time>
</trkpt>
<trkpt lat="45.9373520" lon="9.6010930">
	<ele>1465.00</ele>
	<time>2023-10-07T07:13:24.000Z</time>
</trkpt>
<trkpt lat="45.9373520" lon="9.6010940">
	<ele>1465.20</ele>
	<time>2023-10-07T07:13:25.000Z</time>
</trkpt>
<trkpt lat="45.9373520" lon="9.6010950">
	<ele>1465.20</ele>
	<time>2023-10-07T07:13:26.000Z</time>
</trkpt>
<trkpt lat="45.9373520" lon="9.6010950">
	<ele>1465.20</ele>
	<time>2023-10-07T07:13:27.000Z</time>
</trkpt>
<trkpt lat="45.9373520" lon="9.6010960">
	<ele>1465.00</ele>
	<time>2023-10-07T07:13:28.000Z</time>
</trkpt>
<trkpt lat="45.9373520" lon="9.6010970">
	<ele>1465.00</ele>
	<time>2023-10-07T07:13:29.000Z</time>
</trkpt>
<trkpt lat="45.9373530" lon="9.6010970">
	<ele>1464.80</ele>
	<time>2023-10-07T07:13:30.000Z</time>
</trkpt>
<trkpt lat="45.9373540" lon="9.6010970">
	<ele>1464.80</ele>
	<time>2023-10-07T07:13:31.000Z</time>
</trkpt>
<trkpt lat="45.9373590" lon="9.6010960">
	<ele>1464.80</ele>
	<time>2023-10-07T07:13:32.000Z</time>
</trkpt>
<trkpt lat="45.9373740" lon="9.6010940">
	<ele>1465.00</ele>
	<time>2023-10-07T07:13:33.000Z</time>
</trkpt>
<trkpt lat="45.9373890" lon="9.6010890">
	<ele>1465.00</ele>
	<time>2023-10-07T07:13:34.000Z</time>
</trkpt>
<trkpt lat="45.9374020" lon="9.6010850">
	<ele>1465.20</ele>
	<time>2023-10-07T07:13:35.000Z</time>
</trkpt>
<trkpt lat="45.9374160" lon="9.6010810">
	<ele>1465.20</ele>
	<time>2023-10-07T07:13:36.000Z</time>
</trkpt>
<trkpt lat="45.9374310" lon="9.6010770">
	<ele>1465.20</ele>
	<time>2023-10-07T07:13:37.000Z</time>
</trkpt>
<trkpt lat="45.9374420" lon="9.6010710">
	<ele>1465.40</ele>
	<time>2023-10-07T07:13:38.000Z</time>
</trkpt>
<trkpt lat="45.9374550" lon="9.6010650">
	<ele>1465.60</ele>
	<time>2023-10-07T07:13:39.000Z</time>
</trkpt>
<trkpt lat="45.9374680" lon="9.6010570">
	<ele>1465.60</ele>
	<time>2023-10-07T07:13:40.000Z</time>
</trkpt>
<trkpt lat="45.9374790" lon="9.6010510">
	<ele>1465.80</ele>
	<time>2023-10-07T07:13:41.000Z</time>
</trkpt>
<trkpt lat="45.9374860" lon="9.6010420">
	<ele>1465.80</ele>
	<time>2023-10-07T07:13:42.000Z</time>
</trkpt>
<trkpt lat="45.9374930" lon="9.6010340">
	<ele>1465.80</ele>
	<time>2023-10-07T07:13:43.000Z</time>
</trkpt>
<trkpt lat="45.9375010" lon="9.6010280">
	<ele>1465.80</ele>
	<time>2023-10-07T07:13:44.000Z</time>
</trkpt>
<trkpt lat="45.9375080" lon="9.6010240">
	<ele>1466.00</ele>
	<time>2023-10-07T07:13:45.000Z</time>
</trkpt>
<trkpt lat="45.9375160" lon="9.6010230">
	<ele>1466.00</ele>
	<time>2023-10-07T07:13:46.000Z</time>
</trkpt>
<trkpt lat="45.9375250" lon="9.6010190">
	<ele>1466.00</ele>
	<time>2023-10-07T07:13:47.000Z</time>
</trkpt>
<trkpt lat="45.9375340" lon="9.6010170">
	<ele>1466.20</ele>
	<time>2023-10-07T07:13:48.000Z</time>
</trkpt>
<trkpt lat="45.9375420" lon="9.6010110">
	<ele>1466.20</ele>
	<time>2023-10-07T07:13:49.000Z</time>
</trkpt>
<trkpt lat="45.9375510" lon="9.6010060">
	<ele>1466.20</ele>
	<time>2023-10-07T07:13:50.000Z</time>
</trkpt>
<trkpt lat="45.9375620" lon="9.6010040">
	<ele>1466.40</ele>
	<time>2023-10-07T07:13:51.000Z</time>
</trkpt>
<trkpt lat="45.9375720" lon="9.6010020">
	<ele>1466.40</ele>
	<time>2023-10-07T07:13:52.000Z</time>
</trkpt>
<trkpt lat="45.9375820" lon="9.6010000">
	<ele>1466.40</ele>
	<time>2023-10-07T07:13:53.000Z</time>
</trkpt>
<trkpt lat="45.9375870" lon="9.6009940">
	<ele>1466.40</ele>
	<time>2023-10-07T07:13:54.000Z</time>
</trkpt>
<trkpt lat="45.9375950" lon="9.6009840">
	<ele>1466.60</ele>
	<time>2023-10-07T07:13:55.000Z</time>
</trkpt>
<trkpt lat="45.9376050" lon="9.6009780">
	<ele>1466.60</ele>
	<time>2023-10-07T07:13:56.000Z</time>
</trkpt>
<trkpt lat="45.9376150" lon="9.6009720">
	<ele>1466.80</ele>
	<time>2023-10-07T07:13:57.000Z</time>
</trkpt>
<trkpt lat="45.9376240" lon="9.6009690">
	<ele>1466.80</ele>
	<time>2023-10-07T07:13:58.000Z</time>
</trkpt>
<trkpt lat="45.9376330" lon="9.6009680">
	<ele>1467.00</ele>
	<time>2023-10-07T07:13:59.000Z</time>
</trkpt>
<trkpt lat="45.9376410" lon="9.6009640">
	<ele>1467.00</ele>
	<time>2023-10-07T07:14:00.000Z</time>
</trkpt>
<trkpt lat="45.9376480" lon="9.6009590">
	<ele>1467.00</ele>
	<time>2023-10-07T07:14:01.000Z</time>
</trkpt>
<trkpt lat="45.9376570" lon="9.6009530">
	<ele>1467.00</ele>
	<time>2023-10-07T07:14:02.000Z</time>
</trkpt>
<trkpt lat="45.9376670" lon="9.6009480">
	<ele>1467.20</ele>
	<time>2023-10-07T07:14:03.000Z</time>
</trkpt>
<trkpt lat="45.9376750" lon="9.6009430">
	<ele>1467.20</ele>
	<time>2023-10-07T07:14:04.000Z</time>
</trkpt>
<trkpt lat="45.9376850" lon="9.6009390">
	<ele>1467.20</ele>
	<time>2023-10-07T07:14:05.000Z</time>
</trkpt>
<trkpt lat="45.9376940" lon="9.6009370">
	<ele>1467.20</ele>
	<time>2023-10-07T07:14:06.000Z</time>
</trkpt>
<trkpt lat="45.9377030" lon="9.6009370">
	<ele>1467.20</ele>
	<time>2023-10-07T07:14:07.000Z</time>
</trkpt>
<trkpt lat="45.9377130" lon="9.6009320">
	<ele>1467.20</ele>
	<time>2023-10-07T07:14:08.000Z</time>
</trkpt>
<trkpt lat="45.9377210" lon="9.6009240">
	<ele>1467.20</ele>
	<time>2023-10-07T07:14:09.000Z</time>
</trkpt>
<trkpt lat="45.9377300" lon="9.6009150">
	<ele>1467.20</ele>
	<time>2023-10-07T07:14:10.000Z</time>
</trkpt>
<trkpt lat="45.9377370" lon="9.6009030">
	<ele>1467.20</ele>
	<time>2023-10-07T07:14:11.000Z</time>
</trkpt>
<trkpt lat="45.9377440" lon="9.6008940">
	<ele>1467.20</ele>
	<time>2023-10-07T07:14:12.000Z</time>
</trkpt>
<trkpt lat="45.9377530" lon="9.6008870">
	<ele>1467.40</ele>
	<time>2023-10-07T07:14:13.000Z</time>
</trkpt>
<trkpt lat="45.9377630" lon="9.6008790">
	<ele>1467.40</ele>
	<time>2023-10-07T07:14:14.000Z</time>
</trkpt>
<trkpt lat="45.9377720" lon="9.6008680">
	<ele>1467.40</ele>
	<time>2023-10-07T07:14:15.000Z</time>
</trkpt>
<trkpt lat="45.9377790" lon="9.6008580">
	<ele>1467.40</ele>
	<time>2023-10-07T07:14:16.000Z</time>
</trkpt>
<trkpt lat="45.9377880" lon="9.6008480">
	<ele>1467.40</ele>
	<time>2023-10-07T07:14:17.000Z</time>
</trkpt>
<trkpt lat="45.9377970" lon="9.6008390">
	<ele>1467.40</ele>
	<time>2023-10-07T07:14:18.000Z</time>
</trkpt>
<trkpt lat="45.9378070" lon="9.6008270">
	<ele>1467.40</ele>
	<time>2023-10-07T07:14:19.000Z</time>
</trkpt>
<trkpt lat="45.9378140" lon="9.6008180">
	<ele>1467.40</ele>
	<time>2023-10-07T07:14:20.000Z</time>
</trkpt>
<trkpt lat="45.9378220" lon="9.6008100">
	<ele>1467.40</ele>
	<time>2023-10-07T07:14:21.000Z</time>
</trkpt>
<trkpt lat="45.9378290" lon="9.6008000">
	<ele>1467.40</ele>
	<time>2023-10-07T07:14:22.000Z</time>
</trkpt>
<trkpt lat="45.9378370" lon="9.6007930">
	<ele>1467.40</ele>
	<time>2023-10-07T07:14:23.000Z</time>
</trkpt>
<trkpt lat="45.9378470" lon="9.6007810">
	<ele>1467.40</ele>
	<time>2023-10-07T07:14:24.000Z</time>
</trkpt>
<trkpt lat="45.9378560" lon="9.6007690">
	<ele>1467.40</ele>
	<time>2023-10-07T07:14:25.000Z</time>
</trkpt>
<trkpt lat="45.9378640" lon="9.6007590">
	<ele>1467.40</ele>
	<time>2023-10-07T07:14:26.000Z</time>
</trkpt>
<trkpt lat="45.9378730" lon="9.6007490">
	<ele>1467.40</ele>
	<time>2023-10-07T07:14:27.000Z</time>
</trkpt>
<trkpt lat="45.9378810" lon="9.6007350">
	<ele>1467.40</ele>
	<time>2023-10-07T07:14:28.000Z</time>
</trkpt>
<trkpt lat="45.9378900" lon="9.6007230">
	<ele>1467.40</ele>
	<time>2023-10-07T07:14:29.000Z</time>
</trkpt>
<trkpt lat="45.9379000" lon="9.6007130">
	<ele>1467.40</ele>
	<time>2023-10-07T07:14:30.000Z</time>
</trkpt>
<trkpt lat="45.9379070" lon="9.6007030">
	<ele>1467.40</ele>
	<time>2023-10-07T07:14:31.000Z</time>
</trkpt>
<trkpt lat="45.9379170" lon="9.6006920">
	<ele>1467.40</ele>
	<time>2023-10-07T07:14:32.000Z</time>
</trkpt>
<trkpt lat="45.9379270" lon="9.6006820">
	<ele>1467.40</ele>
	<time>2023-10-07T07:14:33.000Z</time>
</trkpt>
<trkpt lat="45.9379360" lon="9.6006720">
	<ele>1467.60</ele>
	<time>2023-10-07T07:14:34.000Z</time>
</trkpt>
<trkpt lat="45.9379450" lon="9.6006640">
	<ele>1467.60</ele>
	<time>2023-10-07T07:14:35.000Z</time>
</trkpt>
<trkpt lat="45.9379550" lon="9.6006600">
	<ele>1467.60</ele>
	<time>2023-10-07T07:14:36.000Z</time>
</trkpt>
<trkpt lat="45.9379650" lon="9.6006560">
	<ele>1467.60</ele>
	<time>2023-10-07T07:14:37.000Z</time>
</trkpt>
<trkpt lat="45.9379730" lon="9.6006480">
	<ele>1467.80</ele>
	<time>2023-10-07T07:14:38.000Z</time>
</trkpt>
<trkpt lat="45.9379800" lon="9.6006400">
	<ele>1467.80</ele>
	<time>2023-10-07T07:14:39.000Z</time>
</trkpt>
<trkpt lat="45.9379910" lon="9.6006270">
	<ele>1467.80</ele>
	<time>2023-10-07T07:14:40.000Z</time>
</trkpt>
<trkpt lat="45.9379990" lon="9.6006130">
	<ele>1467.80</ele>
	<time>2023-10-07T07:14:41.000Z</time>
</trkpt>
<trkpt lat="45.9380110" lon="9.6006040">
	<ele>1467.80</ele>
	<time>2023-10-07T07:14:42.000Z</time>
</trkpt>
<trkpt lat="45.9380220" lon="9.6005980">
	<ele>1467.80</ele>
	<time>2023-10-07T07:14:43.000Z</time>
</trkpt>
<trkpt lat="45.9380330" lon="9.6005930">
	<ele>1467.80</ele>
	<time>2023-10-07T07:14:44.000Z</time>
</trkpt>
<trkpt lat="45.9380420" lon="9.6005880">
	<ele>1468.00</ele>
	<time>2023-10-07T07:14:45.000Z</time>
</trkpt>
<trkpt lat="45.9380530" lon="9.6005830">
	<ele>1468.00</ele>
	<time>2023-10-07T07:14:46.000Z</time>
</trkpt>
<trkpt lat="45.9380640" lon="9.6005760">
	<ele>1468.00</ele>
	<time>2023-10-07T07:14:47.000Z</time>
</trkpt>
<trkpt lat="45.9380730" lon="9.6005650">
	<ele>1468.00</ele>
	<time>2023-10-07T07:14:48.000Z</time>
</trkpt>
<trkpt lat="45.9380820" lon="9.6005540">
	<ele>1468.00</ele>
	<time>2023-10-07T07:14:49.000Z</time>
</trkpt>
<trkpt lat="45.9380910" lon="9.6005440">
	<ele>1468.00</ele>
	<time>2023-10-07T07:14:50.000Z</time>
</trkpt>
<trkpt lat="45.9380990" lon="9.6005300">
	<ele>1468.00</ele>
	<time>2023-10-07T07:14:51.000Z</time>
</trkpt>
<trkpt lat="45.9381090" lon="9.6005190">
	<ele>1468.00</ele>
	<time>2023-10-07T07:14:52.000Z</time>
</trkpt>
<trkpt lat="45.9381200" lon="9.6005090">
	<ele>1468.00</ele>
	<time>2023-10-07T07:14:53.000Z</time>
</trkpt>
<trkpt lat="45.9381300" lon="9.6005010">
	<ele>1468.00</ele>
	<time>2023-10-07T07:14:54.000Z</time>
</trkpt>
<trkpt lat="45.9381410" lon="9.6004980">
	<ele>1468.20</ele>
	<time>2023-10-07T07:14:55.000Z</time>
</trkpt>
<trkpt lat="45.9381500" lon="9.6004900">
	<ele>1468.20</ele>
	<time>2023-10-07T07:14:56.000Z</time>
</trkpt>
<trkpt lat="45.9381590" lon="9.6004810">
	<ele>1468.20</ele>
	<time>2023-10-07T07:14:57.000Z</time>
</trkpt>
<trkpt lat="45.9381680" lon="9.6004700">
	<ele>1468.20</ele>
	<time>2023-10-07T07:14:58.000Z</time>
</trkpt>
<trkpt lat="45.9381790" lon="9.6004630">
	<ele>1468.20</ele>
	<time>2023-10-07T07:14:59.000Z</time>
</trkpt>
<trkpt lat="45.9381900" lon="9.6004570">
	<ele>1468.20</ele>
	<time>2023-10-07T07:15:00.000Z</time>
</trkpt>
<trkpt lat="45.9382010" lon="9.6004500">
	<ele>1468.40</ele>
	<time>2023-10-07T07:15:01.000Z</time>
</trkpt>
<trkpt lat="45.9382090" lon="9.6004430">
	<ele>1468.40</ele>
	<time>2023-10-07T07:15:02.000Z</time>
</trkpt>
<trkpt lat="45.9382190" lon="9.6004370">
	<ele>1468.20</ele>
	<time>2023-10-07T07:15:03.000Z</time>
</trkpt>
<trkpt lat="45.9382290" lon="9.6004280">
	<ele>1468.20</ele>
	<time>2023-10-07T07:15:04.000Z</time>
</trkpt>
<trkpt lat="45.9382380" lon="9.6004170">
	<ele>1468.20</ele>
	<time>2023-10-07T07:15:05.000Z</time>
</trkpt>
<trkpt lat="45.9382480" lon="9.6004050">
	<ele>1468.20</ele>
	<time>2023-10-07T07:15:06.000Z</time>
</trkpt>
<trkpt lat="45.9382580" lon="9.6003940">
	<ele>1468.20</ele>
	<time>2023-10-07T07:15:07.000Z</time>
</trkpt>
<trkpt lat="45.9382700" lon="9.6003860">
	<ele>1468.20</ele>
	<time>2023-10-07T07:15:08.000Z</time>
</trkpt>
<trkpt lat="45.9382810" lon="9.6003800">
	<ele>1468.20</ele>
	<time>2023-10-07T07:15:09.000Z</time>
</trkpt>
<trkpt lat="45.9382920" lon="9.6003730">
	<ele>1468.20</ele>
	<time>2023-10-07T07:15:10.000Z</time>
</trkpt>
<trkpt lat="45.9383030" lon="9.6003670">
	<ele>1468.00</ele>
	<time>2023-10-07T07:15:11.000Z</time>
</trkpt>
<trkpt lat="45.9383130" lon="9.6003560">
	<ele>1468.00</ele>
	<time>2023-10-07T07:15:12.000Z</time>
</trkpt>
<trkpt lat="45.9383240" lon="9.6003470">
	<ele>1468.00</ele>
	<time>2023-10-07T07:15:13.000Z</time>
</trkpt>
<trkpt lat="45.9383330" lon="9.6003400">
	<ele>1468.00</ele>
	<time>2023-10-07T07:15:14.000Z</time>
</trkpt>
<trkpt lat="45.9383420" lon="9.6003350">
	<ele>1468.00</ele>
	<time>2023-10-07T07:15:15.000Z</time>
</trkpt>
<trkpt lat="45.9383520" lon="9.6003260">
	<ele>1468.00</ele>
	<time>2023-10-07T07:15:16.000Z</time>
</trkpt>
<trkpt lat="45.9383600" lon="9.6003140">
	<ele>1468.20</ele>
	<time>2023-10-07T07:15:17.000Z</time>
</trkpt>
<trkpt lat="45.9383670" lon="9.6002990">
	<ele>1468.20</ele>
	<time>2023-10-07T07:15:18.000Z</time>
</trkpt>
<trkpt lat="45.9383740" lon="9.6002850">
	<ele>1468.20</ele>
	<time>2023-10-07T07:15:19.000Z</time>
</trkpt>
<trkpt lat="45.9383840" lon="9.6002720">
	<ele>1468.20</ele>
	<time>2023-10-07T07:15:20.000Z</time>
</trkpt>
<trkpt lat="45.9383950" lon="9.6002610">
	<ele>1468.20</ele>
	<time>2023-10-07T07:15:21.000Z</time>
</trkpt>
<trkpt lat="45.9384030" lon="9.6002520">
	<ele>1468.20</ele>
	<time>2023-10-07T07:15:22.000Z</time>
</trkpt>
<trkpt lat="45.9384120" lon="9.6002410">
	<ele>1468.20</ele>
	<time>2023-10-07T07:15:23.000Z</time>
</trkpt>
<trkpt lat="45.9384210" lon="9.6002350">
	<ele>1468.40</ele>
	<time>2023-10-07T07:15:24.000Z</time>
</trkpt>
<trkpt lat="45.9384300" lon="9.6002240">
	<ele>1468.40</ele>
	<time>2023-10-07T07:15:25.000Z</time>
</trkpt>
<trkpt lat="45.9384400" lon="9.6002150">
	<ele>1468.60</ele>
	<time>2023-10-07T07:15:26.000Z</time>
</trkpt>
<trkpt lat="45.9384520" lon="9.6002030">
	<ele>1468.60</ele>
	<time>2023-10-07T07:15:27.000Z</time>
</trkpt>
<trkpt lat="45.9384620" lon="9.6001900">
	<ele>1468.60</ele>
	<time>2023-10-07T07:15:28.000Z</time>
</trkpt>
<trkpt lat="45.9384720" lon="9.6001810">
	<ele>1468.80</ele>
	<time>2023-10-07T07:15:29.000Z</time>
</trkpt>
<trkpt lat="45.9384820" lon="9.6001730">
	<ele>1468.80</ele>
	<time>2023-10-07T07:15:30.000Z</time>
</trkpt>
<trkpt lat="45.9384920" lon="9.6001650">
	<ele>1468.80</ele>
	<time>2023-10-07T07:15:31.000Z</time>
</trkpt>
<trkpt lat="45.9384970" lon="9.6001620">
	<ele>1469.00</ele>
	<time>2023-10-07T07:15:32.000Z</time>
</trkpt>
<trkpt lat="45.9385030" lon="9.6001590">
	<ele>1469.00</ele>
	<time>2023-10-07T07:15:33.000Z</time>
</trkpt>
<trkpt lat="45.9385040" lon="9.6001600">
	<ele>1469.00</ele>
	<time>2023-10-07T07:15:34.000Z</time>
</trkpt>
<trkpt lat="45.9385050" lon="9.6001590">
	<ele>1469.20</ele>
	<time>2023-10-07T07:15:35.000Z</time>
</trkpt>
<trkpt lat="45.9385090" lon="9.6001620">
	<ele>1469.00</ele>
	<time>2023-10-07T07:15:36.000Z</time>
</trkpt>
<trkpt lat="45.9385120" lon="9.6001610">
	<ele>1469.00</ele>
	<time>2023-10-07T07:15:37.000Z</time>
</trkpt>
<trkpt lat="45.9385130" lon="9.6001590">
	<ele>1469.00</ele>
	<time>2023-10-07T07:15:38.000Z</time>
</trkpt>
<trkpt lat="45.9385110" lon="9.6001570">
	<ele>1469.00</ele>
	<time>2023-10-07T07:15:39.000Z</time>
</trkpt>
<trkpt lat="45.9385060" lon="9.6001500">
	<ele>1469.20</ele>
	<time>2023-10-07T07:15:40.000Z</time>
</trkpt>
<trkpt lat="45.9385040" lon="9.6001470">
	<ele>1469.20</ele>
	<time>2023-10-07T07:15:41.000Z</time>
</trkpt>
<trkpt lat="45.9385040" lon="9.6001490">
	<ele>1469.40</ele>
	<time>2023-10-07T07:15:42.000Z</time>
</trkpt>
<trkpt lat="45.9385050" lon="9.6001500">
	<ele>1469.40</ele>
	<time>2023-10-07T07:15:43.000Z</time>
</trkpt>
<trkpt lat="45.9385050" lon="9.6001480">
	<ele>1469.40</ele>
	<time>2023-10-07T07:15:44.000Z</time>
</trkpt>
<trkpt lat="45.9385050" lon="9.6001490">
	<ele>1469.40</ele>
	<time>2023-10-07T07:15:45.000Z</time>
</trkpt>
<trkpt lat="45.9385050" lon="9.6001490">
	<ele>1469.40</ele>
	<time>2023-10-07T07:15:46.000Z</time>
</trkpt>
<trkpt lat="45.9385050" lon="9.6001490">
	<ele>1469.40</ele>
	<time>2023-10-07T07:15:47.000Z</time>
</trkpt>
<trkpt lat="45.9385050" lon="9.6001490">
	<ele>1469.40</ele>
	<time>2023-10-07T07:15:48.000Z</time>
</trkpt>
<trkpt lat="45.9385050" lon="9.6001490">
	<ele>1469.40</ele>
	<time>2023-10-07T07:15:49.000Z</time>
</trkpt>
<trkpt lat="45.9385050" lon="9.6001490">
	<ele>1469.40</ele>
	<time>2023-10-07T07:15:50.000Z</time>
</trkpt>
<trkpt lat="45.9385050" lon="9.6001490">
	<ele>1469.60</ele>
	<time>2023-10-07T07:15:51.000Z</time>
</trkpt>
<trkpt lat="45.9385050" lon="9.6001490">
	<ele>1469.60</ele>
	<time>2023-10-07T07:15:52.000Z</time>
</trkpt>
<trkpt lat="45.9385050" lon="9.6001490">
	<ele>1469.60</ele>
	<time>2023-10-07T07:15:53.000Z</time>
</trkpt>
<trkpt lat="45.9385050" lon="9.6001490">
	<ele>1469.60</ele>
	<time>2023-10-07T07:15:54.000Z</time>
</trkpt>
<trkpt lat="45.9385050" lon="9.6001490">
	<ele>1469.60</ele>
	<time>2023-10-07T07:15:55.000Z</time>
</trkpt>
<trkpt lat="45.9385050" lon="9.6001490">
	<ele>1469.40</ele>
	<time>2023-10-07T07:15:56.000Z</time>
</trkpt>
<trkpt lat="45.9385050" lon="9.6001500">
	<ele>1469.20</ele>
	<time>2023-10-07T07:15:57.000Z</time>
</trkpt>
<trkpt lat="45.9385050" lon="9.6001500">
	<ele>1469.00</ele>
	<time>2023-10-07T07:15:58.000Z</time>
</trkpt>
<trkpt lat="45.9385050" lon="9.6001510">
	<ele>1469.00</ele>
	<time>2023-10-07T07:15:59.000Z</time>
</trkpt>
<trkpt lat="45.9385050" lon="9.6001520">
	<ele>1469.00</ele>
	<time>2023-10-07T07:16:00.000Z</time>
</trkpt>
<trkpt lat="45.9385050" lon="9.6001520">
	<ele>1469.00</ele>
	<time>2023-10-07T07:16:01.000Z</time>
</trkpt>
<trkpt lat="45.9385050" lon="9.6001530">
	<ele>1469.00</ele>
	<time>2023-10-07T07:16:02.000Z</time>
</trkpt>
<trkpt lat="45.9385050" lon="9.6001530">
	<ele>1469.00</ele>
	<time>2023-10-07T07:16:03.000Z</time>
</trkpt>
<trkpt lat="45.9385040" lon="9.6001530">
	<ele>1469.00</ele>
	<time>2023-10-07T07:16:04.000Z</time>
</trkpt>
<trkpt lat="45.9385040" lon="9.6001530">
	<ele>1469.00</ele>
	<time>2023-10-07T07:16:05.000Z</time>
</trkpt>
<trkpt lat="45.9385040" lon="9.6001530">
	<ele>1469.00</ele>
	<time>2023-10-07T07:16:06.000Z</time>
</trkpt>
<trkpt lat="45.9385040" lon="9.6001530">
	<ele>1469.00</ele>
	<time>2023-10-07T07:16:07.000Z</time>
</trkpt>
<trkpt lat="45.9385040" lon="9.6001520">
	<ele>1469.00</ele>
	<time>2023-10-07T07:16:08.000Z</time>
</trkpt>
<trkpt lat="45.9385040" lon="9.6001520">
	<ele>1469.20</ele>
	<time>2023-10-07T07:16:09.000Z</time>
</trkpt>
<trkpt lat="45.9385040" lon="9.6001520">
	<ele>1469.20</ele>
	<time>2023-10-07T07:16:10.000Z</time>
</trkpt>
<trkpt lat="45.9385050" lon="9.6001520">
	<ele>1469.40</ele>
	<time>2023-10-07T07:16:11.000Z</time>
</trkpt>
<trkpt lat="45.9385050" lon="9.6001520">
	<ele>1469.40</ele>
	<time>2023-10-07T07:16:12.000Z</time>
</trkpt>
<trkpt lat="45.9385050" lon="9.6001520">
	<ele>1469.40</ele>
	<time>2023-10-07T07:16:13.000Z</time>
</trkpt>
<trkpt lat="45.9385050" lon="9.6001520">
	<ele>1469.60</ele>
	<time>2023-10-07T07:16:14.000Z</time>
</trkpt>
<trkpt lat="45.9385050" lon="9.6001520">
	<ele>1469.80</ele>
	<time>2023-10-07T07:16:15.000Z</time>
</trkpt>
<trkpt lat="45.9385050" lon="9.6001520">
	<ele>1470.00</ele>
	<time>2023-10-07T07:16:16.000Z</time>
</trkpt>
<trkpt lat="45.9385060" lon="9.6001520">
	<ele>1470.00</ele>
	<time>2023-10-07T07:16:17.000Z</time>
</trkpt>
<trkpt lat="45.9385080" lon="9.6001480">
	<ele>1470.20</ele>
	<time>2023-10-07T07:16:18.000Z</time>
</trkpt>
<trkpt lat="45.9385140" lon="9.6001420">
	<ele>1470.20</ele>
	<time>2023-10-07T07:16:19.000Z</time>
</trkpt>
<trkpt lat="45.9385210" lon="9.6001410">
	<ele>1470.20</ele>
	<time>2023-10-07T07:16:20.000Z</time>
</trkpt>
<trkpt lat="45.9385250" lon="9.6001410">
	<ele>1470.20</ele>
	<time>2023-10-07T07:16:21.000Z</time>
</trkpt>
<trkpt lat="45.9385300" lon="9.6001410">
	<ele>1470.40</ele>
	<time>2023-10-07T07:16:22.000Z</time>
</trkpt>
<trkpt lat="45.9385330" lon="9.6001410">
	<ele>1470.20</ele>
	<time>2023-10-07T07:16:23.000Z</time>
</trkpt>
<trkpt lat="45.9385350" lon="9.6001410">
	<ele>1470.20</ele>
	<time>2023-10-07T07:16:24.000Z</time>
</trkpt>
<trkpt lat="45.9385380" lon="9.6001410">
	<ele>1470.20</ele>
	<time>2023-10-07T07:16:25.000Z</time>
</trkpt>
<trkpt lat="45.9385400" lon="9.6001410">
	<ele>1470.20</ele>
	<time>2023-10-07T07:16:26.000Z</time>
</trkpt>
<trkpt lat="45.9385420" lon="9.6001410">
	<ele>1470.20</ele>
	<time>2023-10-07T07:16:27.000Z</time>
</trkpt>
<trkpt lat="45.9385420" lon="9.6001410">
	<ele>1470.20</ele>
	<time>2023-10-07T07:16:28.000Z</time>
</trkpt>
<trkpt lat="45.9385450" lon="9.6001410">
	<ele>1470.20</ele>
	<time>2023-10-07T07:16:29.000Z</time>
</trkpt>
<trkpt lat="45.9385460" lon="9.6001410">
	<ele>1470.00</ele>
	<time>2023-10-07T07:16:30.000Z</time>
</trkpt>
<trkpt lat="45.9385460" lon="9.6001410">
	<ele>1469.80</ele>
	<time>2023-10-07T07:16:31.000Z</time>
</trkpt>
<trkpt lat="45.9385460" lon="9.6001400">
	<ele>1469.80</ele>
	<time>2023-10-07T07:16:32.000Z</time>
</trkpt>
<trkpt lat="45.9385460" lon="9.6001400">
	<ele>1469.80</ele>
	<time>2023-10-07T07:16:33.000Z</time>
</trkpt>
<trkpt lat="45.9385460" lon="9.6001390">
	<ele>1469.60</ele>
	<time>2023-10-07T07:16:34.000Z</time>
</trkpt>
<trkpt lat="45.9385470" lon="9.6001390">
	<ele>1469.60</ele>
	<time>2023-10-07T07:16:35.000Z</time>
</trkpt>
<trkpt lat="45.9385480" lon="9.6001390">
	<ele>1469.60</ele>
	<time>2023-10-07T07:16:36.000Z</time>
</trkpt>
<trkpt lat="45.9385480" lon="9.6001390">
	<ele>1469.60</ele>
	<time>2023-10-07T07:16:37.000Z</time>
</trkpt>
<trkpt lat="45.9385490" lon="9.6001390">
	<ele>1469.60</ele>
	<time>2023-10-07T07:16:38.000Z</time>
</trkpt>
<trkpt lat="45.9385500" lon="9.6001390">
	<ele>1469.60</ele>
	<time>2023-10-07T07:16:39.000Z</time>
</trkpt>
<trkpt lat="45.9385510" lon="9.6001390">
	<ele>1469.60</ele>
	<time>2023-10-07T07:16:40.000Z</time>
</trkpt>
<trkpt lat="45.9385520" lon="9.6001390">
	<ele>1469.60</ele>
	<time>2023-10-07T07:16:41.000Z</time>
</trkpt>
<trkpt lat="45.9385550" lon="9.6001300">
	<ele>1469.60</ele>
	<time>2023-10-07T07:16:42.000Z</time>
</trkpt>
<trkpt lat="45.9385670" lon="9.6001140">
	<ele>1470.00</ele>
	<time>2023-10-07T07:16:43.000Z</time>
</trkpt>
<trkpt lat="45.9385770" lon="9.6000990">
	<ele>1470.00</ele>
	<time>2023-10-07T07:16:44.000Z</time>
</trkpt>
<trkpt lat="45.9385880" lon="9.6000830">
	<ele>1470.00</ele>
	<time>2023-10-07T07:16:45.000Z</time>
</trkpt>
<trkpt lat="45.9385980" lon="9.6000680">
	<ele>1470.00</ele>
	<time>2023-10-07T07:16:46.000Z</time>
</trkpt>
<trkpt lat="45.9386080" lon="9.6000530">
	<ele>1470.00</ele>
	<time>2023-10-07T07:16:47.000Z</time>
</trkpt>
<trkpt lat="45.9386180" lon="9.6000380">
	<ele>1470.00</ele>
	<time>2023-10-07T07:16:48.000Z</time>
</trkpt>
<trkpt lat="45.9386270" lon="9.6000190">
	<ele>1470.00</ele>
	<time>2023-10-07T07:16:49.000Z</time>
</trkpt>
<trkpt lat="45.9386400" lon="9.6000000">
	<ele>1470.00</ele>
	<time>2023-10-07T07:16:50.000Z</time>
</trkpt>
<trkpt lat="45.9386540" lon="9.5999850">
	<ele>1470.00</ele>
	<time>2023-10-07T07:16:51.000Z</time>
</trkpt>
<trkpt lat="45.9386620" lon="9.5999780">
	<ele>1470.00</ele>
	<time>2023-10-07T07:16:52.000Z</time>
</trkpt>
<trkpt lat="45.9386700" lon="9.5999730">
	<ele>1470.00</ele>
	<time>2023-10-07T07:16:53.000Z</time>
</trkpt>
<trkpt lat="45.9386770" lon="9.5999630">
	<ele>1470.00</ele>
	<time>2023-10-07T07:16:54.000Z</time>
</trkpt>
<trkpt lat="45.9386860" lon="9.5999530">
	<ele>1470.00</ele>
	<time>2023-10-07T07:16:55.000Z</time>
</trkpt>
<trkpt lat="45.9386940" lon="9.5999440">
	<ele>1470.00</ele>
	<time>2023-10-07T07:16:56.000Z</time>
</trkpt>
<trkpt lat="45.9387050" lon="9.5999370">
	<ele>1470.00</ele>
	<time>2023-10-07T07:16:57.000Z</time>
</trkpt>
<trkpt lat="45.9387150" lon="9.5999300">
	<ele>1470.00</ele>
	<time>2023-10-07T07:16:58.000Z</time>
</trkpt>
<trkpt lat="45.9387230" lon="9.5999200">
	<ele>1470.00</ele>
	<time>2023-10-07T07:16:59.000Z</time>
</trkpt>
<trkpt lat="45.9387290" lon="9.5999080">
	<ele>1470.00</ele>
	<time>2023-10-07T07:17:00.000Z</time>
</trkpt>
<trkpt lat="45.9387360" lon="9.5998990">
	<ele>1470.00</ele>
	<time>2023-10-07T07:17:01.000Z</time>
</trkpt>
<trkpt lat="45.9387440" lon="9.5998900">
	<ele>1470.00</ele>
	<time>2023-10-07T07:17:02.000Z</time>
</trkpt>
<trkpt lat="45.9387520" lon="9.5998830">
	<ele>1470.00</ele>
	<time>2023-10-07T07:17:03.000Z</time>
</trkpt>
<trkpt lat="45.9387550" lon="9.5998760">
	<ele>1470.00</ele>
	<time>2023-10-07T07:17:04.000Z</time>
</trkpt>
<trkpt lat="45.9387610" lon="9.5998690">
	<ele>1470.00</ele>
	<time>2023-10-07T07:17:05.000Z</time>
</trkpt>
<trkpt lat="45.9387690" lon="9.5998590">
	<ele>1470.00</ele>
	<time>2023-10-07T07:17:06.000Z</time>
</trkpt>
<trkpt lat="45.9387750" lon="9.5998480">
	<ele>1470.00</ele>
	<time>2023-10-07T07:17:07.000Z</time>
</trkpt>
<trkpt lat="45.9387810" lon="9.5998340">
	<ele>1470.00</ele>
	<time>2023-10-07T07:17:08.000Z</time>
</trkpt>
<trkpt lat="45.9387870" lon="9.5998240">
	<ele>1470.00</ele>
	<time>2023-10-07T07:17:09.000Z</time>
</trkpt>
<trkpt lat="45.9387950" lon="9.5998170">
	<ele>1470.00</ele>
	<time>2023-10-07T07:17:10.000Z</time>
</trkpt>
<trkpt lat="45.9388030" lon="9.5998060">
	<ele>1470.00</ele>
	<time>2023-10-07T07:17:11.000Z</time>
</trkpt>
<trkpt lat="45.9388120" lon="9.5997930">
	<ele>1470.00</ele>
	<time>2023-10-07T07:17:12.000Z</time>
</trkpt>
<trkpt lat="45.9388170" lon="9.5997880">
	<ele>1470.00</ele>
	<time>2023-10-07T07:17:13.000Z</time>
</trkpt>
<trkpt lat="45.9388250" lon="9.5997760">
	<ele>1470.00</ele>
	<time>2023-10-07T07:17:14.000Z</time>
</trkpt>
<trkpt lat="45.9388290" lon="9.5997660">
	<ele>1469.80</ele>
	<time>2023-10-07T07:17:15.000Z</time>
</trkpt>
<trkpt lat="45.9388340" lon="9.5997550">
	<ele>1469.80</ele>
	<time>2023-10-07T07:17:16.000Z</time>
</trkpt>
<trkpt lat="45.9388410" lon="9.5997440">
	<ele>1469.60</ele>
	<time>2023-10-07T07:17:17.000Z</time>
</trkpt>
<trkpt lat="45.9388460" lon="9.5997340">
	<ele>1469.40</ele>
	<time>2023-10-07T07:17:18.000Z</time>
</trkpt>
<trkpt lat="45.9388540" lon="9.5997220">
	<ele>1469.20</ele>
	<time>2023-10-07T07:17:19.000Z</time>
</trkpt>
<trkpt lat="45.9388620" lon="9.5997080">
	<ele>1469.20</ele>
	<time>2023-10-07T07:17:20.000Z</time>
</trkpt>
<trkpt lat="45.9388650" lon="9.5996970">
	<ele>1469.20</ele>
	<time>2023-10-07T07:17:21.000Z</time>
</trkpt>
<trkpt lat="45.9388670" lon="9.5996870">
	<ele>1469.00</ele>
	<time>2023-10-07T07:17:22.000Z</time>
</trkpt>
<trkpt lat="45.9388710" lon="9.5996790">
	<ele>1469.00</ele>
	<time>2023-10-07T07:17:23.000Z</time>
</trkpt>
<trkpt lat="45.9388760" lon="9.5996670">
	<ele>1469.20</ele>
	<time>2023-10-07T07:17:24.000Z</time>
</trkpt>
<trkpt lat="45.9388800" lon="9.5996530">
	<ele>1469.20</ele>
	<time>2023-10-07T07:17:25.000Z</time>
</trkpt>
<trkpt lat="45.9388830" lon="9.5996410">
	<ele>1469.20</ele>
	<time>2023-10-07T07:17:26.000Z</time>
</trkpt>
<trkpt lat="45.9388870" lon="9.5996270">
	<ele>1469.20</ele>
	<time>2023-10-07T07:17:27.000Z</time>
</trkpt>
<trkpt lat="45.9388930" lon="9.5996140">
	<ele>1469.20</ele>
	<time>2023-10-07T07:17:28.000Z</time>
</trkpt>
<trkpt lat="45.9388980" lon="9.5996060">
	<ele>1469.40</ele>
	<time>2023-10-07T07:17:29.000Z</time>
</trkpt>
<trkpt lat="45.9389060" lon="9.5995980">
	<ele>1469.40</ele>
	<time>2023-10-07T07:17:30.000Z</time>
</trkpt>
<trkpt lat="45.9389120" lon="9.5995870">
	<ele>1469.60</ele>
	<time>2023-10-07T07:17:31.000Z</time>
</trkpt>
<trkpt lat="45.9389200" lon="9.5995800">
	<ele>1469.60</ele>
	<time>2023-10-07T07:17:32.000Z</time>
</trkpt>
<trkpt lat="45.9389280" lon="9.5995700">
	<ele>1469.80</ele>
	<time>2023-10-07T07:17:33.000Z</time>
</trkpt>
<trkpt lat="45.9389360" lon="9.5995650">
	<ele>1469.80</ele>
	<time>2023-10-07T07:17:34.000Z</time>
</trkpt>
<trkpt lat="45.9389450" lon="9.5995580">
	<ele>1470.00</ele>
	<time>2023-10-07T07:17:35.000Z</time>
</trkpt>
<trkpt lat="45.9389520" lon="9.5995500">
	<ele>1470.20</ele>
	<time>2023-10-07T07:17:36.000Z</time>
</trkpt>
<trkpt lat="45.9389580" lon="9.5995460">
	<ele>1470.20</ele>
	<time>2023-10-07T07:17:37.000Z</time>
</trkpt>
<trkpt lat="45.9389650" lon="9.5995390">
	<ele>1470.40</ele>
	<time>2023-10-07T07:17:38.000Z</time>
</trkpt>
<trkpt lat="45.9389740" lon="9.5995330">
	<ele>1470.40</ele>
	<time>2023-10-07T07:17:39.000Z</time>
</trkpt>
<trkpt lat="45.9389820" lon="9.5995260">
	<ele>1470.60</ele>
	<time>2023-10-07T07:17:40.000Z</time>
</trkpt>
<trkpt lat="45.9389900" lon="9.5995190">
	<ele>1470.80</ele>
	<time>2023-10-07T07:17:41.000Z</time>
</trkpt>
<trkpt lat="45.9390000" lon="9.5995130">
	<ele>1470.80</ele>
	<time>2023-10-07T07:17:42.000Z</time>
</trkpt>
<trkpt lat="45.9390090" lon="9.5995070">
	<ele>1471.00</ele>
	<time>2023-10-07T07:17:43.000Z</time>
</trkpt>
<trkpt lat="45.9390160" lon="9.5994980">
	<ele>1471.00</ele>
	<time>2023-10-07T07:17:44.000Z</time>
</trkpt>
<trkpt lat="45.9390210" lon="9.5994910">
	<ele>1471.20</ele>
	<time>2023-10-07T07:17:45.000Z</time>
</trkpt>
<trkpt lat="45.9390280" lon="9.5994820">
	<ele>1471.20</ele>
	<time>2023-10-07T07:17:46.000Z</time>
</trkpt>
<trkpt lat="45.9390370" lon="9.5994740">
	<ele>1471.20</ele>
	<time>2023-10-07T07:17:47.000Z</time>
</trkpt>
<trkpt lat="45.9390440" lon="9.5994700">
	<ele>1471.40</ele>
	<time>2023-10-07T07:17:48.000Z</time>
</trkpt>
<trkpt lat="45.9390520" lon="9.5994650">
	<ele>1471.40</ele>
	<time>2023-10-07T07:17:49.000Z</time>
</trkpt>
<trkpt lat="45.9390580" lon="9.5994560">
	<ele>1471.60</ele>
	<time>2023-10-07T07:17:50.000Z</time>
</trkpt>
<trkpt lat="45.9390640" lon="9.5994510">
	<ele>1471.80</ele>
	<time>2023-10-07T07:17:51.000Z</time>
</trkpt>
<trkpt lat="45.9390710" lon="9.5994460">
	<ele>1472.00</ele>
	<time>2023-10-07T07:17:52.000Z</time>
</trkpt>
<trkpt lat="45.9390800" lon="9.5994390">
	<ele>1472.00</ele>
	<time>2023-10-07T07:17:53.000Z</time>
</trkpt>
<trkpt lat="45.9390870" lon="9.5994340">
	<ele>1472.00</ele>
	<time>2023-10-07T07:17:54.000Z</time>
</trkpt>
<trkpt lat="45.9390990" lon="9.5994260">
	<ele>1472.00</ele>
	<time>2023-10-07T07:17:55.000Z</time>
</trkpt>
<trkpt lat="45.9391090" lon="9.5994190">
	<ele>1472.00</ele>
	<time>2023-10-07T07:17:56.000Z</time>
</trkpt>
<trkpt lat="45.9391160" lon="9.5994110">
	<ele>1472.00</ele>
	<time>2023-10-07T07:17:57.000Z</time>
</trkpt>
<trkpt lat="45.9391260" lon="9.5994060">
	<ele>1472.00</ele>
	<time>2023-10-07T07:17:58.000Z</time>
</trkpt>
<trkpt lat="45.9391360" lon="9.5994020">
	<ele>1472.00</ele>
	<time>2023-10-07T07:17:59.000Z</time>
</trkpt>
<trkpt lat="45.9391460" lon="9.5993990">
	<ele>1472.00</ele>
	<time>2023-10-07T07:18:00.000Z</time>
</trkpt>
<trkpt lat="45.9391550" lon="9.5993950">
	<ele>1472.00</ele>
	<time>2023-10-07T07:18:01.000Z</time>
</trkpt>
<trkpt lat="45.9391640" lon="9.5993930">
	<ele>1472.00</ele>
	<time>2023-10-07T07:18:02.000Z</time>
</trkpt>
<trkpt lat="45.9391720" lon="9.5993900">
	<ele>1472.00</ele>
	<time>2023-10-07T07:18:03.000Z</time>
</trkpt>
<trkpt lat="45.9391800" lon="9.5993880">
	<ele>1472.00</ele>
	<time>2023-10-07T07:18:04.000Z</time>
</trkpt>
<trkpt lat="45.9391880" lon="9.5993860">
	<ele>1472.20</ele>
	<time>2023-10-07T07:18:05.000Z</time>
</trkpt>
<trkpt lat="45.9391960" lon="9.5993810">
	<ele>1472.40</ele>
	<time>2023-10-07T07:18:06.000Z</time>
</trkpt>
<trkpt lat="45.9392040" lon="9.5993770">
	<ele>1472.60</ele>
	<time>2023-10-07T07:18:07.000Z</time>
</trkpt>
<trkpt lat="45.9392110" lon="9.5993690">
	<ele>1472.80</ele>
	<time>2023-10-07T07:18:08.000Z</time>
</trkpt>
<trkpt lat="45.9392200" lon="9.5993600">
	<ele>1472.80</ele>
	<time>2023-10-07T07:18:09.000Z</time>
</trkpt>
<trkpt lat="45.9392280" lon="9.5993500">
	<ele>1472.80</ele>
	<time>2023-10-07T07:18:10.000Z</time>
</trkpt>
<trkpt lat="45.9392380" lon="9.5993450">
	<ele>1473.00</ele>
	<time>2023-10-07T07:18:11.000Z</time>
</trkpt>
<trkpt lat="45.9392450" lon="9.5993430">
	<ele>1473.00</ele>
	<time>2023-10-07T07:18:12.000Z</time>
</trkpt>
<trkpt lat="45.9392550" lon="9.5993400">
	<ele>1473.00</ele>
	<time>2023-10-07T07:18:13.000Z</time>
</trkpt>
<trkpt lat="45.9392650" lon="9.5993330">
	<ele>1473.20</ele>
	<time>2023-10-07T07:18:14.000Z</time>
</trkpt>
<trkpt lat="45.9392740" lon="9.5993230">
	<ele>1473.20</ele>
	<time>2023-10-07T07:18:15.000Z</time>
</trkpt>
<trkpt lat="45.9392860" lon="9.5993190">
	<ele>1473.20</ele>
	<time>2023-10-07T07:18:16.000Z</time>
</trkpt>
<trkpt lat="45.9392970" lon="9.5993120">
	<ele>1473.20</ele>
	<time>2023-10-07T07:18:17.000Z</time>
</trkpt>
<trkpt lat="45.9393050" lon="9.5993000">
	<ele>1473.20</ele>
	<time>2023-10-07T07:18:18.000Z</time>
</trkpt>
<trkpt lat="45.9393130" lon="9.5992910">
	<ele>1473.20</ele>
	<time>2023-10-07T07:18:19.000Z</time>
</trkpt>
<trkpt lat="45.9393210" lon="9.5992810">
	<ele>1473.20</ele>
	<time>2023-10-07T07:18:20.000Z</time>
</trkpt>
<trkpt lat="45.9393280" lon="9.5992730">
	<ele>1473.20</ele>
	<time>2023-10-07T07:18:21.000Z</time>
</trkpt>
<trkpt lat="45.9393340" lon="9.5992680">
	<ele>1473.40</ele>
	<time>2023-10-07T07:18:22.000Z</time>
</trkpt>
<trkpt lat="45.9393400" lon="9.5992590">
	<ele>1473.40</ele>
	<time>2023-10-07T07:18:23.000Z</time>
</trkpt>
<trkpt lat="45.9393450" lon="9.5992500">
	<ele>1473.20</ele>
	<time>2023-10-07T07:18:24.000Z</time>
</trkpt>
<trkpt lat="45.9393490" lon="9.5992350">
	<ele>1473.20</ele>
	<time>2023-10-07T07:18:25.000Z</time>
</trkpt>
<trkpt lat="45.9393570" lon="9.5992250">
	<ele>1473.20</ele>
	<time>2023-10-07T07:18:26.000Z</time>
</trkpt>
<trkpt lat="45.9393660" lon="9.5992150">
	<ele>1473.20</ele>
	<time>2023-10-07T07:18:27.000Z</time>
</trkpt>
<trkpt lat="45.9393740" lon="9.5992020">
	<ele>1473.20</ele>
	<time>2023-10-07T07:18:28.000Z</time>
</trkpt>
<trkpt lat="45.9393810" lon="9.5991890">
	<ele>1473.20</ele>
	<time>2023-10-07T07:18:29.000Z</time>
</trkpt>
<trkpt lat="45.9393870" lon="9.5991790">
	<ele>1473.00</ele>
	<time>2023-10-07T07:18:30.000Z</time>
</trkpt>
<trkpt lat="45.9393900" lon="9.5991630">
	<ele>1473.00</ele>
	<time>2023-10-07T07:18:31.000Z</time>
</trkpt>
<trkpt lat="45.9393980" lon="9.5991530">
	<ele>1473.00</ele>
	<time>2023-10-07T07:18:32.000Z</time>
</trkpt>
<trkpt lat="45.9394060" lon="9.5991440">
	<ele>1473.00</ele>
	<time>2023-10-07T07:18:33.000Z</time>
</trkpt>
<trkpt lat="45.9394150" lon="9.5991300">
	<ele>1473.00</ele>
	<time>2023-10-07T07:18:34.000Z</time>
</trkpt>
<trkpt lat="45.9394210" lon="9.5991190">
	<ele>1473.00</ele>
	<time>2023-10-07T07:18:35.000Z</time>
</trkpt>
<trkpt lat="45.9394260" lon="9.5991040">
	<ele>1473.00</ele>
	<time>2023-10-07T07:18:36.000Z</time>
</trkpt>
<trkpt lat="45.9394300" lon="9.5990870">
	<ele>1473.00</ele>
	<time>2023-10-07T07:18:37.000Z</time>
</trkpt>
<trkpt lat="45.9394350" lon="9.5990760">
	<ele>1473.00</ele>
	<time>2023-10-07T07:18:38.000Z</time>
</trkpt>
<trkpt lat="45.9394410" lon="9.5990610">
	<ele>1473.00</ele>
	<time>2023-10-07T07:18:39.000Z</time>
</trkpt>
<trkpt lat="45.9394470" lon="9.5990510">
	<ele>1473.00</ele>
	<time>2023-10-07T07:18:40.000Z</time>
</trkpt>
<trkpt lat="45.9394570" lon="9.5990410">
	<ele>1473.00</ele>
	<time>2023-10-07T07:18:41.000Z</time>
</trkpt>
<trkpt lat="45.9394640" lon="9.5990290">
	<ele>1473.00</ele>
	<time>2023-10-07T07:18:42.000Z</time>
</trkpt>
<trkpt lat="45.9394700" lon="9.5990130">
	<ele>1473.00</ele>
	<time>2023-10-07T07:18:43.000Z</time>
</trkpt>
<trkpt lat="45.9394750" lon="9.5989970">
	<ele>1473.00</ele>
	<time>2023-10-07T07:18:44.000Z</time>
</trkpt>
<trkpt lat="45.9394810" lon="9.5989800">
	<ele>1472.80</ele>
	<time>2023-10-07T07:18:45.000Z</time>
</trkpt>
<trkpt lat="45.9394840" lon="9.5989650">
	<ele>1472.80</ele>
	<time>2023-10-07T07:18:46.000Z</time>
</trkpt>
<trkpt lat="45.9394900" lon="9.5989510">
	<ele>1472.80</ele>
	<time>2023-10-07T07:18:47.000Z</time>
</trkpt>
<trkpt lat="45.9394960" lon="9.5989390">
	<ele>1472.80</ele>
	<time>2023-10-07T07:18:48.000Z</time>
</trkpt>
<trkpt lat="45.9395020" lon="9.5989260">
	<ele>1472.80</ele>
	<time>2023-10-07T07:18:49.000Z</time>
</trkpt>
<trkpt lat="45.9395090" lon="9.5989110">
	<ele>1472.80</ele>
	<time>2023-10-07T07:18:50.000Z</time>
</trkpt>
<trkpt lat="45.9395190" lon="9.5988970">
	<ele>1472.80</ele>
	<time>2023-10-07T07:18:51.000Z</time>
</trkpt>
<trkpt lat="45.9395280" lon="9.5988860">
	<ele>1473.00</ele>
	<time>2023-10-07T07:18:52.000Z</time>
</trkpt>
<trkpt lat="45.9395350" lon="9.5988760">
	<ele>1473.00</ele>
	<time>2023-10-07T07:18:53.000Z</time>
</trkpt>
<trkpt lat="45.9395430" lon="9.5988680">
	<ele>1473.00</ele>
	<time>2023-10-07T07:18:54.000Z</time>
</trkpt>
<trkpt lat="45.9395470" lon="9.5988580">
	<ele>1473.20</ele>
	<time>2023-10-07T07:18:55.000Z</time>
</trkpt>
<trkpt lat="45.9395540" lon="9.5988470">
	<ele>1473.20</ele>
	<time>2023-10-07T07:18:56.000Z</time>
</trkpt>
<trkpt lat="45.9395600" lon="9.5988330">
	<ele>1473.20</ele>
	<time>2023-10-07T07:18:57.000Z</time>
</trkpt>
<trkpt lat="45.9395660" lon="9.5988150">
	<ele>1473.20</ele>
	<time>2023-10-07T07:18:58.000Z</time>
</trkpt>
<trkpt lat="45.9395750" lon="9.5988010">
	<ele>1473.20</ele>
	<time>2023-10-07T07:18:59.000Z</time>
</trkpt>
<trkpt lat="45.9395830" lon="9.5987920">
	<ele>1473.00</ele>
	<time>2023-10-07T07:19:00.000Z</time>
</trkpt>
<trkpt lat="45.9395890" lon="9.5987750">
	<ele>1473.00</ele>
	<time>2023-10-07T07:19:01.000Z</time>
</trkpt>
<trkpt lat="45.9395980" lon="9.5987640">
	<ele>1473.00</ele>
	<time>2023-10-07T07:19:02.000Z</time>
</trkpt>
<trkpt lat="45.9396060" lon="9.5987530">
	<ele>1473.00</ele>
	<time>2023-10-07T07:19:03.000Z</time>
</trkpt>
<trkpt lat="45.9396160" lon="9.5987490">
	<ele>1473.20</ele>
	<time>2023-10-07T07:19:04.000Z</time>
</trkpt>
<trkpt lat="45.9396250" lon="9.5987470">
	<ele>1473.20</ele>
	<time>2023-10-07T07:19:05.000Z</time>
</trkpt>
<trkpt lat="45.9396290" lon="9.5987400">
	<ele>1473.40</ele>
	<time>2023-10-07T07:19:06.000Z</time>
</trkpt>
<trkpt lat="45.9396330" lon="9.5987330">
	<ele>1473.60</ele>
	<time>2023-10-07T07:19:07.000Z</time>
</trkpt>
<trkpt lat="45.9396370" lon="9.5987240">
	<ele>1473.60</ele>
	<time>2023-10-07T07:19:08.000Z</time>
</trkpt>
<trkpt lat="45.9396440" lon="9.5987190">
	<ele>1473.80</ele>
	<time>2023-10-07T07:19:09.000Z</time>
</trkpt>
<trkpt lat="45.9396510" lon="9.5987140">
	<ele>1474.00</ele>
	<time>2023-10-07T07:19:10.000Z</time>
</trkpt>
<trkpt lat="45.9396590" lon="9.5987090">
	<ele>1474.20</ele>
	<time>2023-10-07T07:19:11.000Z</time>
</trkpt>
<trkpt lat="45.9396630" lon="9.5987040">
	<ele>1474.60</ele>
	<time>2023-10-07T07:19:12.000Z</time>
</trkpt>
<trkpt lat="45.9396660" lon="9.5986960">
	<ele>1474.60</ele>
	<time>2023-10-07T07:19:13.000Z</time>
</trkpt>
<trkpt lat="45.9396720" lon="9.5986900">
	<ele>1474.80</ele>
	<time>2023-10-07T07:19:14.000Z</time>
</trkpt>
<trkpt lat="45.9396790" lon="9.5986840">
	<ele>1474.80</ele>
	<time>2023-10-07T07:19:15.000Z</time>
</trkpt>
<trkpt lat="45.9396880" lon="9.5986770">
	<ele>1475.00</ele>
	<time>2023-10-07T07:19:16.000Z</time>
</trkpt>
<trkpt lat="45.9396940" lon="9.5986700">
	<ele>1475.20</ele>
	<time>2023-10-07T07:19:17.000Z</time>
</trkpt>
<trkpt lat="45.9397020" lon="9.5986670">
	<ele>1475.40</ele>
	<time>2023-10-07T07:19:18.000Z</time>
</trkpt>
<trkpt lat="45.9397100" lon="9.5986650">
	<ele>1475.60</ele>
	<time>2023-10-07T07:19:19.000Z</time>
</trkpt>
<trkpt lat="45.9397170" lon="9.5986620">
	<ele>1475.60</ele>
	<time>2023-10-07T07:19:20.000Z</time>
</trkpt>
<trkpt lat="45.9397250" lon="9.5986570">
	<ele>1475.80</ele>
	<time>2023-10-07T07:19:21.000Z</time>
</trkpt>
<trkpt lat="45.9397320" lon="9.5986530">
	<ele>1475.80</ele>
	<time>2023-10-07T07:19:22.000Z</time>
</trkpt>
<trkpt lat="45.9397380" lon="9.5986480">
	<ele>1476.00</ele>
	<time>2023-10-07T07:19:23.000Z</time>
</trkpt>
<trkpt lat="45.9397450" lon="9.5986420">
	<ele>1476.00</ele>
	<time>2023-10-07T07:19:24.000Z</time>
</trkpt>
<trkpt lat="45.9397510" lon="9.5986370">
	<ele>1476.20</ele>
	<time>2023-10-07T07:19:25.000Z</time>
</trkpt>
<trkpt lat="45.9397590" lon="9.5986270">
	<ele>1476.20</ele>
	<time>2023-10-07T07:19:26.000Z</time>
</trkpt>
<trkpt lat="45.9397670" lon="9.5986170">
	<ele>1476.20</ele>
	<time>2023-10-07T07:19:27.000Z</time>
</trkpt>
<trkpt lat="45.9397730" lon="9.5986090">
	<ele>1476.40</ele>
	<time>2023-10-07T07:19:28.000Z</time>
</trkpt>
<trkpt lat="45.9397800" lon="9.5986030">
	<ele>1476.40</ele>
	<time>2023-10-07T07:19:29.000Z</time>
</trkpt>
<trkpt lat="45.9397870" lon="9.5985950">
	<ele>1476.60</ele>
	<time>2023-10-07T07:19:30.000Z</time>
</trkpt>
<trkpt lat="45.9397940" lon="9.5985900">
	<ele>1476.60</ele>
	<time>2023-10-07T07:19:31.000Z</time>
</trkpt>
<trkpt lat="45.9398000" lon="9.5985840">
	<ele>1476.80</ele>
	<time>2023-10-07T07:19:32.000Z</time>
</trkpt>
<trkpt lat="45.9398070" lon="9.5985750">
	<ele>1476.80</ele>
	<time>2023-10-07T07:19:33.000Z</time>
</trkpt>
<trkpt lat="45.9398130" lon="9.5985680">
	<ele>1477.00</ele>
	<time>2023-10-07T07:19:34.000Z</time>
</trkpt>
<trkpt lat="45.9398200" lon="9.5985610">
	<ele>1477.00</ele>
	<time>2023-10-07T07:19:35.000Z</time>
</trkpt>
<trkpt lat="45.9398280" lon="9.5985560">
	<ele>1477.00</ele>
	<time>2023-10-07T07:19:36.000Z</time>
</trkpt>
<trkpt lat="45.9398330" lon="9.5985520">
	<ele>1477.40</ele>
	<time>2023-10-07T07:19:37.000Z</time>
</trkpt>
<trkpt lat="45.9398380" lon="9.5985450">
	<ele>1477.80</ele>
	<time>2023-10-07T07:19:38.000Z</time>
</trkpt>
<trkpt lat="45.9398430" lon="9.5985360">
	<ele>1477.80</ele>
	<time>2023-10-07T07:19:39.000Z</time>
</trkpt>
<trkpt lat="45.9398470" lon="9.5985300">
	<ele>1478.00</ele>
	<time>2023-10-07T07:19:40.000Z</time>
</trkpt>
<trkpt lat="45.9398520" lon="9.5985240">
	<ele>1478.00</ele>
	<time>2023-10-07T07:19:41.000Z</time>
</trkpt>
<trkpt lat="45.9398590" lon="9.5985180">
	<ele>1478.00</ele>
	<time>2023-10-07T07:19:42.000Z</time>
</trkpt>
<trkpt lat="45.9398670" lon="9.5985130">
	<ele>1478.20</ele>
	<time>2023-10-07T07:19:43.000Z</time>
</trkpt>
<trkpt lat="45.9398750" lon="9.5985080">
	<ele>1478.20</ele>
	<time>2023-10-07T07:19:44.000Z</time>
</trkpt>
<trkpt lat="45.9398830" lon="9.5985010">
	<ele>1478.20</ele>
	<time>2023-10-07T07:19:45.000Z</time>
</trkpt>
<trkpt lat="45.9398870" lon="9.5984950">
	<ele>1478.60</ele>
	<time>2023-10-07T07:19:46.000Z</time>
</trkpt>
<trkpt lat="45.9398930" lon="9.5984880">
	<ele>1478.80</ele>
	<time>2023-10-07T07:19:47.000Z</time>
</trkpt>
<trkpt lat="45.9399000" lon="9.5984780">
	<ele>1478.80</ele>
	<time>2023-10-07T07:19:48.000Z</time>
</trkpt>
<trkpt lat="45.9399070" lon="9.5984680">
	<ele>1479.00</ele>
	<time>2023-10-07T07:19:49.000Z</time>
</trkpt>
<trkpt lat="45.9399110" lon="9.5984570">
	<ele>1479.00</ele>
	<time>2023-10-07T07:19:50.000Z</time>
</trkpt>
<trkpt lat="45.9399170" lon="9.5984460">
	<ele>1479.00</ele>
	<time>2023-10-07T07:19:51.000Z</time>
</trkpt>
<trkpt lat="45.9399220" lon="9.5984330">
	<ele>1479.20</ele>
	<time>2023-10-07T07:19:52.000Z</time>
</trkpt>
<trkpt lat="45.9399260" lon="9.5984270">
	<ele>1479.20</ele>
	<time>2023-10-07T07:19:53.000Z</time>
</trkpt>
<trkpt lat="45.9399280" lon="9.5984240">
	<ele>1479.40</ele>
	<time>2023-10-07T07:19:54.000Z</time>
</trkpt>
<trkpt lat="45.9399280" lon="9.5984240">
	<ele>1479.40</ele>
	<time>2023-10-07T07:19:55.000Z</time>
</trkpt>
<trkpt lat="45.9399270" lon="9.5984230">
	<ele>1479.40</ele>
	<time>2023-10-07T07:19:56.000Z</time>
</trkpt>
<trkpt lat="45.9399280" lon="9.5984230">
	<ele>1479.40</ele>
	<time>2023-10-07T07:19:57.000Z</time>
</trkpt>
<trkpt lat="45.9399280" lon="9.5984230">
	<ele>1479.40</ele>
	<time>2023-10-07T07:19:58.000Z</time>
</trkpt>
<trkpt lat="45.9399280" lon="9.5984220">
	<ele>1479.80</ele>
	<time>2023-10-07T07:19:59.000Z</time>
</trkpt>
<trkpt lat="45.9399270" lon="9.5984220">
	<ele>1479.80</ele>
	<time>2023-10-07T07:20:00.000Z</time>
</trkpt>
<trkpt lat="45.9399260" lon="9.5984220">
	<ele>1480.00</ele>
	<time>2023-10-07T07:20:01.000Z</time>
</trkpt>
<trkpt lat="45.9399270" lon="9.5984220">
	<ele>1480.20</ele>
	<time>2023-10-07T07:20:02.000Z</time>
</trkpt>
<trkpt lat="45.9399270" lon="9.5984220">
	<ele>1480.40</ele>
	<time>2023-10-07T07:20:03.000Z</time>
</trkpt>
<trkpt lat="45.9399270" lon="9.5984220">
	<ele>1480.40</ele>
	<time>2023-10-07T07:20:04.000Z</time>
</trkpt>
<trkpt lat="45.9399270" lon="9.5984220">
	<ele>1480.40</ele>
	<time>2023-10-07T07:20:05.000Z</time>
</trkpt>
<trkpt lat="45.9399270" lon="9.5984220">
	<ele>1480.40</ele>
	<time>2023-10-07T07:20:06.000Z</time>
</trkpt>
<trkpt lat="45.9399270" lon="9.5984220">
	<ele>1480.40</ele>
	<time>2023-10-07T07:20:07.000Z</time>
</trkpt>
<trkpt lat="45.9399270" lon="9.5984220">
	<ele>1480.00</ele>
	<time>2023-10-07T07:20:08.000Z</time>
</trkpt>
<trkpt lat="45.9399270" lon="9.5984220">
	<ele>1479.80</ele>
	<time>2023-10-07T07:20:09.000Z</time>
</trkpt>
<trkpt lat="45.9399270" lon="9.5984220">
	<ele>1479.60</ele>
	<time>2023-10-07T07:20:10.000Z</time>
</trkpt>
<trkpt lat="45.9399270" lon="9.5984220">
	<ele>1479.60</ele>
	<time>2023-10-07T07:20:11.000Z</time>
</trkpt>
<trkpt lat="45.9399270" lon="9.5984220">
	<ele>1479.60</ele>
	<time>2023-10-07T07:20:12.000Z</time>
</trkpt>
<trkpt lat="45.9399270" lon="9.5984220">
	<ele>1479.60</ele>
	<time>2023-10-07T07:20:13.000Z</time>
</trkpt>
<trkpt lat="45.9399310" lon="9.5984180">
	<ele>1479.60</ele>
	<time>2023-10-07T07:20:14.000Z</time>
</trkpt>
<trkpt lat="45.9399430" lon="9.5984080">
	<ele>1479.80</ele>
	<time>2023-10-07T07:20:15.000Z</time>
</trkpt>
<trkpt lat="45.9399570" lon="9.5983950">
	<ele>1479.80</ele>
	<time>2023-10-07T07:20:16.000Z</time>
</trkpt>
<trkpt lat="45.9399710" lon="9.5983820">
	<ele>1480.00</ele>
	<time>2023-10-07T07:20:17.000Z</time>
</trkpt>
<trkpt lat="45.9399830" lon="9.5983720">
	<ele>1480.00</ele>
	<time>2023-10-07T07:20:18.000Z</time>
</trkpt>
<trkpt lat="45.9399960" lon="9.5983610">
	<ele>1480.20</ele>
	<time>2023-10-07T07:20:19.000Z</time>
</trkpt>
<trkpt lat="45.9400100" lon="9.5983480">
	<ele>1480.20</ele>
	<time>2023-10-07T07:20:20.000Z</time>
</trkpt>
<trkpt lat="45.9400240" lon="9.5983340">
	<ele>1480.40</ele>
	<time>2023-10-07T07:20:21.000Z</time>
</trkpt>
<trkpt lat="45.9400360" lon="9.5983190">
	<ele>1480.40</ele>
	<time>2023-10-07T07:20:22.000Z</time>
</trkpt>
<trkpt lat="45.9400480" lon="9.5983050">
	<ele>1480.60</ele>
	<time>2023-10-07T07:20:23.000Z</time>
</trkpt>
<trkpt lat="45.9400560" lon="9.5982940">
	<ele>1480.80</ele>
	<time>2023-10-07T07:20:24.000Z</time>
</trkpt>
<trkpt lat="45.9400620" lon="9.5982820">
	<ele>1480.80</ele>
	<time>2023-10-07T07:20:25.000Z</time>
</trkpt>
<trkpt lat="45.9400680" lon="9.5982750">
	<ele>1481.00</ele>
	<time>2023-10-07T07:20:26.000Z</time>
</trkpt>
<trkpt lat="45.9400740" lon="9.5982680">
	<ele>1481.20</ele>
	<time>2023-10-07T07:20:27.000Z</time>
</trkpt>
<trkpt lat="45.9400830" lon="9.5982620">
	<ele>1481.20</ele>
	<time>2023-10-07T07:20:28.000Z</time>
</trkpt>
<trkpt lat="45.9400890" lon="9.5982540">
	<ele>1481.40</ele>
	<time>2023-10-07T07:20:29.000Z</time>
</trkpt>
<trkpt lat="45.9400950" lon="9.5982430">
	<ele>1481.60</ele>
	<time>2023-10-07T07:20:30.000Z</time>
</trkpt>
<trkpt lat="45.9401030" lon="9.5982360">
	<ele>1481.80</ele>
	<time>2023-10-07T07:20:31.000Z</time>
</trkpt>
<trkpt lat="45.9401090" lon="9.5982240">
	<ele>1482.00</ele>
	<time>2023-10-07T07:20:32.000Z</time>
</trkpt>
<trkpt lat="45.9401160" lon="9.5982150">
	<ele>1482.20</ele>
	<time>2023-10-07T07:20:33.000Z</time>
</trkpt>
<trkpt lat="45.9401230" lon="9.5982070">
	<ele>1482.40</ele>
	<time>2023-10-07T07:20:34.000Z</time>
</trkpt>
<trkpt lat="45.9401290" lon="9.5982020">
	<ele>1482.40</ele>
	<time>2023-10-07T07:20:35.000Z</time>
</trkpt>
<trkpt lat="45.9401330" lon="9.5981880">
	<ele>1482.80</ele>
	<time>2023-10-07T07:20:36.000Z</time>
</trkpt>
<trkpt lat="45.9401380" lon="9.5981790">
	<ele>1483.00</ele>
	<time>2023-10-07T07:20:37.000Z</time>
</trkpt>
<trkpt lat="45.9401460" lon="9.5981720">
	<ele>1483.20</ele>
	<time>2023-10-07T07:20:38.000Z</time>
</trkpt>
<trkpt lat="45.9401520" lon="9.5981680">
	<ele>1483.40</ele>
	<time>2023-10-07T07:20:39.000Z</time>
</trkpt>
<trkpt lat="45.9401560" lon="9.5981640">
	<ele>1483.60</ele>
	<time>2023-10-07T07:20:40.000Z</time>
</trkpt>
<trkpt lat="45.9401590" lon="9.5981580">
	<ele>1483.80</ele>
	<time>2023-10-07T07:20:41.000Z</time>
</trkpt>
<trkpt lat="45.9401650" lon="9.5981540">
	<ele>1484.00</ele>
	<time>2023-10-07T07:20:42.000Z</time>
</trkpt>
<trkpt lat="45.9401710" lon="9.5981520">
	<ele>1484.20</ele>
	<time>2023-10-07T07:20:43.000Z</time>
</trkpt>
<trkpt lat="45.9401750" lon="9.5981490">
	<ele>1484.60</ele>
	<time>2023-10-07T07:20:44.000Z</time>
</trkpt>
<trkpt lat="45.9401780" lon="9.5981470">
	<ele>1484.60</ele>
	<time>2023-10-07T07:20:45.000Z</time>
</trkpt>
<trkpt lat="45.9401800" lon="9.5981420">
	<ele>1484.80</ele>
	<time>2023-10-07T07:20:46.000Z</time>
</trkpt>
<trkpt lat="45.9401820" lon="9.5981360">
	<ele>1485.00</ele>
	<time>2023-10-07T07:20:47.000Z</time>
</trkpt>
<trkpt lat="45.9401870" lon="9.5981300">
	<ele>1485.20</ele>
	<time>2023-10-07T07:20:48.000Z</time>
</trkpt>
<trkpt lat="45.9401900" lon="9.5981220">
	<ele>1485.40</ele>
	<time>2023-10-07T07:20:49.000Z</time>
</trkpt>
<trkpt lat="45.9401930" lon="9.5981170">
	<ele>1485.60</ele>
	<time>2023-10-07T07:20:50.000Z</time>
</trkpt>
<trkpt lat="45.9401960" lon="9.5981140">
	<ele>1485.60</ele>
	<time>2023-10-07T07:20:51.000Z</time>
</trkpt>
<trkpt lat="45.9402000" lon="9.5981120">
	<ele>1485.80</ele>
	<time>2023-10-07T07:20:52.000Z</time>
</trkpt>
<trkpt lat="45.9402040" lon="9.5981100">
	<ele>1486.00</ele>
	<time>2023-10-07T07:20:53.000Z</time>
</trkpt>
<trkpt lat="45.9402070" lon="9.5981090">
	<ele>1486.20</ele>
	<time>2023-10-07T07:20:54.000Z</time>
</trkpt>
<trkpt lat="45.9402100" lon="9.5981060">
	<ele>1486.40</ele>
	<time>2023-10-07T07:20:55.000Z</time>
</trkpt>
<trkpt lat="45.9402150" lon="9.5981040">
	<ele>1486.60</ele>
	<time>2023-10-07T07:20:56.000Z</time>
</trkpt>
<trkpt lat="45.9402210" lon="9.5981020">
	<ele>1486.80</ele>
	<time>2023-10-07T07:20:57.000Z</time>
</trkpt>
<trkpt lat="45.9402240" lon="9.5981000">
	<ele>1486.80</ele>
	<time>2023-10-07T07:20:58.000Z</time>
</trkpt>
<trkpt lat="45.9402250" lon="9.5980960">
	<ele>1487.00</ele>
	<time>2023-10-07T07:20:59.000Z</time>
</trkpt>
<trkpt lat="45.9402250" lon="9.5980880">
	<ele>1487.00</ele>
	<time>2023-10-07T07:21:00.000Z</time>
</trkpt>
<trkpt lat="45.9402260" lon="9.5980820">
	<ele>1487.40</ele>
	<time>2023-10-07T07:21:01.000Z</time>
</trkpt>
<trkpt lat="45.9402330" lon="9.5980800">
	<ele>1487.60</ele>
	<time>2023-10-07T07:21:02.000Z</time>
</trkpt>
<trkpt lat="45.9402370" lon="9.5980760">
	<ele>1487.60</ele>
	<time>2023-10-07T07:21:03.000Z</time>
</trkpt>
<trkpt lat="45.9402390" lon="9.5980730">
	<ele>1488.00</ele>
	<time>2023-10-07T07:21:04.000Z</time>
</trkpt>
<trkpt lat="45.9402420" lon="9.5980710">
	<ele>1488.20</ele>
	<time>2023-10-07T07:21:05.000Z</time>
</trkpt>
<trkpt lat="45.9402500" lon="9.5980690">
	<ele>1488.40</ele>
	<time>2023-10-07T07:21:06.000Z</time>
</trkpt>
<trkpt lat="45.9402540" lon="9.5980660">
	<ele>1488.60</ele>
	<time>2023-10-07T07:21:07.000Z</time>
</trkpt>
<trkpt lat="45.9402580" lon="9.5980630">
	<ele>1488.80</ele>
	<time>2023-10-07T07:21:08.000Z</time>
</trkpt>
<trkpt lat="45.9402610" lon="9.5980610">
	<ele>1488.80</ele>
	<time>2023-10-07T07:21:09.000Z</time>
</trkpt>
<trkpt lat="45.9402630" lon="9.5980570">
	<ele>1489.00</ele>
	<time>2023-10-07T07:21:10.000Z</time>
</trkpt>
<trkpt lat="45.9402650" lon="9.5980550">
	<ele>1489.20</ele>
	<time>2023-10-07T07:21:11.000Z</time>
</trkpt>
<trkpt lat="45.9402670" lon="9.5980490">
	<ele>1489.60</ele>
	<time>2023-10-07T07:21:12.000Z</time>
</trkpt>
<trkpt lat="45.9402710" lon="9.5980440">
	<ele>1489.60</ele>
	<time>2023-10-07T07:21:13.000Z</time>
</trkpt>
<trkpt lat="45.9402740" lon="9.5980390">
	<ele>1489.80</ele>
	<time>2023-10-07T07:21:14.000Z</time>
</trkpt>
<trkpt lat="45.9402790" lon="9.5980330">
	<ele>1490.00</ele>
	<time>2023-10-07T07:21:15.000Z</time>
</trkpt>
<trkpt lat="45.9402820" lon="9.5980300">
	<ele>1490.20</ele>
	<time>2023-10-07T07:21:16.000Z</time>
</trkpt>
<trkpt lat="45.9402840" lon="9.5980290">
	<ele>1490.40</ele>
	<time>2023-10-07T07:21:17.000Z</time>
</trkpt>
<trkpt lat="45.9402860" lon="9.5980210">
	<ele>1490.60</ele>
	<time>2023-10-07T07:21:18.000Z</time>
</trkpt>
<trkpt lat="45.9402890" lon="9.5980140">
	<ele>1490.80</ele>
	<time>2023-10-07T07:21:19.000Z</time>
</trkpt>
<trkpt lat="45.9402920" lon="9.5980080">
	<ele>1490.80</ele>
	<time>2023-10-07T07:21:20.000Z</time>
</trkpt>
<trkpt lat="45.9402980" lon="9.5980060">
	<ele>1491.00</ele>
	<time>2023-10-07T07:21:21.000Z</time>
</trkpt>
<trkpt lat="45.9403040" lon="9.5980030">
	<ele>1491.20</ele>
	<time>2023-10-07T07:21:22.000Z</time>
</trkpt>
<trkpt lat="45.9403080" lon="9.5980020">
	<ele>1491.40</ele>
	<time>2023-10-07T07:21:23.000Z</time>
</trkpt>
<trkpt lat="45.9403140" lon="9.5979990">
	<ele>1491.60</ele>
	<time>2023-10-07T07:21:24.000Z</time>
</trkpt>
<trkpt lat="45.9403190" lon="9.5979950">
	<ele>1491.80</ele>
	<time>2023-10-07T07:21:25.000Z</time>
</trkpt>
<trkpt lat="45.9403220" lon="9.5979890">
	<ele>1492.00</ele>
	<time>2023-10-07T07:21:26.000Z</time>
</trkpt>
<trkpt lat="45.9403260" lon="9.5979860">
	<ele>1492.20</ele>
	<time>2023-10-07T07:21:27.000Z</time>
</trkpt>
<trkpt lat="45.9403300" lon="9.5979800">
	<ele>1492.40</ele>
	<time>2023-10-07T07:21:28.000Z</time>
</trkpt>
<trkpt lat="45.9403350" lon="9.5979760">
	<ele>1492.40</ele>
	<time>2023-10-07T07:21:29.000Z</time>
</trkpt>
<trkpt lat="45.9403380" lon="9.5979710">
	<ele>1492.80</ele>
	<time>2023-10-07T07:21:30.000Z</time>
</trkpt>
<trkpt lat="45.9403410" lon="9.5979650">
	<ele>1493.00</ele>
	<time>2023-10-07T07:21:31.000Z</time>
</trkpt>
<trkpt lat="45.9403440" lon="9.5979590">
	<ele>1493.00</ele>
	<time>2023-10-07T07:21:32.000Z</time>
</trkpt>
<trkpt lat="45.9403480" lon="9.5979550">
	<ele>1493.20</ele>
	<time>2023-10-07T07:21:33.000Z</time>
</trkpt>
<trkpt lat="45.9403500" lon="9.5979520">
	<ele>1493.40</ele>
	<time>2023-10-07T07:21:34.000Z</time>
</trkpt>
<trkpt lat="45.9403500" lon="9.5979390">
	<ele>1493.60</ele>
	<time>2023-10-07T07:21:35.000Z</time>
</trkpt>
<trkpt lat="45.9403540" lon="9.5979340">
	<ele>1493.80</ele>
	<time>2023-10-07T07:21:36.000Z</time>
</trkpt>
<trkpt lat="45.9403580" lon="9.5979310">
	<ele>1494.00</ele>
	<time>2023-10-07T07:21:37.000Z</time>
</trkpt>
<trkpt lat="45.9403610" lon="9.5979270">
	<ele>1494.20</ele>
	<time>2023-10-07T07:21:38.000Z</time>
</trkpt>
<trkpt lat="45.9403690" lon="9.5979280">
	<ele>1494.40</ele>
	<time>2023-10-07T07:21:39.000Z</time>
</trkpt>
<trkpt lat="45.9403730" lon="9.5979250">
	<ele>1494.40</ele>
	<time>2023-10-07T07:21:40.000Z</time>
</trkpt>
<trkpt lat="45.9403780" lon="9.5979210">
	<ele>1494.80</ele>
	<time>2023-10-07T07:21:41.000Z</time>
</trkpt>
<trkpt lat="45.9403800" lon="9.5979140">
	<ele>1495.00</ele>
	<time>2023-10-07T07:21:42.000Z</time>
</trkpt>
<trkpt lat="45.9403850" lon="9.5979080">
	<ele>1495.00</ele>
	<time>2023-10-07T07:21:43.000Z</time>
</trkpt>
<trkpt lat="45.9403880" lon="9.5979060">
	<ele>1495.20</ele>
	<time>2023-10-07T07:21:44.000Z</time>
</trkpt>
<trkpt lat="45.9403910" lon="9.5978990">
	<ele>1495.40</ele>
	<time>2023-10-07T07:21:45.000Z</time>
</trkpt>
<trkpt lat="45.9403960" lon="9.5978950">
	<ele>1495.80</ele>
	<time>2023-10-07T07:21:46.000Z</time>
</trkpt>
<trkpt lat="45.9404000" lon="9.5978940">
	<ele>1496.00</ele>
	<time>2023-10-07T07:21:47.000Z</time>
</trkpt>
<trkpt lat="45.9404010" lon="9.5978950">
	<ele>1496.00</ele>
	<time>2023-10-07T07:21:48.000Z</time>
</trkpt>
<trkpt lat="45.9404010" lon="9.5978950">
	<ele>1496.20</ele>
	<time>2023-10-07T07:21:49.000Z</time>
</trkpt>
<trkpt lat="45.9404010" lon="9.5978950">
	<ele>1496.20</ele>
	<time>2023-10-07T07:21:50.000Z</time>
</trkpt>
<trkpt lat="45.9404010" lon="9.5978940">
	<ele>1496.20</ele>
	<time>2023-10-07T07:21:51.000Z</time>
</trkpt>
<trkpt lat="45.9404000" lon="9.5978950">
	<ele>1496.20</ele>
	<time>2023-10-07T07:21:52.000Z</time>
</trkpt>
<trkpt lat="45.9404010" lon="9.5978960">
	<ele>1496.20</ele>
	<time>2023-10-07T07:21:53.000Z</time>
</trkpt>
<trkpt lat="45.9404010" lon="9.5978960">
	<ele>1496.20</ele>
	<time>2023-10-07T07:21:54.000Z</time>
</trkpt>
<trkpt lat="45.9404010" lon="9.5978960">
	<ele>1496.20</ele>
	<time>2023-10-07T07:21:55.000Z</time>
</trkpt>
<trkpt lat="45.9404010" lon="9.5978960">
	<ele>1496.20</ele>
	<time>2023-10-07T07:21:56.000Z</time>
</trkpt>
<trkpt lat="45.9404010" lon="9.5978960">
	<ele>1496.20</ele>
	<time>2023-10-07T07:21:57.000Z</time>
</trkpt>
<trkpt lat="45.9404010" lon="9.5978960">
	<ele>1496.20</ele>
	<time>2023-10-07T07:21:58.000Z</time>
</trkpt>
<trkpt lat="45.9404010" lon="9.5978960">
	<ele>1496.20</ele>
	<time>2023-10-07T07:21:59.000Z</time>
</trkpt>
<trkpt lat="45.9404010" lon="9.5978960">
	<ele>1496.20</ele>
	<time>2023-10-07T07:22:00.000Z</time>
</trkpt>
<trkpt lat="45.9404010" lon="9.5978960">
	<ele>1496.20</ele>
	<time>2023-10-07T07:22:01.000Z</time>
</trkpt>
<trkpt lat="45.9404010" lon="9.5978960">
	<ele>1496.20</ele>
	<time>2023-10-07T07:22:02.000Z</time>
</trkpt>
<trkpt lat="45.9404010" lon="9.5978960">
	<ele>1496.20</ele>
	<time>2023-10-07T07:22:03.000Z</time>
</trkpt>
<trkpt lat="45.9404010" lon="9.5978960">
	<ele>1496.20</ele>
	<time>2023-10-07T07:22:04.000Z</time>
</trkpt>
<trkpt lat="45.9404010" lon="9.5978960">
	<ele>1496.20</ele>
	<time>2023-10-07T07:22:05.000Z</time>
</trkpt>
<trkpt lat="45.9404010" lon="9.5978960">
	<ele>1496.20</ele>
	<time>2023-10-07T07:22:06.000Z</time>
</trkpt>
<trkpt lat="45.9404010" lon="9.5978960">
	<ele>1496.40</ele>
	<time>2023-10-07T07:22:07.000Z</time>
</trkpt>
<trkpt lat="45.9404010" lon="9.5978960">
	<ele>1496.40</ele>
	<time>2023-10-07T07:22:08.000Z</time>
</trkpt>
<trkpt lat="45.9404010" lon="9.5978960">
	<ele>1496.60</ele>
	<time>2023-10-07T07:22:09.000Z</time>
</trkpt>
<trkpt lat="45.9404010" lon="9.5978960">
	<ele>1496.60</ele>
	<time>2023-10-07T07:22:10.000Z</time>
</trkpt>
<trkpt lat="45.9404010" lon="9.5978960">
	<ele>1496.80</ele>
	<time>2023-10-07T07:22:11.000Z</time>
</trkpt>
<trkpt lat="45.9404020" lon="9.5978960">
	<ele>1497.00</ele>
	<time>2023-10-07T07:22:12.000Z</time>
</trkpt>
<trkpt lat="45.9404020" lon="9.5978950">
	<ele>1497.20</ele>
	<time>2023-10-07T07:22:13.000Z</time>
</trkpt>
<trkpt lat="45.9404030" lon="9.5978950">
	<ele>1497.60</ele>
	<time>2023-10-07T07:22:14.000Z</time>
</trkpt>
<trkpt lat="45.9404030" lon="9.5978950">
	<ele>1497.80</ele>
	<time>2023-10-07T07:22:15.000Z</time>
</trkpt>
<trkpt lat="45.9404030" lon="9.5978950">
	<ele>1498.00</ele>
	<time>2023-10-07T07:22:16.000Z</time>
</trkpt>
<trkpt lat="45.9404030" lon="9.5978950">
	<ele>1498.20</ele>
	<time>2023-10-07T07:22:17.000Z</time>
</trkpt>
<trkpt lat="45.9404030" lon="9.5978950">
	<ele>1498.40</ele>
	<time>2023-10-07T07:22:18.000Z</time>
</trkpt>
<trkpt lat="45.9404040" lon="9.5978940">
	<ele>1498.40</ele>
	<time>2023-10-07T07:22:19.000Z</time>
</trkpt>
<trkpt lat="45.9404060" lon="9.5978930">
	<ele>1498.60</ele>
	<time>2023-10-07T07:22:20.000Z</time>
</trkpt>
<trkpt lat="45.9404080" lon="9.5978850">
	<ele>1498.60</ele>
	<time>2023-10-07T07:22:21.000Z</time>
</trkpt>
<trkpt lat="45.9404110" lon="9.5978760">
	<ele>1498.80</ele>
	<time>2023-10-07T07:22:22.000Z</time>
</trkpt>
<trkpt lat="45.9404130" lon="9.5978690">
	<ele>1498.80</ele>
	<time>2023-10-07T07:22:23.000Z</time>
</trkpt>
<trkpt lat="45.9404140" lon="9.5978640">
	<ele>1499.00</ele>
	<time>2023-10-07T07:22:24.000Z</time>
</trkpt>
<trkpt lat="45.9404160" lon="9.5978560">
	<ele>1499.40</ele>
	<time>2023-10-07T07:22:25.000Z</time>
</trkpt>
<trkpt lat="45.9404170" lon="9.5978520">
	<ele>1499.80</ele>
	<time>2023-10-07T07:22:26.000Z</time>
</trkpt>
<trkpt lat="45.9404210" lon="9.5978480">
	<ele>1499.80</ele>
	<time>2023-10-07T07:22:27.000Z</time>
</trkpt>
<trkpt lat="45.9404250" lon="9.5978430">
	<ele>1500.00</ele>
	<time>2023-10-07T07:22:28.000Z</time>
</trkpt>
<trkpt lat="45.9404300" lon="9.5978370">
	<ele>1500.20</ele>
	<time>2023-10-07T07:22:29.000Z</time>
</trkpt>
<trkpt lat="45.9404350" lon="9.5978340">
	<ele>1500.40</ele>
	<time>2023-10-07T07:22:30.000Z</time>
</trkpt>
<trkpt lat="45.9404390" lon="9.5978290">
	<ele>1500.40</ele>
	<time>2023-10-07T07:22:31.000Z</time>
</trkpt>
<trkpt lat="45.9404430" lon="9.5978220">
	<ele>1500.80</ele>
	<time>2023-10-07T07:22:32.000Z</time>
</trkpt>
<trkpt lat="45.9404460" lon="9.5978130">
	<ele>1500.80</ele>
	<time>2023-10-07T07:22:33.000Z</time>
</trkpt>
<trkpt lat="45.9404500" lon="9.5978030">
	<ele>1501.00</ele>
	<time>2023-10-07T07:22:34.000Z</time>
</trkpt>
<trkpt lat="45.9404570" lon="9.5977930">
	<ele>1501.20</ele>
	<time>2023-10-07T07:22:35.000Z</time>
</trkpt>
<trkpt lat="45.9404690" lon="9.5977730">
	<ele>1501.40</ele>
	<time>2023-10-07T07:22:36.000Z</time>
</trkpt>
<trkpt lat="45.9404790" lon="9.5977570">
	<ele>1501.40</ele>
	<time>2023-10-07T07:22:37.000Z</time>
</trkpt>
<trkpt lat="45.9404910" lon="9.5977420">
	<ele>1501.60</ele>
	<time>2023-10-07T07:22:38.000Z</time>
</trkpt>
<trkpt lat="45.9405050" lon="9.5977280">
	<ele>1501.60</ele>
	<time>2023-10-07T07:22:39.000Z</time>
</trkpt>
<trkpt lat="45.9405190" lon="9.5977160">
	<ele>1501.80</ele>
	<time>2023-10-07T07:22:40.000Z</time>
</trkpt>
<trkpt lat="45.9405290" lon="9.5977010">
	<ele>1502.00</ele>
	<time>2023-10-07T07:22:41.000Z</time>
</trkpt>
<trkpt lat="45.9405370" lon="9.5976850">
	<ele>1502.00</ele>
	<time>2023-10-07T07:22:42.000Z</time>
</trkpt>
<trkpt lat="45.9405490" lon="9.5976690">
	<ele>1502.20</ele>
	<time>2023-10-07T07:22:43.000Z</time>
</trkpt>
<trkpt lat="45.9405590" lon="9.5976530">
	<ele>1502.40</ele>
	<time>2023-10-07T07:22:44.000Z</time>
</trkpt>
<trkpt lat="45.9405610" lon="9.5976440">
	<ele>1502.60</ele>
	<time>2023-10-07T07:22:45.000Z</time>
</trkpt>
<trkpt lat="45.9405650" lon="9.5976360">
	<ele>1502.80</ele>
	<time>2023-10-07T07:22:46.000Z</time>
</trkpt>
<trkpt lat="45.9405700" lon="9.5976320">
	<ele>1503.00</ele>
	<time>2023-10-07T07:22:47.000Z</time>
</trkpt>
<trkpt lat="45.9405770" lon="9.5976290">
	<ele>1503.20</ele>
	<time>2023-10-07T07:22:48.000Z</time>
</trkpt>
<trkpt lat="45.9405840" lon="9.5976260">
	<ele>1503.40</ele>
	<time>2023-10-07T07:22:49.000Z</time>
</trkpt>
<trkpt lat="45.9405900" lon="9.5976220">
	<ele>1503.60</ele>
	<time>2023-10-07T07:22:50.000Z</time>
</trkpt>
<trkpt lat="45.9405970" lon="9.5976200">
	<ele>1503.80</ele>
	<time>2023-10-07T07:22:51.000Z</time>
</trkpt>
<trkpt lat="45.9406010" lon="9.5976160">
	<ele>1504.00</ele>
	<time>2023-10-07T07:22:52.000Z</time>
</trkpt>
<trkpt lat="45.9406050" lon="9.5976080">
	<ele>1504.20</ele>
	<time>2023-10-07T07:22:53.000Z</time>
</trkpt>
<trkpt lat="45.9406090" lon="9.5975980">
	<ele>1504.40</ele>
	<time>2023-10-07T07:22:54.000Z</time>
</trkpt>
<trkpt lat="45.9406120" lon="9.5975910">
	<ele>1504.60</ele>
	<time>2023-10-07T07:22:55.000Z</time>
</trkpt>
<trkpt lat="45.9406150" lon="9.5975850">
	<ele>1504.80</ele>
	<time>2023-10-07T07:22:56.000Z</time>
</trkpt>
<trkpt lat="45.9406210" lon="9.5975770">
	<ele>1504.80</ele>
	<time>2023-10-07T07:22:57.000Z</time>
</trkpt>
<trkpt lat="45.9406270" lon="9.5975690">
	<ele>1505.00</ele>
	<time>2023-10-07T07:22:58.000Z</time>
</trkpt>
<trkpt lat="45.9406300" lon="9.5975570">
	<ele>1505.00</ele>
	<time>2023-10-07T07:22:59.000Z</time>
</trkpt>
<trkpt lat="45.9406340" lon="9.5975460">
	<ele>1505.20</ele>
	<time>2023-10-07T07:23:00.000Z</time>
</trkpt>
<trkpt lat="45.9406340" lon="9.5975350">
	<ele>1505.40</ele>
	<time>2023-10-07T07:23:01.000Z</time>
</trkpt>
<trkpt lat="45.9406340" lon="9.5975220">
	<ele>1505.60</ele>
	<time>2023-10-07T07:23:02.000Z</time>
</trkpt>
<trkpt lat="45.9406360" lon="9.5975130">
	<ele>1505.60</ele>
	<time>2023-10-07T07:23:03.000Z</time>
</trkpt>
<trkpt lat="45.9406410" lon="9.5975080">
	<ele>1505.80</ele>
	<time>2023-10-07T07:23:04.000Z</time>
</trkpt>
<trkpt lat="45.9406460" lon="9.5975020">
	<ele>1505.80</ele>
	<time>2023-10-07T07:23:05.000Z</time>
</trkpt>
<trkpt lat="45.9406520" lon="9.5974970">
	<ele>1506.00</ele>
	<time>2023-10-07T07:23:06.000Z</time>
</trkpt>
<trkpt lat="45.9406580" lon="9.5974930">
	<ele>1506.00</ele>
	<time>2023-10-07T07:23:07.000Z</time>
</trkpt>
<trkpt lat="45.9406640" lon="9.5974850">
	<ele>1506.20</ele>
	<time>2023-10-07T07:23:08.000Z</time>
</trkpt>
<trkpt lat="45.9406720" lon="9.5974800">
	<ele>1506.20</ele>
	<time>2023-10-07T07:23:09.000Z</time>
</trkpt>
<trkpt lat="45.9406770" lon="9.5974750">
	<ele>1506.40</ele>
	<time>2023-10-07T07:23:10.000Z</time>
</trkpt>
<trkpt lat="45.9406810" lon="9.5974730">
	<ele>1506.60</ele>
	<time>2023-10-07T07:23:11.000Z</time>
</trkpt>
<trkpt lat="45.9406870" lon="9.5974710">
	<ele>1506.60</ele>
	<time>2023-10-07T07:23:12.000Z</time>
</trkpt>
<trkpt lat="45.9406930" lon="9.5974680">
	<ele>1506.80</ele>
	<time>2023-10-07T07:23:13.000Z</time>
</trkpt>
<trkpt lat="45.9407010" lon="9.5974620">
	<ele>1506.80</ele>
	<time>2023-10-07T07:23:14.000Z</time>
</trkpt>
<trkpt lat="45.9407090" lon="9.5974560">
	<ele>1507.20</ele>
	<time>2023-10-07T07:23:15.000Z</time>
</trkpt>
<trkpt lat="45.9407170" lon="9.5974490">
	<ele>1507.40</ele>
	<time>2023-10-07T07:23:16.000Z</time>
</trkpt>
<trkpt lat="45.9407230" lon="9.5974390">
	<ele>1507.40</ele>
	<time>2023-10-07T07:23:17.000Z</time>
</trkpt>
<trkpt lat="45.9407290" lon="9.5974320">
	<ele>1507.60</ele>
	<time>2023-10-07T07:23:18.000Z</time>
</trkpt>
<trkpt lat="45.9407370" lon="9.5974250">
	<ele>1507.80</ele>
	<time>2023-10-07T07:23:19.000Z</time>
</trkpt>
<trkpt lat="45.9407420" lon="9.5974210">
	<ele>1508.00</ele>
	<time>2023-10-07T07:23:20.000Z</time>
</trkpt>
<trkpt lat="45.9407480" lon="9.5974140">
	<ele>1508.00</ele>
	<time>2023-10-07T07:23:21.000Z</time>
</trkpt>
<trkpt lat="45.9407550" lon="9.5974060">
	<ele>1508.00</ele>
	<time>2023-10-07T07:23:22.000Z</time>
</trkpt>
<trkpt lat="45.9407630" lon="9.5974010">
	<ele>1508.20</ele>
	<time>2023-10-07T07:23:23.000Z</time>
</trkpt>
<trkpt lat="45.9407690" lon="9.5973970">
	<ele>1508.20</ele>
	<time>2023-10-07T07:23:24.000Z</time>
</trkpt>
<trkpt lat="45.9407760" lon="9.5973910">
	<ele>1508.20</ele>
	<time>2023-10-07T07:23:25.000Z</time>
</trkpt>
<trkpt lat="45.9407860" lon="9.5973870">
	<ele>1508.40</ele>
	<time>2023-10-07T07:23:26.000Z</time>
</trkpt>
<trkpt lat="45.9407950" lon="9.5973830">
	<ele>1508.40</ele>
	<time>2023-10-07T07:23:27.000Z</time>
</trkpt>
<trkpt lat="45.9408030" lon="9.5973780">
	<ele>1508.60</ele>
	<time>2023-10-07T07:23:28.000Z</time>
</trkpt>
<trkpt lat="45.9408090" lon="9.5973670">
	<ele>1508.60</ele>
	<time>2023-10-07T07:23:29.000Z</time>
</trkpt>
<trkpt lat="45.9408150" lon="9.5973600">
	<ele>1508.60</ele>
	<time>2023-10-07T07:23:30.000Z</time>
</trkpt>
<trkpt lat="45.9408230" lon="9.5973590">
	<ele>1508.80</ele>
	<time>2023-10-07T07:23:31.000Z</time>
</trkpt>
<trkpt lat="45.9408310" lon="9.5973550">
	<ele>1509.00</ele>
	<time>2023-10-07T07:23:32.000Z</time>
</trkpt>
<trkpt lat="45.9408370" lon="9.5973510">
	<ele>1509.00</ele>
	<time>2023-10-07T07:23:33.000Z</time>
</trkpt>
<trkpt lat="45.9408430" lon="9.5973460">
	<ele>1509.20</ele>
	<time>2023-10-07T07:23:34.000Z</time>
</trkpt>
<trkpt lat="45.9408490" lon="9.5973390">
	<ele>1509.20</ele>
	<time>2023-10-07T07:23:35.000Z</time>
</trkpt>
<trkpt lat="45.9408530" lon="9.5973300">
	<ele>1509.20</ele>
	<time>2023-10-07T07:23:36.000Z</time>
</trkpt>
<trkpt lat="45.9408590" lon="9.5973210">
	<ele>1509.40</ele>
	<time>2023-10-07T07:23:37.000Z</time>
</trkpt>
<trkpt lat="45.9408680" lon="9.5973140">
	<ele>1509.60</ele>
	<time>2023-10-07T07:23:38.000Z</time>
</trkpt>
<trkpt lat="45.9408760" lon="9.5973050">
	<ele>1509.60</ele>
	<time>2023-10-07T07:23:39.000Z</time>
</trkpt>
<trkpt lat="45.9408840" lon="9.5972950">
	<ele>1509.80</ele>
	<time>2023-10-07T07:23:40.000Z</time>
</trkpt>
<trkpt lat="45.9408930" lon="9.5972850">
	<ele>1509.80</ele>
	<time>2023-10-07T07:23:41.000Z</time>
</trkpt>
<trkpt lat="45.9409010" lon="9.5972790">
	<ele>1510.00</ele>
	<time>2023-10-07T07:23:42.000Z</time>
</trkpt>
<trkpt lat="45.9409070" lon="9.5972740">
	<ele>1510.00</ele>
	<time>2023-10-07T07:23:43.000Z</time>
</trkpt>
<trkpt lat="45.9409140" lon="9.5972700">
	<ele>1510.20</ele>
	<time>2023-10-07T07:23:44.000Z</time>
</trkpt>
<trkpt lat="45.9409200" lon="9.5972650">
	<ele>1510.40</ele>
	<time>2023-10-07T07:23:45.000Z</time>
</trkpt>
<trkpt lat="45.9409280" lon="9.5972600">
	<ele>1510.40</ele>
	<time>2023-10-07T07:23:46.000Z</time>
</trkpt>
<trkpt lat="45.9409340" lon="9.5972530">
	<ele>1510.60</ele>
	<time>2023-10-07T07:23:47.000Z</time>
</trkpt>
<trkpt lat="45.9409390" lon="9.5972450">
	<ele>1510.60</ele>
	<time>2023-10-07T07:23:48.000Z</time>
</trkpt>
<trkpt lat="45.9409460" lon="9.5972370">
	<ele>1510.60</ele>
	<time>2023-10-07T07:23:49.000Z</time>
</trkpt>
<trkpt lat="45.9409540" lon="9.5972320">
	<ele>1510.80</ele>
	<time>2023-10-07T07:23:50.000Z</time>
</trkpt>
<trkpt lat="45.9409620" lon="9.5972280">
	<ele>1510.80</ele>
	<time>2023-10-07T07:23:51.000Z</time>
</trkpt>
<trkpt lat="45.9409690" lon="9.5972250">
	<ele>1510.80</ele>
	<time>2023-10-07T07:23:52.000Z</time>
</trkpt>
<trkpt lat="45.9409770" lon="9.5972210">
	<ele>1511.00</ele>
	<time>2023-10-07T07:23:53.000Z</time>
</trkpt>
<trkpt lat="45.9409840" lon="9.5972170">
	<ele>1511.20</ele>
	<time>2023-10-07T07:23:54.000Z</time>
</trkpt>
<trkpt lat="45.9409900" lon="9.5972100">
	<ele>1511.40</ele>
	<time>2023-10-07T07:23:55.000Z</time>
</trkpt>
<trkpt lat="45.9409960" lon="9.5972050">
	<ele>1511.60</ele>
	<time>2023-10-07T07:23:56.000Z</time>
</trkpt>
<trkpt lat="45.9410010" lon="9.5971980">
	<ele>1511.80</ele>
	<time>2023-10-07T07:23:57.000Z</time>
</trkpt>
<trkpt lat="45.9410070" lon="9.5971960">
	<ele>1512.00</ele>
	<time>2023-10-07T07:23:58.000Z</time>
</trkpt>
<trkpt lat="45.9410160" lon="9.5971950">
	<ele>1512.20</ele>
	<time>2023-10-07T07:23:59.000Z</time>
</trkpt>
<trkpt lat="45.9410220" lon="9.5971910">
	<ele>1512.40</ele>
	<time>2023-10-07T07:24:00.000Z</time>
</trkpt>
<trkpt lat="45.9410290" lon="9.5971870">
	<ele>1512.60</ele>
	<time>2023-10-07T07:24:01.000Z</time>
</trkpt>
<trkpt lat="45.9410350" lon="9.5971820">
	<ele>1512.80</ele>
	<time>2023-10-07T07:24:02.000Z</time>
</trkpt>
<trkpt lat="45.9410420" lon="9.5971810">
	<ele>1513.00</ele>
	<time>2023-10-07T07:24:03.000Z</time>
</trkpt>
<trkpt lat="45.9410470" lon="9.5971800">
	<ele>1513.20</ele>
	<time>2023-10-07T07:24:04.000Z</time>
</trkpt>
<trkpt lat="45.9410540" lon="9.5971780">
	<ele>1513.20</ele>
	<time>2023-10-07T07:24:05.000Z</time>
</trkpt>
<trkpt lat="45.9410590" lon="9.5971790">
	<ele>1513.40</ele>
	<time>2023-10-07T07:24:06.000Z</time>
</trkpt>
<trkpt lat="45.9410620" lon="9.5971780">
	<ele>1513.60</ele>
	<time>2023-10-07T07:24:07.000Z</time>
</trkpt>
<trkpt lat="45.9410630" lon="9.5971780">
	<ele>1513.80</ele>
	<time>2023-10-07T07:24:08.000Z</time>
</trkpt>
<trkpt lat="45.9410620" lon="9.5971770">
	<ele>1514.00</ele>
	<time>2023-10-07T07:24:09.000Z</time>
</trkpt>
<trkpt lat="45.9410630" lon="9.5971750">
	<ele>1514.20</ele>
	<time>2023-10-07T07:24:10.000Z</time>
</trkpt>
<trkpt lat="45.9410630" lon="9.5971720">
	<ele>1514.20</ele>
	<time>2023-10-07T07:24:11.000Z</time>
</trkpt>
<trkpt lat="45.9410620" lon="9.5971710">
	<ele>1514.20</ele>
	<time>2023-10-07T07:24:12.000Z</time>
</trkpt>
<trkpt lat="45.9410610" lon="9.5971720">
	<ele>1514.00</ele>
	<time>2023-10-07T07:24:13.000Z</time>
</trkpt>
<trkpt lat="45.9410600" lon="9.5971730">
	<ele>1514.00</ele>
	<time>2023-10-07T07:24:14.000Z</time>
</trkpt>
<trkpt lat="45.9410580" lon="9.5971740">
	<ele>1513.80</ele>
	<time>2023-10-07T07:24:15.000Z</time>
</trkpt>
<trkpt lat="45.9410570" lon="9.5971760">
	<ele>1513.80</ele>
	<time>2023-10-07T07:24:16.000Z</time>
</trkpt>
<trkpt lat="45.9410610" lon="9.5971770">
	<ele>1513.80</ele>
	<time>2023-10-07T07:24:17.000Z</time>
</trkpt>
<trkpt lat="45.9410600" lon="9.5971770">
	<ele>1513.80</ele>
	<time>2023-10-07T07:24:18.000Z</time>
</trkpt>
<trkpt lat="45.9410600" lon="9.5971770">
	<ele>1513.80</ele>
	<time>2023-10-07T07:24:19.000Z</time>
</trkpt>
<trkpt lat="45.9410600" lon="9.5971770">
	<ele>1513.80</ele>
	<time>2023-10-07T07:24:20.000Z</time>
</trkpt>
<trkpt lat="45.9410600" lon="9.5971770">
	<ele>1513.80</ele>
	<time>2023-10-07T07:24:21.000Z</time>
</trkpt>
<trkpt lat="45.9410600" lon="9.5971770">
	<ele>1513.80</ele>
	<time>2023-10-07T07:24:22.000Z</time>
</trkpt>
<trkpt lat="45.9410600" lon="9.5971770">
	<ele>1513.80</ele>
	<time>2023-10-07T07:24:23.000Z</time>
</trkpt>
<trkpt lat="45.9410600" lon="9.5971770">
	<ele>1513.80</ele>
	<time>2023-10-07T07:24:24.000Z</time>
</trkpt>
<trkpt lat="45.9410600" lon="9.5971770">
	<ele>1514.00</ele>
	<time>2023-10-07T07:24:25.000Z</time>
</trkpt>
<trkpt lat="45.9410600" lon="9.5971770">
	<ele>1514.00</ele>
	<time>2023-10-07T07:24:26.000Z</time>
</trkpt>
<trkpt lat="45.9410600" lon="9.5971770">
	<ele>1514.20</ele>
	<time>2023-10-07T07:24:27.000Z</time>
</trkpt>
<trkpt lat="45.9410600" lon="9.5971760">
	<ele>1514.40</ele>
	<time>2023-10-07T07:24:28.000Z</time>
</trkpt>
<trkpt lat="45.9410640" lon="9.5971730">
	<ele>1514.40</ele>
	<time>2023-10-07T07:24:29.000Z</time>
</trkpt>
<trkpt lat="45.9410770" lon="9.5971680">
	<ele>1514.60</ele>
	<time>2023-10-07T07:24:30.000Z</time>
</trkpt>
<trkpt lat="45.9410900" lon="9.5971620">
	<ele>1514.60</ele>
	<time>2023-10-07T07:24:31.000Z</time>
</trkpt>
<trkpt lat="45.9410990" lon="9.5971570">
	<ele>1514.80</ele>
	<time>2023-10-07T07:24:32.000Z</time>
</trkpt>
<trkpt lat="45.9411050" lon="9.5971500">
	<ele>1515.00</ele>
	<time>2023-10-07T07:24:33.000Z</time>
</trkpt>
<trkpt lat="45.9411130" lon="9.5971420">
	<ele>1515.00</ele>
	<time>2023-10-07T07:24:34.000Z</time>
</trkpt>
<trkpt lat="45.9411220" lon="9.5971340">
	<ele>1515.20</ele>
	<time>2023-10-07T07:24:35.000Z</time>
</trkpt>
<trkpt lat="45.9411310" lon="9.5971270">
	<ele>1515.20</ele>
	<time>2023-10-07T07:24:36.000Z</time>
</trkpt>
<trkpt lat="45.9411410" lon="9.5971220">
	<ele>1515.40</ele>
	<time>2023-10-07T07:24:37.000Z</time>
</trkpt>
<trkpt lat="45.9411520" lon="9.5971130">
	<ele>1515.60</ele>
	<time>2023-10-07T07:24:38.000Z</time>
</trkpt>
<trkpt lat="45.9411610" lon="9.5971080">
	<ele>1515.80</ele>
	<time>2023-10-07T07:24:39.000Z</time>
</trkpt>
<trkpt lat="45.9411700" lon="9.5971040">
	<ele>1515.80</ele>
	<time>2023-10-07T07:24:40.000Z</time>
</trkpt>
<trkpt lat="45.9411760" lon="9.5970980">
	<ele>1516.00</ele>
	<time>2023-10-07T07:24:41.000Z</time>
</trkpt>
<trkpt lat="45.9411850" lon="9.5970980">
	<ele>1516.20</ele>
	<time>2023-10-07T07:24:42.000Z</time>
</trkpt>
<trkpt lat="45.9411950" lon="9.5970970">
	<ele>1516.20</ele>
	<time>2023-10-07T07:24:43.000Z</time>
</trkpt>
<trkpt lat="45.9412000" lon="9.5970930">
	<ele>1516.40</ele>
	<time>2023-10-07T07:24:44.000Z</time>
</trkpt>
<trkpt lat="45.9412090" lon="9.5970930">
	<ele>1516.60</ele>
	<time>2023-10-07T07:24:45.000Z</time>
</trkpt>
<trkpt lat="45.9412160" lon="9.5970910">
	<ele>1516.80</ele>
	<time>2023-10-07T07:24:46.000Z</time>
</trkpt>
<trkpt lat="45.9412220" lon="9.5970920">
	<ele>1517.00</ele>
	<time>2023-10-07T07:24:47.000Z</time>
</trkpt>
<trkpt lat="45.9412300" lon="9.5970900">
	<ele>1517.00</ele>
	<time>2023-10-07T07:24:48.000Z</time>
</trkpt>
<trkpt lat="45.9412380" lon="9.5970880">
	<ele>1517.20</ele>
	<time>2023-10-07T07:24:49.000Z</time>
</trkpt>
<trkpt lat="45.9412440" lon="9.5970830">
	<ele>1517.40</ele>
	<time>2023-10-07T07:24:50.000Z</time>
</trkpt>
<trkpt lat="45.9412520" lon="9.5970740">
	<ele>1517.60</ele>
	<time>2023-10-07T07:24:51.000Z</time>
</trkpt>
<trkpt lat="45.9412590" lon="9.5970650">
	<ele>1517.60</ele>
	<time>2023-10-07T07:24:52.000Z</time>
</trkpt>
<trkpt lat="45.9412670" lon="9.5970630">
	<ele>1517.80</ele>
	<time>2023-10-07T07:24:53.000Z</time>
</trkpt>
<trkpt lat="45.9412710" lon="9.5970540">
	<ele>1518.00</ele>
	<time>2023-10-07T07:24:54.000Z</time>
</trkpt>
<trkpt lat="45.9412780" lon="9.5970480">
	<ele>1518.20</ele>
	<time>2023-10-07T07:24:55.000Z</time>
</trkpt>
<trkpt lat="45.9412820" lon="9.5970430">
	<ele>1518.40</ele>
	<time>2023-10-07T07:24:56.000Z</time>
</trkpt>
<trkpt lat="45.9412890" lon="9.5970370">
	<ele>1518.40</ele>
	<time>2023-10-07T07:24:57.000Z</time>
</trkpt>
<trkpt lat="45.9412960" lon="9.5970280">
	<ele>1518.60</ele>
	<time>2023-10-07T07:24:58.000Z</time>
</trkpt>
<trkpt lat="45.9413020" lon="9.5970180">
	<ele>1518.80</ele>
	<time>2023-10-07T07:24:59.000Z</time>
</trkpt>
<trkpt lat="45.9413110" lon="9.5970120">
	<ele>1518.80</ele>
	<time>2023-10-07T07:25:00.000Z</time>
</trkpt>
<trkpt lat="45.9413170" lon="9.5970040">
	<ele>1519.00</ele>
	<time>2023-10-07T07:25:01.000Z</time>
</trkpt>
<trkpt lat="45.9413200" lon="9.5969930">
	<ele>1519.40</ele>
	<time>2023-10-07T07:25:02.000Z</time>
</trkpt>
<trkpt lat="45.9413230" lon="9.5969810">
	<ele>1519.40</ele>
	<time>2023-10-07T07:25:03.000Z</time>
</trkpt>
<trkpt lat="45.9413250" lon="9.5969700">
	<ele>1519.60</ele>
	<time>2023-10-07T07:25:04.000Z</time>
</trkpt>
<trkpt lat="45.9413320" lon="9.5969580">
	<ele>1519.60</ele>
	<time>2023-10-07T07:25:05.000Z</time>
</trkpt>
<trkpt lat="45.9413390" lon="9.5969460">
	<ele>1519.60</ele>
	<time>2023-10-07T07:25:06.000Z</time>
</trkpt>
<trkpt lat="45.9413450" lon="9.5969370">
	<ele>1519.80</ele>
	<time>2023-10-07T07:25:07.000Z</time>
</trkpt>
<trkpt lat="45.9413540" lon="9.5969260">
	<ele>1519.80</ele>
	<time>2023-10-07T07:25:08.000Z</time>
</trkpt>
<trkpt lat="45.9413620" lon="9.5969140">
	<ele>1519.80</ele>
	<time>2023-10-07T07:25:09.000Z</time>
</trkpt>
<trkpt lat="45.9413700" lon="9.5969080">
	<ele>1519.80</ele>
	<time>2023-10-07T07:25:10.000Z</time>
</trkpt>
<trkpt lat="45.9413780" lon="9.5968970">
	<ele>1519.80</ele>
	<time>2023-10-07T07:25:11.000Z</time>
</trkpt>
<trkpt lat="45.9413850" lon="9.5968870">
	<ele>1519.80</ele>
	<time>2023-10-07T07:25:12.000Z</time>
</trkpt>
<trkpt lat="45.9413950" lon="9.5968750">
	<ele>1520.00</ele>
	<time>2023-10-07T07:25:13.000Z</time>
</trkpt>
<trkpt lat="45.9414060" lon="9.5968650">
	<ele>1520.00</ele>
	<time>2023-10-07T07:25:14.000Z</time>
</trkpt>
<trkpt lat="45.9414140" lon="9.5968550">
	<ele>1520.00</ele>
	<time>2023-10-07T07:25:15.000Z</time>
</trkpt>
<trkpt lat="45.9414240" lon="9.5968470">
	<ele>1520.20</ele>
	<time>2023-10-07T07:25:16.000Z</time>
</trkpt>
<trkpt lat="45.9414330" lon="9.5968380">
	<ele>1520.20</ele>
	<time>2023-10-07T07:25:17.000Z</time>
</trkpt>
<trkpt lat="45.9414420" lon="9.5968290">
	<ele>1520.40</ele>
	<time>2023-10-07T07:25:18.000Z</time>
</trkpt>
<trkpt lat="45.9414510" lon="9.5968210">
	<ele>1520.60</ele>
	<time>2023-10-07T07:25:19.000Z</time>
</trkpt>
<trkpt lat="45.9414580" lon="9.5968130">
	<ele>1520.60</ele>
	<time>2023-10-07T07:25:20.000Z</time>
</trkpt>
<trkpt lat="45.9414640" lon="9.5968010">
	<ele>1520.80</ele>
	<time>2023-10-07T07:25:21.000Z</time>
</trkpt>
<trkpt lat="45.9414710" lon="9.5967910">
	<ele>1521.00</ele>
	<time>2023-10-07T07:25:22.000Z</time>
</trkpt>
<trkpt lat="45.9414780" lon="9.5967820">
	<ele>1521.00</ele>
	<time>2023-10-07T07:25:23.000Z</time>
</trkpt>
<trkpt lat="45.9414860" lon="9.5967740">
	<ele>1521.20</ele>
	<time>2023-10-07T07:25:24.000Z</time>
</trkpt>
<trkpt lat="45.9414960" lon="9.5967680">
	<ele>1521.20</ele>
	<time>2023-10-07T07:25:25.000Z</time>
</trkpt>
<trkpt lat="45.9415030" lon="9.5967590">
	<ele>1521.40</ele>
	<time>2023-10-07T07:25:26.000Z</time>
</trkpt>
<trkpt lat="45.9415090" lon="9.5967500">
	<ele>1521.40</ele>
	<time>2023-10-07T07:25:27.000Z</time>
</trkpt>
<trkpt lat="45.9415160" lon="9.5967420">
	<ele>1521.60</ele>
	<time>2023-10-07T07:25:28.000Z</time>
</trkpt>
<trkpt lat="45.9415220" lon="9.5967300">
	<ele>1521.60</ele>
	<time>2023-10-07T07:25:29.000Z</time>
</trkpt>
<trkpt lat="45.9415280" lon="9.5967180">
	<ele>1521.80</ele>
	<time>2023-10-07T07:25:30.000Z</time>
</trkpt>
<trkpt lat="45.9415340" lon="9.5967070">
	<ele>1521.80</ele>
	<time>2023-10-07T07:25:31.000Z</time>
</trkpt>
<trkpt lat="45.9415400" lon="9.5966960">
	<ele>1522.00</ele>
	<time>2023-10-07T07:25:32.000Z</time>
</trkpt>
<trkpt lat="45.9415470" lon="9.5966870">
	<ele>1522.00</ele>
	<time>2023-10-07T07:25:33.000Z</time>
</trkpt>
<trkpt lat="45.9415550" lon="9.5966800">
	<ele>1522.20</ele>
	<time>2023-10-07T07:25:34.000Z</time>
</trkpt>
<trkpt lat="45.9415620" lon="9.5966730">
	<ele>1522.20</ele>
	<time>2023-10-07T07:25:35.000Z</time>
</trkpt>
<trkpt lat="45.9415710" lon="9.5966670">
	<ele>1522.40</ele>
	<time>2023-10-07T07:25:36.000Z</time>
</trkpt>
<trkpt lat="45.9415810" lon="9.5966630">
	<ele>1522.60</ele>
	<time>2023-10-07T07:25:37.000Z</time>
</trkpt>
<trkpt lat="45.9415890" lon="9.5966590">
	<ele>1522.80</ele>
	<time>2023-10-07T07:25:38.000Z</time>
</trkpt>
<trkpt lat="45.9415960" lon="9.5966550">
	<ele>1523.00</ele>
	<time>2023-10-07T07:25:39.000Z</time>
</trkpt>
<trkpt lat="45.9416050" lon="9.5966480">
	<ele>1523.00</ele>
	<time>2023-10-07T07:25:40.000Z</time>
</trkpt>
<trkpt lat="45.9416130" lon="9.5966380">
	<ele>1523.20</ele>
	<time>2023-10-07T07:25:41.000Z</time>
</trkpt>
<trkpt lat="45.9416200" lon="9.5966280">
	<ele>1523.40</ele>
	<time>2023-10-07T07:25:42.000Z</time>
</trkpt>
<trkpt lat="45.9416280" lon="9.5966180">
	<ele>1523.40</ele>
	<time>2023-10-07T07:25:43.000Z</time>
</trkpt>
<trkpt lat="45.9416350" lon="9.5966090">
	<ele>1523.40</ele>
	<time>2023-10-07T07:25:44.000Z</time>
</trkpt>
<trkpt lat="45.9416400" lon="9.5965960">
	<ele>1523.40</ele>
	<time>2023-10-07T07:25:45.000Z</time>
</trkpt>
<trkpt lat="45.9416480" lon="9.5965880">
	<ele>1523.60</ele>
	<time>2023-10-07T07:25:46.000Z</time>
</trkpt>
<trkpt lat="45.9416550" lon="9.5965800">
	<ele>1523.80</ele>
	<time>2023-10-07T07:25:47.000Z</time>
</trkpt>
<trkpt lat="45.9416640" lon="9.5965720">
	<ele>1523.80</ele>
	<time>2023-10-07T07:25:48.000Z</time>
</trkpt>
<trkpt lat="45.9416710" lon="9.5965620">
	<ele>1524.00</ele>
	<time>2023-10-07T07:25:49.000Z</time>
</trkpt>
<trkpt lat="45.9416750" lon="9.5965520">
	<ele>1524.00</ele>
	<time>2023-10-07T07:25:50.000Z</time>
</trkpt>
<trkpt lat="45.9416800" lon="9.5965400">
	<ele>1524.20</ele>
	<time>2023-10-07T07:25:51.000Z</time>
</trkpt>
<trkpt lat="45.9416890" lon="9.5965280">
	<ele>1524.20</ele>
	<time>2023-10-07T07:25:52.000Z</time>
</trkpt>
<trkpt lat="45.9416980" lon="9.5965220">
	<ele>1524.40</ele>
	<time>2023-10-07T07:25:53.000Z</time>
</trkpt>
<trkpt lat="45.9417080" lon="9.5965150">
	<ele>1524.40</ele>
	<time>2023-10-07T07:25:54.000Z</time>
</trkpt>
<trkpt lat="45.9417170" lon="9.5965040">
	<ele>1524.40</ele>
	<time>2023-10-07T07:25:55.000Z</time>
</trkpt>
<trkpt lat="45.9417240" lon="9.5964910">
	<ele>1524.60</ele>
	<time>2023-10-07T07:25:56.000Z</time>
</trkpt>
<trkpt lat="45.9417310" lon="9.5964790">
	<ele>1524.60</ele>
	<time>2023-10-07T07:25:57.000Z</time>
</trkpt>
<trkpt lat="45.9417390" lon="9.5964680">
	<ele>1524.60</ele>
	<time>2023-10-07T07:25:58.000Z</time>
</trkpt>
<trkpt lat="45.9417470" lon="9.5964590">
	<ele>1524.60</ele>
	<time>2023-10-07T07:25:59.000Z</time>
</trkpt>
<trkpt lat="45.9417530" lon="9.5964490">
	<ele>1524.80</ele>
	<time>2023-10-07T07:26:00.000Z</time>
</trkpt>
<trkpt lat="45.9417590" lon="9.5964350">
	<ele>1525.00</ele>
	<time>2023-10-07T07:26:01.000Z</time>
</trkpt>
<trkpt lat="45.9417640" lon="9.5964240">
	<ele>1525.00</ele>
	<time>2023-10-07T07:26:02.000Z</time>
</trkpt>
<trkpt lat="45.9417720" lon="9.5964140">
	<ele>1525.20</ele>
	<time>2023-10-07T07:26:03.000Z</time>
</trkpt>
<trkpt lat="45.9417790" lon="9.5964030">
	<ele>1525.20</ele>
	<time>2023-10-07T07:26:04.000Z</time>
</trkpt>
<trkpt lat="45.9417850" lon="9.5963890">
	<ele>1525.40</ele>
	<time>2023-10-07T07:26:05.000Z</time>
</trkpt>
<trkpt lat="45.9417900" lon="9.5963750">
	<ele>1525.40</ele>
	<time>2023-10-07T07:26:06.000Z</time>
</trkpt>
<trkpt lat="45.9417960" lon="9.5963630">
	<ele>1525.40</ele>
	<time>2023-10-07T07:26:07.000Z</time>
</trkpt>
<trkpt lat="45.9418010" lon="9.5963530">
	<ele>1525.60</ele>
	<time>2023-10-07T07:26:08.000Z</time>
</trkpt>
<trkpt lat="45.9418080" lon="9.5963440">
	<ele>1525.60</ele>
	<time>2023-10-07T07:26:09.000Z</time>
</trkpt>
<trkpt lat="45.9418160" lon="9.5963330">
	<ele>1525.60</ele>
	<time>2023-10-07T07:26:10.000Z</time>
</trkpt>
<trkpt lat="45.9418250" lon="9.5963220">
	<ele>1525.80</ele>
	<time>2023-10-07T07:26:11.000Z</time>
</trkpt>
<trkpt lat="45.9418320" lon="9.5963100">
	<ele>1525.80</ele>
	<time>2023-10-07T07:26:12.000Z</time>
</trkpt>
<trkpt lat="45.9418410" lon="9.5962990">
	<ele>1525.80</ele>
	<time>2023-10-07T07:26:13.000Z</time>
</trkpt>
<trkpt lat="45.9418450" lon="9.5962850">
	<ele>1525.80</ele>
	<time>2023-10-07T07:26:14.000Z</time>
</trkpt>
<trkpt lat="45.9418480" lon="9.5962700">
	<ele>1526.00</ele>
	<time>2023-10-07T07:26:15.000Z</time>
</trkpt>
<trkpt lat="45.9418510" lon="9.5962540">
	<ele>1526.20</ele>
	<time>2023-10-07T07:26:16.000Z</time>
</trkpt>
<trkpt lat="45.9418540" lon="9.5962390">
	<ele>1526.20</ele>
	<time>2023-10-07T07:26:17.000Z</time>
</trkpt>
<trkpt lat="45.9418580" lon="9.5962370">
	<ele>1526.60</ele>
	<time>2023-10-07T07:26:18.000Z</time>
</trkpt>
<trkpt lat="45.9418640" lon="9.5962280">
	<ele>1526.80</ele>
	<time>2023-10-07T07:26:19.000Z</time>
</trkpt>
<trkpt lat="45.9418720" lon="9.5962190">
	<ele>1527.00</ele>
	<time>2023-10-07T07:26:20.000Z</time>
</trkpt>
<trkpt lat="45.9418800" lon="9.5962110">
	<ele>1527.00</ele>
	<time>2023-10-07T07:26:21.000Z</time>
</trkpt>
<trkpt lat="45.9418840" lon="9.5961990">
	<ele>1527.20</ele>
	<time>2023-10-07T07:26:22.000Z</time>
</trkpt>
<trkpt lat="45.9418830" lon="9.5961820">
	<ele>1527.40</ele>
	<time>2023-10-07T07:26:23.000Z</time>
</trkpt>
<trkpt lat="45.9418860" lon="9.5961690">
	<ele>1527.40</ele>
	<time>2023-10-07T07:26:24.000Z</time>
</trkpt>
<trkpt lat="45.9418890" lon="9.5961610">
	<ele>1527.80</ele>
	<time>2023-10-07T07:26:25.000Z</time>
</trkpt>
<trkpt lat="45.9418960" lon="9.5961520">
	<ele>1528.00</ele>
	<time>2023-10-07T07:26:26.000Z</time>
</trkpt>
<trkpt lat="45.9418990" lon="9.5961440">
	<ele>1528.00</ele>
	<time>2023-10-07T07:26:27.000Z</time>
</trkpt>
<trkpt lat="45.9419040" lon="9.5961310">
	<ele>1528.20</ele>
	<time>2023-10-07T07:26:28.000Z</time>
</trkpt>
<trkpt lat="45.9419090" lon="9.5961180">
	<ele>1528.20</ele>
	<time>2023-10-07T07:26:29.000Z</time>
</trkpt>
<trkpt lat="45.9419140" lon="9.5961090">
	<ele>1528.40</ele>
	<time>2023-10-07T07:26:30.000Z</time>
</trkpt>
<trkpt lat="45.9419230" lon="9.5961020">
	<ele>1528.40</ele>
	<time>2023-10-07T07:26:31.000Z</time>
</trkpt>
<trkpt lat="45.9419300" lon="9.5960940">
	<ele>1528.40</ele>
	<time>2023-10-07T07:26:32.000Z</time>
</trkpt>
<trkpt lat="45.9419350" lon="9.5960820">
	<ele>1528.60</ele>
	<time>2023-10-07T07:26:33.000Z</time>
</trkpt>
<trkpt lat="45.9419420" lon="9.5960680">
	<ele>1528.80</ele>
	<time>2023-10-07T07:26:34.000Z</time>
</trkpt>
<trkpt lat="45.9419460" lon="9.5960540">
	<ele>1529.00</ele>
	<time>2023-10-07T07:26:35.000Z</time>
</trkpt>
<trkpt lat="45.9419520" lon="9.5960400">
	<ele>1529.00</ele>
	<time>2023-10-07T07:26:36.000Z</time>
</trkpt>
<trkpt lat="45.9419580" lon="9.5960240">
	<ele>1529.00</ele>
	<time>2023-10-07T07:26:37.000Z</time>
</trkpt>
<trkpt lat="45.9419630" lon="9.5960090">
	<ele>1529.20</ele>
	<time>2023-10-07T07:26:38.000Z</time>
</trkpt>
<trkpt lat="45.9419690" lon="9.5959950">
	<ele>1529.20</ele>
	<time>2023-10-07T07:26:39.000Z</time>
</trkpt>
<trkpt lat="45.9419760" lon="9.5959850">
	<ele>1529.40</ele>
	<time>2023-10-07T07:26:40.000Z</time>
</trkpt>
<trkpt lat="45.9419840" lon="9.5959730">
	<ele>1529.60</ele>
	<time>2023-10-07T07:26:41.000Z</time>
</trkpt>
<trkpt lat="45.9419900" lon="9.5959590">
	<ele>1529.60</ele>
	<time>2023-10-07T07:26:42.000Z</time>
</trkpt>
<trkpt lat="45.9419990" lon="9.5959480">
	<ele>1529.80</ele>
	<time>2023-10-07T07:26:43.000Z</time>
</trkpt>
<trkpt lat="45.9420010" lon="9.5959300">
	<ele>1529.80</ele>
	<time>2023-10-07T07:26:44.000Z</time>
</trkpt>
<trkpt lat="45.9420050" lon="9.5959180">
	<ele>1530.00</ele>
	<time>2023-10-07T07:26:45.000Z</time>
</trkpt>
<trkpt lat="45.9420080" lon="9.5959060">
	<ele>1530.00</ele>
	<time>2023-10-07T07:26:46.000Z</time>
</trkpt>
<trkpt lat="45.9420130" lon="9.5958940">
	<ele>1530.20</ele>
	<time>2023-10-07T07:26:47.000Z</time>
</trkpt>
<trkpt lat="45.9420180" lon="9.5958830">
	<ele>1530.20</ele>
	<time>2023-10-07T07:26:48.000Z</time>
</trkpt>
<trkpt lat="45.9420230" lon="9.5958700">
	<ele>1530.20</ele>
	<time>2023-10-07T07:26:49.000Z</time>
</trkpt>
<trkpt lat="45.9420270" lon="9.5958590">
	<ele>1530.40</ele>
	<time>2023-10-07T07:26:50.000Z</time>
</trkpt>
<trkpt lat="45.9420320" lon="9.5958420">
	<ele>1530.40</ele>
	<time>2023-10-07T07:26:51.000Z</time>
</trkpt>
<trkpt lat="45.9420380" lon="9.5958280">
	<ele>1530.60</ele>
	<time>2023-10-07T07:26:52.000Z</time>
</trkpt>
<trkpt lat="45.9420470" lon="9.5958210">
	<ele>1530.60</ele>
	<time>2023-10-07T07:26:53.000Z</time>
</trkpt>
<trkpt lat="45.9420550" lon="9.5958100">
	<ele>1530.60</ele>
	<time>2023-10-07T07:26:54.000Z</time>
</trkpt>
<trkpt lat="45.9420620" lon="9.5958030">
	<ele>1530.80</ele>
	<time>2023-10-07T07:26:55.000Z</time>
</trkpt>
<trkpt lat="45.9420700" lon="9.5957980">
	<ele>1530.80</ele>
	<time>2023-10-07T07:26:56.000Z</time>
</trkpt>
<trkpt lat="45.9420760" lon="9.5957830">
	<ele>1531.00</ele>
	<time>2023-10-07T07:26:57.000Z</time>
</trkpt>
<trkpt lat="45.9420790" lon="9.5957710">
	<ele>1531.20</ele>
	<time>2023-10-07T07:26:58.000Z</time>
</trkpt>
<trkpt lat="45.9420840" lon="9.5957600">
	<ele>1531.40</ele>
	<time>2023-10-07T07:26:59.000Z</time>
</trkpt>
<trkpt lat="45.9420890" lon="9.5957460">
	<ele>1531.60</ele>
	<time>2023-10-07T07:27:00.000Z</time>
</trkpt>
<trkpt lat="45.9420950" lon="9.5957390">
	<ele>1531.80</ele>
	<time>2023-10-07T07:27:01.000Z</time>
</trkpt>
<trkpt lat="45.9420980" lon="9.5957280">
	<ele>1532.00</ele>
	<time>2023-10-07T07:27:02.000Z</time>
</trkpt>
<trkpt lat="45.9421020" lon="9.5957190">
	<ele>1532.20</ele>
	<time>2023-10-07T07:27:03.000Z</time>
</trkpt>
<trkpt lat="45.9421090" lon="9.5957090">
	<ele>1532.20</ele>
	<time>2023-10-07T07:27:04.000Z</time>
</trkpt>
<trkpt lat="45.9421170" lon="9.5956990">
	<ele>1532.40</ele>
	<time>2023-10-07T07:27:05.000Z</time>
</trkpt>
<trkpt lat="45.9421200" lon="9.5956880">
	<ele>1532.40</ele>
	<time>2023-10-07T07:27:06.000Z</time>
</trkpt>
<trkpt lat="45.9421260" lon="9.5956790">
	<ele>1532.60</ele>
	<time>2023-10-07T07:27:07.000Z</time>
</trkpt>
<trkpt lat="45.9421330" lon="9.5956690">
	<ele>1532.60</ele>
	<time>2023-10-07T07:27:08.000Z</time>
</trkpt>
<trkpt lat="45.9421400" lon="9.5956560">
	<ele>1532.60</ele>
	<time>2023-10-07T07:27:09.000Z</time>
</trkpt>
<trkpt lat="45.9421480" lon="9.5956490">
	<ele>1532.80</ele>
	<time>2023-10-07T07:27:10.000Z</time>
</trkpt>
<trkpt lat="45.9421560" lon="9.5956350">
	<ele>1532.80</ele>
	<time>2023-10-07T07:27:11.000Z</time>
</trkpt>
<trkpt lat="45.9421630" lon="9.5956210">
	<ele>1533.00</ele>
	<time>2023-10-07T07:27:12.000Z</time>
</trkpt>
<trkpt lat="45.9421660" lon="9.5956060">
	<ele>1533.20</ele>
	<time>2023-10-07T07:27:13.000Z</time>
</trkpt>
<trkpt lat="45.9421690" lon="9.5955900">
	<ele>1533.40</ele>
	<time>2023-10-07T07:27:14.000Z</time>
</trkpt>
<trkpt lat="45.9421720" lon="9.5955780">
	<ele>1533.40</ele>
	<time>2023-10-07T07:27:15.000Z</time>
</trkpt>
<trkpt lat="45.9421720" lon="9.5955710">
	<ele>1533.40</ele>
	<time>2023-10-07T07:27:16.000Z</time>
</trkpt>
<trkpt lat="45.9421710" lon="9.5955660">
	<ele>1533.60</ele>
	<time>2023-10-07T07:27:17.000Z</time>
</trkpt>
<trkpt lat="45.9421700" lon="9.5955660">
	<ele>1533.60</ele>
	<time>2023-10-07T07:27:18.000Z</time>
</trkpt>
<trkpt lat="45.9421710" lon="9.5955650">
	<ele>1533.60</ele>
	<time>2023-10-07T07:27:19.000Z</time>
</trkpt>
<trkpt lat="45.9421720" lon="9.5955630">
	<ele>1533.60</ele>
	<time>2023-10-07T07:27:20.000Z</time>
</trkpt>
<trkpt lat="45.9421730" lon="9.5955580">
	<ele>1533.60</ele>
	<time>2023-10-07T07:27:21.000Z</time>
</trkpt>
<trkpt lat="45.9421740" lon="9.5955570">
	<ele>1533.60</ele>
	<time>2023-10-07T07:27:22.000Z</time>
</trkpt>
<trkpt lat="45.9421730" lon="9.5955580">
	<ele>1533.60</ele>
	<time>2023-10-07T07:27:23.000Z</time>
</trkpt>
<trkpt lat="45.9421730" lon="9.5955600">
	<ele>1533.60</ele>
	<time>2023-10-07T07:27:24.000Z</time>
</trkpt>
<trkpt lat="45.9421720" lon="9.5955570">
	<ele>1533.60</ele>
	<time>2023-10-07T07:27:25.000Z</time>
</trkpt>
<trkpt lat="45.9421720" lon="9.5955550">
	<ele>1534.00</ele>
	<time>2023-10-07T07:27:26.000Z</time>
</trkpt>
<trkpt lat="45.9421720" lon="9.5955540">
	<ele>1534.00</ele>
	<time>2023-10-07T07:27:27.000Z</time>
</trkpt>
<trkpt lat="45.9421720" lon="9.5955530">
	<ele>1534.00</ele>
	<time>2023-10-07T07:27:28.000Z</time>
</trkpt>
<trkpt lat="45.9421720" lon="9.5955530">
	<ele>1534.00</ele>
	<time>2023-10-07T07:27:29.000Z</time>
</trkpt>
<trkpt lat="45.9421720" lon="9.5955530">
	<ele>1534.20</ele>
	<time>2023-10-07T07:27:30.000Z</time>
</trkpt>
<trkpt lat="45.9421720" lon="9.5955530">
	<ele>1534.20</ele>
	<time>2023-10-07T07:27:31.000Z</time>
</trkpt>
<trkpt lat="45.9421720" lon="9.5955530">
	<ele>1534.00</ele>
	<time>2023-10-07T07:27:32.000Z</time>
</trkpt>
<trkpt lat="45.9421720" lon="9.5955530">
	<ele>1533.80</ele>
	<time>2023-10-07T07:27:33.000Z</time>
</trkpt>
<trkpt lat="45.9421720" lon="9.5955530">
	<ele>1533.60</ele>
	<time>2023-10-07T07:27:34.000Z</time>
</trkpt>
<trkpt lat="45.9421720" lon="9.5955530">
	<ele>1533.60</ele>
	<time>2023-10-07T07:27:35.000Z</time>
</trkpt>
<trkpt lat="45.9421720" lon="9.5955530">
	<ele>1533.60</ele>
	<time>2023-10-07T07:27:36.000Z</time>
</trkpt>
<trkpt lat="45.9421720" lon="9.5955540">
	<ele>1533.60</ele>
	<time>2023-10-07T07:27:37.000Z</time>
</trkpt>
<trkpt lat="45.9421720" lon="9.5955540">
	<ele>1533.80</ele>
	<time>2023-10-07T07:27:38.000Z</time>
</trkpt>
<trkpt lat="45.9421720" lon="9.5955550">
	<ele>1533.80</ele>
	<time>2023-10-07T07:27:39.000Z</time>
</trkpt>
<trkpt lat="45.9421720" lon="9.5955560">
	<ele>1534.00</ele>
	<time>2023-10-07T07:27:40.000Z</time>
</trkpt>
<trkpt lat="45.9421720" lon="9.5955560">
	<ele>1534.00</ele>
	<time>2023-10-07T07:27:41.000Z</time>
</trkpt>
<trkpt lat="45.9421720" lon="9.5955560">
	<ele>1534.00</ele>
	<time>2023-10-07T07:27:42.000Z</time>
</trkpt>
<trkpt lat="45.9421720" lon="9.5955560">
	<ele>1534.00</ele>
	<time>2023-10-07T07:27:43.000Z</time>
</trkpt>
<trkpt lat="45.9421720" lon="9.5955560">
	<ele>1534.00</ele>
	<time>2023-10-07T07:27:44.000Z</time>
</trkpt>
<trkpt lat="45.9421710" lon="9.5955560">
	<ele>1533.80</ele>
	<time>2023-10-07T07:27:45.000Z</time>
</trkpt>
<trkpt lat="45.9421710" lon="9.5955560">
	<ele>1534.00</ele>
	<time>2023-10-07T07:27:46.000Z</time>
</trkpt>
<trkpt lat="45.9421700" lon="9.5955560">
	<ele>1533.80</ele>
	<time>2023-10-07T07:27:47.000Z</time>
</trkpt>
<trkpt lat="45.9421700" lon="9.5955560">
	<ele>1533.80</ele>
	<time>2023-10-07T07:27:48.000Z</time>
</trkpt>
<trkpt lat="45.9421700" lon="9.5955560">
	<ele>1533.80</ele>
	<time>2023-10-07T07:27:49.000Z</time>
</trkpt>
<trkpt lat="45.9421690" lon="9.5955560">
	<ele>1533.80</ele>
	<time>2023-10-07T07:27:50.000Z</time>
</trkpt>
<trkpt lat="45.9421690" lon="9.5955560">
	<ele>1533.80</ele>
	<time>2023-10-07T07:27:51.000Z</time>
</trkpt>
<trkpt lat="45.9421690" lon="9.5955550">
	<ele>1533.80</ele>
	<time>2023-10-07T07:27:52.000Z</time>
</trkpt>
<trkpt lat="45.9421680" lon="9.5955550">
	<ele>1533.60</ele>
	<time>2023-10-07T07:27:53.000Z</time>
</trkpt>
<trkpt lat="45.9421680" lon="9.5955540">
	<ele>1533.60</ele>
	<time>2023-10-07T07:27:54.000Z</time>
</trkpt>
<trkpt lat="45.9421680" lon="9.5955540">
	<ele>1533.60</ele>
	<time>2023-10-07T07:27:55.000Z</time>
</trkpt>
<trkpt lat="45.9421680" lon="9.5955530">
	<ele>1533.60</ele>
	<time>2023-10-07T07:27:56.000Z</time>
</trkpt>
<trkpt lat="45.9421680" lon="9.5955530">
	<ele>1533.60</ele>
	<time>2023-10-07T07:27:57.000Z</time>
</trkpt>
<trkpt lat="45.9421680" lon="9.5955530">
	<ele>1533.60</ele>
	<time>2023-10-07T07:27:58.000Z</time>
</trkpt>
<trkpt lat="45.9421680" lon="9.5955520">
	<ele>1533.40</ele>
	<time>2023-10-07T07:27:59.000Z</time>
</trkpt>
<trkpt lat="45.9421680" lon="9.5955510">
	<ele>1533.40</ele>
	<time>2023-10-07T07:28:00.000Z</time>
</trkpt>
<trkpt lat="45.9421690" lon="9.5955460">
	<ele>1533.40</ele>
	<time>2023-10-07T07:28:01.000Z</time>
</trkpt>
<trkpt lat="45.9421790" lon="9.5955320">
	<ele>1533.40</ele>
	<time>2023-10-07T07:28:02.000Z</time>
</trkpt>
<trkpt lat="45.9421860" lon="9.5955140">
	<ele>1533.40</ele>
	<time>2023-10-07T07:28:03.000Z</time>
</trkpt>
<trkpt lat="45.9421950" lon="9.5954970">
	<ele>1533.60</ele>
	<time>2023-10-07T07:28:04.000Z</time>
</trkpt>
<trkpt lat="45.9422010" lon="9.5954820">
	<ele>1533.60</ele>
	<time>2023-10-07T07:28:05.000Z</time>
</trkpt>
<trkpt lat="45.9422070" lon="9.5954650">
	<ele>1533.60</ele>
	<time>2023-10-07T07:28:06.000Z</time>
</trkpt>
<trkpt lat="45.9422120" lon="9.5954470">
	<ele>1533.60</ele>
	<time>2023-10-07T07:28:07.000Z</time>
</trkpt>
<trkpt lat="45.9422180" lon="9.5954300">
	<ele>1533.60</ele>
	<time>2023-10-07T07:28:08.000Z</time>
</trkpt>
<trkpt lat="45.9422240" lon="9.5954100">
	<ele>1533.60</ele>
	<time>2023-10-07T07:28:09.000Z</time>
</trkpt>
<trkpt lat="45.9422310" lon="9.5953890">
	<ele>1533.60</ele>
	<time>2023-10-07T07:28:10.000Z</time>
</trkpt>
<trkpt lat="45.9422370" lon="9.5953730">
	<ele>1533.60</ele>
	<time>2023-10-07T07:28:11.000Z</time>
</trkpt>
<trkpt lat="45.9422410" lon="9.5953580">
	<ele>1533.80</ele>
	<time>2023-10-07T07:28:12.000Z</time>
</trkpt>
<trkpt lat="45.9422450" lon="9.5953420">
	<ele>1533.80</ele>
	<time>2023-10-07T07:28:13.000Z</time>
</trkpt>
<trkpt lat="45.9422520" lon="9.5953280">
	<ele>1533.80</ele>
	<time>2023-10-07T07:28:14.000Z</time>
</trkpt>
<trkpt lat="45.9422590" lon="9.5953180">
	<ele>1534.00</ele>
	<time>2023-10-07T07:28:15.000Z</time>
</trkpt>
<trkpt lat="45.9422660" lon="9.5953070">
	<ele>1534.00</ele>
	<time>2023-10-07T07:28:16.000Z</time>
</trkpt>
<trkpt lat="45.9422720" lon="9.5952960">
	<ele>1534.00</ele>
	<time>2023-10-07T07:28:17.000Z</time>
</trkpt>
<trkpt lat="45.9422790" lon="9.5952840">
	<ele>1534.20</ele>
	<time>2023-10-07T07:28:18.000Z</time>
</trkpt>
<trkpt lat="45.9422830" lon="9.5952720">
	<ele>1534.20</ele>
	<time>2023-10-07T07:28:19.000Z</time>
</trkpt>
<trkpt lat="45.9422900" lon="9.5952590">
	<ele>1534.40</ele>
	<time>2023-10-07T07:28:20.000Z</time>
</trkpt>
<trkpt lat="45.9422950" lon="9.5952450">
	<ele>1534.40</ele>
	<time>2023-10-07T07:28:21.000Z</time>
</trkpt>
<trkpt lat="45.9423000" lon="9.5952270">
	<ele>1534.60</ele>
	<time>2023-10-07T07:28:22.000Z</time>
</trkpt>
<trkpt lat="45.9423060" lon="9.5952140">
	<ele>1534.60</ele>
	<time>2023-10-07T07:28:23.000Z</time>
</trkpt>
<trkpt lat="45.9423120" lon="9.5952010">
	<ele>1534.80</ele>
	<time>2023-10-07T07:28:24.000Z</time>
</trkpt>
<trkpt lat="45.9423160" lon="9.5951870">
	<ele>1534.80</ele>
	<time>2023-10-07T07:28:25.000Z</time>
</trkpt>
<trkpt lat="45.9423170" lon="9.5951710">
	<ele>1534.80</ele>
	<time>2023-10-07T07:28:26.000Z</time>
</trkpt>
<trkpt lat="45.9423220" lon="9.5951580">
	<ele>1534.80</ele>
	<time>2023-10-07T07:28:27.000Z</time>
</trkpt>
<trkpt lat="45.9423280" lon="9.5951440">
	<ele>1534.80</ele>
	<time>2023-10-07T07:28:28.000Z</time>
</trkpt>
<trkpt lat="45.9423370" lon="9.5951290">
	<ele>1534.80</ele>
	<time>2023-10-07T07:28:29.000Z</time>
</trkpt>
<trkpt lat="45.9423450" lon="9.5951150">
	<ele>1534.80</ele>
	<time>2023-10-07T07:28:30.000Z</time>
</trkpt>
<trkpt lat="45.9423530" lon="9.5951020">
	<ele>1535.00</ele>
	<time>2023-10-07T07:28:31.000Z</time>
</trkpt>
<trkpt lat="45.9423590" lon="9.5950910">
	<ele>1535.00</ele>
	<time>2023-10-07T07:28:32.000Z</time>
</trkpt>
<trkpt lat="45.9423660" lon="9.5950790">
	<ele>1535.20</ele>
	<time>2023-10-07T07:28:33.000Z</time>
</trkpt>
<trkpt lat="45.9423720" lon="9.5950680">
	<ele>1535.20</ele>
	<time>2023-10-07T07:28:34.000Z</time>
</trkpt>
<trkpt lat="45.9423770" lon="9.5950520">
	<ele>1535.20</ele>
	<time>2023-10-07T07:28:35.000Z</time>
</trkpt>
<trkpt lat="45.9423800" lon="9.5950340">
	<ele>1535.20</ele>
	<time>2023-10-07T07:28:36.000Z</time>
</trkpt>
<trkpt lat="45.9423840" lon="9.5950170">
	<ele>1535.20</ele>
	<time>2023-10-07T07:28:37.000Z</time>
</trkpt>
<trkpt lat="45.9423860" lon="9.5949950">
	<ele>1535.20</ele>
	<time>2023-10-07T07:28:38.000Z</time>
</trkpt>
<trkpt lat="45.9423860" lon="9.5949740">
	<ele>1535.20</ele>
	<time>2023-10-07T07:28:39.000Z</time>
</trkpt>
<trkpt lat="45.9423890" lon="9.5949560">
	<ele>1535.40</ele>
	<time>2023-10-07T07:28:40.000Z</time>
</trkpt>
<trkpt lat="45.9423940" lon="9.5949400">
	<ele>1535.40</ele>
	<time>2023-10-07T07:28:41.000Z</time>
</trkpt>
<trkpt lat="45.9424000" lon="9.5949260">
	<ele>1535.60</ele>
	<time>2023-10-07T07:28:42.000Z</time>
</trkpt>
<trkpt lat="45.9424030" lon="9.5949100">
	<ele>1535.60</ele>
	<time>2023-10-07T07:28:43.000Z</time>
</trkpt>
<trkpt lat="45.9424070" lon="9.5948940">
	<ele>1535.60</ele>
	<time>2023-10-07T07:28:44.000Z</time>
</trkpt>
<trkpt lat="45.9424110" lon="9.5948830">
	<ele>1535.60</ele>
	<time>2023-10-07T07:28:45.000Z</time>
</trkpt>
<trkpt lat="45.9424160" lon="9.5948720">
	<ele>1535.80</ele>
	<time>2023-10-07T07:28:46.000Z</time>
</trkpt>
<trkpt lat="45.9424210" lon="9.5948560">
	<ele>1535.80</ele>
	<time>2023-10-07T07:28:47.000Z</time>
</trkpt>
<trkpt lat="45.9424240" lon="9.5948400">
	<ele>1535.80</ele>
	<time>2023-10-07T07:28:48.000Z</time>
</trkpt>
<trkpt lat="45.9424250" lon="9.5948250">
	<ele>1535.80</ele>
	<time>2023-10-07T07:28:49.000Z</time>
</trkpt>
<trkpt lat="45.9424230" lon="9.5948100">
	<ele>1536.00</ele>
	<time>2023-10-07T07:28:50.000Z</time>
</trkpt>
<trkpt lat="45.9424220" lon="9.5947900">
	<ele>1536.00</ele>
	<time>2023-10-07T07:28:51.000Z</time>
</trkpt>
<trkpt lat="45.9424250" lon="9.5947740">
	<ele>1536.20</ele>
	<time>2023-10-07T07:28:52.000Z</time>
</trkpt>
<trkpt lat="45.9424270" lon="9.5947610">
	<ele>1536.20</ele>
	<time>2023-10-07T07:28:53.000Z</time>
</trkpt>
<trkpt lat="45.9424300" lon="9.5947480">
	<ele>1536.20</ele>
	<time>2023-10-07T07:28:54.000Z</time>
</trkpt>
<trkpt lat="45.9424350" lon="9.5947370">
	<ele>1536.40</ele>
	<time>2023-10-07T07:28:55.000Z</time>
</trkpt>
<trkpt lat="45.9424380" lon="9.5947260">
	<ele>1536.60</ele>
	<time>2023-10-07T07:28:56.000Z</time>
</trkpt>
<trkpt lat="45.9424450" lon="9.5947120">
	<ele>1536.80</ele>
	<time>2023-10-07T07:28:57.000Z</time>
</trkpt>
<trkpt lat="45.9424510" lon="9.5947040">
	<ele>1537.00</ele>
	<time>2023-10-07T07:28:58.000Z</time>
</trkpt>
<trkpt lat="45.9424540" lon="9.5946920">
	<ele>1537.20</ele>
	<time>2023-10-07T07:28:59.000Z</time>
</trkpt>
<trkpt lat="45.9424580" lon="9.5946850">
	<ele>1537.20</ele>
	<time>2023-10-07T07:29:00.000Z</time>
</trkpt>
<trkpt lat="45.9424610" lon="9.5946700">
	<ele>1537.40</ele>
	<time>2023-10-07T07:29:01.000Z</time>
</trkpt>
<trkpt lat="45.9424680" lon="9.5946610">
	<ele>1537.60</ele>
	<time>2023-10-07T07:29:02.000Z</time>
</trkpt>
<trkpt lat="45.9424700" lon="9.5946470">
	<ele>1537.80</ele>
	<time>2023-10-07T07:29:03.000Z</time>
</trkpt>
<trkpt lat="45.9424750" lon="9.5946360">
	<ele>1537.80</ele>
	<time>2023-10-07T07:29:04.000Z</time>
</trkpt>
<trkpt lat="45.9424800" lon="9.5946260">
	<ele>1538.00</ele>
	<time>2023-10-07T07:29:05.000Z</time>
</trkpt>
<trkpt lat="45.9424820" lon="9.5946080">
	<ele>1538.00</ele>
	<time>2023-10-07T07:29:06.000Z</time>
</trkpt>
<trkpt lat="45.9424880" lon="9.5945930">
	<ele>1538.20</ele>
	<time>2023-10-07T07:29:07.000Z</time>
</trkpt>
<trkpt lat="45.9424940" lon="9.5945830">
	<ele>1538.20</ele>
	<time>2023-10-07T07:29:08.000Z</time>
</trkpt>
<trkpt lat="45.9425010" lon="9.5945700">
	<ele>1538.40</ele>
	<time>2023-10-07T07:29:09.000Z</time>
</trkpt>
<trkpt lat="45.9425070" lon="9.5945580">
	<ele>1538.60</ele>
	<time>2023-10-07T07:29:10.000Z</time>
</trkpt>
<trkpt lat="45.9425130" lon="9.5945450">
	<ele>1538.60</ele>
	<time>2023-10-07T07:29:11.000Z</time>
</trkpt>
<trkpt lat="45.9425160" lon="9.5945300">
	<ele>1538.80</ele>
	<time>2023-10-07T07:29:12.000Z</time>
</trkpt>
<trkpt lat="45.9425200" lon="9.5945180">
	<ele>1538.80</ele>
	<time>2023-10-07T07:29:13.000Z</time>
</trkpt>
<trkpt lat="45.9425260" lon="9.5945070">
	<ele>1539.00</ele>
	<time>2023-10-07T07:29:14.000Z</time>
</trkpt>
<trkpt lat="45.9425320" lon="9.5944940">
	<ele>1539.00</ele>
	<time>2023-10-07T07:29:15.000Z</time>
</trkpt>
<trkpt lat="45.9425350" lon="9.5944840">
	<ele>1539.20</ele>
	<time>2023-10-07T07:29:16.000Z</time>
</trkpt>
<trkpt lat="45.9425390" lon="9.5944720">
	<ele>1539.40</ele>
	<time>2023-10-07T07:29:17.000Z</time>
</trkpt>
<trkpt lat="45.9425440" lon="9.5944590">
	<ele>1539.40</ele>
	<time>2023-10-07T07:29:18.000Z</time>
</trkpt>
<trkpt lat="45.9425450" lon="9.5944490">
	<ele>1539.60</ele>
	<time>2023-10-07T07:29:19.000Z</time>
</trkpt>
<trkpt lat="45.9425500" lon="9.5944380">
	<ele>1539.80</ele>
	<time>2023-10-07T07:29:20.000Z</time>
</trkpt>
<trkpt lat="45.9425530" lon="9.5944210">
	<ele>1540.00</ele>
	<time>2023-10-07T07:29:21.000Z</time>
</trkpt>
<trkpt lat="45.9425570" lon="9.5944090">
	<ele>1540.00</ele>
	<time>2023-10-07T07:29:22.000Z</time>
</trkpt>
<trkpt lat="45.9425630" lon="9.5943970">
	<ele>1540.20</ele>
	<time>2023-10-07T07:29:23.000Z</time>
</trkpt>
<trkpt lat="45.9425670" lon="9.5943850">
	<ele>1540.20</ele>
	<time>2023-10-07T07:29:24.000Z</time>
</trkpt>
<trkpt lat="45.9425750" lon="9.5943730">
	<ele>1540.20</ele>
	<time>2023-10-07T07:29:25.000Z</time>
</trkpt>
<trkpt lat="45.9425800" lon="9.5943590">
	<ele>1540.20</ele>
	<time>2023-10-07T07:29:26.000Z</time>
</trkpt>
<trkpt lat="45.9425870" lon="9.5943460">
	<ele>1540.40</ele>
	<time>2023-10-07T07:29:27.000Z</time>
</trkpt>
<trkpt lat="45.9425940" lon="9.5943370">
	<ele>1540.40</ele>
	<time>2023-10-07T07:29:28.000Z</time>
</trkpt>
<trkpt lat="45.9426000" lon="9.5943240">
	<ele>1540.60</ele>
	<time>2023-10-07T07:29:29.000Z</time>
</trkpt>
<trkpt lat="45.9426020" lon="9.5943080">
	<ele>1540.80</ele>
	<time>2023-10-07T07:29:30.000Z</time>
</trkpt>
<trkpt lat="45.9426040" lon="9.5942960">
	<ele>1540.80</ele>
	<time>2023-10-07T07:29:31.000Z</time>
</trkpt>
<trkpt lat="45.9426050" lon="9.5942850">
	<ele>1541.00</ele>
	<time>2023-10-07T07:29:32.000Z</time>
</trkpt>
<trkpt lat="45.9426050" lon="9.5942670">
	<ele>1541.00</ele>
	<time>2023-10-07T07:29:33.000Z</time>
</trkpt>
<trkpt lat="45.9426060" lon="9.5942510">
	<ele>1541.20</ele>
	<time>2023-10-07T07:29:34.000Z</time>
</trkpt>
<trkpt lat="45.9426080" lon="9.5942320">
	<ele>1541.20</ele>
	<time>2023-10-07T07:29:35.000Z</time>
</trkpt>
<trkpt lat="45.9426130" lon="9.5942190">
	<ele>1541.20</ele>
	<time>2023-10-07T07:29:36.000Z</time>
</trkpt>
<trkpt lat="45.9426160" lon="9.5942030">
	<ele>1541.40</ele>
	<time>2023-10-07T07:29:37.000Z</time>
</trkpt>
<trkpt lat="45.9426210" lon="9.5941890">
	<ele>1541.60</ele>
	<time>2023-10-07T07:29:38.000Z</time>
</trkpt>
<trkpt lat="45.9426250" lon="9.5941780">
	<ele>1541.60</ele>
	<time>2023-10-07T07:29:39.000Z</time>
</trkpt>
<trkpt lat="45.9426300" lon="9.5941660">
	<ele>1541.60</ele>
	<time>2023-10-07T07:29:40.000Z</time>
</trkpt>
<trkpt lat="45.9426340" lon="9.5941490">
	<ele>1541.60</ele>
	<time>2023-10-07T07:29:41.000Z</time>
</trkpt>
<trkpt lat="45.9426380" lon="9.5941390">
	<ele>1541.80</ele>
	<time>2023-10-07T07:29:42.000Z</time>
</trkpt>
<trkpt lat="45.9426420" lon="9.5941230">
	<ele>1542.00</ele>
	<time>2023-10-07T07:29:43.000Z</time>
</trkpt>
<trkpt lat="45.9426440" lon="9.5941080">
	<ele>1542.00</ele>
	<time>2023-10-07T07:29:44.000Z</time>
</trkpt>
<trkpt lat="45.9426470" lon="9.5940960">
	<ele>1542.20</ele>
	<time>2023-10-07T07:29:45.000Z</time>
</trkpt>
<trkpt lat="45.9426530" lon="9.5940880">
	<ele>1542.20</ele>
	<time>2023-10-07T07:29:46.000Z</time>
</trkpt>
<trkpt lat="45.9426620" lon="9.5940830">
	<ele>1542.20</ele>
	<time>2023-10-07T07:29:47.000Z</time>
</trkpt>
<trkpt lat="45.9426680" lon="9.5940750">
	<ele>1542.40</ele>
	<time>2023-10-07T07:29:48.000Z</time>
</trkpt>
<trkpt lat="45.9426750" lon="9.5940650">
	<ele>1542.60</ele>
	<time>2023-10-07T07:29:49.000Z</time>
</trkpt>
<trkpt lat="45.9426810" lon="9.5940540">
	<ele>1542.80</ele>
	<time>2023-10-07T07:29:50.000Z</time>
</trkpt>
<trkpt lat="45.9426870" lon="9.5940470">
	<ele>1542.80</ele>
	<time>2023-10-07T07:29:51.000Z</time>
</trkpt>
<trkpt lat="45.9426920" lon="9.5940370">
	<ele>1543.00</ele>
	<time>2023-10-07T07:29:52.000Z</time>
</trkpt>
<trkpt lat="45.9426960" lon="9.5940270">
	<ele>1543.20</ele>
	<time>2023-10-07T07:29:53.000Z</time>
</trkpt>
<trkpt lat="45.9427000" lon="9.5940150">
	<ele>1543.40</ele>
	<time>2023-10-07T07:29:54.000Z</time>
</trkpt>
<trkpt lat="45.9427030" lon="9.5940020">
	<ele>1543.40</ele>
	<time>2023-10-07T07:29:55.000Z</time>
</trkpt>
<trkpt lat="45.9427050" lon="9.5939890">
	<ele>1543.40</ele>
	<time>2023-10-07T07:29:56.000Z</time>
</trkpt>
<trkpt lat="45.9427110" lon="9.5939800">
	<ele>1543.60</ele>
	<time>2023-10-07T07:29:57.000Z</time>
</trkpt>
<trkpt lat="45.9427130" lon="9.5939680">
	<ele>1543.80</ele>
	<time>2023-10-07T07:29:58.000Z</time>
</trkpt>
<trkpt lat="45.9427160" lon="9.5939590">
	<ele>1543.80</ele>
	<time>2023-10-07T07:29:59.000Z</time>
</trkpt>
<trkpt lat="45.9427170" lon="9.5939520">
	<ele>1544.00</ele>
	<time>2023-10-07T07:30:00.000Z</time>
</trkpt>
<trkpt lat="45.9427190" lon="9.5939430">
	<ele>1544.40</ele>
	<time>2023-10-07T07:30:01.000Z</time>
</trkpt>
<trkpt lat="45.9427230" lon="9.5939320">
	<ele>1544.60</ele>
	<time>2023-10-07T07:30:02.000Z</time>
</trkpt>
<trkpt lat="45.9427260" lon="9.5939250">
	<ele>1544.80</ele>
	<time>2023-10-07T07:30:03.000Z</time>
</trkpt>
<trkpt lat="45.9427280" lon="9.5939170">
	<ele>1545.00</ele>
	<time>2023-10-07T07:30:04.000Z</time>
</trkpt>
<trkpt lat="45.9427310" lon="9.5939080">
	<ele>1545.00</ele>
	<time>2023-10-07T07:30:05.000Z</time>
</trkpt>
<trkpt lat="45.9427330" lon="9.5938990">
	<ele>1545.20</ele>
	<time>2023-10-07T07:30:06.000Z</time>
</trkpt>
<trkpt lat="45.9427330" lon="9.5938900">
	<ele>1545.40</ele>
	<time>2023-10-07T07:30:07.000Z</time>
</trkpt>
<trkpt lat="45.9427340" lon="9.5938770">
	<ele>1545.60</ele>
	<time>2023-10-07T07:30:08.000Z</time>
</trkpt>
<trkpt lat="45.9427350" lon="9.5938670">
	<ele>1545.80</ele>
	<time>2023-10-07T07:30:09.000Z</time>
</trkpt>
<trkpt lat="45.9427340" lon="9.5938610">
	<ele>1546.00</ele>
	<time>2023-10-07T07:30:10.000Z</time>
</trkpt>
<trkpt lat="45.9427350" lon="9.5938500">
	<ele>1546.00</ele>
	<time>2023-10-07T07:30:11.000Z</time>
</trkpt>
<trkpt lat="45.9427340" lon="9.5938350">
	<ele>1546.40</ele>
	<time>2023-10-07T07:30:12.000Z</time>
</trkpt>
<trkpt lat="45.9427350" lon="9.5938210">
	<ele>1546.60</ele>
	<time>2023-10-07T07:30:13.000Z</time>
</trkpt>
<trkpt lat="45.9427350" lon="9.5938080">
	<ele>1546.60</ele>
	<time>2023-10-07T07:30:14.000Z</time>
</trkpt>
<trkpt lat="45.9427370" lon="9.5938000">
	<ele>1546.80</ele>
	<time>2023-10-07T07:30:15.000Z</time>
</trkpt>
<trkpt lat="45.9427360" lon="9.5937870">
	<ele>1546.80</ele>
	<time>2023-10-07T07:30:16.000Z</time>
</trkpt>
<trkpt lat="45.9427380" lon="9.5937730">
	<ele>1547.00</ele>
	<time>2023-10-07T07:30:17.000Z</time>
</trkpt>
<trkpt lat="45.9427380" lon="9.5937620">
	<ele>1547.00</ele>
	<time>2023-10-07T07:30:18.000Z</time>
</trkpt>
<trkpt lat="45.9427400" lon="9.5937490">
	<ele>1547.20</ele>
	<time>2023-10-07T07:30:19.000Z</time>
</trkpt>
<trkpt lat="45.9427420" lon="9.5937330">
	<ele>1547.20</ele>
	<time>2023-10-07T07:30:20.000Z</time>
</trkpt>
<trkpt lat="45.9427460" lon="9.5937240">
	<ele>1547.40</ele>
	<time>2023-10-07T07:30:21.000Z</time>
</trkpt>
<trkpt lat="45.9427480" lon="9.5937130">
	<ele>1547.40</ele>
	<time>2023-10-07T07:30:22.000Z</time>
</trkpt>
<trkpt lat="45.9427490" lon="9.5936950">
	<ele>1547.40</ele>
	<time>2023-10-07T07:30:23.000Z</time>
</trkpt>
<trkpt lat="45.9427490" lon="9.5936800">
	<ele>1547.60</ele>
	<time>2023-10-07T07:30:24.000Z</time>
</trkpt>
<trkpt lat="45.9427500" lon="9.5936650">
	<ele>1547.80</ele>
	<time>2023-10-07T07:30:25.000Z</time>
</trkpt>
<trkpt lat="45.9427520" lon="9.5936470">
	<ele>1547.80</ele>
	<time>2023-10-07T07:30:26.000Z</time>
</trkpt>
<trkpt lat="45.9427520" lon="9.5936330">
	<ele>1548.00</ele>
	<time>2023-10-07T07:30:27.000Z</time>
</trkpt>
<trkpt lat="45.9427540" lon="9.5936240">
	<ele>1548.20</ele>
	<time>2023-10-07T07:30:28.000Z</time>
</trkpt>
<trkpt lat="45.9427540" lon="9.5936120">
	<ele>1548.20</ele>
	<time>2023-10-07T07:30:29.000Z</time>
</trkpt>
<trkpt lat="45.9427560" lon="9.5935980">
	<ele>1548.40</ele>
	<time>2023-10-07T07:30:30.000Z</time>
</trkpt>
<trkpt lat="45.9427580" lon="9.5935860">
	<ele>1548.40</ele>
	<time>2023-10-07T07:30:31.000Z</time>
</trkpt>
<trkpt lat="45.9427620" lon="9.5935740">
	<ele>1548.60</ele>
	<time>2023-10-07T07:30:32.000Z</time>
</trkpt>
<trkpt lat="45.9427660" lon="9.5935590">
	<ele>1548.60</ele>
	<time>2023-10-07T07:30:33.000Z</time>
</trkpt>
<trkpt lat="45.9427690" lon="9.5935490">
	<ele>1548.80</ele>
	<time>2023-10-07T07:30:34.000Z</time>
</trkpt>
<trkpt lat="45.9427710" lon="9.5935380">
	<ele>1549.00</ele>
	<time>2023-10-07T07:30:35.000Z</time>
</trkpt>
<trkpt lat="45.9427730" lon="9.5935260">
	<ele>1549.20</ele>
	<time>2023-10-07T07:30:36.000Z</time>
</trkpt>
<trkpt lat="45.9427770" lon="9.5935160">
	<ele>1549.20</ele>
	<time>2023-10-07T07:30:37.000Z</time>
</trkpt>
<trkpt lat="45.9427770" lon="9.5935020">
	<ele>1549.40</ele>
	<time>2023-10-07T07:30:38.000Z</time>
</trkpt>
<trkpt lat="45.9427780" lon="9.5934860">
	<ele>1549.40</ele>
	<time>2023-10-07T07:30:39.000Z</time>
</trkpt>
<trkpt lat="45.9427790" lon="9.5934740">
	<ele>1549.80</ele>
	<time>2023-10-07T07:30:40.000Z</time>
</trkpt>
<trkpt lat="45.9427830" lon="9.5934620">
	<ele>1549.80</ele>
	<time>2023-10-07T07:30:41.000Z</time>
</trkpt>
<trkpt lat="45.9427850" lon="9.5934490">
	<ele>1550.00</ele>
	<time>2023-10-07T07:30:42.000Z</time>
</trkpt>
<trkpt lat="45.9427860" lon="9.5934390">
	<ele>1550.00</ele>
	<time>2023-10-07T07:30:43.000Z</time>
</trkpt>
<trkpt lat="45.9427890" lon="9.5934300">
	<ele>1550.00</ele>
	<time>2023-10-07T07:30:44.000Z</time>
</trkpt>
<trkpt lat="45.9427920" lon="9.5934190">
	<ele>1550.20</ele>
	<time>2023-10-07T07:30:45.000Z</time>
</trkpt>
<trkpt lat="45.9427920" lon="9.5934040">
	<ele>1550.40</ele>
	<time>2023-10-07T07:30:46.000Z</time>
</trkpt>
<trkpt lat="45.9427940" lon="9.5933920">
	<ele>1550.40</ele>
	<time>2023-10-07T07:30:47.000Z</time>
</trkpt>
<trkpt lat="45.9427940" lon="9.5933780">
	<ele>1550.60</ele>
	<time>2023-10-07T07:30:48.000Z</time>
</trkpt>
<trkpt lat="45.9427960" lon="9.5933660">
	<ele>1550.60</ele>
	<time>2023-10-07T07:30:49.000Z</time>
</trkpt>
<trkpt lat="45.9427980" lon="9.5933550">
	<ele>1550.60</ele>
	<time>2023-10-07T07:30:50.000Z</time>
</trkpt>
<trkpt lat="45.9428000" lon="9.5933460">
	<ele>1550.60</ele>
	<time>2023-10-07T07:30:51.000Z</time>
</trkpt>
<trkpt lat="45.9427990" lon="9.5933340">
	<ele>1550.80</ele>
	<time>2023-10-07T07:30:52.000Z</time>
</trkpt>
<trkpt lat="45.9427970" lon="9.5933200">
	<ele>1550.80</ele>
	<time>2023-10-07T07:30:53.000Z</time>
</trkpt>
<trkpt lat="45.9427950" lon="9.5933090">
	<ele>1550.80</ele>
	<time>2023-10-07T07:30:54.000Z</time>
</trkpt>
<trkpt lat="45.9427960" lon="9.5932920">
	<ele>1551.00</ele>
	<time>2023-10-07T07:30:55.000Z</time>
</trkpt>
<trkpt lat="45.9427960" lon="9.5932760">
	<ele>1551.00</ele>
	<time>2023-10-07T07:30:56.000Z</time>
</trkpt>
<trkpt lat="45.9427970" lon="9.5932610">
	<ele>1551.00</ele>
	<time>2023-10-07T07:30:57.000Z</time>
</trkpt>
<trkpt lat="45.9427970" lon="9.5932490">
	<ele>1551.40</ele>
	<time>2023-10-07T07:30:58.000Z</time>
</trkpt>
<trkpt lat="45.9427980" lon="9.5932390">
	<ele>1551.40</ele>
	<time>2023-10-07T07:30:59.000Z</time>
</trkpt>
<trkpt lat="45.9428000" lon="9.5932250">
	<ele>1551.60</ele>
	<time>2023-10-07T07:31:00.000Z</time>
</trkpt>
<trkpt lat="45.9428030" lon="9.5932160">
	<ele>1551.60</ele>
	<time>2023-10-07T07:31:01.000Z</time>
</trkpt>
<trkpt lat="45.9428050" lon="9.5932030">
	<ele>1551.80</ele>
	<time>2023-10-07T07:31:02.000Z</time>
</trkpt>
<trkpt lat="45.9428060" lon="9.5931880">
	<ele>1551.80</ele>
	<time>2023-10-07T07:31:03.000Z</time>
</trkpt>
<trkpt lat="45.9428080" lon="9.5931790">
	<ele>1552.00</ele>
	<time>2023-10-07T07:31:04.000Z</time>
</trkpt>
<trkpt lat="45.9428080" lon="9.5931630">
	<ele>1552.20</ele>
	<time>2023-10-07T07:31:05.000Z</time>
</trkpt>
<trkpt lat="45.9428130" lon="9.5931510">
	<ele>1552.40</ele>
	<time>2023-10-07T07:31:06.000Z</time>
</trkpt>
<trkpt lat="45.9428160" lon="9.5931390">
	<ele>1552.60</ele>
	<time>2023-10-07T07:31:07.000Z</time>
</trkpt>
<trkpt lat="45.9428180" lon="9.5931250">
	<ele>1552.60</ele>
	<time>2023-10-07T07:31:08.000Z</time>
</trkpt>
<trkpt lat="45.9428190" lon="9.5931080">
	<ele>1552.80</ele>
	<time>2023-10-07T07:31:09.000Z</time>
</trkpt>
<trkpt lat="45.9428210" lon="9.5930970">
	<ele>1552.80</ele>
	<time>2023-10-07T07:31:10.000Z</time>
</trkpt>
<trkpt lat="45.9428240" lon="9.5930820">
	<ele>1552.80</ele>
	<time>2023-10-07T07:31:11.000Z</time>
</trkpt>
<trkpt lat="45.9428280" lon="9.5930680">
	<ele>1553.00</ele>
	<time>2023-10-07T07:31:12.000Z</time>
</trkpt>
<trkpt lat="45.9428300" lon="9.5930570">
	<ele>1553.20</ele>
	<time>2023-10-07T07:31:13.000Z</time>
</trkpt>
<trkpt lat="45.9428330" lon="9.5930430">
	<ele>1553.40</ele>
	<time>2023-10-07T07:31:14.000Z</time>
</trkpt>
<trkpt lat="45.9428370" lon="9.5930320">
	<ele>1553.60</ele>
	<time>2023-10-07T07:31:15.000Z</time>
</trkpt>
<trkpt lat="45.9428410" lon="9.5930210">
	<ele>1553.60</ele>
	<time>2023-10-07T07:31:16.000Z</time>
</trkpt>
<trkpt lat="45.9428440" lon="9.5930100">
	<ele>1553.80</ele>
	<time>2023-10-07T07:31:17.000Z</time>
</trkpt>
<trkpt lat="45.9428460" lon="9.5929990">
	<ele>1553.80</ele>
	<time>2023-10-07T07:31:18.000Z</time>
</trkpt>
<trkpt lat="45.9428490" lon="9.5929880">
	<ele>1554.00</ele>
	<time>2023-10-07T07:31:19.000Z</time>
</trkpt>
<trkpt lat="45.9428510" lon="9.5929740">
	<ele>1554.00</ele>
	<time>2023-10-07T07:31:20.000Z</time>
</trkpt>
<trkpt lat="45.9428530" lon="9.5929630">
	<ele>1554.00</ele>
	<time>2023-10-07T07:31:21.000Z</time>
</trkpt>
<trkpt lat="45.9428530" lon="9.5929480">
	<ele>1554.00</ele>
	<time>2023-10-07T07:31:22.000Z</time>
</trkpt>
<trkpt lat="45.9428530" lon="9.5929310">
	<ele>1554.20</ele>
	<time>2023-10-07T07:31:23.000Z</time>
</trkpt>
<trkpt lat="45.9428540" lon="9.5929150">
	<ele>1554.20</ele>
	<time>2023-10-07T07:31:24.000Z</time>
</trkpt>
<trkpt lat="45.9428580" lon="9.5928990">
	<ele>1554.20</ele>
	<time>2023-10-07T07:31:25.000Z</time>
</trkpt>
<trkpt lat="45.9428590" lon="9.5928860">
	<ele>1554.20</ele>
	<time>2023-10-07T07:31:26.000Z</time>
</trkpt>
<trkpt lat="45.9428630" lon="9.5928770">
	<ele>1554.20</ele>
	<time>2023-10-07T07:31:27.000Z</time>
</trkpt>
<trkpt lat="45.9428630" lon="9.5928640">
	<ele>1554.20</ele>
	<time>2023-10-07T07:31:28.000Z</time>
</trkpt>
<trkpt lat="45.9428630" lon="9.5928520">
	<ele>1554.20</ele>
	<time>2023-10-07T07:31:29.000Z</time>
</trkpt>
<trkpt lat="45.9428620" lon="9.5928400">
	<ele>1554.40</ele>
	<time>2023-10-07T07:31:30.000Z</time>
</trkpt>
<trkpt lat="45.9428630" lon="9.5928250">
	<ele>1554.60</ele>
	<time>2023-10-07T07:31:31.000Z</time>
</trkpt>
<trkpt lat="45.9428640" lon="9.5928130">
	<ele>1554.60</ele>
	<time>2023-10-07T07:31:32.000Z</time>
</trkpt>
<trkpt lat="45.9428660" lon="9.5928040">
	<ele>1554.80</ele>
	<time>2023-10-07T07:31:33.000Z</time>
</trkpt>
<trkpt lat="45.9428630" lon="9.5927920">
	<ele>1554.80</ele>
	<time>2023-10-07T07:31:34.000Z</time>
</trkpt>
<trkpt lat="45.9428610" lon="9.5927830">
	<ele>1555.00</ele>
	<time>2023-10-07T07:31:35.000Z</time>
</trkpt>
<trkpt lat="45.9428600" lon="9.5927710">
	<ele>1555.20</ele>
	<time>2023-10-07T07:31:36.000Z</time>
</trkpt>
<trkpt lat="45.9428650" lon="9.5927610">
	<ele>1555.40</ele>
	<time>2023-10-07T07:31:37.000Z</time>
</trkpt>
<trkpt lat="45.9428670" lon="9.5927510">
	<ele>1555.60</ele>
	<time>2023-10-07T07:31:38.000Z</time>
</trkpt>
<trkpt lat="45.9428680" lon="9.5927410">
	<ele>1555.80</ele>
	<time>2023-10-07T07:31:39.000Z</time>
</trkpt>
<trkpt lat="45.9428670" lon="9.5927300">
	<ele>1556.00</ele>
	<time>2023-10-07T07:31:40.000Z</time>
</trkpt>
<trkpt lat="45.9428680" lon="9.5927200">
	<ele>1556.20</ele>
	<time>2023-10-07T07:31:41.000Z</time>
</trkpt>
<trkpt lat="45.9428690" lon="9.5927080">
	<ele>1556.20</ele>
	<time>2023-10-07T07:31:42.000Z</time>
</trkpt>
<trkpt lat="45.9428690" lon="9.5926950">
	<ele>1556.40</ele>
	<time>2023-10-07T07:31:43.000Z</time>
</trkpt>
<trkpt lat="45.9428720" lon="9.5926840">
	<ele>1556.60</ele>
	<time>2023-10-07T07:31:44.000Z</time>
</trkpt>
<trkpt lat="45.9428740" lon="9.5926710">
	<ele>1556.80</ele>
	<time>2023-10-07T07:31:45.000Z</time>
</trkpt>
<trkpt lat="45.9428740" lon="9.5926620">
	<ele>1556.80</ele>
	<time>2023-10-07T07:31:46.000Z</time>
</trkpt>
<trkpt lat="45.9428750" lon="9.5926530">
	<ele>1556.80</ele>
	<time>2023-10-07T07:31:47.000Z</time>
</trkpt>
<trkpt lat="45.9428780" lon="9.5926450">
	<ele>1557.00</ele>
	<time>2023-10-07T07:31:48.000Z</time>
</trkpt>
<trkpt lat="45.9428790" lon="9.5926360">
	<ele>1557.20</ele>
	<time>2023-10-07T07:31:49.000Z</time>
</trkpt>
<trkpt lat="45.9428790" lon="9.5926270">
	<ele>1557.20</ele>
	<time>2023-10-07T07:31:50.000Z</time>
</trkpt>
<trkpt lat="45.9428820" lon="9.5926160">
	<ele>1557.40</ele>
	<time>2023-10-07T07:31:51.000Z</time>
</trkpt>
<trkpt lat="45.9428830" lon="9.5926090">
	<ele>1557.60</ele>
	<time>2023-10-07T07:31:52.000Z</time>
</trkpt>
<trkpt lat="45.9428860" lon="9.5926010">
	<ele>1557.80</ele>
	<time>2023-10-07T07:31:53.000Z</time>
</trkpt>
<trkpt lat="45.9428890" lon="9.5925920">
	<ele>1557.80</ele>
	<time>2023-10-07T07:31:54.000Z</time>
</trkpt>
<trkpt lat="45.9428940" lon="9.5925830">
	<ele>1558.20</ele>
	<time>2023-10-07T07:31:55.000Z</time>
</trkpt>
<trkpt lat="45.9428990" lon="9.5925740">
	<ele>1558.40</ele>
	<time>2023-10-07T07:31:56.000Z</time>
</trkpt>
<trkpt lat="45.9429010" lon="9.5925670">
	<ele>1558.40</ele>
	<time>2023-10-07T07:31:57.000Z</time>
</trkpt>
<trkpt lat="45.9429020" lon="9.5925620">
	<ele>1558.80</ele>
	<time>2023-10-07T07:31:58.000Z</time>
</trkpt>
<trkpt lat="45.9429020" lon="9.5925550">
	<ele>1559.00</ele>
	<time>2023-10-07T07:31:59.000Z</time>
</trkpt>
<trkpt lat="45.9429000" lon="9.5925450">
	<ele>1559.00</ele>
	<time>2023-10-07T07:32:00.000Z</time>
</trkpt>
<trkpt lat="45.9429000" lon="9.5925330">
	<ele>1559.20</ele>
	<time>2023-10-07T07:32:01.000Z</time>
</trkpt>
<trkpt lat="45.9429020" lon="9.5925240">
	<ele>1559.20</ele>
	<time>2023-10-07T07:32:02.000Z</time>
</trkpt>
<trkpt lat="45.9429050" lon="9.5925150">
	<ele>1559.40</ele>
	<time>2023-10-07T07:32:03.000Z</time>
</trkpt>
<trkpt lat="45.9429060" lon="9.5925060">
	<ele>1559.60</ele>
	<time>2023-10-07T07:32:04.000Z</time>
</trkpt>
<trkpt lat="45.9429060" lon="9.5924990">
	<ele>1559.60</ele>
	<time>2023-10-07T07:32:05.000Z</time>
</trkpt>
<trkpt lat="45.9429060" lon="9.5924890">
	<ele>1559.80</ele>
	<time>2023-10-07T07:32:06.000Z</time>
</trkpt>
<trkpt lat="45.9429080" lon="9.5924820">
	<ele>1560.00</ele>
	<time>2023-10-07T07:32:07.000Z</time>
</trkpt>
<trkpt lat="45.9429070" lon="9.5924760">
	<ele>1560.00</ele>
	<time>2023-10-07T07:32:08.000Z</time>
</trkpt>
<trkpt lat="45.9429070" lon="9.5924660">
	<ele>1560.20</ele>
	<time>2023-10-07T07:32:09.000Z</time>
</trkpt>
<trkpt lat="45.9429090" lon="9.5924560">
	<ele>1560.20</ele>
	<time>2023-10-07T07:32:10.000Z</time>
</trkpt>
<trkpt lat="45.9429100" lon="9.5924480">
	<ele>1560.40</ele>
	<time>2023-10-07T07:32:11.000Z</time>
</trkpt>
<trkpt lat="45.9429120" lon="9.5924380">
	<ele>1560.60</ele>
	<time>2023-10-07T07:32:12.000Z</time>
</trkpt>
<trkpt lat="45.9429120" lon="9.5924250">
	<ele>1560.80</ele>
	<time>2023-10-07T07:32:13.000Z</time>
</trkpt>
<trkpt lat="45.9429140" lon="9.5924160">
	<ele>1561.00</ele>
	<time>2023-10-07T07:32:14.000Z</time>
</trkpt>
<trkpt lat="45.9429150" lon="9.5924100">
	<ele>1561.20</ele>
	<time>2023-10-07T07:32:15.000Z</time>
</trkpt>
<trkpt lat="45.9429150" lon="9.5924020">
	<ele>1561.40</ele>
	<time>2023-10-07T07:32:16.000Z</time>
</trkpt>
<trkpt lat="45.9429150" lon="9.5923950">
	<ele>1561.40</ele>
	<time>2023-10-07T07:32:17.000Z</time>
</trkpt>
<trkpt lat="45.9429170" lon="9.5923860">
	<ele>1561.40</ele>
	<time>2023-10-07T07:32:18.000Z</time>
</trkpt>
<trkpt lat="45.9429190" lon="9.5923750">
	<ele>1561.60</ele>
	<time>2023-10-07T07:32:19.000Z</time>
</trkpt>
<trkpt lat="45.9429200" lon="9.5923670">
	<ele>1561.80</ele>
	<time>2023-10-07T07:32:20.000Z</time>
</trkpt>
<trkpt lat="45.9429210" lon="9.5923570">
	<ele>1561.80</ele>
	<time>2023-10-07T07:32:21.000Z</time>
</trkpt>
<trkpt lat="45.9429220" lon="9.5923460">
	<ele>1562.00</ele>
	<time>2023-10-07T07:32:22.000Z</time>
</trkpt>
<trkpt lat="45.9429230" lon="9.5923360">
	<ele>1562.00</ele>
	<time>2023-10-07T07:32:23.000Z</time>
</trkpt>
<trkpt lat="45.9429240" lon="9.5923240">
	<ele>1562.00</ele>
	<time>2023-10-07T07:32:24.000Z</time>
</trkpt>
<trkpt lat="45.9429270" lon="9.5923120">
	<ele>1562.20</ele>
	<time>2023-10-07T07:32:25.000Z</time>
</trkpt>
<trkpt lat="45.9429320" lon="9.5923030">
	<ele>1562.40</ele>
	<time>2023-10-07T07:32:26.000Z</time>
</trkpt>
<trkpt lat="45.9429350" lon="9.5922920">
	<ele>1562.40</ele>
	<time>2023-10-07T07:32:27.000Z</time>
</trkpt>
<trkpt lat="45.9429380" lon="9.5922820">
	<ele>1562.60</ele>
	<time>2023-10-07T07:32:28.000Z</time>
</trkpt>
<trkpt lat="45.9429400" lon="9.5922710">
	<ele>1562.60</ele>
	<time>2023-10-07T07:32:29.000Z</time>
</trkpt>
<trkpt lat="45.9429430" lon="9.5922630">
	<ele>1562.60</ele>
	<time>2023-10-07T07:32:30.000Z</time>
</trkpt>
<trkpt lat="45.9429470" lon="9.5922510">
	<ele>1562.80</ele>
	<time>2023-10-07T07:32:31.000Z</time>
</trkpt>
<trkpt lat="45.9429510" lon="9.5922410">
	<ele>1563.00</ele>
	<time>2023-10-07T07:32:32.000Z</time>
</trkpt>
<trkpt lat="45.9429550" lon="9.5922310">
	<ele>1563.00</ele>
	<time>2023-10-07T07:32:33.000Z</time>
</trkpt>
<trkpt lat="45.9429570" lon="9.5922180">
	<ele>1563.00</ele>
	<time>2023-10-07T07:32:34.000Z</time>
</trkpt>
<trkpt lat="45.9429600" lon="9.5922040">
	<ele>1563.20</ele>
	<time>2023-10-07T07:32:35.000Z</time>
</trkpt>
<trkpt lat="45.9429640" lon="9.5921920">
	<ele>1563.20</ele>
	<time>2023-10-07T07:32:36.000Z</time>
</trkpt>
<trkpt lat="45.9429660" lon="9.5921820">
	<ele>1563.40</ele>
	<time>2023-10-07T07:32:37.000Z</time>
</trkpt>
<trkpt lat="45.9429710" lon="9.5921720">
	<ele>1563.40</ele>
	<time>2023-10-07T07:32:38.000Z</time>
</trkpt>
<trkpt lat="45.9429740" lon="9.5921590">
	<ele>1563.60</ele>
	<time>2023-10-07T07:32:39.000Z</time>
</trkpt>
<trkpt lat="45.9429770" lon="9.5921490">
	<ele>1563.60</ele>
	<time>2023-10-07T07:32:40.000Z</time>
</trkpt>
<trkpt lat="45.9429780" lon="9.5921360">
	<ele>1563.60</ele>
	<time>2023-10-07T07:32:41.000Z</time>
</trkpt>
<trkpt lat="45.9429810" lon="9.5921240">
	<ele>1563.80</ele>
	<time>2023-10-07T07:32:42.000Z</time>
</trkpt>
<trkpt lat="45.9429830" lon="9.5921140">
	<ele>1564.00</ele>
	<time>2023-10-07T07:32:43.000Z</time>
</trkpt>
<trkpt lat="45.9429840" lon="9.5921030">
	<ele>1564.20</ele>
	<time>2023-10-07T07:32:44.000Z</time>
</trkpt>
<trkpt lat="45.9429840" lon="9.5920910">
	<ele>1564.40</ele>
	<time>2023-10-07T07:32:45.000Z</time>
</trkpt>
<trkpt lat="45.9429840" lon="9.5920840">
	<ele>1564.60</ele>
	<time>2023-10-07T07:32:46.000Z</time>
</trkpt>
<trkpt lat="45.9429840" lon="9.5920750">
	<ele>1564.60</ele>
	<time>2023-10-07T07:32:47.000Z</time>
</trkpt>
<trkpt lat="45.9429850" lon="9.5920650">
	<ele>1564.80</ele>
	<time>2023-10-07T07:32:48.000Z</time>
</trkpt>
<trkpt lat="45.9429860" lon="9.5920560">
	<ele>1564.80</ele>
	<time>2023-10-07T07:32:49.000Z</time>
</trkpt>
<trkpt lat="45.9429890" lon="9.5920490">
	<ele>1565.00</ele>
	<time>2023-10-07T07:32:50.000Z</time>
</trkpt>
<trkpt lat="45.9429910" lon="9.5920440">
	<ele>1565.00</ele>
	<time>2023-10-07T07:32:51.000Z</time>
</trkpt>
<trkpt lat="45.9429930" lon="9.5920340">
	<ele>1565.20</ele>
	<time>2023-10-07T07:32:52.000Z</time>
</trkpt>
<trkpt lat="45.9429940" lon="9.5920270">
	<ele>1565.40</ele>
	<time>2023-10-07T07:32:53.000Z</time>
</trkpt>
<trkpt lat="45.9429940" lon="9.5920160">
	<ele>1565.40</ele>
	<time>2023-10-07T07:32:54.000Z</time>
</trkpt>
<trkpt lat="45.9429920" lon="9.5920060">
	<ele>1565.60</ele>
	<time>2023-10-07T07:32:55.000Z</time>
</trkpt>
<trkpt lat="45.9429920" lon="9.5919970">
	<ele>1566.00</ele>
	<time>2023-10-07T07:32:56.000Z</time>
</trkpt>
<trkpt lat="45.9429930" lon="9.5919880">
	<ele>1566.00</ele>
	<time>2023-10-07T07:32:57.000Z</time>
</trkpt>
<trkpt lat="45.9429940" lon="9.5919770">
	<ele>1566.20</ele>
	<time>2023-10-07T07:32:58.000Z</time>
</trkpt>
<trkpt lat="45.9429950" lon="9.5919710">
	<ele>1566.20</ele>
	<time>2023-10-07T07:32:59.000Z</time>
</trkpt>
<trkpt lat="45.9429970" lon="9.5919620">
	<ele>1566.60</ele>
	<time>2023-10-07T07:33:00.000Z</time>
</trkpt>
<trkpt lat="45.9430010" lon="9.5919540">
	<ele>1566.80</ele>
	<time>2023-10-07T07:33:01.000Z</time>
</trkpt>
<trkpt lat="45.9430030" lon="9.5919470">
	<ele>1566.80</ele>
	<time>2023-10-07T07:33:02.000Z</time>
</trkpt>
<trkpt lat="45.9430040" lon="9.5919420">
	<ele>1567.00</ele>
	<time>2023-10-07T07:33:03.000Z</time>
</trkpt>
<trkpt lat="45.9430070" lon="9.5919360">
	<ele>1567.20</ele>
	<time>2023-10-07T07:33:04.000Z</time>
</trkpt>
<trkpt lat="45.9430100" lon="9.5919270">
	<ele>1567.20</ele>
	<time>2023-10-07T07:33:05.000Z</time>
</trkpt>
<trkpt lat="45.9430100" lon="9.5919230">
	<ele>1567.60</ele>
	<time>2023-10-07T07:33:06.000Z</time>
</trkpt>
<trkpt lat="45.9430140" lon="9.5919170">
	<ele>1567.60</ele>
	<time>2023-10-07T07:33:07.000Z</time>
</trkpt>
<trkpt lat="45.9430170" lon="9.5919090">
	<ele>1567.80</ele>
	<time>2023-10-07T07:33:08.000Z</time>
</trkpt>
<trkpt lat="45.9430170" lon="9.5919030">
	<ele>1568.00</ele>
	<time>2023-10-07T07:33:09.000Z</time>
</trkpt>
<trkpt lat="45.9430180" lon="9.5918950">
	<ele>1568.20</ele>
	<time>2023-10-07T07:33:10.000Z</time>
</trkpt>
<trkpt lat="45.9430200" lon="9.5918870">
	<ele>1568.40</ele>
	<time>2023-10-07T07:33:11.000Z</time>
</trkpt>
<trkpt lat="45.9430240" lon="9.5918870">
	<ele>1568.80</ele>
	<time>2023-10-07T07:33:12.000Z</time>
</trkpt>
<trkpt lat="45.9430240" lon="9.5918870">
	<ele>1568.80</ele>
	<time>2023-10-07T07:33:13.000Z</time>
</trkpt>
<trkpt lat="45.9430260" lon="9.5918840">
	<ele>1569.00</ele>
	<time>2023-10-07T07:33:14.000Z</time>
</trkpt>
<trkpt lat="45.9430300" lon="9.5918810">
	<ele>1569.20</ele>
	<time>2023-10-07T07:33:15.000Z</time>
</trkpt>
<trkpt lat="45.9430320" lon="9.5918770">
	<ele>1569.40</ele>
	<time>2023-10-07T07:33:16.000Z</time>
</trkpt>
<trkpt lat="45.9430360" lon="9.5918710">
	<ele>1569.40</ele>
	<time>2023-10-07T07:33:17.000Z</time>
</trkpt>
<trkpt lat="45.9430390" lon="9.5918620">
	<ele>1569.60</ele>
	<time>2023-10-07T07:33:18.000Z</time>
</trkpt>
<trkpt lat="45.9430410" lon="9.5918580">
	<ele>1569.80</ele>
	<time>2023-10-07T07:33:19.000Z</time>
</trkpt>
<trkpt lat="45.9430420" lon="9.5918520">
	<ele>1569.80</ele>
	<time>2023-10-07T07:33:20.000Z</time>
</trkpt>
<trkpt lat="45.9430420" lon="9.5918440">
	<ele>1570.00</ele>
	<time>2023-10-07T07:33:21.000Z</time>
</trkpt>
<trkpt lat="45.9430430" lon="9.5918380">
	<ele>1570.20</ele>
	<time>2023-10-07T07:33:22.000Z</time>
</trkpt>
<trkpt lat="45.9430440" lon="9.5918310">
	<ele>1570.20</ele>
	<time>2023-10-07T07:33:23.000Z</time>
</trkpt>
<trkpt lat="45.9430460" lon="9.5918230">
	<ele>1570.40</ele>
	<time>2023-10-07T07:33:24.000Z</time>
</trkpt>
<trkpt lat="45.9430490" lon="9.5918160">
	<ele>1570.60</ele>
	<time>2023-10-07T07:33:25.000Z</time>
</trkpt>
<trkpt lat="45.9430510" lon="9.5918090">
	<ele>1570.80</ele>
	<time>2023-10-07T07:33:26.000Z</time>
</trkpt>
<trkpt lat="45.9430540" lon="9.5918030">
	<ele>1571.00</ele>
	<time>2023-10-07T07:33:27.000Z</time>
</trkpt>
<trkpt lat="45.9430560" lon="9.5917970">
	<ele>1571.20</ele>
	<time>2023-10-07T07:33:28.000Z</time>
</trkpt>
<trkpt lat="45.9430560" lon="9.5917880">
	<ele>1571.40</ele>
	<time>2023-10-07T07:33:29.000Z</time>
</trkpt>
<trkpt lat="45.9430590" lon="9.5917820">
	<ele>1571.60</ele>
	<time>2023-10-07T07:33:30.000Z</time>
</trkpt>
<trkpt lat="45.9430600" lon="9.5917760">
	<ele>1571.80</ele>
	<time>2023-10-07T07:33:31.000Z</time>
</trkpt>
<trkpt lat="45.9430620" lon="9.5917710">
	<ele>1572.00</ele>
	<time>2023-10-07T07:33:32.000Z</time>
</trkpt>
<trkpt lat="45.9430640" lon="9.5917610">
	<ele>1572.20</ele>
	<time>2023-10-07T07:33:33.000Z</time>
</trkpt>
<trkpt lat="45.9430650" lon="9.5917500">
	<ele>1572.40</ele>
	<time>2023-10-07T07:33:34.000Z</time>
</trkpt>
<trkpt lat="45.9430650" lon="9.5917450">
	<ele>1572.40</ele>
	<time>2023-10-07T07:33:35.000Z</time>
</trkpt>
<trkpt lat="45.9430650" lon="9.5917380">
	<ele>1572.60</ele>
	<time>2023-10-07T07:33:36.000Z</time>
</trkpt>
<trkpt lat="45.9430670" lon="9.5917300">
	<ele>1572.80</ele>
	<time>2023-10-07T07:33:37.000Z</time>
</trkpt>
<trkpt lat="45.9430680" lon="9.5917220">
	<ele>1573.00</ele>
	<time>2023-10-07T07:33:38.000Z</time>
</trkpt>
<trkpt lat="45.9430700" lon="9.5917150">
	<ele>1573.20</ele>
	<time>2023-10-07T07:33:39.000Z</time>
</trkpt>
<trkpt lat="45.9430700" lon="9.5917050">
	<ele>1573.20</ele>
	<time>2023-10-07T07:33:40.000Z</time>
</trkpt>
<trkpt lat="45.9430710" lon="9.5916990">
	<ele>1573.40</ele>
	<time>2023-10-07T07:33:41.000Z</time>
</trkpt>
<trkpt lat="45.9430710" lon="9.5916930">
	<ele>1573.60</ele>
	<time>2023-10-07T07:33:42.000Z</time>
</trkpt>
<trkpt lat="45.9430730" lon="9.5916850">
	<ele>1573.80</ele>
	<time>2023-10-07T07:33:43.000Z</time>
</trkpt>
<trkpt lat="45.9430740" lon="9.5916770">
	<ele>1574.00</ele>
	<time>2023-10-07T07:33:44.000Z</time>
</trkpt>
<trkpt lat="45.9430750" lon="9.5916710">
	<ele>1574.40</ele>
	<time>2023-10-07T07:33:45.000Z</time>
</trkpt>
<trkpt lat="45.9430760" lon="9.5916650">
	<ele>1574.40</ele>
	<time>2023-10-07T07:33:46.000Z</time>
</trkpt>
<trkpt lat="45.9430760" lon="9.5916570">
	<ele>1574.60</ele>
	<time>2023-10-07T07:33:47.000Z</time>
</trkpt>
<trkpt lat="45.9430780" lon="9.5916520">
	<ele>1574.80</ele>
	<time>2023-10-07T07:33:48.000Z</time>
</trkpt>
<trkpt lat="45.9430810" lon="9.5916450">
	<ele>1574.80</ele>
	<time>2023-10-07T07:33:49.000Z</time>
</trkpt>
<trkpt lat="45.9430820" lon="9.5916380">
	<ele>1575.00</ele>
	<time>2023-10-07T07:33:50.000Z</time>
</trkpt>
<trkpt lat="45.9430820" lon="9.5916290">
	<ele>1575.20</ele>
	<time>2023-10-07T07:33:51.000Z</time>
</trkpt>
<trkpt lat="45.9430850" lon="9.5916210">
	<ele>1575.40</ele>
	<time>2023-10-07T07:33:52.000Z</time>
</trkpt>
<trkpt lat="45.9430890" lon="9.5916130">
	<ele>1575.40</ele>
	<time>2023-10-07T07:33:53.000Z</time>
</trkpt>
<trkpt lat="45.9430890" lon="9.5916040">
	<ele>1575.60</ele>
	<time>2023-10-07T07:33:54.000Z</time>
</trkpt>
<trkpt lat="45.9430910" lon="9.5915950">
	<ele>1575.60</ele>
	<time>2023-10-07T07:33:55.000Z</time>
</trkpt>
<trkpt lat="45.9430900" lon="9.5915870">
	<ele>1575.80</ele>
	<time>2023-10-07T07:33:56.000Z</time>
</trkpt>
<trkpt lat="45.9430910" lon="9.5915790">
	<ele>1576.00</ele>
	<time>2023-10-07T07:33:57.000Z</time>
</trkpt>
<trkpt lat="45.9430910" lon="9.5915690">
	<ele>1576.20</ele>
	<time>2023-10-07T07:33:58.000Z</time>
</trkpt>
<trkpt lat="45.9430900" lon="9.5915620">
	<ele>1576.40</ele>
	<time>2023-10-07T07:33:59.000Z</time>
</trkpt>
<trkpt lat="45.9430900" lon="9.5915550">
	<ele>1576.60</ele>
	<time>2023-10-07T07:34:00.000Z</time>
</trkpt>
<trkpt lat="45.9430900" lon="9.5915480">
	<ele>1576.80</ele>
	<time>2023-10-07T07:34:01.000Z</time>
</trkpt>
<trkpt lat="45.9430900" lon="9.5915430">
	<ele>1576.80</ele>
	<time>2023-10-07T07:34:02.000Z</time>
</trkpt>
<trkpt lat="45.9430900" lon="9.5915370">
	<ele>1577.00</ele>
	<time>2023-10-07T07:34:03.000Z</time>
</trkpt>
<trkpt lat="45.9430910" lon="9.5915310">
	<ele>1577.00</ele>
	<time>2023-10-07T07:34:04.000Z</time>
</trkpt>
<trkpt lat="45.9430900" lon="9.5915250">
	<ele>1577.20</ele>
	<time>2023-10-07T07:34:05.000Z</time>
</trkpt>
<trkpt lat="45.9430870" lon="9.5915170">
	<ele>1577.40</ele>
	<time>2023-10-07T07:34:06.000Z</time>
</trkpt>
<trkpt lat="45.9430840" lon="9.5915080">
	<ele>1577.40</ele>
	<time>2023-10-07T07:34:07.000Z</time>
</trkpt>
<trkpt lat="45.9430820" lon="9.5914990">
	<ele>1577.60</ele>
	<time>2023-10-07T07:34:08.000Z</time>
</trkpt>
<trkpt lat="45.9430810" lon="9.5914930">
	<ele>1577.80</ele>
	<time>2023-10-07T07:34:09.000Z</time>
</trkpt>
<trkpt lat="45.9430800" lon="9.5914840">
	<ele>1578.00</ele>
	<time>2023-10-07T07:34:10.000Z</time>
</trkpt>
<trkpt lat="45.9430800" lon="9.5914760">
	<ele>1578.20</ele>
	<time>2023-10-07T07:34:11.000Z</time>
</trkpt>
<trkpt lat="45.9430790" lon="9.5914670">
	<ele>1578.40</ele>
	<time>2023-10-07T07:34:12.000Z</time>
</trkpt>
<trkpt lat="45.9430790" lon="9.5914570">
	<ele>1578.60</ele>
	<time>2023-10-07T07:34:13.000Z</time>
</trkpt>
<trkpt lat="45.9430790" lon="9.5914490">
	<ele>1578.60</ele>
	<time>2023-10-07T07:34:14.000Z</time>
</trkpt>
<trkpt lat="45.9430800" lon="9.5914430">
	<ele>1578.80</ele>
	<time>2023-10-07T07:34:15.000Z</time>
</trkpt>
<trkpt lat="45.9430820" lon="9.5914350">
	<ele>1579.00</ele>
	<time>2023-10-07T07:34:16.000Z</time>
</trkpt>
<trkpt lat="45.9430820" lon="9.5914250">
	<ele>1579.00</ele>
	<time>2023-10-07T07:34:17.000Z</time>
</trkpt>
<trkpt lat="45.9430780" lon="9.5914180">
	<ele>1579.00</ele>
	<time>2023-10-07T07:34:18.000Z</time>
</trkpt>
<trkpt lat="45.9430760" lon="9.5914080">
	<ele>1579.20</ele>
	<time>2023-10-07T07:34:19.000Z</time>
</trkpt>
<trkpt lat="45.9430780" lon="9.5913980">
	<ele>1579.20</ele>
	<time>2023-10-07T07:34:20.000Z</time>
</trkpt>
<trkpt lat="45.9430800" lon="9.5913890">
	<ele>1579.40</ele>
	<time>2023-10-07T07:34:21.000Z</time>
</trkpt>
<trkpt lat="45.9430820" lon="9.5913770">
	<ele>1579.60</ele>
	<time>2023-10-07T07:34:22.000Z</time>
</trkpt>
<trkpt lat="45.9430810" lon="9.5913600">
	<ele>1579.60</ele>
	<time>2023-10-07T07:34:23.000Z</time>
</trkpt>
<trkpt lat="45.9430790" lon="9.5913480">
	<ele>1579.80</ele>
	<time>2023-10-07T07:34:24.000Z</time>
</trkpt>
<trkpt lat="45.9430760" lon="9.5913400">
	<ele>1580.00</ele>
	<time>2023-10-07T07:34:25.000Z</time>
</trkpt>
<trkpt lat="45.9430760" lon="9.5913330">
	<ele>1580.20</ele>
	<time>2023-10-07T07:34:26.000Z</time>
</trkpt>
<trkpt lat="45.9430760" lon="9.5913270">
	<ele>1580.20</ele>
	<time>2023-10-07T07:34:27.000Z</time>
</trkpt>
<trkpt lat="45.9430720" lon="9.5913260">
	<ele>1580.40</ele>
	<time>2023-10-07T07:34:28.000Z</time>
</trkpt>
<trkpt lat="45.9430730" lon="9.5913190">
	<ele>1580.60</ele>
	<time>2023-10-07T07:34:29.000Z</time>
</trkpt>
<trkpt lat="45.9430730" lon="9.5913100">
	<ele>1580.60</ele>
	<time>2023-10-07T07:34:30.000Z</time>
</trkpt>
<trkpt lat="45.9430750" lon="9.5913020">
	<ele>1581.00</ele>
	<time>2023-10-07T07:34:31.000Z</time>
</trkpt>
<trkpt lat="45.9430760" lon="9.5912930">
	<ele>1581.20</ele>
	<time>2023-10-07T07:34:32.000Z</time>
</trkpt>
<trkpt lat="45.9430780" lon="9.5912840">
	<ele>1581.40</ele>
	<time>2023-10-07T07:34:33.000Z</time>
</trkpt>
<trkpt lat="45.9430810" lon="9.5912770">
	<ele>1581.40</ele>
	<time>2023-10-07T07:34:34.000Z</time>
</trkpt>
<trkpt lat="45.9430840" lon="9.5912720">
	<ele>1581.60</ele>
	<time>2023-10-07T07:34:35.000Z</time>
</trkpt>
<trkpt lat="45.9430860" lon="9.5912660">
	<ele>1581.60</ele>
	<time>2023-10-07T07:34:36.000Z</time>
</trkpt>
<trkpt lat="45.9430880" lon="9.5912580">
	<ele>1582.00</ele>
	<time>2023-10-07T07:34:37.000Z</time>
</trkpt>
<trkpt lat="45.9430880" lon="9.5912520">
	<ele>1582.20</ele>
	<time>2023-10-07T07:34:38.000Z</time>
</trkpt>
<trkpt lat="45.9430870" lon="9.5912470">
	<ele>1582.20</ele>
	<time>2023-10-07T07:34:39.000Z</time>
</trkpt>
<trkpt lat="45.9430860" lon="9.5912390">
	<ele>1582.40</ele>
	<time>2023-10-07T07:34:40.000Z</time>
</trkpt>
<trkpt lat="45.9430890" lon="9.5912360">
	<ele>1582.40</ele>
	<time>2023-10-07T07:34:41.000Z</time>
</trkpt>
<trkpt lat="45.9430920" lon="9.5912310">
	<ele>1582.60</ele>
	<time>2023-10-07T07:34:42.000Z</time>
</trkpt>
<trkpt lat="45.9430940" lon="9.5912260">
	<ele>1582.80</ele>
	<time>2023-10-07T07:34:43.000Z</time>
</trkpt>
<trkpt lat="45.9430960" lon="9.5912210">
	<ele>1583.00</ele>
	<time>2023-10-07T07:34:44.000Z</time>
</trkpt>
<trkpt lat="45.9430960" lon="9.5912150">
	<ele>1583.40</ele>
	<time>2023-10-07T07:34:45.000Z</time>
</trkpt>
<trkpt lat="45.9430960" lon="9.5912080">
	<ele>1583.60</ele>
	<time>2023-10-07T07:34:46.000Z</time>
</trkpt>
<trkpt lat="45.9430980" lon="9.5912020">
	<ele>1583.60</ele>
	<time>2023-10-07T07:34:47.000Z</time>
</trkpt>
<trkpt lat="45.9430980" lon="9.5911930">
	<ele>1583.80</ele>
	<time>2023-10-07T07:34:48.000Z</time>
</trkpt>
<trkpt lat="45.9430990" lon="9.5911870">
	<ele>1583.80</ele>
	<time>2023-10-07T07:34:49.000Z</time>
</trkpt>
<trkpt lat="45.9430990" lon="9.5911800">
	<ele>1584.00</ele>
	<time>2023-10-07T07:34:50.000Z</time>
</trkpt>
<trkpt lat="45.9431000" lon="9.5911740">
	<ele>1584.20</ele>
	<time>2023-10-07T07:34:51.000Z</time>
</trkpt>
<trkpt lat="45.9431010" lon="9.5911640">
	<ele>1584.40</ele>
	<time>2023-10-07T07:34:52.000Z</time>
</trkpt>
<trkpt lat="45.9431000" lon="9.5911550">
	<ele>1584.40</ele>
	<time>2023-10-07T07:34:53.000Z</time>
</trkpt>
<trkpt lat="45.9431010" lon="9.5911490">
	<ele>1584.80</ele>
	<time>2023-10-07T07:34:54.000Z</time>
</trkpt>
<trkpt lat="45.9431030" lon="9.5911460">
	<ele>1584.80</ele>
	<time>2023-10-07T07:34:55.000Z</time>
</trkpt>
<trkpt lat="45.9431040" lon="9.5911410">
	<ele>1585.00</ele>
	<time>2023-10-07T07:34:56.000Z</time>
</trkpt>
<trkpt lat="45.9431060" lon="9.5911340">
	<ele>1585.20</ele>
	<time>2023-10-07T07:34:57.000Z</time>
</trkpt>
<trkpt lat="45.9431060" lon="9.5911280">
	<ele>1585.40</ele>
	<time>2023-10-07T07:34:58.000Z</time>
</trkpt>
<trkpt lat="45.9431060" lon="9.5911250">
	<ele>1585.40</ele>
	<time>2023-10-07T07:34:59.000Z</time>
</trkpt>
<trkpt lat="45.9431060" lon="9.5911200">
	<ele>1585.40</ele>
	<time>2023-10-07T07:35:00.000Z</time>
</trkpt>
<trkpt lat="45.9431060" lon="9.5911130">
	<ele>1585.60</ele>
	<time>2023-10-07T07:35:01.000Z</time>
</trkpt>
<trkpt lat="45.9431080" lon="9.5911090">
	<ele>1585.80</ele>
	<time>2023-10-07T07:35:02.000Z</time>
</trkpt>
<trkpt lat="45.9431110" lon="9.5911040">
	<ele>1586.00</ele>
	<time>2023-10-07T07:35:03.000Z</time>
</trkpt>
<trkpt lat="45.9431130" lon="9.5910990">
	<ele>1586.20</ele>
	<time>2023-10-07T07:35:04.000Z</time>
</trkpt>
<trkpt lat="45.9431140" lon="9.5910950">
	<ele>1586.40</ele>
	<time>2023-10-07T07:35:05.000Z</time>
</trkpt>
<trkpt lat="45.9431140" lon="9.5910910">
	<ele>1586.40</ele>
	<time>2023-10-07T07:35:06.000Z</time>
</trkpt>
<trkpt lat="45.9431140" lon="9.5910850">
	<ele>1586.60</ele>
	<time>2023-10-07T07:35:07.000Z</time>
</trkpt>
<trkpt lat="45.9431140" lon="9.5910800">
	<ele>1586.60</ele>
	<time>2023-10-07T07:35:08.000Z</time>
</trkpt>
<trkpt lat="45.9431150" lon="9.5910780">
	<ele>1587.00</ele>
	<time>2023-10-07T07:35:09.000Z</time>
</trkpt>
<trkpt lat="45.9431170" lon="9.5910750">
	<ele>1587.20</ele>
	<time>2023-10-07T07:35:10.000Z</time>
</trkpt>
<trkpt lat="45.9431200" lon="9.5910690">
	<ele>1587.20</ele>
	<time>2023-10-07T07:35:11.000Z</time>
</trkpt>
<trkpt lat="45.9431210" lon="9.5910630">
	<ele>1587.40</ele>
	<time>2023-10-07T07:35:12.000Z</time>
</trkpt>
<trkpt lat="45.9431230" lon="9.5910600">
	<ele>1587.80</ele>
	<time>2023-10-07T07:35:13.000Z</time>
</trkpt>
<trkpt lat="45.9431260" lon="9.5910570">
	<ele>1587.80</ele>
	<time>2023-10-07T07:35:14.000Z</time>
</trkpt>
<trkpt lat="45.9431280" lon="9.5910510">
	<ele>1588.00</ele>
	<time>2023-10-07T07:35:15.000Z</time>
</trkpt>
<trkpt lat="45.9431270" lon="9.5910450">
	<ele>1588.00</ele>
	<time>2023-10-07T07:35:16.000Z</time>
</trkpt>
<trkpt lat="45.9431280" lon="9.5910410">
	<ele>1588.20</ele>
	<time>2023-10-07T07:35:17.000Z</time>
</trkpt>
<trkpt lat="45.9431310" lon="9.5910360">
	<ele>1588.20</ele>
	<time>2023-10-07T07:35:18.000Z</time>
</trkpt>
<trkpt lat="45.9431340" lon="9.5910290">
	<ele>1588.20</ele>
	<time>2023-10-07T07:35:19.000Z</time>
</trkpt>
<trkpt lat="45.9431350" lon="9.5910230">
	<ele>1588.60</ele>
	<time>2023-10-07T07:35:20.000Z</time>
</trkpt>
<trkpt lat="45.9431360" lon="9.5910180">
	<ele>1588.80</ele>
	<time>2023-10-07T07:35:21.000Z</time>
</trkpt>
<trkpt lat="45.9431390" lon="9.5910100">
	<ele>1588.80</ele>
	<time>2023-10-07T07:35:22.000Z</time>
</trkpt>
<trkpt lat="45.9431420" lon="9.5910020">
	<ele>1589.00</ele>
	<time>2023-10-07T07:35:23.000Z</time>
</trkpt>
<trkpt lat="45.9431460" lon="9.5909940">
	<ele>1589.20</ele>
	<time>2023-10-07T07:35:24.000Z</time>
</trkpt>
<trkpt lat="45.9431480" lon="9.5909890">
	<ele>1589.60</ele>
	<time>2023-10-07T07:35:25.000Z</time>
</trkpt>
<trkpt lat="45.9431510" lon="9.5909890">
	<ele>1589.60</ele>
	<time>2023-10-07T07:35:26.000Z</time>
</trkpt>
<trkpt lat="45.9431520" lon="9.5909850">
	<ele>1589.80</ele>
	<time>2023-10-07T07:35:27.000Z</time>
</trkpt>
<trkpt lat="45.9431540" lon="9.5909820">
	<ele>1590.00</ele>
	<time>2023-10-07T07:35:28.000Z</time>
</trkpt>
<trkpt lat="45.9431540" lon="9.5909780">
	<ele>1590.00</ele>
	<time>2023-10-07T07:35:29.000Z</time>
</trkpt>
<trkpt lat="45.9431520" lon="9.5909720">
	<ele>1590.00</ele>
	<time>2023-10-07T07:35:30.000Z</time>
</trkpt>
<trkpt lat="45.9431510" lon="9.5909650">
	<ele>1590.00</ele>
	<time>2023-10-07T07:35:31.000Z</time>
</trkpt>
<trkpt lat="45.9431490" lon="9.5909610">
	<ele>1590.20</ele>
	<time>2023-10-07T07:35:32.000Z</time>
</trkpt>
<trkpt lat="45.9431470" lon="9.5909580">
	<ele>1590.40</ele>
	<time>2023-10-07T07:35:33.000Z</time>
</trkpt>
<trkpt lat="45.9431490" lon="9.5909520">
	<ele>1590.60</ele>
	<time>2023-10-07T07:35:34.000Z</time>
</trkpt>
<trkpt lat="45.9431510" lon="9.5909480">
	<ele>1590.60</ele>
	<time>2023-10-07T07:35:35.000Z</time>
</trkpt>
<trkpt lat="45.9431520" lon="9.5909440">
	<ele>1590.80</ele>
	<time>2023-10-07T07:35:36.000Z</time>
</trkpt>
<trkpt lat="45.9431530" lon="9.5909340">
	<ele>1591.00</ele>
	<time>2023-10-07T07:35:37.000Z</time>
</trkpt>
<trkpt lat="45.9431540" lon="9.5909240">
	<ele>1591.00</ele>
	<time>2023-10-07T07:35:38.000Z</time>
</trkpt>
<trkpt lat="45.9431580" lon="9.5909240">
	<ele>1591.20</ele>
	<time>2023-10-07T07:35:39.000Z</time>
</trkpt>
<trkpt lat="45.9431640" lon="9.5909150">
	<ele>1591.20</ele>
	<time>2023-10-07T07:35:40.000Z</time>
</trkpt>
<trkpt lat="45.9431680" lon="9.5909110">
	<ele>1591.40</ele>
	<time>2023-10-07T07:35:41.000Z</time>
</trkpt>
<trkpt lat="45.9431730" lon="9.5909040">
	<ele>1591.40</ele>
	<time>2023-10-07T07:35:42.000Z</time>
</trkpt>
<trkpt lat="45.9431800" lon="9.5908950">
	<ele>1591.60</ele>
	<time>2023-10-07T07:35:43.000Z</time>
</trkpt>
<trkpt lat="45.9431860" lon="9.5908890">
	<ele>1591.60</ele>
	<time>2023-10-07T07:35:44.000Z</time>
</trkpt>
<trkpt lat="45.9431890" lon="9.5908830">
	<ele>1591.80</ele>
	<time>2023-10-07T07:35:45.000Z</time>
</trkpt>
<trkpt lat="45.9431910" lon="9.5908770">
	<ele>1592.00</ele>
	<time>2023-10-07T07:35:46.000Z</time>
</trkpt>
<trkpt lat="45.9431930" lon="9.5908720">
	<ele>1592.20</ele>
	<time>2023-10-07T07:35:47.000Z</time>
</trkpt>
<trkpt lat="45.9431960" lon="9.5908640">
	<ele>1592.20</ele>
	<time>2023-10-07T07:35:48.000Z</time>
</trkpt>
<trkpt lat="45.9431970" lon="9.5908560">
	<ele>1592.40</ele>
	<time>2023-10-07T07:35:49.000Z</time>
</trkpt>
<trkpt lat="45.9431990" lon="9.5908440">
	<ele>1592.60</ele>
	<time>2023-10-07T07:35:50.000Z</time>
</trkpt>
<trkpt lat="45.9432000" lon="9.5908360">
	<ele>1592.60</ele>
	<time>2023-10-07T07:35:51.000Z</time>
</trkpt>
<trkpt lat="45.9432030" lon="9.5908250">
	<ele>1592.60</ele>
	<time>2023-10-07T07:35:52.000Z</time>
</trkpt>
<trkpt lat="45.9432030" lon="9.5908140">
	<ele>1592.80</ele>
	<time>2023-10-07T07:35:53.000Z</time>
</trkpt>
<trkpt lat="45.9432050" lon="9.5908060">
	<ele>1593.00</ele>
	<time>2023-10-07T07:35:54.000Z</time>
</trkpt>
<trkpt lat="45.9432080" lon="9.5907970">
	<ele>1593.20</ele>
	<time>2023-10-07T07:35:55.000Z</time>
</trkpt>
<trkpt lat="45.9432130" lon="9.5907890">
	<ele>1593.20</ele>
	<time>2023-10-07T07:35:56.000Z</time>
</trkpt>
<trkpt lat="45.9432170" lon="9.5907800">
	<ele>1593.40</ele>
	<time>2023-10-07T07:35:57.000Z</time>
</trkpt>
<trkpt lat="45.9432180" lon="9.5907740">
	<ele>1593.60</ele>
	<time>2023-10-07T07:35:58.000Z</time>
</trkpt>
<trkpt lat="45.9432190" lon="9.5907680">
	<ele>1593.60</ele>
	<time>2023-10-07T07:35:59.000Z</time>
</trkpt>
<trkpt lat="45.9432220" lon="9.5907590">
	<ele>1593.80</ele>
	<time>2023-10-07T07:36:00.000Z</time>
</trkpt>
<trkpt lat="45.9432260" lon="9.5907530">
	<ele>1593.80</ele>
	<time>2023-10-07T07:36:01.000Z</time>
</trkpt>
<trkpt lat="45.9432290" lon="9.5907460">
	<ele>1594.00</ele>
	<time>2023-10-07T07:36:02.000Z</time>
</trkpt>
<trkpt lat="45.9432330" lon="9.5907410">
	<ele>1594.20</ele>
	<time>2023-10-07T07:36:03.000Z</time>
</trkpt>
<trkpt lat="45.9432360" lon="9.5907350">
	<ele>1594.20</ele>
	<time>2023-10-07T07:36:04.000Z</time>
</trkpt>
<trkpt lat="45.9432370" lon="9.5907300">
	<ele>1594.40</ele>
	<time>2023-10-07T07:36:05.000Z</time>
</trkpt>
<trkpt lat="45.9432390" lon="9.5907250">
	<ele>1594.80</ele>
	<time>2023-10-07T07:36:06.000Z</time>
</trkpt>
<trkpt lat="45.9432390" lon="9.5907150">
	<ele>1595.00</ele>
	<time>2023-10-07T07:36:07.000Z</time>
</trkpt>
<trkpt lat="45.9432430" lon="9.5907100">
	<ele>1595.00</ele>
	<time>2023-10-07T07:36:08.000Z</time>
</trkpt>
<trkpt lat="45.9432460" lon="9.5907070">
	<ele>1595.20</ele>
	<time>2023-10-07T07:36:09.000Z</time>
</trkpt>
<trkpt lat="45.9432480" lon="9.5907020">
	<ele>1595.40</ele>
	<time>2023-10-07T07:36:10.000Z</time>
</trkpt>
<trkpt lat="45.9432510" lon="9.5906970">
	<ele>1595.60</ele>
	<time>2023-10-07T07:36:11.000Z</time>
</trkpt>
<trkpt lat="45.9432520" lon="9.5906950">
	<ele>1595.80</ele>
	<time>2023-10-07T07:36:12.000Z</time>
</trkpt>
<trkpt lat="45.9432530" lon="9.5906910">
	<ele>1596.00</ele>
	<time>2023-10-07T07:36:13.000Z</time>
</trkpt>
<trkpt lat="45.9432540" lon="9.5906890">
	<ele>1596.20</ele>
	<time>2023-10-07T07:36:14.000Z</time>
</trkpt>
<trkpt lat="45.9432530" lon="9.5906810">
	<ele>1596.20</ele>
	<time>2023-10-07T07:36:15.000Z</time>
</trkpt>
<trkpt lat="45.9432550" lon="9.5906760">
	<ele>1596.40</ele>
	<time>2023-10-07T07:36:16.000Z</time>
</trkpt>
<trkpt lat="45.9432560" lon="9.5906720">
	<ele>1596.60</ele>
	<time>2023-10-07T07:36:17.000Z</time>
</trkpt>
<trkpt lat="45.9432590" lon="9.5906680">
	<ele>1596.80</ele>
	<time>2023-10-07T07:36:18.000Z</time>
</trkpt>
<trkpt lat="45.9432610" lon="9.5906640">
	<ele>1596.80</ele>
	<time>2023-10-07T07:36:19.000Z</time>
</trkpt>
<trkpt lat="45.9432650" lon="9.5906570">
	<ele>1597.00</ele>
	<time>2023-10-07T07:36:20.000Z</time>
</trkpt>
<trkpt lat="45.9432690" lon="9.5906500">
	<ele>1597.20</ele>
	<time>2023-10-07T07:36:21.000Z</time>
</trkpt>
<trkpt lat="45.9432750" lon="9.5906400">
	<ele>1597.40</ele>
	<time>2023-10-07T07:36:22.000Z</time>
</trkpt>
<trkpt lat="45.9432790" lon="9.5906350">
	<ele>1597.40</ele>
	<time>2023-10-07T07:36:23.000Z</time>
</trkpt>
<trkpt lat="45.9432810" lon="9.5906280">
	<ele>1597.60</ele>
	<time>2023-10-07T07:36:24.000Z</time>
</trkpt>
<trkpt lat="45.9432810" lon="9.5906220">
	<ele>1597.60</ele>
	<time>2023-10-07T07:36:25.000Z</time>
</trkpt>
<trkpt lat="45.9432810" lon="9.5906150">
	<ele>1597.60</ele>
	<time>2023-10-07T07:36:26.000Z</time>
</trkpt>
<trkpt lat="45.9432810" lon="9.5906080">
	<ele>1597.80</ele>
	<time>2023-10-07T07:36:27.000Z</time>
</trkpt>
<trkpt lat="45.9432830" lon="9.5906010">
	<ele>1598.00</ele>
	<time>2023-10-07T07:36:28.000Z</time>
</trkpt>
<trkpt lat="45.9432850" lon="9.5905930">
	<ele>1598.00</ele>
	<time>2023-10-07T07:36:29.000Z</time>
</trkpt>
<trkpt lat="45.9432850" lon="9.5905830">
	<ele>1598.20</ele>
	<time>2023-10-07T07:36:30.000Z</time>
</trkpt>
<trkpt lat="45.9432850" lon="9.5905750">
	<ele>1598.40</ele>
	<time>2023-10-07T07:36:31.000Z</time>
</trkpt>
<trkpt lat="45.9432870" lon="9.5905720">
	<ele>1598.60</ele>
	<time>2023-10-07T07:36:32.000Z</time>
</trkpt>
<trkpt lat="45.9432870" lon="9.5905710">
	<ele>1598.60</ele>
	<time>2023-10-07T07:36:33.000Z</time>
</trkpt>
<trkpt lat="45.9432870" lon="9.5905710">
	<ele>1598.80</ele>
	<time>2023-10-07T07:36:34.000Z</time>
</trkpt>
<trkpt lat="45.9432870" lon="9.5905700">
	<ele>1598.80</ele>
	<time>2023-10-07T07:36:35.000Z</time>
</trkpt>
<trkpt lat="45.9432880" lon="9.5905710">
	<ele>1599.00</ele>
	<time>2023-10-07T07:36:36.000Z</time>
</trkpt>
<trkpt lat="45.9432880" lon="9.5905720">
	<ele>1599.00</ele>
	<time>2023-10-07T07:36:37.000Z</time>
</trkpt>
<trkpt lat="45.9432860" lon="9.5905750">
	<ele>1599.00</ele>
	<time>2023-10-07T07:36:38.000Z</time>
</trkpt>
<trkpt lat="45.9432830" lon="9.5905750">
	<ele>1599.00</ele>
	<time>2023-10-07T07:36:39.000Z</time>
</trkpt>
<trkpt lat="45.9432820" lon="9.5905780">
	<ele>1599.00</ele>
	<time>2023-10-07T07:36:40.000Z</time>
</trkpt>
<trkpt lat="45.9432820" lon="9.5905790">
	<ele>1598.80</ele>
	<time>2023-10-07T07:36:41.000Z</time>
</trkpt>
<trkpt lat="45.9432820" lon="9.5905790">
	<ele>1598.80</ele>
	<time>2023-10-07T07:36:42.000Z</time>
</trkpt>
<trkpt lat="45.9432820" lon="9.5905790">
	<ele>1598.80</ele>
	<time>2023-10-07T07:36:43.000Z</time>
</trkpt>
<trkpt lat="45.9432820" lon="9.5905790">
	<ele>1598.80</ele>
	<time>2023-10-07T07:36:44.000Z</time>
</trkpt>
<trkpt lat="45.9432820" lon="9.5905790">
	<ele>1598.80</ele>
	<time>2023-10-07T07:36:45.000Z</time>
</trkpt>
<trkpt lat="45.9432820" lon="9.5905790">
	<ele>1598.80</ele>
	<time>2023-10-07T07:36:46.000Z</time>
</trkpt>
<trkpt lat="45.9432820" lon="9.5905790">
	<ele>1599.00</ele>
	<time>2023-10-07T07:36:47.000Z</time>
</trkpt>
<trkpt lat="45.9432820" lon="9.5905790">
	<ele>1599.00</ele>
	<time>2023-10-07T07:36:48.000Z</time>
</trkpt>
<trkpt lat="45.9432820" lon="9.5905790">
	<ele>1599.20</ele>
	<time>2023-10-07T07:36:49.000Z</time>
</trkpt>
<trkpt lat="45.9432830" lon="9.5905790">
	<ele>1599.00</ele>
	<time>2023-10-07T07:36:50.000Z</time>
</trkpt>
<trkpt lat="45.9432860" lon="9.5905790">
	<ele>1599.20</ele>
	<time>2023-10-07T07:36:51.000Z</time>
</trkpt>
<trkpt lat="45.9432860" lon="9.5905790">
	<ele>1599.20</ele>
	<time>2023-10-07T07:36:52.000Z</time>
</trkpt>
<trkpt lat="45.9432870" lon="9.5905790">
	<ele>1599.20</ele>
	<time>2023-10-07T07:36:53.000Z</time>
</trkpt>
<trkpt lat="45.9432870" lon="9.5905790">
	<ele>1599.20</ele>
	<time>2023-10-07T07:36:54.000Z</time>
</trkpt>
<trkpt lat="45.9432870" lon="9.5905790">
	<ele>1599.20</ele>
	<time>2023-10-07T07:36:55.000Z</time>
</trkpt>
<trkpt lat="45.9432880" lon="9.5905790">
	<ele>1599.20</ele>
	<time>2023-10-07T07:36:56.000Z</time>
</trkpt>
<trkpt lat="45.9432880" lon="9.5905800">
	<ele>1599.20</ele>
	<time>2023-10-07T07:36:57.000Z</time>
</trkpt>
<trkpt lat="45.9432880" lon="9.5905840">
	<ele>1599.20</ele>
	<time>2023-10-07T07:36:58.000Z</time>
</trkpt>
<trkpt lat="45.9432880" lon="9.5905860">
	<ele>1599.20</ele>
	<time>2023-10-07T07:36:59.000Z</time>
</trkpt>
<trkpt lat="45.9432890" lon="9.5905870">
	<ele>1599.00</ele>
	<time>2023-10-07T07:37:00.000Z</time>
</trkpt>
<trkpt lat="45.9432890" lon="9.5905870">
	<ele>1599.00</ele>
	<time>2023-10-07T07:37:01.000Z</time>
</trkpt>
<trkpt lat="45.9432890" lon="9.5905880">
	<ele>1599.00</ele>
	<time>2023-10-07T07:37:02.000Z</time>
</trkpt>
<trkpt lat="45.9432890" lon="9.5905880">
	<ele>1599.00</ele>
	<time>2023-10-07T07:37:03.000Z</time>
</trkpt>
<trkpt lat="45.9432890" lon="9.5905880">
	<ele>1599.00</ele>
	<time>2023-10-07T07:37:04.000Z</time>
</trkpt>
<trkpt lat="45.9432890" lon="9.5905880">
	<ele>1599.00</ele>
	<time>2023-10-07T07:37:05.000Z</time>
</trkpt>
<trkpt lat="45.9432890" lon="9.5905880">
	<ele>1599.00</ele>
	<time>2023-10-07T07:37:06.000Z</time>
</trkpt>
<trkpt lat="45.9432890" lon="9.5905880">
	<ele>1599.00</ele>
	<time>2023-10-07T07:37:07.000Z</time>
</trkpt>
<trkpt lat="45.9432890" lon="9.5905880">
	<ele>1599.20</ele>
	<time>2023-10-07T07:37:08.000Z</time>
</trkpt>
<trkpt lat="45.9432890" lon="9.5905880">
	<ele>1599.20</ele>
	<time>2023-10-07T07:37:09.000Z</time>
</trkpt>
<trkpt lat="45.9432890" lon="9.5905880">
	<ele>1599.20</ele>
	<time>2023-10-07T07:37:10.000Z</time>
</trkpt>
<trkpt lat="45.9432890" lon="9.5905880">
	<ele>1599.20</ele>
	<time>2023-10-07T07:37:11.000Z</time>
</trkpt>
<trkpt lat="45.9432890" lon="9.5905880">
	<ele>1599.20</ele>
	<time>2023-10-07T07:37:12.000Z</time>
</trkpt>
<trkpt lat="45.9432890" lon="9.5905880">
	<ele>1599.20</ele>
	<time>2023-10-07T07:37:13.000Z</time>
</trkpt>
<trkpt lat="45.9432880" lon="9.5905880">
	<ele>1599.00</ele>
	<time>2023-10-07T07:37:14.000Z</time>
</trkpt>
<trkpt lat="45.9432870" lon="9.5905880">
	<ele>1598.80</ele>
	<time>2023-10-07T07:37:15.000Z</time>
</trkpt>
<trkpt lat="45.9432860" lon="9.5905880">
	<ele>1598.80</ele>
	<time>2023-10-07T07:37:16.000Z</time>
</trkpt>
<trkpt lat="45.9432860" lon="9.5905880">
	<ele>1598.60</ele>
	<time>2023-10-07T07:37:17.000Z</time>
</trkpt>
<trkpt lat="45.9432860" lon="9.5905880">
	<ele>1598.60</ele>
	<time>2023-10-07T07:37:18.000Z</time>
</trkpt>
<trkpt lat="45.9432850" lon="9.5905870">
	<ele>1598.80</ele>
	<time>2023-10-07T07:37:19.000Z</time>
</trkpt>
<trkpt lat="45.9432850" lon="9.5905860">
	<ele>1598.80</ele>
	<time>2023-10-07T07:37:20.000Z</time>
</trkpt>
<trkpt lat="45.9432850" lon="9.5905850">
	<ele>1599.00</ele>
	<time>2023-10-07T07:37:21.000Z</time>
</trkpt>
<trkpt lat="45.9432850" lon="9.5905850">
	<ele>1599.00</ele>
	<time>2023-10-07T07:37:22.000Z</time>
</trkpt>
<trkpt lat="45.9432850" lon="9.5905850">
	<ele>1599.00</ele>
	<time>2023-10-07T07:37:23.000Z</time>
</trkpt>
<trkpt lat="45.9432850" lon="9.5905850">
	<ele>1599.20</ele>
	<time>2023-10-07T07:37:24.000Z</time>
</trkpt>
<trkpt lat="45.9432850" lon="9.5905850">
	<ele>1599.20</ele>
	<time>2023-10-07T07:37:25.000Z</time>
</trkpt>
<trkpt lat="45.9432850" lon="9.5905850">
	<ele>1598.80</ele>
	<time>2023-10-07T07:37:26.000Z</time>
</trkpt>
<trkpt lat="45.9432850" lon="9.5905840">
	<ele>1598.80</ele>
	<time>2023-10-07T07:37:27.000Z</time>
</trkpt>
<trkpt lat="45.9432850" lon="9.5905830">
	<ele>1598.60</ele>
	<time>2023-10-07T07:37:28.000Z</time>
</trkpt>
<trkpt lat="45.9432850" lon="9.5905810">
	<ele>1598.60</ele>
	<time>2023-10-07T07:37:29.000Z</time>
</trkpt>
<trkpt lat="45.9432850" lon="9.5905810">
	<ele>1598.80</ele>
	<time>2023-10-07T07:37:30.000Z</time>
</trkpt>
<trkpt lat="45.9432860" lon="9.5905810">
	<ele>1598.80</ele>
	<time>2023-10-07T07:37:31.000Z</time>
</trkpt>
<trkpt lat="45.9432860" lon="9.5905810">
	<ele>1599.00</ele>
	<time>2023-10-07T07:37:32.000Z</time>
</trkpt>
<trkpt lat="45.9432870" lon="9.5905810">
	<ele>1599.20</ele>
	<time>2023-10-07T07:37:33.000Z</time>
</trkpt>
<trkpt lat="45.9432870" lon="9.5905800">
	<ele>1599.40</ele>
	<time>2023-10-07T07:37:34.000Z</time>
</trkpt>
<trkpt lat="45.9432870" lon="9.5905800">
	<ele>1599.40</ele>
	<time>2023-10-07T07:37:35.000Z</time>
</trkpt>
<trkpt lat="45.9432870" lon="9.5905800">
	<ele>1599.80</ele>
	<time>2023-10-07T07:37:36.000Z</time>
</trkpt>
<trkpt lat="45.9432880" lon="9.5905800">
	<ele>1599.80</ele>
	<time>2023-10-07T07:37:37.000Z</time>
</trkpt>
<trkpt lat="45.9432880" lon="9.5905790">
	<ele>1600.00</ele>
	<time>2023-10-07T07:37:38.000Z</time>
</trkpt>
<trkpt lat="45.9432880" lon="9.5905790">
	<ele>1600.20</ele>
	<time>2023-10-07T07:37:39.000Z</time>
</trkpt>
<trkpt lat="45.9432880" lon="9.5905780">
	<ele>1600.40</ele>
	<time>2023-10-07T07:37:40.000Z</time>
</trkpt>
<trkpt lat="45.9432880" lon="9.5905760">
	<ele>1600.60</ele>
	<time>2023-10-07T07:37:41.000Z</time>
</trkpt>
<trkpt lat="45.9432890" lon="9.5905730">
	<ele>1600.80</ele>
	<time>2023-10-07T07:37:42.000Z</time>
</trkpt>
<trkpt lat="45.9432900" lon="9.5905660">
	<ele>1601.00</ele>
	<time>2023-10-07T07:37:43.000Z</time>
</trkpt>
<trkpt lat="45.9432910" lon="9.5905590">
	<ele>1601.40</ele>
	<time>2023-10-07T07:37:44.000Z</time>
</trkpt>
<trkpt lat="45.9432930" lon="9.5905530">
	<ele>1601.40</ele>
	<time>2023-10-07T07:37:45.000Z</time>
</trkpt>
<trkpt lat="45.9432970" lon="9.5905460">
	<ele>1601.60</ele>
	<time>2023-10-07T07:37:46.000Z</time>
</trkpt>
<trkpt lat="45.9433030" lon="9.5905400">
	<ele>1601.80</ele>
	<time>2023-10-07T07:37:47.000Z</time>
</trkpt>
<trkpt lat="45.9433100" lon="9.5905340">
	<ele>1601.80</ele>
	<time>2023-10-07T07:37:48.000Z</time>
</trkpt>
<trkpt lat="45.9433130" lon="9.5905290">
	<ele>1602.00</ele>
	<time>2023-10-07T07:37:49.000Z</time>
</trkpt>
<trkpt lat="45.9433180" lon="9.5905250">
	<ele>1602.20</ele>
	<time>2023-10-07T07:37:50.000Z</time>
</trkpt>
<trkpt lat="45.9433220" lon="9.5905210">
	<ele>1602.40</ele>
	<time>2023-10-07T07:37:51.000Z</time>
</trkpt>
<trkpt lat="45.9433270" lon="9.5905170">
	<ele>1602.60</ele>
	<time>2023-10-07T07:37:52.000Z</time>
</trkpt>
<trkpt lat="45.9433320" lon="9.5905140">
	<ele>1602.60</ele>
	<time>2023-10-07T07:37:53.000Z</time>
</trkpt>
<trkpt lat="45.9433380" lon="9.5905090">
	<ele>1602.60</ele>
	<time>2023-10-07T07:37:54.000Z</time>
</trkpt>
<trkpt lat="45.9433420" lon="9.5905050">
	<ele>1602.80</ele>
	<time>2023-10-07T07:37:55.000Z</time>
</trkpt>
<trkpt lat="45.9433440" lon="9.5905010">
	<ele>1602.80</ele>
	<time>2023-10-07T07:37:56.000Z</time>
</trkpt>
<trkpt lat="45.9433460" lon="9.5904930">
	<ele>1603.00</ele>
	<time>2023-10-07T07:37:57.000Z</time>
</trkpt>
<trkpt lat="45.9433470" lon="9.5904860">
	<ele>1603.00</ele>
	<time>2023-10-07T07:37:58.000Z</time>
</trkpt>
<trkpt lat="45.9433480" lon="9.5904790">
	<ele>1603.00</ele>
	<time>2023-10-07T07:37:59.000Z</time>
</trkpt>
<trkpt lat="45.9433510" lon="9.5904720">
	<ele>1603.20</ele>
	<time>2023-10-07T07:38:00.000Z</time>
</trkpt>
<trkpt lat="45.9433550" lon="9.5904650">
	<ele>1603.40</ele>
	<time>2023-10-07T07:38:01.000Z</time>
</trkpt>
<trkpt lat="45.9433580" lon="9.5904590">
	<ele>1603.80</ele>
	<time>2023-10-07T07:38:02.000Z</time>
</trkpt>
<trkpt lat="45.9433610" lon="9.5904530">
	<ele>1604.00</ele>
	<time>2023-10-07T07:38:03.000Z</time>
</trkpt>
<trkpt lat="45.9433650" lon="9.5904500">
	<ele>1604.00</ele>
	<time>2023-10-07T07:38:04.000Z</time>
</trkpt>
<trkpt lat="45.9433680" lon="9.5904450">
	<ele>1604.20</ele>
	<time>2023-10-07T07:38:05.000Z</time>
</trkpt>
<trkpt lat="45.9433710" lon="9.5904360">
	<ele>1604.40</ele>
	<time>2023-10-07T07:38:06.000Z</time>
</trkpt>
<trkpt lat="45.9433740" lon="9.5904280">
	<ele>1604.40</ele>
	<time>2023-10-07T07:38:07.000Z</time>
</trkpt>
<trkpt lat="45.9433760" lon="9.5904190">
	<ele>1604.60</ele>
	<time>2023-10-07T07:38:08.000Z</time>
</trkpt>
<trkpt lat="45.9433770" lon="9.5904110">
	<ele>1604.60</ele>
	<time>2023-10-07T07:38:09.000Z</time>
</trkpt>
<trkpt lat="45.9433780" lon="9.5904020">
	<ele>1604.80</ele>
	<time>2023-10-07T07:38:10.000Z</time>
</trkpt>
<trkpt lat="45.9433790" lon="9.5903940">
	<ele>1605.00</ele>
	<time>2023-10-07T07:38:11.000Z</time>
</trkpt>
<trkpt lat="45.9433800" lon="9.5903860">
	<ele>1605.20</ele>
	<time>2023-10-07T07:38:12.000Z</time>
</trkpt>
<trkpt lat="45.9433820" lon="9.5903780">
	<ele>1605.40</ele>
	<time>2023-10-07T07:38:13.000Z</time>
</trkpt>
<trkpt lat="45.9433850" lon="9.5903690">
	<ele>1605.60</ele>
	<time>2023-10-07T07:38:14.000Z</time>
</trkpt>
<trkpt lat="45.9433870" lon="9.5903610">
	<ele>1605.80</ele>
	<time>2023-10-07T07:38:15.000Z</time>
</trkpt>
<trkpt lat="45.9433890" lon="9.5903540">
	<ele>1606.00</ele>
	<time>2023-10-07T07:38:16.000Z</time>
</trkpt>
<trkpt lat="45.9433900" lon="9.5903490">
	<ele>1606.00</ele>
	<time>2023-10-07T07:38:17.000Z</time>
</trkpt>
<trkpt lat="45.9433920" lon="9.5903430">
	<ele>1606.20</ele>
	<time>2023-10-07T07:38:18.000Z</time>
</trkpt>
<trkpt lat="45.9433950" lon="9.5903380">
	<ele>1606.20</ele>
	<time>2023-10-07T07:38:19.000Z</time>
</trkpt>
<trkpt lat="45.9433970" lon="9.5903320">
	<ele>1606.40</ele>
	<time>2023-10-07T07:38:20.000Z</time>
</trkpt>
<trkpt lat="45.9434000" lon="9.5903280">
	<ele>1606.40</ele>
	<time>2023-10-07T07:38:21.000Z</time>
</trkpt>
<trkpt lat="45.9434050" lon="9.5903240">
	<ele>1606.60</ele>
	<time>2023-10-07T07:38:22.000Z</time>
</trkpt>
<trkpt lat="45.9434100" lon="9.5903210">
	<ele>1606.80</ele>
	<time>2023-10-07T07:38:23.000Z</time>
</trkpt>
<trkpt lat="45.9434170" lon="9.5903180">
	<ele>1607.00</ele>
	<time>2023-10-07T07:38:24.000Z</time>
</trkpt>
<trkpt lat="45.9434230" lon="9.5903100">
	<ele>1607.20</ele>
	<time>2023-10-07T07:38:25.000Z</time>
</trkpt>
<trkpt lat="45.9434330" lon="9.5902960">
	<ele>1607.40</ele>
	<time>2023-10-07T07:38:26.000Z</time>
</trkpt>
<trkpt lat="45.9434460" lon="9.5902830">
	<ele>1607.40</ele>
	<time>2023-10-07T07:38:27.000Z</time>
</trkpt>
<trkpt lat="45.9434570" lon="9.5902710">
	<ele>1607.40</ele>
	<time>2023-10-07T07:38:28.000Z</time>
</trkpt>
<trkpt lat="45.9434690" lon="9.5902580">
	<ele>1607.60</ele>
	<time>2023-10-07T07:38:29.000Z</time>
</trkpt>
<trkpt lat="45.9434770" lon="9.5902470">
	<ele>1607.80</ele>
	<time>2023-10-07T07:38:30.000Z</time>
</trkpt>
<trkpt lat="45.9434880" lon="9.5902310">
	<ele>1608.00</ele>
	<time>2023-10-07T07:38:31.000Z</time>
</trkpt>
<trkpt lat="45.9434970" lon="9.5902140">
	<ele>1608.00</ele>
	<time>2023-10-07T07:38:32.000Z</time>
</trkpt>
<trkpt lat="45.9435070" lon="9.5901970">
	<ele>1608.20</ele>
	<time>2023-10-07T07:38:33.000Z</time>
</trkpt>
<trkpt lat="45.9435160" lon="9.5901820">
	<ele>1608.20</ele>
	<time>2023-10-07T07:38:34.000Z</time>
</trkpt>
<trkpt lat="45.9435210" lon="9.5901720">
	<ele>1608.40</ele>
	<time>2023-10-07T07:38:35.000Z</time>
</trkpt>
<trkpt lat="45.9435260" lon="9.5901620">
	<ele>1608.40</ele>
	<time>2023-10-07T07:38:36.000Z</time>
</trkpt>
<trkpt lat="45.9435310" lon="9.5901520">
	<ele>1608.40</ele>
	<time>2023-10-07T07:38:37.000Z</time>
</trkpt>
<trkpt lat="45.9435370" lon="9.5901420">
	<ele>1608.40</ele>
	<time>2023-10-07T07:38:38.000Z</time>
</trkpt>
<trkpt lat="45.9435410" lon="9.5901340">
	<ele>1608.40</ele>
	<time>2023-10-07T07:38:39.000Z</time>
</trkpt>
<trkpt lat="45.9435430" lon="9.5901270">
	<ele>1608.60</ele>
	<time>2023-10-07T07:38:40.000Z</time>
</trkpt>
<trkpt lat="45.9435450" lon="9.5901190">
	<ele>1608.60</ele>
	<time>2023-10-07T07:38:41.000Z</time>
</trkpt>
<trkpt lat="45.9435480" lon="9.5901100">
	<ele>1608.60</ele>
	<time>2023-10-07T07:38:42.000Z</time>
</trkpt>
<trkpt lat="45.9435500" lon="9.5901040">
	<ele>1608.80</ele>
	<time>2023-10-07T07:38:43.000Z</time>
</trkpt>
<trkpt lat="45.9435530" lon="9.5900980">
	<ele>1609.00</ele>
	<time>2023-10-07T07:38:44.000Z</time>
</trkpt>
<trkpt lat="45.9435530" lon="9.5900920">
	<ele>1609.20</ele>
	<time>2023-10-07T07:38:45.000Z</time>
</trkpt>
<trkpt lat="45.9435560" lon="9.5900820">
	<ele>1609.20</ele>
	<time>2023-10-07T07:38:46.000Z</time>
</trkpt>
<trkpt lat="45.9435560" lon="9.5900730">
	<ele>1609.60</ele>
	<time>2023-10-07T07:38:47.000Z</time>
</trkpt>
<trkpt lat="45.9435560" lon="9.5900670">
	<ele>1609.80</ele>
	<time>2023-10-07T07:38:48.000Z</time>
</trkpt>
<trkpt lat="45.9435590" lon="9.5900620">
	<ele>1609.80</ele>
	<time>2023-10-07T07:38:49.000Z</time>
</trkpt>
<trkpt lat="45.9435580" lon="9.5900550">
	<ele>1610.00</ele>
	<time>2023-10-07T07:38:50.000Z</time>
</trkpt>
<trkpt lat="45.9435590" lon="9.5900470">
	<ele>1610.20</ele>
	<time>2023-10-07T07:38:51.000Z</time>
</trkpt>
<trkpt lat="45.9435600" lon="9.5900420">
	<ele>1610.40</ele>
	<time>2023-10-07T07:38:52.000Z</time>
</trkpt>
<trkpt lat="45.9435630" lon="9.5900340">
	<ele>1610.40</ele>
	<time>2023-10-07T07:38:53.000Z</time>
</trkpt>
<trkpt lat="45.9435630" lon="9.5900290">
	<ele>1610.60</ele>
	<time>2023-10-07T07:38:54.000Z</time>
</trkpt>
<trkpt lat="45.9435650" lon="9.5900220">
	<ele>1610.60</ele>
	<time>2023-10-07T07:38:55.000Z</time>
</trkpt>
<trkpt lat="45.9435690" lon="9.5900140">
	<ele>1610.80</ele>
	<time>2023-10-07T07:38:56.000Z</time>
</trkpt>
<trkpt lat="45.9435730" lon="9.5900060">
	<ele>1611.00</ele>
	<time>2023-10-07T07:38:57.000Z</time>
</trkpt>
<trkpt lat="45.9435740" lon="9.5900000">
	<ele>1611.00</ele>
	<time>2023-10-07T07:38:58.000Z</time>
</trkpt>
<trkpt lat="45.9435770" lon="9.5899950">
	<ele>1611.20</ele>
	<time>2023-10-07T07:38:59.000Z</time>
</trkpt>
<trkpt lat="45.9435810" lon="9.5899890">
	<ele>1611.20</ele>
	<time>2023-10-07T07:39:00.000Z</time>
</trkpt>
<trkpt lat="45.9435830" lon="9.5899840">
	<ele>1611.60</ele>
	<time>2023-10-07T07:39:01.000Z</time>
</trkpt>
<trkpt lat="45.9435860" lon="9.5899790">
	<ele>1611.80</ele>
	<time>2023-10-07T07:39:02.000Z</time>
</trkpt>
<trkpt lat="45.9435870" lon="9.5899680">
	<ele>1611.80</ele>
	<time>2023-10-07T07:39:03.000Z</time>
</trkpt>
<trkpt lat="45.9435890" lon="9.5899570">
	<ele>1612.00</ele>
	<time>2023-10-07T07:39:04.000Z</time>
</trkpt>
<trkpt lat="45.9435910" lon="9.5899500">
	<ele>1612.20</ele>
	<time>2023-10-07T07:39:05.000Z</time>
</trkpt>
<trkpt lat="45.9435920" lon="9.5899410">
	<ele>1612.20</ele>
	<time>2023-10-07T07:39:06.000Z</time>
</trkpt>
<trkpt lat="45.9435930" lon="9.5899330">
	<ele>1612.40</ele>
	<time>2023-10-07T07:39:07.000Z</time>
</trkpt>
<trkpt lat="45.9435950" lon="9.5899250">
	<ele>1612.40</ele>
	<time>2023-10-07T07:39:08.000Z</time>
</trkpt>
<trkpt lat="45.9435980" lon="9.5899150">
	<ele>1612.60</ele>
	<time>2023-10-07T07:39:09.000Z</time>
</trkpt>
<trkpt lat="45.9436030" lon="9.5899070">
	<ele>1612.60</ele>
	<time>2023-10-07T07:39:10.000Z</time>
</trkpt>
<trkpt lat="45.9436070" lon="9.5898980">
	<ele>1612.80</ele>
	<time>2023-10-07T07:39:11.000Z</time>
</trkpt>
<trkpt lat="45.9436100" lon="9.5898890">
	<ele>1613.00</ele>
	<time>2023-10-07T07:39:12.000Z</time>
</trkpt>
<trkpt lat="45.9436140" lon="9.5898820">
	<ele>1613.00</ele>
	<time>2023-10-07T07:39:13.000Z</time>
</trkpt>
<trkpt lat="45.9436180" lon="9.5898760">
	<ele>1613.20</ele>
	<time>2023-10-07T07:39:14.000Z</time>
</trkpt>
<trkpt lat="45.9436230" lon="9.5898720">
	<ele>1613.40</ele>
	<time>2023-10-07T07:39:15.000Z</time>
</trkpt>
<trkpt lat="45.9436270" lon="9.5898690">
	<ele>1613.60</ele>
	<time>2023-10-07T07:39:16.000Z</time>
</trkpt>
<trkpt lat="45.9436310" lon="9.5898660">
	<ele>1613.80</ele>
	<time>2023-10-07T07:39:17.000Z</time>
</trkpt>
<trkpt lat="45.9436350" lon="9.5898610">
	<ele>1614.00</ele>
	<time>2023-10-07T07:39:18.000Z</time>
</trkpt>
<trkpt lat="45.9436390" lon="9.5898570">
	<ele>1614.00</ele>
	<time>2023-10-07T07:39:19.000Z</time>
</trkpt>
<trkpt lat="45.9436450" lon="9.5898530">
	<ele>1614.20</ele>
	<time>2023-10-07T07:39:20.000Z</time>
</trkpt>
<trkpt lat="45.9436490" lon="9.5898450">
	<ele>1614.40</ele>
	<time>2023-10-07T07:39:21.000Z</time>
</trkpt>
<trkpt lat="45.9436530" lon="9.5898350">
	<ele>1614.60</ele>
	<time>2023-10-07T07:39:22.000Z</time>
</trkpt>
<trkpt lat="45.9436570" lon="9.5898250">
	<ele>1614.80</ele>
	<time>2023-10-07T07:39:23.000Z</time>
</trkpt>
<trkpt lat="45.9436610" lon="9.5898160">
	<ele>1615.00</ele>
	<time>2023-10-07T07:39:24.000Z</time>
</trkpt>
<trkpt lat="45.9436640" lon="9.5898110">
	<ele>1615.20</ele>
	<time>2023-10-07T07:39:25.000Z</time>
</trkpt>
<trkpt lat="45.9436650" lon="9.5898060">
	<ele>1615.20</ele>
	<time>2023-10-07T07:39:26.000Z</time>
</trkpt>
<trkpt lat="45.9436680" lon="9.5898020">
	<ele>1615.40</ele>
	<time>2023-10-07T07:39:27.000Z</time>
</trkpt>
<trkpt lat="45.9436720" lon="9.5897960">
	<ele>1615.60</ele>
	<time>2023-10-07T07:39:28.000Z</time>
</trkpt>
<trkpt lat="45.9436760" lon="9.5897910">
	<ele>1615.60</ele>
	<time>2023-10-07T07:39:29.000Z</time>
</trkpt>
<trkpt lat="45.9436800" lon="9.5897860">
	<ele>1615.80</ele>
	<time>2023-10-07T07:39:30.000Z</time>
</trkpt>
<trkpt lat="45.9436840" lon="9.5897780">
	<ele>1616.00</ele>
	<time>2023-10-07T07:39:31.000Z</time>
</trkpt>
<trkpt lat="45.9436870" lon="9.5897720">
	<ele>1616.00</ele>
	<time>2023-10-07T07:39:32.000Z</time>
</trkpt>
<trkpt lat="45.9436930" lon="9.5897670">
	<ele>1616.20</ele>
	<time>2023-10-07T07:39:33.000Z</time>
</trkpt>
<trkpt lat="45.9436960" lon="9.5897640">
	<ele>1616.60</ele>
	<time>2023-10-07T07:39:34.000Z</time>
</trkpt>
<trkpt lat="45.9436980" lon="9.5897600">
	<ele>1616.80</ele>
	<time>2023-10-07T07:39:35.000Z</time>
</trkpt>
<trkpt lat="45.9436980" lon="9.5897560">
	<ele>1616.80</ele>
	<time>2023-10-07T07:39:36.000Z</time>
</trkpt>
<trkpt lat="45.9437000" lon="9.5897500">
	<ele>1617.00</ele>
	<time>2023-10-07T07:39:37.000Z</time>
</trkpt>
<trkpt lat="45.9437010" lon="9.5897450">
	<ele>1617.20</ele>
	<time>2023-10-07T07:39:38.000Z</time>
</trkpt>
<trkpt lat="45.9437030" lon="9.5897410">
	<ele>1617.40</ele>
	<time>2023-10-07T07:39:39.000Z</time>
</trkpt>
<trkpt lat="45.9437070" lon="9.5897310">
	<ele>1617.60</ele>
	<time>2023-10-07T07:39:40.000Z</time>
</trkpt>
<trkpt lat="45.9437130" lon="9.5897250">
	<ele>1617.60</ele>
	<time>2023-10-07T07:39:41.000Z</time>
</trkpt>
<trkpt lat="45.9437170" lon="9.5897220">
	<ele>1617.80</ele>
	<time>2023-10-07T07:39:42.000Z</time>
</trkpt>
<trkpt lat="45.9437190" lon="9.5897180">
	<ele>1618.00</ele>
	<time>2023-10-07T07:39:43.000Z</time>
</trkpt>
<trkpt lat="45.9437200" lon="9.5897160">
	<ele>1618.20</ele>
	<time>2023-10-07T07:39:44.000Z</time>
</trkpt>
<trkpt lat="45.9437220" lon="9.5897140">
	<ele>1618.40</ele>
	<time>2023-10-07T07:39:45.000Z</time>
</trkpt>
<trkpt lat="45.9437240" lon="9.5897080">
	<ele>1618.40</ele>
	<time>2023-10-07T07:39:46.000Z</time>
</trkpt>
<trkpt lat="45.9437250" lon="9.5897010">
	<ele>1618.60</ele>
	<time>2023-10-07T07:39:47.000Z</time>
</trkpt>
<trkpt lat="45.9437250" lon="9.5896940">
	<ele>1618.60</ele>
	<time>2023-10-07T07:39:48.000Z</time>
</trkpt>
<trkpt lat="45.9437240" lon="9.5896840">
	<ele>1618.60</ele>
	<time>2023-10-07T07:39:49.000Z</time>
</trkpt>
<trkpt lat="45.9437250" lon="9.5896690">
	<ele>1618.80</ele>
	<time>2023-10-07T07:39:50.000Z</time>
</trkpt>
<trkpt lat="45.9437280" lon="9.5896620">
	<ele>1619.00</ele>
	<time>2023-10-07T07:39:51.000Z</time>
</trkpt>
<trkpt lat="45.9437330" lon="9.5896560">
	<ele>1619.00</ele>
	<time>2023-10-07T07:39:52.000Z</time>
</trkpt>
<trkpt lat="45.9437360" lon="9.5896520">
	<ele>1619.40</ele>
	<time>2023-10-07T07:39:53.000Z</time>
</trkpt>
<trkpt lat="45.9437390" lon="9.5896440">
	<ele>1619.40</ele>
	<time>2023-10-07T07:39:54.000Z</time>
</trkpt>
<trkpt lat="45.9437410" lon="9.5896330">
	<ele>1619.60</ele>
	<time>2023-10-07T07:39:55.000Z</time>
</trkpt>
<trkpt lat="45.9437440" lon="9.5896240">
	<ele>1619.60</ele>
	<time>2023-10-07T07:39:56.000Z</time>
</trkpt>
<trkpt lat="45.9437460" lon="9.5896140">
	<ele>1619.80</ele>
	<time>2023-10-07T07:39:57.000Z</time>
</trkpt>
<trkpt lat="45.9437490" lon="9.5896010">
	<ele>1619.80</ele>
	<time>2023-10-07T07:39:58.000Z</time>
</trkpt>
<trkpt lat="45.9437510" lon="9.5895880">
	<ele>1619.80</ele>
	<time>2023-10-07T07:39:59.000Z</time>
</trkpt>
<trkpt lat="45.9437540" lon="9.5895830">
	<ele>1620.00</ele>
	<time>2023-10-07T07:40:00.000Z</time>
</trkpt>
<trkpt lat="45.9437550" lon="9.5895730">
	<ele>1620.00</ele>
	<time>2023-10-07T07:40:01.000Z</time>
</trkpt>
<trkpt lat="45.9437550" lon="9.5895620">
	<ele>1620.20</ele>
	<time>2023-10-07T07:40:02.000Z</time>
</trkpt>
<trkpt lat="45.9437560" lon="9.5895460">
	<ele>1620.20</ele>
	<time>2023-10-07T07:40:03.000Z</time>
</trkpt>
<trkpt lat="45.9437560" lon="9.5895360">
	<ele>1620.20</ele>
	<time>2023-10-07T07:40:04.000Z</time>
</trkpt>
<trkpt lat="45.9437570" lon="9.5895220">
	<ele>1620.20</ele>
	<time>2023-10-07T07:40:05.000Z</time>
</trkpt>
<trkpt lat="45.9437590" lon="9.5895070">
	<ele>1620.20</ele>
	<time>2023-10-07T07:40:06.000Z</time>
</trkpt>
<trkpt lat="45.9437600" lon="9.5894960">
	<ele>1620.40</ele>
	<time>2023-10-07T07:40:07.000Z</time>
</trkpt>
<trkpt lat="45.9437610" lon="9.5894880">
	<ele>1620.40</ele>
	<time>2023-10-07T07:40:08.000Z</time>
</trkpt>
<trkpt lat="45.9437640" lon="9.5894790">
	<ele>1620.40</ele>
	<time>2023-10-07T07:40:09.000Z</time>
</trkpt>
<trkpt lat="45.9437640" lon="9.5894680">
	<ele>1620.60</ele>
	<time>2023-10-07T07:40:10.000Z</time>
</trkpt>
<trkpt lat="45.9437650" lon="9.5894540">
	<ele>1620.80</ele>
	<time>2023-10-07T07:40:11.000Z</time>
</trkpt>
<trkpt lat="45.9437650" lon="9.5894410">
	<ele>1620.80</ele>
	<time>2023-10-07T07:40:12.000Z</time>
</trkpt>
<trkpt lat="45.9437650" lon="9.5894310">
	<ele>1621.00</ele>
	<time>2023-10-07T07:40:13.000Z</time>
</trkpt>
<trkpt lat="45.9437640" lon="9.5894170">
	<ele>1621.00</ele>
	<time>2023-10-07T07:40:14.000Z</time>
</trkpt>
<trkpt lat="45.9437660" lon="9.5894020">
	<ele>1621.20</ele>
	<time>2023-10-07T07:40:15.000Z</time>
</trkpt>
<trkpt lat="45.9437670" lon="9.5893910">
	<ele>1621.20</ele>
	<time>2023-10-07T07:40:16.000Z</time>
</trkpt>
<trkpt lat="45.9437680" lon="9.5893780">
	<ele>1621.40</ele>
	<time>2023-10-07T07:40:17.000Z</time>
</trkpt>
<trkpt lat="45.9437700" lon="9.5893650">
	<ele>1621.40</ele>
	<time>2023-10-07T07:40:18.000Z</time>
</trkpt>
<trkpt lat="45.9437750" lon="9.5893570">
	<ele>1621.60</ele>
	<time>2023-10-07T07:40:19.000Z</time>
</trkpt>
<trkpt lat="45.9437820" lon="9.5893490">
	<ele>1621.80</ele>
	<time>2023-10-07T07:40:20.000Z</time>
</trkpt>
<trkpt lat="45.9437870" lon="9.5893400">
	<ele>1621.80</ele>
	<time>2023-10-07T07:40:21.000Z</time>
</trkpt>
<trkpt lat="45.9437920" lon="9.5893340">
	<ele>1622.00</ele>
	<time>2023-10-07T07:40:22.000Z</time>
</trkpt>
<trkpt lat="45.9437970" lon="9.5893220">
	<ele>1622.20</ele>
	<time>2023-10-07T07:40:23.000Z</time>
</trkpt>
<trkpt lat="45.9438000" lon="9.5893110">
	<ele>1622.20</ele>
	<time>2023-10-07T07:40:24.000Z</time>
</trkpt>
<trkpt lat="45.9438030" lon="9.5893050">
	<ele>1622.40</ele>
	<time>2023-10-07T07:40:25.000Z</time>
</trkpt>
<trkpt lat="45.9438090" lon="9.5892960">
	<ele>1622.60</ele>
	<time>2023-10-07T07:40:26.000Z</time>
</trkpt>
<trkpt lat="45.9438110" lon="9.5892880">
	<ele>1622.60</ele>
	<time>2023-10-07T07:40:27.000Z</time>
</trkpt>
<trkpt lat="45.9438110" lon="9.5892800">
	<ele>1622.80</ele>
	<time>2023-10-07T07:40:28.000Z</time>
</trkpt>
<trkpt lat="45.9438120" lon="9.5892700">
	<ele>1623.00</ele>
	<time>2023-10-07T07:40:29.000Z</time>
</trkpt>
<trkpt lat="45.9438140" lon="9.5892590">
	<ele>1623.20</ele>
	<time>2023-10-07T07:40:30.000Z</time>
</trkpt>
<trkpt lat="45.9438150" lon="9.5892490">
	<ele>1623.40</ele>
	<time>2023-10-07T07:40:31.000Z</time>
</trkpt>
<trkpt lat="45.9438190" lon="9.5892430">
	<ele>1623.60</ele>
	<time>2023-10-07T07:40:32.000Z</time>
</trkpt>
<trkpt lat="45.9438230" lon="9.5892320">
	<ele>1623.60</ele>
	<time>2023-10-07T07:40:33.000Z</time>
</trkpt>
<trkpt lat="45.9438260" lon="9.5892220">
	<ele>1623.80</ele>
	<time>2023-10-07T07:40:34.000Z</time>
</trkpt>
<trkpt lat="45.9438310" lon="9.5892150">
	<ele>1623.80</ele>
	<time>2023-10-07T07:40:35.000Z</time>
</trkpt>
<trkpt lat="45.9438360" lon="9.5892070">
	<ele>1623.80</ele>
	<time>2023-10-07T07:40:36.000Z</time>
</trkpt>
<trkpt lat="45.9438390" lon="9.5891980">
	<ele>1624.00</ele>
	<time>2023-10-07T07:40:37.000Z</time>
</trkpt>
<trkpt lat="45.9438410" lon="9.5891910">
	<ele>1624.20</ele>
	<time>2023-10-07T07:40:38.000Z</time>
</trkpt>
<trkpt lat="45.9438440" lon="9.5891790">
	<ele>1624.20</ele>
	<time>2023-10-07T07:40:39.000Z</time>
</trkpt>
<trkpt lat="45.9438470" lon="9.5891730">
	<ele>1624.40</ele>
	<time>2023-10-07T07:40:40.000Z</time>
</trkpt>
<trkpt lat="45.9438500" lon="9.5891690">
	<ele>1624.60</ele>
	<time>2023-10-07T07:40:41.000Z</time>
</trkpt>
<trkpt lat="45.9438540" lon="9.5891600">
	<ele>1624.80</ele>
	<time>2023-10-07T07:40:42.000Z</time>
</trkpt>
<trkpt lat="45.9438570" lon="9.5891510">
	<ele>1624.80</ele>
	<time>2023-10-07T07:40:43.000Z</time>
</trkpt>
<trkpt lat="45.9438610" lon="9.5891390">
	<ele>1625.00</ele>
	<time>2023-10-07T07:40:44.000Z</time>
</trkpt>
<trkpt lat="45.9438650" lon="9.5891270">
	<ele>1625.00</ele>
	<time>2023-10-07T07:40:45.000Z</time>
</trkpt>
<trkpt lat="45.9438690" lon="9.5891200">
	<ele>1625.20</ele>
	<time>2023-10-07T07:40:46.000Z</time>
</trkpt>
<trkpt lat="45.9438730" lon="9.5891150">
	<ele>1625.40</ele>
	<time>2023-10-07T07:40:47.000Z</time>
</trkpt>
<trkpt lat="45.9438770" lon="9.5891030">
	<ele>1625.60</ele>
	<time>2023-10-07T07:40:48.000Z</time>
</trkpt>
<trkpt lat="45.9438790" lon="9.5890930">
	<ele>1625.60</ele>
	<time>2023-10-07T07:40:49.000Z</time>
</trkpt>
<trkpt lat="45.9438810" lon="9.5890880">
	<ele>1625.80</ele>
	<time>2023-10-07T07:40:50.000Z</time>
</trkpt>
<trkpt lat="45.9438860" lon="9.5890750">
	<ele>1626.00</ele>
	<time>2023-10-07T07:40:51.000Z</time>
</trkpt>
<trkpt lat="45.9438890" lon="9.5890660">
	<ele>1626.00</ele>
	<time>2023-10-07T07:40:52.000Z</time>
</trkpt>
<trkpt lat="45.9438930" lon="9.5890570">
	<ele>1626.00</ele>
	<time>2023-10-07T07:40:53.000Z</time>
</trkpt>
<trkpt lat="45.9438970" lon="9.5890480">
	<ele>1626.00</ele>
	<time>2023-10-07T07:40:54.000Z</time>
</trkpt>
<trkpt lat="45.9439000" lon="9.5890370">
	<ele>1626.20</ele>
	<time>2023-10-07T07:40:55.000Z</time>
</trkpt>
<trkpt lat="45.9439040" lon="9.5890270">
	<ele>1626.40</ele>
	<time>2023-10-07T07:40:56.000Z</time>
</trkpt>
<trkpt lat="45.9439080" lon="9.5890180">
	<ele>1626.60</ele>
	<time>2023-10-07T07:40:57.000Z</time>
</trkpt>
<trkpt lat="45.9439110" lon="9.5890090">
	<ele>1626.80</ele>
	<time>2023-10-07T07:40:58.000Z</time>
</trkpt>
<trkpt lat="45.9439160" lon="9.5890020">
	<ele>1627.00</ele>
	<time>2023-10-07T07:40:59.000Z</time>
</trkpt>
<trkpt lat="45.9439220" lon="9.5889960">
	<ele>1627.20</ele>
	<time>2023-10-07T07:41:00.000Z</time>
</trkpt>
<trkpt lat="45.9439280" lon="9.5889900">
	<ele>1627.40</ele>
	<time>2023-10-07T07:41:01.000Z</time>
</trkpt>
<trkpt lat="45.9439320" lon="9.5889850">
	<ele>1627.60</ele>
	<time>2023-10-07T07:41:02.000Z</time>
</trkpt>
<trkpt lat="45.9439370" lon="9.5889810">
	<ele>1627.60</ele>
	<time>2023-10-07T07:41:03.000Z</time>
</trkpt>
<trkpt lat="45.9439420" lon="9.5889750">
	<ele>1627.80</ele>
	<time>2023-10-07T07:41:04.000Z</time>
</trkpt>
<trkpt lat="45.9439480" lon="9.5889700">
	<ele>1628.00</ele>
	<time>2023-10-07T07:41:05.000Z</time>
</trkpt>
<trkpt lat="45.9439500" lon="9.5889660">
	<ele>1628.20</ele>
	<time>2023-10-07T07:41:06.000Z</time>
</trkpt>
<trkpt lat="45.9439520" lon="9.5889580">
	<ele>1628.20</ele>
	<time>2023-10-07T07:41:07.000Z</time>
</trkpt>
<trkpt lat="45.9439540" lon="9.5889490">
	<ele>1628.40</ele>
	<time>2023-10-07T07:41:08.000Z</time>
</trkpt>
<trkpt lat="45.9439540" lon="9.5889410">
	<ele>1628.60</ele>
	<time>2023-10-07T07:41:09.000Z</time>
</trkpt>
<trkpt lat="45.9439560" lon="9.5889340">
	<ele>1628.80</ele>
	<time>2023-10-07T07:41:10.000Z</time>
</trkpt>
<trkpt lat="45.9439610" lon="9.5889240">
	<ele>1629.00</ele>
	<time>2023-10-07T07:41:11.000Z</time>
</trkpt>
<trkpt lat="45.9439640" lon="9.5889170">
	<ele>1629.20</ele>
	<time>2023-10-07T07:41:12.000Z</time>
</trkpt>
<trkpt lat="45.9439680" lon="9.5889120">
	<ele>1629.40</ele>
	<time>2023-10-07T07:41:13.000Z</time>
</trkpt>
<trkpt lat="45.9439690" lon="9.5889040">
	<ele>1629.60</ele>
	<time>2023-10-07T07:41:14.000Z</time>
</trkpt>
<trkpt lat="45.9439710" lon="9.5888940">
	<ele>1629.80</ele>
	<time>2023-10-07T07:41:15.000Z</time>
</trkpt>
<trkpt lat="45.9439730" lon="9.5888870">
	<ele>1630.00</ele>
	<time>2023-10-07T07:41:16.000Z</time>
</trkpt>
<trkpt lat="45.9439770" lon="9.5888780">
	<ele>1630.00</ele>
	<time>2023-10-07T07:41:17.000Z</time>
</trkpt>
<trkpt lat="45.9439800" lon="9.5888680">
	<ele>1630.20</ele>
	<time>2023-10-07T07:41:18.000Z</time>
</trkpt>
<trkpt lat="45.9439830" lon="9.5888570">
	<ele>1630.40</ele>
	<time>2023-10-07T07:41:19.000Z</time>
</trkpt>
<trkpt lat="45.9439840" lon="9.5888450">
	<ele>1630.40</ele>
	<time>2023-10-07T07:41:20.000Z</time>
</trkpt>
<trkpt lat="45.9439840" lon="9.5888310">
	<ele>1630.60</ele>
	<time>2023-10-07T07:41:21.000Z</time>
</trkpt>
<trkpt lat="45.9439850" lon="9.5888200">
	<ele>1630.80</ele>
	<time>2023-10-07T07:41:22.000Z</time>
</trkpt>
<trkpt lat="45.9439860" lon="9.5888100">
	<ele>1631.00</ele>
	<time>2023-10-07T07:41:23.000Z</time>
</trkpt>
<trkpt lat="45.9439860" lon="9.5888010">
	<ele>1631.00</ele>
	<time>2023-10-07T07:41:24.000Z</time>
</trkpt>
<trkpt lat="45.9439870" lon="9.5887930">
	<ele>1631.20</ele>
	<time>2023-10-07T07:41:25.000Z</time>
</trkpt>
<trkpt lat="45.9439880" lon="9.5887810">
	<ele>1631.20</ele>
	<time>2023-10-07T07:41:26.000Z</time>
</trkpt>
<trkpt lat="45.9439900" lon="9.5887640">
	<ele>1631.20</ele>
	<time>2023-10-07T07:41:27.000Z</time>
</trkpt>
<trkpt lat="45.9439920" lon="9.5887560">
	<ele>1631.40</ele>
	<time>2023-10-07T07:41:28.000Z</time>
</trkpt>
<trkpt lat="45.9439950" lon="9.5887470">
	<ele>1631.60</ele>
	<time>2023-10-07T07:41:29.000Z</time>
</trkpt>
<trkpt lat="45.9439960" lon="9.5887390">
	<ele>1631.80</ele>
	<time>2023-10-07T07:41:30.000Z</time>
</trkpt>
<trkpt lat="45.9439960" lon="9.5887340">
	<ele>1631.80</ele>
	<time>2023-10-07T07:41:31.000Z</time>
</trkpt>
<trkpt lat="45.9439960" lon="9.5887300">
	<ele>1632.00</ele>
	<time>2023-10-07T07:41:32.000Z</time>
</trkpt>
<trkpt lat="45.9439970" lon="9.5887310">
	<ele>1632.00</ele>
	<time>2023-10-07T07:41:33.000Z</time>
</trkpt>
<trkpt lat="45.9439990" lon="9.5887290">
	<ele>1632.00</ele>
	<time>2023-10-07T07:41:34.000Z</time>
</trkpt>
<trkpt lat="45.9439990" lon="9.5887280">
	<ele>1632.00</ele>
	<time>2023-10-07T07:41:35.000Z</time>
</trkpt>
<trkpt lat="45.9439990" lon="9.5887260">
	<ele>1632.20</ele>
	<time>2023-10-07T07:41:36.000Z</time>
</trkpt>
<trkpt lat="45.9439990" lon="9.5887250">
	<ele>1632.40</ele>
	<time>2023-10-07T07:41:37.000Z</time>
</trkpt>
<trkpt lat="45.9439990" lon="9.5887240">
	<ele>1632.60</ele>
	<time>2023-10-07T07:41:38.000Z</time>
</trkpt>
<trkpt lat="45.9439990" lon="9.5887240">
	<ele>1632.80</ele>
	<time>2023-10-07T07:41:39.000Z</time>
</trkpt>
<trkpt lat="45.9439990" lon="9.5887240">
	<ele>1632.80</ele>
	<time>2023-10-07T07:41:40.000Z</time>
</trkpt>
<trkpt lat="45.9439990" lon="9.5887240">
	<ele>1632.80</ele>
	<time>2023-10-07T07:41:41.000Z</time>
</trkpt>
<trkpt lat="45.9439990" lon="9.5887240">
	<ele>1632.80</ele>
	<time>2023-10-07T07:41:42.000Z</time>
</trkpt>
<trkpt lat="45.9439990" lon="9.5887240">
	<ele>1632.80</ele>
	<time>2023-10-07T07:41:43.000Z</time>
</trkpt>
<trkpt lat="45.9439990" lon="9.5887240">
	<ele>1632.80</ele>
	<time>2023-10-07T07:41:44.000Z</time>
</trkpt>
<trkpt lat="45.9439990" lon="9.5887240">
	<ele>1632.60</ele>
	<time>2023-10-07T07:41:45.000Z</time>
</trkpt>
<trkpt lat="45.9439990" lon="9.5887240">
	<ele>1632.60</ele>
	<time>2023-10-07T07:41:46.000Z</time>
</trkpt>
<trkpt lat="45.9439990" lon="9.5887240">
	<ele>1632.40</ele>
	<time>2023-10-07T07:41:47.000Z</time>
</trkpt>
<trkpt lat="45.9439990" lon="9.5887240">
	<ele>1632.40</ele>
	<time>2023-10-07T07:41:48.000Z</time>
</trkpt>
<trkpt lat="45.9439990" lon="9.5887240">
	<ele>1632.40</ele>
	<time>2023-10-07T07:41:49.000Z</time>
</trkpt>
<trkpt lat="45.9439990" lon="9.5887240">
	<ele>1632.40</ele>
	<time>2023-10-07T07:41:50.000Z</time>
</trkpt>
<trkpt lat="45.9439990" lon="9.5887240">
	<ele>1632.40</ele>
	<time>2023-10-07T07:41:51.000Z</time>
</trkpt>
<trkpt lat="45.9439990" lon="9.5887240">
	<ele>1632.60</ele>
	<time>2023-10-07T07:41:52.000Z</time>
</trkpt>
<trkpt lat="45.9439990" lon="9.5887240">
	<ele>1632.60</ele>
	<time>2023-10-07T07:41:53.000Z</time>
</trkpt>
<trkpt lat="45.9439990" lon="9.5887240">
	<ele>1632.60</ele>
	<time>2023-10-07T07:41:54.000Z</time>
</trkpt>
<trkpt lat="45.9439990" lon="9.5887240">
	<ele>1632.40</ele>
	<time>2023-10-07T07:41:55.000Z</time>
</trkpt>
<trkpt lat="45.9439990" lon="9.5887240">
	<ele>1632.40</ele>
	<time>2023-10-07T07:41:56.000Z</time>
</trkpt>
<trkpt lat="45.9439990" lon="9.5887230">
	<ele>1632.20</ele>
	<time>2023-10-07T07:41:57.000Z</time>
</trkpt>
<trkpt lat="45.9439990" lon="9.5887220">
	<ele>1632.20</ele>
	<time>2023-10-07T07:41:58.000Z</time>
</trkpt>
<trkpt lat="45.9439990" lon="9.5887200">
	<ele>1632.00</ele>
	<time>2023-10-07T07:41:59.000Z</time>
</trkpt>
<trkpt lat="45.9439990" lon="9.5887200">
	<ele>1632.00</ele>
	<time>2023-10-07T07:42:00.000Z</time>
</trkpt>
<trkpt lat="45.9439990" lon="9.5887200">
	<ele>1632.00</ele>
	<time>2023-10-07T07:42:01.000Z</time>
</trkpt>
<trkpt lat="45.9439990" lon="9.5887190">
	<ele>1632.00</ele>
	<time>2023-10-07T07:42:02.000Z</time>
</trkpt>
<trkpt lat="45.9439990" lon="9.5887160">
	<ele>1632.00</ele>
	<time>2023-10-07T07:42:03.000Z</time>
</trkpt>
<trkpt lat="45.9439990" lon="9.5887150">
	<ele>1632.00</ele>
	<time>2023-10-07T07:42:04.000Z</time>
</trkpt>
<trkpt lat="45.9439990" lon="9.5887120">
	<ele>1632.20</ele>
	<time>2023-10-07T07:42:05.000Z</time>
</trkpt>
<trkpt lat="45.9439990" lon="9.5887110">
	<ele>1632.20</ele>
	<time>2023-10-07T07:42:06.000Z</time>
</trkpt>
<trkpt lat="45.9440000" lon="9.5887040">
	<ele>1632.20</ele>
	<time>2023-10-07T07:42:07.000Z</time>
</trkpt>
<trkpt lat="45.9440030" lon="9.5886810">
	<ele>1632.20</ele>
	<time>2023-10-07T07:42:08.000Z</time>
</trkpt>
<trkpt lat="45.9440040" lon="9.5886610">
	<ele>1632.20</ele>
	<time>2023-10-07T07:42:09.000Z</time>
</trkpt>
<trkpt lat="45.9440060" lon="9.5886420">
	<ele>1632.20</ele>
	<time>2023-10-07T07:42:10.000Z</time>
</trkpt>
<trkpt lat="45.9440070" lon="9.5886200">
	<ele>1632.00</ele>
	<time>2023-10-07T07:42:11.000Z</time>
</trkpt>
<trkpt lat="45.9440100" lon="9.5885970">
	<ele>1632.00</ele>
	<time>2023-10-07T07:42:12.000Z</time>
</trkpt>
<trkpt lat="45.9440130" lon="9.5885750">
	<ele>1632.00</ele>
	<time>2023-10-07T07:42:13.000Z</time>
</trkpt>
<trkpt lat="45.9440120" lon="9.5885530">
	<ele>1632.00</ele>
	<time>2023-10-07T07:42:14.000Z</time>
</trkpt>
<trkpt lat="45.9440130" lon="9.5885330">
	<ele>1632.00</ele>
	<time>2023-10-07T07:42:15.000Z</time>
</trkpt>
<trkpt lat="45.9440170" lon="9.5885130">
	<ele>1632.00</ele>
	<time>2023-10-07T07:42:16.000Z</time>
</trkpt>
<trkpt lat="45.9440190" lon="9.5885000">
	<ele>1632.00</ele>
	<time>2023-10-07T07:42:17.000Z</time>
</trkpt>
<trkpt lat="45.9440230" lon="9.5884860">
	<ele>1632.00</ele>
	<time>2023-10-07T07:42:18.000Z</time>
</trkpt>
<trkpt lat="45.9440260" lon="9.5884750">
	<ele>1632.00</ele>
	<time>2023-10-07T07:42:19.000Z</time>
</trkpt>
<trkpt lat="45.9440300" lon="9.5884620">
	<ele>1632.00</ele>
	<time>2023-10-07T07:42:20.000Z</time>
</trkpt>
<trkpt lat="45.9440320" lon="9.5884510">
	<ele>1632.20</ele>
	<time>2023-10-07T07:42:21.000Z</time>
</trkpt>
<trkpt lat="45.9440350" lon="9.5884410">
	<ele>1632.20</ele>
	<time>2023-10-07T07:42:22.000Z</time>
</trkpt>
<trkpt lat="45.9440390" lon="9.5884290">
	<ele>1632.20</ele>
	<time>2023-10-07T07:42:23.000Z</time>
</trkpt>
<trkpt lat="45.9440400" lon="9.5884180">
	<ele>1632.40</ele>
	<time>2023-10-07T07:42:24.000Z</time>
</trkpt>
<trkpt lat="45.9440430" lon="9.5884050">
	<ele>1632.40</ele>
	<time>2023-10-07T07:42:25.000Z</time>
</trkpt>
<trkpt lat="45.9440450" lon="9.5883890">
	<ele>1632.40</ele>
	<time>2023-10-07T07:42:26.000Z</time>
</trkpt>
<trkpt lat="45.9440460" lon="9.5883730">
	<ele>1632.40</ele>
	<time>2023-10-07T07:42:27.000Z</time>
</trkpt>
<trkpt lat="45.9440480" lon="9.5883580">
	<ele>1632.40</ele>
	<time>2023-10-07T07:42:28.000Z</time>
</trkpt>
<trkpt lat="45.9440500" lon="9.5883470">
	<ele>1632.40</ele>
	<time>2023-10-07T07:42:29.000Z</time>
</trkpt>
<trkpt lat="45.9440530" lon="9.5883360">
	<ele>1632.40</ele>
	<time>2023-10-07T07:42:30.000Z</time>
</trkpt>
<trkpt lat="45.9440580" lon="9.5883240">
	<ele>1632.40</ele>
	<time>2023-10-07T07:42:31.000Z</time>
</trkpt>
<trkpt lat="45.9440590" lon="9.5883120">
	<ele>1632.40</ele>
	<time>2023-10-07T07:42:32.000Z</time>
</trkpt>
<trkpt lat="45.9440610" lon="9.5882970">
	<ele>1632.40</ele>
	<time>2023-10-07T07:42:33.000Z</time>
</trkpt>
<trkpt lat="45.9440640" lon="9.5882860">
	<ele>1632.60</ele>
	<time>2023-10-07T07:42:34.000Z</time>
</trkpt>
<trkpt lat="45.9440660" lon="9.5882720">
	<ele>1632.60</ele>
	<time>2023-10-07T07:42:35.000Z</time>
</trkpt>
<trkpt lat="45.9440690" lon="9.5882550">
	<ele>1632.60</ele>
	<time>2023-10-07T07:42:36.000Z</time>
</trkpt>
<trkpt lat="45.9440720" lon="9.5882400">
	<ele>1632.60</ele>
	<time>2023-10-07T07:42:37.000Z</time>
</trkpt>
<trkpt lat="45.9440750" lon="9.5882250">
	<ele>1632.60</ele>
	<time>2023-10-07T07:42:38.000Z</time>
</trkpt>
<trkpt lat="45.9440800" lon="9.5882100">
	<ele>1632.60</ele>
	<time>2023-10-07T07:42:39.000Z</time>
</trkpt>
<trkpt lat="45.9440830" lon="9.5881980">
	<ele>1632.60</ele>
	<time>2023-10-07T07:42:40.000Z</time>
</trkpt>
<trkpt lat="45.9440860" lon="9.5881920">
	<ele>1632.80</ele>
	<time>2023-10-07T07:42:41.000Z</time>
</trkpt>
<trkpt lat="45.9440870" lon="9.5881840">
	<ele>1632.80</ele>
	<time>2023-10-07T07:42:42.000Z</time>
</trkpt>
<trkpt lat="45.9440890" lon="9.5881720">
	<ele>1633.00</ele>
	<time>2023-10-07T07:42:43.000Z</time>
</trkpt>
<trkpt lat="45.9440910" lon="9.5881610">
	<ele>1633.00</ele>
	<time>2023-10-07T07:42:44.000Z</time>
</trkpt>
<trkpt lat="45.9440940" lon="9.5881490">
	<ele>1633.00</ele>
	<time>2023-10-07T07:42:45.000Z</time>
</trkpt>
<trkpt lat="45.9441000" lon="9.5881370">
	<ele>1633.20</ele>
	<time>2023-10-07T07:42:46.000Z</time>
</trkpt>
<trkpt lat="45.9441080" lon="9.5881310">
	<ele>1633.20</ele>
	<time>2023-10-07T07:42:47.000Z</time>
</trkpt>
<trkpt lat="45.9441130" lon="9.5881210">
	<ele>1633.20</ele>
	<time>2023-10-07T07:42:48.000Z</time>
</trkpt>
<trkpt lat="45.9441160" lon="9.5881130">
	<ele>1633.40</ele>
	<time>2023-10-07T07:42:49.000Z</time>
</trkpt>
<trkpt lat="45.9441170" lon="9.5881030">
	<ele>1633.40</ele>
	<time>2023-10-07T07:42:50.000Z</time>
</trkpt>
<trkpt lat="45.9441220" lon="9.5880910">
	<ele>1633.60</ele>
	<time>2023-10-07T07:42:51.000Z</time>
</trkpt>
<trkpt lat="45.9441250" lon="9.5880850">
	<ele>1633.60</ele>
	<time>2023-10-07T07:42:52.000Z</time>
</trkpt>
<trkpt lat="45.9441270" lon="9.5880780">
	<ele>1633.60</ele>
	<time>2023-10-07T07:42:53.000Z</time>
</trkpt>
<trkpt lat="45.9441290" lon="9.5880660">
	<ele>1633.80</ele>
	<time>2023-10-07T07:42:54.000Z</time>
</trkpt>
<trkpt lat="45.9441310" lon="9.5880540">
	<ele>1633.80</ele>
	<time>2023-10-07T07:42:55.000Z</time>
</trkpt>
<trkpt lat="45.9441320" lon="9.5880440">
	<ele>1634.20</ele>
	<time>2023-10-07T07:42:56.000Z</time>
</trkpt>
<trkpt lat="45.9441320" lon="9.5880320">
	<ele>1634.40</ele>
	<time>2023-10-07T07:42:57.000Z</time>
</trkpt>
<trkpt lat="45.9441330" lon="9.5880220">
	<ele>1634.40</ele>
	<time>2023-10-07T07:42:58.000Z</time>
</trkpt>
<trkpt lat="45.9441330" lon="9.5880110">
	<ele>1634.60</ele>
	<time>2023-10-07T07:42:59.000Z</time>
</trkpt>
<trkpt lat="45.9441340" lon="9.5879980">
	<ele>1634.80</ele>
	<time>2023-10-07T07:43:00.000Z</time>
</trkpt>
<trkpt lat="45.9441340" lon="9.5879870">
	<ele>1634.80</ele>
	<time>2023-10-07T07:43:01.000Z</time>
</trkpt>
<trkpt lat="45.9441370" lon="9.5879790">
	<ele>1635.00</ele>
	<time>2023-10-07T07:43:02.000Z</time>
</trkpt>
<trkpt lat="45.9441400" lon="9.5879700">
	<ele>1635.20</ele>
	<time>2023-10-07T07:43:03.000Z</time>
</trkpt>
<trkpt lat="45.9441420" lon="9.5879620">
	<ele>1635.40</ele>
	<time>2023-10-07T07:43:04.000Z</time>
</trkpt>
<trkpt lat="45.9441460" lon="9.5879530">
	<ele>1635.40</ele>
	<time>2023-10-07T07:43:05.000Z</time>
</trkpt>
<trkpt lat="45.9441470" lon="9.5879410">
	<ele>1635.60</ele>
	<time>2023-10-07T07:43:06.000Z</time>
</trkpt>
<trkpt lat="45.9441510" lon="9.5879330">
	<ele>1635.60</ele>
	<time>2023-10-07T07:43:07.000Z</time>
</trkpt>
<trkpt lat="45.9441550" lon="9.5879200">
	<ele>1635.80</ele>
	<time>2023-10-07T07:43:08.000Z</time>
</trkpt>
<trkpt lat="45.9441570" lon="9.5879080">
	<ele>1636.00</ele>
	<time>2023-10-07T07:43:09.000Z</time>
</trkpt>
<trkpt lat="45.9441590" lon="9.5878950">
	<ele>1636.20</ele>
	<time>2023-10-07T07:43:10.000Z</time>
</trkpt>
<trkpt lat="45.9441610" lon="9.5878810">
	<ele>1636.20</ele>
	<time>2023-10-07T07:43:11.000Z</time>
</trkpt>
<trkpt lat="45.9441630" lon="9.5878690">
	<ele>1636.20</ele>
	<time>2023-10-07T07:43:12.000Z</time>
</trkpt>
<trkpt lat="45.9441690" lon="9.5878620">
	<ele>1636.20</ele>
	<time>2023-10-07T07:43:13.000Z</time>
</trkpt>
<trkpt lat="45.9441720" lon="9.5878540">
	<ele>1636.20</ele>
	<time>2023-10-07T07:43:14.000Z</time>
</trkpt>
<trkpt lat="45.9441740" lon="9.5878450">
	<ele>1636.40</ele>
	<time>2023-10-07T07:43:15.000Z</time>
</trkpt>
<trkpt lat="45.9441740" lon="9.5878330">
	<ele>1636.40</ele>
	<time>2023-10-07T07:43:16.000Z</time>
</trkpt>
<trkpt lat="45.9441730" lon="9.5878220">
	<ele>1636.60</ele>
	<time>2023-10-07T07:43:17.000Z</time>
</trkpt>
<trkpt lat="45.9441730" lon="9.5878070">
	<ele>1636.80</ele>
	<time>2023-10-07T07:43:18.000Z</time>
</trkpt>
<trkpt lat="45.9441740" lon="9.5877960">
	<ele>1637.00</ele>
	<time>2023-10-07T07:43:19.000Z</time>
</trkpt>
<trkpt lat="45.9441750" lon="9.5877870">
	<ele>1637.00</ele>
	<time>2023-10-07T07:43:20.000Z</time>
</trkpt>
<trkpt lat="45.9441750" lon="9.5877760">
	<ele>1637.00</ele>
	<time>2023-10-07T07:43:21.000Z</time>
</trkpt>
<trkpt lat="45.9441780" lon="9.5877690">
	<ele>1637.20</ele>
	<time>2023-10-07T07:43:22.000Z</time>
</trkpt>
<trkpt lat="45.9441780" lon="9.5877590">
	<ele>1637.20</ele>
	<time>2023-10-07T07:43:23.000Z</time>
</trkpt>
<trkpt lat="45.9441850" lon="9.5877500">
	<ele>1637.40</ele>
	<time>2023-10-07T07:43:24.000Z</time>
</trkpt>
<trkpt lat="45.9441910" lon="9.5877440">
	<ele>1637.60</ele>
	<time>2023-10-07T07:43:25.000Z</time>
</trkpt>
<trkpt lat="45.9441940" lon="9.5877370">
	<ele>1637.60</ele>
	<time>2023-10-07T07:43:26.000Z</time>
</trkpt>
<trkpt lat="45.9441990" lon="9.5877310">
	<ele>1637.80</ele>
	<time>2023-10-07T07:43:27.000Z</time>
</trkpt>
<trkpt lat="45.9442040" lon="9.5877210">
	<ele>1638.00</ele>
	<time>2023-10-07T07:43:28.000Z</time>
</trkpt>
<trkpt lat="45.9442070" lon="9.5877150">
	<ele>1638.20</ele>
	<time>2023-10-07T07:43:29.000Z</time>
</trkpt>
<trkpt lat="45.9442120" lon="9.5877080">
	<ele>1638.40</ele>
	<time>2023-10-07T07:43:30.000Z</time>
</trkpt>
<trkpt lat="45.9442140" lon="9.5877000">
	<ele>1638.60</ele>
	<time>2023-10-07T07:43:31.000Z</time>
</trkpt>
<trkpt lat="45.9442160" lon="9.5876950">
	<ele>1638.60</ele>
	<time>2023-10-07T07:43:32.000Z</time>
</trkpt>
<trkpt lat="45.9442180" lon="9.5876920">
	<ele>1638.80</ele>
	<time>2023-10-07T07:43:33.000Z</time>
</trkpt>
<trkpt lat="45.9442210" lon="9.5876870">
	<ele>1638.80</ele>
	<time>2023-10-07T07:43:34.000Z</time>
</trkpt>
<trkpt lat="45.9442220" lon="9.5876830">
	<ele>1639.00</ele>
	<time>2023-10-07T07:43:35.000Z</time>
</trkpt>
<trkpt lat="45.9442250" lon="9.5876790">
	<ele>1639.20</ele>
	<time>2023-10-07T07:43:36.000Z</time>
</trkpt>
<trkpt lat="45.9442270" lon="9.5876740">
	<ele>1639.20</ele>
	<time>2023-10-07T07:43:37.000Z</time>
</trkpt>
<trkpt lat="45.9442290" lon="9.5876690">
	<ele>1639.40</ele>
	<time>2023-10-07T07:43:38.000Z</time>
</trkpt>
<trkpt lat="45.9442320" lon="9.5876650">
	<ele>1639.60</ele>
	<time>2023-10-07T07:43:39.000Z</time>
</trkpt>
<trkpt lat="45.9442340" lon="9.5876570">
	<ele>1639.80</ele>
	<time>2023-10-07T07:43:40.000Z</time>
</trkpt>
<trkpt lat="45.9442380" lon="9.5876520">
	<ele>1640.00</ele>
	<time>2023-10-07T07:43:41.000Z</time>
</trkpt>
<trkpt lat="45.9442400" lon="9.5876470">
	<ele>1640.20</ele>
	<time>2023-10-07T07:43:42.000Z</time>
</trkpt>
<trkpt lat="45.9442430" lon="9.5876420">
	<ele>1640.40</ele>
	<time>2023-10-07T07:43:43.000Z</time>
</trkpt>
<trkpt lat="45.9442460" lon="9.5876360">
	<ele>1640.40</ele>
	<time>2023-10-07T07:43:44.000Z</time>
</trkpt>
<trkpt lat="45.9442490" lon="9.5876330">
	<ele>1640.60</ele>
	<time>2023-10-07T07:43:45.000Z</time>
</trkpt>
<trkpt lat="45.9442540" lon="9.5876300">
	<ele>1640.80</ele>
	<time>2023-10-07T07:43:46.000Z</time>
</trkpt>
<trkpt lat="45.9442590" lon="9.5876260">
	<ele>1641.00</ele>
	<time>2023-10-07T07:43:47.000Z</time>
</trkpt>
<trkpt lat="45.9442610" lon="9.5876220">
	<ele>1641.40</ele>
	<time>2023-10-07T07:43:48.000Z</time>
</trkpt>
<trkpt lat="45.9442600" lon="9.5876160">
	<ele>1641.60</ele>
	<time>2023-10-07T07:43:49.000Z</time>
</trkpt>
<trkpt lat="45.9442600" lon="9.5876100">
	<ele>1641.80</ele>
	<time>2023-10-07T07:43:50.000Z</time>
</trkpt>
<trkpt lat="45.9442620" lon="9.5876060">
	<ele>1641.80</ele>
	<time>2023-10-07T07:43:51.000Z</time>
</trkpt>
<trkpt lat="45.9442630" lon="9.5876010">
	<ele>1642.00</ele>
	<time>2023-10-07T07:43:52.000Z</time>
</trkpt>
<trkpt lat="45.9442660" lon="9.5875970">
	<ele>1642.20</ele>
	<time>2023-10-07T07:43:53.000Z</time>
</trkpt>
<trkpt lat="45.9442720" lon="9.5875950">
	<ele>1642.20</ele>
	<time>2023-10-07T07:43:54.000Z</time>
</trkpt>
<trkpt lat="45.9442750" lon="9.5875900">
	<ele>1642.40</ele>
	<time>2023-10-07T07:43:55.000Z</time>
</trkpt>
<trkpt lat="45.9442810" lon="9.5875860">
	<ele>1642.40</ele>
	<time>2023-10-07T07:43:56.000Z</time>
</trkpt>
<trkpt lat="45.9442840" lon="9.5875810">
	<ele>1642.60</ele>
	<time>2023-10-07T07:43:57.000Z</time>
</trkpt>
<trkpt lat="45.9442850" lon="9.5875720">
	<ele>1642.80</ele>
	<time>2023-10-07T07:43:58.000Z</time>
</trkpt>
<trkpt lat="45.9442870" lon="9.5875660">
	<ele>1643.00</ele>
	<time>2023-10-07T07:43:59.000Z</time>
</trkpt>
<trkpt lat="45.9442920" lon="9.5875620">
	<ele>1643.20</ele>
	<time>2023-10-07T07:44:00.000Z</time>
</trkpt>
<trkpt lat="45.9442940" lon="9.5875560">
	<ele>1643.40</ele>
	<time>2023-10-07T07:44:01.000Z</time>
</trkpt>
<trkpt lat="45.9442960" lon="9.5875510">
	<ele>1643.60</ele>
	<time>2023-10-07T07:44:02.000Z</time>
</trkpt>
<trkpt lat="45.9442990" lon="9.5875480">
	<ele>1643.80</ele>
	<time>2023-10-07T07:44:03.000Z</time>
</trkpt>
<trkpt lat="45.9443020" lon="9.5875430">
	<ele>1644.00</ele>
	<time>2023-10-07T07:44:04.000Z</time>
</trkpt>
<trkpt lat="45.9443040" lon="9.5875380">
	<ele>1644.20</ele>
	<time>2023-10-07T07:44:05.000Z</time>
</trkpt>
<trkpt lat="45.9443080" lon="9.5875340">
	<ele>1644.40</ele>
	<time>2023-10-07T07:44:06.000Z</time>
</trkpt>
<trkpt lat="45.9443100" lon="9.5875330">
	<ele>1644.60</ele>
	<time>2023-10-07T07:44:07.000Z</time>
</trkpt>
<trkpt lat="45.9443110" lon="9.5875340">
	<ele>1644.80</ele>
	<time>2023-10-07T07:44:08.000Z</time>
</trkpt>
<trkpt lat="45.9443150" lon="9.5875320">
	<ele>1645.00</ele>
	<time>2023-10-07T07:44:09.000Z</time>
</trkpt>
<trkpt lat="45.9443190" lon="9.5875290">
	<ele>1645.00</ele>
	<time>2023-10-07T07:44:10.000Z</time>
</trkpt>
<trkpt lat="45.9443240" lon="9.5875260">
	<ele>1645.00</ele>
	<time>2023-10-07T07:44:11.000Z</time>
</trkpt>
<trkpt lat="45.9443250" lon="9.5875180">
	<ele>1645.20</ele>
	<time>2023-10-07T07:44:12.000Z</time>
</trkpt>
<trkpt lat="45.9443250" lon="9.5875090">
	<ele>1645.20</ele>
	<time>2023-10-07T07:44:13.000Z</time>
</trkpt>
<trkpt lat="45.9443270" lon="9.5875040">
	<ele>1645.40</ele>
	<time>2023-10-07T07:44:14.000Z</time>
</trkpt>
<trkpt lat="45.9443290" lon="9.5874960">
	<ele>1645.40</ele>
	<time>2023-10-07T07:44:15.000Z</time>
</trkpt>
<trkpt lat="45.9443300" lon="9.5874860">
	<ele>1645.60</ele>
	<time>2023-10-07T07:44:16.000Z</time>
</trkpt>
<trkpt lat="45.9443310" lon="9.5874830">
	<ele>1646.00</ele>
	<time>2023-10-07T07:44:17.000Z</time>
</trkpt>
<trkpt lat="45.9443320" lon="9.5874770">
	<ele>1646.20</ele>
	<time>2023-10-07T07:44:18.000Z</time>
</trkpt>
<trkpt lat="45.9443340" lon="9.5874710">
	<ele>1646.20</ele>
	<time>2023-10-07T07:44:19.000Z</time>
</trkpt>
<trkpt lat="45.9443360" lon="9.5874640">
	<ele>1646.60</ele>
	<time>2023-10-07T07:44:20.000Z</time>
</trkpt>
<trkpt lat="45.9443360" lon="9.5874600">
	<ele>1646.60</ele>
	<time>2023-10-07T07:44:21.000Z</time>
</trkpt>
<trkpt lat="45.9443360" lon="9.5874560">
	<ele>1646.80</ele>
	<time>2023-10-07T07:44:22.000Z</time>
</trkpt>
<trkpt lat="45.9443350" lon="9.5874500">
	<ele>1647.00</ele>
	<time>2023-10-07T07:44:23.000Z</time>
</trkpt>
<trkpt lat="45.9443360" lon="9.5874410">
	<ele>1647.00</ele>
	<time>2023-10-07T07:44:24.000Z</time>
</trkpt>
<trkpt lat="45.9443360" lon="9.5874380">
	<ele>1647.20</ele>
	<time>2023-10-07T07:44:25.000Z</time>
</trkpt>
<trkpt lat="45.9443360" lon="9.5874380">
	<ele>1647.40</ele>
	<time>2023-10-07T07:44:26.000Z</time>
</trkpt>
<trkpt lat="45.9443390" lon="9.5874330">
	<ele>1647.60</ele>
	<time>2023-10-07T07:44:27.000Z</time>
</trkpt>
<trkpt lat="45.9443440" lon="9.5874290">
	<ele>1647.60</ele>
	<time>2023-10-07T07:44:28.000Z</time>
</trkpt>
<trkpt lat="45.9443480" lon="9.5874250">
	<ele>1647.80</ele>
	<time>2023-10-07T07:44:29.000Z</time>
</trkpt>
<trkpt lat="45.9443530" lon="9.5874210">
	<ele>1648.00</ele>
	<time>2023-10-07T07:44:30.000Z</time>
</trkpt>
<trkpt lat="45.9443570" lon="9.5874150">
	<ele>1648.20</ele>
	<time>2023-10-07T07:44:31.000Z</time>
</trkpt>
<trkpt lat="45.9443600" lon="9.5874070">
	<ele>1648.40</ele>
	<time>2023-10-07T07:44:32.000Z</time>
</trkpt>
<trkpt lat="45.9443630" lon="9.5874040">
	<ele>1648.60</ele>
	<time>2023-10-07T07:44:33.000Z</time>
</trkpt>
<trkpt lat="45.9443670" lon="9.5873980">
	<ele>1648.80</ele>
	<time>2023-10-07T07:44:34.000Z</time>
</trkpt>
<trkpt lat="45.9443700" lon="9.5873940">
	<ele>1649.00</ele>
	<time>2023-10-07T07:44:35.000Z</time>
</trkpt>
<trkpt lat="45.9443710" lon="9.5873880">
	<ele>1649.00</ele>
	<time>2023-10-07T07:44:36.000Z</time>
</trkpt>
<trkpt lat="45.9443710" lon="9.5873860">
	<ele>1649.00</ele>
	<time>2023-10-07T07:44:37.000Z</time>
</trkpt>
<trkpt lat="45.9443720" lon="9.5873830">
	<ele>1649.20</ele>
	<time>2023-10-07T07:44:38.000Z</time>
</trkpt>
<trkpt lat="45.9443720" lon="9.5873760">
	<ele>1649.40</ele>
	<time>2023-10-07T07:44:39.000Z</time>
</trkpt>
<trkpt lat="45.9443750" lon="9.5873710">
	<ele>1649.40</ele>
	<time>2023-10-07T07:44:40.000Z</time>
</trkpt>
<trkpt lat="45.9443780" lon="9.5873670">
	<ele>1649.40</ele>
	<time>2023-10-07T07:44:41.000Z</time>
</trkpt>
<trkpt lat="45.9443810" lon="9.5873570">
	<ele>1649.60</ele>
	<time>2023-10-07T07:44:42.000Z</time>
</trkpt>
<trkpt lat="45.9443840" lon="9.5873520">
	<ele>1649.80</ele>
	<time>2023-10-07T07:44:43.000Z</time>
</trkpt>
<trkpt lat="45.9443860" lon="9.5873460">
	<ele>1649.80</ele>
	<time>2023-10-07T07:44:44.000Z</time>
</trkpt>
<trkpt lat="45.9443910" lon="9.5873390">
	<ele>1650.00</ele>
	<time>2023-10-07T07:44:45.000Z</time>
</trkpt>
<trkpt lat="45.9443930" lon="9.5873310">
	<ele>1650.20</ele>
	<time>2023-10-07T07:44:46.000Z</time>
</trkpt>
<trkpt lat="45.9443950" lon="9.5873220">
	<ele>1650.40</ele>
	<time>2023-10-07T07:44:47.000Z</time>
</trkpt>
<trkpt lat="45.9443990" lon="9.5873140">
	<ele>1650.40</ele>
	<time>2023-10-07T07:44:48.000Z</time>
</trkpt>
<trkpt lat="45.9444010" lon="9.5873080">
	<ele>1650.60</ele>
	<time>2023-10-07T07:44:49.000Z</time>
</trkpt>
<trkpt lat="45.9444070" lon="9.5873010">
	<ele>1651.00</ele>
	<time>2023-10-07T07:44:50.000Z</time>
</trkpt>
<trkpt lat="45.9444110" lon="9.5872950">
	<ele>1651.20</ele>
	<time>2023-10-07T07:44:51.000Z</time>
</trkpt>
<trkpt lat="45.9444140" lon="9.5872880">
	<ele>1651.20</ele>
	<time>2023-10-07T07:44:52.000Z</time>
</trkpt>
<trkpt lat="45.9444140" lon="9.5872830">
	<ele>1651.40</ele>
	<time>2023-10-07T07:44:53.000Z</time>
</trkpt>
<trkpt lat="45.9444140" lon="9.5872750">
	<ele>1651.60</ele>
	<time>2023-10-07T07:44:54.000Z</time>
</trkpt>
<trkpt lat="45.9444170" lon="9.5872640">
	<ele>1651.60</ele>
	<time>2023-10-07T07:44:55.000Z</time>
</trkpt>
<trkpt lat="45.9444200" lon="9.5872600">
	<ele>1651.80</ele>
	<time>2023-10-07T07:44:56.000Z</time>
</trkpt>
<trkpt lat="45.9444230" lon="9.5872540">
	<ele>1652.00</ele>
	<time>2023-10-07T07:44:57.000Z</time>
</trkpt>
<trkpt lat="45.9444290" lon="9.5872500">
	<ele>1652.20</ele>
	<time>2023-10-07T07:44:58.000Z</time>
</trkpt>
<trkpt lat="45.9444320" lon="9.5872430">
	<ele>1652.40</ele>
	<time>2023-10-07T07:44:59.000Z</time>
</trkpt>
<trkpt lat="45.9444340" lon="9.5872400">
	<ele>1652.60</ele>
	<time>2023-10-07T07:45:00.000Z</time>
</trkpt>
<trkpt lat="45.9444360" lon="9.5872360">
	<ele>1652.60</ele>
	<time>2023-10-07T07:45:01.000Z</time>
</trkpt>
<trkpt lat="45.9444380" lon="9.5872280">
	<ele>1652.80</ele>
	<time>2023-10-07T07:45:02.000Z</time>
</trkpt>
<trkpt lat="45.9444380" lon="9.5872190">
	<ele>1653.00</ele>
	<time>2023-10-07T07:45:03.000Z</time>
</trkpt>
<trkpt lat="45.9444400" lon="9.5872120">
	<ele>1653.00</ele>
	<time>2023-10-07T07:45:04.000Z</time>
</trkpt>
<trkpt lat="45.9444420" lon="9.5872080">
	<ele>1653.20</ele>
	<time>2023-10-07T07:45:05.000Z</time>
</trkpt>
<trkpt lat="45.9444440" lon="9.5872010">
	<ele>1653.20</ele>
	<time>2023-10-07T07:45:06.000Z</time>
</trkpt>
<trkpt lat="45.9444460" lon="9.5871950">
	<ele>1653.40</ele>
	<time>2023-10-07T07:45:07.000Z</time>
</trkpt>
<trkpt lat="45.9444480" lon="9.5871910">
	<ele>1653.60</ele>
	<time>2023-10-07T07:45:08.000Z</time>
</trkpt>
<trkpt lat="45.9444470" lon="9.5871850">
	<ele>1653.80</ele>
	<time>2023-10-07T07:45:09.000Z</time>
</trkpt>
<trkpt lat="45.9444450" lon="9.5871790">
	<ele>1654.00</ele>
	<time>2023-10-07T07:45:10.000Z</time>
</trkpt>
<trkpt lat="45.9444460" lon="9.5871740">
	<ele>1654.20</ele>
	<time>2023-10-07T07:45:11.000Z</time>
</trkpt>
<trkpt lat="45.9444490" lon="9.5871690">
	<ele>1654.40</ele>
	<time>2023-10-07T07:45:12.000Z</time>
</trkpt>
<trkpt lat="45.9444510" lon="9.5871630">
	<ele>1654.40</ele>
	<time>2023-10-07T07:45:13.000Z</time>
</trkpt>
<trkpt lat="45.9444520" lon="9.5871600">
	<ele>1654.60</ele>
	<time>2023-10-07T07:45:14.000Z</time>
</trkpt>
<trkpt lat="45.9444550" lon="9.5871540">
	<ele>1654.60</ele>
	<time>2023-10-07T07:45:15.000Z</time>
</trkpt>
<trkpt lat="45.9444570" lon="9.5871510">
	<ele>1654.80</ele>
	<time>2023-10-07T07:45:16.000Z</time>
</trkpt>
<trkpt lat="45.9444590" lon="9.5871470">
	<ele>1655.00</ele>
	<time>2023-10-07T07:45:17.000Z</time>
</trkpt>
<trkpt lat="45.9444600" lon="9.5871460">
	<ele>1655.00</ele>
	<time>2023-10-07T07:45:18.000Z</time>
</trkpt>
<trkpt lat="45.9444620" lon="9.5871440">
	<ele>1655.20</ele>
	<time>2023-10-07T07:45:19.000Z</time>
</trkpt>
<trkpt lat="45.9444660" lon="9.5871390">
	<ele>1655.40</ele>
	<time>2023-10-07T07:45:20.000Z</time>
</trkpt>
<trkpt lat="45.9444720" lon="9.5871330">
	<ele>1655.40</ele>
	<time>2023-10-07T07:45:21.000Z</time>
</trkpt>
<trkpt lat="45.9444760" lon="9.5871330">
	<ele>1655.60</ele>
	<time>2023-10-07T07:45:22.000Z</time>
</trkpt>
<trkpt lat="45.9444800" lon="9.5871290">
	<ele>1655.80</ele>
	<time>2023-10-07T07:45:23.000Z</time>
</trkpt>
<trkpt lat="45.9444820" lon="9.5871240">
	<ele>1656.00</ele>
	<time>2023-10-07T07:45:24.000Z</time>
</trkpt>
<trkpt lat="45.9444860" lon="9.5871220">
	<ele>1656.00</ele>
	<time>2023-10-07T07:45:25.000Z</time>
</trkpt>
<trkpt lat="45.9444860" lon="9.5871220">
	<ele>1656.20</ele>
	<time>2023-10-07T07:45:26.000Z</time>
</trkpt>
<trkpt lat="45.9444920" lon="9.5871220">
	<ele>1656.40</ele>
	<time>2023-10-07T07:45:27.000Z</time>
</trkpt>
<trkpt lat="45.9444950" lon="9.5871190">
	<ele>1656.60</ele>
	<time>2023-10-07T07:45:28.000Z</time>
</trkpt>
<trkpt lat="45.9444960" lon="9.5871190">
	<ele>1656.80</ele>
	<time>2023-10-07T07:45:29.000Z</time>
</trkpt>
<trkpt lat="45.9444980" lon="9.5871150">
	<ele>1657.00</ele>
	<time>2023-10-07T07:45:30.000Z</time>
</trkpt>
<trkpt lat="45.9445030" lon="9.5871140">
	<ele>1657.00</ele>
	<time>2023-10-07T07:45:31.000Z</time>
</trkpt>
<trkpt lat="45.9445050" lon="9.5871100">
	<ele>1657.20</ele>
	<time>2023-10-07T07:45:32.000Z</time>
</trkpt>
<trkpt lat="45.9445080" lon="9.5871080">
	<ele>1657.40</ele>
	<time>2023-10-07T07:45:33.000Z</time>
</trkpt>
<trkpt lat="45.9445100" lon="9.5871030">
	<ele>1657.60</ele>
	<time>2023-10-07T07:45:34.000Z</time>
</trkpt>
<trkpt lat="45.9445130" lon="9.5870970">
	<ele>1657.60</ele>
	<time>2023-10-07T07:45:35.000Z</time>
</trkpt>
<trkpt lat="45.9445140" lon="9.5870930">
	<ele>1658.00</ele>
	<time>2023-10-07T07:45:36.000Z</time>
</trkpt>
<trkpt lat="45.9445130" lon="9.5870890">
	<ele>1658.20</ele>
	<time>2023-10-07T07:45:37.000Z</time>
</trkpt>
<trkpt lat="45.9445160" lon="9.5870830">
	<ele>1658.40</ele>
	<time>2023-10-07T07:45:38.000Z</time>
</trkpt>
<trkpt lat="45.9445170" lon="9.5870770">
	<ele>1658.60</ele>
	<time>2023-10-07T07:45:39.000Z</time>
</trkpt>
<trkpt lat="45.9445190" lon="9.5870730">
	<ele>1658.60</ele>
	<time>2023-10-07T07:45:40.000Z</time>
</trkpt>
<trkpt lat="45.9445220" lon="9.5870700">
	<ele>1658.80</ele>
	<time>2023-10-07T07:45:41.000Z</time>
</trkpt>
<trkpt lat="45.9445230" lon="9.5870670">
	<ele>1658.80</ele>
	<time>2023-10-07T07:45:42.000Z</time>
</trkpt>
<trkpt lat="45.9445250" lon="9.5870620">
	<ele>1659.00</ele>
	<time>2023-10-07T07:45:43.000Z</time>
</trkpt>
<trkpt lat="45.9445280" lon="9.5870630">
	<ele>1659.20</ele>
	<time>2023-10-07T07:45:44.000Z</time>
</trkpt>
<trkpt lat="45.9445310" lon="9.5870630">
	<ele>1659.40</ele>
	<time>2023-10-07T07:45:45.000Z</time>
</trkpt>
<trkpt lat="45.9445340" lon="9.5870620">
	<ele>1659.60</ele>
	<time>2023-10-07T07:45:46.000Z</time>
</trkpt>
<trkpt lat="45.9445380" lon="9.5870580">
	<ele>1659.60</ele>
	<time>2023-10-07T07:45:47.000Z</time>
</trkpt>
<trkpt lat="45.9445400" lon="9.5870530">
	<ele>1659.80</ele>
	<time>2023-10-07T07:45:48.000Z</time>
</trkpt>
<trkpt lat="45.9445410" lon="9.5870480">
	<ele>1660.00</ele>
	<time>2023-10-07T07:45:49.000Z</time>
</trkpt>
<trkpt lat="45.9445440" lon="9.5870420">
	<ele>1660.20</ele>
	<time>2023-10-07T07:45:50.000Z</time>
</trkpt>
<trkpt lat="45.9445470" lon="9.5870330">
	<ele>1660.40</ele>
	<time>2023-10-07T07:45:51.000Z</time>
</trkpt>
<trkpt lat="45.9445460" lon="9.5870290">
	<ele>1660.40</ele>
	<time>2023-10-07T07:45:52.000Z</time>
</trkpt>
<trkpt lat="45.9445480" lon="9.5870260">
	<ele>1660.60</ele>
	<time>2023-10-07T07:45:53.000Z</time>
</trkpt>
<trkpt lat="45.9445510" lon="9.5870220">
	<ele>1660.60</ele>
	<time>2023-10-07T07:45:54.000Z</time>
</trkpt>
<trkpt lat="45.9445540" lon="9.5870180">
	<ele>1660.60</ele>
	<time>2023-10-07T07:45:55.000Z</time>
</trkpt>
<trkpt lat="45.9445570" lon="9.5870140">
	<ele>1660.80</ele>
	<time>2023-10-07T07:45:56.000Z</time>
</trkpt>
<trkpt lat="45.9445590" lon="9.5870100">
	<ele>1661.00</ele>
	<time>2023-10-07T07:45:57.000Z</time>
</trkpt>
<trkpt lat="45.9445630" lon="9.5870030">
	<ele>1661.20</ele>
	<time>2023-10-07T07:45:58.000Z</time>
</trkpt>
<trkpt lat="45.9445650" lon="9.5869990">
	<ele>1661.60</ele>
	<time>2023-10-07T07:45:59.000Z</time>
</trkpt>
<trkpt lat="45.9445660" lon="9.5869960">
	<ele>1661.80</ele>
	<time>2023-10-07T07:46:00.000Z</time>
</trkpt>
<trkpt lat="45.9445640" lon="9.5869860">
	<ele>1661.80</ele>
	<time>2023-10-07T07:46:01.000Z</time>
</trkpt>
<trkpt lat="45.9445630" lon="9.5869790">
	<ele>1662.00</ele>
	<time>2023-10-07T07:46:02.000Z</time>
</trkpt>
<trkpt lat="45.9445620" lon="9.5869730">
	<ele>1662.00</ele>
	<time>2023-10-07T07:46:03.000Z</time>
</trkpt>
<trkpt lat="45.9445650" lon="9.5869700">
	<ele>1662.20</ele>
	<time>2023-10-07T07:46:04.000Z</time>
</trkpt>
<trkpt lat="45.9445670" lon="9.5869670">
	<ele>1662.40</ele>
	<time>2023-10-07T07:46:05.000Z</time>
</trkpt>
<trkpt lat="45.9445690" lon="9.5869620">
	<ele>1662.40</ele>
	<time>2023-10-07T07:46:06.000Z</time>
</trkpt>
<trkpt lat="45.9445730" lon="9.5869580">
	<ele>1662.60</ele>
	<time>2023-10-07T07:46:07.000Z</time>
</trkpt>
<trkpt lat="45.9445780" lon="9.5869530">
	<ele>1662.60</ele>
	<time>2023-10-07T07:46:08.000Z</time>
</trkpt>
<trkpt lat="45.9445830" lon="9.5869490">
	<ele>1662.80</ele>
	<time>2023-10-07T07:46:09.000Z</time>
</trkpt>
<trkpt lat="45.9445880" lon="9.5869440">
	<ele>1662.80</ele>
	<time>2023-10-07T07:46:10.000Z</time>
</trkpt>
<trkpt lat="45.9445900" lon="9.5869400">
	<ele>1663.00</ele>
	<time>2023-10-07T07:46:11.000Z</time>
</trkpt>
<trkpt lat="45.9445920" lon="9.5869370">
	<ele>1663.20</ele>
	<time>2023-10-07T07:46:12.000Z</time>
</trkpt>
<trkpt lat="45.9445960" lon="9.5869350">
	<ele>1663.20</ele>
	<time>2023-10-07T07:46:13.000Z</time>
</trkpt>
<trkpt lat="45.9446000" lon="9.5869300">
	<ele>1663.40</ele>
	<time>2023-10-07T07:46:14.000Z</time>
</trkpt>
<trkpt lat="45.9446030" lon="9.5869270">
	<ele>1663.80</ele>
	<time>2023-10-07T07:46:15.000Z</time>
</trkpt>
<trkpt lat="45.9446050" lon="9.5869260">
	<ele>1664.00</ele>
	<time>2023-10-07T07:46:16.000Z</time>
</trkpt>
<trkpt lat="45.9446080" lon="9.5869250">
	<ele>1664.20</ele>
	<time>2023-10-07T07:46:17.000Z</time>
</trkpt>
<trkpt lat="45.9446100" lon="9.5869220">
	<ele>1664.20</ele>
	<time>2023-10-07T07:46:18.000Z</time>
</trkpt>
<trkpt lat="45.9446150" lon="9.5869180">
	<ele>1664.40</ele>
	<time>2023-10-07T07:46:19.000Z</time>
</trkpt>
<trkpt lat="45.9446180" lon="9.5869150">
	<ele>1664.80</ele>
	<time>2023-10-07T07:46:20.000Z</time>
</trkpt>
<trkpt lat="45.9446210" lon="9.5869120">
	<ele>1665.00</ele>
	<time>2023-10-07T07:46:21.000Z</time>
</trkpt>
<trkpt lat="45.9446240" lon="9.5869080">
	<ele>1665.20</ele>
	<time>2023-10-07T07:46:22.000Z</time>
</trkpt>
<trkpt lat="45.9446270" lon="9.5869040">
	<ele>1665.40</ele>
	<time>2023-10-07T07:46:23.000Z</time>
</trkpt>
<trkpt lat="45.9446280" lon="9.5869020">
	<ele>1665.40</ele>
	<time>2023-10-07T07:46:24.000Z</time>
</trkpt>
<trkpt lat="45.9446300" lon="9.5868980">
	<ele>1665.60</ele>
	<time>2023-10-07T07:46:25.000Z</time>
</trkpt>
<trkpt lat="45.9446310" lon="9.5868950">
	<ele>1665.60</ele>
	<time>2023-10-07T07:46:26.000Z</time>
</trkpt>
<trkpt lat="45.9446300" lon="9.5868930">
	<ele>1665.60</ele>
	<time>2023-10-07T07:46:27.000Z</time>
</trkpt>
<trkpt lat="45.9446330" lon="9.5868890">
	<ele>1665.60</ele>
	<time>2023-10-07T07:46:28.000Z</time>
</trkpt>
<trkpt lat="45.9446370" lon="9.5868840">
	<ele>1665.80</ele>
	<time>2023-10-07T07:46:29.000Z</time>
</trkpt>
<trkpt lat="45.9446410" lon="9.5868770">
	<ele>1665.80</ele>
	<time>2023-10-07T07:46:30.000Z</time>
</trkpt>
<trkpt lat="45.9446430" lon="9.5868740">
	<ele>1666.00</ele>
	<time>2023-10-07T07:46:31.000Z</time>
</trkpt>
<trkpt lat="45.9446460" lon="9.5868710">
	<ele>1666.20</ele>
	<time>2023-10-07T07:46:32.000Z</time>
</trkpt>
<trkpt lat="45.9446500" lon="9.5868670">
	<ele>1666.40</ele>
	<time>2023-10-07T07:46:33.000Z</time>
</trkpt>
<trkpt lat="45.9446530" lon="9.5868610">
	<ele>1666.40</ele>
	<time>2023-10-07T07:46:34.000Z</time>
</trkpt>
<trkpt lat="45.9446570" lon="9.5868580">
	<ele>1666.60</ele>
	<time>2023-10-07T07:46:35.000Z</time>
</trkpt>
<trkpt lat="45.9446590" lon="9.5868570">
	<ele>1666.80</ele>
	<time>2023-10-07T07:46:36.000Z</time>
</trkpt>
<trkpt lat="45.9446610" lon="9.5868540">
	<ele>1667.00</ele>
	<time>2023-10-07T07:46:37.000Z</time>
</trkpt>
<trkpt lat="45.9446650" lon="9.5868490">
	<ele>1667.20</ele>
	<time>2023-10-07T07:46:38.000Z</time>
</trkpt>
<trkpt lat="45.9446700" lon="9.5868440">
	<ele>1667.40</ele>
	<time>2023-10-07T07:46:39.000Z</time>
</trkpt>
<trkpt lat="45.9446730" lon="9.5868420">
	<ele>1667.60</ele>
	<time>2023-10-07T07:46:40.000Z</time>
</trkpt>
<trkpt lat="45.9446740" lon="9.5868370">
	<ele>1667.60</ele>
	<time>2023-10-07T07:46:41.000Z</time>
</trkpt>
<trkpt lat="45.9446770" lon="9.5868290">
	<ele>1667.80</ele>
	<time>2023-10-07T07:46:42.000Z</time>
</trkpt>
<trkpt lat="45.9446790" lon="9.5868190">
	<ele>1667.80</ele>
	<time>2023-10-07T07:46:43.000Z</time>
</trkpt>
<trkpt lat="45.9446820" lon="9.5868090">
	<ele>1668.00</ele>
	<time>2023-10-07T07:46:44.000Z</time>
</trkpt>
<trkpt lat="45.9446830" lon="9.5867970">
	<ele>1668.40</ele>
	<time>2023-10-07T07:46:45.000Z</time>
</trkpt>
<trkpt lat="45.9446850" lon="9.5867860">
	<ele>1668.40</ele>
	<time>2023-10-07T07:46:46.000Z</time>
</trkpt>
<trkpt lat="45.9446880" lon="9.5867790">
	<ele>1668.60</ele>
	<time>2023-10-07T07:46:47.000Z</time>
</trkpt>
<trkpt lat="45.9446910" lon="9.5867740">
	<ele>1668.60</ele>
	<time>2023-10-07T07:46:48.000Z</time>
</trkpt>
<trkpt lat="45.9446930" lon="9.5867650">
	<ele>1668.60</ele>
	<time>2023-10-07T07:46:49.000Z</time>
</trkpt>
<trkpt lat="45.9446950" lon="9.5867550">
	<ele>1668.80</ele>
	<time>2023-10-07T07:46:50.000Z</time>
</trkpt>
<trkpt lat="45.9446970" lon="9.5867460">
	<ele>1668.80</ele>
	<time>2023-10-07T07:46:51.000Z</time>
</trkpt>
<trkpt lat="45.9446990" lon="9.5867420">
	<ele>1668.80</ele>
	<time>2023-10-07T07:46:52.000Z</time>
</trkpt>
<trkpt lat="45.9447030" lon="9.5867380">
	<ele>1669.00</ele>
	<time>2023-10-07T07:46:53.000Z</time>
</trkpt>
<trkpt lat="45.9447100" lon="9.5867320">
	<ele>1669.00</ele>
	<time>2023-10-07T07:46:54.000Z</time>
</trkpt>
<trkpt lat="45.9447150" lon="9.5867280">
	<ele>1669.20</ele>
	<time>2023-10-07T07:46:55.000Z</time>
</trkpt>
<trkpt lat="45.9447170" lon="9.5867210">
	<ele>1669.40</ele>
	<time>2023-10-07T07:46:56.000Z</time>
</trkpt>
<trkpt lat="45.9447200" lon="9.5867140">
	<ele>1669.40</ele>
	<time>2023-10-07T07:46:57.000Z</time>
</trkpt>
<trkpt lat="45.9447220" lon="9.5867050">
	<ele>1669.60</ele>
	<time>2023-10-07T07:46:58.000Z</time>
</trkpt>
<trkpt lat="45.9447230" lon="9.5866970">
	<ele>1669.60</ele>
	<time>2023-10-07T07:46:59.000Z</time>
</trkpt>
<trkpt lat="45.9447280" lon="9.5866910">
	<ele>1670.00</ele>
	<time>2023-10-07T07:47:00.000Z</time>
</trkpt>
<trkpt lat="45.9447310" lon="9.5866800">
	<ele>1670.00</ele>
	<time>2023-10-07T07:47:01.000Z</time>
</trkpt>
<trkpt lat="45.9447320" lon="9.5866690">
	<ele>1670.20</ele>
	<time>2023-10-07T07:47:02.000Z</time>
</trkpt>
<trkpt lat="45.9447340" lon="9.5866560">
	<ele>1670.40</ele>
	<time>2023-10-07T07:47:03.000Z</time>
</trkpt>
<trkpt lat="45.9447330" lon="9.5866470">
	<ele>1670.60</ele>
	<time>2023-10-07T07:47:04.000Z</time>
</trkpt>
<trkpt lat="45.9447340" lon="9.5866400">
	<ele>1670.60</ele>
	<time>2023-10-07T07:47:05.000Z</time>
</trkpt>
<trkpt lat="45.9447340" lon="9.5866350">
	<ele>1670.60</ele>
	<time>2023-10-07T07:47:06.000Z</time>
</trkpt>
<trkpt lat="45.9447370" lon="9.5866230">
	<ele>1670.80</ele>
	<time>2023-10-07T07:47:07.000Z</time>
</trkpt>
<trkpt lat="45.9447390" lon="9.5866150">
	<ele>1670.80</ele>
	<time>2023-10-07T07:47:08.000Z</time>
</trkpt>
<trkpt lat="45.9447400" lon="9.5866090">
	<ele>1670.80</ele>
	<time>2023-10-07T07:47:09.000Z</time>
</trkpt>
<trkpt lat="45.9447420" lon="9.5866000">
	<ele>1671.00</ele>
	<time>2023-10-07T07:47:10.000Z</time>
</trkpt>
<trkpt lat="45.9447420" lon="9.5865900">
	<ele>1671.00</ele>
	<time>2023-10-07T07:47:11.000Z</time>
</trkpt>
<trkpt lat="45.9447430" lon="9.5865850">
	<ele>1671.20</ele>
	<time>2023-10-07T07:47:12.000Z</time>
</trkpt>
<trkpt lat="45.9447470" lon="9.5865810">
	<ele>1671.20</ele>
	<time>2023-10-07T07:47:13.000Z</time>
</trkpt>
<trkpt lat="45.9447480" lon="9.5865720">
	<ele>1671.40</ele>
	<time>2023-10-07T07:47:14.000Z</time>
</trkpt>
<trkpt lat="45.9447490" lon="9.5865650">
	<ele>1671.60</ele>
	<time>2023-10-07T07:47:15.000Z</time>
</trkpt>
<trkpt lat="45.9447520" lon="9.5865590">
	<ele>1671.60</ele>
	<time>2023-10-07T07:47:16.000Z</time>
</trkpt>
<trkpt lat="45.9447540" lon="9.5865530">
	<ele>1671.80</ele>
	<time>2023-10-07T07:47:17.000Z</time>
</trkpt>
<trkpt lat="45.9447560" lon="9.5865510">
	<ele>1672.00</ele>
	<time>2023-10-07T07:47:18.000Z</time>
</trkpt>
<trkpt lat="45.9447590" lon="9.5865460">
	<ele>1672.20</ele>
	<time>2023-10-07T07:47:19.000Z</time>
</trkpt>
<trkpt lat="45.9447590" lon="9.5865400">
	<ele>1672.20</ele>
	<time>2023-10-07T07:47:20.000Z</time>
</trkpt>
<trkpt lat="45.9447610" lon="9.5865360">
	<ele>1672.60</ele>
	<time>2023-10-07T07:47:21.000Z</time>
</trkpt>
<trkpt lat="45.9447640" lon="9.5865290">
	<ele>1672.80</ele>
	<time>2023-10-07T07:47:22.000Z</time>
</trkpt>
<trkpt lat="45.9447660" lon="9.5865220">
	<ele>1672.80</ele>
	<time>2023-10-07T07:47:23.000Z</time>
</trkpt>
<trkpt lat="45.9447670" lon="9.5865150">
	<ele>1673.00</ele>
	<time>2023-10-07T07:47:24.000Z</time>
</trkpt>
<trkpt lat="45.9447690" lon="9.5865100">
	<ele>1673.20</ele>
	<time>2023-10-07T07:47:25.000Z</time>
</trkpt>
<trkpt lat="45.9447740" lon="9.5865030">
	<ele>1673.40</ele>
	<time>2023-10-07T07:47:26.000Z</time>
</trkpt>
<trkpt lat="45.9447780" lon="9.5864970">
	<ele>1673.40</ele>
	<time>2023-10-07T07:47:27.000Z</time>
</trkpt>
<trkpt lat="45.9447800" lon="9.5864900">
	<ele>1673.40</ele>
	<time>2023-10-07T07:47:28.000Z</time>
</trkpt>
<trkpt lat="45.9447820" lon="9.5864860">
	<ele>1673.80</ele>
	<time>2023-10-07T07:47:29.000Z</time>
</trkpt>
<trkpt lat="45.9447840" lon="9.5864780">
	<ele>1674.00</ele>
	<time>2023-10-07T07:47:30.000Z</time>
</trkpt>
<trkpt lat="45.9447870" lon="9.5864720">
	<ele>1674.00</ele>
	<time>2023-10-07T07:47:31.000Z</time>
</trkpt>
<trkpt lat="45.9447890" lon="9.5864640">
	<ele>1674.20</ele>
	<time>2023-10-07T07:47:32.000Z</time>
</trkpt>
<trkpt lat="45.9447880" lon="9.5864530">
	<ele>1674.40</ele>
	<time>2023-10-07T07:47:33.000Z</time>
</trkpt>
<trkpt lat="45.9447860" lon="9.5864430">
	<ele>1674.40</ele>
	<time>2023-10-07T07:47:34.000Z</time>
</trkpt>
<trkpt lat="45.9447830" lon="9.5864300">
	<ele>1674.60</ele>
	<time>2023-10-07T07:47:35.000Z</time>
</trkpt>
<trkpt lat="45.9447840" lon="9.5864240">
	<ele>1674.60</ele>
	<time>2023-10-07T07:47:36.000Z</time>
</trkpt>
<trkpt lat="45.9447850" lon="9.5864200">
	<ele>1674.80</ele>
	<time>2023-10-07T07:47:37.000Z</time>
</trkpt>
<trkpt lat="45.9447840" lon="9.5864090">
	<ele>1675.00</ele>
	<time>2023-10-07T07:47:38.000Z</time>
</trkpt>
<trkpt lat="45.9447880" lon="9.5864040">
	<ele>1675.00</ele>
	<time>2023-10-07T07:47:39.000Z</time>
</trkpt>
<trkpt lat="45.9447890" lon="9.5863970">
	<ele>1675.20</ele>
	<time>2023-10-07T07:47:40.000Z</time>
</trkpt>
<trkpt lat="45.9447900" lon="9.5863880">
	<ele>1675.20</ele>
	<time>2023-10-07T07:47:41.000Z</time>
</trkpt>
<trkpt lat="45.9447900" lon="9.5863720">
	<ele>1675.20</ele>
	<time>2023-10-07T07:47:42.000Z</time>
</trkpt>
<trkpt lat="45.9447940" lon="9.5863630">
	<ele>1675.40</ele>
	<time>2023-10-07T07:47:43.000Z</time>
</trkpt>
<trkpt lat="45.9447960" lon="9.5863580">
	<ele>1675.40</ele>
	<time>2023-10-07T07:47:44.000Z</time>
</trkpt>
<trkpt lat="45.9448000" lon="9.5863560">
	<ele>1675.60</ele>
	<time>2023-10-07T07:47:45.000Z</time>
</trkpt>
<trkpt lat="45.9448020" lon="9.5863510">
	<ele>1675.60</ele>
	<time>2023-10-07T07:47:46.000Z</time>
</trkpt>
<trkpt lat="45.9448050" lon="9.5863440">
	<ele>1675.80</ele>
	<time>2023-10-07T07:47:47.000Z</time>
</trkpt>
<trkpt lat="45.9448080" lon="9.5863370">
	<ele>1676.00</ele>
	<time>2023-10-07T07:47:48.000Z</time>
</trkpt>
<trkpt lat="45.9448090" lon="9.5863290">
	<ele>1676.20</ele>
	<time>2023-10-07T07:47:49.000Z</time>
</trkpt>
<trkpt lat="45.9448100" lon="9.5863180">
	<ele>1676.40</ele>
	<time>2023-10-07T07:47:50.000Z</time>
</trkpt>
<trkpt lat="45.9448130" lon="9.5863120">
	<ele>1676.60</ele>
	<time>2023-10-07T07:47:51.000Z</time>
</trkpt>
<trkpt lat="45.9448150" lon="9.5863050">
	<ele>1676.60</ele>
	<time>2023-10-07T07:47:52.000Z</time>
</trkpt>
<trkpt lat="45.9448180" lon="9.5862950">
	<ele>1676.80</ele>
	<time>2023-10-07T07:47:53.000Z</time>
</trkpt>
<trkpt lat="45.9448200" lon="9.5862870">
	<ele>1676.80</ele>
	<time>2023-10-07T07:47:54.000Z</time>
</trkpt>
<trkpt lat="45.9448190" lon="9.5862760">
	<ele>1677.00</ele>
	<time>2023-10-07T07:47:55.000Z</time>
</trkpt>
<trkpt lat="45.9448220" lon="9.5862670">
	<ele>1677.20</ele>
	<time>2023-10-07T07:47:56.000Z</time>
</trkpt>
<trkpt lat="45.9448250" lon="9.5862630">
	<ele>1677.20</ele>
	<time>2023-10-07T07:47:57.000Z</time>
</trkpt>
<trkpt lat="45.9448260" lon="9.5862580">
	<ele>1677.20</ele>
	<time>2023-10-07T07:47:58.000Z</time>
</trkpt>
<trkpt lat="45.9448270" lon="9.5862530">
	<ele>1677.40</ele>
	<time>2023-10-07T07:47:59.000Z</time>
</trkpt>
<trkpt lat="45.9448300" lon="9.5862430">
	<ele>1677.40</ele>
	<time>2023-10-07T07:48:00.000Z</time>
</trkpt>
<trkpt lat="45.9448340" lon="9.5862380">
	<ele>1677.60</ele>
	<time>2023-10-07T07:48:01.000Z</time>
</trkpt>
<trkpt lat="45.9448360" lon="9.5862330">
	<ele>1677.80</ele>
	<time>2023-10-07T07:48:02.000Z</time>
</trkpt>
<trkpt lat="45.9448390" lon="9.5862260">
	<ele>1677.80</ele>
	<time>2023-10-07T07:48:03.000Z</time>
</trkpt>
<trkpt lat="45.9448390" lon="9.5862150">
	<ele>1678.00</ele>
	<time>2023-10-07T07:48:04.000Z</time>
</trkpt>
<trkpt lat="45.9448410" lon="9.5862100">
	<ele>1678.00</ele>
	<time>2023-10-07T07:48:05.000Z</time>
</trkpt>
<trkpt lat="45.9448430" lon="9.5862040">
	<ele>1678.20</ele>
	<time>2023-10-07T07:48:06.000Z</time>
</trkpt>
<trkpt lat="45.9448460" lon="9.5862000">
	<ele>1678.40</ele>
	<time>2023-10-07T07:48:07.000Z</time>
</trkpt>
<trkpt lat="45.9448490" lon="9.5861940">
	<ele>1678.60</ele>
	<time>2023-10-07T07:48:08.000Z</time>
</trkpt>
<trkpt lat="45.9448510" lon="9.5861880">
	<ele>1678.80</ele>
	<time>2023-10-07T07:48:09.000Z</time>
</trkpt>
<trkpt lat="45.9448540" lon="9.5861830">
	<ele>1679.00</ele>
	<time>2023-10-07T07:48:10.000Z</time>
</trkpt>
<trkpt lat="45.9448560" lon="9.5861750">
	<ele>1679.20</ele>
	<time>2023-10-07T07:48:11.000Z</time>
</trkpt>
<trkpt lat="45.9448590" lon="9.5861680">
	<ele>1679.20</ele>
	<time>2023-10-07T07:48:12.000Z</time>
</trkpt>
<trkpt lat="45.9448630" lon="9.5861640">
	<ele>1679.40</ele>
	<time>2023-10-07T07:48:13.000Z</time>
</trkpt>
<trkpt lat="45.9448650" lon="9.5861600">
	<ele>1679.60</ele>
	<time>2023-10-07T07:48:14.000Z</time>
</trkpt>
<trkpt lat="45.9448660" lon="9.5861520">
	<ele>1679.80</ele>
	<time>2023-10-07T07:48:15.000Z</time>
</trkpt>
<trkpt lat="45.9448690" lon="9.5861440">
	<ele>1679.80</ele>
	<time>2023-10-07T07:48:16.000Z</time>
</trkpt>
<trkpt lat="45.9448720" lon="9.5861390">
	<ele>1680.00</ele>
	<time>2023-10-07T07:48:17.000Z</time>
</trkpt>
<trkpt lat="45.9448740" lon="9.5861360">
	<ele>1680.20</ele>
	<time>2023-10-07T07:48:18.000Z</time>
</trkpt>
<trkpt lat="45.9448760" lon="9.5861310">
	<ele>1680.40</ele>
	<time>2023-10-07T07:48:19.000Z</time>
</trkpt>
<trkpt lat="45.9448780" lon="9.5861270">
	<ele>1680.60</ele>
	<time>2023-10-07T07:48:20.000Z</time>
</trkpt>
<trkpt lat="45.9448790" lon="9.5861230">
	<ele>1680.60</ele>
	<time>2023-10-07T07:48:21.000Z</time>
</trkpt>
<trkpt lat="45.9448790" lon="9.5861210">
	<ele>1680.60</ele>
	<time>2023-10-07T07:48:22.000Z</time>
</trkpt>
<trkpt lat="45.9448800" lon="9.5861160">
	<ele>1680.80</ele>
	<time>2023-10-07T07:48:23.000Z</time>
</trkpt>
<trkpt lat="45.9448830" lon="9.5861090">
	<ele>1680.80</ele>
	<time>2023-10-07T07:48:24.000Z</time>
</trkpt>
<trkpt lat="45.9448860" lon="9.5861040">
	<ele>1681.00</ele>
	<time>2023-10-07T07:48:25.000Z</time>
</trkpt>
<trkpt lat="45.9448890" lon="9.5861020">
	<ele>1681.20</ele>
	<time>2023-10-07T07:48:26.000Z</time>
</trkpt>
<trkpt lat="45.9448910" lon="9.5860970">
	<ele>1681.20</ele>
	<time>2023-10-07T07:48:27.000Z</time>
</trkpt>
<trkpt lat="45.9448930" lon="9.5860930">
	<ele>1681.40</ele>
	<time>2023-10-07T07:48:28.000Z</time>
</trkpt>
<trkpt lat="45.9448950" lon="9.5860870">
	<ele>1681.60</ele>
	<time>2023-10-07T07:48:29.000Z</time>
</trkpt>
<trkpt lat="45.9448980" lon="9.5860820">
	<ele>1681.80</ele>
	<time>2023-10-07T07:48:30.000Z</time>
</trkpt>
<trkpt lat="45.9449010" lon="9.5860780">
	<ele>1682.00</ele>
	<time>2023-10-07T07:48:31.000Z</time>
</trkpt>
<trkpt lat="45.9449030" lon="9.5860770">
	<ele>1682.00</ele>
	<time>2023-10-07T07:48:32.000Z</time>
</trkpt>
<trkpt lat="45.9449080" lon="9.5860730">
	<ele>1682.20</ele>
	<time>2023-10-07T07:48:33.000Z</time>
</trkpt>
<trkpt lat="45.9449120" lon="9.5860710">
	<ele>1682.40</ele>
	<time>2023-10-07T07:48:34.000Z</time>
</trkpt>
<trkpt lat="45.9449140" lon="9.5860660">
	<ele>1682.60</ele>
	<time>2023-10-07T07:48:35.000Z</time>
</trkpt>
<trkpt lat="45.9449170" lon="9.5860640">
	<ele>1682.60</ele>
	<time>2023-10-07T07:48:36.000Z</time>
</trkpt>
<trkpt lat="45.9449180" lon="9.5860590">
	<ele>1682.80</ele>
	<time>2023-10-07T07:48:37.000Z</time>
</trkpt>
<trkpt lat="45.9449210" lon="9.5860560">
	<ele>1682.80</ele>
	<time>2023-10-07T07:48:38.000Z</time>
</trkpt>
<trkpt lat="45.9449230" lon="9.5860480">
	<ele>1683.00</ele>
	<time>2023-10-07T07:48:39.000Z</time>
</trkpt>
<trkpt lat="45.9449260" lon="9.5860460">
	<ele>1683.00</ele>
	<time>2023-10-07T07:48:40.000Z</time>
</trkpt>
<trkpt lat="45.9449280" lon="9.5860420">
	<ele>1683.20</ele>
	<time>2023-10-07T07:48:41.000Z</time>
</trkpt>
<trkpt lat="45.9449320" lon="9.5860370">
	<ele>1683.40</ele>
	<time>2023-10-07T07:48:42.000Z</time>
</trkpt>
<trkpt lat="45.9449360" lon="9.5860330">
	<ele>1683.40</ele>
	<time>2023-10-07T07:48:43.000Z</time>
</trkpt>
<trkpt lat="45.9449390" lon="9.5860290">
	<ele>1683.60</ele>
	<time>2023-10-07T07:48:44.000Z</time>
</trkpt>
<trkpt lat="45.9449410" lon="9.5860260">
	<ele>1683.80</ele>
	<time>2023-10-07T07:48:45.000Z</time>
</trkpt>
<trkpt lat="45.9449440" lon="9.5860260">
	<ele>1684.20</ele>
	<time>2023-10-07T07:48:46.000Z</time>
</trkpt>
<trkpt lat="45.9449490" lon="9.5860220">
	<ele>1684.20</ele>
	<time>2023-10-07T07:48:47.000Z</time>
</trkpt>
<trkpt lat="45.9449520" lon="9.5860170">
	<ele>1684.40</ele>
	<time>2023-10-07T07:48:48.000Z</time>
</trkpt>
<trkpt lat="45.9449560" lon="9.5860150">
	<ele>1684.60</ele>
	<time>2023-10-07T07:48:49.000Z</time>
</trkpt>
<trkpt lat="45.9449580" lon="9.5860140">
	<ele>1684.80</ele>
	<time>2023-10-07T07:48:50.000Z</time>
</trkpt>
<trkpt lat="45.9449610" lon="9.5860100">
	<ele>1685.00</ele>
	<time>2023-10-07T07:48:51.000Z</time>
</trkpt>
<trkpt lat="45.9449640" lon="9.5860080">
	<ele>1685.20</ele>
	<time>2023-10-07T07:48:52.000Z</time>
</trkpt>
<trkpt lat="45.9449660" lon="9.5860050">
	<ele>1685.60</ele>
	<time>2023-10-07T07:48:53.000Z</time>
</trkpt>
<trkpt lat="45.9449670" lon="9.5860030">
	<ele>1685.80</ele>
	<time>2023-10-07T07:48:54.000Z</time>
</trkpt>
<trkpt lat="45.9449680" lon="9.5859980">
	<ele>1686.00</ele>
	<time>2023-10-07T07:48:55.000Z</time>
</trkpt>
<trkpt lat="45.9449700" lon="9.5859930">
	<ele>1686.00</ele>
	<time>2023-10-07T07:48:56.000Z</time>
</trkpt>
<trkpt lat="45.9449720" lon="9.5859880">
	<ele>1686.20</ele>
	<time>2023-10-07T07:48:57.000Z</time>
</trkpt>
<trkpt lat="45.9449740" lon="9.5859830">
	<ele>1686.40</ele>
	<time>2023-10-07T07:48:58.000Z</time>
</trkpt>
<trkpt lat="45.9449760" lon="9.5859790">
	<ele>1686.60</ele>
	<time>2023-10-07T07:48:59.000Z</time>
</trkpt>
<trkpt lat="45.9449760" lon="9.5859760">
	<ele>1686.60</ele>
	<time>2023-10-07T07:49:00.000Z</time>
</trkpt>
<trkpt lat="45.9449770" lon="9.5859720">
	<ele>1686.80</ele>
	<time>2023-10-07T07:49:01.000Z</time>
</trkpt>
<trkpt lat="45.9449790" lon="9.5859660">
	<ele>1687.00</ele>
	<time>2023-10-07T07:49:02.000Z</time>
</trkpt>
<trkpt lat="45.9449800" lon="9.5859590">
	<ele>1687.20</ele>
	<time>2023-10-07T07:49:03.000Z</time>
</trkpt>
<trkpt lat="45.9449770" lon="9.5859520">
	<ele>1687.20</ele>
	<time>2023-10-07T07:49:04.000Z</time>
</trkpt>
<trkpt lat="45.9449780" lon="9.5859460">
	<ele>1687.40</ele>
	<time>2023-10-07T07:49:05.000Z</time>
</trkpt>
<trkpt lat="45.9449810" lon="9.5859360">
	<ele>1687.40</ele>
	<time>2023-10-07T07:49:06.000Z</time>
</trkpt>
<trkpt lat="45.9449830" lon="9.5859310">
	<ele>1687.60</ele>
	<time>2023-10-07T07:49:07.000Z</time>
</trkpt>
<trkpt lat="45.9449810" lon="9.5859200">
	<ele>1687.80</ele>
	<time>2023-10-07T07:49:08.000Z</time>
</trkpt>
<trkpt lat="45.9449830" lon="9.5859110">
	<ele>1688.00</ele>
	<time>2023-10-07T07:49:09.000Z</time>
</trkpt>
<trkpt lat="45.9449840" lon="9.5859040">
	<ele>1688.20</ele>
	<time>2023-10-07T07:49:10.000Z</time>
</trkpt>
<trkpt lat="45.9449870" lon="9.5858990">
	<ele>1688.40</ele>
	<time>2023-10-07T07:49:11.000Z</time>
</trkpt>
<trkpt lat="45.9449910" lon="9.5858910">
	<ele>1688.60</ele>
	<time>2023-10-07T07:49:12.000Z</time>
</trkpt>
<trkpt lat="45.9449930" lon="9.5858840">
	<ele>1688.80</ele>
	<time>2023-10-07T07:49:13.000Z</time>
</trkpt>
<trkpt lat="45.9449930" lon="9.5858790">
	<ele>1689.00</ele>
	<time>2023-10-07T07:49:14.000Z</time>
</trkpt>
<trkpt lat="45.9449950" lon="9.5858740">
	<ele>1689.00</ele>
	<time>2023-10-07T07:49:15.000Z</time>
</trkpt>
<trkpt lat="45.9449960" lon="9.5858650">
	<ele>1689.00</ele>
	<time>2023-10-07T07:49:16.000Z</time>
</trkpt>
<trkpt lat="45.9449980" lon="9.5858580">
	<ele>1689.20</ele>
	<time>2023-10-07T07:49:17.000Z</time>
</trkpt>
<trkpt lat="45.9450010" lon="9.5858530">
	<ele>1689.20</ele>
	<time>2023-10-07T07:49:18.000Z</time>
</trkpt>
<trkpt lat="45.9450020" lon="9.5858480">
	<ele>1689.40</ele>
	<time>2023-10-07T07:49:19.000Z</time>
</trkpt>
<trkpt lat="45.9450050" lon="9.5858390">
	<ele>1689.60</ele>
	<time>2023-10-07T07:49:20.000Z</time>
</trkpt>
<trkpt lat="45.9450080" lon="9.5858280">
	<ele>1689.80</ele>
	<time>2023-10-07T07:49:21.000Z</time>
</trkpt>
<trkpt lat="45.9450080" lon="9.5858190">
	<ele>1689.80</ele>
	<time>2023-10-07T07:49:22.000Z</time>
</trkpt>
<trkpt lat="45.9450090" lon="9.5858090">
	<ele>1690.00</ele>
	<time>2023-10-07T07:49:23.000Z</time>
</trkpt>
<trkpt lat="45.9450130" lon="9.5857990">
	<ele>1690.20</ele>
	<time>2023-10-07T07:49:24.000Z</time>
</trkpt>
<trkpt lat="45.9450150" lon="9.5857890">
	<ele>1690.20</ele>
	<time>2023-10-07T07:49:25.000Z</time>
</trkpt>
<trkpt lat="45.9450180" lon="9.5857830">
	<ele>1690.40</ele>
	<time>2023-10-07T07:49:26.000Z</time>
</trkpt>
<trkpt lat="45.9450220" lon="9.5857740">
	<ele>1690.40</ele>
	<time>2023-10-07T07:49:27.000Z</time>
</trkpt>
<trkpt lat="45.9450260" lon="9.5857650">
	<ele>1690.40</ele>
	<time>2023-10-07T07:49:28.000Z</time>
</trkpt>
<trkpt lat="45.9450300" lon="9.5857580">
	<ele>1690.60</ele>
	<time>2023-10-07T07:49:29.000Z</time>
</trkpt>
<trkpt lat="45.9450320" lon="9.5857510">
	<ele>1690.60</ele>
	<time>2023-10-07T07:49:30.000Z</time>
</trkpt>
<trkpt lat="45.9450350" lon="9.5857410">
	<ele>1690.80</ele>
	<time>2023-10-07T07:49:31.000Z</time>
</trkpt>
<trkpt lat="45.9450350" lon="9.5857300">
	<ele>1690.80</ele>
	<time>2023-10-07T07:49:32.000Z</time>
</trkpt>
<trkpt lat="45.9450360" lon="9.5857240">
	<ele>1691.00</ele>
	<time>2023-10-07T07:49:33.000Z</time>
</trkpt>
<trkpt lat="45.9450380" lon="9.5857170">
	<ele>1691.20</ele>
	<time>2023-10-07T07:49:34.000Z</time>
</trkpt>
<trkpt lat="45.9450380" lon="9.5857120">
	<ele>1691.20</ele>
	<time>2023-10-07T07:49:35.000Z</time>
</trkpt>
<trkpt lat="45.9450370" lon="9.5857030">
	<ele>1691.60</ele>
	<time>2023-10-07T07:49:36.000Z</time>
</trkpt>
<trkpt lat="45.9450360" lon="9.5856930">
	<ele>1691.60</ele>
	<time>2023-10-07T07:49:37.000Z</time>
</trkpt>
<trkpt lat="45.9450320" lon="9.5856840">
	<ele>1691.80</ele>
	<time>2023-10-07T07:49:38.000Z</time>
</trkpt>
<trkpt lat="45.9450310" lon="9.5856760">
	<ele>1692.00</ele>
	<time>2023-10-07T07:49:39.000Z</time>
</trkpt>
<trkpt lat="45.9450290" lon="9.5856650">
	<ele>1692.00</ele>
	<time>2023-10-07T07:49:40.000Z</time>
</trkpt>
<trkpt lat="45.9450300" lon="9.5856550">
	<ele>1692.20</ele>
	<time>2023-10-07T07:49:41.000Z</time>
</trkpt>
<trkpt lat="45.9450300" lon="9.5856430">
	<ele>1692.20</ele>
	<time>2023-10-07T07:49:42.000Z</time>
</trkpt>
<trkpt lat="45.9450290" lon="9.5856330">
	<ele>1692.40</ele>
	<time>2023-10-07T07:49:43.000Z</time>
</trkpt>
<trkpt lat="45.9450310" lon="9.5856250">
	<ele>1692.40</ele>
	<time>2023-10-07T07:49:44.000Z</time>
</trkpt>
<trkpt lat="45.9450360" lon="9.5856170">
	<ele>1692.60</ele>
	<time>2023-10-07T07:49:45.000Z</time>
</trkpt>
<trkpt lat="45.9450400" lon="9.5856100">
	<ele>1692.80</ele>
	<time>2023-10-07T07:49:46.000Z</time>
</trkpt>
<trkpt lat="45.9450410" lon="9.5856070">
	<ele>1693.00</ele>
	<time>2023-10-07T07:49:47.000Z</time>
</trkpt>
<trkpt lat="45.9450430" lon="9.5856020">
	<ele>1693.20</ele>
	<time>2023-10-07T07:49:48.000Z</time>
</trkpt>
<trkpt lat="45.9450460" lon="9.5855940">
	<ele>1693.40</ele>
	<time>2023-10-07T07:49:49.000Z</time>
</trkpt>
<trkpt lat="45.9450460" lon="9.5855880">
	<ele>1693.60</ele>
	<time>2023-10-07T07:49:50.000Z</time>
</trkpt>
<trkpt lat="45.9450470" lon="9.5855840">
	<ele>1693.80</ele>
	<time>2023-10-07T07:49:51.000Z</time>
</trkpt>
<trkpt lat="45.9450460" lon="9.5855780">
	<ele>1693.80</ele>
	<time>2023-10-07T07:49:52.000Z</time>
</trkpt>
<trkpt lat="45.9450480" lon="9.5855690">
	<ele>1693.80</ele>
	<time>2023-10-07T07:49:53.000Z</time>
</trkpt>
<trkpt lat="45.9450520" lon="9.5855630">
	<ele>1694.00</ele>
	<time>2023-10-07T07:49:54.000Z</time>
</trkpt>
<trkpt lat="45.9450560" lon="9.5855600">
	<ele>1694.20</ele>
	<time>2023-10-07T07:49:55.000Z</time>
</trkpt>
<trkpt lat="45.9450640" lon="9.5855570">
	<ele>1694.40</ele>
	<time>2023-10-07T07:49:56.000Z</time>
</trkpt>
<trkpt lat="45.9450690" lon="9.5855530">
	<ele>1694.60</ele>
	<time>2023-10-07T07:49:57.000Z</time>
</trkpt>
<trkpt lat="45.9450720" lon="9.5855510">
	<ele>1694.80</ele>
	<time>2023-10-07T07:49:58.000Z</time>
</trkpt>
<trkpt lat="45.9450770" lon="9.5855480">
	<ele>1695.00</ele>
	<time>2023-10-07T07:49:59.000Z</time>
</trkpt>
<trkpt lat="45.9450790" lon="9.5855420">
	<ele>1695.20</ele>
	<time>2023-10-07T07:50:00.000Z</time>
</trkpt>
<trkpt lat="45.9450810" lon="9.5855390">
	<ele>1695.40</ele>
	<time>2023-10-07T07:50:01.000Z</time>
</trkpt>
<trkpt lat="45.9450820" lon="9.5855370">
	<ele>1695.40</ele>
	<time>2023-10-07T07:50:02.000Z</time>
</trkpt>
<trkpt lat="45.9450840" lon="9.5855300">
	<ele>1695.60</ele>
	<time>2023-10-07T07:50:03.000Z</time>
</trkpt>
<trkpt lat="45.9450840" lon="9.5855230">
	<ele>1695.60</ele>
	<time>2023-10-07T07:50:04.000Z</time>
</trkpt>
<trkpt lat="45.9450850" lon="9.5855160">
	<ele>1695.80</ele>
	<time>2023-10-07T07:50:05.000Z</time>
</trkpt>
<trkpt lat="45.9450860" lon="9.5855130">
	<ele>1696.20</ele>
	<time>2023-10-07T07:50:06.000Z</time>
</trkpt>
<trkpt lat="45.9450920" lon="9.5855100">
	<ele>1696.40</ele>
	<time>2023-10-07T07:50:07.000Z</time>
</trkpt>
<trkpt lat="45.9450970" lon="9.5855060">
	<ele>1696.60</ele>
	<time>2023-10-07T07:50:08.000Z</time>
</trkpt>
<trkpt lat="45.9451000" lon="9.5855020">
	<ele>1696.80</ele>
	<time>2023-10-07T07:50:09.000Z</time>
</trkpt>
<trkpt lat="45.9451030" lon="9.5854990">
	<ele>1696.80</ele>
	<time>2023-10-07T07:50:10.000Z</time>
</trkpt>
<trkpt lat="45.9451050" lon="9.5854960">
	<ele>1697.00</ele>
	<time>2023-10-07T07:50:11.000Z</time>
</trkpt>
<trkpt lat="45.9451080" lon="9.5854910">
	<ele>1697.00</ele>
	<time>2023-10-07T07:50:12.000Z</time>
</trkpt>
<trkpt lat="45.9451070" lon="9.5854850">
	<ele>1697.20</ele>
	<time>2023-10-07T07:50:13.000Z</time>
</trkpt>
<trkpt lat="45.9451070" lon="9.5854810">
	<ele>1697.20</ele>
	<time>2023-10-07T07:50:14.000Z</time>
</trkpt>
<trkpt lat="45.9451100" lon="9.5854740">
	<ele>1697.40</ele>
	<time>2023-10-07T07:50:15.000Z</time>
</trkpt>
<trkpt lat="45.9451150" lon="9.5854670">
	<ele>1697.60</ele>
	<time>2023-10-07T07:50:16.000Z</time>
</trkpt>
<trkpt lat="45.9451180" lon="9.5854600">
	<ele>1697.80</ele>
	<time>2023-10-07T07:50:17.000Z</time>
</trkpt>
<trkpt lat="45.9451200" lon="9.5854550">
	<ele>1697.80</ele>
	<time>2023-10-07T07:50:18.000Z</time>
</trkpt>
<trkpt lat="45.9451270" lon="9.5854530">
	<ele>1697.80</ele>
	<time>2023-10-07T07:50:19.000Z</time>
</trkpt>
<trkpt lat="45.9451340" lon="9.5854490">
	<ele>1698.00</ele>
	<time>2023-10-07T07:50:20.000Z</time>
</trkpt>
<trkpt lat="45.9451380" lon="9.5854440">
	<ele>1698.20</ele>
	<time>2023-10-07T07:50:21.000Z</time>
</trkpt>
<trkpt lat="45.9451390" lon="9.5854400">
	<ele>1698.40</ele>
	<time>2023-10-07T07:50:22.000Z</time>
</trkpt>
<trkpt lat="45.9451420" lon="9.5854380">
	<ele>1698.40</ele>
	<time>2023-10-07T07:50:23.000Z</time>
</trkpt>
<trkpt lat="45.9451440" lon="9.5854330">
	<ele>1698.60</ele>
	<time>2023-10-07T07:50:24.000Z</time>
</trkpt>
<trkpt lat="45.9451450" lon="9.5854290">
	<ele>1698.80</ele>
	<time>2023-10-07T07:50:25.000Z</time>
</trkpt>
<trkpt lat="45.9451460" lon="9.5854250">
	<ele>1699.00</ele>
	<time>2023-10-07T07:50:26.000Z</time>
</trkpt>
<trkpt lat="45.9451480" lon="9.5854180">
	<ele>1699.20</ele>
	<time>2023-10-07T07:50:27.000Z</time>
</trkpt>
<trkpt lat="45.9451490" lon="9.5854150">
	<ele>1699.40</ele>
	<time>2023-10-07T07:50:28.000Z</time>
</trkpt>
<trkpt lat="45.9451520" lon="9.5854120">
	<ele>1699.40</ele>
	<time>2023-10-07T07:50:29.000Z</time>
</trkpt>
<trkpt lat="45.9451530" lon="9.5854090">
	<ele>1699.60</ele>
	<time>2023-10-07T07:50:30.000Z</time>
</trkpt>
<trkpt lat="45.9451540" lon="9.5854060">
	<ele>1699.80</ele>
	<time>2023-10-07T07:50:31.000Z</time>
</trkpt>
<trkpt lat="45.9451550" lon="9.5853990">
	<ele>1699.80</ele>
	<time>2023-10-07T07:50:32.000Z</time>
</trkpt>
<trkpt lat="45.9451560" lon="9.5853940">
	<ele>1699.80</ele>
	<time>2023-10-07T07:50:33.000Z</time>
</trkpt>
<trkpt lat="45.9451580" lon="9.5853890">
	<ele>1700.00</ele>
	<time>2023-10-07T07:50:34.000Z</time>
</trkpt>
<trkpt lat="45.9451620" lon="9.5853840">
	<ele>1700.00</ele>
	<time>2023-10-07T07:50:35.000Z</time>
</trkpt>
<trkpt lat="45.9451660" lon="9.5853780">
	<ele>1700.20</ele>
	<time>2023-10-07T07:50:36.000Z</time>
</trkpt>
<trkpt lat="45.9451690" lon="9.5853770">
	<ele>1700.40</ele>
	<time>2023-10-07T07:50:37.000Z</time>
</trkpt>
<trkpt lat="45.9451720" lon="9.5853750">
	<ele>1700.60</ele>
	<time>2023-10-07T07:50:38.000Z</time>
</trkpt>
<trkpt lat="45.9451750" lon="9.5853750">
	<ele>1700.80</ele>
	<time>2023-10-07T07:50:39.000Z</time>
</trkpt>
<trkpt lat="45.9451780" lon="9.5853710">
	<ele>1701.00</ele>
	<time>2023-10-07T07:50:40.000Z</time>
</trkpt>
<trkpt lat="45.9451800" lon="9.5853660">
	<ele>1701.00</ele>
	<time>2023-10-07T07:50:41.000Z</time>
</trkpt>
<trkpt lat="45.9451860" lon="9.5853600">
	<ele>1701.20</ele>
	<time>2023-10-07T07:50:42.000Z</time>
</trkpt>
<trkpt lat="45.9451920" lon="9.5853550">
	<ele>1701.20</ele>
	<time>2023-10-07T07:50:43.000Z</time>
</trkpt>
<trkpt lat="45.9451950" lon="9.5853510">
	<ele>1701.40</ele>
	<time>2023-10-07T07:50:44.000Z</time>
</trkpt>
<trkpt lat="45.9451990" lon="9.5853480">
	<ele>1701.40</ele>
	<time>2023-10-07T07:50:45.000Z</time>
</trkpt>
<trkpt lat="45.9452030" lon="9.5853440">
	<ele>1701.60</ele>
	<time>2023-10-07T07:50:46.000Z</time>
</trkpt>
<trkpt lat="45.9452040" lon="9.5853360">
	<ele>1701.80</ele>
	<time>2023-10-07T07:50:47.000Z</time>
</trkpt>
<trkpt lat="45.9452050" lon="9.5853320">
	<ele>1702.00</ele>
	<time>2023-10-07T07:50:48.000Z</time>
</trkpt>
<trkpt lat="45.9452080" lon="9.5853270">
	<ele>1702.20</ele>
	<time>2023-10-07T07:50:49.000Z</time>
</trkpt>
<trkpt lat="45.9452120" lon="9.5853200">
	<ele>1702.40</ele>
	<time>2023-10-07T07:50:50.000Z</time>
</trkpt>
<trkpt lat="45.9452170" lon="9.5853160">
	<ele>1702.60</ele>
	<time>2023-10-07T07:50:51.000Z</time>
</trkpt>
<trkpt lat="45.9452200" lon="9.5853120">
	<ele>1702.80</ele>
	<time>2023-10-07T07:50:52.000Z</time>
</trkpt>
<trkpt lat="45.9452240" lon="9.5853080">
	<ele>1702.80</ele>
	<time>2023-10-07T07:50:53.000Z</time>
</trkpt>
<trkpt lat="45.9452240" lon="9.5853010">
	<ele>1703.00</ele>
	<time>2023-10-07T07:50:54.000Z</time>
</trkpt>
<trkpt lat="45.9452270" lon="9.5852930">
	<ele>1703.00</ele>
	<time>2023-10-07T07:50:55.000Z</time>
</trkpt>
<trkpt lat="45.9452280" lon="9.5852860">
	<ele>1703.40</ele>
	<time>2023-10-07T07:50:56.000Z</time>
</trkpt>
<trkpt lat="45.9452300" lon="9.5852810">
	<ele>1703.60</ele>
	<time>2023-10-07T07:50:57.000Z</time>
</trkpt>
<trkpt lat="45.9452330" lon="9.5852740">
	<ele>1703.60</ele>
	<time>2023-10-07T07:50:58.000Z</time>
</trkpt>
<trkpt lat="45.9452360" lon="9.5852710">
	<ele>1703.80</ele>
	<time>2023-10-07T07:50:59.000Z</time>
</trkpt>
<trkpt lat="45.9452380" lon="9.5852650">
	<ele>1703.80</ele>
	<time>2023-10-07T07:51:00.000Z</time>
</trkpt>
<trkpt lat="45.9452390" lon="9.5852580">
	<ele>1704.20</ele>
	<time>2023-10-07T07:51:01.000Z</time>
</trkpt>
<trkpt lat="45.9452400" lon="9.5852530">
	<ele>1704.40</ele>
	<time>2023-10-07T07:51:02.000Z</time>
</trkpt>
<trkpt lat="45.9452420" lon="9.5852480">
	<ele>1704.60</ele>
	<time>2023-10-07T07:51:03.000Z</time>
</trkpt>
<trkpt lat="45.9452430" lon="9.5852420">
	<ele>1704.60</ele>
	<time>2023-10-07T07:51:04.000Z</time>
</trkpt>
<trkpt lat="45.9452420" lon="9.5852370">
	<ele>1704.80</ele>
	<time>2023-10-07T07:51:05.000Z</time>
</trkpt>
<trkpt lat="45.9452420" lon="9.5852320">
	<ele>1704.80</ele>
	<time>2023-10-07T07:51:06.000Z</time>
</trkpt>
<trkpt lat="45.9452410" lon="9.5852260">
	<ele>1705.00</ele>
	<time>2023-10-07T07:51:07.000Z</time>
</trkpt>
<trkpt lat="45.9452410" lon="9.5852190">
	<ele>1705.00</ele>
	<time>2023-10-07T07:51:08.000Z</time>
</trkpt>
<trkpt lat="45.9452410" lon="9.5852110">
	<ele>1705.20</ele>
	<time>2023-10-07T07:51:09.000Z</time>
</trkpt>
<trkpt lat="45.9452420" lon="9.5852060">
	<ele>1705.40</ele>
	<time>2023-10-07T07:51:10.000Z</time>
</trkpt>
<trkpt lat="45.9452430" lon="9.5851970">
	<ele>1705.60</ele>
	<time>2023-10-07T07:51:11.000Z</time>
</trkpt>
<trkpt lat="45.9452440" lon="9.5851890">
	<ele>1705.60</ele>
	<time>2023-10-07T07:51:12.000Z</time>
</trkpt>
<trkpt lat="45.9452450" lon="9.5851830">
	<ele>1705.80</ele>
	<time>2023-10-07T07:51:13.000Z</time>
</trkpt>
<trkpt lat="45.9452480" lon="9.5851780">
	<ele>1706.00</ele>
	<time>2023-10-07T07:51:14.000Z</time>
</trkpt>
<trkpt lat="45.9452480" lon="9.5851670">
	<ele>1706.00</ele>
	<time>2023-10-07T07:51:15.000Z</time>
</trkpt>
<trkpt lat="45.9452490" lon="9.5851600">
	<ele>1706.00</ele>
	<time>2023-10-07T07:51:16.000Z</time>
</trkpt>
<trkpt lat="45.9452510" lon="9.5851580">
	<ele>1706.20</ele>
	<time>2023-10-07T07:51:17.000Z</time>
</trkpt>
<trkpt lat="45.9452520" lon="9.5851520">
	<ele>1706.20</ele>
	<time>2023-10-07T07:51:18.000Z</time>
</trkpt>
<trkpt lat="45.9452520" lon="9.5851440">
	<ele>1706.40</ele>
	<time>2023-10-07T07:51:19.000Z</time>
</trkpt>
<trkpt lat="45.9452530" lon="9.5851350">
	<ele>1706.60</ele>
	<time>2023-10-07T07:51:20.000Z</time>
</trkpt>
<trkpt lat="45.9452540" lon="9.5851280">
	<ele>1706.80</ele>
	<time>2023-10-07T07:51:21.000Z</time>
</trkpt>
<trkpt lat="45.9452560" lon="9.5851240">
	<ele>1707.00</ele>
	<time>2023-10-07T07:51:22.000Z</time>
</trkpt>
<trkpt lat="45.9452590" lon="9.5851190">
	<ele>1707.20</ele>
	<time>2023-10-07T07:51:23.000Z</time>
</trkpt>
<trkpt lat="45.9452620" lon="9.5851140">
	<ele>1707.40</ele>
	<time>2023-10-07T07:51:24.000Z</time>
</trkpt>
<trkpt lat="45.9452650" lon="9.5851090">
	<ele>1707.40</ele>
	<time>2023-10-07T07:51:25.000Z</time>
</trkpt>
<trkpt lat="45.9452670" lon="9.5851030">
	<ele>1707.60</ele>
	<time>2023-10-07T07:51:26.000Z</time>
</trkpt>
<trkpt lat="45.9452670" lon="9.5850950">
	<ele>1707.80</ele>
	<time>2023-10-07T07:51:27.000Z</time>
</trkpt>
<trkpt lat="45.9452670" lon="9.5850880">
	<ele>1707.80</ele>
	<time>2023-10-07T07:51:28.000Z</time>
</trkpt>
<trkpt lat="45.9452640" lon="9.5850790">
	<ele>1707.80</ele>
	<time>2023-10-07T07:51:29.000Z</time>
</trkpt>
<trkpt lat="45.9452650" lon="9.5850720">
	<ele>1708.00</ele>
	<time>2023-10-07T07:51:30.000Z</time>
</trkpt>
<trkpt lat="45.9452700" lon="9.5850650">
	<ele>1708.00</ele>
	<time>2023-10-07T07:51:31.000Z</time>
</trkpt>
<trkpt lat="45.9452740" lon="9.5850600">
	<ele>1708.20</ele>
	<time>2023-10-07T07:51:32.000Z</time>
</trkpt>
<trkpt lat="45.9452770" lon="9.5850550">
	<ele>1708.20</ele>
	<time>2023-10-07T07:51:33.000Z</time>
</trkpt>
<trkpt lat="45.9452810" lon="9.5850480">
	<ele>1708.20</ele>
	<time>2023-10-07T07:51:34.000Z</time>
</trkpt>
<trkpt lat="45.9452830" lon="9.5850410">
	<ele>1708.40</ele>
	<time>2023-10-07T07:51:35.000Z</time>
</trkpt>
<trkpt lat="45.9452840" lon="9.5850350">
	<ele>1708.60</ele>
	<time>2023-10-07T07:51:36.000Z</time>
</trkpt>
<trkpt lat="45.9452850" lon="9.5850300">
	<ele>1708.80</ele>
	<time>2023-10-07T07:51:37.000Z</time>
</trkpt>
<trkpt lat="45.9452890" lon="9.5850250">
	<ele>1709.00</ele>
	<time>2023-10-07T07:51:38.000Z</time>
</trkpt>
<trkpt lat="45.9452920" lon="9.5850210">
	<ele>1709.20</ele>
	<time>2023-10-07T07:51:39.000Z</time>
</trkpt>
<trkpt lat="45.9452940" lon="9.5850150">
	<ele>1709.20</ele>
	<time>2023-10-07T07:51:40.000Z</time>
</trkpt>
<trkpt lat="45.9452960" lon="9.5850100">
	<ele>1709.40</ele>
	<time>2023-10-07T07:51:41.000Z</time>
</trkpt>
<trkpt lat="45.9452970" lon="9.5850050">
	<ele>1709.40</ele>
	<time>2023-10-07T07:51:42.000Z</time>
</trkpt>
<trkpt lat="45.9452990" lon="9.5849990">
	<ele>1709.40</ele>
	<time>2023-10-07T07:51:43.000Z</time>
</trkpt>
<trkpt lat="45.9453010" lon="9.5849930">
	<ele>1709.60</ele>
	<time>2023-10-07T07:51:44.000Z</time>
</trkpt>
<trkpt lat="45.9453010" lon="9.5849860">
	<ele>1709.60</ele>
	<time>2023-10-07T07:51:45.000Z</time>
</trkpt>
<trkpt lat="45.9453040" lon="9.5849790">
	<ele>1709.80</ele>
	<time>2023-10-07T07:51:46.000Z</time>
</trkpt>
<trkpt lat="45.9453070" lon="9.5849720">
	<ele>1710.00</ele>
	<time>2023-10-07T07:51:47.000Z</time>
</trkpt>
<trkpt lat="45.9453080" lon="9.5849650">
	<ele>1710.20</ele>
	<time>2023-10-07T07:51:48.000Z</time>
</trkpt>
<trkpt lat="45.9453090" lon="9.5849600">
	<ele>1710.40</ele>
	<time>2023-10-07T07:51:49.000Z</time>
</trkpt>
<trkpt lat="45.9453140" lon="9.5849540">
	<ele>1710.40</ele>
	<time>2023-10-07T07:51:50.000Z</time>
</trkpt>
<trkpt lat="45.9453190" lon="9.5849480">
	<ele>1710.60</ele>
	<time>2023-10-07T07:51:51.000Z</time>
</trkpt>
<trkpt lat="45.9453230" lon="9.5849420">
	<ele>1710.60</ele>
	<time>2023-10-07T07:51:52.000Z</time>
</trkpt>
<trkpt lat="45.9453250" lon="9.5849340">
	<ele>1710.60</ele>
	<time>2023-10-07T07:51:53.000Z</time>
</trkpt>
<trkpt lat="45.9453250" lon="9.5849290">
	<ele>1710.80</ele>
	<time>2023-10-07T07:51:54.000Z</time>
</trkpt>
<trkpt lat="45.9453260" lon="9.5849250">
	<ele>1711.00</ele>
	<time>2023-10-07T07:51:55.000Z</time>
</trkpt>
<trkpt lat="45.9453300" lon="9.5849200">
	<ele>1711.00</ele>
	<time>2023-10-07T07:51:56.000Z</time>
</trkpt>
<trkpt lat="45.9453350" lon="9.5849140">
	<ele>1711.20</ele>
	<time>2023-10-07T07:51:57.000Z</time>
</trkpt>
<trkpt lat="45.9453400" lon="9.5849100">
	<ele>1711.40</ele>
	<time>2023-10-07T07:51:58.000Z</time>
</trkpt>
<trkpt lat="45.9453430" lon="9.5849030">
	<ele>1711.60</ele>
	<time>2023-10-07T07:51:59.000Z</time>
</trkpt>
<trkpt lat="45.9453480" lon="9.5848960">
	<ele>1711.60</ele>
	<time>2023-10-07T07:52:00.000Z</time>
</trkpt>
<trkpt lat="45.9453520" lon="9.5848910">
	<ele>1711.80</ele>
	<time>2023-10-07T07:52:01.000Z</time>
</trkpt>
<trkpt lat="45.9453530" lon="9.5848880">
	<ele>1712.00</ele>
	<time>2023-10-07T07:52:02.000Z</time>
</trkpt>
<trkpt lat="45.9453570" lon="9.5848860">
	<ele>1712.00</ele>
	<time>2023-10-07T07:52:03.000Z</time>
</trkpt>
<trkpt lat="45.9453600" lon="9.5848820">
	<ele>1712.20</ele>
	<time>2023-10-07T07:52:04.000Z</time>
</trkpt>
<trkpt lat="45.9453630" lon="9.5848780">
	<ele>1712.20</ele>
	<time>2023-10-07T07:52:05.000Z</time>
</trkpt>
<trkpt lat="45.9453680" lon="9.5848740">
	<ele>1712.40</ele>
	<time>2023-10-07T07:52:06.000Z</time>
</trkpt>
<trkpt lat="45.9453710" lon="9.5848660">
	<ele>1712.60</ele>
	<time>2023-10-07T07:52:07.000Z</time>
</trkpt>
<trkpt lat="45.9453730" lon="9.5848600">
	<ele>1712.60</ele>
	<time>2023-10-07T07:52:08.000Z</time>
</trkpt>
<trkpt lat="45.9453730" lon="9.5848540">
	<ele>1712.80</ele>
	<time>2023-10-07T07:52:09.000Z</time>
</trkpt>
<trkpt lat="45.9453730" lon="9.5848480">
	<ele>1713.00</ele>
	<time>2023-10-07T07:52:10.000Z</time>
</trkpt>
<trkpt lat="45.9453760" lon="9.5848400">
	<ele>1713.20</ele>
	<time>2023-10-07T07:52:11.000Z</time>
</trkpt>
<trkpt lat="45.9453750" lon="9.5848320">
	<ele>1713.20</ele>
	<time>2023-10-07T07:52:12.000Z</time>
</trkpt>
<trkpt lat="45.9453750" lon="9.5848230">
	<ele>1713.40</ele>
	<time>2023-10-07T07:52:13.000Z</time>
</trkpt>
<trkpt lat="45.9453780" lon="9.5848130">
	<ele>1713.40</ele>
	<time>2023-10-07T07:52:14.000Z</time>
</trkpt>
<trkpt lat="45.9453810" lon="9.5848040">
	<ele>1713.60</ele>
	<time>2023-10-07T07:52:15.000Z</time>
</trkpt>
<trkpt lat="45.9453830" lon="9.5847990">
	<ele>1713.80</ele>
	<time>2023-10-07T07:52:16.000Z</time>
</trkpt>
<trkpt lat="45.9453840" lon="9.5847930">
	<ele>1714.00</ele>
	<time>2023-10-07T07:52:17.000Z</time>
</trkpt>
<trkpt lat="45.9453870" lon="9.5847850">
	<ele>1714.00</ele>
	<time>2023-10-07T07:52:18.000Z</time>
</trkpt>
<trkpt lat="45.9453880" lon="9.5847780">
	<ele>1714.20</ele>
	<time>2023-10-07T07:52:19.000Z</time>
</trkpt>
<trkpt lat="45.9453910" lon="9.5847740">
	<ele>1714.40</ele>
	<time>2023-10-07T07:52:20.000Z</time>
</trkpt>
<trkpt lat="45.9453930" lon="9.5847670">
	<ele>1714.40</ele>
	<time>2023-10-07T07:52:21.000Z</time>
</trkpt>
<trkpt lat="45.9453950" lon="9.5847600">
	<ele>1714.40</ele>
	<time>2023-10-07T07:52:22.000Z</time>
</trkpt>
<trkpt lat="45.9453970" lon="9.5847520">
	<ele>1714.60</ele>
	<time>2023-10-07T07:52:23.000Z</time>
</trkpt>
<trkpt lat="45.9453990" lon="9.5847440">
	<ele>1714.60</ele>
	<time>2023-10-07T07:52:24.000Z</time>
</trkpt>
<trkpt lat="45.9454020" lon="9.5847340">
	<ele>1715.00</ele>
	<time>2023-10-07T07:52:25.000Z</time>
</trkpt>
<trkpt lat="45.9454040" lon="9.5847280">
	<ele>1715.20</ele>
	<time>2023-10-07T07:52:26.000Z</time>
</trkpt>
<trkpt lat="45.9454060" lon="9.5847230">
	<ele>1715.40</ele>
	<time>2023-10-07T07:52:27.000Z</time>
</trkpt>
<trkpt lat="45.9454120" lon="9.5847170">
	<ele>1715.60</ele>
	<time>2023-10-07T07:52:28.000Z</time>
</trkpt>
<trkpt lat="45.9454160" lon="9.5847120">
	<ele>1715.80</ele>
	<time>2023-10-07T07:52:29.000Z</time>
</trkpt>
<trkpt lat="45.9454190" lon="9.5847070">
	<ele>1716.00</ele>
	<time>2023-10-07T07:52:30.000Z</time>
</trkpt>
<trkpt lat="45.9454210" lon="9.5847040">
	<ele>1716.20</ele>
	<time>2023-10-07T07:52:31.000Z</time>
</trkpt>
<trkpt lat="45.9454220" lon="9.5847010">
	<ele>1716.40</ele>
	<time>2023-10-07T07:52:32.000Z</time>
</trkpt>
<trkpt lat="45.9454240" lon="9.5846990">
	<ele>1716.60</ele>
	<time>2023-10-07T07:52:33.000Z</time>
</trkpt>
<trkpt lat="45.9454270" lon="9.5846950">
	<ele>1716.60</ele>
	<time>2023-10-07T07:52:34.000Z</time>
</trkpt>
<trkpt lat="45.9454300" lon="9.5846910">
	<ele>1716.80</ele>
	<time>2023-10-07T07:52:35.000Z</time>
</trkpt>
<trkpt lat="45.9454310" lon="9.5846860">
	<ele>1716.80</ele>
	<time>2023-10-07T07:52:36.000Z</time>
</trkpt>
<trkpt lat="45.9454350" lon="9.5846820">
	<ele>1717.00</ele>
	<time>2023-10-07T07:52:37.000Z</time>
</trkpt>
<trkpt lat="45.9454360" lon="9.5846760">
	<ele>1717.20</ele>
	<time>2023-10-07T07:52:38.000Z</time>
</trkpt>
<trkpt lat="45.9454410" lon="9.5846700">
	<ele>1717.40</ele>
	<time>2023-10-07T07:52:39.000Z</time>
</trkpt>
<trkpt lat="45.9454440" lon="9.5846700">
	<ele>1717.60</ele>
	<time>2023-10-07T07:52:40.000Z</time>
</trkpt>
<trkpt lat="45.9454480" lon="9.5846680">
	<ele>1717.60</ele>
	<time>2023-10-07T07:52:41.000Z</time>
</trkpt>
<trkpt lat="45.9454510" lon="9.5846610">
	<ele>1717.60</ele>
	<time>2023-10-07T07:52:42.000Z</time>
</trkpt>
<trkpt lat="45.9454540" lon="9.5846560">
	<ele>1718.00</ele>
	<time>2023-10-07T07:52:43.000Z</time>
</trkpt>
<trkpt lat="45.9454550" lon="9.5846540">
	<ele>1718.00</ele>
	<time>2023-10-07T07:52:44.000Z</time>
</trkpt>
<trkpt lat="45.9454580" lon="9.5846520">
	<ele>1718.20</ele>
	<time>2023-10-07T07:52:45.000Z</time>
</trkpt>
<trkpt lat="45.9454610" lon="9.5846490">
	<ele>1718.20</ele>
	<time>2023-10-07T07:52:46.000Z</time>
</trkpt>
<trkpt lat="45.9454630" lon="9.5846460">
	<ele>1718.60</ele>
	<time>2023-10-07T07:52:47.000Z</time>
</trkpt>
<trkpt lat="45.9454660" lon="9.5846440">
	<ele>1718.60</ele>
	<time>2023-10-07T07:52:48.000Z</time>
</trkpt>
<trkpt lat="45.9454680" lon="9.5846410">
	<ele>1718.80</ele>
	<time>2023-10-07T07:52:49.000Z</time>
</trkpt>
<trkpt lat="45.9454700" lon="9.5846380">
	<ele>1719.00</ele>
	<time>2023-10-07T07:52:50.000Z</time>
</trkpt>
<trkpt lat="45.9454710" lon="9.5846360">
	<ele>1719.20</ele>
	<time>2023-10-07T07:52:51.000Z</time>
</trkpt>
<trkpt lat="45.9454720" lon="9.5846330">
	<ele>1719.40</ele>
	<time>2023-10-07T07:52:52.000Z</time>
</trkpt>
<trkpt lat="45.9454750" lon="9.5846320">
	<ele>1719.40</ele>
	<time>2023-10-07T07:52:53.000Z</time>
</trkpt>
<trkpt lat="45.9454770" lon="9.5846270">
	<ele>1719.60</ele>
	<time>2023-10-07T07:52:54.000Z</time>
</trkpt>
<trkpt lat="45.9454800" lon="9.5846250">
	<ele>1719.80</ele>
	<time>2023-10-07T07:52:55.000Z</time>
</trkpt>
<trkpt lat="45.9454800" lon="9.5846220">
	<ele>1719.80</ele>
	<time>2023-10-07T07:52:56.000Z</time>
</trkpt>
<trkpt lat="45.9454820" lon="9.5846180">
	<ele>1720.00</ele>
	<time>2023-10-07T07:52:57.000Z</time>
</trkpt>
<trkpt lat="45.9454840" lon="9.5846130">
	<ele>1720.00</ele>
	<time>2023-10-07T07:52:58.000Z</time>
</trkpt>
<trkpt lat="45.9454860" lon="9.5846090">
	<ele>1720.40</ele>
	<time>2023-10-07T07:52:59.000Z</time>
</trkpt>
<trkpt lat="45.9454880" lon="9.5846080">
	<ele>1720.40</ele>
	<time>2023-10-07T07:53:00.000Z</time>
</trkpt>
<trkpt lat="45.9454920" lon="9.5846060">
	<ele>1720.60</ele>
	<time>2023-10-07T07:53:01.000Z</time>
</trkpt>
<trkpt lat="45.9454950" lon="9.5846010">
	<ele>1720.80</ele>
	<time>2023-10-07T07:53:02.000Z</time>
</trkpt>
<trkpt lat="45.9454970" lon="9.5845980">
	<ele>1720.80</ele>
	<time>2023-10-07T07:53:03.000Z</time>
</trkpt>
<trkpt lat="45.9454970" lon="9.5845940">
	<ele>1721.00</ele>
	<time>2023-10-07T07:53:04.000Z</time>
</trkpt>
<trkpt lat="45.9454980" lon="9.5845900">
	<ele>1721.40</ele>
	<time>2023-10-07T07:53:05.000Z</time>
</trkpt>
<trkpt lat="45.9455000" lon="9.5845860">
	<ele>1721.40</ele>
	<time>2023-10-07T07:53:06.000Z</time>
</trkpt>
<trkpt lat="45.9455010" lon="9.5845810">
	<ele>1721.60</ele>
	<time>2023-10-07T07:53:07.000Z</time>
</trkpt>
<trkpt lat="45.9455040" lon="9.5845790">
	<ele>1721.80</ele>
	<time>2023-10-07T07:53:08.000Z</time>
</trkpt>
<trkpt lat="45.9455050" lon="9.5845750">
	<ele>1722.00</ele>
	<time>2023-10-07T07:53:09.000Z</time>
</trkpt>
<trkpt lat="45.9455080" lon="9.5845690">
	<ele>1722.00</ele>
	<time>2023-10-07T07:53:10.000Z</time>
</trkpt>
<trkpt lat="45.9455130" lon="9.5845640">
	<ele>1722.20</ele>
	<time>2023-10-07T07:53:11.000Z</time>
</trkpt>
<trkpt lat="45.9455160" lon="9.5845610">
	<ele>1722.40</ele>
	<time>2023-10-07T07:53:12.000Z</time>
</trkpt>
<trkpt lat="45.9455200" lon="9.5845590">
	<ele>1722.60</ele>
	<time>2023-10-07T07:53:13.000Z</time>
</trkpt>
<trkpt lat="45.9455230" lon="9.5845540">
	<ele>1722.80</ele>
	<time>2023-10-07T07:53:14.000Z</time>
</trkpt>
<trkpt lat="45.9455260" lon="9.5845510">
	<ele>1723.00</ele>
	<time>2023-10-07T07:53:15.000Z</time>
</trkpt>
<trkpt lat="45.9455290" lon="9.5845480">
	<ele>1723.20</ele>
	<time>2023-10-07T07:53:16.000Z</time>
</trkpt>
<trkpt lat="45.9455350" lon="9.5845440">
	<ele>1723.40</ele>
	<time>2023-10-07T07:53:17.000Z</time>
</trkpt>
<trkpt lat="45.9455370" lon="9.5845410">
	<ele>1723.60</ele>
	<time>2023-10-07T07:53:18.000Z</time>
</trkpt>
<trkpt lat="45.9455410" lon="9.5845400">
	<ele>1723.60</ele>
	<time>2023-10-07T07:53:19.000Z</time>
</trkpt>
<trkpt lat="45.9455460" lon="9.5845360">
	<ele>1723.80</ele>
	<time>2023-10-07T07:53:20.000Z</time>
</trkpt>
<trkpt lat="45.9455510" lon="9.5845330">
	<ele>1724.00</ele>
	<time>2023-10-07T07:53:21.000Z</time>
</trkpt>
<trkpt lat="45.9455540" lon="9.5845290">
	<ele>1724.20</ele>
	<time>2023-10-07T07:53:22.000Z</time>
</trkpt>
<trkpt lat="45.9455550" lon="9.5845260">
	<ele>1724.40</ele>
	<time>2023-10-07T07:53:23.000Z</time>
</trkpt>
<trkpt lat="45.9455570" lon="9.5845240">
	<ele>1724.60</ele>
	<time>2023-10-07T07:53:24.000Z</time>
</trkpt>
<trkpt lat="45.9455620" lon="9.5845190">
	<ele>1724.80</ele>
	<time>2023-10-07T07:53:25.000Z</time>
</trkpt>
<trkpt lat="45.9455660" lon="9.5845140">
	<ele>1725.00</ele>
	<time>2023-10-07T07:53:26.000Z</time>
</trkpt>
<trkpt lat="45.9455690" lon="9.5845120">
	<ele>1725.20</ele>
	<time>2023-10-07T07:53:27.000Z</time>
</trkpt>
<trkpt lat="45.9455720" lon="9.5845070">
	<ele>1725.20</ele>
	<time>2023-10-07T07:53:28.000Z</time>
</trkpt>
<trkpt lat="45.9455740" lon="9.5844990">
	<ele>1725.40</ele>
	<time>2023-10-07T07:53:29.000Z</time>
</trkpt>
<trkpt lat="45.9455770" lon="9.5844950">
	<ele>1725.60</ele>
	<time>2023-10-07T07:53:30.000Z</time>
</trkpt>
<trkpt lat="45.9455800" lon="9.5844920">
	<ele>1725.80</ele>
	<time>2023-10-07T07:53:31.000Z</time>
</trkpt>
<trkpt lat="45.9455820" lon="9.5844870">
	<ele>1725.80</ele>
	<time>2023-10-07T07:53:32.000Z</time>
</trkpt>
<trkpt lat="45.9455860" lon="9.5844820">
	<ele>1726.00</ele>
	<time>2023-10-07T07:53:33.000Z</time>
</trkpt>
<trkpt lat="45.9455890" lon="9.5844780">
	<ele>1726.20</ele>
	<time>2023-10-07T07:53:34.000Z</time>
</trkpt>
<trkpt lat="45.9455870" lon="9.5844730">
	<ele>1726.20</ele>
	<time>2023-10-07T07:53:35.000Z</time>
</trkpt>
<trkpt lat="45.9455870" lon="9.5844700">
	<ele>1726.60</ele>
	<time>2023-10-07T07:53:36.000Z</time>
</trkpt>
<trkpt lat="45.9455890" lon="9.5844650">
	<ele>1726.80</ele>
	<time>2023-10-07T07:53:37.000Z</time>
</trkpt>
<trkpt lat="45.9455920" lon="9.5844610">
	<ele>1726.80</ele>
	<time>2023-10-07T07:53:38.000Z</time>
</trkpt>
<trkpt lat="45.9455920" lon="9.5844560">
	<ele>1727.00</ele>
	<time>2023-10-07T07:53:39.000Z</time>
</trkpt>
<trkpt lat="45.9455930" lon="9.5844530">
	<ele>1727.20</ele>
	<time>2023-10-07T07:53:40.000Z</time>
</trkpt>
<trkpt lat="45.9455950" lon="9.5844490">
	<ele>1727.40</ele>
	<time>2023-10-07T07:53:41.000Z</time>
</trkpt>
<trkpt lat="45.9455980" lon="9.5844430">
	<ele>1727.60</ele>
	<time>2023-10-07T07:53:42.000Z</time>
</trkpt>
<trkpt lat="45.9456020" lon="9.5844400">
	<ele>1727.80</ele>
	<time>2023-10-07T07:53:43.000Z</time>
</trkpt>
<trkpt lat="45.9456040" lon="9.5844380">
	<ele>1727.80</ele>
	<time>2023-10-07T07:53:44.000Z</time>
</trkpt>
<trkpt lat="45.9456050" lon="9.5844330">
	<ele>1728.00</ele>
	<time>2023-10-07T07:53:45.000Z</time>
</trkpt>
<trkpt lat="45.9456070" lon="9.5844250">
	<ele>1728.00</ele>
	<time>2023-10-07T07:53:46.000Z</time>
</trkpt>
<trkpt lat="45.9456100" lon="9.5844200">
	<ele>1728.20</ele>
	<time>2023-10-07T07:53:47.000Z</time>
</trkpt>
<trkpt lat="45.9456130" lon="9.5844150">
	<ele>1728.40</ele>
	<time>2023-10-07T07:53:48.000Z</time>
</trkpt>
<trkpt lat="45.9456160" lon="9.5844120">
	<ele>1728.60</ele>
	<time>2023-10-07T07:53:49.000Z</time>
</trkpt>
<trkpt lat="45.9456180" lon="9.5844100">
	<ele>1728.80</ele>
	<time>2023-10-07T07:53:50.000Z</time>
</trkpt>
<trkpt lat="45.9456200" lon="9.5844070">
	<ele>1728.80</ele>
	<time>2023-10-07T07:53:51.000Z</time>
</trkpt>
<trkpt lat="45.9456210" lon="9.5844060">
	<ele>1729.00</ele>
	<time>2023-10-07T07:53:52.000Z</time>
</trkpt>
<trkpt lat="45.9456210" lon="9.5844050">
	<ele>1729.20</ele>
	<time>2023-10-07T07:53:53.000Z</time>
</trkpt>
<trkpt lat="45.9456240" lon="9.5844010">
	<ele>1729.40</ele>
	<time>2023-10-07T07:53:54.000Z</time>
</trkpt>
<trkpt lat="45.9456260" lon="9.5843960">
	<ele>1729.40</ele>
	<time>2023-10-07T07:53:55.000Z</time>
</trkpt>
<trkpt lat="45.9456270" lon="9.5843910">
	<ele>1729.80</ele>
	<time>2023-10-07T07:53:56.000Z</time>
</trkpt>
<trkpt lat="45.9456280" lon="9.5843870">
	<ele>1730.00</ele>
	<time>2023-10-07T07:53:57.000Z</time>
</trkpt>
<trkpt lat="45.9456290" lon="9.5843850">
	<ele>1730.20</ele>
	<time>2023-10-07T07:53:58.000Z</time>
</trkpt>
<trkpt lat="45.9456300" lon="9.5843810">
	<ele>1730.40</ele>
	<time>2023-10-07T07:53:59.000Z</time>
</trkpt>
<trkpt lat="45.9456310" lon="9.5843750">
	<ele>1730.40</ele>
	<time>2023-10-07T07:54:00.000Z</time>
</trkpt>
<trkpt lat="45.9456320" lon="9.5843710">
	<ele>1730.60</ele>
	<time>2023-10-07T07:54:01.000Z</time>
</trkpt>
<trkpt lat="45.9456330" lon="9.5843660">
	<ele>1730.60</ele>
	<time>2023-10-07T07:54:02.000Z</time>
</trkpt>
<trkpt lat="45.9456330" lon="9.5843590">
	<ele>1730.80</ele>
	<time>2023-10-07T07:54:03.000Z</time>
</trkpt>
<trkpt lat="45.9456340" lon="9.5843530">
	<ele>1730.80</ele>
	<time>2023-10-07T07:54:04.000Z</time>
</trkpt>
<trkpt lat="45.9456330" lon="9.5843470">
	<ele>1731.00</ele>
	<time>2023-10-07T07:54:05.000Z</time>
</trkpt>
<trkpt lat="45.9456340" lon="9.5843450">
	<ele>1731.20</ele>
	<time>2023-10-07T07:54:06.000Z</time>
</trkpt>
<trkpt lat="45.9456360" lon="9.5843380">
	<ele>1731.40</ele>
	<time>2023-10-07T07:54:07.000Z</time>
</trkpt>
<trkpt lat="45.9456380" lon="9.5843330">
	<ele>1731.60</ele>
	<time>2023-10-07T07:54:08.000Z</time>
</trkpt>
<trkpt lat="45.9456400" lon="9.5843290">
	<ele>1731.60</ele>
	<time>2023-10-07T07:54:09.000Z</time>
</trkpt>
<trkpt lat="45.9456420" lon="9.5843260">
	<ele>1731.80</ele>
	<time>2023-10-07T07:54:10.000Z</time>
</trkpt>
<trkpt lat="45.9456450" lon="9.5843220">
	<ele>1731.80</ele>
	<time>2023-10-07T07:54:11.000Z</time>
</trkpt>
<trkpt lat="45.9456480" lon="9.5843150">
	<ele>1732.00</ele>
	<time>2023-10-07T07:54:12.000Z</time>
</trkpt>
<trkpt lat="45.9456510" lon="9.5843100">
	<ele>1732.20</ele>
	<time>2023-10-07T07:54:13.000Z</time>
</trkpt>
<trkpt lat="45.9456540" lon="9.5843050">
	<ele>1732.20</ele>
	<time>2023-10-07T07:54:14.000Z</time>
</trkpt>
<trkpt lat="45.9456570" lon="9.5842990">
	<ele>1732.60</ele>
	<time>2023-10-07T07:54:15.000Z</time>
</trkpt>
<trkpt lat="45.9456630" lon="9.5842940">
	<ele>1732.80</ele>
	<time>2023-10-07T07:54:16.000Z</time>
</trkpt>
<trkpt lat="45.9456640" lon="9.5842880">
	<ele>1732.80</ele>
	<time>2023-10-07T07:54:17.000Z</time>
</trkpt>
<trkpt lat="45.9456630" lon="9.5842820">
	<ele>1733.00</ele>
	<time>2023-10-07T07:54:18.000Z</time>
</trkpt>
<trkpt lat="45.9456610" lon="9.5842720">
	<ele>1733.20</ele>
	<time>2023-10-07T07:54:19.000Z</time>
</trkpt>
<trkpt lat="45.9456620" lon="9.5842620">
	<ele>1733.20</ele>
	<time>2023-10-07T07:54:20.000Z</time>
</trkpt>
<trkpt lat="45.9456630" lon="9.5842550">
	<ele>1733.20</ele>
	<time>2023-10-07T07:54:21.000Z</time>
</trkpt>
<trkpt lat="45.9456610" lon="9.5842480">
	<ele>1733.40</ele>
	<time>2023-10-07T07:54:22.000Z</time>
</trkpt>
<trkpt lat="45.9456630" lon="9.5842420">
	<ele>1733.40</ele>
	<time>2023-10-07T07:54:23.000Z</time>
</trkpt>
<trkpt lat="45.9456650" lon="9.5842360">
	<ele>1733.40</ele>
	<time>2023-10-07T07:54:24.000Z</time>
</trkpt>
<trkpt lat="45.9456660" lon="9.5842280">
	<ele>1733.60</ele>
	<time>2023-10-07T07:54:25.000Z</time>
</trkpt>
<trkpt lat="45.9456700" lon="9.5842220">
	<ele>1733.80</ele>
	<time>2023-10-07T07:54:26.000Z</time>
</trkpt>
<trkpt lat="45.9456740" lon="9.5842150">
	<ele>1733.80</ele>
	<time>2023-10-07T07:54:27.000Z</time>
</trkpt>
<trkpt lat="45.9456770" lon="9.5842120">
	<ele>1734.00</ele>
	<time>2023-10-07T07:54:28.000Z</time>
</trkpt>
<trkpt lat="45.9456780" lon="9.5842040">
	<ele>1734.20</ele>
	<time>2023-10-07T07:54:29.000Z</time>
</trkpt>
<trkpt lat="45.9456790" lon="9.5841960">
	<ele>1734.40</ele>
	<time>2023-10-07T07:54:30.000Z</time>
</trkpt>
<trkpt lat="45.9456790" lon="9.5841910">
	<ele>1734.40</ele>
	<time>2023-10-07T07:54:31.000Z</time>
</trkpt>
<trkpt lat="45.9456810" lon="9.5841820">
	<ele>1734.60</ele>
	<time>2023-10-07T07:54:32.000Z</time>
</trkpt>
<trkpt lat="45.9456820" lon="9.5841720">
	<ele>1734.80</ele>
	<time>2023-10-07T07:54:33.000Z</time>
</trkpt>
<trkpt lat="45.9456840" lon="9.5841650">
	<ele>1734.80</ele>
	<time>2023-10-07T07:54:34.000Z</time>
</trkpt>
<trkpt lat="45.9456840" lon="9.5841590">
	<ele>1735.00</ele>
	<time>2023-10-07T07:54:35.000Z</time>
</trkpt>
<trkpt lat="45.9456850" lon="9.5841580">
	<ele>1735.00</ele>
	<time>2023-10-07T07:54:36.000Z</time>
</trkpt>
<trkpt lat="45.9456870" lon="9.5841590">
	<ele>1735.00</ele>
	<time>2023-10-07T07:54:37.000Z</time>
</trkpt>
<trkpt lat="45.9456900" lon="9.5841590">
	<ele>1735.20</ele>
	<time>2023-10-07T07:54:38.000Z</time>
</trkpt>
<trkpt lat="45.9456910" lon="9.5841610">
	<ele>1735.40</ele>
	<time>2023-10-07T07:54:39.000Z</time>
</trkpt>
<trkpt lat="45.9456910" lon="9.5841610">
	<ele>1735.20</ele>
	<time>2023-10-07T07:54:40.000Z</time>
</trkpt>
<trkpt lat="45.9456910" lon="9.5841600">
	<ele>1735.20</ele>
	<time>2023-10-07T07:54:41.000Z</time>
</trkpt>
<trkpt lat="45.9456910" lon="9.5841600">
	<ele>1735.40</ele>
	<time>2023-10-07T07:54:42.000Z</time>
</trkpt>
<trkpt lat="45.9456910" lon="9.5841600">
	<ele>1735.60</ele>
	<time>2023-10-07T07:54:43.000Z</time>
</trkpt>
<trkpt lat="45.9456900" lon="9.5841590">
	<ele>1735.60</ele>
	<time>2023-10-07T07:54:44.000Z</time>
</trkpt>
<trkpt lat="45.9456910" lon="9.5841590">
	<ele>1735.40</ele>
	<time>2023-10-07T07:54:45.000Z</time>
</trkpt>
<trkpt lat="45.9456910" lon="9.5841590">
	<ele>1735.40</ele>
	<time>2023-10-07T07:54:46.000Z</time>
</trkpt>
<trkpt lat="45.9456910" lon="9.5841590">
	<ele>1735.40</ele>
	<time>2023-10-07T07:54:47.000Z</time>
</trkpt>
<trkpt lat="45.9456910" lon="9.5841590">
	<ele>1735.60</ele>
	<time>2023-10-07T07:54:48.000Z</time>
</trkpt>
<trkpt lat="45.9456910" lon="9.5841590">
	<ele>1735.60</ele>
	<time>2023-10-07T07:54:49.000Z</time>
</trkpt>
<trkpt lat="45.9456910" lon="9.5841590">
	<ele>1735.60</ele>
	<time>2023-10-07T07:54:50.000Z</time>
</trkpt>
<trkpt lat="45.9456910" lon="9.5841590">
	<ele>1735.60</ele>
	<time>2023-10-07T07:54:51.000Z</time>
</trkpt>
<trkpt lat="45.9456910" lon="9.5841590">
	<ele>1735.60</ele>
	<time>2023-10-07T07:54:52.000Z</time>
</trkpt>
<trkpt lat="45.9456910" lon="9.5841590">
	<ele>1735.80</ele>
	<time>2023-10-07T07:54:53.000Z</time>
</trkpt>
<trkpt lat="45.9456910" lon="9.5841590">
	<ele>1735.80</ele>
	<time>2023-10-07T07:54:54.000Z</time>
</trkpt>
<trkpt lat="45.9456910" lon="9.5841590">
	<ele>1735.80</ele>
	<time>2023-10-07T07:54:55.000Z</time>
</trkpt>
<trkpt lat="45.9456910" lon="9.5841590">
	<ele>1735.80</ele>
	<time>2023-10-07T07:54:56.000Z</time>
</trkpt>
<trkpt lat="45.9456910" lon="9.5841590">
	<ele>1735.60</ele>
	<time>2023-10-07T07:54:57.000Z</time>
</trkpt>
<trkpt lat="45.9456910" lon="9.5841590">
	<ele>1735.60</ele>
	<time>2023-10-07T07:54:58.000Z</time>
</trkpt>
<trkpt lat="45.9456910" lon="9.5841590">
	<ele>1735.60</ele>
	<time>2023-10-07T07:54:59.000Z</time>
</trkpt>
<trkpt lat="45.9456910" lon="9.5841590">
	<ele>1735.60</ele>
	<time>2023-10-07T07:55:00.000Z</time>
</trkpt>
<trkpt lat="45.9456910" lon="9.5841590">
	<ele>1735.60</ele>
	<time>2023-10-07T07:55:01.000Z</time>
</trkpt>
<trkpt lat="45.9456910" lon="9.5841590">
	<ele>1735.60</ele>
	<time>2023-10-07T07:55:02.000Z</time>
</trkpt>
<trkpt lat="45.9456910" lon="9.5841590">
	<ele>1735.60</ele>
	<time>2023-10-07T07:55:03.000Z</time>
</trkpt>
<trkpt lat="45.9456910" lon="9.5841590">
	<ele>1735.60</ele>
	<time>2023-10-07T07:55:04.000Z</time>
</trkpt>
<trkpt lat="45.9456910" lon="9.5841590">
	<ele>1735.60</ele>
	<time>2023-10-07T07:55:05.000Z</time>
</trkpt>
<trkpt lat="45.9456910" lon="9.5841590">
	<ele>1735.60</ele>
	<time>2023-10-07T07:55:06.000Z</time>
</trkpt>
<trkpt lat="45.9456910" lon="9.5841590">
	<ele>1735.80</ele>
	<time>2023-10-07T07:55:07.000Z</time>
</trkpt>
<trkpt lat="45.9456910" lon="9.5841590">
	<ele>1735.80</ele>
	<time>2023-10-07T07:55:08.000Z</time>
</trkpt>
<trkpt lat="45.9456910" lon="9.5841590">
	<ele>1735.80</ele>
	<time>2023-10-07T07:55:09.000Z</time>
</trkpt>
<trkpt lat="45.9456930" lon="9.5841590">
	<ele>1735.80</ele>
	<time>2023-10-07T07:55:10.000Z</time>
</trkpt>
<trkpt lat="45.9456930" lon="9.5841590">
	<ele>1735.80</ele>
	<time>2023-10-07T07:55:11.000Z</time>
</trkpt>
<trkpt lat="45.9456930" lon="9.5841590">
	<ele>1735.80</ele>
	<time>2023-10-07T07:55:12.000Z</time>
</trkpt>
<trkpt lat="45.9456930" lon="9.5841590">
	<ele>1735.80</ele>
	<time>2023-10-07T07:55:13.000Z</time>
</trkpt>
<trkpt lat="45.9456930" lon="9.5841600">
	<ele>1735.80</ele>
	<time>2023-10-07T07:55:14.000Z</time>
</trkpt>
<trkpt lat="45.9456930" lon="9.5841600">
	<ele>1735.80</ele>
	<time>2023-10-07T07:55:15.000Z</time>
</trkpt>
<trkpt lat="45.9456930" lon="9.5841600">
	<ele>1735.80</ele>
	<time>2023-10-07T07:55:16.000Z</time>
</trkpt>
<trkpt lat="45.9456930" lon="9.5841610">
	<ele>1735.80</ele>
	<time>2023-10-07T07:55:17.000Z</time>
</trkpt>
<trkpt lat="45.9456930" lon="9.5841610">
	<ele>1735.80</ele>
	<time>2023-10-07T07:55:18.000Z</time>
</trkpt>
<trkpt lat="45.9456930" lon="9.5841610">
	<ele>1735.60</ele>
	<time>2023-10-07T07:55:19.000Z</time>
</trkpt>
<trkpt lat="45.9456930" lon="9.5841610">
	<ele>1735.60</ele>
	<time>2023-10-07T07:55:20.000Z</time>
</trkpt>
<trkpt lat="45.9456930" lon="9.5841610">
	<ele>1735.40</ele>
	<time>2023-10-07T07:55:21.000Z</time>
</trkpt>
<trkpt lat="45.9456930" lon="9.5841610">
	<ele>1735.40</ele>
	<time>2023-10-07T07:55:22.000Z</time>
</trkpt>
<trkpt lat="45.9456930" lon="9.5841610">
	<ele>1735.40</ele>
	<time>2023-10-07T07:55:23.000Z</time>
</trkpt>
<trkpt lat="45.9456930" lon="9.5841610">
	<ele>1735.40</ele>
	<time>2023-10-07T07:55:24.000Z</time>
</trkpt>
<trkpt lat="45.9456930" lon="9.5841610">
	<ele>1735.60</ele>
	<time>2023-10-07T07:55:25.000Z</time>
</trkpt>
<trkpt lat="45.9456930" lon="9.5841620">
	<ele>1735.60</ele>
	<time>2023-10-07T07:55:26.000Z</time>
</trkpt>
<trkpt lat="45.9456930" lon="9.5841620">
	<ele>1735.80</ele>
	<time>2023-10-07T07:55:27.000Z</time>
</trkpt>
<trkpt lat="45.9456930" lon="9.5841620">
	<ele>1735.80</ele>
	<time>2023-10-07T07:55:28.000Z</time>
</trkpt>
<trkpt lat="45.9456920" lon="9.5841620">
	<ele>1735.80</ele>
	<time>2023-10-07T07:55:29.000Z</time>
</trkpt>
<trkpt lat="45.9456910" lon="9.5841620">
	<ele>1736.00</ele>
	<time>2023-10-07T07:55:30.000Z</time>
</trkpt>
<trkpt lat="45.9456900" lon="9.5841620">
	<ele>1736.00</ele>
	<time>2023-10-07T07:55:31.000Z</time>
</trkpt>
<trkpt lat="45.9456900" lon="9.5841620">
	<ele>1736.20</ele>
	<time>2023-10-07T07:55:32.000Z</time>
</trkpt>
<trkpt lat="45.9456900" lon="9.5841630">
	<ele>1736.20</ele>
	<time>2023-10-07T07:55:33.000Z</time>
</trkpt>
<trkpt lat="45.9456900" lon="9.5841630">
	<ele>1736.20</ele>
	<time>2023-10-07T07:55:34.000Z</time>
</trkpt>
<trkpt lat="45.9456900" lon="9.5841630">
	<ele>1736.20</ele>
	<time>2023-10-07T07:55:35.000Z</time>
</trkpt>
<trkpt lat="45.9456900" lon="9.5841630">
	<ele>1736.20</ele>
	<time>2023-10-07T07:55:36.000Z</time>
</trkpt>
<trkpt lat="45.9456900" lon="9.5841630">
	<ele>1736.00</ele>
	<time>2023-10-07T07:55:37.000Z</time>
</trkpt>
<trkpt lat="45.9456900" lon="9.5841650">
	<ele>1736.00</ele>
	<time>2023-10-07T07:55:38.000Z</time>
</trkpt>
<trkpt lat="45.9456900" lon="9.5841660">
	<ele>1736.00</ele>
	<time>2023-10-07T07:55:39.000Z</time>
</trkpt>
<trkpt lat="45.9456900" lon="9.5841660">
	<ele>1736.00</ele>
	<time>2023-10-07T07:55:40.000Z</time>
</trkpt>
<trkpt lat="45.9456900" lon="9.5841660">
	<ele>1736.00</ele>
	<time>2023-10-07T07:55:41.000Z</time>
</trkpt>
<trkpt lat="45.9456890" lon="9.5841660">
	<ele>1736.00</ele>
	<time>2023-10-07T07:55:42.000Z</time>
</trkpt>
<trkpt lat="45.9456890" lon="9.5841660">
	<ele>1736.00</ele>
	<time>2023-10-07T07:55:43.000Z</time>
</trkpt>
<trkpt lat="45.9456890" lon="9.5841670">
	<ele>1736.20</ele>
	<time>2023-10-07T07:55:44.000Z</time>
</trkpt>
<trkpt lat="45.9456880" lon="9.5841670">
	<ele>1736.20</ele>
	<time>2023-10-07T07:55:45.000Z</time>
</trkpt>
<trkpt lat="45.9456880" lon="9.5841670">
	<ele>1736.40</ele>
	<time>2023-10-07T07:55:46.000Z</time>
</trkpt>
<trkpt lat="45.9456880" lon="9.5841670">
	<ele>1736.40</ele>
	<time>2023-10-07T07:55:47.000Z</time>
</trkpt>
<trkpt lat="45.9456880" lon="9.5841670">
	<ele>1736.40</ele>
	<time>2023-10-07T07:55:48.000Z</time>
</trkpt>
<trkpt lat="45.9456880" lon="9.5841670">
	<ele>1736.40</ele>
	<time>2023-10-07T07:55:49.000Z</time>
</trkpt>
<trkpt lat="45.9456890" lon="9.5841670">
	<ele>1736.40</ele>
	<time>2023-10-07T07:55:50.000Z</time>
</trkpt>
<trkpt lat="45.9456890" lon="9.5841670">
	<ele>1736.40</ele>
	<time>2023-10-07T07:55:51.000Z</time>
</trkpt>
<trkpt lat="45.9456890" lon="9.5841670">
	<ele>1736.40</ele>
	<time>2023-10-07T07:55:52.000Z</time>
</trkpt>
<trkpt lat="45.9456890" lon="9.5841670">
	<ele>1736.40</ele>
	<time>2023-10-07T07:55:53.000Z</time>
</trkpt>
<trkpt lat="45.9456900" lon="9.5841670">
	<ele>1736.40</ele>
	<time>2023-10-07T07:55:54.000Z</time>
</trkpt>
<trkpt lat="45.9456900" lon="9.5841660">
	<ele>1736.40</ele>
	<time>2023-10-07T07:55:55.000Z</time>
</trkpt>
<trkpt lat="45.9456900" lon="9.5841660">
	<ele>1736.20</ele>
	<time>2023-10-07T07:55:56.000Z</time>
</trkpt>
<trkpt lat="45.9456900" lon="9.5841660">
	<ele>1736.20</ele>
	<time>2023-10-07T07:55:57.000Z</time>
</trkpt>
<trkpt lat="45.9456900" lon="9.5841650">
	<ele>1736.00</ele>
	<time>2023-10-07T07:55:58.000Z</time>
</trkpt>
<trkpt lat="45.9456900" lon="9.5841650">
	<ele>1736.20</ele>
	<time>2023-10-07T07:55:59.000Z</time>
</trkpt>
<trkpt lat="45.9456880" lon="9.5841650">
	<ele>1736.20</ele>
	<time>2023-10-07T07:56:00.000Z</time>
</trkpt>
<trkpt lat="45.9456870" lon="9.5841650">
	<ele>1736.20</ele>
	<time>2023-10-07T07:56:01.000Z</time>
</trkpt>
<trkpt lat="45.9456860" lon="9.5841650">
	<ele>1736.40</ele>
	<time>2023-10-07T07:56:02.000Z</time>
</trkpt>
<trkpt lat="45.9456860" lon="9.5841650">
	<ele>1736.40</ele>
	<time>2023-10-07T07:56:03.000Z</time>
</trkpt>
<trkpt lat="45.9456860" lon="9.5841640">
	<ele>1736.40</ele>
	<time>2023-10-07T07:56:04.000Z</time>
</trkpt>
<trkpt lat="45.9456860" lon="9.5841640">
	<ele>1736.40</ele>
	<time>2023-10-07T07:56:05.000Z</time>
</trkpt>
<trkpt lat="45.9456860" lon="9.5841640">
	<ele>1736.40</ele>
	<time>2023-10-07T07:56:06.000Z</time>
</trkpt>
<trkpt lat="45.9456860" lon="9.5841630">
	<ele>1736.40</ele>
	<time>2023-10-07T07:56:07.000Z</time>
</trkpt>
<trkpt lat="45.9456860" lon="9.5841620">
	<ele>1736.40</ele>
	<time>2023-10-07T07:56:08.000Z</time>
</trkpt>
<trkpt lat="45.9456860" lon="9.5841620">
	<ele>1736.40</ele>
	<time>2023-10-07T07:56:09.000Z</time>
</trkpt>
<trkpt lat="45.9456860" lon="9.5841620">
	<ele>1736.40</ele>
	<time>2023-10-07T07:56:10.000Z</time>
</trkpt>
<trkpt lat="45.9456860" lon="9.5841620">
	<ele>1736.20</ele>
	<time>2023-10-07T07:56:11.000Z</time>
</trkpt>
<trkpt lat="45.9456860" lon="9.5841620">
	<ele>1736.20</ele>
	<time>2023-10-07T07:56:12.000Z</time>
</trkpt>
<trkpt lat="45.9456860" lon="9.5841620">
	<ele>1736.20</ele>
	<time>2023-10-07T07:56:13.000Z</time>
</trkpt>
<trkpt lat="45.9456860" lon="9.5841620">
	<ele>1736.20</ele>
	<time>2023-10-07T07:56:14.000Z</time>
</trkpt>
<trkpt lat="45.9456870" lon="9.5841620">
	<ele>1736.20</ele>
	<time>2023-10-07T07:56:15.000Z</time>
</trkpt>
<trkpt lat="45.9456870" lon="9.5841620">
	<ele>1736.20</ele>
	<time>2023-10-07T07:56:16.000Z</time>
</trkpt>
<trkpt lat="45.9456870" lon="9.5841620">
	<ele>1736.20</ele>
	<time>2023-10-07T07:56:17.000Z</time>
</trkpt>
<trkpt lat="45.9456880" lon="9.5841620">
	<ele>1736.20</ele>
	<time>2023-10-07T07:56:18.000Z</time>
</trkpt>
<trkpt lat="45.9456880" lon="9.5841620">
	<ele>1736.20</ele>
	<time>2023-10-07T07:56:19.000Z</time>
</trkpt>
<trkpt lat="45.9456880" lon="9.5841620">
	<ele>1736.20</ele>
	<time>2023-10-07T07:56:20.000Z</time>
</trkpt>
<trkpt lat="45.9456880" lon="9.5841620">
	<ele>1736.20</ele>
	<time>2023-10-07T07:56:21.000Z</time>
</trkpt>
<trkpt lat="45.9456880" lon="9.5841620">
	<ele>1736.20</ele>
	<time>2023-10-07T07:56:22.000Z</time>
</trkpt>
<trkpt lat="45.9456880" lon="9.5841630">
	<ele>1736.20</ele>
	<time>2023-10-07T07:56:23.000Z</time>
</trkpt>
<trkpt lat="45.9456880" lon="9.5841640">
	<ele>1736.40</ele>
	<time>2023-10-07T07:56:24.000Z</time>
</trkpt>
<trkpt lat="45.9456890" lon="9.5841660">
	<ele>1736.40</ele>
	<time>2023-10-07T07:56:25.000Z</time>
</trkpt>
<trkpt lat="45.9456900" lon="9.5841670">
	<ele>1736.60</ele>
	<time>2023-10-07T07:56:26.000Z</time>
</trkpt>
<trkpt lat="45.9456910" lon="9.5841670">
	<ele>1736.60</ele>
	<time>2023-10-07T07:56:27.000Z</time>
</trkpt>
<trkpt lat="45.9456910" lon="9.5841670">
	<ele>1736.60</ele>
	<time>2023-10-07T07:56:28.000Z</time>
</trkpt>
<trkpt lat="45.9456930" lon="9.5841680">
	<ele>1736.60</ele>
	<time>2023-10-07T07:56:29.000Z</time>
</trkpt>
<trkpt lat="45.9456940" lon="9.5841680">
	<ele>1736.40</ele>
	<time>2023-10-07T07:56:30.000Z</time>
</trkpt>
<trkpt lat="45.9456950" lon="9.5841680">
	<ele>1736.20</ele>
	<time>2023-10-07T07:56:31.000Z</time>
</trkpt>
<trkpt lat="45.9456950" lon="9.5841680">
	<ele>1736.20</ele>
	<time>2023-10-07T07:56:32.000Z</time>
</trkpt>
<trkpt lat="45.9456960" lon="9.5841690">
	<ele>1736.00</ele>
	<time>2023-10-07T07:56:33.000Z</time>
</trkpt>
<trkpt lat="45.9456960" lon="9.5841690">
	<ele>1736.00</ele>
	<time>2023-10-07T07:56:34.000Z</time>
</trkpt>
<trkpt lat="45.9456960" lon="9.5841690">
	<ele>1736.00</ele>
	<time>2023-10-07T07:56:35.000Z</time>
</trkpt>
<trkpt lat="45.9456970" lon="9.5841690">
	<ele>1736.00</ele>
	<time>2023-10-07T07:56:36.000Z</time>
</trkpt>
<trkpt lat="45.9456970" lon="9.5841700">
	<ele>1736.40</ele>
	<time>2023-10-07T07:56:37.000Z</time>
</trkpt>
<trkpt lat="45.9456970" lon="9.5841700">
	<ele>1736.60</ele>
	<time>2023-10-07T07:56:38.000Z</time>
</trkpt>
<trkpt lat="45.9456980" lon="9.5841700">
	<ele>1736.80</ele>
	<time>2023-10-07T07:56:39.000Z</time>
</trkpt>
<trkpt lat="45.9456990" lon="9.5841710">
	<ele>1737.00</ele>
	<time>2023-10-07T07:56:40.000Z</time>
</trkpt>
<trkpt lat="45.9457010" lon="9.5841710">
	<ele>1737.20</ele>
	<time>2023-10-07T07:56:41.000Z</time>
</trkpt>
<trkpt lat="45.9457040" lon="9.5841720">
	<ele>1737.20</ele>
	<time>2023-10-07T07:56:42.000Z</time>
</trkpt>
<trkpt lat="45.9457060" lon="9.5841720">
	<ele>1737.20</ele>
	<time>2023-10-07T07:56:43.000Z</time>
</trkpt>
<trkpt lat="45.9457070" lon="9.5841720">
	<ele>1737.20</ele>
	<time>2023-10-07T07:56:44.000Z</time>
</trkpt>
<trkpt lat="45.9457080" lon="9.5841730">
	<ele>1737.20</ele>
	<time>2023-10-07T07:56:45.000Z</time>
</trkpt>
<trkpt lat="45.9457090" lon="9.5841740">
	<ele>1737.20</ele>
	<time>2023-10-07T07:56:46.000Z</time>
</trkpt>
<trkpt lat="45.9457090" lon="9.5841740">
	<ele>1737.20</ele>
	<time>2023-10-07T07:56:47.000Z</time>
</trkpt>
<trkpt lat="45.9457100" lon="9.5841750">
	<ele>1737.00</ele>
	<time>2023-10-07T07:56:48.000Z</time>
</trkpt>
<trkpt lat="45.9457100" lon="9.5841760">
	<ele>1737.00</ele>
	<time>2023-10-07T07:56:49.000Z</time>
</trkpt>
<trkpt lat="45.9457100" lon="9.5841770">
	<ele>1737.00</ele>
	<time>2023-10-07T07:56:50.000Z</time>
</trkpt>
<trkpt lat="45.9457100" lon="9.5841780">
	<ele>1736.80</ele>
	<time>2023-10-07T07:56:51.000Z</time>
</trkpt>
<trkpt lat="45.9457100" lon="9.5841790">
	<ele>1736.80</ele>
	<time>2023-10-07T07:56:52.000Z</time>
</trkpt>
<trkpt lat="45.9457110" lon="9.5841800">
	<ele>1736.80</ele>
	<time>2023-10-07T07:56:53.000Z</time>
</trkpt>
<trkpt lat="45.9457110" lon="9.5841810">
	<ele>1736.80</ele>
	<time>2023-10-07T07:56:54.000Z</time>
</trkpt>
<trkpt lat="45.9457110" lon="9.5841810">
	<ele>1737.00</ele>
	<time>2023-10-07T07:56:55.000Z</time>
</trkpt>
<trkpt lat="45.9457110" lon="9.5841830">
	<ele>1737.00</ele>
	<time>2023-10-07T07:56:56.000Z</time>
</trkpt>
<trkpt lat="45.9457110" lon="9.5841840">
	<ele>1737.00</ele>
	<time>2023-10-07T07:56:57.000Z</time>
</trkpt>
<trkpt lat="45.9457120" lon="9.5841850">
	<ele>1737.00</ele>
	<time>2023-10-07T07:56:58.000Z</time>
</trkpt>
<trkpt lat="45.9457120" lon="9.5841850">
	<ele>1737.00</ele>
	<time>2023-10-07T07:56:59.000Z</time>
</trkpt>
<trkpt lat="45.9457130" lon="9.5841860">
	<ele>1737.00</ele>
	<time>2023-10-07T07:57:00.000Z</time>
</trkpt>
<trkpt lat="45.9457140" lon="9.5841860">
	<ele>1737.00</ele>
	<time>2023-10-07T07:57:01.000Z</time>
</trkpt>
<trkpt lat="45.9457150" lon="9.5841870">
	<ele>1737.00</ele>
	<time>2023-10-07T07:57:02.000Z</time>
</trkpt>
<trkpt lat="45.9457160" lon="9.5841870">
	<ele>1737.20</ele>
	<time>2023-10-07T07:57:03.000Z</time>
</trkpt>
<trkpt lat="45.9457170" lon="9.5841870">
	<ele>1737.20</ele>
	<time>2023-10-07T07:57:04.000Z</time>
</trkpt>
<trkpt lat="45.9457180" lon="9.5841870">
	<ele>1737.40</ele>
	<time>2023-10-07T07:57:05.000Z</time>
</trkpt>
<trkpt lat="45.9457190" lon="9.5841880">
	<ele>1737.60</ele>
	<time>2023-10-07T07:57:06.000Z</time>
</trkpt>
<trkpt lat="45.9457200" lon="9.5841880">
	<ele>1737.80</ele>
	<time>2023-10-07T07:57:07.000Z</time>
</trkpt>
<trkpt lat="45.9457210" lon="9.5841880">
	<ele>1737.80</ele>
	<time>2023-10-07T07:57:08.000Z</time>
</trkpt>
<trkpt lat="45.9457220" lon="9.5841890">
	<ele>1737.80</ele>
	<time>2023-10-07T07:57:09.000Z</time>
</trkpt>
<trkpt lat="45.9457220" lon="9.5841890">
	<ele>1737.60</ele>
	<time>2023-10-07T07:57:10.000Z</time>
</trkpt>
<trkpt lat="45.9457230" lon="9.5841900">
	<ele>1737.60</ele>
	<time>2023-10-07T07:57:11.000Z</time>
</trkpt>
<trkpt lat="45.9457230" lon="9.5841900">
	<ele>1737.40</ele>
	<time>2023-10-07T07:57:12.000Z</time>
</trkpt>
<trkpt lat="45.9457240" lon="9.5841910">
	<ele>1737.40</ele>
	<time>2023-10-07T07:57:13.000Z</time>
</trkpt>
<trkpt lat="45.9457240" lon="9.5841910">
	<ele>1737.40</ele>
	<time>2023-10-07T07:57:14.000Z</time>
</trkpt>
<trkpt lat="45.9457240" lon="9.5841910">
	<ele>1737.40</ele>
	<time>2023-10-07T07:57:15.000Z</time>
</trkpt>
<trkpt lat="45.9457250" lon="9.5841920">
	<ele>1737.20</ele>
	<time>2023-10-07T07:57:16.000Z</time>
</trkpt>
<trkpt lat="45.9457250" lon="9.5841920">
	<ele>1737.20</ele>
	<time>2023-10-07T07:57:17.000Z</time>
</trkpt>
<trkpt lat="45.9457250" lon="9.5841920">
	<ele>1737.20</ele>
	<time>2023-10-07T07:57:18.000Z</time>
</trkpt>
<trkpt lat="45.9457250" lon="9.5841920">
	<ele>1737.20</ele>
	<time>2023-10-07T07:57:19.000Z</time>
</trkpt>
<trkpt lat="45.9457250" lon="9.5841920">
	<ele>1737.20</ele>
	<time>2023-10-07T07:57:20.000Z</time>
</trkpt>
<trkpt lat="45.9457250" lon="9.5841930">
	<ele>1737.40</ele>
	<time>2023-10-07T07:57:21.000Z</time>
</trkpt>
<trkpt lat="45.9457250" lon="9.5841930">
	<ele>1737.60</ele>
	<time>2023-10-07T07:57:22.000Z</time>
</trkpt>
<trkpt lat="45.9457250" lon="9.5841930">
	<ele>1737.60</ele>
	<time>2023-10-07T07:57:23.000Z</time>
</trkpt>
<trkpt lat="45.9457250" lon="9.5841930">
	<ele>1737.60</ele>
	<time>2023-10-07T07:57:24.000Z</time>
</trkpt>
<trkpt lat="45.9457250" lon="9.5841930">
	<ele>1737.60</ele>
	<time>2023-10-07T07:57:25.000Z</time>
</trkpt>
<trkpt lat="45.9457250" lon="9.5841930">
	<ele>1737.60</ele>
	<time>2023-10-07T07:57:26.000Z</time>
</trkpt>
<trkpt lat="45.9457250" lon="9.5841930">
	<ele>1737.60</ele>
	<time>2023-10-07T07:57:27.000Z</time>
</trkpt>
<trkpt lat="45.9457250" lon="9.5841930">
	<ele>1737.60</ele>
	<time>2023-10-07T07:57:28.000Z</time>
</trkpt>
<trkpt lat="45.9457250" lon="9.5841930">
	<ele>1737.60</ele>
	<time>2023-10-07T07:57:29.000Z</time>
</trkpt>
<trkpt lat="45.9457250" lon="9.5841930">
	<ele>1737.40</ele>
	<time>2023-10-07T07:57:30.000Z</time>
</trkpt>
<trkpt lat="45.9457250" lon="9.5841930">
	<ele>1737.60</ele>
	<time>2023-10-07T07:57:31.000Z</time>
</trkpt>
<trkpt lat="45.9457240" lon="9.5841930">
	<ele>1737.60</ele>
	<time>2023-10-07T07:57:32.000Z</time>
</trkpt>
<trkpt lat="45.9457240" lon="9.5841930">
	<ele>1737.40</ele>
	<time>2023-10-07T07:57:33.000Z</time>
</trkpt>
<trkpt lat="45.9457240" lon="9.5841930">
	<ele>1737.60</ele>
	<time>2023-10-07T07:57:34.000Z</time>
</trkpt>
<trkpt lat="45.9457230" lon="9.5841860">
	<ele>1737.80</ele>
	<time>2023-10-07T07:57:35.000Z</time>
</trkpt>
<trkpt lat="45.9457230" lon="9.5841680">
	<ele>1738.00</ele>
	<time>2023-10-07T07:57:36.000Z</time>
</trkpt>
<trkpt lat="45.9457210" lon="9.5841530">
	<ele>1738.20</ele>
	<time>2023-10-07T07:57:37.000Z</time>
</trkpt>
<trkpt lat="45.9457200" lon="9.5841410">
	<ele>1738.40</ele>
	<time>2023-10-07T07:57:38.000Z</time>
</trkpt>
<trkpt lat="45.9457170" lon="9.5841260">
	<ele>1738.40</ele>
	<time>2023-10-07T07:57:39.000Z</time>
</trkpt>
<trkpt lat="45.9457120" lon="9.5841080">
	<ele>1738.60</ele>
	<time>2023-10-07T07:57:40.000Z</time>
</trkpt>
<trkpt lat="45.9457140" lon="9.5840940">
	<ele>1738.60</ele>
	<time>2023-10-07T07:57:41.000Z</time>
</trkpt>
<trkpt lat="45.9457130" lon="9.5840800">
	<ele>1738.60</ele>
	<time>2023-10-07T07:57:42.000Z</time>
</trkpt>
<trkpt lat="45.9457150" lon="9.5840640">
	<ele>1738.60</ele>
	<time>2023-10-07T07:57:43.000Z</time>
</trkpt>
<trkpt lat="45.9457160" lon="9.5840510">
	<ele>1738.80</ele>
	<time>2023-10-07T07:57:44.000Z</time>
</trkpt>
<trkpt lat="45.9457170" lon="9.5840440">
	<ele>1739.00</ele>
	<time>2023-10-07T07:57:45.000Z</time>
</trkpt>
<trkpt lat="45.9457190" lon="9.5840340">
	<ele>1739.00</ele>
	<time>2023-10-07T07:57:46.000Z</time>
</trkpt>
<trkpt lat="45.9457190" lon="9.5840200">
	<ele>1739.20</ele>
	<time>2023-10-07T07:57:47.000Z</time>
</trkpt>
<trkpt lat="45.9457220" lon="9.5840100">
	<ele>1739.60</ele>
	<time>2023-10-07T07:57:48.000Z</time>
</trkpt>
<trkpt lat="45.9457270" lon="9.5840040">
	<ele>1739.60</ele>
	<time>2023-10-07T07:57:49.000Z</time>
</trkpt>
<trkpt lat="45.9457290" lon="9.5839970">
	<ele>1739.80</ele>
	<time>2023-10-07T07:57:50.000Z</time>
</trkpt>
<trkpt lat="45.9457310" lon="9.5839890">
	<ele>1739.80</ele>
	<time>2023-10-07T07:57:51.000Z</time>
</trkpt>
<trkpt lat="45.9457290" lon="9.5839800">
	<ele>1740.00</ele>
	<time>2023-10-07T07:57:52.000Z</time>
</trkpt>
<trkpt lat="45.9457300" lon="9.5839670">
	<ele>1740.00</ele>
	<time>2023-10-07T07:57:53.000Z</time>
</trkpt>
<trkpt lat="45.9457310" lon="9.5839600">
	<ele>1740.20</ele>
	<time>2023-10-07T07:57:54.000Z</time>
</trkpt>
<trkpt lat="45.9457330" lon="9.5839560">
	<ele>1740.40</ele>
	<time>2023-10-07T07:57:55.000Z</time>
</trkpt>
<trkpt lat="45.9457330" lon="9.5839460">
	<ele>1740.40</ele>
	<time>2023-10-07T07:57:56.000Z</time>
</trkpt>
<trkpt lat="45.9457350" lon="9.5839410">
	<ele>1740.40</ele>
	<time>2023-10-07T07:57:57.000Z</time>
</trkpt>
<trkpt lat="45.9457360" lon="9.5839350">
	<ele>1740.60</ele>
	<time>2023-10-07T07:57:58.000Z</time>
</trkpt>
<trkpt lat="45.9457380" lon="9.5839280">
	<ele>1740.60</ele>
	<time>2023-10-07T07:57:59.000Z</time>
</trkpt>
<trkpt lat="45.9457370" lon="9.5839170">
	<ele>1740.80</ele>
	<time>2023-10-07T07:58:00.000Z</time>
</trkpt>
<trkpt lat="45.9457350" lon="9.5839050">
	<ele>1740.80</ele>
	<time>2023-10-07T07:58:01.000Z</time>
</trkpt>
<trkpt lat="45.9457340" lon="9.5838960">
	<ele>1740.80</ele>
	<time>2023-10-07T07:58:02.000Z</time>
</trkpt>
<trkpt lat="45.9457320" lon="9.5838850">
	<ele>1741.00</ele>
	<time>2023-10-07T07:58:03.000Z</time>
</trkpt>
<trkpt lat="45.9457300" lon="9.5838770">
	<ele>1741.00</ele>
	<time>2023-10-07T07:58:04.000Z</time>
</trkpt>
<trkpt lat="45.9457290" lon="9.5838650">
	<ele>1741.00</ele>
	<time>2023-10-07T07:58:05.000Z</time>
</trkpt>
<trkpt lat="45.9457300" lon="9.5838540">
	<ele>1741.00</ele>
	<time>2023-10-07T07:58:06.000Z</time>
</trkpt>
<trkpt lat="45.9457270" lon="9.5838440">
	<ele>1741.00</ele>
	<time>2023-10-07T07:58:07.000Z</time>
</trkpt>
<trkpt lat="45.9457280" lon="9.5838330">
	<ele>1741.00</ele>
	<time>2023-10-07T07:58:08.000Z</time>
</trkpt>
<trkpt lat="45.9457300" lon="9.5838260">
	<ele>1741.20</ele>
	<time>2023-10-07T07:58:09.000Z</time>
</trkpt>
<trkpt lat="45.9457290" lon="9.5838180">
	<ele>1741.20</ele>
	<time>2023-10-07T07:58:10.000Z</time>
</trkpt>
<trkpt lat="45.9457310" lon="9.5838080">
	<ele>1741.40</ele>
	<time>2023-10-07T07:58:11.000Z</time>
</trkpt>
<trkpt lat="45.9457340" lon="9.5837960">
	<ele>1741.40</ele>
	<time>2023-10-07T07:58:12.000Z</time>
</trkpt>
<trkpt lat="45.9457330" lon="9.5837880">
	<ele>1741.40</ele>
	<time>2023-10-07T07:58:13.000Z</time>
</trkpt>
<trkpt lat="45.9457340" lon="9.5837820">
	<ele>1741.40</ele>
	<time>2023-10-07T07:58:14.000Z</time>
</trkpt>
<trkpt lat="45.9457340" lon="9.5837720">
	<ele>1741.60</ele>
	<time>2023-10-07T07:58:15.000Z</time>
</trkpt>
<trkpt lat="45.9457380" lon="9.5837630">
	<ele>1741.60</ele>
	<time>2023-10-07T07:58:16.000Z</time>
</trkpt>
<trkpt lat="45.9457400" lon="9.5837600">
	<ele>1741.80</ele>
	<time>2023-10-07T07:58:17.000Z</time>
</trkpt>
<trkpt lat="45.9457440" lon="9.5837560">
	<ele>1742.00</ele>
	<time>2023-10-07T07:58:18.000Z</time>
</trkpt>
<trkpt lat="45.9457440" lon="9.5837460">
	<ele>1742.00</ele>
	<time>2023-10-07T07:58:19.000Z</time>
</trkpt>
<trkpt lat="45.9457440" lon="9.5837370">
	<ele>1742.20</ele>
	<time>2023-10-07T07:58:20.000Z</time>
</trkpt>
<trkpt lat="45.9457430" lon="9.5837310">
	<ele>1742.40</ele>
	<time>2023-10-07T07:58:21.000Z</time>
</trkpt>
<trkpt lat="45.9457410" lon="9.5837200">
	<ele>1742.60</ele>
	<time>2023-10-07T07:58:22.000Z</time>
</trkpt>
<trkpt lat="45.9457410" lon="9.5837130">
	<ele>1742.80</ele>
	<time>2023-10-07T07:58:23.000Z</time>
</trkpt>
<trkpt lat="45.9457410" lon="9.5837070">
	<ele>1742.80</ele>
	<time>2023-10-07T07:58:24.000Z</time>
</trkpt>
<trkpt lat="45.9457430" lon="9.5837000">
	<ele>1743.00</ele>
	<time>2023-10-07T07:58:25.000Z</time>
</trkpt>
<trkpt lat="45.9457430" lon="9.5836910">
	<ele>1743.00</ele>
	<time>2023-10-07T07:58:26.000Z</time>
</trkpt>
<trkpt lat="45.9457430" lon="9.5836780">
	<ele>1743.20</ele>
	<time>2023-10-07T07:58:27.000Z</time>
</trkpt>
<trkpt lat="45.9457440" lon="9.5836650">
	<ele>1743.20</ele>
	<time>2023-10-07T07:58:28.000Z</time>
</trkpt>
<trkpt lat="45.9457480" lon="9.5836590">
	<ele>1743.40</ele>
	<time>2023-10-07T07:58:29.000Z</time>
</trkpt>
<trkpt lat="45.9457500" lon="9.5836470">
	<ele>1743.40</ele>
	<time>2023-10-07T07:58:30.000Z</time>
</trkpt>
<trkpt lat="45.9457490" lon="9.5836390">
	<ele>1743.40</ele>
	<time>2023-10-07T07:58:31.000Z</time>
</trkpt>
<trkpt lat="45.9457490" lon="9.5836290">
	<ele>1743.60</ele>
	<time>2023-10-07T07:58:32.000Z</time>
</trkpt>
<trkpt lat="45.9457480" lon="9.5836170">
	<ele>1743.60</ele>
	<time>2023-10-07T07:58:33.000Z</time>
</trkpt>
<trkpt lat="45.9457490" lon="9.5836090">
	<ele>1743.80</ele>
	<time>2023-10-07T07:58:34.000Z</time>
</trkpt>
<trkpt lat="45.9457490" lon="9.5836010">
	<ele>1743.80</ele>
	<time>2023-10-07T07:58:35.000Z</time>
</trkpt>
<trkpt lat="45.9457480" lon="9.5835900">
	<ele>1743.80</ele>
	<time>2023-10-07T07:58:36.000Z</time>
</trkpt>
<trkpt lat="45.9457480" lon="9.5835780">
	<ele>1744.00</ele>
	<time>2023-10-07T07:58:37.000Z</time>
</trkpt>
<trkpt lat="45.9457530" lon="9.5835740">
	<ele>1744.00</ele>
	<time>2023-10-07T07:58:38.000Z</time>
</trkpt>
<trkpt lat="45.9457520" lon="9.5835670">
	<ele>1744.20</ele>
	<time>2023-10-07T07:58:39.000Z</time>
</trkpt>
<trkpt lat="45.9457510" lon="9.5835580">
	<ele>1744.40</ele>
	<time>2023-10-07T07:58:40.000Z</time>
</trkpt>
<trkpt lat="45.9457510" lon="9.5835480">
	<ele>1744.60</ele>
	<time>2023-10-07T07:58:41.000Z</time>
</trkpt>
<trkpt lat="45.9457510" lon="9.5835430">
	<ele>1744.60</ele>
	<time>2023-10-07T07:58:42.000Z</time>
</trkpt>
<trkpt lat="45.9457520" lon="9.5835340">
	<ele>1744.60</ele>
	<time>2023-10-07T07:58:43.000Z</time>
</trkpt>
<trkpt lat="45.9457510" lon="9.5835250">
	<ele>1744.80</ele>
	<time>2023-10-07T07:58:44.000Z</time>
</trkpt>
<trkpt lat="45.9457480" lon="9.5835170">
	<ele>1744.80</ele>
	<time>2023-10-07T07:58:45.000Z</time>
</trkpt>
<trkpt lat="45.9457460" lon="9.5835070">
	<ele>1744.80</ele>
	<time>2023-10-07T07:58:46.000Z</time>
</trkpt>
<trkpt lat="45.9457450" lon="9.5834980">
	<ele>1745.00</ele>
	<time>2023-10-07T07:58:47.000Z</time>
</trkpt>
<trkpt lat="45.9457440" lon="9.5834900">
	<ele>1745.20</ele>
	<time>2023-10-07T07:58:48.000Z</time>
</trkpt>
<trkpt lat="45.9457440" lon="9.5834830">
	<ele>1745.20</ele>
	<time>2023-10-07T07:58:49.000Z</time>
</trkpt>
<trkpt lat="45.9457460" lon="9.5834750">
	<ele>1745.40</ele>
	<time>2023-10-07T07:58:50.000Z</time>
</trkpt>
<trkpt lat="45.9457470" lon="9.5834670">
	<ele>1745.60</ele>
	<time>2023-10-07T07:58:51.000Z</time>
</trkpt>
<trkpt lat="45.9457500" lon="9.5834610">
	<ele>1745.60</ele>
	<time>2023-10-07T07:58:52.000Z</time>
</trkpt>
<trkpt lat="45.9457490" lon="9.5834480">
	<ele>1745.80</ele>
	<time>2023-10-07T07:58:53.000Z</time>
</trkpt>
<trkpt lat="45.9457470" lon="9.5834380">
	<ele>1746.00</ele>
	<time>2023-10-07T07:58:54.000Z</time>
</trkpt>
<trkpt lat="45.9457490" lon="9.5834320">
	<ele>1746.20</ele>
	<time>2023-10-07T07:58:55.000Z</time>
</trkpt>
<trkpt lat="45.9457510" lon="9.5834240">
	<ele>1746.40</ele>
	<time>2023-10-07T07:58:56.000Z</time>
</trkpt>
<trkpt lat="45.9457520" lon="9.5834170">
	<ele>1746.60</ele>
	<time>2023-10-07T07:58:57.000Z</time>
</trkpt>
<trkpt lat="45.9457530" lon="9.5834120">
	<ele>1746.60</ele>
	<time>2023-10-07T07:58:58.000Z</time>
</trkpt>
<trkpt lat="45.9457540" lon="9.5834080">
	<ele>1746.80</ele>
	<time>2023-10-07T07:58:59.000Z</time>
</trkpt>
<trkpt lat="45.9457550" lon="9.5833980">
	<ele>1747.00</ele>
	<time>2023-10-07T07:59:00.000Z</time>
</trkpt>
<trkpt lat="45.9457570" lon="9.5833840">
	<ele>1747.00</ele>
	<time>2023-10-07T07:59:01.000Z</time>
</trkpt>
<trkpt lat="45.9457580" lon="9.5833800">
	<ele>1747.00</ele>
	<time>2023-10-07T07:59:02.000Z</time>
</trkpt>
<trkpt lat="45.9457620" lon="9.5833770">
	<ele>1747.20</ele>
	<time>2023-10-07T07:59:03.000Z</time>
</trkpt>
<trkpt lat="45.9457660" lon="9.5833710">
	<ele>1747.40</ele>
	<time>2023-10-07T07:59:04.000Z</time>
</trkpt>
<trkpt lat="45.9457690" lon="9.5833660">
	<ele>1747.60</ele>
	<time>2023-10-07T07:59:05.000Z</time>
</trkpt>
<trkpt lat="45.9457700" lon="9.5833620">
	<ele>1747.80</ele>
	<time>2023-10-07T07:59:06.000Z</time>
</trkpt>
<trkpt lat="45.9457730" lon="9.5833600">
	<ele>1747.80</ele>
	<time>2023-10-07T07:59:07.000Z</time>
</trkpt>
<trkpt lat="45.9457740" lon="9.5833560">
	<ele>1748.00</ele>
	<time>2023-10-07T07:59:08.000Z</time>
</trkpt>
<trkpt lat="45.9457750" lon="9.5833520">
	<ele>1748.00</ele>
	<time>2023-10-07T07:59:09.000Z</time>
</trkpt>
<trkpt lat="45.9457770" lon="9.5833470">
	<ele>1748.00</ele>
	<time>2023-10-07T07:59:10.000Z</time>
</trkpt>
<trkpt lat="45.9457780" lon="9.5833400">
	<ele>1748.00</ele>
	<time>2023-10-07T07:59:11.000Z</time>
</trkpt>
<trkpt lat="45.9457800" lon="9.5833330">
	<ele>1748.20</ele>
	<time>2023-10-07T07:59:12.000Z</time>
</trkpt>
<trkpt lat="45.9457800" lon="9.5833270">
	<ele>1748.20</ele>
	<time>2023-10-07T07:59:13.000Z</time>
</trkpt>
<trkpt lat="45.9457810" lon="9.5833220">
	<ele>1748.40</ele>
	<time>2023-10-07T07:59:14.000Z</time>
</trkpt>
<trkpt lat="45.9457790" lon="9.5833130">
	<ele>1748.60</ele>
	<time>2023-10-07T07:59:15.000Z</time>
</trkpt>
<trkpt lat="45.9457780" lon="9.5833030">
	<ele>1748.60</ele>
	<time>2023-10-07T07:59:16.000Z</time>
</trkpt>
<trkpt lat="45.9457770" lon="9.5832950">
	<ele>1748.80</ele>
	<time>2023-10-07T07:59:17.000Z</time>
</trkpt>
<trkpt lat="45.9457760" lon="9.5832840">
	<ele>1748.80</ele>
	<time>2023-10-07T07:59:18.000Z</time>
</trkpt>
<trkpt lat="45.9457750" lon="9.5832740">
	<ele>1749.00</ele>
	<time>2023-10-07T07:59:19.000Z</time>
</trkpt>
<trkpt lat="45.9457760" lon="9.5832630">
	<ele>1749.20</ele>
	<time>2023-10-07T07:59:20.000Z</time>
</trkpt>
<trkpt lat="45.9457810" lon="9.5832570">
	<ele>1749.40</ele>
	<time>2023-10-07T07:59:21.000Z</time>
</trkpt>
<trkpt lat="45.9457830" lon="9.5832510">
	<ele>1749.40</ele>
	<time>2023-10-07T07:59:22.000Z</time>
</trkpt>
<trkpt lat="45.9457870" lon="9.5832430">
	<ele>1749.40</ele>
	<time>2023-10-07T07:59:23.000Z</time>
</trkpt>
<trkpt lat="45.9457890" lon="9.5832360">
	<ele>1749.60</ele>
	<time>2023-10-07T07:59:24.000Z</time>
</trkpt>
<trkpt lat="45.9457890" lon="9.5832330">
	<ele>1749.80</ele>
	<time>2023-10-07T07:59:25.000Z</time>
</trkpt>
<trkpt lat="45.9457890" lon="9.5832310">
	<ele>1750.00</ele>
	<time>2023-10-07T07:59:26.000Z</time>
</trkpt>
<trkpt lat="45.9457910" lon="9.5832250">
	<ele>1750.20</ele>
	<time>2023-10-07T07:59:27.000Z</time>
</trkpt>
<trkpt lat="45.9457930" lon="9.5832170">
	<ele>1750.40</ele>
	<time>2023-10-07T07:59:28.000Z</time>
</trkpt>
<trkpt lat="45.9457960" lon="9.5832120">
	<ele>1750.40</ele>
	<time>2023-10-07T07:59:29.000Z</time>
</trkpt>
<trkpt lat="45.9457960" lon="9.5832030">
	<ele>1750.60</ele>
	<time>2023-10-07T07:59:30.000Z</time>
</trkpt>
<trkpt lat="45.9457950" lon="9.5831950">
	<ele>1750.80</ele>
	<time>2023-10-07T07:59:31.000Z</time>
</trkpt>
<trkpt lat="45.9457950" lon="9.5831840">
	<ele>1750.80</ele>
	<time>2023-10-07T07:59:32.000Z</time>
</trkpt>
<trkpt lat="45.9457960" lon="9.5831740">
	<ele>1750.80</ele>
	<time>2023-10-07T07:59:33.000Z</time>
</trkpt>
<trkpt lat="45.9457970" lon="9.5831680">
	<ele>1751.00</ele>
	<time>2023-10-07T07:59:34.000Z</time>
</trkpt>
<trkpt lat="45.9457990" lon="9.5831620">
	<ele>1751.00</ele>
	<time>2023-10-07T07:59:35.000Z</time>
</trkpt>
<trkpt lat="45.9458020" lon="9.5831510">
	<ele>1751.00</ele>
	<time>2023-10-07T07:59:36.000Z</time>
</trkpt>
<trkpt lat="45.9458040" lon="9.5831430">
	<ele>1751.00</ele>
	<time>2023-10-07T07:59:37.000Z</time>
</trkpt>
<trkpt lat="45.9458090" lon="9.5831370">
	<ele>1751.00</ele>
	<time>2023-10-07T07:59:38.000Z</time>
</trkpt>
<trkpt lat="45.9458120" lon="9.5831320">
	<ele>1751.00</ele>
	<time>2023-10-07T07:59:39.000Z</time>
</trkpt>
<trkpt lat="45.9458150" lon="9.5831240">
	<ele>1751.20</ele>
	<time>2023-10-07T07:59:40.000Z</time>
</trkpt>
<trkpt lat="45.9458210" lon="9.5831150">
	<ele>1751.20</ele>
	<time>2023-10-07T07:59:41.000Z</time>
</trkpt>
<trkpt lat="45.9458230" lon="9.5831050">
	<ele>1751.40</ele>
	<time>2023-10-07T07:59:42.000Z</time>
</trkpt>
<trkpt lat="45.9458230" lon="9.5830910">
	<ele>1751.40</ele>
	<time>2023-10-07T07:59:43.000Z</time>
</trkpt>
<trkpt lat="45.9458220" lon="9.5830820">
	<ele>1751.60</ele>
	<time>2023-10-07T07:59:44.000Z</time>
</trkpt>
<trkpt lat="45.9458240" lon="9.5830710">
	<ele>1751.60</ele>
	<time>2023-10-07T07:59:45.000Z</time>
</trkpt>
<trkpt lat="45.9458260" lon="9.5830640">
	<ele>1751.60</ele>
	<time>2023-10-07T07:59:46.000Z</time>
</trkpt>
<trkpt lat="45.9458320" lon="9.5830550">
	<ele>1751.80</ele>
	<time>2023-10-07T07:59:47.000Z</time>
</trkpt>
<trkpt lat="45.9458350" lon="9.5830510">
	<ele>1751.80</ele>
	<time>2023-10-07T07:59:48.000Z</time>
</trkpt>
<trkpt lat="45.9458390" lon="9.5830440">
	<ele>1752.00</ele>
	<time>2023-10-07T07:59:49.000Z</time>
</trkpt>
<trkpt lat="45.9458440" lon="9.5830370">
	<ele>1752.00</ele>
	<time>2023-10-07T07:59:50.000Z</time>
</trkpt>
<trkpt lat="45.9458490" lon="9.5830330">
	<ele>1752.20</ele>
	<time>2023-10-07T07:59:51.000Z</time>
</trkpt>
<trkpt lat="45.9458510" lon="9.5830310">
	<ele>1752.40</ele>
	<time>2023-10-07T07:59:52.000Z</time>
</trkpt>
<trkpt lat="45.9458530" lon="9.5830240">
	<ele>1752.60</ele>
	<time>2023-10-07T07:59:53.000Z</time>
</trkpt>
<trkpt lat="45.9458570" lon="9.5830200">
	<ele>1752.80</ele>
	<time>2023-10-07T07:59:54.000Z</time>
</trkpt>
<trkpt lat="45.9458630" lon="9.5830160">
	<ele>1753.00</ele>
	<time>2023-10-07T07:59:55.000Z</time>
</trkpt>
<trkpt lat="45.9458660" lon="9.5830150">
	<ele>1753.20</ele>
	<time>2023-10-07T07:59:56.000Z</time>
</trkpt>
<trkpt lat="45.9458700" lon="9.5830090">
	<ele>1753.40</ele>
	<time>2023-10-07T07:59:57.000Z</time>
</trkpt>
<trkpt lat="45.9458730" lon="9.5830020">
	<ele>1753.40</ele>
	<time>2023-10-07T07:59:58.000Z</time>
</trkpt>
<trkpt lat="45.9458760" lon="9.5829960">
	<ele>1753.60</ele>
	<time>2023-10-07T07:59:59.000Z</time>
</trkpt>
<trkpt lat="45.9458770" lon="9.5829910">
	<ele>1753.80</ele>
	<time>2023-10-07T08:00:00.000Z</time>
</trkpt>
<trkpt lat="45.9458760" lon="9.5829830">
	<ele>1754.00</ele>
	<time>2023-10-07T08:00:01.000Z</time>
</trkpt>
<trkpt lat="45.9458750" lon="9.5829750">
	<ele>1754.00</ele>
	<time>2023-10-07T08:00:02.000Z</time>
</trkpt>
<trkpt lat="45.9458750" lon="9.5829690">
	<ele>1754.20</ele>
	<time>2023-10-07T08:00:03.000Z</time>
</trkpt>
<trkpt lat="45.9458750" lon="9.5829610">
	<ele>1754.40</ele>
	<time>2023-10-07T08:00:04.000Z</time>
</trkpt>
<trkpt lat="45.9458770" lon="9.5829530">
	<ele>1754.40</ele>
	<time>2023-10-07T08:00:05.000Z</time>
</trkpt>
<trkpt lat="45.9458760" lon="9.5829480">
	<ele>1754.60</ele>
	<time>2023-10-07T08:00:06.000Z</time>
</trkpt>
<trkpt lat="45.9458760" lon="9.5829430">
	<ele>1754.80</ele>
	<time>2023-10-07T08:00:07.000Z</time>
</trkpt>
<trkpt lat="45.9458760" lon="9.5829390">
	<ele>1754.80</ele>
	<time>2023-10-07T08:00:08.000Z</time>
</trkpt>
<trkpt lat="45.9458780" lon="9.5829320">
	<ele>1755.00</ele>
	<time>2023-10-07T08:00:09.000Z</time>
</trkpt>
<trkpt lat="45.9458790" lon="9.5829250">
	<ele>1755.00</ele>
	<time>2023-10-07T08:00:10.000Z</time>
</trkpt>
<trkpt lat="45.9458810" lon="9.5829200">
	<ele>1755.20</ele>
	<time>2023-10-07T08:00:11.000Z</time>
</trkpt>
<trkpt lat="45.9458820" lon="9.5829150">
	<ele>1755.40</ele>
	<time>2023-10-07T08:00:12.000Z</time>
</trkpt>
<trkpt lat="45.9458830" lon="9.5829070">
	<ele>1755.40</ele>
	<time>2023-10-07T08:00:13.000Z</time>
</trkpt>
<trkpt lat="45.9458840" lon="9.5829000">
	<ele>1755.60</ele>
	<time>2023-10-07T08:00:14.000Z</time>
</trkpt>
<trkpt lat="45.9458820" lon="9.5828940">
	<ele>1755.80</ele>
	<time>2023-10-07T08:00:15.000Z</time>
</trkpt>
<trkpt lat="45.9458840" lon="9.5828860">
	<ele>1755.80</ele>
	<time>2023-10-07T08:00:16.000Z</time>
</trkpt>
<trkpt lat="45.9458850" lon="9.5828780">
	<ele>1756.00</ele>
	<time>2023-10-07T08:00:17.000Z</time>
</trkpt>
<trkpt lat="45.9458880" lon="9.5828710">
	<ele>1756.00</ele>
	<time>2023-10-07T08:00:18.000Z</time>
</trkpt>
<trkpt lat="45.9458900" lon="9.5828660">
	<ele>1756.20</ele>
	<time>2023-10-07T08:00:19.000Z</time>
</trkpt>
<trkpt lat="45.9458920" lon="9.5828590">
	<ele>1756.20</ele>
	<time>2023-10-07T08:00:20.000Z</time>
</trkpt>
<trkpt lat="45.9458960" lon="9.5828500">
	<ele>1756.40</ele>
	<time>2023-10-07T08:00:21.000Z</time>
</trkpt>
<trkpt lat="45.9458980" lon="9.5828450">
	<ele>1756.60</ele>
	<time>2023-10-07T08:00:22.000Z</time>
</trkpt>
<trkpt lat="45.9458970" lon="9.5828340">
	<ele>1756.60</ele>
	<time>2023-10-07T08:00:23.000Z</time>
</trkpt>
<trkpt lat="45.9458970" lon="9.5828250">
	<ele>1756.80</ele>
	<time>2023-10-07T08:00:24.000Z</time>
</trkpt>
<trkpt lat="45.9458960" lon="9.5828130">
	<ele>1756.80</ele>
	<time>2023-10-07T08:00:25.000Z</time>
</trkpt>
<trkpt lat="45.9458970" lon="9.5828050">
	<ele>1756.80</ele>
	<time>2023-10-07T08:00:26.000Z</time>
</trkpt>
<trkpt lat="45.9459000" lon="9.5827960">
	<ele>1757.00</ele>
	<time>2023-10-07T08:00:27.000Z</time>
</trkpt>
<trkpt lat="45.9459020" lon="9.5827910">
	<ele>1757.20</ele>
	<time>2023-10-07T08:00:28.000Z</time>
</trkpt>
<trkpt lat="45.9459040" lon="9.5827850">
	<ele>1757.40</ele>
	<time>2023-10-07T08:00:29.000Z</time>
</trkpt>
<trkpt lat="45.9459070" lon="9.5827800">
	<ele>1757.60</ele>
	<time>2023-10-07T08:00:30.000Z</time>
</trkpt>
<trkpt lat="45.9459070" lon="9.5827760">
	<ele>1757.80</ele>
	<time>2023-10-07T08:00:31.000Z</time>
</trkpt>
<trkpt lat="45.9459060" lon="9.5827670">
	<ele>1757.80</ele>
	<time>2023-10-07T08:00:32.000Z</time>
</trkpt>
<trkpt lat="45.9459060" lon="9.5827570">
	<ele>1757.80</ele>
	<time>2023-10-07T08:00:33.000Z</time>
</trkpt>
<trkpt lat="45.9459100" lon="9.5827520">
	<ele>1758.00</ele>
	<time>2023-10-07T08:00:34.000Z</time>
</trkpt>
<trkpt lat="45.9459130" lon="9.5827480">
	<ele>1758.20</ele>
	<time>2023-10-07T08:00:35.000Z</time>
</trkpt>
<trkpt lat="45.9459140" lon="9.5827430">
	<ele>1758.40</ele>
	<time>2023-10-07T08:00:36.000Z</time>
</trkpt>
<trkpt lat="45.9459150" lon="9.5827370">
	<ele>1758.60</ele>
	<time>2023-10-07T08:00:37.000Z</time>
</trkpt>
<trkpt lat="45.9459170" lon="9.5827310">
	<ele>1758.80</ele>
	<time>2023-10-07T08:00:38.000Z</time>
</trkpt>
<trkpt lat="45.9459190" lon="9.5827220">
	<ele>1758.80</ele>
	<time>2023-10-07T08:00:39.000Z</time>
</trkpt>
<trkpt lat="45.9459240" lon="9.5827180">
	<ele>1758.80</ele>
	<time>2023-10-07T08:00:40.000Z</time>
</trkpt>
<trkpt lat="45.9459280" lon="9.5827100">
	<ele>1759.00</ele>
	<time>2023-10-07T08:00:41.000Z</time>
</trkpt>
<trkpt lat="45.9459280" lon="9.5827040">
	<ele>1759.20</ele>
	<time>2023-10-07T08:00:42.000Z</time>
</trkpt>
<trkpt lat="45.9459250" lon="9.5826940">
	<ele>1759.40</ele>
	<time>2023-10-07T08:00:43.000Z</time>
</trkpt>
<trkpt lat="45.9459240" lon="9.5826870">
	<ele>1759.60</ele>
	<time>2023-10-07T08:00:44.000Z</time>
</trkpt>
<trkpt lat="45.9459260" lon="9.5826810">
	<ele>1759.80</ele>
	<time>2023-10-07T08:00:45.000Z</time>
</trkpt>
<trkpt lat="45.9459260" lon="9.5826770">
	<ele>1759.80</ele>
	<time>2023-10-07T08:00:46.000Z</time>
</trkpt>
<trkpt lat="45.9459250" lon="9.5826730">
	<ele>1760.00</ele>
	<time>2023-10-07T08:00:47.000Z</time>
</trkpt>
<trkpt lat="45.9459240" lon="9.5826670">
	<ele>1760.20</ele>
	<time>2023-10-07T08:00:48.000Z</time>
</trkpt>
<trkpt lat="45.9459240" lon="9.5826580">
	<ele>1760.20</ele>
	<time>2023-10-07T08:00:49.000Z</time>
</trkpt>
<trkpt lat="45.9459250" lon="9.5826510">
	<ele>1760.20</ele>
	<time>2023-10-07T08:00:50.000Z</time>
</trkpt>
<trkpt lat="45.9459260" lon="9.5826410">
	<ele>1760.40</ele>
	<time>2023-10-07T08:00:51.000Z</time>
</trkpt>
<trkpt lat="45.9459270" lon="9.5826350">
	<ele>1760.40</ele>
	<time>2023-10-07T08:00:52.000Z</time>
</trkpt>
<trkpt lat="45.9459300" lon="9.5826270">
	<ele>1760.60</ele>
	<time>2023-10-07T08:00:53.000Z</time>
</trkpt>
<trkpt lat="45.9459300" lon="9.5826190">
	<ele>1760.80</ele>
	<time>2023-10-07T08:00:54.000Z</time>
</trkpt>
<trkpt lat="45.9459340" lon="9.5826130">
	<ele>1761.00</ele>
	<time>2023-10-07T08:00:55.000Z</time>
</trkpt>
<trkpt lat="45.9459360" lon="9.5826090">
	<ele>1761.00</ele>
	<time>2023-10-07T08:00:56.000Z</time>
</trkpt>
<trkpt lat="45.9459360" lon="9.5826050">
	<ele>1761.20</ele>
	<time>2023-10-07T08:00:57.000Z</time>
</trkpt>
<trkpt lat="45.9459390" lon="9.5826000">
	<ele>1761.40</ele>
	<time>2023-10-07T08:00:58.000Z</time>
</trkpt>
<trkpt lat="45.9459390" lon="9.5825980">
	<ele>1761.60</ele>
	<time>2023-10-07T08:00:59.000Z</time>
</trkpt>
<trkpt lat="45.9459390" lon="9.5825930">
	<ele>1761.60</ele>
	<time>2023-10-07T08:01:00.000Z</time>
</trkpt>
<trkpt lat="45.9459400" lon="9.5825860">
	<ele>1761.80</ele>
	<time>2023-10-07T08:01:01.000Z</time>
</trkpt>
<trkpt lat="45.9459400" lon="9.5825760">
	<ele>1762.00</ele>
	<time>2023-10-07T08:01:02.000Z</time>
</trkpt>
<trkpt lat="45.9459420" lon="9.5825710">
	<ele>1762.20</ele>
	<time>2023-10-07T08:01:03.000Z</time>
</trkpt>
<trkpt lat="45.9459430" lon="9.5825670">
	<ele>1762.20</ele>
	<time>2023-10-07T08:01:04.000Z</time>
</trkpt>
<trkpt lat="45.9459450" lon="9.5825610">
	<ele>1762.40</ele>
	<time>2023-10-07T08:01:05.000Z</time>
</trkpt>
<trkpt lat="45.9459480" lon="9.5825580">
	<ele>1762.60</ele>
	<time>2023-10-07T08:01:06.000Z</time>
</trkpt>
<trkpt lat="45.9459500" lon="9.5825530">
	<ele>1762.60</ele>
	<time>2023-10-07T08:01:07.000Z</time>
</trkpt>
<trkpt lat="45.9459490" lon="9.5825490">
	<ele>1762.80</ele>
	<time>2023-10-07T08:01:08.000Z</time>
</trkpt>
<trkpt lat="45.9459490" lon="9.5825430">
	<ele>1762.80</ele>
	<time>2023-10-07T08:01:09.000Z</time>
</trkpt>
<trkpt lat="45.9459470" lon="9.5825360">
	<ele>1763.00</ele>
	<time>2023-10-07T08:01:10.000Z</time>
</trkpt>
<trkpt lat="45.9459490" lon="9.5825300">
	<ele>1763.00</ele>
	<time>2023-10-07T08:01:11.000Z</time>
</trkpt>
<trkpt lat="45.9459500" lon="9.5825240">
	<ele>1763.20</ele>
	<time>2023-10-07T08:01:12.000Z</time>
</trkpt>
<trkpt lat="45.9459490" lon="9.5825150">
	<ele>1763.40</ele>
	<time>2023-10-07T08:01:13.000Z</time>
</trkpt>
<trkpt lat="45.9459500" lon="9.5825110">
	<ele>1763.60</ele>
	<time>2023-10-07T08:01:14.000Z</time>
</trkpt>
<trkpt lat="45.9459560" lon="9.5825080">
	<ele>1763.80</ele>
	<time>2023-10-07T08:01:15.000Z</time>
</trkpt>
<trkpt lat="45.9459600" lon="9.5825050">
	<ele>1764.00</ele>
	<time>2023-10-07T08:01:16.000Z</time>
</trkpt>
<trkpt lat="45.9459600" lon="9.5825030">
	<ele>1764.20</ele>
	<time>2023-10-07T08:01:17.000Z</time>
</trkpt>
<trkpt lat="45.9459610" lon="9.5824990">
	<ele>1764.40</ele>
	<time>2023-10-07T08:01:18.000Z</time>
</trkpt>
<trkpt lat="45.9459620" lon="9.5824950">
	<ele>1764.40</ele>
	<time>2023-10-07T08:01:19.000Z</time>
</trkpt>
<trkpt lat="45.9459640" lon="9.5824920">
	<ele>1764.60</ele>
	<time>2023-10-07T08:01:20.000Z</time>
</trkpt>
<trkpt lat="45.9459660" lon="9.5824850">
	<ele>1764.60</ele>
	<time>2023-10-07T08:01:21.000Z</time>
</trkpt>
<trkpt lat="45.9459680" lon="9.5824760">
	<ele>1764.60</ele>
	<time>2023-10-07T08:01:22.000Z</time>
</trkpt>
<trkpt lat="45.9459700" lon="9.5824720">
	<ele>1765.00</ele>
	<time>2023-10-07T08:01:23.000Z</time>
</trkpt>
<trkpt lat="45.9459690" lon="9.5824690">
	<ele>1765.20</ele>
	<time>2023-10-07T08:01:24.000Z</time>
</trkpt>
<trkpt lat="45.9459710" lon="9.5824690">
	<ele>1765.40</ele>
	<time>2023-10-07T08:01:25.000Z</time>
</trkpt>
<trkpt lat="45.9459710" lon="9.5824650">
	<ele>1765.60</ele>
	<time>2023-10-07T08:01:26.000Z</time>
</trkpt>
<trkpt lat="45.9459700" lon="9.5824620">
	<ele>1765.80</ele>
	<time>2023-10-07T08:01:27.000Z</time>
</trkpt>
<trkpt lat="45.9459700" lon="9.5824590">
	<ele>1765.80</ele>
	<time>2023-10-07T08:01:28.000Z</time>
</trkpt>
<trkpt lat="45.9459710" lon="9.5824540">
	<ele>1765.80</ele>
	<time>2023-10-07T08:01:29.000Z</time>
</trkpt>
<trkpt lat="45.9459730" lon="9.5824470">
	<ele>1766.00</ele>
	<time>2023-10-07T08:01:30.000Z</time>
</trkpt>
<trkpt lat="45.9459750" lon="9.5824410">
	<ele>1766.00</ele>
	<time>2023-10-07T08:01:31.000Z</time>
</trkpt>
<trkpt lat="45.9459760" lon="9.5824380">
	<ele>1766.20</ele>
	<time>2023-10-07T08:01:32.000Z</time>
</trkpt>
<trkpt lat="45.9459790" lon="9.5824350">
	<ele>1766.40</ele>
	<time>2023-10-07T08:01:33.000Z</time>
</trkpt>
<trkpt lat="45.9459830" lon="9.5824310">
	<ele>1766.60</ele>
	<time>2023-10-07T08:01:34.000Z</time>
</trkpt>
<trkpt lat="45.9459860" lon="9.5824240">
	<ele>1766.60</ele>
	<time>2023-10-07T08:01:35.000Z</time>
</trkpt>
<trkpt lat="45.9459880" lon="9.5824200">
	<ele>1767.00</ele>
	<time>2023-10-07T08:01:36.000Z</time>
</trkpt>
<trkpt lat="45.9459870" lon="9.5824170">
	<ele>1767.00</ele>
	<time>2023-10-07T08:01:37.000Z</time>
</trkpt>
<trkpt lat="45.9459870" lon="9.5824140">
	<ele>1767.20</ele>
	<time>2023-10-07T08:01:38.000Z</time>
</trkpt>
<trkpt lat="45.9459870" lon="9.5824080">
	<ele>1767.20</ele>
	<time>2023-10-07T08:01:39.000Z</time>
</trkpt>
<trkpt lat="45.9459870" lon="9.5824010">
	<ele>1767.40</ele>
	<time>2023-10-07T08:01:40.000Z</time>
</trkpt>
<trkpt lat="45.9459880" lon="9.5823970">
	<ele>1767.40</ele>
	<time>2023-10-07T08:01:41.000Z</time>
</trkpt>
<trkpt lat="45.9459890" lon="9.5823920">
	<ele>1767.60</ele>
	<time>2023-10-07T08:01:42.000Z</time>
</trkpt>
<trkpt lat="45.9459910" lon="9.5823850">
	<ele>1767.60</ele>
	<time>2023-10-07T08:01:43.000Z</time>
</trkpt>
<trkpt lat="45.9459920" lon="9.5823770">
	<ele>1767.80</ele>
	<time>2023-10-07T08:01:44.000Z</time>
</trkpt>
<trkpt lat="45.9459940" lon="9.5823700">
	<ele>1768.20</ele>
	<time>2023-10-07T08:01:45.000Z</time>
</trkpt>
<trkpt lat="45.9459960" lon="9.5823630">
	<ele>1768.40</ele>
	<time>2023-10-07T08:01:46.000Z</time>
</trkpt>
<trkpt lat="45.9459970" lon="9.5823600">
	<ele>1768.60</ele>
	<time>2023-10-07T08:01:47.000Z</time>
</trkpt>
<trkpt lat="45.9459970" lon="9.5823530">
	<ele>1768.80</ele>
	<time>2023-10-07T08:01:48.000Z</time>
</trkpt>
<trkpt lat="45.9459980" lon="9.5823490">
	<ele>1768.80</ele>
	<time>2023-10-07T08:01:49.000Z</time>
</trkpt>
<trkpt lat="45.9459980" lon="9.5823460">
	<ele>1769.00</ele>
	<time>2023-10-07T08:01:50.000Z</time>
</trkpt>
<trkpt lat="45.9460020" lon="9.5823420">
	<ele>1769.00</ele>
	<time>2023-10-07T08:01:51.000Z</time>
</trkpt>
<trkpt lat="45.9460060" lon="9.5823380">
	<ele>1769.00</ele>
	<time>2023-10-07T08:01:52.000Z</time>
</trkpt>
<trkpt lat="45.9460050" lon="9.5823310">
	<ele>1769.20</ele>
	<time>2023-10-07T08:01:53.000Z</time>
</trkpt>
<trkpt lat="45.9460050" lon="9.5823260">
	<ele>1769.40</ele>
	<time>2023-10-07T08:01:54.000Z</time>
</trkpt>
<trkpt lat="45.9460100" lon="9.5823210">
	<ele>1769.40</ele>
	<time>2023-10-07T08:01:55.000Z</time>
</trkpt>
<trkpt lat="45.9460130" lon="9.5823150">
	<ele>1769.60</ele>
	<time>2023-10-07T08:01:56.000Z</time>
</trkpt>
<trkpt lat="45.9460150" lon="9.5823100">
	<ele>1769.80</ele>
	<time>2023-10-07T08:01:57.000Z</time>
</trkpt>
<trkpt lat="45.9460160" lon="9.5823040">
	<ele>1770.00</ele>
	<time>2023-10-07T08:01:58.000Z</time>
</trkpt>
<trkpt lat="45.9460170" lon="9.5822990">
	<ele>1770.20</ele>
	<time>2023-10-07T08:01:59.000Z</time>
</trkpt>
<trkpt lat="45.9460180" lon="9.5822900">
	<ele>1770.20</ele>
	<time>2023-10-07T08:02:00.000Z</time>
</trkpt>
<trkpt lat="45.9460210" lon="9.5822820">
	<ele>1770.40</ele>
	<time>2023-10-07T08:02:01.000Z</time>
</trkpt>
<trkpt lat="45.9460220" lon="9.5822760">
	<ele>1770.40</ele>
	<time>2023-10-07T08:02:02.000Z</time>
</trkpt>
<trkpt lat="45.9460250" lon="9.5822690">
	<ele>1770.40</ele>
	<time>2023-10-07T08:02:03.000Z</time>
</trkpt>
<trkpt lat="45.9460270" lon="9.5822620">
	<ele>1770.40</ele>
	<time>2023-10-07T08:02:04.000Z</time>
</trkpt>
<trkpt lat="45.9460270" lon="9.5822520">
	<ele>1770.60</ele>
	<time>2023-10-07T08:02:05.000Z</time>
</trkpt>
<trkpt lat="45.9460270" lon="9.5822450">
	<ele>1770.60</ele>
	<time>2023-10-07T08:02:06.000Z</time>
</trkpt>
<trkpt lat="45.9460280" lon="9.5822350">
	<ele>1771.00</ele>
	<time>2023-10-07T08:02:07.000Z</time>
</trkpt>
<trkpt lat="45.9460290" lon="9.5822270">
	<ele>1771.00</ele>
	<time>2023-10-07T08:02:08.000Z</time>
</trkpt>
<trkpt lat="45.9460320" lon="9.5822210">
	<ele>1771.20</ele>
	<time>2023-10-07T08:02:09.000Z</time>
</trkpt>
<trkpt lat="45.9460370" lon="9.5822170">
	<ele>1771.20</ele>
	<time>2023-10-07T08:02:10.000Z</time>
</trkpt>
<trkpt lat="45.9460390" lon="9.5822110">
	<ele>1771.40</ele>
	<time>2023-10-07T08:02:11.000Z</time>
</trkpt>
<trkpt lat="45.9460410" lon="9.5822060">
	<ele>1771.40</ele>
	<time>2023-10-07T08:02:12.000Z</time>
</trkpt>
<trkpt lat="45.9460440" lon="9.5821990">
	<ele>1771.60</ele>
	<time>2023-10-07T08:02:13.000Z</time>
</trkpt>
<trkpt lat="45.9460460" lon="9.5821950">
	<ele>1771.60</ele>
	<time>2023-10-07T08:02:14.000Z</time>
</trkpt>
<trkpt lat="45.9460480" lon="9.5821920">
	<ele>1771.80</ele>
	<time>2023-10-07T08:02:15.000Z</time>
</trkpt>
<trkpt lat="45.9460490" lon="9.5821860">
	<ele>1772.00</ele>
	<time>2023-10-07T08:02:16.000Z</time>
</trkpt>
<trkpt lat="45.9460510" lon="9.5821770">
	<ele>1772.00</ele>
	<time>2023-10-07T08:02:17.000Z</time>
</trkpt>
<trkpt lat="45.9460550" lon="9.5821700">
	<ele>1772.20</ele>
	<time>2023-10-07T08:02:18.000Z</time>
</trkpt>
<trkpt lat="45.9460580" lon="9.5821670">
	<ele>1772.40</ele>
	<time>2023-10-07T08:02:19.000Z</time>
</trkpt>
<trkpt lat="45.9460590" lon="9.5821600">
	<ele>1772.60</ele>
	<time>2023-10-07T08:02:20.000Z</time>
</trkpt>
<trkpt lat="45.9460590" lon="9.5821530">
	<ele>1772.60</ele>
	<time>2023-10-07T08:02:21.000Z</time>
</trkpt>
<trkpt lat="45.9460600" lon="9.5821450">
	<ele>1772.80</ele>
	<time>2023-10-07T08:02:22.000Z</time>
</trkpt>
<trkpt lat="45.9460600" lon="9.5821430">
	<ele>1773.20</ele>
	<time>2023-10-07T08:02:23.000Z</time>
</trkpt>
<trkpt lat="45.9460610" lon="9.5821380">
	<ele>1773.20</ele>
	<time>2023-10-07T08:02:24.000Z</time>
</trkpt>
<trkpt lat="45.9460610" lon="9.5821340">
	<ele>1773.40</ele>
	<time>2023-10-07T08:02:25.000Z</time>
</trkpt>
<trkpt lat="45.9460620" lon="9.5821290">
	<ele>1773.40</ele>
	<time>2023-10-07T08:02:26.000Z</time>
</trkpt>
<trkpt lat="45.9460640" lon="9.5821250">
	<ele>1773.40</ele>
	<time>2023-10-07T08:02:27.000Z</time>
</trkpt>
<trkpt lat="45.9460650" lon="9.5821210">
	<ele>1773.40</ele>
	<time>2023-10-07T08:02:28.000Z</time>
</trkpt>
<trkpt lat="45.9460660" lon="9.5821180">
	<ele>1773.40</ele>
	<time>2023-10-07T08:02:29.000Z</time>
</trkpt>
<trkpt lat="45.9460680" lon="9.5821100">
	<ele>1773.80</ele>
	<time>2023-10-07T08:02:30.000Z</time>
</trkpt>
<trkpt lat="45.9460700" lon="9.5821060">
	<ele>1773.80</ele>
	<time>2023-10-07T08:02:31.000Z</time>
</trkpt>
<trkpt lat="45.9460730" lon="9.5821030">
	<ele>1774.00</ele>
	<time>2023-10-07T08:02:32.000Z</time>
</trkpt>
<trkpt lat="45.9460740" lon="9.5820970">
	<ele>1774.20</ele>
	<time>2023-10-07T08:02:33.000Z</time>
</trkpt>
<trkpt lat="45.9460730" lon="9.5820920">
	<ele>1774.40</ele>
	<time>2023-10-07T08:02:34.000Z</time>
</trkpt>
<trkpt lat="45.9460740" lon="9.5820840">
	<ele>1774.40</ele>
	<time>2023-10-07T08:02:35.000Z</time>
</trkpt>
<trkpt lat="45.9460730" lon="9.5820760">
	<ele>1774.40</ele>
	<time>2023-10-07T08:02:36.000Z</time>
</trkpt>
<trkpt lat="45.9460740" lon="9.5820690">
	<ele>1774.60</ele>
	<time>2023-10-07T08:02:37.000Z</time>
</trkpt>
<trkpt lat="45.9460740" lon="9.5820630">
	<ele>1774.80</ele>
	<time>2023-10-07T08:02:38.000Z</time>
</trkpt>
<trkpt lat="45.9460720" lon="9.5820570">
	<ele>1774.80</ele>
	<time>2023-10-07T08:02:39.000Z</time>
</trkpt>
<trkpt lat="45.9460740" lon="9.5820540">
	<ele>1775.00</ele>
	<time>2023-10-07T08:02:40.000Z</time>
</trkpt>
<trkpt lat="45.9460750" lon="9.5820480">
	<ele>1775.20</ele>
	<time>2023-10-07T08:02:41.000Z</time>
</trkpt>
<trkpt lat="45.9460760" lon="9.5820400">
	<ele>1775.20</ele>
	<time>2023-10-07T08:02:42.000Z</time>
</trkpt>
<trkpt lat="45.9460750" lon="9.5820320">
	<ele>1775.40</ele>
	<time>2023-10-07T08:02:43.000Z</time>
</trkpt>
<trkpt lat="45.9460750" lon="9.5820260">
	<ele>1775.40</ele>
	<time>2023-10-07T08:02:44.000Z</time>
</trkpt>
<trkpt lat="45.9460740" lon="9.5820220">
	<ele>1775.60</ele>
	<time>2023-10-07T08:02:45.000Z</time>
</trkpt>
<trkpt lat="45.9460720" lon="9.5820200">
	<ele>1775.80</ele>
	<time>2023-10-07T08:02:46.000Z</time>
</trkpt>
<trkpt lat="45.9460730" lon="9.5820140">
	<ele>1776.00</ele>
	<time>2023-10-07T08:02:47.000Z</time>
</trkpt>
<trkpt lat="45.9460740" lon="9.5820090">
	<ele>1776.00</ele>
	<time>2023-10-07T08:02:48.000Z</time>
</trkpt>
<trkpt lat="45.9460750" lon="9.5820030">
	<ele>1776.00</ele>
	<time>2023-10-07T08:02:49.000Z</time>
</trkpt>
<trkpt lat="45.9460770" lon="9.5819950">
	<ele>1776.00</ele>
	<time>2023-10-07T08:02:50.000Z</time>
</trkpt>
<trkpt lat="45.9460780" lon="9.5819860">
	<ele>1776.20</ele>
	<time>2023-10-07T08:02:51.000Z</time>
</trkpt>
<trkpt lat="45.9460800" lon="9.5819800">
	<ele>1776.20</ele>
	<time>2023-10-07T08:02:52.000Z</time>
</trkpt>
<trkpt lat="45.9460780" lon="9.5819730">
	<ele>1776.40</ele>
	<time>2023-10-07T08:02:53.000Z</time>
</trkpt>
<trkpt lat="45.9460780" lon="9.5819680">
	<ele>1776.60</ele>
	<time>2023-10-07T08:02:54.000Z</time>
</trkpt>
<trkpt lat="45.9460780" lon="9.5819610">
	<ele>1776.60</ele>
	<time>2023-10-07T08:02:55.000Z</time>
</trkpt>
<trkpt lat="45.9460790" lon="9.5819540">
	<ele>1776.80</ele>
	<time>2023-10-07T08:02:56.000Z</time>
</trkpt>
<trkpt lat="45.9460800" lon="9.5819480">
	<ele>1777.00</ele>
	<time>2023-10-07T08:02:57.000Z</time>
</trkpt>
<trkpt lat="45.9460820" lon="9.5819430">
	<ele>1777.00</ele>
	<time>2023-10-07T08:02:58.000Z</time>
</trkpt>
<trkpt lat="45.9460820" lon="9.5819370">
	<ele>1777.00</ele>
	<time>2023-10-07T08:02:59.000Z</time>
</trkpt>
<trkpt lat="45.9460830" lon="9.5819290">
	<ele>1777.20</ele>
	<time>2023-10-07T08:03:00.000Z</time>
</trkpt>
<trkpt lat="45.9460830" lon="9.5819250">
	<ele>1777.40</ele>
	<time>2023-10-07T08:03:01.000Z</time>
</trkpt>
<trkpt lat="45.9460790" lon="9.5819160">
	<ele>1777.60</ele>
	<time>2023-10-07T08:03:02.000Z</time>
</trkpt>
<trkpt lat="45.9460790" lon="9.5819070">
	<ele>1777.60</ele>
	<time>2023-10-07T08:03:03.000Z</time>
</trkpt>
<trkpt lat="45.9460790" lon="9.5819020">
	<ele>1777.80</ele>
	<time>2023-10-07T08:03:04.000Z</time>
</trkpt>
<trkpt lat="45.9460800" lon="9.5818990">
	<ele>1777.80</ele>
	<time>2023-10-07T08:03:05.000Z</time>
</trkpt>
<trkpt lat="45.9460810" lon="9.5818950">
	<ele>1778.00</ele>
	<time>2023-10-07T08:03:06.000Z</time>
</trkpt>
<trkpt lat="45.9460830" lon="9.5818870">
	<ele>1778.00</ele>
	<time>2023-10-07T08:03:07.000Z</time>
</trkpt>
<trkpt lat="45.9460830" lon="9.5818850">
	<ele>1778.20</ele>
	<time>2023-10-07T08:03:08.000Z</time>
</trkpt>
<trkpt lat="45.9460840" lon="9.5818810">
	<ele>1778.20</ele>
	<time>2023-10-07T08:03:09.000Z</time>
</trkpt>
<trkpt lat="45.9460860" lon="9.5818780">
	<ele>1778.40</ele>
	<time>2023-10-07T08:03:10.000Z</time>
</trkpt>
<trkpt lat="45.9460900" lon="9.5818730">
	<ele>1778.60</ele>
	<time>2023-10-07T08:03:11.000Z</time>
</trkpt>
<trkpt lat="45.9460920" lon="9.5818670">
	<ele>1778.60</ele>
	<time>2023-10-07T08:03:12.000Z</time>
</trkpt>
<trkpt lat="45.9460920" lon="9.5818630">
	<ele>1778.80</ele>
	<time>2023-10-07T08:03:13.000Z</time>
</trkpt>
<trkpt lat="45.9460940" lon="9.5818620">
	<ele>1778.80</ele>
	<time>2023-10-07T08:03:14.000Z</time>
</trkpt>
<trkpt lat="45.9460980" lon="9.5818580">
	<ele>1779.00</ele>
	<time>2023-10-07T08:03:15.000Z</time>
</trkpt>
<trkpt lat="45.9461000" lon="9.5818540">
	<ele>1779.00</ele>
	<time>2023-10-07T08:03:16.000Z</time>
</trkpt>
<trkpt lat="45.9461010" lon="9.5818510">
	<ele>1779.20</ele>
	<time>2023-10-07T08:03:17.000Z</time>
</trkpt>
<trkpt lat="45.9461030" lon="9.5818480">
	<ele>1779.40</ele>
	<time>2023-10-07T08:03:18.000Z</time>
</trkpt>
<trkpt lat="45.9461050" lon="9.5818450">
	<ele>1779.60</ele>
	<time>2023-10-07T08:03:19.000Z</time>
</trkpt>
<trkpt lat="45.9461050" lon="9.5818370">
	<ele>1779.80</ele>
	<time>2023-10-07T08:03:20.000Z</time>
</trkpt>
<trkpt lat="45.9461050" lon="9.5818330">
	<ele>1779.80</ele>
	<time>2023-10-07T08:03:21.000Z</time>
</trkpt>
<trkpt lat="45.9461060" lon="9.5818280">
	<ele>1780.00</ele>
	<time>2023-10-07T08:03:22.000Z</time>
</trkpt>
<trkpt lat="45.9461090" lon="9.5818220">
	<ele>1780.00</ele>
	<time>2023-10-07T08:03:23.000Z</time>
</trkpt>
<trkpt lat="45.9461100" lon="9.5818150">
	<ele>1780.20</ele>
	<time>2023-10-07T08:03:24.000Z</time>
</trkpt>
<trkpt lat="45.9461100" lon="9.5818100">
	<ele>1780.20</ele>
	<time>2023-10-07T08:03:25.000Z</time>
</trkpt>
<trkpt lat="45.9461100" lon="9.5818060">
	<ele>1780.40</ele>
	<time>2023-10-07T08:03:26.000Z</time>
</trkpt>
<trkpt lat="45.9461120" lon="9.5818010">
	<ele>1780.60</ele>
	<time>2023-10-07T08:03:27.000Z</time>
</trkpt>
<trkpt lat="45.9461150" lon="9.5817950">
	<ele>1780.60</ele>
	<time>2023-10-07T08:03:28.000Z</time>
</trkpt>
<trkpt lat="45.9461160" lon="9.5817910">
	<ele>1780.80</ele>
	<time>2023-10-07T08:03:29.000Z</time>
</trkpt>
<trkpt lat="45.9461170" lon="9.5817860">
	<ele>1781.00</ele>
	<time>2023-10-07T08:03:30.000Z</time>
</trkpt>
<trkpt lat="45.9461210" lon="9.5817810">
	<ele>1781.20</ele>
	<time>2023-10-07T08:03:31.000Z</time>
</trkpt>
<trkpt lat="45.9461250" lon="9.5817780">
	<ele>1781.20</ele>
	<time>2023-10-07T08:03:32.000Z</time>
</trkpt>
<trkpt lat="45.9461270" lon="9.5817730">
	<ele>1781.20</ele>
	<time>2023-10-07T08:03:33.000Z</time>
</trkpt>
<trkpt lat="45.9461280" lon="9.5817690">
	<ele>1781.40</ele>
	<time>2023-10-07T08:03:34.000Z</time>
</trkpt>
<trkpt lat="45.9461310" lon="9.5817590">
	<ele>1781.60</ele>
	<time>2023-10-07T08:03:35.000Z</time>
</trkpt>
<trkpt lat="45.9461320" lon="9.5817530">
	<ele>1781.80</ele>
	<time>2023-10-07T08:03:36.000Z</time>
</trkpt>
<trkpt lat="45.9461350" lon="9.5817500">
	<ele>1782.00</ele>
	<time>2023-10-07T08:03:37.000Z</time>
</trkpt>
<trkpt lat="45.9461380" lon="9.5817450">
	<ele>1782.00</ele>
	<time>2023-10-07T08:03:38.000Z</time>
</trkpt>
<trkpt lat="45.9461410" lon="9.5817380">
	<ele>1782.20</ele>
	<time>2023-10-07T08:03:39.000Z</time>
</trkpt>
<trkpt lat="45.9461410" lon="9.5817330">
	<ele>1782.20</ele>
	<time>2023-10-07T08:03:40.000Z</time>
</trkpt>
<trkpt lat="45.9461420" lon="9.5817300">
	<ele>1782.40</ele>
	<time>2023-10-07T08:03:41.000Z</time>
</trkpt>
<trkpt lat="45.9461430" lon="9.5817240">
	<ele>1782.60</ele>
	<time>2023-10-07T08:03:42.000Z</time>
</trkpt>
<trkpt lat="45.9461450" lon="9.5817200">
	<ele>1782.80</ele>
	<time>2023-10-07T08:03:43.000Z</time>
</trkpt>
<trkpt lat="45.9461460" lon="9.5817150">
	<ele>1783.00</ele>
	<time>2023-10-07T08:03:44.000Z</time>
</trkpt>
<trkpt lat="45.9461470" lon="9.5817110">
	<ele>1783.00</ele>
	<time>2023-10-07T08:03:45.000Z</time>
</trkpt>
<trkpt lat="45.9461480" lon="9.5817080">
	<ele>1783.20</ele>
	<time>2023-10-07T08:03:46.000Z</time>
</trkpt>
<trkpt lat="45.9461480" lon="9.5817030">
	<ele>1783.40</ele>
	<time>2023-10-07T08:03:47.000Z</time>
</trkpt>
<trkpt lat="45.9461500" lon="9.5817000">
	<ele>1783.40</ele>
	<time>2023-10-07T08:03:48.000Z</time>
</trkpt>
<trkpt lat="45.9461520" lon="9.5816940">
	<ele>1783.60</ele>
	<time>2023-10-07T08:03:49.000Z</time>
</trkpt>
<trkpt lat="45.9461520" lon="9.5816870">
	<ele>1783.80</ele>
	<time>2023-10-07T08:03:50.000Z</time>
</trkpt>
<trkpt lat="45.9461540" lon="9.5816800">
	<ele>1783.80</ele>
	<time>2023-10-07T08:03:51.000Z</time>
</trkpt>
<trkpt lat="45.9461550" lon="9.5816780">
	<ele>1783.80</ele>
	<time>2023-10-07T08:03:52.000Z</time>
</trkpt>
<trkpt lat="45.9461570" lon="9.5816780">
	<ele>1784.00</ele>
	<time>2023-10-07T08:03:53.000Z</time>
</trkpt>
<trkpt lat="45.9461590" lon="9.5816730">
	<ele>1784.20</ele>
	<time>2023-10-07T08:03:54.000Z</time>
</trkpt>
<trkpt lat="45.9461610" lon="9.5816680">
	<ele>1784.40</ele>
	<time>2023-10-07T08:03:55.000Z</time>
</trkpt>
<trkpt lat="45.9461640" lon="9.5816660">
	<ele>1784.60</ele>
	<time>2023-10-07T08:03:56.000Z</time>
</trkpt>
<trkpt lat="45.9461660" lon="9.5816640">
	<ele>1784.60</ele>
	<time>2023-10-07T08:03:57.000Z</time>
</trkpt>
<trkpt lat="45.9461660" lon="9.5816590">
	<ele>1784.80</ele>
	<time>2023-10-07T08:03:58.000Z</time>
</trkpt>
<trkpt lat="45.9461680" lon="9.5816550">
	<ele>1785.00</ele>
	<time>2023-10-07T08:03:59.000Z</time>
</trkpt>
<trkpt lat="45.9461690" lon="9.5816520">
	<ele>1785.00</ele>
	<time>2023-10-07T08:04:00.000Z</time>
</trkpt>
<trkpt lat="45.9461690" lon="9.5816470">
	<ele>1785.20</ele>
	<time>2023-10-07T08:04:01.000Z</time>
</trkpt>
<trkpt lat="45.9461700" lon="9.5816430">
	<ele>1785.20</ele>
	<time>2023-10-07T08:04:02.000Z</time>
</trkpt>
<trkpt lat="45.9461720" lon="9.5816390">
	<ele>1785.40</ele>
	<time>2023-10-07T08:04:03.000Z</time>
</trkpt>
<trkpt lat="45.9461720" lon="9.5816350">
	<ele>1785.60</ele>
	<time>2023-10-07T08:04:04.000Z</time>
</trkpt>
<trkpt lat="45.9461720" lon="9.5816310">
	<ele>1785.80</ele>
	<time>2023-10-07T08:04:05.000Z</time>
</trkpt>
<trkpt lat="45.9461750" lon="9.5816260">
	<ele>1785.80</ele>
	<time>2023-10-07T08:04:06.000Z</time>
</trkpt>
<trkpt lat="45.9461760" lon="9.5816210">
	<ele>1785.80</ele>
	<time>2023-10-07T08:04:07.000Z</time>
</trkpt>
<trkpt lat="45.9461770" lon="9.5816170">
	<ele>1786.00</ele>
	<time>2023-10-07T08:04:08.000Z</time>
</trkpt>
<trkpt lat="45.9461770" lon="9.5816130">
	<ele>1786.00</ele>
	<time>2023-10-07T08:04:09.000Z</time>
</trkpt>
<trkpt lat="45.9461780" lon="9.5816050">
	<ele>1786.20</ele>
	<time>2023-10-07T08:04:10.000Z</time>
</trkpt>
<trkpt lat="45.9461800" lon="9.5816000">
	<ele>1786.40</ele>
	<time>2023-10-07T08:04:11.000Z</time>
</trkpt>
<trkpt lat="45.9461800" lon="9.5815960">
	<ele>1786.40</ele>
	<time>2023-10-07T08:04:12.000Z</time>
</trkpt>
<trkpt lat="45.9461800" lon="9.5815890">
	<ele>1786.60</ele>
	<time>2023-10-07T08:04:13.000Z</time>
</trkpt>
<trkpt lat="45.9461800" lon="9.5815830">
	<ele>1786.60</ele>
	<time>2023-10-07T08:04:14.000Z</time>
</trkpt>
<trkpt lat="45.9461800" lon="9.5815770">
	<ele>1786.80</ele>
	<time>2023-10-07T08:04:15.000Z</time>
</trkpt>
<trkpt lat="45.9461800" lon="9.5815740">
	<ele>1787.00</ele>
	<time>2023-10-07T08:04:16.000Z</time>
</trkpt>
<trkpt lat="45.9461830" lon="9.5815710">
	<ele>1787.20</ele>
	<time>2023-10-07T08:04:17.000Z</time>
</trkpt>
<trkpt lat="45.9461850" lon="9.5815640">
	<ele>1787.40</ele>
	<time>2023-10-07T08:04:18.000Z</time>
</trkpt>
<trkpt lat="45.9461860" lon="9.5815590">
	<ele>1787.60</ele>
	<time>2023-10-07T08:04:19.000Z</time>
</trkpt>
<trkpt lat="45.9461870" lon="9.5815580">
	<ele>1787.60</ele>
	<time>2023-10-07T08:04:20.000Z</time>
</trkpt>
<trkpt lat="45.9461890" lon="9.5815580">
	<ele>1787.80</ele>
	<time>2023-10-07T08:04:21.000Z</time>
</trkpt>
<trkpt lat="45.9461910" lon="9.5815550">
	<ele>1788.00</ele>
	<time>2023-10-07T08:04:22.000Z</time>
</trkpt>
<trkpt lat="45.9461930" lon="9.5815500">
	<ele>1788.00</ele>
	<time>2023-10-07T08:04:23.000Z</time>
</trkpt>
<trkpt lat="45.9461930" lon="9.5815470">
	<ele>1788.00</ele>
	<time>2023-10-07T08:04:24.000Z</time>
</trkpt>
<trkpt lat="45.9461930" lon="9.5815440">
	<ele>1788.20</ele>
	<time>2023-10-07T08:04:25.000Z</time>
</trkpt>
<trkpt lat="45.9461930" lon="9.5815380">
	<ele>1788.40</ele>
	<time>2023-10-07T08:04:26.000Z</time>
</trkpt>
<trkpt lat="45.9461960" lon="9.5815330">
	<ele>1788.60</ele>
	<time>2023-10-07T08:04:27.000Z</time>
</trkpt>
<trkpt lat="45.9461990" lon="9.5815290">
	<ele>1788.80</ele>
	<time>2023-10-07T08:04:28.000Z</time>
</trkpt>
<trkpt lat="45.9462010" lon="9.5815280">
	<ele>1788.80</ele>
	<time>2023-10-07T08:04:29.000Z</time>
</trkpt>
<trkpt lat="45.9462020" lon="9.5815270">
	<ele>1789.00</ele>
	<time>2023-10-07T08:04:30.000Z</time>
</trkpt>
<trkpt lat="45.9462040" lon="9.5815240">
	<ele>1789.00</ele>
	<time>2023-10-07T08:04:31.000Z</time>
</trkpt>
<trkpt lat="45.9462060" lon="9.5815200">
	<ele>1789.00</ele>
	<time>2023-10-07T08:04:32.000Z</time>
</trkpt>
<trkpt lat="45.9462070" lon="9.5815160">
	<ele>1789.20</ele>
	<time>2023-10-07T08:04:33.000Z</time>
</trkpt>
<trkpt lat="45.9462090" lon="9.5815140">
	<ele>1789.40</ele>
	<time>2023-10-07T08:04:34.000Z</time>
</trkpt>
<trkpt lat="45.9462090" lon="9.5815060">
	<ele>1789.40</ele>
	<time>2023-10-07T08:04:35.000Z</time>
</trkpt>
<trkpt lat="45.9462110" lon="9.5815020">
	<ele>1789.80</ele>
	<time>2023-10-07T08:04:36.000Z</time>
</trkpt>
<trkpt lat="45.9462120" lon="9.5814980">
	<ele>1790.00</ele>
	<time>2023-10-07T08:04:37.000Z</time>
</trkpt>
<trkpt lat="45.9462130" lon="9.5814940">
	<ele>1790.00</ele>
	<time>2023-10-07T08:04:38.000Z</time>
</trkpt>
<trkpt lat="45.9462120" lon="9.5814890">
	<ele>1790.20</ele>
	<time>2023-10-07T08:04:39.000Z</time>
</trkpt>
<trkpt lat="45.9462110" lon="9.5814870">
	<ele>1790.20</ele>
	<time>2023-10-07T08:04:40.000Z</time>
</trkpt>
<trkpt lat="45.9462120" lon="9.5814860">
	<ele>1790.40</ele>
	<time>2023-10-07T08:04:41.000Z</time>
</trkpt>
<trkpt lat="45.9462130" lon="9.5814810">
	<ele>1790.40</ele>
	<time>2023-10-07T08:04:42.000Z</time>
</trkpt>
<trkpt lat="45.9462130" lon="9.5814720">
	<ele>1790.60</ele>
	<time>2023-10-07T08:04:43.000Z</time>
</trkpt>
<trkpt lat="45.9462140" lon="9.5814690">
	<ele>1790.80</ele>
	<time>2023-10-07T08:04:44.000Z</time>
</trkpt>
<trkpt lat="45.9462150" lon="9.5814670">
	<ele>1791.00</ele>
	<time>2023-10-07T08:04:45.000Z</time>
</trkpt>
<trkpt lat="45.9462150" lon="9.5814620">
	<ele>1791.20</ele>
	<time>2023-10-07T08:04:46.000Z</time>
</trkpt>
<trkpt lat="45.9462150" lon="9.5814560">
	<ele>1791.40</ele>
	<time>2023-10-07T08:04:47.000Z</time>
</trkpt>
<trkpt lat="45.9462150" lon="9.5814520">
	<ele>1791.60</ele>
	<time>2023-10-07T08:04:48.000Z</time>
</trkpt>
<trkpt lat="45.9462150" lon="9.5814490">
	<ele>1791.80</ele>
	<time>2023-10-07T08:04:49.000Z</time>
</trkpt>
<trkpt lat="45.9462150" lon="9.5814470">
	<ele>1792.00</ele>
	<time>2023-10-07T08:04:50.000Z</time>
</trkpt>
<trkpt lat="45.9462170" lon="9.5814430">
	<ele>1792.00</ele>
	<time>2023-10-07T08:04:51.000Z</time>
</trkpt>
<trkpt lat="45.9462180" lon="9.5814390">
	<ele>1792.20</ele>
	<time>2023-10-07T08:04:52.000Z</time>
</trkpt>
<trkpt lat="45.9462180" lon="9.5814350">
	<ele>1792.20</ele>
	<time>2023-10-07T08:04:53.000Z</time>
</trkpt>
<trkpt lat="45.9462170" lon="9.5814310">
	<ele>1792.20</ele>
	<time>2023-10-07T08:04:54.000Z</time>
</trkpt>
<trkpt lat="45.9462180" lon="9.5814270">
	<ele>1792.40</ele>
	<time>2023-10-07T08:04:55.000Z</time>
</trkpt>
<trkpt lat="45.9462180" lon="9.5814200">
	<ele>1792.40</ele>
	<time>2023-10-07T08:04:56.000Z</time>
</trkpt>
<trkpt lat="45.9462170" lon="9.5814160">
	<ele>1792.40</ele>
	<time>2023-10-07T08:04:57.000Z</time>
</trkpt>
<trkpt lat="45.9462160" lon="9.5814120">
	<ele>1792.80</ele>
	<time>2023-10-07T08:04:58.000Z</time>
</trkpt>
<trkpt lat="45.9462170" lon="9.5814060">
	<ele>1793.00</ele>
	<time>2023-10-07T08:04:59.000Z</time>
</trkpt>
<trkpt lat="45.9462190" lon="9.5814010">
	<ele>1793.00</ele>
	<time>2023-10-07T08:05:00.000Z</time>
</trkpt>
<trkpt lat="45.9462200" lon="9.5813950">
	<ele>1793.20</ele>
	<time>2023-10-07T08:05:01.000Z</time>
</trkpt>
<trkpt lat="45.9462220" lon="9.5813920">
	<ele>1793.20</ele>
	<time>2023-10-07T08:05:02.000Z</time>
</trkpt>
<trkpt lat="45.9462230" lon="9.5813880">
	<ele>1793.40</ele>
	<time>2023-10-07T08:05:03.000Z</time>
</trkpt>
<trkpt lat="45.9462220" lon="9.5813830">
	<ele>1793.60</ele>
	<time>2023-10-07T08:05:04.000Z</time>
</trkpt>
<trkpt lat="45.9462230" lon="9.5813790">
	<ele>1793.80</ele>
	<time>2023-10-07T08:05:05.000Z</time>
</trkpt>
<trkpt lat="45.9462220" lon="9.5813750">
	<ele>1793.80</ele>
	<time>2023-10-07T08:05:06.000Z</time>
</trkpt>
<trkpt lat="45.9462220" lon="9.5813750">
	<ele>1793.80</ele>
	<time>2023-10-07T08:05:07.000Z</time>
</trkpt>
<trkpt lat="45.9462210" lon="9.5813720">
	<ele>1794.00</ele>
	<time>2023-10-07T08:05:08.000Z</time>
</trkpt>
<trkpt lat="45.9462210" lon="9.5813650">
	<ele>1794.00</ele>
	<time>2023-10-07T08:05:09.000Z</time>
</trkpt>
<trkpt lat="45.9462220" lon="9.5813580">
	<ele>1794.20</ele>
	<time>2023-10-07T08:05:10.000Z</time>
</trkpt>
<trkpt lat="45.9462230" lon="9.5813560">
	<ele>1794.20</ele>
	<time>2023-10-07T08:05:11.000Z</time>
</trkpt>
<trkpt lat="45.9462230" lon="9.5813510">
	<ele>1794.60</ele>
	<time>2023-10-07T08:05:12.000Z</time>
</trkpt>
<trkpt lat="45.9462220" lon="9.5813440">
	<ele>1794.80</ele>
	<time>2023-10-07T08:05:13.000Z</time>
</trkpt>
<trkpt lat="45.9462230" lon="9.5813360">
	<ele>1794.80</ele>
	<time>2023-10-07T08:05:14.000Z</time>
</trkpt>
<trkpt lat="45.9462230" lon="9.5813310">
	<ele>1795.20</ele>
	<time>2023-10-07T08:05:15.000Z</time>
</trkpt>
<trkpt lat="45.9462240" lon="9.5813290">
	<ele>1795.20</ele>
	<time>2023-10-07T08:05:16.000Z</time>
</trkpt>
<trkpt lat="45.9462250" lon="9.5813260">
	<ele>1795.40</ele>
	<time>2023-10-07T08:05:17.000Z</time>
</trkpt>
<trkpt lat="45.9462260" lon="9.5813230">
	<ele>1795.40</ele>
	<time>2023-10-07T08:05:18.000Z</time>
</trkpt>
<trkpt lat="45.9462270" lon="9.5813170">
	<ele>1795.60</ele>
	<time>2023-10-07T08:05:19.000Z</time>
</trkpt>
<trkpt lat="45.9462270" lon="9.5813140">
	<ele>1795.60</ele>
	<time>2023-10-07T08:05:20.000Z</time>
</trkpt>
<trkpt lat="45.9462280" lon="9.5813070">
	<ele>1795.60</ele>
	<time>2023-10-07T08:05:21.000Z</time>
</trkpt>
<trkpt lat="45.9462290" lon="9.5813010">
	<ele>1795.80</ele>
	<time>2023-10-07T08:05:22.000Z</time>
</trkpt>
<trkpt lat="45.9462310" lon="9.5812980">
	<ele>1795.80</ele>
	<time>2023-10-07T08:05:23.000Z</time>
</trkpt>
<trkpt lat="45.9462300" lon="9.5812920">
	<ele>1796.00</ele>
	<time>2023-10-07T08:05:24.000Z</time>
</trkpt>
<trkpt lat="45.9462280" lon="9.5812880">
	<ele>1796.20</ele>
	<time>2023-10-07T08:05:25.000Z</time>
</trkpt>
<trkpt lat="45.9462270" lon="9.5812830">
	<ele>1796.40</ele>
	<time>2023-10-07T08:05:26.000Z</time>
</trkpt>
<trkpt lat="45.9462250" lon="9.5812800">
	<ele>1796.40</ele>
	<time>2023-10-07T08:05:27.000Z</time>
</trkpt>
<trkpt lat="45.9462230" lon="9.5812780">
	<ele>1796.60</ele>
	<time>2023-10-07T08:05:28.000Z</time>
</trkpt>
<trkpt lat="45.9462190" lon="9.5812720">
	<ele>1796.80</ele>
	<time>2023-10-07T08:05:29.000Z</time>
</trkpt>
<trkpt lat="45.9462170" lon="9.5812670">
	<ele>1797.00</ele>
	<time>2023-10-07T08:05:30.000Z</time>
</trkpt>
<trkpt lat="45.9462170" lon="9.5812590">
	<ele>1797.00</ele>
	<time>2023-10-07T08:05:31.000Z</time>
</trkpt>
<trkpt lat="45.9462170" lon="9.5812550">
	<ele>1797.20</ele>
	<time>2023-10-07T08:05:32.000Z</time>
</trkpt>
<trkpt lat="45.9462170" lon="9.5812540">
	<ele>1797.40</ele>
	<time>2023-10-07T08:05:33.000Z</time>
</trkpt>
<trkpt lat="45.9462170" lon="9.5812500">
	<ele>1797.40</ele>
	<time>2023-10-07T08:05:34.000Z</time>
</trkpt>
<trkpt lat="45.9462160" lon="9.5812450">
	<ele>1797.60</ele>
	<time>2023-10-07T08:05:35.000Z</time>
</trkpt>
<trkpt lat="45.9462160" lon="9.5812390">
	<ele>1797.60</ele>
	<time>2023-10-07T08:05:36.000Z</time>
</trkpt>
<trkpt lat="45.9462150" lon="9.5812340">
	<ele>1797.60</ele>
	<time>2023-10-07T08:05:37.000Z</time>
</trkpt>
<trkpt lat="45.9462140" lon="9.5812290">
	<ele>1797.80</ele>
	<time>2023-10-07T08:05:38.000Z</time>
</trkpt>
<trkpt lat="45.9462150" lon="9.5812240">
	<ele>1798.00</ele>
	<time>2023-10-07T08:05:39.000Z</time>
</trkpt>
<trkpt lat="45.9462140" lon="9.5812160">
	<ele>1798.20</ele>
	<time>2023-10-07T08:05:40.000Z</time>
</trkpt>
<trkpt lat="45.9462160" lon="9.5812130">
	<ele>1798.40</ele>
	<time>2023-10-07T08:05:41.000Z</time>
</trkpt>
<trkpt lat="45.9462180" lon="9.5812150">
	<ele>1798.40</ele>
	<time>2023-10-07T08:05:42.000Z</time>
</trkpt>
<trkpt lat="45.9462220" lon="9.5812130">
	<ele>1798.80</ele>
	<time>2023-10-07T08:05:43.000Z</time>
</trkpt>
<trkpt lat="45.9462250" lon="9.5812100">
	<ele>1799.00</ele>
	<time>2023-10-07T08:05:44.000Z</time>
</trkpt>
<trkpt lat="45.9462280" lon="9.5812080">
	<ele>1799.00</ele>
	<time>2023-10-07T08:05:45.000Z</time>
</trkpt>
<trkpt lat="45.9462300" lon="9.5812070">
	<ele>1799.20</ele>
	<time>2023-10-07T08:05:46.000Z</time>
</trkpt>
<trkpt lat="45.9462310" lon="9.5812050">
	<ele>1799.20</ele>
	<time>2023-10-07T08:05:47.000Z</time>
</trkpt>
<trkpt lat="45.9462330" lon="9.5812020">
	<ele>1799.40</ele>
	<time>2023-10-07T08:05:48.000Z</time>
</trkpt>
<trkpt lat="45.9462330" lon="9.5811960">
	<ele>1799.40</ele>
	<time>2023-10-07T08:05:49.000Z</time>
</trkpt>
<trkpt lat="45.9462320" lon="9.5811900">
	<ele>1799.40</ele>
	<time>2023-10-07T08:05:50.000Z</time>
</trkpt>
<trkpt lat="45.9462330" lon="9.5811830">
	<ele>1799.60</ele>
	<time>2023-10-07T08:05:51.000Z</time>
</trkpt>
<trkpt lat="45.9462360" lon="9.5811750">
	<ele>1799.60</ele>
	<time>2023-10-07T08:05:52.000Z</time>
</trkpt>
<trkpt lat="45.9462380" lon="9.5811700">
	<ele>1800.00</ele>
	<time>2023-10-07T08:05:53.000Z</time>
</trkpt>
<trkpt lat="45.9462400" lon="9.5811680">
	<ele>1800.20</ele>
	<time>2023-10-07T08:05:54.000Z</time>
</trkpt>
<trkpt lat="45.9462410" lon="9.5811640">
	<ele>1800.20</ele>
	<time>2023-10-07T08:05:55.000Z</time>
</trkpt>
<trkpt lat="45.9462450" lon="9.5811590">
	<ele>1800.40</ele>
	<time>2023-10-07T08:05:56.000Z</time>
</trkpt>
<trkpt lat="45.9462480" lon="9.5811560">
	<ele>1800.60</ele>
	<time>2023-10-07T08:05:57.000Z</time>
</trkpt>
<trkpt lat="45.9462500" lon="9.5811540">
	<ele>1800.80</ele>
	<time>2023-10-07T08:05:58.000Z</time>
</trkpt>
<trkpt lat="45.9462520" lon="9.5811540">
	<ele>1801.20</ele>
	<time>2023-10-07T08:05:59.000Z</time>
</trkpt>
<trkpt lat="45.9462520" lon="9.5811530">
	<ele>1801.40</ele>
	<time>2023-10-07T08:06:00.000Z</time>
</trkpt>
<trkpt lat="45.9462520" lon="9.5811520">
	<ele>1801.40</ele>
	<time>2023-10-07T08:06:01.000Z</time>
</trkpt>
<trkpt lat="45.9462520" lon="9.5811500">
	<ele>1801.40</ele>
	<time>2023-10-07T08:06:02.000Z</time>
</trkpt>
<trkpt lat="45.9462510" lon="9.5811440">
	<ele>1801.40</ele>
	<time>2023-10-07T08:06:03.000Z</time>
</trkpt>
<trkpt lat="45.9462470" lon="9.5811360">
	<ele>1801.40</ele>
	<time>2023-10-07T08:06:04.000Z</time>
</trkpt>
<trkpt lat="45.9462490" lon="9.5811300">
	<ele>1801.60</ele>
	<time>2023-10-07T08:06:05.000Z</time>
</trkpt>
<trkpt lat="45.9462500" lon="9.5811250">
	<ele>1801.60</ele>
	<time>2023-10-07T08:06:06.000Z</time>
</trkpt>
<trkpt lat="45.9462510" lon="9.5811190">
	<ele>1801.80</ele>
	<time>2023-10-07T08:06:07.000Z</time>
</trkpt>
<trkpt lat="45.9462520" lon="9.5811140">
	<ele>1801.80</ele>
	<time>2023-10-07T08:06:08.000Z</time>
</trkpt>
<trkpt lat="45.9462520" lon="9.5811080">
	<ele>1802.00</ele>
	<time>2023-10-07T08:06:09.000Z</time>
</trkpt>
<trkpt lat="45.9462550" lon="9.5811040">
	<ele>1802.20</ele>
	<time>2023-10-07T08:06:10.000Z</time>
</trkpt>
<trkpt lat="45.9462560" lon="9.5811010">
	<ele>1802.40</ele>
	<time>2023-10-07T08:06:11.000Z</time>
</trkpt>
<trkpt lat="45.9462570" lon="9.5810970">
	<ele>1802.60</ele>
	<time>2023-10-07T08:06:12.000Z</time>
</trkpt>
<trkpt lat="45.9462600" lon="9.5810940">
	<ele>1802.80</ele>
	<time>2023-10-07T08:06:13.000Z</time>
</trkpt>
<trkpt lat="45.9462610" lon="9.5810900">
	<ele>1802.80</ele>
	<time>2023-10-07T08:06:14.000Z</time>
</trkpt>
<trkpt lat="45.9462620" lon="9.5810860">
	<ele>1803.00</ele>
	<time>2023-10-07T08:06:15.000Z</time>
</trkpt>
<trkpt lat="45.9462630" lon="9.5810820">
	<ele>1803.20</ele>
	<time>2023-10-07T08:06:16.000Z</time>
</trkpt>
<trkpt lat="45.9462630" lon="9.5810780">
	<ele>1803.20</ele>
	<time>2023-10-07T08:06:17.000Z</time>
</trkpt>
<trkpt lat="45.9462630" lon="9.5810750">
	<ele>1803.20</ele>
	<time>2023-10-07T08:06:18.000Z</time>
</trkpt>
<trkpt lat="45.9462610" lon="9.5810710">
	<ele>1803.40</ele>
	<time>2023-10-07T08:06:19.000Z</time>
</trkpt>
<trkpt lat="45.9462610" lon="9.5810660">
	<ele>1803.40</ele>
	<time>2023-10-07T08:06:20.000Z</time>
</trkpt>
<trkpt lat="45.9462620" lon="9.5810590">
	<ele>1803.40</ele>
	<time>2023-10-07T08:06:21.000Z</time>
</trkpt>
<trkpt lat="45.9462620" lon="9.5810560">
	<ele>1803.60</ele>
	<time>2023-10-07T08:06:22.000Z</time>
</trkpt>
<trkpt lat="45.9462630" lon="9.5810500">
	<ele>1803.80</ele>
	<time>2023-10-07T08:06:23.000Z</time>
</trkpt>
<trkpt lat="45.9462630" lon="9.5810470">
	<ele>1803.80</ele>
	<time>2023-10-07T08:06:24.000Z</time>
</trkpt>
<trkpt lat="45.9462650" lon="9.5810410">
	<ele>1804.00</ele>
	<time>2023-10-07T08:06:25.000Z</time>
</trkpt>
<trkpt lat="45.9462690" lon="9.5810380">
	<ele>1804.20</ele>
	<time>2023-10-07T08:06:26.000Z</time>
</trkpt>
<trkpt lat="45.9462690" lon="9.5810340">
	<ele>1804.20</ele>
	<time>2023-10-07T08:06:27.000Z</time>
</trkpt>
<trkpt lat="45.9462700" lon="9.5810280">
	<ele>1804.40</ele>
	<time>2023-10-07T08:06:28.000Z</time>
</trkpt>
<trkpt lat="45.9462730" lon="9.5810240">
	<ele>1804.60</ele>
	<time>2023-10-07T08:06:29.000Z</time>
</trkpt>
<trkpt lat="45.9462750" lon="9.5810190">
	<ele>1804.60</ele>
	<time>2023-10-07T08:06:30.000Z</time>
</trkpt>
<trkpt lat="45.9462730" lon="9.5810160">
	<ele>1804.80</ele>
	<time>2023-10-07T08:06:31.000Z</time>
</trkpt>
<trkpt lat="45.9462730" lon="9.5810120">
	<ele>1804.80</ele>
	<time>2023-10-07T08:06:32.000Z</time>
</trkpt>
<trkpt lat="45.9462730" lon="9.5810070">
	<ele>1805.00</ele>
	<time>2023-10-07T08:06:33.000Z</time>
</trkpt>
<trkpt lat="45.9462710" lon="9.5810010">
	<ele>1805.00</ele>
	<time>2023-10-07T08:06:34.000Z</time>
</trkpt>
<trkpt lat="45.9462720" lon="9.5809940">
	<ele>1805.20</ele>
	<time>2023-10-07T08:06:35.000Z</time>
</trkpt>
<trkpt lat="45.9462730" lon="9.5809890">
	<ele>1805.40</ele>
	<time>2023-10-07T08:06:36.000Z</time>
</trkpt>
<trkpt lat="45.9462770" lon="9.5809840">
	<ele>1805.40</ele>
	<time>2023-10-07T08:06:37.000Z</time>
</trkpt>
<trkpt lat="45.9462800" lon="9.5809820">
	<ele>1805.60</ele>
	<time>2023-10-07T08:06:38.000Z</time>
</trkpt>
<trkpt lat="45.9462820" lon="9.5809800">
	<ele>1805.80</ele>
	<time>2023-10-07T08:06:39.000Z</time>
</trkpt>
<trkpt lat="45.9462830" lon="9.5809780">
	<ele>1806.00</ele>
	<time>2023-10-07T08:06:40.000Z</time>
</trkpt>
<trkpt lat="45.9462910" lon="9.5809790">
	<ele>1806.40</ele>
	<time>2023-10-07T08:06:41.000Z</time>
</trkpt>
<trkpt lat="45.9462970" lon="9.5809770">
	<ele>1806.60</ele>
	<time>2023-10-07T08:06:42.000Z</time>
</trkpt>
<trkpt lat="45.9463000" lon="9.5809760">
	<ele>1806.80</ele>
	<time>2023-10-07T08:06:43.000Z</time>
</trkpt>
<trkpt lat="45.9463040" lon="9.5809750">
	<ele>1806.80</ele>
	<time>2023-10-07T08:06:44.000Z</time>
</trkpt>
<trkpt lat="45.9463080" lon="9.5809730">
	<ele>1807.00</ele>
	<time>2023-10-07T08:06:45.000Z</time>
</trkpt>
<trkpt lat="45.9463120" lon="9.5809730">
	<ele>1807.00</ele>
	<time>2023-10-07T08:06:46.000Z</time>
</trkpt>
<trkpt lat="45.9463130" lon="9.5809720">
	<ele>1807.20</ele>
	<time>2023-10-07T08:06:47.000Z</time>
</trkpt>
<trkpt lat="45.9463120" lon="9.5809690">
	<ele>1807.20</ele>
	<time>2023-10-07T08:06:48.000Z</time>
</trkpt>
<trkpt lat="45.9463120" lon="9.5809640">
	<ele>1807.20</ele>
	<time>2023-10-07T08:06:49.000Z</time>
</trkpt>
<trkpt lat="45.9463100" lon="9.5809580">
	<ele>1807.20</ele>
	<time>2023-10-07T08:06:50.000Z</time>
</trkpt>
<trkpt lat="45.9463090" lon="9.5809550">
	<ele>1807.40</ele>
	<time>2023-10-07T08:06:51.000Z</time>
</trkpt>
<trkpt lat="45.9463080" lon="9.5809510">
	<ele>1807.60</ele>
	<time>2023-10-07T08:06:52.000Z</time>
</trkpt>
<trkpt lat="45.9463070" lon="9.5809460">
	<ele>1807.80</ele>
	<time>2023-10-07T08:06:53.000Z</time>
</trkpt>
<trkpt lat="45.9463060" lon="9.5809420">
	<ele>1807.80</ele>
	<time>2023-10-07T08:06:54.000Z</time>
</trkpt>
<trkpt lat="45.9463050" lon="9.5809370">
	<ele>1808.20</ele>
	<time>2023-10-07T08:06:55.000Z</time>
</trkpt>
<trkpt lat="45.9463040" lon="9.5809340">
	<ele>1808.20</ele>
	<time>2023-10-07T08:06:56.000Z</time>
</trkpt>
<trkpt lat="45.9463020" lon="9.5809280">
	<ele>1808.40</ele>
	<time>2023-10-07T08:06:57.000Z</time>
</trkpt>
<trkpt lat="45.9463070" lon="9.5809230">
	<ele>1808.60</ele>
	<time>2023-10-07T08:06:58.000Z</time>
</trkpt>
<trkpt lat="45.9463100" lon="9.5809200">
	<ele>1808.60</ele>
	<time>2023-10-07T08:06:59.000Z</time>
</trkpt>
<trkpt lat="45.9463120" lon="9.5809160">
	<ele>1809.00</ele>
	<time>2023-10-07T08:07:00.000Z</time>
</trkpt>
<trkpt lat="45.9463160" lon="9.5809130">
	<ele>1809.20</ele>
	<time>2023-10-07T08:07:01.000Z</time>
</trkpt>
<trkpt lat="45.9463190" lon="9.5809140">
	<ele>1809.40</ele>
	<time>2023-10-07T08:07:02.000Z</time>
</trkpt>
<trkpt lat="45.9463230" lon="9.5809140">
	<ele>1809.40</ele>
	<time>2023-10-07T08:07:03.000Z</time>
</trkpt>
<trkpt lat="45.9463240" lon="9.5809160">
	<ele>1809.60</ele>
	<time>2023-10-07T08:07:04.000Z</time>
</trkpt>
<trkpt lat="45.9463270" lon="9.5809160">
	<ele>1809.80</ele>
	<time>2023-10-07T08:07:05.000Z</time>
</trkpt>
<trkpt lat="45.9463320" lon="9.5809150">
	<ele>1809.80</ele>
	<time>2023-10-07T08:07:06.000Z</time>
</trkpt>
<trkpt lat="45.9463370" lon="9.5809140">
	<ele>1809.80</ele>
	<time>2023-10-07T08:07:07.000Z</time>
</trkpt>
<trkpt lat="45.9463380" lon="9.5809130">
	<ele>1809.80</ele>
	<time>2023-10-07T08:07:08.000Z</time>
</trkpt>
<trkpt lat="45.9463400" lon="9.5809080">
	<ele>1810.00</ele>
	<time>2023-10-07T08:07:09.000Z</time>
</trkpt>
<trkpt lat="45.9463440" lon="9.5809060">
	<ele>1810.00</ele>
	<time>2023-10-07T08:07:10.000Z</time>
</trkpt>
<trkpt lat="45.9463450" lon="9.5809020">
	<ele>1810.20</ele>
	<time>2023-10-07T08:07:11.000Z</time>
</trkpt>
<trkpt lat="45.9463450" lon="9.5808950">
	<ele>1810.20</ele>
	<time>2023-10-07T08:07:12.000Z</time>
</trkpt>
<trkpt lat="45.9463440" lon="9.5808870">
	<ele>1810.40</ele>
	<time>2023-10-07T08:07:13.000Z</time>
</trkpt>
<trkpt lat="45.9463430" lon="9.5808820">
	<ele>1810.40</ele>
	<time>2023-10-07T08:07:14.000Z</time>
</trkpt>
<trkpt lat="45.9463420" lon="9.5808790">
	<ele>1810.80</ele>
	<time>2023-10-07T08:07:15.000Z</time>
</trkpt>
<trkpt lat="45.9463440" lon="9.5808730">
	<ele>1811.00</ele>
	<time>2023-10-07T08:07:16.000Z</time>
</trkpt>
<trkpt lat="45.9463490" lon="9.5808660">
	<ele>1811.20</ele>
	<time>2023-10-07T08:07:17.000Z</time>
</trkpt>
<trkpt lat="45.9463550" lon="9.5808640">
	<ele>1811.40</ele>
	<time>2023-10-07T08:07:18.000Z</time>
</trkpt>
<trkpt lat="45.9463580" lon="9.5808620">
	<ele>1811.60</ele>
	<time>2023-10-07T08:07:19.000Z</time>
</trkpt>
<trkpt lat="45.9463600" lon="9.5808620">
	<ele>1811.60</ele>
	<time>2023-10-07T08:07:20.000Z</time>
</trkpt>
<trkpt lat="45.9463620" lon="9.5808620">
	<ele>1811.80</ele>
	<time>2023-10-07T08:07:21.000Z</time>
</trkpt>
<trkpt lat="45.9463630" lon="9.5808580">
	<ele>1811.80</ele>
	<time>2023-10-07T08:07:22.000Z</time>
</trkpt>
<trkpt lat="45.9463650" lon="9.5808540">
	<ele>1811.80</ele>
	<time>2023-10-07T08:07:23.000Z</time>
</trkpt>
<trkpt lat="45.9463650" lon="9.5808510">
	<ele>1812.00</ele>
	<time>2023-10-07T08:07:24.000Z</time>
</trkpt>
<trkpt lat="45.9463630" lon="9.5808510">
	<ele>1812.20</ele>
	<time>2023-10-07T08:07:25.000Z</time>
</trkpt>
<trkpt lat="45.9463620" lon="9.5808500">
	<ele>1812.20</ele>
	<time>2023-10-07T08:07:26.000Z</time>
</trkpt>
<trkpt lat="45.9463590" lon="9.5808440">
	<ele>1812.40</ele>
	<time>2023-10-07T08:07:27.000Z</time>
</trkpt>
<trkpt lat="45.9463560" lon="9.5808360">
	<ele>1812.60</ele>
	<time>2023-10-07T08:07:28.000Z</time>
</trkpt>
<trkpt lat="45.9463540" lon="9.5808280">
	<ele>1812.80</ele>
	<time>2023-10-07T08:07:29.000Z</time>
</trkpt>
<trkpt lat="45.9463550" lon="9.5808230">
	<ele>1812.80</ele>
	<time>2023-10-07T08:07:30.000Z</time>
</trkpt>
<trkpt lat="45.9463570" lon="9.5808150">
	<ele>1813.00</ele>
	<time>2023-10-07T08:07:31.000Z</time>
</trkpt>
<trkpt lat="45.9463620" lon="9.5808100">
	<ele>1813.20</ele>
	<time>2023-10-07T08:07:32.000Z</time>
</trkpt>
<trkpt lat="45.9463650" lon="9.5808070">
	<ele>1813.20</ele>
	<time>2023-10-07T08:07:33.000Z</time>
</trkpt>
<trkpt lat="45.9463690" lon="9.5808060">
	<ele>1813.60</ele>
	<time>2023-10-07T08:07:34.000Z</time>
</trkpt>
<trkpt lat="45.9463710" lon="9.5808060">
	<ele>1813.80</ele>
	<time>2023-10-07T08:07:35.000Z</time>
</trkpt>
<trkpt lat="45.9463730" lon="9.5808050">
	<ele>1814.00</ele>
	<time>2023-10-07T08:07:36.000Z</time>
</trkpt>
<trkpt lat="45.9463770" lon="9.5808030">
	<ele>1814.00</ele>
	<time>2023-10-07T08:07:37.000Z</time>
</trkpt>
<trkpt lat="45.9463800" lon="9.5808010">
	<ele>1814.00</ele>
	<time>2023-10-07T08:07:38.000Z</time>
</trkpt>
<trkpt lat="45.9463820" lon="9.5808000">
	<ele>1814.20</ele>
	<time>2023-10-07T08:07:39.000Z</time>
</trkpt>
<trkpt lat="45.9463840" lon="9.5807980">
	<ele>1814.20</ele>
	<time>2023-10-07T08:07:40.000Z</time>
</trkpt>
<trkpt lat="45.9463890" lon="9.5807940">
	<ele>1814.40</ele>
	<time>2023-10-07T08:07:41.000Z</time>
</trkpt>
<trkpt lat="45.9463930" lon="9.5807920">
	<ele>1814.40</ele>
	<time>2023-10-07T08:07:42.000Z</time>
</trkpt>
<trkpt lat="45.9463960" lon="9.5807910">
	<ele>1814.60</ele>
	<time>2023-10-07T08:07:43.000Z</time>
</trkpt>
<trkpt lat="45.9464010" lon="9.5807880">
	<ele>1814.80</ele>
	<time>2023-10-07T08:07:44.000Z</time>
</trkpt>
<trkpt lat="45.9464050" lon="9.5807840">
	<ele>1815.00</ele>
	<time>2023-10-07T08:07:45.000Z</time>
</trkpt>
<trkpt lat="45.9464060" lon="9.5807800">
	<ele>1815.20</ele>
	<time>2023-10-07T08:07:46.000Z</time>
</trkpt>
<trkpt lat="45.9464080" lon="9.5807790">
	<ele>1815.20</ele>
	<time>2023-10-07T08:07:47.000Z</time>
</trkpt>
<trkpt lat="45.9464110" lon="9.5807780">
	<ele>1815.20</ele>
	<time>2023-10-07T08:07:48.000Z</time>
</trkpt>
<trkpt lat="45.9464100" lon="9.5807760">
	<ele>1815.40</ele>
	<time>2023-10-07T08:07:49.000Z</time>
</trkpt>
<trkpt lat="45.9464080" lon="9.5807730">
	<ele>1815.40</ele>
	<time>2023-10-07T08:07:50.000Z</time>
</trkpt>
<trkpt lat="45.9464020" lon="9.5807710">
	<ele>1815.40</ele>
	<time>2023-10-07T08:07:51.000Z</time>
</trkpt>
<trkpt lat="45.9463980" lon="9.5807680">
	<ele>1815.40</ele>
	<time>2023-10-07T08:07:52.000Z</time>
</trkpt>
<trkpt lat="45.9463930" lon="9.5807630">
	<ele>1815.40</ele>
	<time>2023-10-07T08:07:53.000Z</time>
</trkpt>
<trkpt lat="45.9463890" lon="9.5807540">
	<ele>1815.60</ele>
	<time>2023-10-07T08:07:54.000Z</time>
</trkpt>
<trkpt lat="45.9463910" lon="9.5807460">
	<ele>1815.60</ele>
	<time>2023-10-07T08:07:55.000Z</time>
</trkpt>
<trkpt lat="45.9463940" lon="9.5807390">
	<ele>1816.00</ele>
	<time>2023-10-07T08:07:56.000Z</time>
</trkpt>
<trkpt lat="45.9463950" lon="9.5807340">
	<ele>1816.00</ele>
	<time>2023-10-07T08:07:57.000Z</time>
</trkpt>
<trkpt lat="45.9463940" lon="9.5807310">
	<ele>1816.20</ele>
	<time>2023-10-07T08:07:58.000Z</time>
</trkpt>
<trkpt lat="45.9463960" lon="9.5807260">
	<ele>1816.40</ele>
	<time>2023-10-07T08:07:59.000Z</time>
</trkpt>
<trkpt lat="45.9463980" lon="9.5807180">
	<ele>1816.40</ele>
	<time>2023-10-07T08:08:00.000Z</time>
</trkpt>
<trkpt lat="45.9463990" lon="9.5807150">
	<ele>1816.60</ele>
	<time>2023-10-07T08:08:01.000Z</time>
</trkpt>
<trkpt lat="45.9464010" lon="9.5807110">
	<ele>1816.60</ele>
	<time>2023-10-07T08:08:02.000Z</time>
</trkpt>
<trkpt lat="45.9464020" lon="9.5807070">
	<ele>1816.80</ele>
	<time>2023-10-07T08:08:03.000Z</time>
</trkpt>
<trkpt lat="45.9464040" lon="9.5807010">
	<ele>1817.00</ele>
	<time>2023-10-07T08:08:04.000Z</time>
</trkpt>
<trkpt lat="45.9464060" lon="9.5806940">
	<ele>1817.20</ele>
	<time>2023-10-07T08:08:05.000Z</time>
</trkpt>
<trkpt lat="45.9464090" lon="9.5806900">
	<ele>1817.20</ele>
	<time>2023-10-07T08:08:06.000Z</time>
</trkpt>
<trkpt lat="45.9464100" lon="9.5806860">
	<ele>1817.60</ele>
	<time>2023-10-07T08:08:07.000Z</time>
</trkpt>
<trkpt lat="45.9464110" lon="9.5806820">
	<ele>1817.80</ele>
	<time>2023-10-07T08:08:08.000Z</time>
</trkpt>
<trkpt lat="45.9464150" lon="9.5806790">
	<ele>1818.00</ele>
	<time>2023-10-07T08:08:09.000Z</time>
</trkpt>
<trkpt lat="45.9464160" lon="9.5806740">
	<ele>1818.00</ele>
	<time>2023-10-07T08:08:10.000Z</time>
</trkpt>
<trkpt lat="45.9464170" lon="9.5806670">
	<ele>1818.20</ele>
	<time>2023-10-07T08:08:11.000Z</time>
</trkpt>
<trkpt lat="45.9464180" lon="9.5806640">
	<ele>1818.40</ele>
	<time>2023-10-07T08:08:12.000Z</time>
</trkpt>
<trkpt lat="45.9464180" lon="9.5806620">
	<ele>1818.60</ele>
	<time>2023-10-07T08:08:13.000Z</time>
</trkpt>
<trkpt lat="45.9464180" lon="9.5806600">
	<ele>1818.60</ele>
	<time>2023-10-07T08:08:14.000Z</time>
</trkpt>
<trkpt lat="45.9464170" lon="9.5806560">
	<ele>1818.80</ele>
	<time>2023-10-07T08:08:15.000Z</time>
</trkpt>
<trkpt lat="45.9464150" lon="9.5806510">
	<ele>1819.00</ele>
	<time>2023-10-07T08:08:16.000Z</time>
</trkpt>
<trkpt lat="45.9464150" lon="9.5806490">
	<ele>1819.20</ele>
	<time>2023-10-07T08:08:17.000Z</time>
</trkpt>
<trkpt lat="45.9464140" lon="9.5806480">
	<ele>1819.20</ele>
	<time>2023-10-07T08:08:18.000Z</time>
</trkpt>
<trkpt lat="45.9464120" lon="9.5806470">
	<ele>1819.40</ele>
	<time>2023-10-07T08:08:19.000Z</time>
</trkpt>
<trkpt lat="45.9464100" lon="9.5806430">
	<ele>1819.40</ele>
	<time>2023-10-07T08:08:20.000Z</time>
</trkpt>
<trkpt lat="45.9464060" lon="9.5806370">
	<ele>1819.40</ele>
	<time>2023-10-07T08:08:21.000Z</time>
</trkpt>
<trkpt lat="45.9464050" lon="9.5806310">
	<ele>1819.60</ele>
	<time>2023-10-07T08:08:22.000Z</time>
</trkpt>
<trkpt lat="45.9464050" lon="9.5806260">
	<ele>1819.80</ele>
	<time>2023-10-07T08:08:23.000Z</time>
</trkpt>
<trkpt lat="45.9464060" lon="9.5806210">
	<ele>1819.80</ele>
	<time>2023-10-07T08:08:24.000Z</time>
</trkpt>
<trkpt lat="45.9464060" lon="9.5806160">
	<ele>1820.00</ele>
	<time>2023-10-07T08:08:25.000Z</time>
</trkpt>
<trkpt lat="45.9464050" lon="9.5806130">
	<ele>1820.20</ele>
	<time>2023-10-07T08:08:26.000Z</time>
</trkpt>
<trkpt lat="45.9464050" lon="9.5806110">
	<ele>1820.20</ele>
	<time>2023-10-07T08:08:27.000Z</time>
</trkpt>
<trkpt lat="45.9464050" lon="9.5806060">
	<ele>1820.20</ele>
	<time>2023-10-07T08:08:28.000Z</time>
</trkpt>
<trkpt lat="45.9464030" lon="9.5806010">
	<ele>1820.20</ele>
	<time>2023-10-07T08:08:29.000Z</time>
</trkpt>
<trkpt lat="45.9464000" lon="9.5805960">
	<ele>1820.40</ele>
	<time>2023-10-07T08:08:30.000Z</time>
</trkpt>
<trkpt lat="45.9463970" lon="9.5805910">
	<ele>1820.60</ele>
	<time>2023-10-07T08:08:31.000Z</time>
</trkpt>
<trkpt lat="45.9463950" lon="9.5805890">
	<ele>1820.80</ele>
	<time>2023-10-07T08:08:32.000Z</time>
</trkpt>
<trkpt lat="45.9463920" lon="9.5805850">
	<ele>1821.00</ele>
	<time>2023-10-07T08:08:33.000Z</time>
</trkpt>
<trkpt lat="45.9463910" lon="9.5805830">
	<ele>1821.00</ele>
	<time>2023-10-07T08:08:34.000Z</time>
</trkpt>
<trkpt lat="45.9463880" lon="9.5805800">
	<ele>1821.20</ele>
	<time>2023-10-07T08:08:35.000Z</time>
</trkpt>
<trkpt lat="45.9463850" lon="9.5805770">
	<ele>1821.20</ele>
	<time>2023-10-07T08:08:36.000Z</time>
</trkpt>
<trkpt lat="45.9463810" lon="9.5805750">
	<ele>1821.20</ele>
	<time>2023-10-07T08:08:37.000Z</time>
</trkpt>
<trkpt lat="45.9463780" lon="9.5805730">
	<ele>1821.40</ele>
	<time>2023-10-07T08:08:38.000Z</time>
</trkpt>
<trkpt lat="45.9463790" lon="9.5805680">
	<ele>1821.60</ele>
	<time>2023-10-07T08:08:39.000Z</time>
</trkpt>
<trkpt lat="45.9463820" lon="9.5805620">
	<ele>1821.60</ele>
	<time>2023-10-07T08:08:40.000Z</time>
</trkpt>
<trkpt lat="45.9463850" lon="9.5805570">
	<ele>1821.80</ele>
	<time>2023-10-07T08:08:41.000Z</time>
</trkpt>
<trkpt lat="45.9463850" lon="9.5805540">
	<ele>1822.20</ele>
	<time>2023-10-07T08:08:42.000Z</time>
</trkpt>
<trkpt lat="45.9463860" lon="9.5805510">
	<ele>1822.60</ele>
	<time>2023-10-07T08:08:43.000Z</time>
</trkpt>
<trkpt lat="45.9463900" lon="9.5805500">
	<ele>1822.80</ele>
	<time>2023-10-07T08:08:44.000Z</time>
</trkpt>
<trkpt lat="45.9463920" lon="9.5805470">
	<ele>1823.00</ele>
	<time>2023-10-07T08:08:45.000Z</time>
</trkpt>
<trkpt lat="45.9463920" lon="9.5805440">
	<ele>1823.00</ele>
	<time>2023-10-07T08:08:46.000Z</time>
</trkpt>
<trkpt lat="45.9463920" lon="9.5805400">
	<ele>1823.20</ele>
	<time>2023-10-07T08:08:47.000Z</time>
</trkpt>
<trkpt lat="45.9463930" lon="9.5805390">
	<ele>1823.20</ele>
	<time>2023-10-07T08:08:48.000Z</time>
</trkpt>
<trkpt lat="45.9463990" lon="9.5805380">
	<ele>1823.40</ele>
	<time>2023-10-07T08:08:49.000Z</time>
</trkpt>
<trkpt lat="45.9464030" lon="9.5805360">
	<ele>1823.40</ele>
	<time>2023-10-07T08:08:50.000Z</time>
</trkpt>
<trkpt lat="45.9464070" lon="9.5805350">
	<ele>1823.60</ele>
	<time>2023-10-07T08:08:51.000Z</time>
</trkpt>
<trkpt lat="45.9464090" lon="9.5805340">
	<ele>1823.80</ele>
	<time>2023-10-07T08:08:52.000Z</time>
</trkpt>
<trkpt lat="45.9464140" lon="9.5805330">
	<ele>1824.00</ele>
	<time>2023-10-07T08:08:53.000Z</time>
</trkpt>
<trkpt lat="45.9464180" lon="9.5805310">
	<ele>1824.20</ele>
	<time>2023-10-07T08:08:54.000Z</time>
</trkpt>
<trkpt lat="45.9464210" lon="9.5805310">
	<ele>1824.40</ele>
	<time>2023-10-07T08:08:55.000Z</time>
</trkpt>
<trkpt lat="45.9464240" lon="9.5805300">
	<ele>1824.40</ele>
	<time>2023-10-07T08:08:56.000Z</time>
</trkpt>
<trkpt lat="45.9464280" lon="9.5805300">
	<ele>1824.40</ele>
	<time>2023-10-07T08:08:57.000Z</time>
</trkpt>
<trkpt lat="45.9464300" lon="9.5805280">
	<ele>1824.60</ele>
	<time>2023-10-07T08:08:58.000Z</time>
</trkpt>
<trkpt lat="45.9464320" lon="9.5805260">
	<ele>1824.60</ele>
	<time>2023-10-07T08:08:59.000Z</time>
</trkpt>
<trkpt lat="45.9464330" lon="9.5805220">
	<ele>1824.80</ele>
	<time>2023-10-07T08:09:00.000Z</time>
</trkpt>
<trkpt lat="45.9464330" lon="9.5805200">
	<ele>1824.80</ele>
	<time>2023-10-07T08:09:01.000Z</time>
</trkpt>
<trkpt lat="45.9464350" lon="9.5805180">
	<ele>1825.00</ele>
	<time>2023-10-07T08:09:02.000Z</time>
</trkpt>
<trkpt lat="45.9464350" lon="9.5805130">
	<ele>1825.00</ele>
	<time>2023-10-07T08:09:03.000Z</time>
</trkpt>
<trkpt lat="45.9464340" lon="9.5805090">
	<ele>1825.20</ele>
	<time>2023-10-07T08:09:04.000Z</time>
</trkpt>
<trkpt lat="45.9464310" lon="9.5805040">
	<ele>1825.40</ele>
	<time>2023-10-07T08:09:05.000Z</time>
</trkpt>
<trkpt lat="45.9464320" lon="9.5804990">
	<ele>1825.60</ele>
	<time>2023-10-07T08:09:06.000Z</time>
</trkpt>
<trkpt lat="45.9464340" lon="9.5804920">
	<ele>1825.80</ele>
	<time>2023-10-07T08:09:07.000Z</time>
</trkpt>
<trkpt lat="45.9464330" lon="9.5804890">
	<ele>1826.00</ele>
	<time>2023-10-07T08:09:08.000Z</time>
</trkpt>
<trkpt lat="45.9464340" lon="9.5804880">
	<ele>1826.20</ele>
	<time>2023-10-07T08:09:09.000Z</time>
</trkpt>
<trkpt lat="45.9464370" lon="9.5804870">
	<ele>1826.20</ele>
	<time>2023-10-07T08:09:10.000Z</time>
</trkpt>
<trkpt lat="45.9464410" lon="9.5804870">
	<ele>1826.40</ele>
	<time>2023-10-07T08:09:11.000Z</time>
</trkpt>
<trkpt lat="45.9464440" lon="9.5804830">
	<ele>1826.40</ele>
	<time>2023-10-07T08:09:12.000Z</time>
</trkpt>
<trkpt lat="45.9464460" lon="9.5804810">
	<ele>1826.60</ele>
	<time>2023-10-07T08:09:13.000Z</time>
</trkpt>
<trkpt lat="45.9464470" lon="9.5804790">
	<ele>1826.60</ele>
	<time>2023-10-07T08:09:14.000Z</time>
</trkpt>
<trkpt lat="45.9464510" lon="9.5804790">
	<ele>1826.80</ele>
	<time>2023-10-07T08:09:15.000Z</time>
</trkpt>
<trkpt lat="45.9464530" lon="9.5804750">
	<ele>1826.80</ele>
	<time>2023-10-07T08:09:16.000Z</time>
</trkpt>
<trkpt lat="45.9464530" lon="9.5804730">
	<ele>1827.00</ele>
	<time>2023-10-07T08:09:17.000Z</time>
</trkpt>
<trkpt lat="45.9464530" lon="9.5804710">
	<ele>1827.20</ele>
	<time>2023-10-07T08:09:18.000Z</time>
</trkpt>
<trkpt lat="45.9464540" lon="9.5804660">
	<ele>1827.40</ele>
	<time>2023-10-07T08:09:19.000Z</time>
</trkpt>
<trkpt lat="45.9464550" lon="9.5804580">
	<ele>1827.60</ele>
	<time>2023-10-07T08:09:20.000Z</time>
</trkpt>
<trkpt lat="45.9464550" lon="9.5804510">
	<ele>1827.60</ele>
	<time>2023-10-07T08:09:21.000Z</time>
</trkpt>
<trkpt lat="45.9464550" lon="9.5804470">
	<ele>1827.80</ele>
	<time>2023-10-07T08:09:22.000Z</time>
</trkpt>
<trkpt lat="45.9464570" lon="9.5804430">
	<ele>1828.00</ele>
	<time>2023-10-07T08:09:23.000Z</time>
</trkpt>
<trkpt lat="45.9464610" lon="9.5804390">
	<ele>1828.20</ele>
	<time>2023-10-07T08:09:24.000Z</time>
</trkpt>
<trkpt lat="45.9464630" lon="9.5804340">
	<ele>1828.40</ele>
	<time>2023-10-07T08:09:25.000Z</time>
</trkpt>
<trkpt lat="45.9464650" lon="9.5804320">
	<ele>1828.40</ele>
	<time>2023-10-07T08:09:26.000Z</time>
</trkpt>
<trkpt lat="45.9464680" lon="9.5804320">
	<ele>1828.60</ele>
	<time>2023-10-07T08:09:27.000Z</time>
</trkpt>
<trkpt lat="45.9464710" lon="9.5804300">
	<ele>1828.60</ele>
	<time>2023-10-07T08:09:28.000Z</time>
</trkpt>
<trkpt lat="45.9464720" lon="9.5804250">
	<ele>1828.60</ele>
	<time>2023-10-07T08:09:29.000Z</time>
</trkpt>
<trkpt lat="45.9464730" lon="9.5804210">
	<ele>1828.80</ele>
	<time>2023-10-07T08:09:30.000Z</time>
</trkpt>
<trkpt lat="45.9464720" lon="9.5804190">
	<ele>1829.20</ele>
	<time>2023-10-07T08:09:31.000Z</time>
</trkpt>
<trkpt lat="45.9464720" lon="9.5804180">
	<ele>1829.40</ele>
	<time>2023-10-07T08:09:32.000Z</time>
</trkpt>
<trkpt lat="45.9464730" lon="9.5804170">
	<ele>1829.60</ele>
	<time>2023-10-07T08:09:33.000Z</time>
</trkpt>
<trkpt lat="45.9464740" lon="9.5804130">
	<ele>1829.60</ele>
	<time>2023-10-07T08:09:34.000Z</time>
</trkpt>
<trkpt lat="45.9464740" lon="9.5804090">
	<ele>1829.80</ele>
	<time>2023-10-07T08:09:35.000Z</time>
</trkpt>
<trkpt lat="45.9464730" lon="9.5804040">
	<ele>1829.80</ele>
	<time>2023-10-07T08:09:36.000Z</time>
</trkpt>
<trkpt lat="45.9464720" lon="9.5803980">
	<ele>1829.80</ele>
	<time>2023-10-07T08:09:37.000Z</time>
</trkpt>
<trkpt lat="45.9464710" lon="9.5803920">
	<ele>1829.80</ele>
	<time>2023-10-07T08:09:38.000Z</time>
</trkpt>
<trkpt lat="45.9464690" lon="9.5803870">
	<ele>1830.00</ele>
	<time>2023-10-07T08:09:39.000Z</time>
</trkpt>
<trkpt lat="45.9464670" lon="9.5803840">
	<ele>1830.20</ele>
	<time>2023-10-07T08:09:40.000Z</time>
</trkpt>
<trkpt lat="45.9464660" lon="9.5803800">
	<ele>1830.20</ele>
	<time>2023-10-07T08:09:41.000Z</time>
</trkpt>
<trkpt lat="45.9464670" lon="9.5803740">
	<ele>1830.40</ele>
	<time>2023-10-07T08:09:42.000Z</time>
</trkpt>
<trkpt lat="45.9464680" lon="9.5803670">
	<ele>1830.40</ele>
	<time>2023-10-07T08:09:43.000Z</time>
</trkpt>
<trkpt lat="45.9464680" lon="9.5803640">
	<ele>1830.40</ele>
	<time>2023-10-07T08:09:44.000Z</time>
</trkpt>
<trkpt lat="45.9464670" lon="9.5803620">
	<ele>1830.80</ele>
	<time>2023-10-07T08:09:45.000Z</time>
</trkpt>
<trkpt lat="45.9464670" lon="9.5803590">
	<ele>1831.00</ele>
	<time>2023-10-07T08:09:46.000Z</time>
</trkpt>
<trkpt lat="45.9464690" lon="9.5803550">
	<ele>1831.00</ele>
	<time>2023-10-07T08:09:47.000Z</time>
</trkpt>
<trkpt lat="45.9464690" lon="9.5803490">
	<ele>1831.20</ele>
	<time>2023-10-07T08:09:48.000Z</time>
</trkpt>
<trkpt lat="45.9464700" lon="9.5803430">
	<ele>1831.40</ele>
	<time>2023-10-07T08:09:49.000Z</time>
</trkpt>
<trkpt lat="45.9464710" lon="9.5803380">
	<ele>1831.40</ele>
	<time>2023-10-07T08:09:50.000Z</time>
</trkpt>
<trkpt lat="45.9464720" lon="9.5803360">
	<ele>1831.60</ele>
	<time>2023-10-07T08:09:51.000Z</time>
</trkpt>
<trkpt lat="45.9464740" lon="9.5803320">
	<ele>1831.60</ele>
	<time>2023-10-07T08:09:52.000Z</time>
</trkpt>
<trkpt lat="45.9464760" lon="9.5803280">
	<ele>1831.80</ele>
	<time>2023-10-07T08:09:53.000Z</time>
</trkpt>
<trkpt lat="45.9464770" lon="9.5803250">
	<ele>1832.00</ele>
	<time>2023-10-07T08:09:54.000Z</time>
</trkpt>
<trkpt lat="45.9464780" lon="9.5803250">
	<ele>1832.20</ele>
	<time>2023-10-07T08:09:55.000Z</time>
</trkpt>
<trkpt lat="45.9464790" lon="9.5803240">
	<ele>1832.40</ele>
	<time>2023-10-07T08:09:56.000Z</time>
</trkpt>
<trkpt lat="45.9464820" lon="9.5803240">
	<ele>1832.60</ele>
	<time>2023-10-07T08:09:57.000Z</time>
</trkpt>
<trkpt lat="45.9464840" lon="9.5803210">
	<ele>1832.60</ele>
	<time>2023-10-07T08:09:58.000Z</time>
</trkpt>
<trkpt lat="45.9464860" lon="9.5803170">
	<ele>1832.80</ele>
	<time>2023-10-07T08:09:59.000Z</time>
</trkpt>
<trkpt lat="45.9464860" lon="9.5803150">
	<ele>1833.00</ele>
	<time>2023-10-07T08:10:00.000Z</time>
</trkpt>
<trkpt lat="45.9464860" lon="9.5803150">
	<ele>1833.20</ele>
	<time>2023-10-07T08:10:01.000Z</time>
</trkpt>
<trkpt lat="45.9464860" lon="9.5803150">
	<ele>1833.20</ele>
	<time>2023-10-07T08:10:02.000Z</time>
</trkpt>
<trkpt lat="45.9464860" lon="9.5803150">
	<ele>1833.20</ele>
	<time>2023-10-07T08:10:03.000Z</time>
</trkpt>
<trkpt lat="45.9464860" lon="9.5803150">
	<ele>1833.40</ele>
	<time>2023-10-07T08:10:04.000Z</time>
</trkpt>
<trkpt lat="45.9464860" lon="9.5803150">
	<ele>1833.40</ele>
	<time>2023-10-07T08:10:05.000Z</time>
</trkpt>
<trkpt lat="45.9464860" lon="9.5803150">
	<ele>1833.60</ele>
	<time>2023-10-07T08:10:06.000Z</time>
</trkpt>
<trkpt lat="45.9464860" lon="9.5803150">
	<ele>1833.80</ele>
	<time>2023-10-07T08:10:07.000Z</time>
</trkpt>
<trkpt lat="45.9464860" lon="9.5803150">
	<ele>1833.80</ele>
	<time>2023-10-07T08:10:08.000Z</time>
</trkpt>
<trkpt lat="45.9464860" lon="9.5803150">
	<ele>1834.00</ele>
	<time>2023-10-07T08:10:09.000Z</time>
</trkpt>
<trkpt lat="45.9464860" lon="9.5803150">
	<ele>1834.00</ele>
	<time>2023-10-07T08:10:10.000Z</time>
</trkpt>
<trkpt lat="45.9464860" lon="9.5803150">
	<ele>1834.20</ele>
	<time>2023-10-07T08:10:11.000Z</time>
</trkpt>
<trkpt lat="45.9464860" lon="9.5803150">
	<ele>1834.20</ele>
	<time>2023-10-07T08:10:12.000Z</time>
</trkpt>
<trkpt lat="45.9464860" lon="9.5803150">
	<ele>1834.40</ele>
	<time>2023-10-07T08:10:13.000Z</time>
</trkpt>
<trkpt lat="45.9464860" lon="9.5803150">
	<ele>1834.40</ele>
	<time>2023-10-07T08:10:14.000Z</time>
</trkpt>
<trkpt lat="45.9464860" lon="9.5803150">
	<ele>1834.60</ele>
	<time>2023-10-07T08:10:15.000Z</time>
</trkpt>
<trkpt lat="45.9464860" lon="9.5803150">
	<ele>1834.60</ele>
	<time>2023-10-07T08:10:16.000Z</time>
</trkpt>
<trkpt lat="45.9464870" lon="9.5803130">
	<ele>1834.80</ele>
	<time>2023-10-07T08:10:17.000Z</time>
</trkpt>
<trkpt lat="45.9464900" lon="9.5803100">
	<ele>1834.80</ele>
	<time>2023-10-07T08:10:18.000Z</time>
</trkpt>
<trkpt lat="45.9464900" lon="9.5803070">
	<ele>1834.80</ele>
	<time>2023-10-07T08:10:19.000Z</time>
</trkpt>
<trkpt lat="45.9464910" lon="9.5803040">
	<ele>1835.20</ele>
	<time>2023-10-07T08:10:20.000Z</time>
</trkpt>
<trkpt lat="45.9464910" lon="9.5803030">
	<ele>1835.40</ele>
	<time>2023-10-07T08:10:21.000Z</time>
</trkpt>
<trkpt lat="45.9464920" lon="9.5803010">
	<ele>1835.40</ele>
	<time>2023-10-07T08:10:22.000Z</time>
</trkpt>
<trkpt lat="45.9464920" lon="9.5802980">
	<ele>1835.60</ele>
	<time>2023-10-07T08:10:23.000Z</time>
</trkpt>
<trkpt lat="45.9464920" lon="9.5802960">
	<ele>1835.80</ele>
	<time>2023-10-07T08:10:24.000Z</time>
</trkpt>
<trkpt lat="45.9464930" lon="9.5802920">
	<ele>1836.00</ele>
	<time>2023-10-07T08:10:25.000Z</time>
</trkpt>
<trkpt lat="45.9464930" lon="9.5802900">
	<ele>1836.20</ele>
	<time>2023-10-07T08:10:26.000Z</time>
</trkpt>
<trkpt lat="45.9464930" lon="9.5802880">
	<ele>1836.20</ele>
	<time>2023-10-07T08:10:27.000Z</time>
</trkpt>
<trkpt lat="45.9464930" lon="9.5802840">
	<ele>1836.40</ele>
	<time>2023-10-07T08:10:28.000Z</time>
</trkpt>
<trkpt lat="45.9464930" lon="9.5802780">
	<ele>1836.60</ele>
	<time>2023-10-07T08:10:29.000Z</time>
</trkpt>
<trkpt lat="45.9464940" lon="9.5802740">
	<ele>1836.80</ele>
	<time>2023-10-07T08:10:30.000Z</time>
</trkpt>
<trkpt lat="45.9464940" lon="9.5802700">
	<ele>1837.00</ele>
	<time>2023-10-07T08:10:31.000Z</time>
</trkpt>
<trkpt lat="45.9464950" lon="9.5802650">
	<ele>1837.20</ele>
	<time>2023-10-07T08:10:32.000Z</time>
</trkpt>
<trkpt lat="45.9464950" lon="9.5802610">
	<ele>1837.20</ele>
	<time>2023-10-07T08:10:33.000Z</time>
</trkpt>
<trkpt lat="45.9464950" lon="9.5802550">
	<ele>1837.40</ele>
	<time>2023-10-07T08:10:34.000Z</time>
</trkpt>
<trkpt lat="45.9464960" lon="9.5802510">
	<ele>1837.40</ele>
	<time>2023-10-07T08:10:35.000Z</time>
</trkpt>
<trkpt lat="45.9464980" lon="9.5802460">
	<ele>1837.60</ele>
	<time>2023-10-07T08:10:36.000Z</time>
</trkpt>
<trkpt lat="45.9465000" lon="9.5802440">
	<ele>1837.80</ele>
	<time>2023-10-07T08:10:37.000Z</time>
</trkpt>
<trkpt lat="45.9465010" lon="9.5802400">
	<ele>1838.00</ele>
	<time>2023-10-07T08:10:38.000Z</time>
</trkpt>
<trkpt lat="45.9465020" lon="9.5802360">
	<ele>1838.00</ele>
	<time>2023-10-07T08:10:39.000Z</time>
</trkpt>
<trkpt lat="45.9465040" lon="9.5802320">
	<ele>1838.40</ele>
	<time>2023-10-07T08:10:40.000Z</time>
</trkpt>
<trkpt lat="45.9465060" lon="9.5802280">
	<ele>1838.60</ele>
	<time>2023-10-07T08:10:41.000Z</time>
</trkpt>
<trkpt lat="45.9465060" lon="9.5802220">
	<ele>1838.80</ele>
	<time>2023-10-07T08:10:42.000Z</time>
</trkpt>
<trkpt lat="45.9465070" lon="9.5802170">
	<ele>1838.80</ele>
	<time>2023-10-07T08:10:43.000Z</time>
</trkpt>
<trkpt lat="45.9465090" lon="9.5802130">
	<ele>1839.00</ele>
	<time>2023-10-07T08:10:44.000Z</time>
</trkpt>
<trkpt lat="45.9465110" lon="9.5802100">
	<ele>1839.20</ele>
	<time>2023-10-07T08:10:45.000Z</time>
</trkpt>
<trkpt lat="45.9465130" lon="9.5802060">
	<ele>1839.20</ele>
	<time>2023-10-07T08:10:46.000Z</time>
</trkpt>
<trkpt lat="45.9465140" lon="9.5802000">
	<ele>1839.40</ele>
	<time>2023-10-07T08:10:47.000Z</time>
</trkpt>
<trkpt lat="45.9465160" lon="9.5801960">
	<ele>1839.40</ele>
	<time>2023-10-07T08:10:48.000Z</time>
</trkpt>
<trkpt lat="45.9465160" lon="9.5801910">
	<ele>1839.60</ele>
	<time>2023-10-07T08:10:49.000Z</time>
</trkpt>
<trkpt lat="45.9465180" lon="9.5801870">
	<ele>1839.80</ele>
	<time>2023-10-07T08:10:50.000Z</time>
</trkpt>
<trkpt lat="45.9465220" lon="9.5801810">
	<ele>1840.00</ele>
	<time>2023-10-07T08:10:51.000Z</time>
</trkpt>
<trkpt lat="45.9465240" lon="9.5801760">
	<ele>1840.00</ele>
	<time>2023-10-07T08:10:52.000Z</time>
</trkpt>
<trkpt lat="45.9465250" lon="9.5801720">
	<ele>1840.20</ele>
	<time>2023-10-07T08:10:53.000Z</time>
</trkpt>
<trkpt lat="45.9465280" lon="9.5801690">
	<ele>1840.40</ele>
	<time>2023-10-07T08:10:54.000Z</time>
</trkpt>
<trkpt lat="45.9465310" lon="9.5801670">
	<ele>1840.60</ele>
	<time>2023-10-07T08:10:55.000Z</time>
</trkpt>
<trkpt lat="45.9465350" lon="9.5801660">
	<ele>1840.60</ele>
	<time>2023-10-07T08:10:56.000Z</time>
</trkpt>
<trkpt lat="45.9465370" lon="9.5801660">
	<ele>1840.60</ele>
	<time>2023-10-07T08:10:57.000Z</time>
</trkpt>
<trkpt lat="45.9465400" lon="9.5801650">
	<ele>1840.60</ele>
	<time>2023-10-07T08:10:58.000Z</time>
</trkpt>
<trkpt lat="45.9465430" lon="9.5801650">
	<ele>1840.60</ele>
	<time>2023-10-07T08:10:59.000Z</time>
</trkpt>
<trkpt lat="45.9465490" lon="9.5801640">
	<ele>1840.60</ele>
	<time>2023-10-07T08:11:00.000Z</time>
</trkpt>
<trkpt lat="45.9465540" lon="9.5801640">
	<ele>1840.80</ele>
	<time>2023-10-07T08:11:01.000Z</time>
</trkpt>
<trkpt lat="45.9465580" lon="9.5801630">
	<ele>1840.60</ele>
	<time>2023-10-07T08:11:02.000Z</time>
</trkpt>
<trkpt lat="45.9465640" lon="9.5801630">
	<ele>1840.60</ele>
	<time>2023-10-07T08:11:03.000Z</time>
</trkpt>
<trkpt lat="45.9465680" lon="9.5801620">
	<ele>1840.60</ele>
	<time>2023-10-07T08:11:04.000Z</time>
</trkpt>
<trkpt lat="45.9465720" lon="9.5801620">
	<ele>1840.60</ele>
	<time>2023-10-07T08:11:05.000Z</time>
</trkpt>
<trkpt lat="45.9465750" lon="9.5801600">
	<ele>1840.60</ele>
	<time>2023-10-07T08:11:06.000Z</time>
</trkpt>
<trkpt lat="45.9465770" lon="9.5801550">
	<ele>1840.60</ele>
	<time>2023-10-07T08:11:07.000Z</time>
</trkpt>
<trkpt lat="45.9465770" lon="9.5801500">
	<ele>1840.40</ele>
	<time>2023-10-07T08:11:08.000Z</time>
</trkpt>
<trkpt lat="45.9465770" lon="9.5801440">
	<ele>1840.40</ele>
	<time>2023-10-07T08:11:09.000Z</time>
</trkpt>
<trkpt lat="45.9465780" lon="9.5801400">
	<ele>1840.60</ele>
	<time>2023-10-07T08:11:10.000Z</time>
</trkpt>
<trkpt lat="45.9465780" lon="9.5801370">
	<ele>1840.60</ele>
	<time>2023-10-07T08:11:11.000Z</time>
</trkpt>
<trkpt lat="45.9465780" lon="9.5801330">
	<ele>1840.40</ele>
	<time>2023-10-07T08:11:12.000Z</time>
</trkpt>
<trkpt lat="45.9465780" lon="9.5801300">
	<ele>1840.40</ele>
	<time>2023-10-07T08:11:13.000Z</time>
</trkpt>
<trkpt lat="45.9465780" lon="9.5801240">
	<ele>1840.40</ele>
	<time>2023-10-07T08:11:14.000Z</time>
</trkpt>
<trkpt lat="45.9465780" lon="9.5801210">
	<ele>1840.40</ele>
	<time>2023-10-07T08:11:15.000Z</time>
</trkpt>
<trkpt lat="45.9465790" lon="9.5801200">
	<ele>1840.20</ele>
	<time>2023-10-07T08:11:16.000Z</time>
</trkpt>
<trkpt lat="45.9465790" lon="9.5801190">
	<ele>1840.20</ele>
	<time>2023-10-07T08:11:17.000Z</time>
</trkpt>
<trkpt lat="45.9465790" lon="9.5801180">
	<ele>1840.20</ele>
	<time>2023-10-07T08:11:18.000Z</time>
</trkpt>
<trkpt lat="45.9465800" lon="9.5801180">
	<ele>1840.20</ele>
	<time>2023-10-07T08:11:19.000Z</time>
</trkpt>
<trkpt lat="45.9465800" lon="9.5801170">
	<ele>1840.20</ele>
	<time>2023-10-07T08:11:20.000Z</time>
</trkpt>
<trkpt lat="45.9465800" lon="9.5801170">
	<ele>1840.20</ele>
	<time>2023-10-07T08:11:21.000Z</time>
</trkpt>
<trkpt lat="45.9465800" lon="9.5801160">
	<ele>1840.20</ele>
	<time>2023-10-07T08:11:22.000Z</time>
</trkpt>
<trkpt lat="45.9465810" lon="9.5801160">
	<ele>1840.40</ele>
	<time>2023-10-07T08:11:23.000Z</time>
</trkpt>
<trkpt lat="45.9465810" lon="9.5801160">
	<ele>1840.40</ele>
	<time>2023-10-07T08:11:24.000Z</time>
</trkpt>
<trkpt lat="45.9465810" lon="9.5801160">
	<ele>1840.60</ele>
	<time>2023-10-07T08:11:25.000Z</time>
</trkpt>
<trkpt lat="45.9465810" lon="9.5801160">
	<ele>1840.80</ele>
	<time>2023-10-07T08:11:26.000Z</time>
</trkpt>
<trkpt lat="45.9465810" lon="9.5801160">
	<ele>1841.00</ele>
	<time>2023-10-07T08:11:27.000Z</time>
</trkpt>
<trkpt lat="45.9465820" lon="9.5801160">
	<ele>1841.00</ele>
	<time>2023-10-07T08:11:28.000Z</time>
</trkpt>
<trkpt lat="45.9465820" lon="9.5801160">
	<ele>1841.00</ele>
	<time>2023-10-07T08:11:29.000Z</time>
</trkpt>
<trkpt lat="45.9465820" lon="9.5801160">
	<ele>1841.20</ele>
	<time>2023-10-07T08:11:30.000Z</time>
</trkpt>
<trkpt lat="45.9465820" lon="9.5801160">
	<ele>1841.20</ele>
	<time>2023-10-07T08:11:31.000Z</time>
</trkpt>
<trkpt lat="45.9465830" lon="9.5801160">
	<ele>1841.00</ele>
	<time>2023-10-07T08:11:32.000Z</time>
</trkpt>
<trkpt lat="45.9465840" lon="9.5801160">
	<ele>1840.80</ele>
	<time>2023-10-07T08:11:33.000Z</time>
</trkpt>
<trkpt lat="45.9465850" lon="9.5801160">
	<ele>1840.80</ele>
	<time>2023-10-07T08:11:34.000Z</time>
</trkpt>
<trkpt lat="45.9465860" lon="9.5801160">
	<ele>1840.80</ele>
	<time>2023-10-07T08:11:35.000Z</time>
</trkpt>
<trkpt lat="45.9465890" lon="9.5801160">
	<ele>1840.80</ele>
	<time>2023-10-07T08:11:36.000Z</time>
</trkpt>
<trkpt lat="45.9465910" lon="9.5801170">
	<ele>1840.60</ele>
	<time>2023-10-07T08:11:37.000Z</time>
</trkpt>
<trkpt lat="45.9465920" lon="9.5801180">
	<ele>1840.60</ele>
	<time>2023-10-07T08:11:38.000Z</time>
</trkpt>
<trkpt lat="45.9465930" lon="9.5801180">
	<ele>1840.60</ele>
	<time>2023-10-07T08:11:39.000Z</time>
</trkpt>
<trkpt lat="45.9465930" lon="9.5801180">
	<ele>1840.60</ele>
	<time>2023-10-07T08:11:40.000Z</time>
</trkpt>
<trkpt lat="45.9465930" lon="9.5801180">
	<ele>1840.40</ele>
	<time>2023-10-07T08:11:41.000Z</time>
</trkpt>
<trkpt lat="45.9465930" lon="9.5801180">
	<ele>1840.40</ele>
	<time>2023-10-07T08:11:42.000Z</time>
</trkpt>
<trkpt lat="45.9465930" lon="9.5801180">
	<ele>1840.40</ele>
	<time>2023-10-07T08:11:43.000Z</time>
</trkpt>
<trkpt lat="45.9465930" lon="9.5801180">
	<ele>1840.60</ele>
	<time>2023-10-07T08:11:44.000Z</time>
</trkpt>
<trkpt lat="45.9465930" lon="9.5801180">
	<ele>1840.60</ele>
	<time>2023-10-07T08:11:45.000Z</time>
</trkpt>
<trkpt lat="45.9465930" lon="9.5801180">
	<ele>1840.60</ele>
	<time>2023-10-07T08:11:46.000Z</time>
</trkpt>
<trkpt lat="45.9465930" lon="9.5801180">
	<ele>1840.60</ele>
	<time>2023-10-07T08:11:47.000Z</time>
</trkpt>
<trkpt lat="45.9465930" lon="9.5801180">
	<ele>1840.60</ele>
	<time>2023-10-07T08:11:48.000Z</time>
</trkpt>
<trkpt lat="45.9465930" lon="9.5801180">
	<ele>1840.60</ele>
	<time>2023-10-07T08:11:49.000Z</time>
</trkpt>
<trkpt lat="45.9465930" lon="9.5801180">
	<ele>1840.60</ele>
	<time>2023-10-07T08:11:50.000Z</time>
</trkpt>
<trkpt lat="45.9465930" lon="9.5801180">
	<ele>1840.80</ele>
	<time>2023-10-07T08:11:51.000Z</time>
</trkpt>
<trkpt lat="45.9465910" lon="9.5801180">
	<ele>1840.80</ele>
	<time>2023-10-07T08:11:52.000Z</time>
</trkpt>
<trkpt lat="45.9465860" lon="9.5801150">
	<ele>1840.60</ele>
	<time>2023-10-07T08:11:53.000Z</time>
</trkpt>
<trkpt lat="45.9465830" lon="9.5801100">
	<ele>1840.60</ele>
	<time>2023-10-07T08:11:54.000Z</time>
</trkpt>
<trkpt lat="45.9465810" lon="9.5801070">
	<ele>1840.60</ele>
	<time>2023-10-07T08:11:55.000Z</time>
</trkpt>
<trkpt lat="45.9465790" lon="9.5801040">
	<ele>1840.60</ele>
	<time>2023-10-07T08:11:56.000Z</time>
</trkpt>
<trkpt lat="45.9465780" lon="9.5801030">
	<ele>1840.60</ele>
	<time>2023-10-07T08:11:57.000Z</time>
</trkpt>
<trkpt lat="45.9465770" lon="9.5801020">
	<ele>1840.60</ele>
	<time>2023-10-07T08:11:58.000Z</time>
</trkpt>
<trkpt lat="45.9465760" lon="9.5801010">
	<ele>1840.60</ele>
	<time>2023-10-07T08:11:59.000Z</time>
</trkpt>
<trkpt lat="45.9465750" lon="9.5801010">
	<ele>1840.60</ele>
	<time>2023-10-07T08:12:00.000Z</time>
</trkpt>
<trkpt lat="45.9465740" lon="9.5801000">
	<ele>1840.60</ele>
	<time>2023-10-07T08:12:01.000Z</time>
</trkpt>
<trkpt lat="45.9465740" lon="9.5801000">
	<ele>1840.60</ele>
	<time>2023-10-07T08:12:02.000Z</time>
</trkpt>
<trkpt lat="45.9465740" lon="9.5800990">
	<ele>1840.60</ele>
	<time>2023-10-07T08:12:03.000Z</time>
</trkpt>
<trkpt lat="45.9465740" lon="9.5800990">
	<ele>1840.60</ele>
	<time>2023-10-07T08:12:04.000Z</time>
</trkpt>
<trkpt lat="45.9465730" lon="9.5800960">
	<ele>1840.60</ele>
	<time>2023-10-07T08:12:05.000Z</time>
</trkpt>
<trkpt lat="45.9465720" lon="9.5800930">
	<ele>1840.60</ele>
	<time>2023-10-07T08:12:06.000Z</time>
</trkpt>
<trkpt lat="45.9465720" lon="9.5800910">
	<ele>1840.60</ele>
	<time>2023-10-07T08:12:07.000Z</time>
</trkpt>
<trkpt lat="45.9465710" lon="9.5800890">
	<ele>1840.60</ele>
	<time>2023-10-07T08:12:08.000Z</time>
</trkpt>
<trkpt lat="45.9465680" lon="9.5800880">
	<ele>1840.60</ele>
	<time>2023-10-07T08:12:09.000Z</time>
</trkpt>
<trkpt lat="45.9465650" lon="9.5800850">
	<ele>1840.60</ele>
	<time>2023-10-07T08:12:10.000Z</time>
</trkpt>
<trkpt lat="45.9465620" lon="9.5800820">
	<ele>1840.60</ele>
	<time>2023-10-07T08:12:11.000Z</time>
</trkpt>
<trkpt lat="45.9465610" lon="9.5800800">
	<ele>1840.60</ele>
	<time>2023-10-07T08:12:12.000Z</time>
</trkpt>
<trkpt lat="45.9465600" lon="9.5800780">
	<ele>1840.60</ele>
	<time>2023-10-07T08:12:13.000Z</time>
</trkpt>
<trkpt lat="45.9465590" lon="9.5800760">
	<ele>1840.60</ele>
	<time>2023-10-07T08:12:14.000Z</time>
</trkpt>
<trkpt lat="45.9465590" lon="9.5800750">
	<ele>1840.60</ele>
	<time>2023-10-07T08:12:15.000Z</time>
</trkpt>
<trkpt lat="45.9465590" lon="9.5800740">
	<ele>1840.60</ele>
	<time>2023-10-07T08:12:16.000Z</time>
</trkpt>
<trkpt lat="45.9465580" lon="9.5800730">
	<ele>1840.60</ele>
	<time>2023-10-07T08:12:17.000Z</time>
</trkpt>
<trkpt lat="45.9465580" lon="9.5800730">
	<ele>1840.60</ele>
	<time>2023-10-07T08:12:18.000Z</time>
</trkpt>
<trkpt lat="45.9465580" lon="9.5800720">
	<ele>1840.60</ele>
	<time>2023-10-07T08:12:19.000Z</time>
</trkpt>
<trkpt lat="45.9465580" lon="9.5800720">
	<ele>1840.60</ele>
	<time>2023-10-07T08:12:20.000Z</time>
</trkpt>
<trkpt lat="45.9465580" lon="9.5800720">
	<ele>1840.60</ele>
	<time>2023-10-07T08:12:21.000Z</time>
</trkpt>
<trkpt lat="45.9465580" lon="9.5800720">
	<ele>1840.40</ele>
	<time>2023-10-07T08:12:22.000Z</time>
</trkpt>
<trkpt lat="45.9465570" lon="9.5800710">
	<ele>1840.40</ele>
	<time>2023-10-07T08:12:23.000Z</time>
</trkpt>
<trkpt lat="45.9465570" lon="9.5800710">
	<ele>1840.60</ele>
	<time>2023-10-07T08:12:24.000Z</time>
</trkpt>
<trkpt lat="45.9465570" lon="9.5800710">
	<ele>1840.60</ele>
	<time>2023-10-07T08:12:25.000Z</time>
</trkpt>
<trkpt lat="45.9465570" lon="9.5800710">
	<ele>1840.60</ele>
	<time>2023-10-07T08:12:26.000Z</time>
</trkpt>
<trkpt lat="45.9465570" lon="9.5800710">
	<ele>1840.60</ele>
	<time>2023-10-07T08:12:27.000Z</time>
</trkpt>
<trkpt lat="45.9465560" lon="9.5800710">
	<ele>1840.60</ele>
	<time>2023-10-07T08:12:28.000Z</time>
</trkpt>
<trkpt lat="45.9465560" lon="9.5800710">
	<ele>1840.60</ele>
	<time>2023-10-07T08:12:29.000Z</time>
</trkpt>
<trkpt lat="45.9465560" lon="9.5800710">
	<ele>1840.60</ele>
	<time>2023-10-07T08:12:30.000Z</time>
</trkpt>
<trkpt lat="45.9465560" lon="9.5800710">
	<ele>1840.60</ele>
	<time>2023-10-07T08:12:31.000Z</time>
</trkpt>
<trkpt lat="45.9465560" lon="9.5800710">
	<ele>1840.60</ele>
	<time>2023-10-07T08:12:32.000Z</time>
</trkpt>
<trkpt lat="45.9465560" lon="9.5800710">
	<ele>1840.60</ele>
	<time>2023-10-07T08:12:33.000Z</time>
</trkpt>
<trkpt lat="45.9465560" lon="9.5800710">
	<ele>1840.80</ele>
	<time>2023-10-07T08:12:34.000Z</time>
</trkpt>
<trkpt lat="45.9465560" lon="9.5800710">
	<ele>1840.80</ele>
	<time>2023-10-07T08:12:35.000Z</time>
</trkpt>
<trkpt lat="45.9465560" lon="9.5800710">
	<ele>1840.80</ele>
	<time>2023-10-07T08:12:36.000Z</time>
</trkpt>
<trkpt lat="45.9465560" lon="9.5800710">
	<ele>1840.60</ele>
	<time>2023-10-07T08:12:37.000Z</time>
</trkpt>
<trkpt lat="45.9465550" lon="9.5800710">
	<ele>1840.60</ele>
	<time>2023-10-07T08:12:38.000Z</time>
</trkpt>
<trkpt lat="45.9465550" lon="9.5800710">
	<ele>1840.40</ele>
	<time>2023-10-07T08:12:39.000Z</time>
</trkpt>
<trkpt lat="45.9465550" lon="9.5800710">
	<ele>1840.40</ele>
	<time>2023-10-07T08:12:40.000Z</time>
</trkpt>
<trkpt lat="45.9465550" lon="9.5800710">
	<ele>1840.40</ele>
	<time>2023-10-07T08:12:41.000Z</time>
</trkpt>
<trkpt lat="45.9465550" lon="9.5800710">
	<ele>1840.40</ele>
	<time>2023-10-07T08:12:42.000Z</time>
</trkpt>
<trkpt lat="45.9465550" lon="9.5800710">
	<ele>1840.40</ele>
	<time>2023-10-07T08:12:43.000Z</time>
</trkpt>
<trkpt lat="45.9465550" lon="9.5800710">
	<ele>1840.40</ele>
	<time>2023-10-07T08:12:44.000Z</time>
</trkpt>
<trkpt lat="45.9465540" lon="9.5800710">
	<ele>1840.40</ele>
	<time>2023-10-07T08:12:45.000Z</time>
</trkpt>
<trkpt lat="45.9465540" lon="9.5800710">
	<ele>1840.40</ele>
	<time>2023-10-07T08:12:46.000Z</time>
</trkpt>
<trkpt lat="45.9465540" lon="9.5800710">
	<ele>1840.20</ele>
	<time>2023-10-07T08:12:47.000Z</time>
</trkpt>
<trkpt lat="45.9465540" lon="9.5800710">
	<ele>1840.20</ele>
	<time>2023-10-07T08:12:48.000Z</time>
</trkpt>
<trkpt lat="45.9465540" lon="9.5800710">
	<ele>1840.00</ele>
	<time>2023-10-07T08:12:49.000Z</time>
</trkpt>
<trkpt lat="45.9465540" lon="9.5800710">
	<ele>1840.20</ele>
	<time>2023-10-07T08:12:50.000Z</time>
</trkpt>
<trkpt lat="45.9465540" lon="9.5800720">
	<ele>1840.20</ele>
	<time>2023-10-07T08:12:51.000Z</time>
</trkpt>
<trkpt lat="45.9465540" lon="9.5800720">
	<ele>1840.20</ele>
	<time>2023-10-07T08:12:52.000Z</time>
</trkpt>
<trkpt lat="45.9465540" lon="9.5800720">
	<ele>1840.20</ele>
	<time>2023-10-07T08:12:53.000Z</time>
</trkpt>
<trkpt lat="45.9465540" lon="9.5800720">
	<ele>1840.20</ele>
	<time>2023-10-07T08:12:54.000Z</time>
</trkpt>
<trkpt lat="45.9465540" lon="9.5800720">
	<ele>1840.20</ele>
	<time>2023-10-07T08:12:55.000Z</time>
</trkpt>
<trkpt lat="45.9465540" lon="9.5800720">
	<ele>1840.40</ele>
	<time>2023-10-07T08:12:56.000Z</time>
</trkpt>
<trkpt lat="45.9465540" lon="9.5800720">
	<ele>1840.40</ele>
	<time>2023-10-07T08:12:57.000Z</time>
</trkpt>
<trkpt lat="45.9465540" lon="9.5800720">
	<ele>1840.40</ele>
	<time>2023-10-07T08:12:58.000Z</time>
</trkpt>
<trkpt lat="45.9465540" lon="9.5800720">
	<ele>1840.60</ele>
	<time>2023-10-07T08:12:59.000Z</time>
</trkpt>
<trkpt lat="45.9465540" lon="9.5800720">
	<ele>1840.60</ele>
	<time>2023-10-07T08:13:00.000Z</time>
</trkpt>
<trkpt lat="45.9465540" lon="9.5800720">
	<ele>1840.60</ele>
	<time>2023-10-07T08:13:01.000Z</time>
</trkpt>
<trkpt lat="45.9465540" lon="9.5800720">
	<ele>1840.60</ele>
	<time>2023-10-07T08:13:02.000Z</time>
</trkpt>
<trkpt lat="45.9465540" lon="9.5800720">
	<ele>1840.60</ele>
	<time>2023-10-07T08:13:03.000Z</time>
</trkpt>
<trkpt lat="45.9465540" lon="9.5800720">
	<ele>1840.60</ele>
	<time>2023-10-07T08:13:04.000Z</time>
</trkpt>
<trkpt lat="45.9465540" lon="9.5800730">
	<ele>1840.80</ele>
	<time>2023-10-07T08:13:05.000Z</time>
</trkpt>
<trkpt lat="45.9465540" lon="9.5800740">
	<ele>1840.80</ele>
	<time>2023-10-07T08:13:06.000Z</time>
</trkpt>
<trkpt lat="45.9465550" lon="9.5800750">
	<ele>1841.00</ele>
	<time>2023-10-07T08:13:07.000Z</time>
</trkpt>
<trkpt lat="45.9465550" lon="9.5800770">
	<ele>1841.00</ele>
	<time>2023-10-07T08:13:08.000Z</time>
</trkpt>
<trkpt lat="45.9465560" lon="9.5800780">
	<ele>1841.00</ele>
	<time>2023-10-07T08:13:09.000Z</time>
</trkpt>
<trkpt lat="45.9465560" lon="9.5800800">
	<ele>1841.20</ele>
	<time>2023-10-07T08:13:10.000Z</time>
</trkpt>
<trkpt lat="45.9465570" lon="9.5800820">
	<ele>1841.00</ele>
	<time>2023-10-07T08:13:11.000Z</time>
</trkpt>
<trkpt lat="45.9465580" lon="9.5800830">
	<ele>1841.20</ele>
	<time>2023-10-07T08:13:12.000Z</time>
</trkpt>
<trkpt lat="45.9465590" lon="9.5800850">
	<ele>1841.20</ele>
	<time>2023-10-07T08:13:13.000Z</time>
</trkpt>
<trkpt lat="45.9465590" lon="9.5800860">
	<ele>1841.00</ele>
	<time>2023-10-07T08:13:14.000Z</time>
</trkpt>
<trkpt lat="45.9465600" lon="9.5800870">
	<ele>1841.00</ele>
	<time>2023-10-07T08:13:15.000Z</time>
</trkpt>
<trkpt lat="45.9465610" lon="9.5800880">
	<ele>1841.00</ele>
	<time>2023-10-07T08:13:16.000Z</time>
</trkpt>
<trkpt lat="45.9465610" lon="9.5800890">
	<ele>1841.00</ele>
	<time>2023-10-07T08:13:17.000Z</time>
</trkpt>
<trkpt lat="45.9465610" lon="9.5800890">
	<ele>1841.00</ele>
	<time>2023-10-07T08:13:18.000Z</time>
</trkpt>
<trkpt lat="45.9465610" lon="9.5800900">
	<ele>1840.80</ele>
	<time>2023-10-07T08:13:19.000Z</time>
</trkpt>
<trkpt lat="45.9465620" lon="9.5800900">
	<ele>1840.80</ele>
	<time>2023-10-07T08:13:20.000Z</time>
</trkpt>
<trkpt lat="45.9465620" lon="9.5800900">
	<ele>1840.80</ele>
	<time>2023-10-07T08:13:21.000Z</time>
</trkpt>
<trkpt lat="45.9465620" lon="9.5800900">
	<ele>1841.00</ele>
	<time>2023-10-07T08:13:22.000Z</time>
</trkpt>
<trkpt lat="45.9465620" lon="9.5800900">
	<ele>1841.20</ele>
	<time>2023-10-07T08:13:23.000Z</time>
</trkpt>
<trkpt lat="45.9465620" lon="9.5800900">
	<ele>1841.20</ele>
	<time>2023-10-07T08:13:24.000Z</time>
</trkpt>
<trkpt lat="45.9465620" lon="9.5800900">
	<ele>1841.20</ele>
	<time>2023-10-07T08:13:25.000Z</time>
</trkpt>
<trkpt lat="45.9465620" lon="9.5800900">
	<ele>1841.40</ele>
	<time>2023-10-07T08:13:26.000Z</time>
</trkpt>
<trkpt lat="45.9465620" lon="9.5800900">
	<ele>1841.40</ele>
	<time>2023-10-07T08:13:27.000Z</time>
</trkpt>
<trkpt lat="45.9465620" lon="9.5800900">
	<ele>1841.20</ele>
	<time>2023-10-07T08:13:28.000Z</time>
</trkpt>
<trkpt lat="45.9465620" lon="9.5800900">
	<ele>1841.20</ele>
	<time>2023-10-07T08:13:29.000Z</time>
</trkpt>
<trkpt lat="45.9465620" lon="9.5800900">
	<ele>1841.00</ele>
	<time>2023-10-07T08:13:30.000Z</time>
</trkpt>
<trkpt lat="45.9465620" lon="9.5800910">
	<ele>1841.00</ele>
	<time>2023-10-07T08:13:31.000Z</time>
</trkpt>
<trkpt lat="45.9465620" lon="9.5800910">
	<ele>1841.00</ele>
	<time>2023-10-07T08:13:32.000Z</time>
</trkpt>
<trkpt lat="45.9465620" lon="9.5800910">
	<ele>1841.00</ele>
	<time>2023-10-07T08:13:33.000Z</time>
</trkpt>
<trkpt lat="45.9465620" lon="9.5800910">
	<ele>1840.80</ele>
	<time>2023-10-07T08:13:34.000Z</time>
</trkpt>
<trkpt lat="45.9465620" lon="9.5800910">
	<ele>1840.80</ele>
	<time>2023-10-07T08:13:35.000Z</time>
</trkpt>
<trkpt lat="45.9465620" lon="9.5800910">
	<ele>1841.00</ele>
	<time>2023-10-07T08:13:36.000Z</time>
</trkpt>
<trkpt lat="45.9465620" lon="9.5800910">
	<ele>1840.80</ele>
	<time>2023-10-07T08:13:37.000Z</time>
</trkpt>
<trkpt lat="45.9465620" lon="9.5800910">
	<ele>1840.80</ele>
	<time>2023-10-07T08:13:38.000Z</time>
</trkpt>
<trkpt lat="45.9465620" lon="9.5800910">
	<ele>1840.60</ele>
	<time>2023-10-07T08:13:39.000Z</time>
</trkpt>
<trkpt lat="45.9465620" lon="9.5800910">
	<ele>1840.60</ele>
	<time>2023-10-07T08:13:40.000Z</time>
</trkpt>
<trkpt lat="45.9465620" lon="9.5800910">
	<ele>1840.60</ele>
	<time>2023-10-07T08:13:41.000Z</time>
</trkpt>
<trkpt lat="45.9465620" lon="9.5800910">
	<ele>1840.60</ele>
	<time>2023-10-07T08:13:42.000Z</time>
</trkpt>
<trkpt lat="45.9465620" lon="9.5800910">
	<ele>1840.60</ele>
	<time>2023-10-07T08:13:43.000Z</time>
</trkpt>
<trkpt lat="45.9465620" lon="9.5800910">
	<ele>1840.80</ele>
	<time>2023-10-07T08:13:44.000Z</time>
</trkpt>
<trkpt lat="45.9465620" lon="9.5800910">
	<ele>1841.00</ele>
	<time>2023-10-07T08:13:45.000Z</time>
</trkpt>
<trkpt lat="45.9465620" lon="9.5800910">
	<ele>1841.40</ele>
	<time>2023-10-07T08:13:46.000Z</time>
</trkpt>
<trkpt lat="45.9465620" lon="9.5800910">
	<ele>1841.60</ele>
	<time>2023-10-07T08:13:47.000Z</time>
</trkpt>
<trkpt lat="45.9465620" lon="9.5800910">
	<ele>1841.80</ele>
	<time>2023-10-07T08:13:48.000Z</time>
</trkpt>
<trkpt lat="45.9465620" lon="9.5800910">
	<ele>1841.80</ele>
	<time>2023-10-07T08:13:49.000Z</time>
</trkpt>
<trkpt lat="45.9465620" lon="9.5800910">
	<ele>1842.00</ele>
	<time>2023-10-07T08:13:50.000Z</time>
</trkpt>
<trkpt lat="45.9465620" lon="9.5800910">
	<ele>1842.00</ele>
	<time>2023-10-07T08:13:51.000Z</time>
</trkpt>
<trkpt lat="45.9465620" lon="9.5800910">
	<ele>1842.00</ele>
	<time>2023-10-07T08:13:52.000Z</time>
</trkpt>
<trkpt lat="45.9465620" lon="9.5800910">
	<ele>1841.80</ele>
	<time>2023-10-07T08:13:53.000Z</time>
</trkpt>
<trkpt lat="45.9465620" lon="9.5800920">
	<ele>1841.80</ele>
	<time>2023-10-07T08:13:54.000Z</time>
</trkpt>
<trkpt lat="45.9465620" lon="9.5800920">
	<ele>1841.80</ele>
	<time>2023-10-07T08:13:55.000Z</time>
</trkpt>
<trkpt lat="45.9465620" lon="9.5800920">
	<ele>1841.80</ele>
	<time>2023-10-07T08:13:56.000Z</time>
</trkpt>
<trkpt lat="45.9465620" lon="9.5800920">
	<ele>1841.60</ele>
	<time>2023-10-07T08:13:57.000Z</time>
</trkpt>
<trkpt lat="45.9465620" lon="9.5800920">
	<ele>1841.40</ele>
	<time>2023-10-07T08:13:58.000Z</time>
</trkpt>
<trkpt lat="45.9465620" lon="9.5800920">
	<ele>1841.40</ele>
	<time>2023-10-07T08:13:59.000Z</time>
</trkpt>
<trkpt lat="45.9465620" lon="9.5800920">
	<ele>1841.20</ele>
	<time>2023-10-07T08:14:00.000Z</time>
</trkpt>
<trkpt lat="45.9465620" lon="9.5800920">
	<ele>1841.20</ele>
	<time>2023-10-07T08:14:01.000Z</time>
</trkpt>
<trkpt lat="45.9465620" lon="9.5800920">
	<ele>1841.20</ele>
	<time>2023-10-07T08:14:02.000Z</time>
</trkpt>
<trkpt lat="45.9465620" lon="9.5800920">
	<ele>1841.20</ele>
	<time>2023-10-07T08:14:03.000Z</time>
</trkpt>
<trkpt lat="45.9465620" lon="9.5800920">
	<ele>1841.20</ele>
	<time>2023-10-07T08:14:04.000Z</time>
</trkpt>
<trkpt lat="45.9465620" lon="9.5800920">
	<ele>1841.00</ele>
	<time>2023-10-07T08:14:05.000Z</time>
</trkpt>
<trkpt lat="45.9465620" lon="9.5800920">
	<ele>1841.00</ele>
	<time>2023-10-07T08:14:06.000Z</time>
</trkpt>
<trkpt lat="45.9465620" lon="9.5800920">
	<ele>1841.00</ele>
	<time>2023-10-07T08:14:07.000Z</time>
</trkpt>
<trkpt lat="45.9465620" lon="9.5800920">
	<ele>1841.00</ele>
	<time>2023-10-07T08:14:08.000Z</time>
</trkpt>
<trkpt lat="45.9465620" lon="9.5800920">
	<ele>1841.20</ele>
	<time>2023-10-07T08:14:09.000Z</time>
</trkpt>
<trkpt lat="45.9465620" lon="9.5800920">
	<ele>1841.00</ele>
	<time>2023-10-07T08:14:10.000Z</time>
</trkpt>
<trkpt lat="45.9465620" lon="9.5800920">
	<ele>1841.00</ele>
	<time>2023-10-07T08:14:11.000Z</time>
</trkpt>
<trkpt lat="45.9465620" lon="9.5800920">
	<ele>1840.80</ele>
	<time>2023-10-07T08:14:12.000Z</time>
</trkpt>
<trkpt lat="45.9465620" lon="9.5800920">
	<ele>1841.00</ele>
	<time>2023-10-07T08:14:13.000Z</time>
</trkpt>
<trkpt lat="45.9465620" lon="9.5800920">
	<ele>1841.00</ele>
	<time>2023-10-07T08:14:14.000Z</time>
</trkpt>
<trkpt lat="45.9465620" lon="9.5800920">
	<ele>1841.20</ele>
	<time>2023-10-07T08:14:15.000Z</time>
</trkpt>
<trkpt lat="45.9465620" lon="9.5800920">
	<ele>1841.20</ele>
	<time>2023-10-07T08:14:16.000Z</time>
</trkpt>
<trkpt lat="45.9465620" lon="9.5800930">
	<ele>1841.20</ele>
	<time>2023-10-07T08:14:17.000Z</time>
</trkpt>
<trkpt lat="45.9465620" lon="9.5800930">
	<ele>1841.20</ele>
	<time>2023-10-07T08:14:18.000Z</time>
</trkpt>
<trkpt lat="45.9465620" lon="9.5800930">
	<ele>1841.20</ele>
	<time>2023-10-07T08:14:19.000Z</time>
</trkpt>
<trkpt lat="45.9465620" lon="9.5800930">
	<ele>1841.20</ele>
	<time>2023-10-07T08:14:20.000Z</time>
</trkpt>
<trkpt lat="45.9465620" lon="9.5800930">
	<ele>1841.00</ele>
	<time>2023-10-07T08:14:21.000Z</time>
</trkpt>
<trkpt lat="45.9465620" lon="9.5800930">
	<ele>1841.00</ele>
	<time>2023-10-07T08:14:22.000Z</time>
</trkpt>
<trkpt lat="45.9465620" lon="9.5800930">
	<ele>1841.20</ele>
	<time>2023-10-07T08:14:23.000Z</time>
</trkpt>
<trkpt lat="45.9465620" lon="9.5800930">
	<ele>1841.20</ele>
	<time>2023-10-07T08:14:24.000Z</time>
</trkpt>
<trkpt lat="45.9465620" lon="9.5800930">
	<ele>1841.20</ele>
	<time>2023-10-07T08:14:25.000Z</time>
</trkpt>
<trkpt lat="45.9465620" lon="9.5800930">
	<ele>1841.20</ele>
	<time>2023-10-07T08:14:26.000Z</time>
</trkpt>
<trkpt lat="45.9465630" lon="9.5800930">
	<ele>1841.20</ele>
	<time>2023-10-07T08:14:27.000Z</time>
</trkpt>
<trkpt lat="45.9465630" lon="9.5800930">
	<ele>1841.20</ele>
	<time>2023-10-07T08:14:28.000Z</time>
</trkpt>
<trkpt lat="45.9465630" lon="9.5800930">
	<ele>1841.20</ele>
	<time>2023-10-07T08:14:29.000Z</time>
</trkpt>
<trkpt lat="45.9465630" lon="9.5800930">
	<ele>1841.20</ele>
	<time>2023-10-07T08:14:30.000Z</time>
</trkpt>
<trkpt lat="45.9465630" lon="9.5800930">
	<ele>1841.20</ele>
	<time>2023-10-07T08:14:31.000Z</time>
</trkpt>
<trkpt lat="45.9465630" lon="9.5800930">
	<ele>1841.20</ele>
	<time>2023-10-07T08:14:32.000Z</time>
</trkpt>
<trkpt lat="45.9465630" lon="9.5800930">
	<ele>1841.00</ele>
	<time>2023-10-07T08:14:33.000Z</time>
</trkpt>
<trkpt lat="45.9465630" lon="9.5800930">
	<ele>1841.00</ele>
	<time>2023-10-07T08:14:34.000Z</time>
</trkpt>
<trkpt lat="45.9465630" lon="9.5800930">
	<ele>1841.00</ele>
	<time>2023-10-07T08:14:35.000Z</time>
</trkpt>
<trkpt lat="45.9465630" lon="9.5800930">
	<ele>1841.00</ele>
	<time>2023-10-07T08:14:36.000Z</time>
</trkpt>
<trkpt lat="45.9465630" lon="9.5800930">
	<ele>1841.00</ele>
	<time>2023-10-07T08:14:37.000Z</time>
</trkpt>
<trkpt lat="45.9465630" lon="9.5800940">
	<ele>1841.00</ele>
	<time>2023-10-07T08:14:38.000Z</time>
</trkpt>
<trkpt lat="45.9465630" lon="9.5800940">
	<ele>1841.20</ele>
	<time>2023-10-07T08:14:39.000Z</time>
</trkpt>
<trkpt lat="45.9465630" lon="9.5800940">
	<ele>1841.20</ele>
	<time>2023-10-07T08:14:40.000Z</time>
</trkpt>
<trkpt lat="45.9465630" lon="9.5800940">
	<ele>1841.20</ele>
	<time>2023-10-07T08:14:41.000Z</time>
</trkpt>
<trkpt lat="45.9465630" lon="9.5800940">
	<ele>1841.20</ele>
	<time>2023-10-07T08:14:42.000Z</time>
</trkpt>
<trkpt lat="45.9465630" lon="9.5800940">
	<ele>1841.20</ele>
	<time>2023-10-07T08:14:43.000Z</time>
</trkpt>
<trkpt lat="45.9465630" lon="9.5800940">
	<ele>1841.20</ele>
	<time>2023-10-07T08:14:44.000Z</time>
</trkpt>
<trkpt lat="45.9465630" lon="9.5800940">
	<ele>1841.20</ele>
	<time>2023-10-07T08:14:45.000Z</time>
</trkpt>
<trkpt lat="45.9465630" lon="9.5800940">
	<ele>1841.20</ele>
	<time>2023-10-07T08:14:46.000Z</time>
</trkpt>
<trkpt lat="45.9465630" lon="9.5800940">
	<ele>1841.20</ele>
	<time>2023-10-07T08:14:47.000Z</time>
</trkpt>
<trkpt lat="45.9465630" lon="9.5800940">
	<ele>1841.20</ele>
	<time>2023-10-07T08:14:48.000Z</time>
</trkpt>
<trkpt lat="45.9465630" lon="9.5800940">
	<ele>1841.20</ele>
	<time>2023-10-07T08:14:49.000Z</time>
</trkpt>
<trkpt lat="45.9465630" lon="9.5800940">
	<ele>1841.20</ele>
	<time>2023-10-07T08:14:50.000Z</time>
</trkpt>
<trkpt lat="45.9465630" lon="9.5800940">
	<ele>1841.20</ele>
	<time>2023-10-07T08:14:51.000Z</time>
</trkpt>
<trkpt lat="45.9465630" lon="9.5800940">
	<ele>1841.20</ele>
	<time>2023-10-07T08:14:52.000Z</time>
</trkpt>
<trkpt lat="45.9465630" lon="9.5800940">
	<ele>1841.20</ele>
	<time>2023-10-07T08:14:53.000Z</time>
</trkpt>
<trkpt lat="45.9465630" lon="9.5800940">
	<ele>1841.40</ele>
	<time>2023-10-07T08:14:54.000Z</time>
</trkpt>
<trkpt lat="45.9465630" lon="9.5800940">
	<ele>1841.60</ele>
	<time>2023-10-07T08:14:55.000Z</time>
</trkpt>
<trkpt lat="45.9465630" lon="9.5800940">
	<ele>1841.80</ele>
	<time>2023-10-07T08:14:56.000Z</time>
</trkpt>
<trkpt lat="45.9465630" lon="9.5800940">
	<ele>1842.00</ele>
	<time>2023-10-07T08:14:57.000Z</time>
</trkpt>
<trkpt lat="45.9465630" lon="9.5800950">
	<ele>1842.00</ele>
	<time>2023-10-07T08:14:58.000Z</time>
</trkpt>
<trkpt lat="45.9465630" lon="9.5800950">
	<ele>1842.20</ele>
	<time>2023-10-07T08:14:59.000Z</time>
</trkpt>
<trkpt lat="45.9465630" lon="9.5800950">
	<ele>1842.20</ele>
	<time>2023-10-07T08:15:00.000Z</time>
</trkpt>
<trkpt lat="45.9465630" lon="9.5800950">
	<ele>1842.20</ele>
	<time>2023-10-07T08:15:01.000Z</time>
</trkpt>
<trkpt lat="45.9465630" lon="9.5800950">
	<ele>1842.20</ele>
	<time>2023-10-07T08:15:02.000Z</time>
</trkpt>
<trkpt lat="45.9465630" lon="9.5800950">
	<ele>1842.20</ele>
	<time>2023-10-07T08:15:03.000Z</time>
</trkpt>
<trkpt lat="45.9465630" lon="9.5800950">
	<ele>1842.20</ele>
	<time>2023-10-07T08:15:04.000Z</time>
</trkpt>
<trkpt lat="45.9465630" lon="9.5800950">
	<ele>1842.20</ele>
	<time>2023-10-07T08:15:05.000Z</time>
</trkpt>
<trkpt lat="45.9465630" lon="9.5800950">
	<ele>1842.20</ele>
	<time>2023-10-07T08:15:06.000Z</time>
</trkpt>
<trkpt lat="45.9465630" lon="9.5800950">
	<ele>1842.20</ele>
	<time>2023-10-07T08:15:07.000Z</time>
</trkpt>
<trkpt lat="45.9465630" lon="9.5800950">
	<ele>1842.00</ele>
	<time>2023-10-07T08:15:08.000Z</time>
</trkpt>
<trkpt lat="45.9465630" lon="9.5800950">
	<ele>1841.80</ele>
	<time>2023-10-07T08:15:09.000Z</time>
</trkpt>
<trkpt lat="45.9465630" lon="9.5800950">
	<ele>1841.80</ele>
	<time>2023-10-07T08:15:10.000Z</time>
</trkpt>
<trkpt lat="45.9465630" lon="9.5800950">
	<ele>1842.00</ele>
	<time>2023-10-07T08:15:11.000Z</time>
</trkpt>
<trkpt lat="45.9465630" lon="9.5800950">
	<ele>1842.00</ele>
	<time>2023-10-07T08:15:12.000Z</time>
</trkpt>
<trkpt lat="45.9465630" lon="9.5800950">
	<ele>1842.00</ele>
	<time>2023-10-07T08:15:13.000Z</time>
</trkpt>
<trkpt lat="45.9465630" lon="9.5800950">
	<ele>1842.00</ele>
	<time>2023-10-07T08:15:14.000Z</time>
</trkpt>
<trkpt lat="45.9465630" lon="9.5800950">
	<ele>1842.00</ele>
	<time>2023-10-07T08:15:15.000Z</time>
</trkpt>
<trkpt lat="45.9465630" lon="9.5800950">
	<ele>1842.20</ele>
	<time>2023-10-07T08:15:16.000Z</time>
</trkpt>
<trkpt lat="45.9465630" lon="9.5800950">
	<ele>1842.00</ele>
	<time>2023-10-07T08:15:17.000Z</time>
</trkpt>
<trkpt lat="45.9465630" lon="9.5800950">
	<ele>1842.00</ele>
	<time>2023-10-07T08:15:18.000Z</time>
</trkpt>
<trkpt lat="45.9465630" lon="9.5800950">
	<ele>1841.60</ele>
	<time>2023-10-07T08:15:19.000Z</time>
</trkpt>
<trkpt lat="45.9465630" lon="9.5800950">
	<ele>1841.40</ele>
	<time>2023-10-07T08:15:20.000Z</time>
</trkpt>
<trkpt lat="45.9465630" lon="9.5800950">
	<ele>1841.40</ele>
	<time>2023-10-07T08:15:21.000Z</time>
</trkpt>
<trkpt lat="45.9465630" lon="9.5800950">
	<ele>1841.40</ele>
	<time>2023-10-07T08:15:22.000Z</time>
</trkpt>
<trkpt lat="45.9465630" lon="9.5800960">
	<ele>1841.20</ele>
	<time>2023-10-07T08:15:23.000Z</time>
</trkpt>
<trkpt lat="45.9465630" lon="9.5800960">
	<ele>1841.20</ele>
	<time>2023-10-07T08:15:24.000Z</time>
</trkpt>
<trkpt lat="45.9465640" lon="9.5800960">
	<ele>1841.20</ele>
	<time>2023-10-07T08:15:25.000Z</time>
</trkpt>
<trkpt lat="45.9465640" lon="9.5800960">
	<ele>1841.20</ele>
	<time>2023-10-07T08:15:26.000Z</time>
</trkpt>
<trkpt lat="45.9465640" lon="9.5800960">
	<ele>1841.20</ele>
	<time>2023-10-07T08:15:27.000Z</time>
</trkpt>
<trkpt lat="45.9465640" lon="9.5800960">
	<ele>1841.20</ele>
	<time>2023-10-07T08:15:28.000Z</time>
</trkpt>
<trkpt lat="45.9465630" lon="9.5800960">
	<ele>1841.20</ele>
	<time>2023-10-07T08:15:29.000Z</time>
</trkpt>
<trkpt lat="45.9465630" lon="9.5800960">
	<ele>1841.20</ele>
	<time>2023-10-07T08:15:30.000Z</time>
</trkpt>
<trkpt lat="45.9465630" lon="9.5800960">
	<ele>1841.40</ele>
	<time>2023-10-07T08:15:31.000Z</time>
</trkpt>
<trkpt lat="45.9465630" lon="9.5800960">
	<ele>1841.40</ele>
	<time>2023-10-07T08:15:32.000Z</time>
</trkpt>
<trkpt lat="45.9465630" lon="9.5800960">
	<ele>1841.40</ele>
	<time>2023-10-07T08:15:33.000Z</time>
</trkpt>
<trkpt lat="45.9465630" lon="9.5800960">
	<ele>1841.60</ele>
	<time>2023-10-07T08:15:34.000Z</time>
</trkpt>
<trkpt lat="45.9465630" lon="9.5800960">
	<ele>1841.60</ele>
	<time>2023-10-07T08:15:35.000Z</time>
</trkpt>
<trkpt lat="45.9465630" lon="9.5800960">
	<ele>1841.80</ele>
	<time>2023-10-07T08:15:36.000Z</time>
</trkpt>
<trkpt lat="45.9465630" lon="9.5800960">
	<ele>1841.80</ele>
	<time>2023-10-07T08:15:37.000Z</time>
</trkpt>
<trkpt lat="45.9465630" lon="9.5800960">
	<ele>1842.00</ele>
	<time>2023-10-07T08:15:38.000Z</time>
</trkpt>
<trkpt lat="45.9465630" lon="9.5800960">
	<ele>1842.00</ele>
	<time>2023-10-07T08:15:39.000Z</time>
</trkpt>
<trkpt lat="45.9465630" lon="9.5800960">
	<ele>1842.00</ele>
	<time>2023-10-07T08:15:40.000Z</time>
</trkpt>
<trkpt lat="45.9465630" lon="9.5800960">
	<ele>1842.00</ele>
	<time>2023-10-07T08:15:41.000Z</time>
</trkpt>
<trkpt lat="45.9465630" lon="9.5800960">
	<ele>1842.00</ele>
	<time>2023-10-07T08:15:42.000Z</time>
</trkpt>
<trkpt lat="45.9465630" lon="9.5800960">
	<ele>1842.00</ele>
	<time>2023-10-07T08:15:43.000Z</time>
</trkpt>
<trkpt lat="45.9465630" lon="9.5800960">
	<ele>1842.00</ele>
	<time>2023-10-07T08:15:44.000Z</time>
</trkpt>
<trkpt lat="45.9465630" lon="9.5800960">
	<ele>1842.00</ele>
	<time>2023-10-07T08:15:45.000Z</time>
</trkpt>
<trkpt lat="45.9465630" lon="9.5800960">
	<ele>1842.00</ele>
	<time>2023-10-07T08:15:46.000Z</time>
</trkpt>
<trkpt lat="45.9465630" lon="9.5800960">
	<ele>1842.00</ele>
	<time>2023-10-07T08:15:47.000Z</time>
</trkpt>
<trkpt lat="45.9465630" lon="9.5800960">
	<ele>1842.00</ele>
	<time>2023-10-07T08:15:48.000Z</time>
</trkpt>
<trkpt lat="45.9465630" lon="9.5800960">
	<ele>1842.00</ele>
	<time>2023-10-07T08:15:49.000Z</time>
</trkpt>
<trkpt lat="45.9465630" lon="9.5800960">
	<ele>1842.00</ele>
	<time>2023-10-07T08:15:50.000Z</time>
</trkpt>
<trkpt lat="45.9465630" lon="9.5800960">
	<ele>1842.00</ele>
	<time>2023-10-07T08:15:51.000Z</time>
</trkpt>
<trkpt lat="45.9465630" lon="9.5800960">
	<ele>1842.00</ele>
	<time>2023-10-07T08:15:52.000Z</time>
</trkpt>
<trkpt lat="45.9465630" lon="9.5800960">
	<ele>1841.80</ele>
	<time>2023-10-07T08:15:53.000Z</time>
</trkpt>
<trkpt lat="45.9465630" lon="9.5800960">
	<ele>1841.80</ele>
	<time>2023-10-07T08:15:54.000Z</time>
</trkpt>
<trkpt lat="45.9465630" lon="9.5800960">
	<ele>1841.60</ele>
	<time>2023-10-07T08:15:55.000Z</time>
</trkpt>
<trkpt lat="45.9465630" lon="9.5800960">
	<ele>1841.40</ele>
	<time>2023-10-07T08:15:56.000Z</time>
</trkpt>
<trkpt lat="45.9465630" lon="9.5800960">
	<ele>1841.40</ele>
	<time>2023-10-07T08:15:57.000Z</time>
</trkpt>
<trkpt lat="45.9465630" lon="9.5800960">
	<ele>1841.20</ele>
	<time>2023-10-07T08:15:58.000Z</time>
</trkpt>
<trkpt lat="45.9465630" lon="9.5800960">
	<ele>1841.40</ele>
	<time>2023-10-07T08:15:59.000Z</time>
</trkpt>
<trkpt lat="45.9465630" lon="9.5800960">
	<ele>1841.40</ele>
	<time>2023-10-07T08:16:00.000Z</time>
</trkpt>
<trkpt lat="45.9465630" lon="9.5800960">
	<ele>1841.60</ele>
	<time>2023-10-07T08:16:01.000Z</time>
</trkpt>
<trkpt lat="45.9465630" lon="9.5800960">
	<ele>1841.60</ele>
	<time>2023-10-07T08:16:02.000Z</time>
</trkpt>
<trkpt lat="45.9465630" lon="9.5800960">
	<ele>1841.60</ele>
	<time>2023-10-07T08:16:03.000Z</time>
</trkpt>
<trkpt lat="45.9465630" lon="9.5800960">
	<ele>1841.80</ele>
	<time>2023-10-07T08:16:04.000Z</time>
</trkpt>
<trkpt lat="45.9465630" lon="9.5800960">
	<ele>1841.80</ele>
	<time>2023-10-07T08:16:05.000Z</time>
</trkpt>
<trkpt lat="45.9465630" lon="9.5800960">
	<ele>1841.80</ele>
	<time>2023-10-07T08:16:06.000Z</time>
</trkpt>
<trkpt lat="45.9465630" lon="9.5800960">
	<ele>1842.00</ele>
	<time>2023-10-07T08:16:07.000Z</time>
</trkpt>
<trkpt lat="45.9465630" lon="9.5800960">
	<ele>1842.00</ele>
	<time>2023-10-07T08:16:08.000Z</time>
</trkpt>
<trkpt lat="45.9465630" lon="9.5800960">
	<ele>1842.00</ele>
	<time>2023-10-07T08:16:09.000Z</time>
</trkpt>
<trkpt lat="45.9465630" lon="9.5800960">
	<ele>1842.00</ele>
	<time>2023-10-07T08:16:10.000Z</time>
</trkpt>
<trkpt lat="45.9465630" lon="9.5800960">
	<ele>1842.00</ele>
	<time>2023-10-07T08:16:11.000Z</time>
</trkpt>
<trkpt lat="45.9465630" lon="9.5800960">
	<ele>1842.00</ele>
	<time>2023-10-07T08:16:12.000Z</time>
</trkpt>
<trkpt lat="45.9465630" lon="9.5800960">
	<ele>1842.00</ele>
	<time>2023-10-07T08:16:13.000Z</time>
</trkpt>
<trkpt lat="45.9465630" lon="9.5800960">
	<ele>1842.20</ele>
	<time>2023-10-07T08:16:14.000Z</time>
</trkpt>
<trkpt lat="45.9465630" lon="9.5800960">
	<ele>1842.20</ele>
	<time>2023-10-07T08:16:15.000Z</time>
</trkpt>
<trkpt lat="45.9465630" lon="9.5800960">
	<ele>1842.20</ele>
	<time>2023-10-07T08:16:16.000Z</time>
</trkpt>
<trkpt lat="45.9465630" lon="9.5800960">
	<ele>1842.20</ele>
	<time>2023-10-07T08:16:17.000Z</time>
</trkpt>
<trkpt lat="45.9465630" lon="9.5800960">
	<ele>1842.20</ele>
	<time>2023-10-07T08:16:18.000Z</time>
</trkpt>
<trkpt lat="45.9465630" lon="9.5800960">
	<ele>1841.80</ele>
	<time>2023-10-07T08:16:19.000Z</time>
</trkpt>
<trkpt lat="45.9465630" lon="9.5800960">
	<ele>1841.60</ele>
	<time>2023-10-07T08:16:20.000Z</time>
</trkpt>
<trkpt lat="45.9465630" lon="9.5800960">
	<ele>1841.60</ele>
	<time>2023-10-07T08:16:21.000Z</time>
</trkpt>
<trkpt lat="45.9465630" lon="9.5800960">
	<ele>1841.60</ele>
	<time>2023-10-07T08:16:22.000Z</time>
</trkpt>
<trkpt lat="45.9465630" lon="9.5800960">
	<ele>1841.60</ele>
	<time>2023-10-07T08:16:23.000Z</time>
</trkpt>
<trkpt lat="45.9465630" lon="9.5800960">
	<ele>1841.60</ele>
	<time>2023-10-07T08:16:24.000Z</time>
</trkpt>
<trkpt lat="45.9465630" lon="9.5800960">
	<ele>1841.60</ele>
	<time>2023-10-07T08:16:25.000Z</time>
</trkpt>
<trkpt lat="45.9465630" lon="9.5800960">
	<ele>1841.40</ele>
	<time>2023-10-07T08:16:26.000Z</time>
</trkpt>
<trkpt lat="45.9465630" lon="9.5800960">
	<ele>1841.40</ele>
	<time>2023-10-07T08:16:27.000Z</time>
</trkpt>
<trkpt lat="45.9465630" lon="9.5800960">
	<ele>1841.40</ele>
	<time>2023-10-07T08:16:28.000Z</time>
</trkpt>
<trkpt lat="45.9465630" lon="9.5800960">
	<ele>1841.40</ele>
	<time>2023-10-07T08:16:29.000Z</time>
</trkpt>
<trkpt lat="45.9465630" lon="9.5800960">
	<ele>1841.40</ele>
	<time>2023-10-07T08:16:30.000Z</time>
</trkpt>
<trkpt lat="45.9465630" lon="9.5800960">
	<ele>1841.40</ele>
	<time>2023-10-07T08:16:31.000Z</time>
</trkpt>
<trkpt lat="45.9465630" lon="9.5800960">
	<ele>1841.40</ele>
	<time>2023-10-07T08:16:32.000Z</time>
</trkpt>
<trkpt lat="45.9465630" lon="9.5800960">
	<ele>1841.40</ele>
	<time>2023-10-07T08:16:33.000Z</time>
</trkpt>
<trkpt lat="45.9465630" lon="9.5800960">
	<ele>1841.40</ele>
	<time>2023-10-07T08:16:34.000Z</time>
</trkpt>
<trkpt lat="45.9465630" lon="9.5800960">
	<ele>1841.40</ele>
	<time>2023-10-07T08:16:35.000Z</time>
</trkpt>
<trkpt lat="45.9465630" lon="9.5800960">
	<ele>1841.40</ele>
	<time>2023-10-07T08:16:36.000Z</time>
</trkpt>
<trkpt lat="45.9465630" lon="9.5800960">
	<ele>1841.40</ele>
	<time>2023-10-07T08:16:37.000Z</time>
</trkpt>
<trkpt lat="45.9465630" lon="9.5800960">
	<ele>1841.40</ele>
	<time>2023-10-07T08:16:38.000Z</time>
</trkpt>
<trkpt lat="45.9465630" lon="9.5800960">
	<ele>1841.60</ele>
	<time>2023-10-07T08:16:39.000Z</time>
</trkpt>
<trkpt lat="45.9465630" lon="9.5800960">
	<ele>1841.60</ele>
	<time>2023-10-07T08:16:40.000Z</time>
</trkpt>
<trkpt lat="45.9465630" lon="9.5800960">
	<ele>1841.60</ele>
	<time>2023-10-07T08:16:41.000Z</time>
</trkpt>
<trkpt lat="45.9465630" lon="9.5800960">
	<ele>1841.60</ele>
	<time>2023-10-07T08:16:42.000Z</time>
</trkpt>
<trkpt lat="45.9465630" lon="9.5800960">
	<ele>1841.60</ele>
	<time>2023-10-07T08:16:43.000Z</time>
</trkpt>
<trkpt lat="45.9465630" lon="9.5800960">
	<ele>1841.60</ele>
	<time>2023-10-07T08:16:44.000Z</time>
</trkpt>
<trkpt lat="45.9465630" lon="9.5800970">
	<ele>1841.40</ele>
	<time>2023-10-07T08:16:45.000Z</time>
</trkpt>
<trkpt lat="45.9465630" lon="9.5800970">
	<ele>1841.40</ele>
	<time>2023-10-07T08:16:46.000Z</time>
</trkpt>
<trkpt lat="45.9465630" lon="9.5800970">
	<ele>1841.40</ele>
	<time>2023-10-07T08:16:47.000Z</time>
</trkpt>
<trkpt lat="45.9465630" lon="9.5800960">
	<ele>1841.40</ele>
	<time>2023-10-07T08:16:48.000Z</time>
</trkpt>
<trkpt lat="45.9465630" lon="9.5800970">
	<ele>1841.40</ele>
	<time>2023-10-07T08:16:49.000Z</time>
</trkpt>
<trkpt lat="45.9465630" lon="9.5800970">
	<ele>1841.40</ele>
	<time>2023-10-07T08:16:50.000Z</time>
</trkpt>
<trkpt lat="45.9465630" lon="9.5800970">
	<ele>1841.20</ele>
	<time>2023-10-07T08:16:51.000Z</time>
</trkpt>
<trkpt lat="45.9465630" lon="9.5800970">
	<ele>1841.40</ele>
	<time>2023-10-07T08:16:52.000Z</time>
</trkpt>
<trkpt lat="45.9465630" lon="9.5800970">
	<ele>1841.40</ele>
	<time>2023-10-07T08:16:53.000Z</time>
</trkpt>
<trkpt lat="45.9465630" lon="9.5800970">
	<ele>1841.60</ele>
	<time>2023-10-07T08:16:54.000Z</time>
</trkpt>
<trkpt lat="45.9465630" lon="9.5800970">
	<ele>1841.60</ele>
	<time>2023-10-07T08:16:55.000Z</time>
</trkpt>
<trkpt lat="45.9465630" lon="9.5800970">
	<ele>1841.40</ele>
	<time>2023-10-07T08:16:56.000Z</time>
</trkpt>
<trkpt lat="45.9465630" lon="9.5800970">
	<ele>1841.40</ele>
	<time>2023-10-07T08:16:57.000Z</time>
</trkpt>
<trkpt lat="45.9465630" lon="9.5800970">
	<ele>1841.40</ele>
	<time>2023-10-07T08:16:58.000Z</time>
</trkpt>
<trkpt lat="45.9465630" lon="9.5800970">
	<ele>1841.40</ele>
	<time>2023-10-07T08:16:59.000Z</time>
</trkpt>
<trkpt lat="45.9465620" lon="9.5800970">
	<ele>1841.60</ele>
	<time>2023-10-07T08:17:00.000Z</time>
</trkpt>
<trkpt lat="45.9465620" lon="9.5800970">
	<ele>1841.40</ele>
	<time>2023-10-07T08:17:01.000Z</time>
</trkpt>
<trkpt lat="45.9465630" lon="9.5800970">
	<ele>1841.40</ele>
	<time>2023-10-07T08:17:02.000Z</time>
</trkpt>
<trkpt lat="45.9465630" lon="9.5800970">
	<ele>1841.60</ele>
	<time>2023-10-07T08:17:03.000Z</time>
</trkpt>
<trkpt lat="45.9465630" lon="9.5800970">
	<ele>1841.80</ele>
	<time>2023-10-07T08:17:04.000Z</time>
</trkpt>
<trkpt lat="45.9465620" lon="9.5800970">
	<ele>1841.80</ele>
	<time>2023-10-07T08:17:05.000Z</time>
</trkpt>
<trkpt lat="45.9465620" lon="9.5800970">
	<ele>1841.60</ele>
	<time>2023-10-07T08:17:06.000Z</time>
</trkpt>
<trkpt lat="45.9465620" lon="9.5800970">
	<ele>1841.40</ele>
	<time>2023-10-07T08:17:07.000Z</time>
</trkpt>
<trkpt lat="45.9465620" lon="9.5800970">
	<ele>1841.40</ele>
	<time>2023-10-07T08:17:08.000Z</time>
</trkpt>
<trkpt lat="45.9465620" lon="9.5800970">
	<ele>1841.40</ele>
	<time>2023-10-07T08:17:09.000Z</time>
</trkpt>
<trkpt lat="45.9465620" lon="9.5800970">
	<ele>1841.40</ele>
	<time>2023-10-07T08:17:10.000Z</time>
</trkpt>
<trkpt lat="45.9465620" lon="9.5800970">
	<ele>1841.20</ele>
	<time>2023-10-07T08:17:11.000Z</time>
</trkpt>
<trkpt lat="45.9465620" lon="9.5800970">
	<ele>1841.40</ele>
	<time>2023-10-07T08:17:12.000Z</time>
</trkpt>
<trkpt lat="45.9465620" lon="9.5800970">
	<ele>1841.60</ele>
	<time>2023-10-07T08:17:13.000Z</time>
</trkpt>
<trkpt lat="45.9465620" lon="9.5800970">
	<ele>1841.60</ele>
	<time>2023-10-07T08:17:14.000Z</time>
</trkpt>
<trkpt lat="45.9465620" lon="9.5800970">
	<ele>1841.80</ele>
	<time>2023-10-07T08:17:15.000Z</time>
</trkpt>
<trkpt lat="45.9465620" lon="9.5800970">
	<ele>1841.80</ele>
	<time>2023-10-07T08:17:16.000Z</time>
</trkpt>
<trkpt lat="45.9465620" lon="9.5800970">
	<ele>1841.80</ele>
	<time>2023-10-07T08:17:17.000Z</time>
</trkpt>
<trkpt lat="45.9465620" lon="9.5800970">
	<ele>1841.80</ele>
	<time>2023-10-07T08:17:18.000Z</time>
</trkpt>
<trkpt lat="45.9465620" lon="9.5800970">
	<ele>1841.60</ele>
	<time>2023-10-07T08:17:19.000Z</time>
</trkpt>
<trkpt lat="45.9465620" lon="9.5800970">
	<ele>1841.40</ele>
	<time>2023-10-07T08:17:20.000Z</time>
</trkpt>
<trkpt lat="45.9465620" lon="9.5800970">
	<ele>1841.20</ele>
	<time>2023-10-07T08:17:21.000Z</time>
</trkpt>
<trkpt lat="45.9465620" lon="9.5800970">
	<ele>1841.20</ele>
	<time>2023-10-07T08:17:22.000Z</time>
</trkpt>
<trkpt lat="45.9465620" lon="9.5800970">
	<ele>1841.20</ele>
	<time>2023-10-07T08:17:23.000Z</time>
</trkpt>
<trkpt lat="45.9465620" lon="9.5800970">
	<ele>1841.40</ele>
	<time>2023-10-07T08:17:24.000Z</time>
</trkpt>
<trkpt lat="45.9465620" lon="9.5800970">
	<ele>1841.40</ele>
	<time>2023-10-07T08:17:25.000Z</time>
</trkpt>
<trkpt lat="45.9465620" lon="9.5800970">
	<ele>1841.40</ele>
	<time>2023-10-07T08:17:26.000Z</time>
</trkpt>
<trkpt lat="45.9465620" lon="9.5800970">
	<ele>1841.40</ele>
	<time>2023-10-07T08:17:27.000Z</time>
</trkpt>
<trkpt lat="45.9465620" lon="9.5800970">
	<ele>1841.40</ele>
	<time>2023-10-07T08:17:28.000Z</time>
</trkpt>
<trkpt lat="45.9465620" lon="9.5800970">
	<ele>1841.20</ele>
	<time>2023-10-07T08:17:29.000Z</time>
</trkpt>
<trkpt lat="45.9465620" lon="9.5800970">
	<ele>1841.20</ele>
	<time>2023-10-07T08:17:30.000Z</time>
</trkpt>
<trkpt lat="45.9465620" lon="9.5800970">
	<ele>1841.20</ele>
	<time>2023-10-07T08:17:31.000Z</time>
</trkpt>
<trkpt lat="45.9465620" lon="9.5800970">
	<ele>1841.20</ele>
	<time>2023-10-07T08:17:32.000Z</time>
</trkpt>
<trkpt lat="45.9465620" lon="9.5800970">
	<ele>1841.20</ele>
	<time>2023-10-07T08:17:33.000Z</time>
</trkpt>
<trkpt lat="45.9465620" lon="9.5800970">
	<ele>1841.20</ele>
	<time>2023-10-07T08:17:34.000Z</time>
</trkpt>
<trkpt lat="45.9465620" lon="9.5800970">
	<ele>1841.20</ele>
	<time>2023-10-07T08:17:35.000Z</time>
</trkpt>
<trkpt lat="45.9465620" lon="9.5800970">
	<ele>1841.00</ele>
	<time>2023-10-07T08:17:36.000Z</time>
</trkpt>
<trkpt lat="45.9465620" lon="9.5800970">
	<ele>1841.00</ele>
	<time>2023-10-07T08:17:37.000Z</time>
</trkpt>
<trkpt lat="45.9465620" lon="9.5800970">
	<ele>1841.00</ele>
	<time>2023-10-07T08:17:38.000Z</time>
</trkpt>
<trkpt lat="45.9465610" lon="9.5800960">
	<ele>1841.00</ele>
	<time>2023-10-07T08:17:39.000Z</time>
</trkpt>
<trkpt lat="45.9465610" lon="9.5800960">
	<ele>1841.00</ele>
	<time>2023-10-07T08:17:40.000Z</time>
</trkpt>
<trkpt lat="45.9465610" lon="9.5800960">
	<ele>1841.00</ele>
	<time>2023-10-07T08:17:41.000Z</time>
</trkpt>
<trkpt lat="45.9465610" lon="9.5800960">
	<ele>1840.80</ele>
	<time>2023-10-07T08:17:42.000Z</time>
</trkpt>
<trkpt lat="45.9465570" lon="9.5800910">
	<ele>1840.80</ele>
	<time>2023-10-07T08:17:43.000Z</time>
</trkpt>
<trkpt lat="45.9465430" lon="9.5800730">
	<ele>1840.80</ele>
	<time>2023-10-07T08:17:44.000Z</time>
</trkpt>
<trkpt lat="45.9465330" lon="9.5800560">
	<ele>1840.60</ele>
	<time>2023-10-07T08:17:45.000Z</time>
</trkpt>
<trkpt lat="45.9465230" lon="9.5800430">
	<ele>1840.60</ele>
	<time>2023-10-07T08:17:46.000Z</time>
</trkpt>
<trkpt lat="45.9465110" lon="9.5800280">
	<ele>1840.60</ele>
	<time>2023-10-07T08:17:47.000Z</time>
</trkpt>
<trkpt lat="45.9464990" lon="9.5800110">
	<ele>1839.80</ele>
	<time>2023-10-07T08:17:48.000Z</time>
</trkpt>
<trkpt lat="45.9464870" lon="9.5799880">
	<ele>1839.40</ele>
	<time>2023-10-07T08:17:49.000Z</time>
</trkpt>
<trkpt lat="45.9464790" lon="9.5799740">
	<ele>1839.00</ele>
	<time>2023-10-07T08:17:50.000Z</time>
</trkpt>
<trkpt lat="45.9464670" lon="9.5799570">
	<ele>1839.00</ele>
	<time>2023-10-07T08:17:51.000Z</time>
</trkpt>
<trkpt lat="45.9464580" lon="9.5799440">
	<ele>1838.80</ele>
	<time>2023-10-07T08:17:52.000Z</time>
</trkpt>
<trkpt lat="45.9464510" lon="9.5799310">
	<ele>1838.60</ele>
	<time>2023-10-07T08:17:53.000Z</time>
</trkpt>
<trkpt lat="45.9464490" lon="9.5799210">
	<ele>1838.60</ele>
	<time>2023-10-07T08:17:54.000Z</time>
</trkpt>
<trkpt lat="45.9464460" lon="9.5799120">
	<ele>1838.40</ele>
	<time>2023-10-07T08:17:55.000Z</time>
</trkpt>
<trkpt lat="45.9464400" lon="9.5799050">
	<ele>1838.20</ele>
	<time>2023-10-07T08:17:56.000Z</time>
</trkpt>
<trkpt lat="45.9464350" lon="9.5798980">
	<ele>1838.20</ele>
	<time>2023-10-07T08:17:57.000Z</time>
</trkpt>
<trkpt lat="45.9464270" lon="9.5798860">
	<ele>1838.00</ele>
	<time>2023-10-07T08:17:58.000Z</time>
</trkpt>
<trkpt lat="45.9464230" lon="9.5798740">
	<ele>1837.80</ele>
	<time>2023-10-07T08:17:59.000Z</time>
</trkpt>
<trkpt lat="45.9464190" lon="9.5798630">
	<ele>1837.80</ele>
	<time>2023-10-07T08:18:00.000Z</time>
</trkpt>
<trkpt lat="45.9464200" lon="9.5798570">
	<ele>1837.60</ele>
	<time>2023-10-07T08:18:01.000Z</time>
</trkpt>
<trkpt lat="45.9464250" lon="9.5798550">
	<ele>1837.60</ele>
	<time>2023-10-07T08:18:02.000Z</time>
</trkpt>
<trkpt lat="45.9464290" lon="9.5798540">
	<ele>1837.60</ele>
	<time>2023-10-07T08:18:03.000Z</time>
</trkpt>
<trkpt lat="45.9464320" lon="9.5798530">
	<ele>1837.60</ele>
	<time>2023-10-07T08:18:04.000Z</time>
</trkpt>
<trkpt lat="45.9464340" lon="9.5798520">
	<ele>1837.60</ele>
	<time>2023-10-07T08:18:05.000Z</time>
</trkpt>
<trkpt lat="45.9464350" lon="9.5798520">
	<ele>1837.80</ele>
	<time>2023-10-07T08:18:06.000Z</time>
</trkpt>
<trkpt lat="45.9464350" lon="9.5798530">
	<ele>1837.80</ele>
	<time>2023-10-07T08:18:07.000Z</time>
</trkpt>
<trkpt lat="45.9464340" lon="9.5798530">
	<ele>1838.00</ele>
	<time>2023-10-07T08:18:08.000Z</time>
</trkpt>
<trkpt lat="45.9464320" lon="9.5798530">
	<ele>1838.00</ele>
	<time>2023-10-07T08:18:09.000Z</time>
</trkpt>
<trkpt lat="45.9464320" lon="9.5798530">
	<ele>1837.80</ele>
	<time>2023-10-07T08:18:10.000Z</time>
</trkpt>
<trkpt lat="45.9464340" lon="9.5798530">
	<ele>1837.80</ele>
	<time>2023-10-07T08:18:11.000Z</time>
</trkpt>
<trkpt lat="45.9464330" lon="9.5798590">
	<ele>1837.60</ele>
	<time>2023-10-07T08:18:12.000Z</time>
</trkpt>
<trkpt lat="45.9464320" lon="9.5798630">
	<ele>1837.60</ele>
	<time>2023-10-07T08:18:13.000Z</time>
</trkpt>
<trkpt lat="45.9464320" lon="9.5798650">
	<ele>1837.60</ele>
	<time>2023-10-07T08:18:14.000Z</time>
</trkpt>
<trkpt lat="45.9464320" lon="9.5798650">
	<ele>1837.40</ele>
	<time>2023-10-07T08:18:15.000Z</time>
</trkpt>
<trkpt lat="45.9464320" lon="9.5798650">
	<ele>1837.40</ele>
	<time>2023-10-07T08:18:16.000Z</time>
</trkpt>
<trkpt lat="45.9464320" lon="9.5798650">
	<ele>1837.40</ele>
	<time>2023-10-07T08:18:17.000Z</time>
</trkpt>
<trkpt lat="45.9464320" lon="9.5798650">
	<ele>1837.40</ele>
	<time>2023-10-07T08:18:18.000Z</time>
</trkpt>
<trkpt lat="45.9464320" lon="9.5798650">
	<ele>1837.20</ele>
	<time>2023-10-07T08:18:19.000Z</time>
</trkpt>
<trkpt lat="45.9464320" lon="9.5798650">
	<ele>1837.20</ele>
	<time>2023-10-07T08:18:20.000Z</time>
</trkpt>
<trkpt lat="45.9464320" lon="9.5798650">
	<ele>1837.20</ele>
	<time>2023-10-07T08:18:21.000Z</time>
</trkpt>
<trkpt lat="45.9464320" lon="9.5798630">
	<ele>1837.20</ele>
	<time>2023-10-07T08:18:22.000Z</time>
</trkpt>
<trkpt lat="45.9464320" lon="9.5798620">
	<ele>1837.20</ele>
	<time>2023-10-07T08:18:23.000Z</time>
</trkpt>
<trkpt lat="45.9464320" lon="9.5798620">
	<ele>1837.20</ele>
	<time>2023-10-07T08:18:24.000Z</time>
</trkpt>
<trkpt lat="45.9464320" lon="9.5798620">
	<ele>1837.20</ele>
	<time>2023-10-07T08:18:25.000Z</time>
</trkpt>
<trkpt lat="45.9464320" lon="9.5798620">
	<ele>1837.20</ele>
	<time>2023-10-07T08:18:26.000Z</time>
</trkpt>
<trkpt lat="45.9464320" lon="9.5798610">
	<ele>1837.20</ele>
	<time>2023-10-07T08:18:27.000Z</time>
</trkpt>
<trkpt lat="45.9464320" lon="9.5798610">
	<ele>1837.40</ele>
	<time>2023-10-07T08:18:28.000Z</time>
</trkpt>
<trkpt lat="45.9464320" lon="9.5798610">
	<ele>1837.40</ele>
	<time>2023-10-07T08:18:29.000Z</time>
</trkpt>
<trkpt lat="45.9464300" lon="9.5798600">
	<ele>1837.40</ele>
	<time>2023-10-07T08:18:30.000Z</time>
</trkpt>
<trkpt lat="45.9464300" lon="9.5798590">
	<ele>1837.40</ele>
	<time>2023-10-07T08:18:31.000Z</time>
</trkpt>
<trkpt lat="45.9464300" lon="9.5798580">
	<ele>1837.40</ele>
	<time>2023-10-07T08:18:32.000Z</time>
</trkpt>
<trkpt lat="45.9464300" lon="9.5798540">
	<ele>1837.40</ele>
	<time>2023-10-07T08:18:33.000Z</time>
</trkpt>
<trkpt lat="45.9464300" lon="9.5798530">
	<ele>1837.40</ele>
	<time>2023-10-07T08:18:34.000Z</time>
</trkpt>
<trkpt lat="45.9464290" lon="9.5798530">
	<ele>1837.40</ele>
	<time>2023-10-07T08:18:35.000Z</time>
</trkpt>
<trkpt lat="45.9464290" lon="9.5798530">
	<ele>1837.20</ele>
	<time>2023-10-07T08:18:36.000Z</time>
</trkpt>
<trkpt lat="45.9464280" lon="9.5798530">
	<ele>1837.20</ele>
	<time>2023-10-07T08:18:37.000Z</time>
</trkpt>
<trkpt lat="45.9464270" lon="9.5798530">
	<ele>1837.20</ele>
	<time>2023-10-07T08:18:38.000Z</time>
</trkpt>
<trkpt lat="45.9464240" lon="9.5798510">
	<ele>1837.20</ele>
	<time>2023-10-07T08:18:39.000Z</time>
</trkpt>
<trkpt lat="45.9464190" lon="9.5798440">
	<ele>1837.20</ele>
	<time>2023-10-07T08:18:40.000Z</time>
</trkpt>
<trkpt lat="45.9464140" lon="9.5798360">
	<ele>1837.20</ele>
	<time>2023-10-07T08:18:41.000Z</time>
</trkpt>
<trkpt lat="45.9464130" lon="9.5798280">
	<ele>1837.20</ele>
	<time>2023-10-07T08:18:42.000Z</time>
</trkpt>
<trkpt lat="45.9464130" lon="9.5798210">
	<ele>1837.20</ele>
	<time>2023-10-07T08:18:43.000Z</time>
</trkpt>
<trkpt lat="45.9464120" lon="9.5798180">
	<ele>1837.20</ele>
	<time>2023-10-07T08:18:44.000Z</time>
</trkpt>
<trkpt lat="45.9464120" lon="9.5798170">
	<ele>1837.20</ele>
	<time>2023-10-07T08:18:45.000Z</time>
</trkpt>
<trkpt lat="45.9464100" lon="9.5798170">
	<ele>1837.20</ele>
	<time>2023-10-07T08:18:46.000Z</time>
</trkpt>
<trkpt lat="45.9464080" lon="9.5798170">
	<ele>1837.20</ele>
	<time>2023-10-07T08:18:47.000Z</time>
</trkpt>
<trkpt lat="45.9464040" lon="9.5798130">
	<ele>1837.20</ele>
	<time>2023-10-07T08:18:48.000Z</time>
</trkpt>
<trkpt lat="45.9463960" lon="9.5797970">
	<ele>1837.20</ele>
	<time>2023-10-07T08:18:49.000Z</time>
</trkpt>
<trkpt lat="45.9463870" lon="9.5797840">
	<ele>1837.20</ele>
	<time>2023-10-07T08:18:50.000Z</time>
</trkpt>
<trkpt lat="45.9463760" lon="9.5797640">
	<ele>1837.20</ele>
	<time>2023-10-07T08:18:51.000Z</time>
</trkpt>
<trkpt lat="45.9463680" lon="9.5797500">
	<ele>1837.20</ele>
	<time>2023-10-07T08:18:52.000Z</time>
</trkpt>
<trkpt lat="45.9463560" lon="9.5797390">
	<ele>1837.20</ele>
	<time>2023-10-07T08:18:53.000Z</time>
</trkpt>
<trkpt lat="45.9463440" lon="9.5797280">
	<ele>1837.20</ele>
	<time>2023-10-07T08:18:54.000Z</time>
</trkpt>
<trkpt lat="45.9463330" lon="9.5797180">
	<ele>1837.20</ele>
	<time>2023-10-07T08:18:55.000Z</time>
</trkpt>
<trkpt lat="45.9463230" lon="9.5797040">
	<ele>1837.20</ele>
	<time>2023-10-07T08:18:56.000Z</time>
</trkpt>
<trkpt lat="45.9463140" lon="9.5796900">
	<ele>1837.00</ele>
	<time>2023-10-07T08:18:57.000Z</time>
</trkpt>
<trkpt lat="45.9463080" lon="9.5796780">
	<ele>1836.80</ele>
	<time>2023-10-07T08:18:58.000Z</time>
</trkpt>
<trkpt lat="45.9463030" lon="9.5796660">
	<ele>1836.80</ele>
	<time>2023-10-07T08:18:59.000Z</time>
</trkpt>
<trkpt lat="45.9462990" lon="9.5796540">
	<ele>1836.60</ele>
	<time>2023-10-07T08:19:00.000Z</time>
</trkpt>
<trkpt lat="45.9462940" lon="9.5796430">
	<ele>1836.60</ele>
	<time>2023-10-07T08:19:01.000Z</time>
</trkpt>
<trkpt lat="45.9462860" lon="9.5796330">
	<ele>1836.40</ele>
	<time>2023-10-07T08:19:02.000Z</time>
</trkpt>
<trkpt lat="45.9462790" lon="9.5796240">
	<ele>1836.20</ele>
	<time>2023-10-07T08:19:03.000Z</time>
</trkpt>
<trkpt lat="45.9462750" lon="9.5796150">
	<ele>1836.20</ele>
	<time>2023-10-07T08:19:04.000Z</time>
</trkpt>
<trkpt lat="45.9462710" lon="9.5796070">
	<ele>1836.00</ele>
	<time>2023-10-07T08:19:05.000Z</time>
</trkpt>
<trkpt lat="45.9462670" lon="9.5795960">
	<ele>1835.80</ele>
	<time>2023-10-07T08:19:06.000Z</time>
</trkpt>
<trkpt lat="45.9462620" lon="9.5795800">
	<ele>1835.80</ele>
	<time>2023-10-07T08:19:07.000Z</time>
</trkpt>
<trkpt lat="45.9462600" lon="9.5795650">
	<ele>1835.60</ele>
	<time>2023-10-07T08:19:08.000Z</time>
</trkpt>
<trkpt lat="45.9462590" lon="9.5795510">
	<ele>1835.60</ele>
	<time>2023-10-07T08:19:09.000Z</time>
</trkpt>
<trkpt lat="45.9462550" lon="9.5795350">
	<ele>1835.60</ele>
	<time>2023-10-07T08:19:10.000Z</time>
</trkpt>
<trkpt lat="45.9462510" lon="9.5795260">
	<ele>1835.40</ele>
	<time>2023-10-07T08:19:11.000Z</time>
</trkpt>
<trkpt lat="45.9462440" lon="9.5795140">
	<ele>1835.20</ele>
	<time>2023-10-07T08:19:12.000Z</time>
</trkpt>
<trkpt lat="45.9462390" lon="9.5795020">
	<ele>1835.20</ele>
	<time>2023-10-07T08:19:13.000Z</time>
</trkpt>
<trkpt lat="45.9462360" lon="9.5794910">
	<ele>1834.80</ele>
	<time>2023-10-07T08:19:14.000Z</time>
</trkpt>
<trkpt lat="45.9462330" lon="9.5794800">
	<ele>1834.60</ele>
	<time>2023-10-07T08:19:15.000Z</time>
</trkpt>
<trkpt lat="45.9462290" lon="9.5794660">
	<ele>1834.60</ele>
	<time>2023-10-07T08:19:16.000Z</time>
</trkpt>
<trkpt lat="45.9462250" lon="9.5794500">
	<ele>1834.40</ele>
	<time>2023-10-07T08:19:17.000Z</time>
</trkpt>
<trkpt lat="45.9462180" lon="9.5794390">
	<ele>1834.40</ele>
	<time>2023-10-07T08:19:18.000Z</time>
</trkpt>
<trkpt lat="45.9462120" lon="9.5794260">
	<ele>1834.20</ele>
	<time>2023-10-07T08:19:19.000Z</time>
</trkpt>
<trkpt lat="45.9462060" lon="9.5794120">
	<ele>1834.20</ele>
	<time>2023-10-07T08:19:20.000Z</time>
</trkpt>
<trkpt lat="45.9462010" lon="9.5793970">
	<ele>1834.00</ele>
	<time>2023-10-07T08:19:21.000Z</time>
</trkpt>
<trkpt lat="45.9461940" lon="9.5793870">
	<ele>1833.80</ele>
	<time>2023-10-07T08:19:22.000Z</time>
</trkpt>
<trkpt lat="45.9461880" lon="9.5793740">
	<ele>1833.60</ele>
	<time>2023-10-07T08:19:23.000Z</time>
</trkpt>
<trkpt lat="45.9461840" lon="9.5793610">
	<ele>1833.40</ele>
	<time>2023-10-07T08:19:24.000Z</time>
</trkpt>
<trkpt lat="45.9461810" lon="9.5793500">
	<ele>1833.40</ele>
	<time>2023-10-07T08:19:25.000Z</time>
</trkpt>
<trkpt lat="45.9461790" lon="9.5793370">
	<ele>1833.20</ele>
	<time>2023-10-07T08:19:26.000Z</time>
</trkpt>
<trkpt lat="45.9461760" lon="9.5793230">
	<ele>1833.00</ele>
	<time>2023-10-07T08:19:27.000Z</time>
</trkpt>
<trkpt lat="45.9461730" lon="9.5793080">
	<ele>1832.80</ele>
	<time>2023-10-07T08:19:28.000Z</time>
</trkpt>
<trkpt lat="45.9461690" lon="9.5792930">
	<ele>1832.80</ele>
	<time>2023-10-07T08:19:29.000Z</time>
</trkpt>
<trkpt lat="45.9461620" lon="9.5792790">
	<ele>1832.60</ele>
	<time>2023-10-07T08:19:30.000Z</time>
</trkpt>
<trkpt lat="45.9461580" lon="9.5792660">
	<ele>1832.40</ele>
	<time>2023-10-07T08:19:31.000Z</time>
</trkpt>
<trkpt lat="45.9461560" lon="9.5792520">
	<ele>1832.40</ele>
	<time>2023-10-07T08:19:32.000Z</time>
</trkpt>
<trkpt lat="45.9461540" lon="9.5792380">
	<ele>1832.20</ele>
	<time>2023-10-07T08:19:33.000Z</time>
</trkpt>
<trkpt lat="45.9461510" lon="9.5792260">
	<ele>1832.00</ele>
	<time>2023-10-07T08:19:34.000Z</time>
</trkpt>
<trkpt lat="45.9461450" lon="9.5792140">
	<ele>1831.80</ele>
	<time>2023-10-07T08:19:35.000Z</time>
</trkpt>
<trkpt lat="45.9461400" lon="9.5792030">
	<ele>1831.40</ele>
	<time>2023-10-07T08:19:36.000Z</time>
</trkpt>
<trkpt lat="45.9461360" lon="9.5791940">
	<ele>1831.20</ele>
	<time>2023-10-07T08:19:37.000Z</time>
</trkpt>
<trkpt lat="45.9461350" lon="9.5791820">
	<ele>1831.00</ele>
	<time>2023-10-07T08:19:38.000Z</time>
</trkpt>
<trkpt lat="45.9461340" lon="9.5791720">
	<ele>1831.00</ele>
	<time>2023-10-07T08:19:39.000Z</time>
</trkpt>
<trkpt lat="45.9461310" lon="9.5791610">
	<ele>1830.80</ele>
	<time>2023-10-07T08:19:40.000Z</time>
</trkpt>
<trkpt lat="45.9461270" lon="9.5791490">
	<ele>1830.80</ele>
	<time>2023-10-07T08:19:41.000Z</time>
</trkpt>
<trkpt lat="45.9461220" lon="9.5791370">
	<ele>1830.60</ele>
	<time>2023-10-07T08:19:42.000Z</time>
</trkpt>
<trkpt lat="45.9461180" lon="9.5791240">
	<ele>1830.40</ele>
	<time>2023-10-07T08:19:43.000Z</time>
</trkpt>
<trkpt lat="45.9461130" lon="9.5791130">
	<ele>1830.20</ele>
	<time>2023-10-07T08:19:44.000Z</time>
</trkpt>
<trkpt lat="45.9461070" lon="9.5791010">
	<ele>1830.00</ele>
	<time>2023-10-07T08:19:45.000Z</time>
</trkpt>
<trkpt lat="45.9461030" lon="9.5790880">
	<ele>1829.80</ele>
	<time>2023-10-07T08:19:46.000Z</time>
</trkpt>
<trkpt lat="45.9460980" lon="9.5790720">
	<ele>1829.60</ele>
	<time>2023-10-07T08:19:47.000Z</time>
</trkpt>
<trkpt lat="45.9460910" lon="9.5790610">
	<ele>1829.40</ele>
	<time>2023-10-07T08:19:48.000Z</time>
</trkpt>
<trkpt lat="45.9460830" lon="9.5790480">
	<ele>1829.40</ele>
	<time>2023-10-07T08:19:49.000Z</time>
</trkpt>
<trkpt lat="45.9460760" lon="9.5790370">
	<ele>1829.20</ele>
	<time>2023-10-07T08:19:50.000Z</time>
</trkpt>
<trkpt lat="45.9460730" lon="9.5790260">
	<ele>1829.20</ele>
	<time>2023-10-07T08:19:51.000Z</time>
</trkpt>
<trkpt lat="45.9460700" lon="9.5790170">
	<ele>1829.00</ele>
	<time>2023-10-07T08:19:52.000Z</time>
</trkpt>
<trkpt lat="45.9460620" lon="9.5790080">
	<ele>1828.80</ele>
	<time>2023-10-07T08:19:53.000Z</time>
</trkpt>
<trkpt lat="45.9460550" lon="9.5789970">
	<ele>1828.40</ele>
	<time>2023-10-07T08:19:54.000Z</time>
</trkpt>
<trkpt lat="45.9460470" lon="9.5789840">
	<ele>1828.20</ele>
	<time>2023-10-07T08:19:55.000Z</time>
</trkpt>
<trkpt lat="45.9460400" lon="9.5789770">
	<ele>1828.20</ele>
	<time>2023-10-07T08:19:56.000Z</time>
</trkpt>
<trkpt lat="45.9460310" lon="9.5789660">
	<ele>1828.00</ele>
	<time>2023-10-07T08:19:57.000Z</time>
</trkpt>
<trkpt lat="45.9460220" lon="9.5789550">
	<ele>1827.80</ele>
	<time>2023-10-07T08:19:58.000Z</time>
</trkpt>
<trkpt lat="45.9460130" lon="9.5789360">
	<ele>1827.60</ele>
	<time>2023-10-07T08:19:59.000Z</time>
</trkpt>
<trkpt lat="45.9460040" lon="9.5789210">
	<ele>1827.20</ele>
	<time>2023-10-07T08:20:00.000Z</time>
</trkpt>
<trkpt lat="45.9459960" lon="9.5789120">
	<ele>1827.00</ele>
	<time>2023-10-07T08:20:01.000Z</time>
</trkpt>
<trkpt lat="45.9459910" lon="9.5788980">
	<ele>1827.00</ele>
	<time>2023-10-07T08:20:02.000Z</time>
</trkpt>
<trkpt lat="45.9459860" lon="9.5788840">
	<ele>1826.80</ele>
	<time>2023-10-07T08:20:03.000Z</time>
</trkpt>
<trkpt lat="45.9459780" lon="9.5788690">
	<ele>1826.60</ele>
	<time>2023-10-07T08:20:04.000Z</time>
</trkpt>
<trkpt lat="45.9459730" lon="9.5788590">
	<ele>1826.40</ele>
	<time>2023-10-07T08:20:05.000Z</time>
</trkpt>
<trkpt lat="45.9459690" lon="9.5788480">
	<ele>1826.40</ele>
	<time>2023-10-07T08:20:06.000Z</time>
</trkpt>
<trkpt lat="45.9459620" lon="9.5788270">
	<ele>1826.20</ele>
	<time>2023-10-07T08:20:07.000Z</time>
</trkpt>
<trkpt lat="45.9459560" lon="9.5788090">
	<ele>1826.20</ele>
	<time>2023-10-07T08:20:08.000Z</time>
</trkpt>
<trkpt lat="45.9459520" lon="9.5787970">
	<ele>1826.00</ele>
	<time>2023-10-07T08:20:09.000Z</time>
</trkpt>
<trkpt lat="45.9459490" lon="9.5787830">
	<ele>1826.00</ele>
	<time>2023-10-07T08:20:10.000Z</time>
</trkpt>
<trkpt lat="45.9459430" lon="9.5787700">
	<ele>1826.00</ele>
	<time>2023-10-07T08:20:11.000Z</time>
</trkpt>
<trkpt lat="45.9459380" lon="9.5787560">
	<ele>1826.00</ele>
	<time>2023-10-07T08:20:12.000Z</time>
</trkpt>
<trkpt lat="45.9459320" lon="9.5787390">
	<ele>1826.00</ele>
	<time>2023-10-07T08:20:13.000Z</time>
</trkpt>
<trkpt lat="45.9459270" lon="9.5787200">
	<ele>1826.00</ele>
	<time>2023-10-07T08:20:14.000Z</time>
</trkpt>
<trkpt lat="45.9459230" lon="9.5787040">
	<ele>1826.00</ele>
	<time>2023-10-07T08:20:15.000Z</time>
</trkpt>
<trkpt lat="45.9459200" lon="9.5786870">
	<ele>1826.00</ele>
	<time>2023-10-07T08:20:16.000Z</time>
</trkpt>
<trkpt lat="45.9459140" lon="9.5786700">
	<ele>1826.00</ele>
	<time>2023-10-07T08:20:17.000Z</time>
</trkpt>
<trkpt lat="45.9459100" lon="9.5786590">
	<ele>1826.00</ele>
	<time>2023-10-07T08:20:18.000Z</time>
</trkpt>
<trkpt lat="45.9459100" lon="9.5786450">
	<ele>1826.00</ele>
	<time>2023-10-07T08:20:19.000Z</time>
</trkpt>
<trkpt lat="45.9459080" lon="9.5786300">
	<ele>1826.00</ele>
	<time>2023-10-07T08:20:20.000Z</time>
</trkpt>
<trkpt lat="45.9459040" lon="9.5786160">
	<ele>1826.00</ele>
	<time>2023-10-07T08:20:21.000Z</time>
</trkpt>
<trkpt lat="45.9459010" lon="9.5786030">
	<ele>1826.00</ele>
	<time>2023-10-07T08:20:22.000Z</time>
</trkpt>
<trkpt lat="45.9458980" lon="9.5785890">
	<ele>1826.20</ele>
	<time>2023-10-07T08:20:23.000Z</time>
</trkpt>
<trkpt lat="45.9458940" lon="9.5785740">
	<ele>1826.40</ele>
	<time>2023-10-07T08:20:24.000Z</time>
</trkpt>
<trkpt lat="45.9458910" lon="9.5785600">
	<ele>1826.40</ele>
	<time>2023-10-07T08:20:25.000Z</time>
</trkpt>
<trkpt lat="45.9458870" lon="9.5785460">
	<ele>1826.40</ele>
	<time>2023-10-07T08:20:26.000Z</time>
</trkpt>
<trkpt lat="45.9458850" lon="9.5785300">
	<ele>1826.60</ele>
	<time>2023-10-07T08:20:27.000Z</time>
</trkpt>
<trkpt lat="45.9458790" lon="9.5785120">
	<ele>1826.80</ele>
	<time>2023-10-07T08:20:28.000Z</time>
</trkpt>
<trkpt lat="45.9458760" lon="9.5784960">
	<ele>1826.80</ele>
	<time>2023-10-07T08:20:29.000Z</time>
</trkpt>
<trkpt lat="45.9458730" lon="9.5784820">
	<ele>1827.00</ele>
	<time>2023-10-07T08:20:30.000Z</time>
</trkpt>
<trkpt lat="45.9458700" lon="9.5784720">
	<ele>1827.20</ele>
	<time>2023-10-07T08:20:31.000Z</time>
</trkpt>
<trkpt lat="45.9458670" lon="9.5784590">
	<ele>1827.20</ele>
	<time>2023-10-07T08:20:32.000Z</time>
</trkpt>
<trkpt lat="45.9458660" lon="9.5784450">
	<ele>1827.20</ele>
	<time>2023-10-07T08:20:33.000Z</time>
</trkpt>
<trkpt lat="45.9458640" lon="9.5784310">
	<ele>1827.20</ele>
	<time>2023-10-07T08:20:34.000Z</time>
</trkpt>
<trkpt lat="45.9458610" lon="9.5784150">
	<ele>1827.20</ele>
	<time>2023-10-07T08:20:35.000Z</time>
</trkpt>
<trkpt lat="45.9458570" lon="9.5784030">
	<ele>1827.20</ele>
	<time>2023-10-07T08:20:36.000Z</time>
</trkpt>
<trkpt lat="45.9458520" lon="9.5783900">
	<ele>1827.20</ele>
	<time>2023-10-07T08:20:37.000Z</time>
</trkpt>
<trkpt lat="45.9458460" lon="9.5783770">
	<ele>1827.20</ele>
	<time>2023-10-07T08:20:38.000Z</time>
</trkpt>
<trkpt lat="45.9458390" lon="9.5783610">
	<ele>1827.20</ele>
	<time>2023-10-07T08:20:39.000Z</time>
</trkpt>
<trkpt lat="45.9458330" lon="9.5783450">
	<ele>1827.20</ele>
	<time>2023-10-07T08:20:40.000Z</time>
</trkpt>
<trkpt lat="45.9458290" lon="9.5783310">
	<ele>1827.60</ele>
	<time>2023-10-07T08:20:41.000Z</time>
</trkpt>
<trkpt lat="45.9458250" lon="9.5783200">
	<ele>1827.60</ele>
	<time>2023-10-07T08:20:42.000Z</time>
</trkpt>
<trkpt lat="45.9458190" lon="9.5783070">
	<ele>1827.60</ele>
	<time>2023-10-07T08:20:43.000Z</time>
</trkpt>
<trkpt lat="45.9458130" lon="9.5782910">
	<ele>1827.80</ele>
	<time>2023-10-07T08:20:44.000Z</time>
</trkpt>
<trkpt lat="45.9458030" lon="9.5782710">
	<ele>1827.80</ele>
	<time>2023-10-07T08:20:45.000Z</time>
</trkpt>
<trkpt lat="45.9457980" lon="9.5782570">
	<ele>1827.80</ele>
	<time>2023-10-07T08:20:46.000Z</time>
</trkpt>
<trkpt lat="45.9457920" lon="9.5782430">
	<ele>1827.80</ele>
	<time>2023-10-07T08:20:47.000Z</time>
</trkpt>
<trkpt lat="45.9457860" lon="9.5782250">
	<ele>1827.80</ele>
	<time>2023-10-07T08:20:48.000Z</time>
</trkpt>
<trkpt lat="45.9457790" lon="9.5782130">
	<ele>1827.80</ele>
	<time>2023-10-07T08:20:49.000Z</time>
</trkpt>
<trkpt lat="45.9457750" lon="9.5782030">
	<ele>1827.80</ele>
	<time>2023-10-07T08:20:50.000Z</time>
</trkpt>
<trkpt lat="45.9457670" lon="9.5781880">
	<ele>1827.60</ele>
	<time>2023-10-07T08:20:51.000Z</time>
</trkpt>
<trkpt lat="45.9457610" lon="9.5781710">
	<ele>1827.60</ele>
	<time>2023-10-07T08:20:52.000Z</time>
</trkpt>
<trkpt lat="45.9457530" lon="9.5781580">
	<ele>1827.60</ele>
	<time>2023-10-07T08:20:53.000Z</time>
</trkpt>
<trkpt lat="45.9457460" lon="9.5781510">
	<ele>1827.60</ele>
	<time>2023-10-07T08:20:54.000Z</time>
</trkpt>
<trkpt lat="45.9457400" lon="9.5781390">
	<ele>1827.60</ele>
	<time>2023-10-07T08:20:55.000Z</time>
</trkpt>
<trkpt lat="45.9457350" lon="9.5781240">
	<ele>1827.80</ele>
	<time>2023-10-07T08:20:56.000Z</time>
</trkpt>
<trkpt lat="45.9457310" lon="9.5781090">
	<ele>1827.80</ele>
	<time>2023-10-07T08:20:57.000Z</time>
</trkpt>
<trkpt lat="45.9457260" lon="9.5780930">
	<ele>1828.00</ele>
	<time>2023-10-07T08:20:58.000Z</time>
</trkpt>
<trkpt lat="45.9457230" lon="9.5780800">
	<ele>1828.00</ele>
	<time>2023-10-07T08:20:59.000Z</time>
</trkpt>
<trkpt lat="45.9457180" lon="9.5780670">
	<ele>1828.00</ele>
	<time>2023-10-07T08:21:00.000Z</time>
</trkpt>
<trkpt lat="45.9457130" lon="9.5780530">
	<ele>1828.00</ele>
	<time>2023-10-07T08:21:01.000Z</time>
</trkpt>
<trkpt lat="45.9457060" lon="9.5780370">
	<ele>1828.00</ele>
	<time>2023-10-07T08:21:02.000Z</time>
</trkpt>
<trkpt lat="45.9457020" lon="9.5780230">
	<ele>1828.00</ele>
	<time>2023-10-07T08:21:03.000Z</time>
</trkpt>
<trkpt lat="45.9456970" lon="9.5780090">
	<ele>1828.00</ele>
	<time>2023-10-07T08:21:04.000Z</time>
</trkpt>
<trkpt lat="45.9456930" lon="9.5779960">
	<ele>1828.00</ele>
	<time>2023-10-07T08:21:05.000Z</time>
</trkpt>
<trkpt lat="45.9456870" lon="9.5779810">
	<ele>1828.00</ele>
	<time>2023-10-07T08:21:06.000Z</time>
</trkpt>
<trkpt lat="45.9456840" lon="9.5779630">
	<ele>1828.00</ele>
	<time>2023-10-07T08:21:07.000Z</time>
</trkpt>
<trkpt lat="45.9456800" lon="9.5779470">
	<ele>1828.00</ele>
	<time>2023-10-07T08:21:08.000Z</time>
</trkpt>
<trkpt lat="45.9456750" lon="9.5779310">
	<ele>1828.20</ele>
	<time>2023-10-07T08:21:09.000Z</time>
</trkpt>
<trkpt lat="45.9456700" lon="9.5779200">
	<ele>1828.40</ele>
	<time>2023-10-07T08:21:10.000Z</time>
</trkpt>
<trkpt lat="45.9456640" lon="9.5779060">
	<ele>1828.40</ele>
	<time>2023-10-07T08:21:11.000Z</time>
</trkpt>
<trkpt lat="45.9456600" lon="9.5778920">
	<ele>1828.40</ele>
	<time>2023-10-07T08:21:12.000Z</time>
</trkpt>
<trkpt lat="45.9456560" lon="9.5778780">
	<ele>1828.40</ele>
	<time>2023-10-07T08:21:13.000Z</time>
</trkpt>
<trkpt lat="45.9456530" lon="9.5778670">
	<ele>1828.40</ele>
	<time>2023-10-07T08:21:14.000Z</time>
</trkpt>
<trkpt lat="45.9456470" lon="9.5778570">
	<ele>1828.40</ele>
	<time>2023-10-07T08:21:15.000Z</time>
</trkpt>
<trkpt lat="45.9456420" lon="9.5778470">
	<ele>1828.40</ele>
	<time>2023-10-07T08:21:16.000Z</time>
</trkpt>
<trkpt lat="45.9456340" lon="9.5778340">
	<ele>1828.60</ele>
	<time>2023-10-07T08:21:17.000Z</time>
</trkpt>
<trkpt lat="45.9456230" lon="9.5778180">
	<ele>1828.60</ele>
	<time>2023-10-07T08:21:18.000Z</time>
</trkpt>
<trkpt lat="45.9456140" lon="9.5778070">
	<ele>1828.60</ele>
	<time>2023-10-07T08:21:19.000Z</time>
</trkpt>
<trkpt lat="45.9456060" lon="9.5777990">
	<ele>1828.60</ele>
	<time>2023-10-07T08:21:20.000Z</time>
</trkpt>
<trkpt lat="45.9456010" lon="9.5777880">
	<ele>1828.60</ele>
	<time>2023-10-07T08:21:21.000Z</time>
</trkpt>
<trkpt lat="45.9455940" lon="9.5777750">
	<ele>1828.40</ele>
	<time>2023-10-07T08:21:22.000Z</time>
</trkpt>
<trkpt lat="45.9455860" lon="9.5777610">
	<ele>1828.20</ele>
	<time>2023-10-07T08:21:23.000Z</time>
</trkpt>
<trkpt lat="45.9455780" lon="9.5777460">
	<ele>1828.20</ele>
	<time>2023-10-07T08:21:24.000Z</time>
</trkpt>
<trkpt lat="45.9455700" lon="9.5777360">
	<ele>1828.00</ele>
	<time>2023-10-07T08:21:25.000Z</time>
</trkpt>
<trkpt lat="45.9455630" lon="9.5777240">
	<ele>1828.00</ele>
	<time>2023-10-07T08:21:26.000Z</time>
</trkpt>
<trkpt lat="45.9455560" lon="9.5777150">
	<ele>1828.00</ele>
	<time>2023-10-07T08:21:27.000Z</time>
</trkpt>
<trkpt lat="45.9455480" lon="9.5777040">
	<ele>1827.80</ele>
	<time>2023-10-07T08:21:28.000Z</time>
</trkpt>
<trkpt lat="45.9455410" lon="9.5776930">
	<ele>1827.80</ele>
	<time>2023-10-07T08:21:29.000Z</time>
</trkpt>
<trkpt lat="45.9455350" lon="9.5776760">
	<ele>1827.80</ele>
	<time>2023-10-07T08:21:30.000Z</time>
</trkpt>
<trkpt lat="45.9455280" lon="9.5776560">
	<ele>1827.80</ele>
	<time>2023-10-07T08:21:31.000Z</time>
</trkpt>
<trkpt lat="45.9455230" lon="9.5776440">
	<ele>1827.80</ele>
	<time>2023-10-07T08:21:32.000Z</time>
</trkpt>
<trkpt lat="45.9455170" lon="9.5776300">
	<ele>1827.60</ele>
	<time>2023-10-07T08:21:33.000Z</time>
</trkpt>
<trkpt lat="45.9455140" lon="9.5776200">
	<ele>1827.60</ele>
	<time>2023-10-07T08:21:34.000Z</time>
</trkpt>
<trkpt lat="45.9455080" lon="9.5776080">
	<ele>1827.80</ele>
	<time>2023-10-07T08:21:35.000Z</time>
</trkpt>
<trkpt lat="45.9455010" lon="9.5775970">
	<ele>1827.80</ele>
	<time>2023-10-07T08:21:36.000Z</time>
</trkpt>
<trkpt lat="45.9454950" lon="9.5775840">
	<ele>1827.80</ele>
	<time>2023-10-07T08:21:37.000Z</time>
</trkpt>
<trkpt lat="45.9454920" lon="9.5775700">
	<ele>1828.00</ele>
	<time>2023-10-07T08:21:38.000Z</time>
</trkpt>
<trkpt lat="45.9454900" lon="9.5775630">
	<ele>1828.20</ele>
	<time>2023-10-07T08:21:39.000Z</time>
</trkpt>
<trkpt lat="45.9454870" lon="9.5775510">
	<ele>1828.40</ele>
	<time>2023-10-07T08:21:40.000Z</time>
</trkpt>
<trkpt lat="45.9454840" lon="9.5775400">
	<ele>1828.40</ele>
	<time>2023-10-07T08:21:41.000Z</time>
</trkpt>
<trkpt lat="45.9454810" lon="9.5775310">
	<ele>1828.80</ele>
	<time>2023-10-07T08:21:42.000Z</time>
</trkpt>
<trkpt lat="45.9454780" lon="9.5775200">
	<ele>1828.80</ele>
	<time>2023-10-07T08:21:43.000Z</time>
</trkpt>
<trkpt lat="45.9454770" lon="9.5775110">
	<ele>1829.00</ele>
	<time>2023-10-07T08:21:44.000Z</time>
</trkpt>
<trkpt lat="45.9454770" lon="9.5774980">
	<ele>1829.40</ele>
	<time>2023-10-07T08:21:45.000Z</time>
</trkpt>
<trkpt lat="45.9454760" lon="9.5774890">
	<ele>1829.60</ele>
	<time>2023-10-07T08:21:46.000Z</time>
</trkpt>
<trkpt lat="45.9454730" lon="9.5774820">
	<ele>1829.60</ele>
	<time>2023-10-07T08:21:47.000Z</time>
</trkpt>
<trkpt lat="45.9454700" lon="9.5774750">
	<ele>1830.00</ele>
	<time>2023-10-07T08:21:48.000Z</time>
</trkpt>
<trkpt lat="45.9454630" lon="9.5774660">
	<ele>1830.00</ele>
	<time>2023-10-07T08:21:49.000Z</time>
</trkpt>
<trkpt lat="45.9454580" lon="9.5774610">
	<ele>1830.20</ele>
	<time>2023-10-07T08:21:50.000Z</time>
</trkpt>
<trkpt lat="45.9454510" lon="9.5774510">
	<ele>1830.40</ele>
	<time>2023-10-07T08:21:51.000Z</time>
</trkpt>
<trkpt lat="45.9454450" lon="9.5774440">
	<ele>1830.60</ele>
	<time>2023-10-07T08:21:52.000Z</time>
</trkpt>
<trkpt lat="45.9454390" lon="9.5774330">
	<ele>1830.60</ele>
	<time>2023-10-07T08:21:53.000Z</time>
</trkpt>
<trkpt lat="45.9454380" lon="9.5774210">
	<ele>1830.60</ele>
	<time>2023-10-07T08:21:54.000Z</time>
</trkpt>
<trkpt lat="45.9454340" lon="9.5774110">
	<ele>1830.80</ele>
	<time>2023-10-07T08:21:55.000Z</time>
</trkpt>
<trkpt lat="45.9454290" lon="9.5773990">
	<ele>1830.80</ele>
	<time>2023-10-07T08:21:56.000Z</time>
</trkpt>
<trkpt lat="45.9454260" lon="9.5773870">
	<ele>1830.80</ele>
	<time>2023-10-07T08:21:57.000Z</time>
</trkpt>
<trkpt lat="45.9454230" lon="9.5773740">
	<ele>1830.80</ele>
	<time>2023-10-07T08:21:58.000Z</time>
</trkpt>
<trkpt lat="45.9454210" lon="9.5773630">
	<ele>1830.80</ele>
	<time>2023-10-07T08:21:59.000Z</time>
</trkpt>
<trkpt lat="45.9454180" lon="9.5773520">
	<ele>1830.80</ele>
	<time>2023-10-07T08:22:00.000Z</time>
</trkpt>
<trkpt lat="45.9454120" lon="9.5773380">
	<ele>1830.80</ele>
	<time>2023-10-07T08:22:01.000Z</time>
</trkpt>
<trkpt lat="45.9454080" lon="9.5773230">
	<ele>1830.80</ele>
	<time>2023-10-07T08:22:02.000Z</time>
</trkpt>
<trkpt lat="45.9454020" lon="9.5773100">
	<ele>1830.80</ele>
	<time>2023-10-07T08:22:03.000Z</time>
</trkpt>
<trkpt lat="45.9453980" lon="9.5772990">
	<ele>1831.00</ele>
	<time>2023-10-07T08:22:04.000Z</time>
</trkpt>
<trkpt lat="45.9453940" lon="9.5772890">
	<ele>1831.00</ele>
	<time>2023-10-07T08:22:05.000Z</time>
</trkpt>
<trkpt lat="45.9453890" lon="9.5772780">
	<ele>1831.00</ele>
	<time>2023-10-07T08:22:06.000Z</time>
</trkpt>
<trkpt lat="45.9453870" lon="9.5772700">
	<ele>1831.20</ele>
	<time>2023-10-07T08:22:07.000Z</time>
</trkpt>
<trkpt lat="45.9453840" lon="9.5772580">
	<ele>1831.20</ele>
	<time>2023-10-07T08:22:08.000Z</time>
</trkpt>
<trkpt lat="45.9453800" lon="9.5772480">
	<ele>1831.40</ele>
	<time>2023-10-07T08:22:09.000Z</time>
</trkpt>
<trkpt lat="45.9453770" lon="9.5772370">
	<ele>1831.40</ele>
	<time>2023-10-07T08:22:10.000Z</time>
</trkpt>
<trkpt lat="45.9453710" lon="9.5772260">
	<ele>1831.40</ele>
	<time>2023-10-07T08:22:11.000Z</time>
</trkpt>
<trkpt lat="45.9453640" lon="9.5772140">
	<ele>1831.60</ele>
	<time>2023-10-07T08:22:12.000Z</time>
</trkpt>
<trkpt lat="45.9453620" lon="9.5772040">
	<ele>1831.80</ele>
	<time>2023-10-07T08:22:13.000Z</time>
</trkpt>
<trkpt lat="45.9453590" lon="9.5771920">
	<ele>1831.80</ele>
	<time>2023-10-07T08:22:14.000Z</time>
</trkpt>
<trkpt lat="45.9453540" lon="9.5771790">
	<ele>1831.80</ele>
	<time>2023-10-07T08:22:15.000Z</time>
</trkpt>
<trkpt lat="45.9453500" lon="9.5771640">
	<ele>1831.80</ele>
	<time>2023-10-07T08:22:16.000Z</time>
</trkpt>
<trkpt lat="45.9453470" lon="9.5771540">
	<ele>1831.80</ele>
	<time>2023-10-07T08:22:17.000Z</time>
</trkpt>
<trkpt lat="45.9453440" lon="9.5771450">
	<ele>1831.80</ele>
	<time>2023-10-07T08:22:18.000Z</time>
</trkpt>
<trkpt lat="45.9453390" lon="9.5771330">
	<ele>1832.00</ele>
	<time>2023-10-07T08:22:19.000Z</time>
</trkpt>
<trkpt lat="45.9453340" lon="9.5771220">
	<ele>1832.20</ele>
	<time>2023-10-07T08:22:20.000Z</time>
</trkpt>
<trkpt lat="45.9453300" lon="9.5771120">
	<ele>1832.40</ele>
	<time>2023-10-07T08:22:21.000Z</time>
</trkpt>
<trkpt lat="45.9453270" lon="9.5771010">
	<ele>1832.60</ele>
	<time>2023-10-07T08:22:22.000Z</time>
</trkpt>
<trkpt lat="45.9453220" lon="9.5770910">
	<ele>1832.60</ele>
	<time>2023-10-07T08:22:23.000Z</time>
</trkpt>
<trkpt lat="45.9453200" lon="9.5770810">
	<ele>1832.60</ele>
	<time>2023-10-07T08:22:24.000Z</time>
</trkpt>
<trkpt lat="45.9453160" lon="9.5770700">
	<ele>1832.80</ele>
	<time>2023-10-07T08:22:25.000Z</time>
</trkpt>
<trkpt lat="45.9453110" lon="9.5770610">
	<ele>1833.00</ele>
	<time>2023-10-07T08:22:26.000Z</time>
</trkpt>
<trkpt lat="45.9453070" lon="9.5770510">
	<ele>1833.20</ele>
	<time>2023-10-07T08:22:27.000Z</time>
</trkpt>
<trkpt lat="45.9453030" lon="9.5770400">
	<ele>1833.20</ele>
	<time>2023-10-07T08:22:28.000Z</time>
</trkpt>
<trkpt lat="45.9453000" lon="9.5770300">
	<ele>1833.40</ele>
	<time>2023-10-07T08:22:29.000Z</time>
</trkpt>
<trkpt lat="45.9452950" lon="9.5770210">
	<ele>1833.60</ele>
	<time>2023-10-07T08:22:30.000Z</time>
</trkpt>
<trkpt lat="45.9452910" lon="9.5770130">
	<ele>1833.60</ele>
	<time>2023-10-07T08:22:31.000Z</time>
</trkpt>
<trkpt lat="45.9452850" lon="9.5770070">
	<ele>1833.80</ele>
	<time>2023-10-07T08:22:32.000Z</time>
</trkpt>
<trkpt lat="45.9452830" lon="9.5769990">
	<ele>1834.00</ele>
	<time>2023-10-07T08:22:33.000Z</time>
</trkpt>
<trkpt lat="45.9452810" lon="9.5769880">
	<ele>1834.20</ele>
	<time>2023-10-07T08:22:34.000Z</time>
</trkpt>
<trkpt lat="45.9452780" lon="9.5769810">
	<ele>1834.20</ele>
	<time>2023-10-07T08:22:35.000Z</time>
</trkpt>
<trkpt lat="45.9452750" lon="9.5769730">
	<ele>1834.20</ele>
	<time>2023-10-07T08:22:36.000Z</time>
</trkpt>
<trkpt lat="45.9452710" lon="9.5769670">
	<ele>1834.40</ele>
	<time>2023-10-07T08:22:37.000Z</time>
</trkpt>
<trkpt lat="45.9452670" lon="9.5769590">
	<ele>1834.40</ele>
	<time>2023-10-07T08:22:38.000Z</time>
</trkpt>
<trkpt lat="45.9452650" lon="9.5769490">
	<ele>1834.40</ele>
	<time>2023-10-07T08:22:39.000Z</time>
</trkpt>
<trkpt lat="45.9452640" lon="9.5769410">
	<ele>1834.60</ele>
	<time>2023-10-07T08:22:40.000Z</time>
</trkpt>
<trkpt lat="45.9452630" lon="9.5769350">
	<ele>1834.60</ele>
	<time>2023-10-07T08:22:41.000Z</time>
</trkpt>
<trkpt lat="45.9452630" lon="9.5769320">
	<ele>1834.60</ele>
	<time>2023-10-07T08:22:42.000Z</time>
</trkpt>
<trkpt lat="45.9452610" lon="9.5769300">
	<ele>1834.80</ele>
	<time>2023-10-07T08:22:43.000Z</time>
</trkpt>
<trkpt lat="45.9452600" lon="9.5769300">
	<ele>1834.80</ele>
	<time>2023-10-07T08:22:44.000Z</time>
</trkpt>
<trkpt lat="45.9452600" lon="9.5769280">
	<ele>1834.80</ele>
	<time>2023-10-07T08:22:45.000Z</time>
</trkpt>
<trkpt lat="45.9452610" lon="9.5769270">
	<ele>1834.80</ele>
	<time>2023-10-07T08:22:46.000Z</time>
</trkpt>
<trkpt lat="45.9452610" lon="9.5769260">
	<ele>1834.80</ele>
	<time>2023-10-07T08:22:47.000Z</time>
</trkpt>
<trkpt lat="45.9452600" lon="9.5769240">
	<ele>1835.00</ele>
	<time>2023-10-07T08:22:48.000Z</time>
</trkpt>
<trkpt lat="45.9452610" lon="9.5769220">
	<ele>1835.00</ele>
	<time>2023-10-07T08:22:49.000Z</time>
</trkpt>
<trkpt lat="45.9452620" lon="9.5769210">
	<ele>1835.20</ele>
	<time>2023-10-07T08:22:50.000Z</time>
</trkpt>
<trkpt lat="45.9452620" lon="9.5769210">
	<ele>1835.20</ele>
	<time>2023-10-07T08:22:51.000Z</time>
</trkpt>
<trkpt lat="45.9452620" lon="9.5769210">
	<ele>1835.20</ele>
	<time>2023-10-07T08:22:52.000Z</time>
</trkpt>
<trkpt lat="45.9452620" lon="9.5769210">
	<ele>1835.20</ele>
	<time>2023-10-07T08:22:53.000Z</time>
</trkpt>
<trkpt lat="45.9452620" lon="9.5769210">
	<ele>1835.20</ele>
	<time>2023-10-07T08:22:54.000Z</time>
</trkpt>
<trkpt lat="45.9452620" lon="9.5769210">
	<ele>1835.00</ele>
	<time>2023-10-07T08:22:55.000Z</time>
</trkpt>
<trkpt lat="45.9452620" lon="9.5769210">
	<ele>1835.00</ele>
	<time>2023-10-07T08:22:56.000Z</time>
</trkpt>
<trkpt lat="45.9452620" lon="9.5769210">
	<ele>1835.00</ele>
	<time>2023-10-07T08:22:57.000Z</time>
</trkpt>
<trkpt lat="45.9452620" lon="9.5769210">
	<ele>1834.80</ele>
	<time>2023-10-07T08:22:58.000Z</time>
</trkpt>
<trkpt lat="45.9452620" lon="9.5769210">
	<ele>1834.80</ele>
	<time>2023-10-07T08:22:59.000Z</time>
</trkpt>
<trkpt lat="45.9452620" lon="9.5769210">
	<ele>1834.80</ele>
	<time>2023-10-07T08:23:00.000Z</time>
</trkpt>
<trkpt lat="45.9452620" lon="9.5769210">
	<ele>1834.80</ele>
	<time>2023-10-07T08:23:01.000Z</time>
</trkpt>
<trkpt lat="45.9452620" lon="9.5769210">
	<ele>1834.80</ele>
	<time>2023-10-07T08:23:02.000Z</time>
</trkpt>
<trkpt lat="45.9452620" lon="9.5769210">
	<ele>1834.80</ele>
	<time>2023-10-07T08:23:03.000Z</time>
</trkpt>
<trkpt lat="45.9452610" lon="9.5769210">
	<ele>1834.80</ele>
	<time>2023-10-07T08:23:04.000Z</time>
</trkpt>
<trkpt lat="45.9452610" lon="9.5769210">
	<ele>1834.80</ele>
	<time>2023-10-07T08:23:05.000Z</time>
</trkpt>
<trkpt lat="45.9452610" lon="9.5769210">
	<ele>1834.80</ele>
	<time>2023-10-07T08:23:06.000Z</time>
</trkpt>
<trkpt lat="45.9452610" lon="9.5769210">
	<ele>1834.80</ele>
	<time>2023-10-07T08:23:07.000Z</time>
</trkpt>
<trkpt lat="45.9452610" lon="9.5769210">
	<ele>1835.00</ele>
	<time>2023-10-07T08:23:08.000Z</time>
</trkpt>
<trkpt lat="45.9452610" lon="9.5769210">
	<ele>1835.20</ele>
	<time>2023-10-07T08:23:09.000Z</time>
</trkpt>
<trkpt lat="45.9452610" lon="9.5769210">
	<ele>1835.40</ele>
	<time>2023-10-07T08:23:10.000Z</time>
</trkpt>
<trkpt lat="45.9452610" lon="9.5769210">
	<ele>1835.40</ele>
	<time>2023-10-07T08:23:11.000Z</time>
</trkpt>
<trkpt lat="45.9452600" lon="9.5769210">
	<ele>1835.40</ele>
	<time>2023-10-07T08:23:12.000Z</time>
</trkpt>
<trkpt lat="45.9452600" lon="9.5769210">
	<ele>1835.40</ele>
	<time>2023-10-07T08:23:13.000Z</time>
</trkpt>
<trkpt lat="45.9452600" lon="9.5769200">
	<ele>1835.40</ele>
	<time>2023-10-07T08:23:14.000Z</time>
</trkpt>
<trkpt lat="45.9452600" lon="9.5769190">
	<ele>1835.40</ele>
	<time>2023-10-07T08:23:15.000Z</time>
</trkpt>
<trkpt lat="45.9452600" lon="9.5769180">
	<ele>1835.40</ele>
	<time>2023-10-07T08:23:16.000Z</time>
</trkpt>
<trkpt lat="45.9452600" lon="9.5769180">
	<ele>1835.20</ele>
	<time>2023-10-07T08:23:17.000Z</time>
</trkpt>
<trkpt lat="45.9452600" lon="9.5769170">
	<ele>1835.20</ele>
	<time>2023-10-07T08:23:18.000Z</time>
</trkpt>
<trkpt lat="45.9452600" lon="9.5769170">
	<ele>1835.00</ele>
	<time>2023-10-07T08:23:19.000Z</time>
</trkpt>
<trkpt lat="45.9452600" lon="9.5769160">
	<ele>1835.00</ele>
	<time>2023-10-07T08:23:20.000Z</time>
</trkpt>
<trkpt lat="45.9452600" lon="9.5769150">
	<ele>1835.00</ele>
	<time>2023-10-07T08:23:21.000Z</time>
</trkpt>
<trkpt lat="45.9452600" lon="9.5769150">
	<ele>1835.00</ele>
	<time>2023-10-07T08:23:22.000Z</time>
</trkpt>
<trkpt lat="45.9452600" lon="9.5769150">
	<ele>1835.00</ele>
	<time>2023-10-07T08:23:23.000Z</time>
</trkpt>
<trkpt lat="45.9452600" lon="9.5769150">
	<ele>1835.00</ele>
	<time>2023-10-07T08:23:24.000Z</time>
</trkpt>
<trkpt lat="45.9452600" lon="9.5769150">
	<ele>1835.00</ele>
	<time>2023-10-07T08:23:25.000Z</time>
</trkpt>
<trkpt lat="45.9452600" lon="9.5769150">
	<ele>1835.00</ele>
	<time>2023-10-07T08:23:26.000Z</time>
</trkpt>
<trkpt lat="45.9452600" lon="9.5769150">
	<ele>1835.00</ele>
	<time>2023-10-07T08:23:27.000Z</time>
</trkpt>
<trkpt lat="45.9452610" lon="9.5769150">
	<ele>1835.00</ele>
	<time>2023-10-07T08:23:28.000Z</time>
</trkpt>
<trkpt lat="45.9452610" lon="9.5769150">
	<ele>1835.00</ele>
	<time>2023-10-07T08:23:29.000Z</time>
</trkpt>
<trkpt lat="45.9452610" lon="9.5769150">
	<ele>1835.00</ele>
	<time>2023-10-07T08:23:30.000Z</time>
</trkpt>
<trkpt lat="45.9452610" lon="9.5769150">
	<ele>1834.80</ele>
	<time>2023-10-07T08:23:31.000Z</time>
</trkpt>
<trkpt lat="45.9452620" lon="9.5769150">
	<ele>1834.80</ele>
	<time>2023-10-07T08:23:32.000Z</time>
</trkpt>
<trkpt lat="45.9452640" lon="9.5769150">
	<ele>1834.80</ele>
	<time>2023-10-07T08:23:33.000Z</time>
</trkpt>
<trkpt lat="45.9452680" lon="9.5769150">
	<ele>1834.80</ele>
	<time>2023-10-07T08:23:34.000Z</time>
</trkpt>
<trkpt lat="45.9452730" lon="9.5769150">
	<ele>1834.80</ele>
	<time>2023-10-07T08:23:35.000Z</time>
</trkpt>
<trkpt lat="45.9452750" lon="9.5769170">
	<ele>1834.80</ele>
	<time>2023-10-07T08:23:36.000Z</time>
</trkpt>
<trkpt lat="45.9452750" lon="9.5769190">
	<ele>1834.80</ele>
	<time>2023-10-07T08:23:37.000Z</time>
</trkpt>
<trkpt lat="45.9452750" lon="9.5769190">
	<ele>1834.80</ele>
	<time>2023-10-07T08:23:38.000Z</time>
</trkpt>
<trkpt lat="45.9452760" lon="9.5769210">
	<ele>1834.80</ele>
	<time>2023-10-07T08:23:39.000Z</time>
</trkpt>
<trkpt lat="45.9452760" lon="9.5769210">
	<ele>1834.80</ele>
	<time>2023-10-07T08:23:40.000Z</time>
</trkpt>
<trkpt lat="45.9452760" lon="9.5769210">
	<ele>1834.80</ele>
	<time>2023-10-07T08:23:41.000Z</time>
</trkpt>
<trkpt lat="45.9452760" lon="9.5769210">
	<ele>1834.80</ele>
	<time>2023-10-07T08:23:42.000Z</time>
</trkpt>
<trkpt lat="45.9452780" lon="9.5769220">
	<ele>1834.80</ele>
	<time>2023-10-07T08:23:43.000Z</time>
</trkpt>
<trkpt lat="45.9452780" lon="9.5769220">
	<ele>1834.80</ele>
	<time>2023-10-07T08:23:44.000Z</time>
</trkpt>
<trkpt lat="45.9452790" lon="9.5769220">
	<ele>1834.80</ele>
	<time>2023-10-07T08:23:45.000Z</time>
</trkpt>
<trkpt lat="45.9452810" lon="9.5769230">
	<ele>1834.80</ele>
	<time>2023-10-07T08:23:46.000Z</time>
</trkpt>
<trkpt lat="45.9452830" lon="9.5769230">
	<ele>1834.80</ele>
	<time>2023-10-07T08:23:47.000Z</time>
</trkpt>
<trkpt lat="45.9452850" lon="9.5769230">
	<ele>1834.80</ele>
	<time>2023-10-07T08:23:48.000Z</time>
</trkpt>
<trkpt lat="45.9452880" lon="9.5769240">
	<ele>1835.00</ele>
	<time>2023-10-07T08:23:49.000Z</time>
</trkpt>
<trkpt lat="45.9452900" lon="9.5769250">
	<ele>1835.00</ele>
	<time>2023-10-07T08:23:50.000Z</time>
</trkpt>
<trkpt lat="45.9452910" lon="9.5769260">
	<ele>1835.00</ele>
	<time>2023-10-07T08:23:51.000Z</time>
</trkpt>
<trkpt lat="45.9452910" lon="9.5769270">
	<ele>1835.00</ele>
	<time>2023-10-07T08:23:52.000Z</time>
</trkpt>
<trkpt lat="45.9452910" lon="9.5769270">
	<ele>1835.00</ele>
	<time>2023-10-07T08:23:53.000Z</time>
</trkpt>
<trkpt lat="45.9452910" lon="9.5769270">
	<ele>1835.00</ele>
	<time>2023-10-07T08:23:54.000Z</time>
</trkpt>
<trkpt lat="45.9452910" lon="9.5769270">
	<ele>1835.00</ele>
	<time>2023-10-07T08:23:55.000Z</time>
</trkpt>
<trkpt lat="45.9452910" lon="9.5769270">
	<ele>1834.80</ele>
	<time>2023-10-07T08:23:56.000Z</time>
</trkpt>
<trkpt lat="45.9452910" lon="9.5769270">
	<ele>1834.80</ele>
	<time>2023-10-07T08:23:57.000Z</time>
</trkpt>
<trkpt lat="45.9452860" lon="9.5769260">
	<ele>1834.60</ele>
	<time>2023-10-07T08:23:58.000Z</time>
</trkpt>
<trkpt lat="45.9452710" lon="9.5769230">
	<ele>1834.40</ele>
	<time>2023-10-07T08:23:59.000Z</time>
</trkpt>
<trkpt lat="45.9452540" lon="9.5769170">
	<ele>1834.00</ele>
	<time>2023-10-07T08:24:00.000Z</time>
</trkpt>
<trkpt lat="45.9452350" lon="9.5769050">
	<ele>1833.80</ele>
	<time>2023-10-07T08:24:01.000Z</time>
</trkpt>
<trkpt lat="45.9452180" lon="9.5768910">
	<ele>1833.80</ele>
	<time>2023-10-07T08:24:02.000Z</time>
</trkpt>
<trkpt lat="45.9452010" lon="9.5768790">
	<ele>1833.60</ele>
	<time>2023-10-07T08:24:03.000Z</time>
</trkpt>
<trkpt lat="45.9451840" lon="9.5768710">
	<ele>1833.60</ele>
	<time>2023-10-07T08:24:04.000Z</time>
</trkpt>
<trkpt lat="45.9451690" lon="9.5768660">
	<ele>1833.40</ele>
	<time>2023-10-07T08:24:05.000Z</time>
</trkpt>
<trkpt lat="45.9451530" lon="9.5768590">
	<ele>1833.40</ele>
	<time>2023-10-07T08:24:06.000Z</time>
</trkpt>
<trkpt lat="45.9451380" lon="9.5768510">
	<ele>1833.20</ele>
	<time>2023-10-07T08:24:07.000Z</time>
</trkpt>
<trkpt lat="45.9451310" lon="9.5768460">
	<ele>1833.20</ele>
	<time>2023-10-07T08:24:08.000Z</time>
</trkpt>
<trkpt lat="45.9451230" lon="9.5768390">
	<ele>1833.00</ele>
	<time>2023-10-07T08:24:09.000Z</time>
</trkpt>
<trkpt lat="45.9451150" lon="9.5768290">
	<ele>1833.00</ele>
	<time>2023-10-07T08:24:10.000Z</time>
</trkpt>
<trkpt lat="45.9451040" lon="9.5768180">
	<ele>1832.80</ele>
	<time>2023-10-07T08:24:11.000Z</time>
</trkpt>
<trkpt lat="45.9450940" lon="9.5768040">
	<ele>1832.80</ele>
	<time>2023-10-07T08:24:12.000Z</time>
</trkpt>
<trkpt lat="45.9450850" lon="9.5767990">
	<ele>1832.60</ele>
	<time>2023-10-07T08:24:13.000Z</time>
</trkpt>
<trkpt lat="45.9450780" lon="9.5767930">
	<ele>1832.60</ele>
	<time>2023-10-07T08:24:14.000Z</time>
</trkpt>
<trkpt lat="45.9450700" lon="9.5767860">
	<ele>1832.40</ele>
	<time>2023-10-07T08:24:15.000Z</time>
</trkpt>
<trkpt lat="45.9450610" lon="9.5767760">
	<ele>1832.40</ele>
	<time>2023-10-07T08:24:16.000Z</time>
</trkpt>
<trkpt lat="45.9450530" lon="9.5767650">
	<ele>1832.20</ele>
	<time>2023-10-07T08:24:17.000Z</time>
</trkpt>
<trkpt lat="45.9450460" lon="9.5767580">
	<ele>1832.20</ele>
	<time>2023-10-07T08:24:18.000Z</time>
</trkpt>
<trkpt lat="45.9450420" lon="9.5767520">
	<ele>1832.00</ele>
	<time>2023-10-07T08:24:19.000Z</time>
</trkpt>
<trkpt lat="45.9450370" lon="9.5767480">
	<ele>1832.00</ele>
	<time>2023-10-07T08:24:20.000Z</time>
</trkpt>
<trkpt lat="45.9450320" lon="9.5767430">
	<ele>1832.00</ele>
	<time>2023-10-07T08:24:21.000Z</time>
</trkpt>
<trkpt lat="45.9450270" lon="9.5767420">
	<ele>1832.00</ele>
	<time>2023-10-07T08:24:22.000Z</time>
</trkpt>
<trkpt lat="45.9450200" lon="9.5767410">
	<ele>1831.80</ele>
	<time>2023-10-07T08:24:23.000Z</time>
</trkpt>
<trkpt lat="45.9450140" lon="9.5767390">
	<ele>1831.60</ele>
	<time>2023-10-07T08:24:24.000Z</time>
</trkpt>
<trkpt lat="45.9450080" lon="9.5767370">
	<ele>1831.40</ele>
	<time>2023-10-07T08:24:25.000Z</time>
</trkpt>
<trkpt lat="45.9450010" lon="9.5767340">
	<ele>1831.40</ele>
	<time>2023-10-07T08:24:26.000Z</time>
</trkpt>
<trkpt lat="45.9449950" lon="9.5767270">
	<ele>1831.20</ele>
	<time>2023-10-07T08:24:27.000Z</time>
</trkpt>
<trkpt lat="45.9449890" lon="9.5767200">
	<ele>1831.00</ele>
	<time>2023-10-07T08:24:28.000Z</time>
</trkpt>
<trkpt lat="45.9449830" lon="9.5767160">
	<ele>1830.80</ele>
	<time>2023-10-07T08:24:29.000Z</time>
</trkpt>
<trkpt lat="45.9449790" lon="9.5767120">
	<ele>1830.40</ele>
	<time>2023-10-07T08:24:30.000Z</time>
</trkpt>
<trkpt lat="45.9449730" lon="9.5767080">
	<ele>1830.20</ele>
	<time>2023-10-07T08:24:31.000Z</time>
</trkpt>
<trkpt lat="45.9449650" lon="9.5767040">
	<ele>1830.20</ele>
	<time>2023-10-07T08:24:32.000Z</time>
</trkpt>
<trkpt lat="45.9449570" lon="9.5767010">
	<ele>1830.00</ele>
	<time>2023-10-07T08:24:33.000Z</time>
</trkpt>
<trkpt lat="45.9449500" lon="9.5766950">
	<ele>1829.80</ele>
	<time>2023-10-07T08:24:34.000Z</time>
</trkpt>
<trkpt lat="45.9449440" lon="9.5766870">
	<ele>1829.80</ele>
	<time>2023-10-07T08:24:35.000Z</time>
</trkpt>
<trkpt lat="45.9449410" lon="9.5766780">
	<ele>1829.60</ele>
	<time>2023-10-07T08:24:36.000Z</time>
</trkpt>
<trkpt lat="45.9449370" lon="9.5766700">
	<ele>1829.40</ele>
	<time>2023-10-07T08:24:37.000Z</time>
</trkpt>
<trkpt lat="45.9449330" lon="9.5766610">
	<ele>1829.20</ele>
	<time>2023-10-07T08:24:38.000Z</time>
</trkpt>
<trkpt lat="45.9449290" lon="9.5766560">
	<ele>1829.00</ele>
	<time>2023-10-07T08:24:39.000Z</time>
</trkpt>
<trkpt lat="45.9449240" lon="9.5766500">
	<ele>1828.80</ele>
	<time>2023-10-07T08:24:40.000Z</time>
</trkpt>
<trkpt lat="45.9449190" lon="9.5766440">
	<ele>1828.60</ele>
	<time>2023-10-07T08:24:41.000Z</time>
</trkpt>
<trkpt lat="45.9449130" lon="9.5766380">
	<ele>1828.40</ele>
	<time>2023-10-07T08:24:42.000Z</time>
</trkpt>
<trkpt lat="45.9449080" lon="9.5766330">
	<ele>1828.20</ele>
	<time>2023-10-07T08:24:43.000Z</time>
</trkpt>
<trkpt lat="45.9449040" lon="9.5766260">
	<ele>1828.20</ele>
	<time>2023-10-07T08:24:44.000Z</time>
</trkpt>
<trkpt lat="45.9449000" lon="9.5766160">
	<ele>1827.80</ele>
	<time>2023-10-07T08:24:45.000Z</time>
</trkpt>
<trkpt lat="45.9448960" lon="9.5766100">
	<ele>1827.60</ele>
	<time>2023-10-07T08:24:46.000Z</time>
</trkpt>
<trkpt lat="45.9448920" lon="9.5766070">
	<ele>1827.20</ele>
	<time>2023-10-07T08:24:47.000Z</time>
</trkpt>
<trkpt lat="45.9448860" lon="9.5766040">
	<ele>1827.00</ele>
	<time>2023-10-07T08:24:48.000Z</time>
</trkpt>
<trkpt lat="45.9448820" lon="9.5765980">
	<ele>1826.80</ele>
	<time>2023-10-07T08:24:49.000Z</time>
</trkpt>
<trkpt lat="45.9448780" lon="9.5765930">
	<ele>1826.60</ele>
	<time>2023-10-07T08:24:50.000Z</time>
</trkpt>
<trkpt lat="45.9448720" lon="9.5765840">
	<ele>1826.40</ele>
	<time>2023-10-07T08:24:51.000Z</time>
</trkpt>
<trkpt lat="45.9448660" lon="9.5765770">
	<ele>1826.20</ele>
	<time>2023-10-07T08:24:52.000Z</time>
</trkpt>
<trkpt lat="45.9448620" lon="9.5765690">
	<ele>1826.00</ele>
	<time>2023-10-07T08:24:53.000Z</time>
</trkpt>
<trkpt lat="45.9448560" lon="9.5765610">
	<ele>1825.80</ele>
	<time>2023-10-07T08:24:54.000Z</time>
</trkpt>
<trkpt lat="45.9448480" lon="9.5765590">
	<ele>1825.60</ele>
	<time>2023-10-07T08:24:55.000Z</time>
</trkpt>
<trkpt lat="45.9448420" lon="9.5765550">
	<ele>1825.40</ele>
	<time>2023-10-07T08:24:56.000Z</time>
</trkpt>
<trkpt lat="45.9448350" lon="9.5765510">
	<ele>1825.20</ele>
	<time>2023-10-07T08:24:57.000Z</time>
</trkpt>
<trkpt lat="45.9448300" lon="9.5765490">
	<ele>1825.00</ele>
	<time>2023-10-07T08:24:58.000Z</time>
</trkpt>
<trkpt lat="45.9448260" lon="9.5765450">
	<ele>1824.80</ele>
	<time>2023-10-07T08:24:59.000Z</time>
</trkpt>
<trkpt lat="45.9448220" lon="9.5765360">
	<ele>1824.80</ele>
	<time>2023-10-07T08:25:00.000Z</time>
</trkpt>
<trkpt lat="45.9448180" lon="9.5765280">
	<ele>1824.40</ele>
	<time>2023-10-07T08:25:01.000Z</time>
</trkpt>
<trkpt lat="45.9448120" lon="9.5765250">
	<ele>1824.20</ele>
	<time>2023-10-07T08:25:02.000Z</time>
</trkpt>
<trkpt lat="45.9448060" lon="9.5765230">
	<ele>1824.00</ele>
	<time>2023-10-07T08:25:03.000Z</time>
</trkpt>
<trkpt lat="45.9447990" lon="9.5765210">
	<ele>1823.80</ele>
	<time>2023-10-07T08:25:04.000Z</time>
</trkpt>
<trkpt lat="45.9447950" lon="9.5765160">
	<ele>1823.60</ele>
	<time>2023-10-07T08:25:05.000Z</time>
</trkpt>
<trkpt lat="45.9447910" lon="9.5765100">
	<ele>1823.40</ele>
	<time>2023-10-07T08:25:06.000Z</time>
</trkpt>
<trkpt lat="45.9447880" lon="9.5765040">
	<ele>1823.20</ele>
	<time>2023-10-07T08:25:07.000Z</time>
</trkpt>
<trkpt lat="45.9447840" lon="9.5764990">
	<ele>1823.20</ele>
	<time>2023-10-07T08:25:08.000Z</time>
</trkpt>
<trkpt lat="45.9447800" lon="9.5764950">
	<ele>1823.00</ele>
	<time>2023-10-07T08:25:09.000Z</time>
</trkpt>
<trkpt lat="45.9447750" lon="9.5764940">
	<ele>1823.00</ele>
	<time>2023-10-07T08:25:10.000Z</time>
</trkpt>
<trkpt lat="45.9447690" lon="9.5764940">
	<ele>1823.00</ele>
	<time>2023-10-07T08:25:11.000Z</time>
</trkpt>
<trkpt lat="45.9447630" lon="9.5764930">
	<ele>1822.80</ele>
	<time>2023-10-07T08:25:12.000Z</time>
</trkpt>
<trkpt lat="45.9447590" lon="9.5764890">
	<ele>1822.60</ele>
	<time>2023-10-07T08:25:13.000Z</time>
</trkpt>
<trkpt lat="45.9447520" lon="9.5764840">
	<ele>1822.20</ele>
	<time>2023-10-07T08:25:14.000Z</time>
</trkpt>
<trkpt lat="45.9447440" lon="9.5764750">
	<ele>1821.80</ele>
	<time>2023-10-07T08:25:15.000Z</time>
</trkpt>
<trkpt lat="45.9447360" lon="9.5764690">
	<ele>1821.60</ele>
	<time>2023-10-07T08:25:16.000Z</time>
</trkpt>
<trkpt lat="45.9447290" lon="9.5764600">
	<ele>1821.40</ele>
	<time>2023-10-07T08:25:17.000Z</time>
</trkpt>
<trkpt lat="45.9447230" lon="9.5764540">
	<ele>1821.20</ele>
	<time>2023-10-07T08:25:18.000Z</time>
</trkpt>
<trkpt lat="45.9447170" lon="9.5764480">
	<ele>1821.00</ele>
	<time>2023-10-07T08:25:19.000Z</time>
</trkpt>
<trkpt lat="45.9447090" lon="9.5764400">
	<ele>1820.80</ele>
	<time>2023-10-07T08:25:20.000Z</time>
</trkpt>
<trkpt lat="45.9447020" lon="9.5764310">
	<ele>1820.40</ele>
	<time>2023-10-07T08:25:21.000Z</time>
</trkpt>
<trkpt lat="45.9446980" lon="9.5764210">
	<ele>1820.20</ele>
	<time>2023-10-07T08:25:22.000Z</time>
</trkpt>
<trkpt lat="45.9446930" lon="9.5764100">
	<ele>1820.00</ele>
	<time>2023-10-07T08:25:23.000Z</time>
</trkpt>
<trkpt lat="45.9446890" lon="9.5764000">
	<ele>1819.80</ele>
	<time>2023-10-07T08:25:24.000Z</time>
</trkpt>
<trkpt lat="45.9446840" lon="9.5763870">
	<ele>1819.40</ele>
	<time>2023-10-07T08:25:25.000Z</time>
</trkpt>
<trkpt lat="45.9446810" lon="9.5763790">
	<ele>1819.20</ele>
	<time>2023-10-07T08:25:26.000Z</time>
</trkpt>
<trkpt lat="45.9446790" lon="9.5763680">
	<ele>1819.00</ele>
	<time>2023-10-07T08:25:27.000Z</time>
</trkpt>
<trkpt lat="45.9446750" lon="9.5763550">
	<ele>1818.80</ele>
	<time>2023-10-07T08:25:28.000Z</time>
</trkpt>
<trkpt lat="45.9446720" lon="9.5763440">
	<ele>1818.80</ele>
	<time>2023-10-07T08:25:29.000Z</time>
</trkpt>
<trkpt lat="45.9446680" lon="9.5763330">
	<ele>1818.60</ele>
	<time>2023-10-07T08:25:30.000Z</time>
</trkpt>
<trkpt lat="45.9446610" lon="9.5763290">
	<ele>1818.40</ele>
	<time>2023-10-07T08:25:31.000Z</time>
</trkpt>
<trkpt lat="45.9446580" lon="9.5763230">
	<ele>1818.20</ele>
	<time>2023-10-07T08:25:32.000Z</time>
</trkpt>
<trkpt lat="45.9446520" lon="9.5763170">
	<ele>1818.00</ele>
	<time>2023-10-07T08:25:33.000Z</time>
</trkpt>
<trkpt lat="45.9446460" lon="9.5763100">
	<ele>1817.80</ele>
	<time>2023-10-07T08:25:34.000Z</time>
</trkpt>
<trkpt lat="45.9446410" lon="9.5763040">
	<ele>1817.40</ele>
	<time>2023-10-07T08:25:35.000Z</time>
</trkpt>
<trkpt lat="45.9446360" lon="9.5762950">
	<ele>1817.20</ele>
	<time>2023-10-07T08:25:36.000Z</time>
</trkpt>
<trkpt lat="45.9446300" lon="9.5762850">
	<ele>1817.00</ele>
	<time>2023-10-07T08:25:37.000Z</time>
</trkpt>
<trkpt lat="45.9446220" lon="9.5762780">
	<ele>1816.80</ele>
	<time>2023-10-07T08:25:38.000Z</time>
</trkpt>
<trkpt lat="45.9446140" lon="9.5762710">
	<ele>1816.60</ele>
	<time>2023-10-07T08:25:39.000Z</time>
</trkpt>
<trkpt lat="45.9446090" lon="9.5762670">
	<ele>1816.40</ele>
	<time>2023-10-07T08:25:40.000Z</time>
</trkpt>
<trkpt lat="45.9446060" lon="9.5762640">
	<ele>1816.20</ele>
	<time>2023-10-07T08:25:41.000Z</time>
</trkpt>
<trkpt lat="45.9446020" lon="9.5762590">
	<ele>1816.00</ele>
	<time>2023-10-07T08:25:42.000Z</time>
</trkpt>
<trkpt lat="45.9445960" lon="9.5762520">
	<ele>1816.00</ele>
	<time>2023-10-07T08:25:43.000Z</time>
</trkpt>
<trkpt lat="45.9445910" lon="9.5762430">
	<ele>1815.80</ele>
	<time>2023-10-07T08:25:44.000Z</time>
</trkpt>
<trkpt lat="45.9445880" lon="9.5762340">
	<ele>1815.60</ele>
	<time>2023-10-07T08:25:45.000Z</time>
</trkpt>
<trkpt lat="45.9445870" lon="9.5762230">
	<ele>1815.40</ele>
	<time>2023-10-07T08:25:46.000Z</time>
</trkpt>
<trkpt lat="45.9445860" lon="9.5762130">
	<ele>1815.20</ele>
	<time>2023-10-07T08:25:47.000Z</time>
</trkpt>
<trkpt lat="45.9445860" lon="9.5762060">
	<ele>1814.80</ele>
	<time>2023-10-07T08:25:48.000Z</time>
</trkpt>
<trkpt lat="45.9445820" lon="9.5761970">
	<ele>1814.60</ele>
	<time>2023-10-07T08:25:49.000Z</time>
</trkpt>
<trkpt lat="45.9445750" lon="9.5761860">
	<ele>1814.40</ele>
	<time>2023-10-07T08:25:50.000Z</time>
</trkpt>
<trkpt lat="45.9445680" lon="9.5761790">
	<ele>1814.20</ele>
	<time>2023-10-07T08:25:51.000Z</time>
</trkpt>
<trkpt lat="45.9445610" lon="9.5761740">
	<ele>1814.00</ele>
	<time>2023-10-07T08:25:52.000Z</time>
</trkpt>
<trkpt lat="45.9445550" lon="9.5761660">
	<ele>1813.80</ele>
	<time>2023-10-07T08:25:53.000Z</time>
</trkpt>
<trkpt lat="45.9445500" lon="9.5761580">
	<ele>1813.60</ele>
	<time>2023-10-07T08:25:54.000Z</time>
</trkpt>
<trkpt lat="45.9445450" lon="9.5761490">
	<ele>1813.20</ele>
	<time>2023-10-07T08:25:55.000Z</time>
</trkpt>
<trkpt lat="45.9445380" lon="9.5761380">
	<ele>1813.20</ele>
	<time>2023-10-07T08:25:56.000Z</time>
</trkpt>
<trkpt lat="45.9445320" lon="9.5761280">
	<ele>1813.00</ele>
	<time>2023-10-07T08:25:57.000Z</time>
</trkpt>
<trkpt lat="45.9445270" lon="9.5761200">
	<ele>1812.60</ele>
	<time>2023-10-07T08:25:58.000Z</time>
</trkpt>
<trkpt lat="45.9445230" lon="9.5761070">
	<ele>1812.60</ele>
	<time>2023-10-07T08:25:59.000Z</time>
</trkpt>
<trkpt lat="45.9445180" lon="9.5760920">
	<ele>1812.40</ele>
	<time>2023-10-07T08:26:00.000Z</time>
</trkpt>
<trkpt lat="45.9445150" lon="9.5760790">
	<ele>1812.20</ele>
	<time>2023-10-07T08:26:01.000Z</time>
</trkpt>
<trkpt lat="45.9445140" lon="9.5760710">
	<ele>1812.00</ele>
	<time>2023-10-07T08:26:02.000Z</time>
</trkpt>
<trkpt lat="45.9445110" lon="9.5760620">
	<ele>1812.00</ele>
	<time>2023-10-07T08:26:03.000Z</time>
</trkpt>
<trkpt lat="45.9445030" lon="9.5760550">
	<ele>1811.80</ele>
	<time>2023-10-07T08:26:04.000Z</time>
</trkpt>
<trkpt lat="45.9444960" lon="9.5760480">
	<ele>1811.60</ele>
	<time>2023-10-07T08:26:05.000Z</time>
</trkpt>
<trkpt lat="45.9444910" lon="9.5760380">
	<ele>1811.20</ele>
	<time>2023-10-07T08:26:06.000Z</time>
</trkpt>
<trkpt lat="45.9444840" lon="9.5760280">
	<ele>1811.20</ele>
	<time>2023-10-07T08:26:07.000Z</time>
</trkpt>
<trkpt lat="45.9444810" lon="9.5760140">
	<ele>1811.00</ele>
	<time>2023-10-07T08:26:08.000Z</time>
</trkpt>
<trkpt lat="45.9444770" lon="9.5760000">
	<ele>1810.80</ele>
	<time>2023-10-07T08:26:09.000Z</time>
</trkpt>
<trkpt lat="45.9444730" lon="9.5759900">
	<ele>1810.60</ele>
	<time>2023-10-07T08:26:10.000Z</time>
</trkpt>
<trkpt lat="45.9444680" lon="9.5759790">
	<ele>1810.40</ele>
	<time>2023-10-07T08:26:11.000Z</time>
</trkpt>
<trkpt lat="45.9444620" lon="9.5759690">
	<ele>1810.40</ele>
	<time>2023-10-07T08:26:12.000Z</time>
</trkpt>
<trkpt lat="45.9444570" lon="9.5759580">
	<ele>1810.20</ele>
	<time>2023-10-07T08:26:13.000Z</time>
</trkpt>
<trkpt lat="45.9444530" lon="9.5759460">
	<ele>1810.00</ele>
	<time>2023-10-07T08:26:14.000Z</time>
</trkpt>
<trkpt lat="45.9444480" lon="9.5759340">
	<ele>1809.80</ele>
	<time>2023-10-07T08:26:15.000Z</time>
</trkpt>
<trkpt lat="45.9444450" lon="9.5759170">
	<ele>1809.60</ele>
	<time>2023-10-07T08:26:16.000Z</time>
</trkpt>
<trkpt lat="45.9444430" lon="9.5759060">
	<ele>1809.40</ele>
	<time>2023-10-07T08:26:17.000Z</time>
</trkpt>
<trkpt lat="45.9444370" lon="9.5758950">
	<ele>1809.20</ele>
	<time>2023-10-07T08:26:18.000Z</time>
</trkpt>
<trkpt lat="45.9444320" lon="9.5758810">
	<ele>1809.20</ele>
	<time>2023-10-07T08:26:19.000Z</time>
</trkpt>
<trkpt lat="45.9444280" lon="9.5758670">
	<ele>1809.00</ele>
	<time>2023-10-07T08:26:20.000Z</time>
</trkpt>
<trkpt lat="45.9444220" lon="9.5758560">
	<ele>1808.80</ele>
	<time>2023-10-07T08:26:21.000Z</time>
</trkpt>
<trkpt lat="45.9444200" lon="9.5758390">
	<ele>1808.80</ele>
	<time>2023-10-07T08:26:22.000Z</time>
</trkpt>
<trkpt lat="45.9444170" lon="9.5758250">
	<ele>1808.60</ele>
	<time>2023-10-07T08:26:23.000Z</time>
</trkpt>
<trkpt lat="45.9444120" lon="9.5758120">
	<ele>1808.40</ele>
	<time>2023-10-07T08:26:24.000Z</time>
</trkpt>
<trkpt lat="45.9444110" lon="9.5757980">
	<ele>1808.20</ele>
	<time>2023-10-07T08:26:25.000Z</time>
</trkpt>
<trkpt lat="45.9444090" lon="9.5757820">
	<ele>1808.20</ele>
	<time>2023-10-07T08:26:26.000Z</time>
</trkpt>
<trkpt lat="45.9444060" lon="9.5757680">
	<ele>1808.00</ele>
	<time>2023-10-07T08:26:27.000Z</time>
</trkpt>
<trkpt lat="45.9444040" lon="9.5757550">
	<ele>1807.80</ele>
	<time>2023-10-07T08:26:28.000Z</time>
</trkpt>
<trkpt lat="45.9444010" lon="9.5757450">
	<ele>1807.80</ele>
	<time>2023-10-07T08:26:29.000Z</time>
</trkpt>
<trkpt lat="45.9443960" lon="9.5757350">
	<ele>1807.60</ele>
	<time>2023-10-07T08:26:30.000Z</time>
</trkpt>
<trkpt lat="45.9443920" lon="9.5757230">
	<ele>1807.40</ele>
	<time>2023-10-07T08:26:31.000Z</time>
</trkpt>
<trkpt lat="45.9443900" lon="9.5757110">
	<ele>1807.40</ele>
	<time>2023-10-07T08:26:32.000Z</time>
</trkpt>
<trkpt lat="45.9443880" lon="9.5756950">
	<ele>1807.20</ele>
	<time>2023-10-07T08:26:33.000Z</time>
</trkpt>
<trkpt lat="45.9443880" lon="9.5756800">
	<ele>1807.20</ele>
	<time>2023-10-07T08:26:34.000Z</time>
</trkpt>
<trkpt lat="45.9443860" lon="9.5756610">
	<ele>1807.20</ele>
	<time>2023-10-07T08:26:35.000Z</time>
</trkpt>
<trkpt lat="45.9443820" lon="9.5756410">
	<ele>1807.20</ele>
	<time>2023-10-07T08:26:36.000Z</time>
</trkpt>
<trkpt lat="45.9443810" lon="9.5756250">
	<ele>1807.00</ele>
	<time>2023-10-07T08:26:37.000Z</time>
</trkpt>
<trkpt lat="45.9443790" lon="9.5756160">
	<ele>1807.00</ele>
	<time>2023-10-07T08:26:38.000Z</time>
</trkpt>
<trkpt lat="45.9443770" lon="9.5756100">
	<ele>1807.20</ele>
	<time>2023-10-07T08:26:39.000Z</time>
</trkpt>
<trkpt lat="45.9443760" lon="9.5755980">
	<ele>1807.20</ele>
	<time>2023-10-07T08:26:40.000Z</time>
</trkpt>
<trkpt lat="45.9443750" lon="9.5755850">
	<ele>1807.20</ele>
	<time>2023-10-07T08:26:41.000Z</time>
</trkpt>
<trkpt lat="45.9443760" lon="9.5755740">
	<ele>1807.40</ele>
	<time>2023-10-07T08:26:42.000Z</time>
</trkpt>
<trkpt lat="45.9443760" lon="9.5755640">
	<ele>1807.40</ele>
	<time>2023-10-07T08:26:43.000Z</time>
</trkpt>
<trkpt lat="45.9443740" lon="9.5755540">
	<ele>1807.40</ele>
	<time>2023-10-07T08:26:44.000Z</time>
</trkpt>
<trkpt lat="45.9443720" lon="9.5755410">
	<ele>1807.60</ele>
	<time>2023-10-07T08:26:45.000Z</time>
</trkpt>
<trkpt lat="45.9443690" lon="9.5755310">
	<ele>1807.60</ele>
	<time>2023-10-07T08:26:46.000Z</time>
</trkpt>
<trkpt lat="45.9443650" lon="9.5755170">
	<ele>1807.80</ele>
	<time>2023-10-07T08:26:47.000Z</time>
</trkpt>
<trkpt lat="45.9443630" lon="9.5755070">
	<ele>1807.80</ele>
	<time>2023-10-07T08:26:48.000Z</time>
</trkpt>
<trkpt lat="45.9443620" lon="9.5754940">
	<ele>1807.80</ele>
	<time>2023-10-07T08:26:49.000Z</time>
</trkpt>
<trkpt lat="45.9443620" lon="9.5754810">
	<ele>1807.80</ele>
	<time>2023-10-07T08:26:50.000Z</time>
</trkpt>
<trkpt lat="45.9443610" lon="9.5754670">
	<ele>1807.80</ele>
	<time>2023-10-07T08:26:51.000Z</time>
</trkpt>
<trkpt lat="45.9443600" lon="9.5754600">
	<ele>1807.80</ele>
	<time>2023-10-07T08:26:52.000Z</time>
</trkpt>
<trkpt lat="45.9443590" lon="9.5754520">
	<ele>1807.80</ele>
	<time>2023-10-07T08:26:53.000Z</time>
</trkpt>
<trkpt lat="45.9443600" lon="9.5754440">
	<ele>1807.80</ele>
	<time>2023-10-07T08:26:54.000Z</time>
</trkpt>
<trkpt lat="45.9443600" lon="9.5754330">
	<ele>1807.80</ele>
	<time>2023-10-07T08:26:55.000Z</time>
</trkpt>
<trkpt lat="45.9443590" lon="9.5754220">
	<ele>1807.80</ele>
	<time>2023-10-07T08:26:56.000Z</time>
</trkpt>
<trkpt lat="45.9443580" lon="9.5754100">
	<ele>1807.80</ele>
	<time>2023-10-07T08:26:57.000Z</time>
</trkpt>
<trkpt lat="45.9443540" lon="9.5753970">
	<ele>1807.80</ele>
	<time>2023-10-07T08:26:58.000Z</time>
</trkpt>
<trkpt lat="45.9443530" lon="9.5753800">
	<ele>1807.80</ele>
	<time>2023-10-07T08:26:59.000Z</time>
</trkpt>
<trkpt lat="45.9443520" lon="9.5753690">
	<ele>1807.60</ele>
	<time>2023-10-07T08:27:00.000Z</time>
</trkpt>
<trkpt lat="45.9443490" lon="9.5753580">
	<ele>1807.40</ele>
	<time>2023-10-07T08:27:01.000Z</time>
</trkpt>
<trkpt lat="45.9443430" lon="9.5753470">
	<ele>1807.20</ele>
	<time>2023-10-07T08:27:02.000Z</time>
</trkpt>
<trkpt lat="45.9443380" lon="9.5753380">
	<ele>1807.00</ele>
	<time>2023-10-07T08:27:03.000Z</time>
</trkpt>
<trkpt lat="45.9443340" lon="9.5753270">
	<ele>1806.80</ele>
	<time>2023-10-07T08:27:04.000Z</time>
</trkpt>
<trkpt lat="45.9443310" lon="9.5753180">
	<ele>1806.60</ele>
	<time>2023-10-07T08:27:05.000Z</time>
</trkpt>
<trkpt lat="45.9443280" lon="9.5753090">
	<ele>1806.60</ele>
	<time>2023-10-07T08:27:06.000Z</time>
</trkpt>
<trkpt lat="45.9443270" lon="9.5753000">
	<ele>1806.40</ele>
	<time>2023-10-07T08:27:07.000Z</time>
</trkpt>
<trkpt lat="45.9443240" lon="9.5752890">
	<ele>1806.20</ele>
	<time>2023-10-07T08:27:08.000Z</time>
</trkpt>
<trkpt lat="45.9443220" lon="9.5752770">
	<ele>1806.00</ele>
	<time>2023-10-07T08:27:09.000Z</time>
</trkpt>
<trkpt lat="45.9443190" lon="9.5752650">
	<ele>1805.80</ele>
	<time>2023-10-07T08:27:10.000Z</time>
</trkpt>
<trkpt lat="45.9443160" lon="9.5752510">
	<ele>1805.60</ele>
	<time>2023-10-07T08:27:11.000Z</time>
</trkpt>
<trkpt lat="45.9443120" lon="9.5752370">
	<ele>1805.40</ele>
	<time>2023-10-07T08:27:12.000Z</time>
</trkpt>
<trkpt lat="45.9443080" lon="9.5752210">
	<ele>1805.20</ele>
	<time>2023-10-07T08:27:13.000Z</time>
</trkpt>
<trkpt lat="45.9443080" lon="9.5752050">
	<ele>1805.20</ele>
	<time>2023-10-07T08:27:14.000Z</time>
</trkpt>
<trkpt lat="45.9443060" lon="9.5751890">
	<ele>1805.00</ele>
	<time>2023-10-07T08:27:15.000Z</time>
</trkpt>
<trkpt lat="45.9443060" lon="9.5751750">
	<ele>1805.00</ele>
	<time>2023-10-07T08:27:16.000Z</time>
</trkpt>
<trkpt lat="45.9443050" lon="9.5751610">
	<ele>1804.80</ele>
	<time>2023-10-07T08:27:17.000Z</time>
</trkpt>
<trkpt lat="45.9443020" lon="9.5751520">
	<ele>1804.80</ele>
	<time>2023-10-07T08:27:18.000Z</time>
</trkpt>
<trkpt lat="45.9443000" lon="9.5751350">
	<ele>1804.60</ele>
	<time>2023-10-07T08:27:19.000Z</time>
</trkpt>
<trkpt lat="45.9442990" lon="9.5751220">
	<ele>1804.40</ele>
	<time>2023-10-07T08:27:20.000Z</time>
</trkpt>
<trkpt lat="45.9442970" lon="9.5751050">
	<ele>1804.40</ele>
	<time>2023-10-07T08:27:21.000Z</time>
</trkpt>
<trkpt lat="45.9442930" lon="9.5750870">
	<ele>1804.20</ele>
	<time>2023-10-07T08:27:22.000Z</time>
</trkpt>
<trkpt lat="45.9442890" lon="9.5750730">
	<ele>1804.20</ele>
	<time>2023-10-07T08:27:23.000Z</time>
</trkpt>
<trkpt lat="45.9442860" lon="9.5750640">
	<ele>1804.20</ele>
	<time>2023-10-07T08:27:24.000Z</time>
</trkpt>
<trkpt lat="45.9442810" lon="9.5750510">
	<ele>1804.20</ele>
	<time>2023-10-07T08:27:25.000Z</time>
</trkpt>
<trkpt lat="45.9442790" lon="9.5750400">
	<ele>1804.20</ele>
	<time>2023-10-07T08:27:26.000Z</time>
</trkpt>
<trkpt lat="45.9442760" lon="9.5750260">
	<ele>1804.20</ele>
	<time>2023-10-07T08:27:27.000Z</time>
</trkpt>
<trkpt lat="45.9442730" lon="9.5750150">
	<ele>1804.20</ele>
	<time>2023-10-07T08:27:28.000Z</time>
</trkpt>
<trkpt lat="45.9442690" lon="9.5750020">
	<ele>1804.20</ele>
	<time>2023-10-07T08:27:29.000Z</time>
</trkpt>
<trkpt lat="45.9442660" lon="9.5749910">
	<ele>1804.20</ele>
	<time>2023-10-07T08:27:30.000Z</time>
</trkpt>
<trkpt lat="45.9442640" lon="9.5749800">
	<ele>1804.20</ele>
	<time>2023-10-07T08:27:31.000Z</time>
</trkpt>
<trkpt lat="45.9442600" lon="9.5749670">
	<ele>1804.00</ele>
	<time>2023-10-07T08:27:32.000Z</time>
</trkpt>
<trkpt lat="45.9442580" lon="9.5749520">
	<ele>1804.00</ele>
	<time>2023-10-07T08:27:33.000Z</time>
</trkpt>
<trkpt lat="45.9442540" lon="9.5749370">
	<ele>1804.00</ele>
	<time>2023-10-07T08:27:34.000Z</time>
</trkpt>
<trkpt lat="45.9442520" lon="9.5749240">
	<ele>1803.80</ele>
	<time>2023-10-07T08:27:35.000Z</time>
</trkpt>
<trkpt lat="45.9442520" lon="9.5749090">
	<ele>1803.60</ele>
	<time>2023-10-07T08:27:36.000Z</time>
</trkpt>
<trkpt lat="45.9442500" lon="9.5748920">
	<ele>1803.40</ele>
	<time>2023-10-07T08:27:37.000Z</time>
</trkpt>
<trkpt lat="45.9442500" lon="9.5748810">
	<ele>1803.20</ele>
	<time>2023-10-07T08:27:38.000Z</time>
</trkpt>
<trkpt lat="45.9442530" lon="9.5748640">
	<ele>1803.20</ele>
	<time>2023-10-07T08:27:39.000Z</time>
</trkpt>
<trkpt lat="45.9442530" lon="9.5748490">
	<ele>1803.20</ele>
	<time>2023-10-07T08:27:40.000Z</time>
</trkpt>
<trkpt lat="45.9442540" lon="9.5748380">
	<ele>1803.20</ele>
	<time>2023-10-07T08:27:41.000Z</time>
</trkpt>
<trkpt lat="45.9442550" lon="9.5748350">
	<ele>1803.20</ele>
	<time>2023-10-07T08:27:42.000Z</time>
</trkpt>
<trkpt lat="45.9442550" lon="9.5748320">
	<ele>1803.20</ele>
	<time>2023-10-07T08:27:43.000Z</time>
</trkpt>
<trkpt lat="45.9442550" lon="9.5748300">
	<ele>1803.20</ele>
	<time>2023-10-07T08:27:44.000Z</time>
</trkpt>
<trkpt lat="45.9442550" lon="9.5748290">
	<ele>1803.20</ele>
	<time>2023-10-07T08:27:45.000Z</time>
</trkpt>
<trkpt lat="45.9442520" lon="9.5748280">
	<ele>1803.20</ele>
	<time>2023-10-07T08:27:46.000Z</time>
</trkpt>
<trkpt lat="45.9442520" lon="9.5748270">
	<ele>1803.20</ele>
	<time>2023-10-07T08:27:47.000Z</time>
</trkpt>
<trkpt lat="45.9442500" lon="9.5748160">
	<ele>1803.20</ele>
	<time>2023-10-07T08:27:48.000Z</time>
</trkpt>
<trkpt lat="45.9442480" lon="9.5747990">
	<ele>1803.20</ele>
	<time>2023-10-07T08:27:49.000Z</time>
</trkpt>
<trkpt lat="45.9442460" lon="9.5747800">
	<ele>1803.20</ele>
	<time>2023-10-07T08:27:50.000Z</time>
</trkpt>
<trkpt lat="45.9442470" lon="9.5747680">
	<ele>1803.00</ele>
	<time>2023-10-07T08:27:51.000Z</time>
</trkpt>
<trkpt lat="45.9442470" lon="9.5747560">
	<ele>1803.00</ele>
	<time>2023-10-07T08:27:52.000Z</time>
</trkpt>
<trkpt lat="45.9442460" lon="9.5747460">
	<ele>1803.00</ele>
	<time>2023-10-07T08:27:53.000Z</time>
</trkpt>
<trkpt lat="45.9442450" lon="9.5747370">
	<ele>1802.80</ele>
	<time>2023-10-07T08:27:54.000Z</time>
</trkpt>
<trkpt lat="45.9442430" lon="9.5747340">
	<ele>1802.80</ele>
	<time>2023-10-07T08:27:55.000Z</time>
</trkpt>
<trkpt lat="45.9442400" lon="9.5747320">
	<ele>1802.80</ele>
	<time>2023-10-07T08:27:56.000Z</time>
</trkpt>
<trkpt lat="45.9442360" lon="9.5747320">
	<ele>1802.60</ele>
	<time>2023-10-07T08:27:57.000Z</time>
</trkpt>
<trkpt lat="45.9442320" lon="9.5747330">
	<ele>1802.40</ele>
	<time>2023-10-07T08:27:58.000Z</time>
</trkpt>
<trkpt lat="45.9442270" lon="9.5747370">
	<ele>1802.40</ele>
	<time>2023-10-07T08:27:59.000Z</time>
</trkpt>
<trkpt lat="45.9442220" lon="9.5747420">
	<ele>1802.20</ele>
	<time>2023-10-07T08:28:00.000Z</time>
</trkpt>
<trkpt lat="45.9442190" lon="9.5747510">
	<ele>1802.00</ele>
	<time>2023-10-07T08:28:01.000Z</time>
</trkpt>
<trkpt lat="45.9442150" lon="9.5747590">
	<ele>1801.80</ele>
	<time>2023-10-07T08:28:02.000Z</time>
</trkpt>
<trkpt lat="45.9442110" lon="9.5747670">
	<ele>1801.60</ele>
	<time>2023-10-07T08:28:03.000Z</time>
</trkpt>
<trkpt lat="45.9442070" lon="9.5747750">
	<ele>1801.40</ele>
	<time>2023-10-07T08:28:04.000Z</time>
</trkpt>
<trkpt lat="45.9442030" lon="9.5747810">
	<ele>1801.20</ele>
	<time>2023-10-07T08:28:05.000Z</time>
</trkpt>
<trkpt lat="45.9441940" lon="9.5747890">
	<ele>1801.00</ele>
	<time>2023-10-07T08:28:06.000Z</time>
</trkpt>
<trkpt lat="45.9441890" lon="9.5747940">
	<ele>1800.80</ele>
	<time>2023-10-07T08:28:07.000Z</time>
</trkpt>
<trkpt lat="45.9441840" lon="9.5747990">
	<ele>1800.60</ele>
	<time>2023-10-07T08:28:08.000Z</time>
</trkpt>
<trkpt lat="45.9441790" lon="9.5748030">
	<ele>1800.60</ele>
	<time>2023-10-07T08:28:09.000Z</time>
</trkpt>
<trkpt lat="45.9441730" lon="9.5748080">
	<ele>1800.20</ele>
	<time>2023-10-07T08:28:10.000Z</time>
</trkpt>
<trkpt lat="45.9441680" lon="9.5748150">
	<ele>1799.80</ele>
	<time>2023-10-07T08:28:11.000Z</time>
</trkpt>
<trkpt lat="45.9441630" lon="9.5748230">
	<ele>1799.60</ele>
	<time>2023-10-07T08:28:12.000Z</time>
</trkpt>
<trkpt lat="45.9441570" lon="9.5748310">
	<ele>1799.40</ele>
	<time>2023-10-07T08:28:13.000Z</time>
</trkpt>
<trkpt lat="45.9441510" lon="9.5748390">
	<ele>1799.20</ele>
	<time>2023-10-07T08:28:14.000Z</time>
</trkpt>
<trkpt lat="45.9441430" lon="9.5748450">
	<ele>1799.00</ele>
	<time>2023-10-07T08:28:15.000Z</time>
</trkpt>
<trkpt lat="45.9441360" lon="9.5748490">
	<ele>1798.80</ele>
	<time>2023-10-07T08:28:16.000Z</time>
</trkpt>
<trkpt lat="45.9441280" lon="9.5748520">
	<ele>1798.80</ele>
	<time>2023-10-07T08:28:17.000Z</time>
</trkpt>
<trkpt lat="45.9441220" lon="9.5748540">
	<ele>1798.40</ele>
	<time>2023-10-07T08:28:18.000Z</time>
</trkpt>
<trkpt lat="45.9441140" lon="9.5748590">
	<ele>1798.20</ele>
	<time>2023-10-07T08:28:19.000Z</time>
</trkpt>
<trkpt lat="45.9441110" lon="9.5748670">
	<ele>1798.00</ele>
	<time>2023-10-07T08:28:20.000Z</time>
</trkpt>
<trkpt lat="45.9441070" lon="9.5748740">
	<ele>1797.60</ele>
	<time>2023-10-07T08:28:21.000Z</time>
</trkpt>
<trkpt lat="45.9441020" lon="9.5748820">
	<ele>1797.40</ele>
	<time>2023-10-07T08:28:22.000Z</time>
</trkpt>
<trkpt lat="45.9440970" lon="9.5748900">
	<ele>1797.20</ele>
	<time>2023-10-07T08:28:23.000Z</time>
</trkpt>
<trkpt lat="45.9440900" lon="9.5748980">
	<ele>1796.80</ele>
	<time>2023-10-07T08:28:24.000Z</time>
</trkpt>
<trkpt lat="45.9440830" lon="9.5749040">
	<ele>1796.60</ele>
	<time>2023-10-07T08:28:25.000Z</time>
</trkpt>
<trkpt lat="45.9440770" lon="9.5749080">
	<ele>1796.40</ele>
	<time>2023-10-07T08:28:26.000Z</time>
</trkpt>
<trkpt lat="45.9440700" lon="9.5749130">
	<ele>1796.00</ele>
	<time>2023-10-07T08:28:27.000Z</time>
</trkpt>
<trkpt lat="45.9440610" lon="9.5749180">
	<ele>1795.80</ele>
	<time>2023-10-07T08:28:28.000Z</time>
</trkpt>
<trkpt lat="45.9440550" lon="9.5749260">
	<ele>1795.60</ele>
	<time>2023-10-07T08:28:29.000Z</time>
</trkpt>
<trkpt lat="45.9440480" lon="9.5749330">
	<ele>1795.40</ele>
	<time>2023-10-07T08:28:30.000Z</time>
</trkpt>
<trkpt lat="45.9440430" lon="9.5749430">
	<ele>1795.00</ele>
	<time>2023-10-07T08:28:31.000Z</time>
</trkpt>
<trkpt lat="45.9440380" lon="9.5749510">
	<ele>1795.00</ele>
	<time>2023-10-07T08:28:32.000Z</time>
</trkpt>
<trkpt lat="45.9440330" lon="9.5749570">
	<ele>1794.60</ele>
	<time>2023-10-07T08:28:33.000Z</time>
</trkpt>
<trkpt lat="45.9440250" lon="9.5749630">
	<ele>1794.20</ele>
	<time>2023-10-07T08:28:34.000Z</time>
</trkpt>
<trkpt lat="45.9440210" lon="9.5749660">
	<ele>1793.80</ele>
	<time>2023-10-07T08:28:35.000Z</time>
</trkpt>
<trkpt lat="45.9440170" lon="9.5749690">
	<ele>1793.60</ele>
	<time>2023-10-07T08:28:36.000Z</time>
</trkpt>
<trkpt lat="45.9440130" lon="9.5749720">
	<ele>1793.40</ele>
	<time>2023-10-07T08:28:37.000Z</time>
</trkpt>
<trkpt lat="45.9440040" lon="9.5749760">
	<ele>1793.20</ele>
	<time>2023-10-07T08:28:38.000Z</time>
</trkpt>
<trkpt lat="45.9439970" lon="9.5749770">
	<ele>1793.00</ele>
	<time>2023-10-07T08:28:39.000Z</time>
</trkpt>
<trkpt lat="45.9439940" lon="9.5749760">
	<ele>1792.60</ele>
	<time>2023-10-07T08:28:40.000Z</time>
</trkpt>
<trkpt lat="45.9439890" lon="9.5749730">
	<ele>1792.40</ele>
	<time>2023-10-07T08:28:41.000Z</time>
</trkpt>
<trkpt lat="45.9439840" lon="9.5749730">
	<ele>1792.20</ele>
	<time>2023-10-07T08:28:42.000Z</time>
</trkpt>
<trkpt lat="45.9439800" lon="9.5749770">
	<ele>1792.00</ele>
	<time>2023-10-07T08:28:43.000Z</time>
</trkpt>
<trkpt lat="45.9439760" lon="9.5749800">
	<ele>1791.80</ele>
	<time>2023-10-07T08:28:44.000Z</time>
</trkpt>
<trkpt lat="45.9439710" lon="9.5749820">
	<ele>1791.60</ele>
	<time>2023-10-07T08:28:45.000Z</time>
</trkpt>
<trkpt lat="45.9439660" lon="9.5749850">
	<ele>1791.40</ele>
	<time>2023-10-07T08:28:46.000Z</time>
</trkpt>
<trkpt lat="45.9439580" lon="9.5749850">
	<ele>1791.00</ele>
	<time>2023-10-07T08:28:47.000Z</time>
</trkpt>
<trkpt lat="45.9439540" lon="9.5749860">
	<ele>1790.60</ele>
	<time>2023-10-07T08:28:48.000Z</time>
</trkpt>
<trkpt lat="45.9439520" lon="9.5749890">
	<ele>1790.40</ele>
	<time>2023-10-07T08:28:49.000Z</time>
</trkpt>
<trkpt lat="45.9439520" lon="9.5749920">
	<ele>1790.00</ele>
	<time>2023-10-07T08:28:50.000Z</time>
</trkpt>
<trkpt lat="45.9439510" lon="9.5749920">
	<ele>1789.80</ele>
	<time>2023-10-07T08:28:51.000Z</time>
</trkpt>
<trkpt lat="45.9439500" lon="9.5749910">
	<ele>1789.60</ele>
	<time>2023-10-07T08:28:52.000Z</time>
</trkpt>
<trkpt lat="45.9439510" lon="9.5749910">
	<ele>1789.60</ele>
	<time>2023-10-07T08:28:53.000Z</time>
</trkpt>
<trkpt lat="45.9439510" lon="9.5749910">
	<ele>1789.80</ele>
	<time>2023-10-07T08:28:54.000Z</time>
</trkpt>
<trkpt lat="45.9439520" lon="9.5749910">
	<ele>1789.80</ele>
	<time>2023-10-07T08:28:55.000Z</time>
</trkpt>
<trkpt lat="45.9439510" lon="9.5749920">
	<ele>1790.00</ele>
	<time>2023-10-07T08:28:56.000Z</time>
</trkpt>
<trkpt lat="45.9439510" lon="9.5749920">
	<ele>1790.20</ele>
	<time>2023-10-07T08:28:57.000Z</time>
</trkpt>
<trkpt lat="45.9439510" lon="9.5749920">
	<ele>1790.40</ele>
	<time>2023-10-07T08:28:58.000Z</time>
</trkpt>
<trkpt lat="45.9439510" lon="9.5749920">
	<ele>1790.60</ele>
	<time>2023-10-07T08:28:59.000Z</time>
</trkpt>
<trkpt lat="45.9439510" lon="9.5749920">
	<ele>1790.60</ele>
	<time>2023-10-07T08:29:00.000Z</time>
</trkpt>
<trkpt lat="45.9439510" lon="9.5749920">
	<ele>1790.80</ele>
	<time>2023-10-07T08:29:01.000Z</time>
</trkpt>
<trkpt lat="45.9439510" lon="9.5749920">
	<ele>1790.80</ele>
	<time>2023-10-07T08:29:02.000Z</time>
</trkpt>
<trkpt lat="45.9439510" lon="9.5749920">
	<ele>1790.80</ele>
	<time>2023-10-07T08:29:03.000Z</time>
</trkpt>
<trkpt lat="45.9439510" lon="9.5749920">
	<ele>1790.80</ele>
	<time>2023-10-07T08:29:04.000Z</time>
</trkpt>
<trkpt lat="45.9439510" lon="9.5749920">
	<ele>1790.80</ele>
	<time>2023-10-07T08:29:05.000Z</time>
</trkpt>
<trkpt lat="45.9439510" lon="9.5749920">
	<ele>1790.40</ele>
	<time>2023-10-07T08:29:06.000Z</time>
</trkpt>
<trkpt lat="45.9439510" lon="9.5749920">
	<ele>1790.00</ele>
	<time>2023-10-07T08:29:07.000Z</time>
</trkpt>
<trkpt lat="45.9439510" lon="9.5749920">
	<ele>1789.60</ele>
	<time>2023-10-07T08:29:08.000Z</time>
</trkpt>
<trkpt lat="45.9439510" lon="9.5749920">
	<ele>1789.40</ele>
	<time>2023-10-07T08:29:09.000Z</time>
</trkpt>
<trkpt lat="45.9439510" lon="9.5749920">
	<ele>1789.20</ele>
	<time>2023-10-07T08:29:10.000Z</time>
</trkpt>
<trkpt lat="45.9439510" lon="9.5749920">
	<ele>1789.00</ele>
	<time>2023-10-07T08:29:11.000Z</time>
</trkpt>
<trkpt lat="45.9439510" lon="9.5749920">
	<ele>1788.80</ele>
	<time>2023-10-07T08:29:12.000Z</time>
</trkpt>
<trkpt lat="45.9439510" lon="9.5749920">
	<ele>1788.60</ele>
	<time>2023-10-07T08:29:13.000Z</time>
</trkpt>
<trkpt lat="45.9439510" lon="9.5749920">
	<ele>1788.60</ele>
	<time>2023-10-07T08:29:14.000Z</time>
</trkpt>
<trkpt lat="45.9439510" lon="9.5749920">
	<ele>1788.40</ele>
	<time>2023-10-07T08:29:15.000Z</time>
</trkpt>
<trkpt lat="45.9439510" lon="9.5749920">
	<ele>1788.20</ele>
	<time>2023-10-07T08:29:16.000Z</time>
</trkpt>
<trkpt lat="45.9439510" lon="9.5749920">
	<ele>1788.00</ele>
	<time>2023-10-07T08:29:17.000Z</time>
</trkpt>
<trkpt lat="45.9439510" lon="9.5749920">
	<ele>1787.60</ele>
	<time>2023-10-07T08:29:18.000Z</time>
</trkpt>
<trkpt lat="45.9439510" lon="9.5749920">
	<ele>1787.40</ele>
	<time>2023-10-07T08:29:19.000Z</time>
</trkpt>
<trkpt lat="45.9439500" lon="9.5749920">
	<ele>1787.20</ele>
	<time>2023-10-07T08:29:20.000Z</time>
</trkpt>
<trkpt lat="45.9439500" lon="9.5749920">
	<ele>1787.00</ele>
	<time>2023-10-07T08:29:21.000Z</time>
</trkpt>
<trkpt lat="45.9439450" lon="9.5749910">
	<ele>1786.80</ele>
	<time>2023-10-07T08:29:22.000Z</time>
</trkpt>
<trkpt lat="45.9439420" lon="9.5749910">
	<ele>1786.60</ele>
	<time>2023-10-07T08:29:23.000Z</time>
</trkpt>
<trkpt lat="45.9439380" lon="9.5749910">
	<ele>1786.60</ele>
	<time>2023-10-07T08:29:24.000Z</time>
</trkpt>
<trkpt lat="45.9439330" lon="9.5749900">
	<ele>1786.60</ele>
	<time>2023-10-07T08:29:25.000Z</time>
</trkpt>
<trkpt lat="45.9439300" lon="9.5749840">
	<ele>1786.60</ele>
	<time>2023-10-07T08:29:26.000Z</time>
</trkpt>
<trkpt lat="45.9439270" lon="9.5749800">
	<ele>1786.60</ele>
	<time>2023-10-07T08:29:27.000Z</time>
</trkpt>
<trkpt lat="45.9439230" lon="9.5749750">
	<ele>1786.60</ele>
	<time>2023-10-07T08:29:28.000Z</time>
</trkpt>
<trkpt lat="45.9439210" lon="9.5749720">
	<ele>1786.60</ele>
	<time>2023-10-07T08:29:29.000Z</time>
</trkpt>
<trkpt lat="45.9439180" lon="9.5749690">
	<ele>1786.60</ele>
	<time>2023-10-07T08:29:30.000Z</time>
</trkpt>
<trkpt lat="45.9439160" lon="9.5749630">
	<ele>1786.80</ele>
	<time>2023-10-07T08:29:31.000Z</time>
</trkpt>
<trkpt lat="45.9439130" lon="9.5749570">
	<ele>1787.00</ele>
	<time>2023-10-07T08:29:32.000Z</time>
</trkpt>
<trkpt lat="45.9439080" lon="9.5749490">
	<ele>1787.20</ele>
	<time>2023-10-07T08:29:33.000Z</time>
</trkpt>
<trkpt lat="45.9439030" lon="9.5749400">
	<ele>1787.20</ele>
	<time>2023-10-07T08:29:34.000Z</time>
</trkpt>
<trkpt lat="45.9439000" lon="9.5749310">
	<ele>1787.40</ele>
	<time>2023-10-07T08:29:35.000Z</time>
</trkpt>
<trkpt lat="45.9438980" lon="9.5749280">
	<ele>1787.40</ele>
	<time>2023-10-07T08:29:36.000Z</time>
</trkpt>
<trkpt lat="45.9438980" lon="9.5749270">
	<ele>1787.40</ele>
	<time>2023-10-07T08:29:37.000Z</time>
</trkpt>
<trkpt lat="45.9438970" lon="9.5749260">
	<ele>1787.40</ele>
	<time>2023-10-07T08:29:38.000Z</time>
</trkpt>
<trkpt lat="45.9438970" lon="9.5749260">
	<ele>1787.40</ele>
	<time>2023-10-07T08:29:39.000Z</time>
</trkpt>
<trkpt lat="45.9438970" lon="9.5749260">
	<ele>1787.40</ele>
	<time>2023-10-07T08:29:40.000Z</time>
</trkpt>
<trkpt lat="45.9438970" lon="9.5749260">
	<ele>1787.40</ele>
	<time>2023-10-07T08:29:41.000Z</time>
</trkpt>
<trkpt lat="45.9438970" lon="9.5749260">
	<ele>1787.20</ele>
	<time>2023-10-07T08:29:42.000Z</time>
</trkpt>
<trkpt lat="45.9438970" lon="9.5749260">
	<ele>1787.00</ele>
	<time>2023-10-07T08:29:43.000Z</time>
</trkpt>
<trkpt lat="45.9438970" lon="9.5749260">
	<ele>1786.80</ele>
	<time>2023-10-07T08:29:44.000Z</time>
</trkpt>
<trkpt lat="45.9438970" lon="9.5749260">
	<ele>1786.80</ele>
	<time>2023-10-07T08:29:45.000Z</time>
</trkpt>
<trkpt lat="45.9438970" lon="9.5749250">
	<ele>1786.80</ele>
	<time>2023-10-07T08:29:46.000Z</time>
</trkpt>
<trkpt lat="45.9438970" lon="9.5749250">
	<ele>1786.60</ele>
	<time>2023-10-07T08:29:47.000Z</time>
</trkpt>
<trkpt lat="45.9438970" lon="9.5749240">
	<ele>1786.40</ele>
	<time>2023-10-07T08:29:48.000Z</time>
</trkpt>
<trkpt lat="45.9438960" lon="9.5749240">
	<ele>1786.20</ele>
	<time>2023-10-07T08:29:49.000Z</time>
</trkpt>
<trkpt lat="45.9438960" lon="9.5749230">
	<ele>1786.00</ele>
	<time>2023-10-07T08:29:50.000Z</time>
</trkpt>
<trkpt lat="45.9438960" lon="9.5749220">
	<ele>1785.80</ele>
	<time>2023-10-07T08:29:51.000Z</time>
</trkpt>
<trkpt lat="45.9438950" lon="9.5749220">
	<ele>1785.60</ele>
	<time>2023-10-07T08:29:52.000Z</time>
</trkpt>
<trkpt lat="45.9438950" lon="9.5749220">
	<ele>1785.60</ele>
	<time>2023-10-07T08:29:53.000Z</time>
</trkpt>
<trkpt lat="45.9438950" lon="9.5749220">
	<ele>1785.20</ele>
	<time>2023-10-07T08:29:54.000Z</time>
</trkpt>
<trkpt lat="45.9438950" lon="9.5749210">
	<ele>1784.80</ele>
	<time>2023-10-07T08:29:55.000Z</time>
</trkpt>
<trkpt lat="45.9438950" lon="9.5749210">
	<ele>1784.60</ele>
	<time>2023-10-07T08:29:56.000Z</time>
</trkpt>
<trkpt lat="45.9438950" lon="9.5749200">
	<ele>1784.40</ele>
	<time>2023-10-07T08:29:57.000Z</time>
</trkpt>
<trkpt lat="45.9438950" lon="9.5749200">
	<ele>1784.00</ele>
	<time>2023-10-07T08:29:58.000Z</time>
</trkpt>
<trkpt lat="45.9438940" lon="9.5749200">
	<ele>1783.80</ele>
	<time>2023-10-07T08:29:59.000Z</time>
</trkpt>
<trkpt lat="45.9438910" lon="9.5749170">
	<ele>1783.60</ele>
	<time>2023-10-07T08:30:00.000Z</time>
</trkpt>
<trkpt lat="45.9438890" lon="9.5749120">
	<ele>1783.20</ele>
	<time>2023-10-07T08:30:01.000Z</time>
</trkpt>
<trkpt lat="45.9438860" lon="9.5749080">
	<ele>1783.00</ele>
	<time>2023-10-07T08:30:02.000Z</time>
</trkpt>
<trkpt lat="45.9438820" lon="9.5749060">
	<ele>1782.80</ele>
	<time>2023-10-07T08:30:03.000Z</time>
</trkpt>
<trkpt lat="45.9438780" lon="9.5749050">
	<ele>1782.60</ele>
	<time>2023-10-07T08:30:04.000Z</time>
</trkpt>
<trkpt lat="45.9438720" lon="9.5749040">
	<ele>1782.40</ele>
	<time>2023-10-07T08:30:05.000Z</time>
</trkpt>
<trkpt lat="45.9438660" lon="9.5749040">
	<ele>1782.20</ele>
	<time>2023-10-07T08:30:06.000Z</time>
</trkpt>
<trkpt lat="45.9438550" lon="9.5748980">
	<ele>1781.80</ele>
	<time>2023-10-07T08:30:07.000Z</time>
</trkpt>
<trkpt lat="45.9438350" lon="9.5748890">
	<ele>1781.40</ele>
	<time>2023-10-07T08:30:08.000Z</time>
</trkpt>
<trkpt lat="45.9438180" lon="9.5748760">
	<ele>1781.00</ele>
	<time>2023-10-07T08:30:09.000Z</time>
</trkpt>
<trkpt lat="45.9438020" lon="9.5748670">
	<ele>1780.60</ele>
	<time>2023-10-07T08:30:10.000Z</time>
</trkpt>
<trkpt lat="45.9437880" lon="9.5748560">
	<ele>1780.40</ele>
	<time>2023-10-07T08:30:11.000Z</time>
</trkpt>
<trkpt lat="45.9437720" lon="9.5748460">
	<ele>1780.20</ele>
	<time>2023-10-07T08:30:12.000Z</time>
</trkpt>
<trkpt lat="45.9437580" lon="9.5748350">
	<ele>1780.00</ele>
	<time>2023-10-07T08:30:13.000Z</time>
</trkpt>
<trkpt lat="45.9437420" lon="9.5748270">
	<ele>1779.60</ele>
	<time>2023-10-07T08:30:14.000Z</time>
</trkpt>
<trkpt lat="45.9437260" lon="9.5748210">
	<ele>1779.40</ele>
	<time>2023-10-07T08:30:15.000Z</time>
</trkpt>
<trkpt lat="45.9437090" lon="9.5748130">
	<ele>1779.20</ele>
	<time>2023-10-07T08:30:16.000Z</time>
</trkpt>
<trkpt lat="45.9437050" lon="9.5748100">
	<ele>1779.00</ele>
	<time>2023-10-07T08:30:17.000Z</time>
</trkpt>
<trkpt lat="45.9437000" lon="9.5748060">
	<ele>1778.60</ele>
	<time>2023-10-07T08:30:18.000Z</time>
</trkpt>
<trkpt lat="45.9436950" lon="9.5748030">
	<ele>1778.40</ele>
	<time>2023-10-07T08:30:19.000Z</time>
</trkpt>
<trkpt lat="45.9436890" lon="9.5747990">
	<ele>1778.20</ele>
	<time>2023-10-07T08:30:20.000Z</time>
</trkpt>
<trkpt lat="45.9436840" lon="9.5747960">
	<ele>1777.80</ele>
	<time>2023-10-07T08:30:21.000Z</time>
</trkpt>
<trkpt lat="45.9436770" lon="9.5747940">
	<ele>1777.60</ele>
	<time>2023-10-07T08:30:22.000Z</time>
</trkpt>
<trkpt lat="45.9436720" lon="9.5747900">
	<ele>1777.20</ele>
	<time>2023-10-07T08:30:23.000Z</time>
</trkpt>
<trkpt lat="45.9436670" lon="9.5747860">
	<ele>1777.00</ele>
	<time>2023-10-07T08:30:24.000Z</time>
</trkpt>
<trkpt lat="45.9436620" lon="9.5747790">
	<ele>1776.80</ele>
	<time>2023-10-07T08:30:25.000Z</time>
</trkpt>
<trkpt lat="45.9436580" lon="9.5747730">
	<ele>1776.60</ele>
	<time>2023-10-07T08:30:26.000Z</time>
</trkpt>
<trkpt lat="45.9436530" lon="9.5747650">
	<ele>1776.40</ele>
	<time>2023-10-07T08:30:27.000Z</time>
</trkpt>
<trkpt lat="45.9436480" lon="9.5747560">
	<ele>1776.20</ele>
	<time>2023-10-07T08:30:28.000Z</time>
</trkpt>
<trkpt lat="45.9436420" lon="9.5747470">
	<ele>1776.00</ele>
	<time>2023-10-07T08:30:29.000Z</time>
</trkpt>
<trkpt lat="45.9436370" lon="9.5747410">
	<ele>1775.80</ele>
	<time>2023-10-07T08:30:30.000Z</time>
</trkpt>
<trkpt lat="45.9436330" lon="9.5747380">
	<ele>1775.60</ele>
	<time>2023-10-07T08:30:31.000Z</time>
</trkpt>
<trkpt lat="45.9436280" lon="9.5747340">
	<ele>1775.20</ele>
	<time>2023-10-07T08:30:32.000Z</time>
</trkpt>
<trkpt lat="45.9436200" lon="9.5747300">
	<ele>1775.00</ele>
	<time>2023-10-07T08:30:33.000Z</time>
</trkpt>
<trkpt lat="45.9436140" lon="9.5747240">
	<ele>1774.60</ele>
	<time>2023-10-07T08:30:34.000Z</time>
</trkpt>
<trkpt lat="45.9436090" lon="9.5747170">
	<ele>1774.20</ele>
	<time>2023-10-07T08:30:35.000Z</time>
</trkpt>
<trkpt lat="45.9436040" lon="9.5747080">
	<ele>1774.00</ele>
	<time>2023-10-07T08:30:36.000Z</time>
</trkpt>
<trkpt lat="45.9435980" lon="9.5746980">
	<ele>1773.60</ele>
	<time>2023-10-07T08:30:37.000Z</time>
</trkpt>
<trkpt lat="45.9435920" lon="9.5746890">
	<ele>1773.20</ele>
	<time>2023-10-07T08:30:38.000Z</time>
</trkpt>
<trkpt lat="45.9435880" lon="9.5746820">
	<ele>1772.80</ele>
	<time>2023-10-07T08:30:39.000Z</time>
</trkpt>
<trkpt lat="45.9435820" lon="9.5746810">
	<ele>1772.60</ele>
	<time>2023-10-07T08:30:40.000Z</time>
</trkpt>
<trkpt lat="45.9435750" lon="9.5746770">
	<ele>1772.40</ele>
	<time>2023-10-07T08:30:41.000Z</time>
</trkpt>
<trkpt lat="45.9435670" lon="9.5746750">
	<ele>1772.00</ele>
	<time>2023-10-07T08:30:42.000Z</time>
</trkpt>
<trkpt lat="45.9435610" lon="9.5746730">
	<ele>1771.60</ele>
	<time>2023-10-07T08:30:43.000Z</time>
</trkpt>
<trkpt lat="45.9435540" lon="9.5746720">
	<ele>1771.40</ele>
	<time>2023-10-07T08:30:44.000Z</time>
</trkpt>
<trkpt lat="45.9435470" lon="9.5746680">
	<ele>1771.00</ele>
	<time>2023-10-07T08:30:45.000Z</time>
</trkpt>
<trkpt lat="45.9435420" lon="9.5746670">
	<ele>1770.80</ele>
	<time>2023-10-07T08:30:46.000Z</time>
</trkpt>
<trkpt lat="45.9435350" lon="9.5746650">
	<ele>1770.40</ele>
	<time>2023-10-07T08:30:47.000Z</time>
</trkpt>
<trkpt lat="45.9435310" lon="9.5746620">
	<ele>1770.40</ele>
	<time>2023-10-07T08:30:48.000Z</time>
</trkpt>
<trkpt lat="45.9435260" lon="9.5746570">
	<ele>1770.20</ele>
	<time>2023-10-07T08:30:49.000Z</time>
</trkpt>
<trkpt lat="45.9435220" lon="9.5746500">
	<ele>1769.60</ele>
	<time>2023-10-07T08:30:50.000Z</time>
</trkpt>
<trkpt lat="45.9435160" lon="9.5746430">
	<ele>1769.40</ele>
	<time>2023-10-07T08:30:51.000Z</time>
</trkpt>
<trkpt lat="45.9435090" lon="9.5746380">
	<ele>1769.20</ele>
	<time>2023-10-07T08:30:52.000Z</time>
</trkpt>
<trkpt lat="45.9435040" lon="9.5746360">
	<ele>1768.80</ele>
	<time>2023-10-07T08:30:53.000Z</time>
</trkpt>
<trkpt lat="45.9434990" lon="9.5746340">
	<ele>1768.60</ele>
	<time>2023-10-07T08:30:54.000Z</time>
</trkpt>
<trkpt lat="45.9434920" lon="9.5746380">
	<ele>1768.40</ele>
	<time>2023-10-07T08:30:55.000Z</time>
</trkpt>
<trkpt lat="45.9434850" lon="9.5746360">
	<ele>1768.20</ele>
	<time>2023-10-07T08:30:56.000Z</time>
</trkpt>
<trkpt lat="45.9434770" lon="9.5746320">
	<ele>1767.80</ele>
	<time>2023-10-07T08:30:57.000Z</time>
</trkpt>
<trkpt lat="45.9434710" lon="9.5746250">
	<ele>1767.60</ele>
	<time>2023-10-07T08:30:58.000Z</time>
</trkpt>
<trkpt lat="45.9434660" lon="9.5746190">
	<ele>1767.20</ele>
	<time>2023-10-07T08:30:59.000Z</time>
</trkpt>
<trkpt lat="45.9434630" lon="9.5746130">
	<ele>1767.00</ele>
	<time>2023-10-07T08:31:00.000Z</time>
</trkpt>
<trkpt lat="45.9434610" lon="9.5746110">
	<ele>1766.80</ele>
	<time>2023-10-07T08:31:01.000Z</time>
</trkpt>
<trkpt lat="45.9434560" lon="9.5746100">
	<ele>1766.40</ele>
	<time>2023-10-07T08:31:02.000Z</time>
</trkpt>
<trkpt lat="45.9434490" lon="9.5746140">
	<ele>1766.20</ele>
	<time>2023-10-07T08:31:03.000Z</time>
</trkpt>
<trkpt lat="45.9434440" lon="9.5746080">
	<ele>1766.00</ele>
	<time>2023-10-07T08:31:04.000Z</time>
</trkpt>
<trkpt lat="45.9434410" lon="9.5746000">
	<ele>1765.60</ele>
	<time>2023-10-07T08:31:05.000Z</time>
</trkpt>
<trkpt lat="45.9434350" lon="9.5745930">
	<ele>1765.40</ele>
	<time>2023-10-07T08:31:06.000Z</time>
</trkpt>
<trkpt lat="45.9434300" lon="9.5745900">
	<ele>1765.00</ele>
	<time>2023-10-07T08:31:07.000Z</time>
</trkpt>
<trkpt lat="45.9434220" lon="9.5745850">
	<ele>1764.80</ele>
	<time>2023-10-07T08:31:08.000Z</time>
</trkpt>
<trkpt lat="45.9434170" lon="9.5745800">
	<ele>1764.60</ele>
	<time>2023-10-07T08:31:09.000Z</time>
</trkpt>
<trkpt lat="45.9434110" lon="9.5745750">
	<ele>1764.40</ele>
	<time>2023-10-07T08:31:10.000Z</time>
</trkpt>
<trkpt lat="45.9434060" lon="9.5745710">
	<ele>1764.00</ele>
	<time>2023-10-07T08:31:11.000Z</time>
</trkpt>
<trkpt lat="45.9434000" lon="9.5745630">
	<ele>1763.80</ele>
	<time>2023-10-07T08:31:12.000Z</time>
</trkpt>
<trkpt lat="45.9433970" lon="9.5745570">
	<ele>1763.60</ele>
	<time>2023-10-07T08:31:13.000Z</time>
</trkpt>
<trkpt lat="45.9433940" lon="9.5745520">
	<ele>1763.40</ele>
	<time>2023-10-07T08:31:14.000Z</time>
</trkpt>
<trkpt lat="45.9433930" lon="9.5745520">
	<ele>1763.40</ele>
	<time>2023-10-07T08:31:15.000Z</time>
</trkpt>
<trkpt lat="45.9433930" lon="9.5745530">
	<ele>1763.40</ele>
	<time>2023-10-07T08:31:16.000Z</time>
</trkpt>
<trkpt lat="45.9433940" lon="9.5745540">
	<ele>1763.20</ele>
	<time>2023-10-07T08:31:17.000Z</time>
</trkpt>
<trkpt lat="45.9433940" lon="9.5745540">
	<ele>1763.20</ele>
	<time>2023-10-07T08:31:18.000Z</time>
</trkpt>
<trkpt lat="45.9433940" lon="9.5745540">
	<ele>1763.40</ele>
	<time>2023-10-07T08:31:19.000Z</time>
</trkpt>
<trkpt lat="45.9433940" lon="9.5745540">
	<ele>1763.40</ele>
	<time>2023-10-07T08:31:20.000Z</time>
</trkpt>
<trkpt lat="45.9433930" lon="9.5745550">
	<ele>1763.40</ele>
	<time>2023-10-07T08:31:21.000Z</time>
</trkpt>
<trkpt lat="45.9433960" lon="9.5745570">
	<ele>1763.60</ele>
	<time>2023-10-07T08:31:22.000Z</time>
</trkpt>
<trkpt lat="45.9433950" lon="9.5745580">
	<ele>1763.60</ele>
	<time>2023-10-07T08:31:23.000Z</time>
</trkpt>
<trkpt lat="45.9433940" lon="9.5745570">
	<ele>1763.60</ele>
	<time>2023-10-07T08:31:24.000Z</time>
</trkpt>
<trkpt lat="45.9433920" lon="9.5745560">
	<ele>1763.60</ele>
	<time>2023-10-07T08:31:25.000Z</time>
</trkpt>
<trkpt lat="45.9433920" lon="9.5745550">
	<ele>1763.60</ele>
	<time>2023-10-07T08:31:26.000Z</time>
</trkpt>
<trkpt lat="45.9433910" lon="9.5745550">
	<ele>1763.60</ele>
	<time>2023-10-07T08:31:27.000Z</time>
</trkpt>
<trkpt lat="45.9433900" lon="9.5745550">
	<ele>1763.40</ele>
	<time>2023-10-07T08:31:28.000Z</time>
</trkpt>
<trkpt lat="45.9433900" lon="9.5745550">
	<ele>1763.40</ele>
	<time>2023-10-07T08:31:29.000Z</time>
</trkpt>
<trkpt lat="45.9433900" lon="9.5745550">
	<ele>1763.20</ele>
	<time>2023-10-07T08:31:30.000Z</time>
</trkpt>
<trkpt lat="45.9433900" lon="9.5745550">
	<ele>1763.20</ele>
	<time>2023-10-07T08:31:31.000Z</time>
</trkpt>
<trkpt lat="45.9433900" lon="9.5745550">
	<ele>1763.00</ele>
	<time>2023-10-07T08:31:32.000Z</time>
</trkpt>
<trkpt lat="45.9433900" lon="9.5745550">
	<ele>1763.00</ele>
	<time>2023-10-07T08:31:33.000Z</time>
</trkpt>
<trkpt lat="45.9433900" lon="9.5745550">
	<ele>1763.00</ele>
	<time>2023-10-07T08:31:34.000Z</time>
</trkpt>
<trkpt lat="45.9433900" lon="9.5745550">
	<ele>1762.80</ele>
	<time>2023-10-07T08:31:35.000Z</time>
</trkpt>
<trkpt lat="45.9433900" lon="9.5745550">
	<ele>1763.00</ele>
	<time>2023-10-07T08:31:36.000Z</time>
</trkpt>
<trkpt lat="45.9433900" lon="9.5745550">
	<ele>1763.00</ele>
	<time>2023-10-07T08:31:37.000Z</time>
</trkpt>
<trkpt lat="45.9433900" lon="9.5745550">
	<ele>1763.00</ele>
	<time>2023-10-07T08:31:38.000Z</time>
</trkpt>
<trkpt lat="45.9433900" lon="9.5745550">
	<ele>1763.00</ele>
	<time>2023-10-07T08:31:39.000Z</time>
</trkpt>
<trkpt lat="45.9433900" lon="9.5745550">
	<ele>1763.00</ele>
	<time>2023-10-07T08:31:40.000Z</time>
</trkpt>
<trkpt lat="45.9433900" lon="9.5745550">
	<ele>1763.00</ele>
	<time>2023-10-07T08:31:41.000Z</time>
</trkpt>
<trkpt lat="45.9433900" lon="9.5745550">
	<ele>1763.00</ele>
	<time>2023-10-07T08:31:42.000Z</time>
</trkpt>
<trkpt lat="45.9433900" lon="9.5745550">
	<ele>1763.00</ele>
	<time>2023-10-07T08:31:43.000Z</time>
</trkpt>
<trkpt lat="45.9433900" lon="9.5745550">
	<ele>1763.00</ele>
	<time>2023-10-07T08:31:44.000Z</time>
</trkpt>
<trkpt lat="45.9433900" lon="9.5745550">
	<ele>1763.20</ele>
	<time>2023-10-07T08:31:45.000Z</time>
</trkpt>
<trkpt lat="45.9433900" lon="9.5745550">
	<ele>1763.20</ele>
	<time>2023-10-07T08:31:46.000Z</time>
</trkpt>
<trkpt lat="45.9433900" lon="9.5745550">
	<ele>1763.20</ele>
	<time>2023-10-07T08:31:47.000Z</time>
</trkpt>
<trkpt lat="45.9433900" lon="9.5745550">
	<ele>1763.20</ele>
	<time>2023-10-07T08:31:48.000Z</time>
</trkpt>
<trkpt lat="45.9433900" lon="9.5745550">
	<ele>1763.20</ele>
	<time>2023-10-07T08:31:49.000Z</time>
</trkpt>
<trkpt lat="45.9433900" lon="9.5745550">
	<ele>1763.20</ele>
	<time>2023-10-07T08:31:50.000Z</time>
</trkpt>
<trkpt lat="45.9433900" lon="9.5745550">
	<ele>1763.20</ele>
	<time>2023-10-07T08:31:51.000Z</time>
</trkpt>
<trkpt lat="45.9433900" lon="9.5745550">
	<ele>1763.20</ele>
	<time>2023-10-07T08:31:52.000Z</time>
</trkpt>
<trkpt lat="45.9433900" lon="9.5745550">
	<ele>1763.20</ele>
	<time>2023-10-07T08:31:53.000Z</time>
</trkpt>
<trkpt lat="45.9433900" lon="9.5745550">
	<ele>1763.20</ele>
	<time>2023-10-07T08:31:54.000Z</time>
</trkpt>
<trkpt lat="45.9433900" lon="9.5745550">
	<ele>1763.00</ele>
	<time>2023-10-07T08:31:55.000Z</time>
</trkpt>
<trkpt lat="45.9433900" lon="9.5745550">
	<ele>1763.00</ele>
	<time>2023-10-07T08:31:56.000Z</time>
</trkpt>
<trkpt lat="45.9433900" lon="9.5745540">
	<ele>1763.00</ele>
	<time>2023-10-07T08:31:57.000Z</time>
</trkpt>
<trkpt lat="45.9433900" lon="9.5745540">
	<ele>1763.00</ele>
	<time>2023-10-07T08:31:58.000Z</time>
</trkpt>
<trkpt lat="45.9433900" lon="9.5745530">
	<ele>1763.00</ele>
	<time>2023-10-07T08:31:59.000Z</time>
</trkpt>
<trkpt lat="45.9433900" lon="9.5745530">
	<ele>1763.00</ele>
	<time>2023-10-07T08:32:00.000Z</time>
</trkpt>
<trkpt lat="45.9433900" lon="9.5745530">
	<ele>1763.00</ele>
	<time>2023-10-07T08:32:01.000Z</time>
</trkpt>
<trkpt lat="45.9433900" lon="9.5745520">
	<ele>1763.00</ele>
	<time>2023-10-07T08:32:02.000Z</time>
</trkpt>
<trkpt lat="45.9433900" lon="9.5745520">
	<ele>1763.00</ele>
	<time>2023-10-07T08:32:03.000Z</time>
</trkpt>
<trkpt lat="45.9433900" lon="9.5745520">
	<ele>1763.00</ele>
	<time>2023-10-07T08:32:04.000Z</time>
</trkpt>
<trkpt lat="45.9433900" lon="9.5745520">
	<ele>1763.00</ele>
	<time>2023-10-07T08:32:05.000Z</time>
</trkpt>
<trkpt lat="45.9433910" lon="9.5745520">
	<ele>1763.00</ele>
	<time>2023-10-07T08:32:06.000Z</time>
</trkpt>
<trkpt lat="45.9433910" lon="9.5745520">
	<ele>1763.00</ele>
	<time>2023-10-07T08:32:07.000Z</time>
</trkpt>
<trkpt lat="45.9433910" lon="9.5745520">
	<ele>1763.00</ele>
	<time>2023-10-07T08:32:08.000Z</time>
</trkpt>
<trkpt lat="45.9433910" lon="9.5745510">
	<ele>1763.20</ele>
	<time>2023-10-07T08:32:09.000Z</time>
</trkpt>
<trkpt lat="45.9433910" lon="9.5745510">
	<ele>1763.20</ele>
	<time>2023-10-07T08:32:10.000Z</time>
</trkpt>
<trkpt lat="45.9433910" lon="9.5745510">
	<ele>1763.40</ele>
	<time>2023-10-07T08:32:11.000Z</time>
</trkpt>
<trkpt lat="45.9433910" lon="9.5745510">
	<ele>1763.60</ele>
	<time>2023-10-07T08:32:12.000Z</time>
</trkpt>
<trkpt lat="45.9433910" lon="9.5745510">
	<ele>1763.60</ele>
	<time>2023-10-07T08:32:13.000Z</time>
</trkpt>
<trkpt lat="45.9433910" lon="9.5745510">
	<ele>1763.60</ele>
	<time>2023-10-07T08:32:14.000Z</time>
</trkpt>
<trkpt lat="45.9433910" lon="9.5745510">
	<ele>1763.60</ele>
	<time>2023-10-07T08:32:15.000Z</time>
</trkpt>
<trkpt lat="45.9433910" lon="9.5745510">
	<ele>1763.60</ele>
	<time>2023-10-07T08:32:16.000Z</time>
</trkpt>
<trkpt lat="45.9433910" lon="9.5745510">
	<ele>1763.40</ele>
	<time>2023-10-07T08:32:17.000Z</time>
</trkpt>
<trkpt lat="45.9433910" lon="9.5745510">
	<ele>1763.20</ele>
	<time>2023-10-07T08:32:18.000Z</time>
</trkpt>
<trkpt lat="45.9433910" lon="9.5745510">
	<ele>1763.20</ele>
	<time>2023-10-07T08:32:19.000Z</time>
</trkpt>
<trkpt lat="45.9433910" lon="9.5745510">
	<ele>1763.20</ele>
	<time>2023-10-07T08:32:20.000Z</time>
</trkpt>
<trkpt lat="45.9433910" lon="9.5745510">
	<ele>1763.20</ele>
	<time>2023-10-07T08:32:21.000Z</time>
</trkpt>
<trkpt lat="45.9433910" lon="9.5745510">
	<ele>1763.40</ele>
	<time>2023-10-07T08:32:22.000Z</time>
</trkpt>
<trkpt lat="45.9433900" lon="9.5745510">
	<ele>1763.40</ele>
	<time>2023-10-07T08:32:23.000Z</time>
</trkpt>
<trkpt lat="45.9433900" lon="9.5745510">
	<ele>1763.40</ele>
	<time>2023-10-07T08:32:24.000Z</time>
</trkpt>
<trkpt lat="45.9433900" lon="9.5745510">
	<ele>1763.60</ele>
	<time>2023-10-07T08:32:25.000Z</time>
</trkpt>
<trkpt lat="45.9433900" lon="9.5745510">
	<ele>1763.60</ele>
	<time>2023-10-07T08:32:26.000Z</time>
</trkpt>
<trkpt lat="45.9433900" lon="9.5745510">
	<ele>1763.60</ele>
	<time>2023-10-07T08:32:27.000Z</time>
</trkpt>
<trkpt lat="45.9433900" lon="9.5745510">
	<ele>1763.60</ele>
	<time>2023-10-07T08:32:28.000Z</time>
</trkpt>
<trkpt lat="45.9433900" lon="9.5745510">
	<ele>1763.60</ele>
	<time>2023-10-07T08:32:29.000Z</time>
</trkpt>
<trkpt lat="45.9433900" lon="9.5745510">
	<ele>1763.60</ele>
	<time>2023-10-07T08:32:30.000Z</time>
</trkpt>
<trkpt lat="45.9433900" lon="9.5745510">
	<ele>1763.60</ele>
	<time>2023-10-07T08:32:31.000Z</time>
</trkpt>
<trkpt lat="45.9433900" lon="9.5745530">
	<ele>1763.60</ele>
	<time>2023-10-07T08:32:32.000Z</time>
</trkpt>
<trkpt lat="45.9433900" lon="9.5745530">
	<ele>1763.60</ele>
	<time>2023-10-07T08:32:33.000Z</time>
</trkpt>
<trkpt lat="45.9433900" lon="9.5745540">
	<ele>1763.60</ele>
	<time>2023-10-07T08:32:34.000Z</time>
</trkpt>
<trkpt lat="45.9433900" lon="9.5745540">
	<ele>1763.60</ele>
	<time>2023-10-07T08:32:35.000Z</time>
</trkpt>
<trkpt lat="45.9433900" lon="9.5745540">
	<ele>1763.40</ele>
	<time>2023-10-07T08:32:36.000Z</time>
</trkpt>
<trkpt lat="45.9433900" lon="9.5745540">
	<ele>1763.40</ele>
	<time>2023-10-07T08:32:37.000Z</time>
</trkpt>
<trkpt lat="45.9433900" lon="9.5745540">
	<ele>1763.20</ele>
	<time>2023-10-07T08:32:38.000Z</time>
</trkpt>
<trkpt lat="45.9433900" lon="9.5745540">
	<ele>1763.00</ele>
	<time>2023-10-07T08:32:39.000Z</time>
</trkpt>
<trkpt lat="45.9433900" lon="9.5745540">
	<ele>1763.00</ele>
	<time>2023-10-07T08:32:40.000Z</time>
</trkpt>
<trkpt lat="45.9433900" lon="9.5745540">
	<ele>1762.80</ele>
	<time>2023-10-07T08:32:41.000Z</time>
</trkpt>
<trkpt lat="45.9433890" lon="9.5745540">
	<ele>1762.80</ele>
	<time>2023-10-07T08:32:42.000Z</time>
</trkpt>
<trkpt lat="45.9433890" lon="9.5745540">
	<ele>1762.60</ele>
	<time>2023-10-07T08:32:43.000Z</time>
</trkpt>
<trkpt lat="45.9433890" lon="9.5745540">
	<ele>1762.60</ele>
	<time>2023-10-07T08:32:44.000Z</time>
</trkpt>
<trkpt lat="45.9433890" lon="9.5745540">
	<ele>1762.60</ele>
	<time>2023-10-07T08:32:45.000Z</time>
</trkpt>
<trkpt lat="45.9433890" lon="9.5745540">
	<ele>1762.60</ele>
	<time>2023-10-07T08:32:46.000Z</time>
</trkpt>
<trkpt lat="45.9433890" lon="9.5745540">
	<ele>1762.60</ele>
	<time>2023-10-07T08:32:47.000Z</time>
</trkpt>
<trkpt lat="45.9433890" lon="9.5745540">
	<ele>1762.60</ele>
	<time>2023-10-07T08:32:48.000Z</time>
</trkpt>
<trkpt lat="45.9433880" lon="9.5745540">
	<ele>1762.60</ele>
	<time>2023-10-07T08:32:49.000Z</time>
</trkpt>
<trkpt lat="45.9433880" lon="9.5745540">
	<ele>1762.60</ele>
	<time>2023-10-07T08:32:50.000Z</time>
</trkpt>
<trkpt lat="45.9433880" lon="9.5745540">
	<ele>1762.40</ele>
	<time>2023-10-07T08:32:51.000Z</time>
</trkpt>
<trkpt lat="45.9433880" lon="9.5745540">
	<ele>1762.40</ele>
	<time>2023-10-07T08:32:52.000Z</time>
</trkpt>
<trkpt lat="45.9433860" lon="9.5745540">
	<ele>1762.40</ele>
	<time>2023-10-07T08:32:53.000Z</time>
</trkpt>
<trkpt lat="45.9433840" lon="9.5745540">
	<ele>1762.20</ele>
	<time>2023-10-07T08:32:54.000Z</time>
</trkpt>
<trkpt lat="45.9433820" lon="9.5745530">
	<ele>1762.20</ele>
	<time>2023-10-07T08:32:55.000Z</time>
</trkpt>
<trkpt lat="45.9433810" lon="9.5745530">
	<ele>1762.20</ele>
	<time>2023-10-07T08:32:56.000Z</time>
</trkpt>
<trkpt lat="45.9433810" lon="9.5745520">
	<ele>1762.20</ele>
	<time>2023-10-07T08:32:57.000Z</time>
</trkpt>
<trkpt lat="45.9433810" lon="9.5745520">
	<ele>1762.40</ele>
	<time>2023-10-07T08:32:58.000Z</time>
</trkpt>
<trkpt lat="45.9433810" lon="9.5745510">
	<ele>1762.60</ele>
	<time>2023-10-07T08:32:59.000Z</time>
</trkpt>
<trkpt lat="45.9433810" lon="9.5745510">
	<ele>1762.60</ele>
	<time>2023-10-07T08:33:00.000Z</time>
</trkpt>
<trkpt lat="45.9433810" lon="9.5745510">
	<ele>1762.60</ele>
	<time>2023-10-07T08:33:01.000Z</time>
</trkpt>
<trkpt lat="45.9433810" lon="9.5745500">
	<ele>1762.80</ele>
	<time>2023-10-07T08:33:02.000Z</time>
</trkpt>
<trkpt lat="45.9433810" lon="9.5745500">
	<ele>1762.80</ele>
	<time>2023-10-07T08:33:03.000Z</time>
</trkpt>
<trkpt lat="45.9433810" lon="9.5745500">
	<ele>1762.80</ele>
	<time>2023-10-07T08:33:04.000Z</time>
</trkpt>
<trkpt lat="45.9433810" lon="9.5745500">
	<ele>1762.80</ele>
	<time>2023-10-07T08:33:05.000Z</time>
</trkpt>
<trkpt lat="45.9433810" lon="9.5745500">
	<ele>1762.80</ele>
	<time>2023-10-07T08:33:06.000Z</time>
</trkpt>
<trkpt lat="45.9433810" lon="9.5745490">
	<ele>1762.80</ele>
	<time>2023-10-07T08:33:07.000Z</time>
</trkpt>
<trkpt lat="45.9433810" lon="9.5745470">
	<ele>1762.80</ele>
	<time>2023-10-07T08:33:08.000Z</time>
</trkpt>
<trkpt lat="45.9433810" lon="9.5745460">
	<ele>1762.80</ele>
	<time>2023-10-07T08:33:09.000Z</time>
</trkpt>
<trkpt lat="45.9433820" lon="9.5745450">
	<ele>1762.80</ele>
	<time>2023-10-07T08:33:10.000Z</time>
</trkpt>
<trkpt lat="45.9433820" lon="9.5745450">
	<ele>1762.80</ele>
	<time>2023-10-07T08:33:11.000Z</time>
</trkpt>
<trkpt lat="45.9433830" lon="9.5745450">
	<ele>1762.60</ele>
	<time>2023-10-07T08:33:12.000Z</time>
</trkpt>
<trkpt lat="45.9433830" lon="9.5745450">
	<ele>1762.60</ele>
	<time>2023-10-07T08:33:13.000Z</time>
</trkpt>
<trkpt lat="45.9433840" lon="9.5745450">
	<ele>1762.60</ele>
	<time>2023-10-07T08:33:14.000Z</time>
</trkpt>
<trkpt lat="45.9433860" lon="9.5745450">
	<ele>1762.60</ele>
	<time>2023-10-07T08:33:15.000Z</time>
</trkpt>
<trkpt lat="45.9433870" lon="9.5745450">
	<ele>1762.60</ele>
	<time>2023-10-07T08:33:16.000Z</time>
</trkpt>
<trkpt lat="45.9433870" lon="9.5745450">
	<ele>1762.60</ele>
	<time>2023-10-07T08:33:17.000Z</time>
</trkpt>
<trkpt lat="45.9433890" lon="9.5745450">
	<ele>1762.60</ele>
	<time>2023-10-07T08:33:18.000Z</time>
</trkpt>
<trkpt lat="45.9433900" lon="9.5745450">
	<ele>1762.60</ele>
	<time>2023-10-07T08:33:19.000Z</time>
</trkpt>
<trkpt lat="45.9433910" lon="9.5745450">
	<ele>1762.60</ele>
	<time>2023-10-07T08:33:20.000Z</time>
</trkpt>
<trkpt lat="45.9433920" lon="9.5745450">
	<ele>1762.60</ele>
	<time>2023-10-07T08:33:21.000Z</time>
</trkpt>
<trkpt lat="45.9433920" lon="9.5745450">
	<ele>1762.60</ele>
	<time>2023-10-07T08:33:22.000Z</time>
</trkpt>
<trkpt lat="45.9433930" lon="9.5745450">
	<ele>1762.60</ele>
	<time>2023-10-07T08:33:23.000Z</time>
</trkpt>
<trkpt lat="45.9433940" lon="9.5745450">
	<ele>1762.60</ele>
	<time>2023-10-07T08:33:24.000Z</time>
</trkpt>
<trkpt lat="45.9433940" lon="9.5745450">
	<ele>1762.60</ele>
	<time>2023-10-07T08:33:25.000Z</time>
</trkpt>
<trkpt lat="45.9433950" lon="9.5745450">
	<ele>1762.40</ele>
	<time>2023-10-07T08:33:26.000Z</time>
</trkpt>
<trkpt lat="45.9433960" lon="9.5745450">
	<ele>1762.40</ele>
	<time>2023-10-07T08:33:27.000Z</time>
</trkpt>
<trkpt lat="45.9433960" lon="9.5745450">
	<ele>1762.40</ele>
	<time>2023-10-07T08:33:28.000Z</time>
</trkpt>
<trkpt lat="45.9433960" lon="9.5745450">
	<ele>1762.20</ele>
	<time>2023-10-07T08:33:29.000Z</time>
</trkpt>
<trkpt lat="45.9433960" lon="9.5745450">
	<ele>1762.20</ele>
	<time>2023-10-07T08:33:30.000Z</time>
</trkpt>
<trkpt lat="45.9433960" lon="9.5745450">
	<ele>1762.20</ele>
	<time>2023-10-07T08:33:31.000Z</time>
</trkpt>
<trkpt lat="45.9433960" lon="9.5745460">
	<ele>1762.00</ele>
	<time>2023-10-07T08:33:32.000Z</time>
</trkpt>
<trkpt lat="45.9433960" lon="9.5745460">
	<ele>1762.00</ele>
	<time>2023-10-07T08:33:33.000Z</time>
</trkpt>
<trkpt lat="45.9433960" lon="9.5745460">
	<ele>1762.00</ele>
	<time>2023-10-07T08:33:34.000Z</time>
</trkpt>
<trkpt lat="45.9433970" lon="9.5745460">
	<ele>1762.00</ele>
	<time>2023-10-07T08:33:35.000Z</time>
</trkpt>
<trkpt lat="45.9433970" lon="9.5745460">
	<ele>1761.80</ele>
	<time>2023-10-07T08:33:36.000Z</time>
</trkpt>
<trkpt lat="45.9433970" lon="9.5745470">
	<ele>1761.60</ele>
	<time>2023-10-07T08:33:37.000Z</time>
</trkpt>
<trkpt lat="45.9433970" lon="9.5745470">
	<ele>1761.60</ele>
	<time>2023-10-07T08:33:38.000Z</time>
</trkpt>
<trkpt lat="45.9433970" lon="9.5745470">
	<ele>1761.40</ele>
	<time>2023-10-07T08:33:39.000Z</time>
</trkpt>
<trkpt lat="45.9433970" lon="9.5745470">
	<ele>1761.20</ele>
	<time>2023-10-07T08:33:40.000Z</time>
</trkpt>
<trkpt lat="45.9433970" lon="9.5745470">
	<ele>1761.00</ele>
	<time>2023-10-07T08:33:41.000Z</time>
</trkpt>
<trkpt lat="45.9433960" lon="9.5745470">
	<ele>1760.80</ele>
	<time>2023-10-07T08:33:42.000Z</time>
</trkpt>
<trkpt lat="45.9433960" lon="9.5745470">
	<ele>1760.40</ele>
	<time>2023-10-07T08:33:43.000Z</time>
</trkpt>
<trkpt lat="45.9433960" lon="9.5745470">
	<ele>1760.20</ele>
	<time>2023-10-07T08:33:44.000Z</time>
</trkpt>
<trkpt lat="45.9433960" lon="9.5745470">
	<ele>1760.20</ele>
	<time>2023-10-07T08:33:45.000Z</time>
</trkpt>
<trkpt lat="45.9433960" lon="9.5745470">
	<ele>1760.00</ele>
	<time>2023-10-07T08:33:46.000Z</time>
</trkpt>
<trkpt lat="45.9433960" lon="9.5745470">
	<ele>1759.80</ele>
	<time>2023-10-07T08:33:47.000Z</time>
</trkpt>
<trkpt lat="45.9433950" lon="9.5745470">
	<ele>1759.60</ele>
	<time>2023-10-07T08:33:48.000Z</time>
</trkpt>
<trkpt lat="45.9433930" lon="9.5745470">
	<ele>1759.40</ele>
	<time>2023-10-07T08:33:49.000Z</time>
</trkpt>
<trkpt lat="45.9433900" lon="9.5745470">
	<ele>1759.20</ele>
	<time>2023-10-07T08:33:50.000Z</time>
</trkpt>
<trkpt lat="45.9433870" lon="9.5745470">
	<ele>1759.00</ele>
	<time>2023-10-07T08:33:51.000Z</time>
</trkpt>
<trkpt lat="45.9433850" lon="9.5745470">
	<ele>1758.80</ele>
	<time>2023-10-07T08:33:52.000Z</time>
</trkpt>
<trkpt lat="45.9433820" lon="9.5745450">
	<ele>1758.60</ele>
	<time>2023-10-07T08:33:53.000Z</time>
</trkpt>
<trkpt lat="45.9433790" lon="9.5745430">
	<ele>1758.20</ele>
	<time>2023-10-07T08:33:54.000Z</time>
</trkpt>
<trkpt lat="45.9433760" lon="9.5745390">
	<ele>1758.00</ele>
	<time>2023-10-07T08:33:55.000Z</time>
</trkpt>
<trkpt lat="45.9433720" lon="9.5745350">
	<ele>1757.80</ele>
	<time>2023-10-07T08:33:56.000Z</time>
</trkpt>
<trkpt lat="45.9433680" lon="9.5745310">
	<ele>1757.60</ele>
	<time>2023-10-07T08:33:57.000Z</time>
</trkpt>
<trkpt lat="45.9433600" lon="9.5745230">
	<ele>1757.40</ele>
	<time>2023-10-07T08:33:58.000Z</time>
</trkpt>
<trkpt lat="45.9433500" lon="9.5745120">
	<ele>1757.20</ele>
	<time>2023-10-07T08:33:59.000Z</time>
</trkpt>
<trkpt lat="45.9433400" lon="9.5744960">
	<ele>1757.00</ele>
	<time>2023-10-07T08:34:00.000Z</time>
</trkpt>
<trkpt lat="45.9433330" lon="9.5744810">
	<ele>1756.80</ele>
	<time>2023-10-07T08:34:01.000Z</time>
</trkpt>
<trkpt lat="45.9433260" lon="9.5744650">
	<ele>1756.80</ele>
	<time>2023-10-07T08:34:02.000Z</time>
</trkpt>
<trkpt lat="45.9433170" lon="9.5744500">
	<ele>1756.60</ele>
	<time>2023-10-07T08:34:03.000Z</time>
</trkpt>
<trkpt lat="45.9433080" lon="9.5744350">
	<ele>1756.40</ele>
	<time>2023-10-07T08:34:04.000Z</time>
</trkpt>
<trkpt lat="45.9432990" lon="9.5744190">
	<ele>1756.40</ele>
	<time>2023-10-07T08:34:05.000Z</time>
</trkpt>
<trkpt lat="45.9432900" lon="9.5744050">
	<ele>1756.20</ele>
	<time>2023-10-07T08:34:06.000Z</time>
</trkpt>
<trkpt lat="45.9432790" lon="9.5743940">
	<ele>1756.20</ele>
	<time>2023-10-07T08:34:07.000Z</time>
</trkpt>
<trkpt lat="45.9432750" lon="9.5743950">
	<ele>1755.80</ele>
	<time>2023-10-07T08:34:08.000Z</time>
</trkpt>
<trkpt lat="45.9432680" lon="9.5743950">
	<ele>1755.60</ele>
	<time>2023-10-07T08:34:09.000Z</time>
</trkpt>
<trkpt lat="45.9432630" lon="9.5743930">
	<ele>1755.40</ele>
	<time>2023-10-07T08:34:10.000Z</time>
</trkpt>
<trkpt lat="45.9432580" lon="9.5743890">
	<ele>1755.40</ele>
	<time>2023-10-07T08:34:11.000Z</time>
</trkpt>
<trkpt lat="45.9432520" lon="9.5743830">
	<ele>1755.20</ele>
	<time>2023-10-07T08:34:12.000Z</time>
</trkpt>
<trkpt lat="45.9432470" lon="9.5743740">
	<ele>1754.80</ele>
	<time>2023-10-07T08:34:13.000Z</time>
</trkpt>
<trkpt lat="45.9432430" lon="9.5743670">
	<ele>1754.60</ele>
	<time>2023-10-07T08:34:14.000Z</time>
</trkpt>
<trkpt lat="45.9432390" lon="9.5743580">
	<ele>1754.40</ele>
	<time>2023-10-07T08:34:15.000Z</time>
</trkpt>
<trkpt lat="45.9432330" lon="9.5743490">
	<ele>1754.20</ele>
	<time>2023-10-07T08:34:16.000Z</time>
</trkpt>
<trkpt lat="45.9432250" lon="9.5743440">
	<ele>1754.00</ele>
	<time>2023-10-07T08:34:17.000Z</time>
</trkpt>
<trkpt lat="45.9432170" lon="9.5743410">
	<ele>1753.40</ele>
	<time>2023-10-07T08:34:18.000Z</time>
</trkpt>
<trkpt lat="45.9432060" lon="9.5743380">
	<ele>1753.00</ele>
	<time>2023-10-07T08:34:19.000Z</time>
</trkpt>
<trkpt lat="45.9432010" lon="9.5743330">
	<ele>1752.80</ele>
	<time>2023-10-07T08:34:20.000Z</time>
</trkpt>
<trkpt lat="45.9431930" lon="9.5743280">
	<ele>1752.60</ele>
	<time>2023-10-07T08:34:21.000Z</time>
</trkpt>
<trkpt lat="45.9431860" lon="9.5743230">
	<ele>1752.60</ele>
	<time>2023-10-07T08:34:22.000Z</time>
</trkpt>
<trkpt lat="45.9431780" lon="9.5743190">
	<ele>1752.20</ele>
	<time>2023-10-07T08:34:23.000Z</time>
</trkpt>
<trkpt lat="45.9431720" lon="9.5743170">
	<ele>1752.00</ele>
	<time>2023-10-07T08:34:24.000Z</time>
</trkpt>
<trkpt lat="45.9431640" lon="9.5743150">
	<ele>1751.80</ele>
	<time>2023-10-07T08:34:25.000Z</time>
</trkpt>
<trkpt lat="45.9431510" lon="9.5743150">
	<ele>1751.60</ele>
	<time>2023-10-07T08:34:26.000Z</time>
</trkpt>
<trkpt lat="45.9431420" lon="9.5743130">
	<ele>1751.20</ele>
	<time>2023-10-07T08:34:27.000Z</time>
</trkpt>
<trkpt lat="45.9431370" lon="9.5743030">
	<ele>1751.00</ele>
	<time>2023-10-07T08:34:28.000Z</time>
</trkpt>
<trkpt lat="45.9431330" lon="9.5742880">
	<ele>1750.80</ele>
	<time>2023-10-07T08:34:29.000Z</time>
</trkpt>
<trkpt lat="45.9431290" lon="9.5742750">
	<ele>1750.60</ele>
	<time>2023-10-07T08:34:30.000Z</time>
</trkpt>
<trkpt lat="45.9431250" lon="9.5742670">
	<ele>1750.40</ele>
	<time>2023-10-07T08:34:31.000Z</time>
</trkpt>
<trkpt lat="45.9431180" lon="9.5742560">
	<ele>1750.20</ele>
	<time>2023-10-07T08:34:32.000Z</time>
</trkpt>
<trkpt lat="45.9431130" lon="9.5742500">
	<ele>1750.00</ele>
	<time>2023-10-07T08:34:33.000Z</time>
</trkpt>
<trkpt lat="45.9431060" lon="9.5742400">
	<ele>1749.80</ele>
	<time>2023-10-07T08:34:34.000Z</time>
</trkpt>
<trkpt lat="45.9431030" lon="9.5742300">
	<ele>1749.40</ele>
	<time>2023-10-07T08:34:35.000Z</time>
</trkpt>
<trkpt lat="45.9430990" lon="9.5742190">
	<ele>1749.20</ele>
	<time>2023-10-07T08:34:36.000Z</time>
</trkpt>
<trkpt lat="45.9430970" lon="9.5742080">
	<ele>1749.00</ele>
	<time>2023-10-07T08:34:37.000Z</time>
</trkpt>
<trkpt lat="45.9430940" lon="9.5741990">
	<ele>1749.00</ele>
	<time>2023-10-07T08:34:38.000Z</time>
</trkpt>
<trkpt lat="45.9430880" lon="9.5741870">
	<ele>1748.80</ele>
	<time>2023-10-07T08:34:39.000Z</time>
</trkpt>
<trkpt lat="45.9430830" lon="9.5741780">
	<ele>1748.80</ele>
	<time>2023-10-07T08:34:40.000Z</time>
</trkpt>
<trkpt lat="45.9430760" lon="9.5741690">
	<ele>1748.60</ele>
	<time>2023-10-07T08:34:41.000Z</time>
</trkpt>
<trkpt lat="45.9430690" lon="9.5741610">
	<ele>1748.40</ele>
	<time>2023-10-07T08:34:42.000Z</time>
</trkpt>
<trkpt lat="45.9430640" lon="9.5741530">
	<ele>1748.20</ele>
	<time>2023-10-07T08:34:43.000Z</time>
</trkpt>
<trkpt lat="45.9430610" lon="9.5741410">
	<ele>1748.00</ele>
	<time>2023-10-07T08:34:44.000Z</time>
</trkpt>
<trkpt lat="45.9430570" lon="9.5741290">
	<ele>1747.80</ele>
	<time>2023-10-07T08:34:45.000Z</time>
</trkpt>
<trkpt lat="45.9430530" lon="9.5741220">
	<ele>1747.60</ele>
	<time>2023-10-07T08:34:46.000Z</time>
</trkpt>
<trkpt lat="45.9430480" lon="9.5741110">
	<ele>1747.60</ele>
	<time>2023-10-07T08:34:47.000Z</time>
</trkpt>
<trkpt lat="45.9430450" lon="9.5741000">
	<ele>1747.40</ele>
	<time>2023-10-07T08:34:48.000Z</time>
</trkpt>
<trkpt lat="45.9430420" lon="9.5740900">
	<ele>1747.20</ele>
	<time>2023-10-07T08:34:49.000Z</time>
</trkpt>
<trkpt lat="45.9430390" lon="9.5740810">
	<ele>1747.00</ele>
	<time>2023-10-07T08:34:50.000Z</time>
</trkpt>
<trkpt lat="45.9430330" lon="9.5740670">
	<ele>1747.00</ele>
	<time>2023-10-07T08:34:51.000Z</time>
</trkpt>
<trkpt lat="45.9430290" lon="9.5740570">
	<ele>1746.80</ele>
	<time>2023-10-07T08:34:52.000Z</time>
</trkpt>
<trkpt lat="45.9430230" lon="9.5740440">
	<ele>1746.60</ele>
	<time>2023-10-07T08:34:53.000Z</time>
</trkpt>
<trkpt lat="45.9430150" lon="9.5740310">
	<ele>1746.20</ele>
	<time>2023-10-07T08:34:54.000Z</time>
</trkpt>
<trkpt lat="45.9430100" lon="9.5740200">
	<ele>1746.00</ele>
	<time>2023-10-07T08:34:55.000Z</time>
</trkpt>
<trkpt lat="45.9430020" lon="9.5740110">
	<ele>1745.40</ele>
	<time>2023-10-07T08:34:56.000Z</time>
</trkpt>
<trkpt lat="45.9429960" lon="9.5740020">
	<ele>1745.20</ele>
	<time>2023-10-07T08:34:57.000Z</time>
</trkpt>
<trkpt lat="45.9429880" lon="9.5739920">
	<ele>1745.00</ele>
	<time>2023-10-07T08:34:58.000Z</time>
</trkpt>
<trkpt lat="45.9429830" lon="9.5739840">
	<ele>1744.80</ele>
	<time>2023-10-07T08:34:59.000Z</time>
</trkpt>
<trkpt lat="45.9429800" lon="9.5739750">
	<ele>1744.60</ele>
	<time>2023-10-07T08:35:00.000Z</time>
</trkpt>
<trkpt lat="45.9429760" lon="9.5739650">
	<ele>1744.40</ele>
	<time>2023-10-07T08:35:01.000Z</time>
</trkpt>
<trkpt lat="45.9429690" lon="9.5739550">
	<ele>1744.20</ele>
	<time>2023-10-07T08:35:02.000Z</time>
</trkpt>
<trkpt lat="45.9429620" lon="9.5739460">
	<ele>1744.00</ele>
	<time>2023-10-07T08:35:03.000Z</time>
</trkpt>
<trkpt lat="45.9429540" lon="9.5739390">
	<ele>1743.80</ele>
	<time>2023-10-07T08:35:04.000Z</time>
</trkpt>
<trkpt lat="45.9429450" lon="9.5739320">
	<ele>1743.20</ele>
	<time>2023-10-07T08:35:05.000Z</time>
</trkpt>
<trkpt lat="45.9429370" lon="9.5739240">
	<ele>1742.80</ele>
	<time>2023-10-07T08:35:06.000Z</time>
</trkpt>
<trkpt lat="45.9429300" lon="9.5739200">
	<ele>1742.60</ele>
	<time>2023-10-07T08:35:07.000Z</time>
</trkpt>
<trkpt lat="45.9429230" lon="9.5739150">
	<ele>1742.20</ele>
	<time>2023-10-07T08:35:08.000Z</time>
</trkpt>
<trkpt lat="45.9429190" lon="9.5739120">
	<ele>1742.00</ele>
	<time>2023-10-07T08:35:09.000Z</time>
</trkpt>
<trkpt lat="45.9429100" lon="9.5739100">
	<ele>1741.80</ele>
	<time>2023-10-07T08:35:10.000Z</time>
</trkpt>
<trkpt lat="45.9429020" lon="9.5739050">
	<ele>1741.60</ele>
	<time>2023-10-07T08:35:11.000Z</time>
</trkpt>
<trkpt lat="45.9428930" lon="9.5739030">
	<ele>1741.40</ele>
	<time>2023-10-07T08:35:12.000Z</time>
</trkpt>
<trkpt lat="45.9428860" lon="9.5739000">
	<ele>1741.40</ele>
	<time>2023-10-07T08:35:13.000Z</time>
</trkpt>
<trkpt lat="45.9428800" lon="9.5738960">
	<ele>1741.00</ele>
	<time>2023-10-07T08:35:14.000Z</time>
</trkpt>
<trkpt lat="45.9428730" lon="9.5738930">
	<ele>1740.80</ele>
	<time>2023-10-07T08:35:15.000Z</time>
</trkpt>
<trkpt lat="45.9428670" lon="9.5738930">
	<ele>1740.40</ele>
	<time>2023-10-07T08:35:16.000Z</time>
</trkpt>
<trkpt lat="45.9428610" lon="9.5738930">
	<ele>1740.20</ele>
	<time>2023-10-07T08:35:17.000Z</time>
</trkpt>
<trkpt lat="45.9428570" lon="9.5738940">
	<ele>1740.00</ele>
	<time>2023-10-07T08:35:18.000Z</time>
</trkpt>
<trkpt lat="45.9428520" lon="9.5738960">
	<ele>1739.80</ele>
	<time>2023-10-07T08:35:19.000Z</time>
</trkpt>
<trkpt lat="45.9428440" lon="9.5738990">
	<ele>1739.60</ele>
	<time>2023-10-07T08:35:20.000Z</time>
</trkpt>
<trkpt lat="45.9428370" lon="9.5739020">
	<ele>1739.20</ele>
	<time>2023-10-07T08:35:21.000Z</time>
</trkpt>
<trkpt lat="45.9428290" lon="9.5739040">
	<ele>1739.00</ele>
	<time>2023-10-07T08:35:22.000Z</time>
</trkpt>
<trkpt lat="45.9428190" lon="9.5739030">
	<ele>1738.80</ele>
	<time>2023-10-07T08:35:23.000Z</time>
</trkpt>
<trkpt lat="45.9428120" lon="9.5738980">
	<ele>1738.60</ele>
	<time>2023-10-07T08:35:24.000Z</time>
</trkpt>
<trkpt lat="45.9428050" lon="9.5738900">
	<ele>1738.40</ele>
	<time>2023-10-07T08:35:25.000Z</time>
</trkpt>
<trkpt lat="45.9427990" lon="9.5738800">
	<ele>1738.20</ele>
	<time>2023-10-07T08:35:26.000Z</time>
</trkpt>
<trkpt lat="45.9427930" lon="9.5738730">
	<ele>1738.20</ele>
	<time>2023-10-07T08:35:27.000Z</time>
</trkpt>
<trkpt lat="45.9427870" lon="9.5738650">
	<ele>1737.80</ele>
	<time>2023-10-07T08:35:28.000Z</time>
</trkpt>
<trkpt lat="45.9427820" lon="9.5738570">
	<ele>1737.60</ele>
	<time>2023-10-07T08:35:29.000Z</time>
</trkpt>
<trkpt lat="45.9427770" lon="9.5738500">
	<ele>1737.40</ele>
	<time>2023-10-07T08:35:30.000Z</time>
</trkpt>
<trkpt lat="45.9427740" lon="9.5738440">
	<ele>1737.20</ele>
	<time>2023-10-07T08:35:31.000Z</time>
</trkpt>
<trkpt lat="45.9427680" lon="9.5738430">
	<ele>1737.00</ele>
	<time>2023-10-07T08:35:32.000Z</time>
</trkpt>
<trkpt lat="45.9427620" lon="9.5738420">
	<ele>1736.80</ele>
	<time>2023-10-07T08:35:33.000Z</time>
</trkpt>
<trkpt lat="45.9427560" lon="9.5738430">
	<ele>1736.40</ele>
	<time>2023-10-07T08:35:34.000Z</time>
</trkpt>
<trkpt lat="45.9427490" lon="9.5738450">
	<ele>1736.20</ele>
	<time>2023-10-07T08:35:35.000Z</time>
</trkpt>
<trkpt lat="45.9427420" lon="9.5738440">
	<ele>1736.00</ele>
	<time>2023-10-07T08:35:36.000Z</time>
</trkpt>
<trkpt lat="45.9427340" lon="9.5738430">
	<ele>1735.60</ele>
	<time>2023-10-07T08:35:37.000Z</time>
</trkpt>
<trkpt lat="45.9427260" lon="9.5738400">
	<ele>1735.40</ele>
	<time>2023-10-07T08:35:38.000Z</time>
</trkpt>
<trkpt lat="45.9427200" lon="9.5738350">
	<ele>1735.20</ele>
	<time>2023-10-07T08:35:39.000Z</time>
</trkpt>
<trkpt lat="45.9427160" lon="9.5738250">
	<ele>1735.00</ele>
	<time>2023-10-07T08:35:40.000Z</time>
</trkpt>
<trkpt lat="45.9427140" lon="9.5738160">
	<ele>1734.80</ele>
	<time>2023-10-07T08:35:41.000Z</time>
</trkpt>
<trkpt lat="45.9427100" lon="9.5738100">
	<ele>1734.60</ele>
	<time>2023-10-07T08:35:42.000Z</time>
</trkpt>
<trkpt lat="45.9427050" lon="9.5738050">
	<ele>1734.20</ele>
	<time>2023-10-07T08:35:43.000Z</time>
</trkpt>
<trkpt lat="45.9427000" lon="9.5738020">
	<ele>1733.80</ele>
	<time>2023-10-07T08:35:44.000Z</time>
</trkpt>
<trkpt lat="45.9426940" lon="9.5738010">
	<ele>1733.60</ele>
	<time>2023-10-07T08:35:45.000Z</time>
</trkpt>
<trkpt lat="45.9426890" lon="9.5738000">
	<ele>1733.40</ele>
	<time>2023-10-07T08:35:46.000Z</time>
</trkpt>
<trkpt lat="45.9426850" lon="9.5737990">
	<ele>1733.20</ele>
	<time>2023-10-07T08:35:47.000Z</time>
</trkpt>
<trkpt lat="45.9426780" lon="9.5738000">
	<ele>1733.00</ele>
	<time>2023-10-07T08:35:48.000Z</time>
</trkpt>
<trkpt lat="45.9426690" lon="9.5738000">
	<ele>1732.60</ele>
	<time>2023-10-07T08:35:49.000Z</time>
</trkpt>
<trkpt lat="45.9426630" lon="9.5738000">
	<ele>1732.20</ele>
	<time>2023-10-07T08:35:50.000Z</time>
</trkpt>
<trkpt lat="45.9426570" lon="9.5738010">
	<ele>1732.00</ele>
	<time>2023-10-07T08:35:51.000Z</time>
</trkpt>
<trkpt lat="45.9426520" lon="9.5738050">
	<ele>1731.80</ele>
	<time>2023-10-07T08:35:52.000Z</time>
</trkpt>
<trkpt lat="45.9426470" lon="9.5738030">
	<ele>1731.60</ele>
	<time>2023-10-07T08:35:53.000Z</time>
</trkpt>
<trkpt lat="45.9426410" lon="9.5738000">
	<ele>1731.40</ele>
	<time>2023-10-07T08:35:54.000Z</time>
</trkpt>
<trkpt lat="45.9426370" lon="9.5737960">
	<ele>1731.20</ele>
	<time>2023-10-07T08:35:55.000Z</time>
</trkpt>
<trkpt lat="45.9426310" lon="9.5737890">
	<ele>1731.00</ele>
	<time>2023-10-07T08:35:56.000Z</time>
</trkpt>
<trkpt lat="45.9426270" lon="9.5737820">
	<ele>1730.60</ele>
	<time>2023-10-07T08:35:57.000Z</time>
</trkpt>
<trkpt lat="45.9426230" lon="9.5737720">
	<ele>1730.40</ele>
	<time>2023-10-07T08:35:58.000Z</time>
</trkpt>
<trkpt lat="45.9426200" lon="9.5737640">
	<ele>1730.20</ele>
	<time>2023-10-07T08:35:59.000Z</time>
</trkpt>
<trkpt lat="45.9426160" lon="9.5737560">
	<ele>1730.00</ele>
	<time>2023-10-07T08:36:00.000Z</time>
</trkpt>
<trkpt lat="45.9426140" lon="9.5737500">
	<ele>1729.80</ele>
	<time>2023-10-07T08:36:01.000Z</time>
</trkpt>
<trkpt lat="45.9426100" lon="9.5737410">
	<ele>1729.60</ele>
	<time>2023-10-07T08:36:02.000Z</time>
</trkpt>
<trkpt lat="45.9426050" lon="9.5737340">
	<ele>1729.00</ele>
	<time>2023-10-07T08:36:03.000Z</time>
</trkpt>
<trkpt lat="45.9426010" lon="9.5737270">
	<ele>1728.80</ele>
	<time>2023-10-07T08:36:04.000Z</time>
</trkpt>
<trkpt lat="45.9425970" lon="9.5737190">
	<ele>1728.40</ele>
	<time>2023-10-07T08:36:05.000Z</time>
</trkpt>
<trkpt lat="45.9425910" lon="9.5737090">
	<ele>1728.20</ele>
	<time>2023-10-07T08:36:06.000Z</time>
</trkpt>
<trkpt lat="45.9425850" lon="9.5737010">
	<ele>1728.00</ele>
	<time>2023-10-07T08:36:07.000Z</time>
</trkpt>
<trkpt lat="45.9425840" lon="9.5736950">
	<ele>1728.00</ele>
	<time>2023-10-07T08:36:08.000Z</time>
</trkpt>
<trkpt lat="45.9425820" lon="9.5736860">
	<ele>1727.80</ele>
	<time>2023-10-07T08:36:09.000Z</time>
</trkpt>
<trkpt lat="45.9425790" lon="9.5736810">
	<ele>1727.40</ele>
	<time>2023-10-07T08:36:10.000Z</time>
</trkpt>
<trkpt lat="45.9425740" lon="9.5736770">
	<ele>1727.20</ele>
	<time>2023-10-07T08:36:11.000Z</time>
</trkpt>
<trkpt lat="45.9425680" lon="9.5736740">
	<ele>1727.00</ele>
	<time>2023-10-07T08:36:12.000Z</time>
</trkpt>
<trkpt lat="45.9425620" lon="9.5736680">
	<ele>1726.80</ele>
	<time>2023-10-07T08:36:13.000Z</time>
</trkpt>
<trkpt lat="45.9425580" lon="9.5736610">
	<ele>1726.60</ele>
	<time>2023-10-07T08:36:14.000Z</time>
</trkpt>
<trkpt lat="45.9425540" lon="9.5736550">
	<ele>1726.20</ele>
	<time>2023-10-07T08:36:15.000Z</time>
</trkpt>
<trkpt lat="45.9425480" lon="9.5736520">
	<ele>1726.20</ele>
	<time>2023-10-07T08:36:16.000Z</time>
</trkpt>
<trkpt lat="45.9425400" lon="9.5736490">
	<ele>1726.00</ele>
	<time>2023-10-07T08:36:17.000Z</time>
</trkpt>
<trkpt lat="45.9425330" lon="9.5736470">
	<ele>1725.80</ele>
	<time>2023-10-07T08:36:18.000Z</time>
</trkpt>
<trkpt lat="45.9425260" lon="9.5736490">
	<ele>1725.20</ele>
	<time>2023-10-07T08:36:19.000Z</time>
</trkpt>
<trkpt lat="45.9425200" lon="9.5736470">
	<ele>1724.80</ele>
	<time>2023-10-07T08:36:20.000Z</time>
</trkpt>
<trkpt lat="45.9425150" lon="9.5736430">
	<ele>1724.60</ele>
	<time>2023-10-07T08:36:21.000Z</time>
</trkpt>
<trkpt lat="45.9425090" lon="9.5736380">
	<ele>1724.40</ele>
	<time>2023-10-07T08:36:22.000Z</time>
</trkpt>
<trkpt lat="45.9425050" lon="9.5736370">
	<ele>1724.20</ele>
	<time>2023-10-07T08:36:23.000Z</time>
</trkpt>
<trkpt lat="45.9425000" lon="9.5736320">
	<ele>1724.00</ele>
	<time>2023-10-07T08:36:24.000Z</time>
</trkpt>
<trkpt lat="45.9424940" lon="9.5736260">
	<ele>1723.80</ele>
	<time>2023-10-07T08:36:25.000Z</time>
</trkpt>
<trkpt lat="45.9424900" lon="9.5736220">
	<ele>1723.60</ele>
	<time>2023-10-07T08:36:26.000Z</time>
</trkpt>
<trkpt lat="45.9424840" lon="9.5736190">
	<ele>1723.40</ele>
	<time>2023-10-07T08:36:27.000Z</time>
</trkpt>
<trkpt lat="45.9424750" lon="9.5736180">
	<ele>1723.00</ele>
	<time>2023-10-07T08:36:28.000Z</time>
</trkpt>
<trkpt lat="45.9424670" lon="9.5736200">
	<ele>1722.60</ele>
	<time>2023-10-07T08:36:29.000Z</time>
</trkpt>
<trkpt lat="45.9424600" lon="9.5736180">
	<ele>1722.40</ele>
	<time>2023-10-07T08:36:30.000Z</time>
</trkpt>
<trkpt lat="45.9424560" lon="9.5736160">
	<ele>1722.20</ele>
	<time>2023-10-07T08:36:31.000Z</time>
</trkpt>
<trkpt lat="45.9424500" lon="9.5736120">
	<ele>1722.00</ele>
	<time>2023-10-07T08:36:32.000Z</time>
</trkpt>
<trkpt lat="45.9424470" lon="9.5736070">
	<ele>1721.80</ele>
	<time>2023-10-07T08:36:33.000Z</time>
</trkpt>
<trkpt lat="45.9424430" lon="9.5736030">
	<ele>1721.40</ele>
	<time>2023-10-07T08:36:34.000Z</time>
</trkpt>
<trkpt lat="45.9424400" lon="9.5736040">
	<ele>1721.20</ele>
	<time>2023-10-07T08:36:35.000Z</time>
</trkpt>
<trkpt lat="45.9424380" lon="9.5736100">
	<ele>1721.20</ele>
	<time>2023-10-07T08:36:36.000Z</time>
</trkpt>
<trkpt lat="45.9424310" lon="9.5736120">
	<ele>1721.00</ele>
	<time>2023-10-07T08:36:37.000Z</time>
</trkpt>
<trkpt lat="45.9424220" lon="9.5736150">
	<ele>1720.60</ele>
	<time>2023-10-07T08:36:38.000Z</time>
</trkpt>
<trkpt lat="45.9424160" lon="9.5736140">
	<ele>1720.20</ele>
	<time>2023-10-07T08:36:39.000Z</time>
</trkpt>
<trkpt lat="45.9424120" lon="9.5736120">
	<ele>1720.00</ele>
	<time>2023-10-07T08:36:40.000Z</time>
</trkpt>
<trkpt lat="45.9424100" lon="9.5736060">
	<ele>1719.80</ele>
	<time>2023-10-07T08:36:41.000Z</time>
</trkpt>
<trkpt lat="45.9424080" lon="9.5735980">
	<ele>1719.60</ele>
	<time>2023-10-07T08:36:42.000Z</time>
</trkpt>
<trkpt lat="45.9424050" lon="9.5735930">
	<ele>1719.40</ele>
	<time>2023-10-07T08:36:43.000Z</time>
</trkpt>
<trkpt lat="45.9424000" lon="9.5735880">
	<ele>1719.20</ele>
	<time>2023-10-07T08:36:44.000Z</time>
</trkpt>
<trkpt lat="45.9423910" lon="9.5735860">
	<ele>1719.00</ele>
	<time>2023-10-07T08:36:45.000Z</time>
</trkpt>
<trkpt lat="45.9423830" lon="9.5735830">
	<ele>1718.80</ele>
	<time>2023-10-07T08:36:46.000Z</time>
</trkpt>
<trkpt lat="45.9423800" lon="9.5735750">
	<ele>1718.60</ele>
	<time>2023-10-07T08:36:47.000Z</time>
</trkpt>
<trkpt lat="45.9423750" lon="9.5735730">
	<ele>1718.20</ele>
	<time>2023-10-07T08:36:48.000Z</time>
</trkpt>
<trkpt lat="45.9423670" lon="9.5735740">
	<ele>1718.00</ele>
	<time>2023-10-07T08:36:49.000Z</time>
</trkpt>
<trkpt lat="45.9423610" lon="9.5735720">
	<ele>1717.80</ele>
	<time>2023-10-07T08:36:50.000Z</time>
</trkpt>
<trkpt lat="45.9423530" lon="9.5735690">
	<ele>1717.60</ele>
	<time>2023-10-07T08:36:51.000Z</time>
</trkpt>
<trkpt lat="45.9423450" lon="9.5735640">
	<ele>1717.40</ele>
	<time>2023-10-07T08:36:52.000Z</time>
</trkpt>
<trkpt lat="45.9423380" lon="9.5735600">
	<ele>1717.00</ele>
	<time>2023-10-07T08:36:53.000Z</time>
</trkpt>
<trkpt lat="45.9423300" lon="9.5735590">
	<ele>1716.80</ele>
	<time>2023-10-07T08:36:54.000Z</time>
</trkpt>
<trkpt lat="45.9423220" lon="9.5735590">
	<ele>1716.60</ele>
	<time>2023-10-07T08:36:55.000Z</time>
</trkpt>
<trkpt lat="45.9423140" lon="9.5735570">
	<ele>1716.40</ele>
	<time>2023-10-07T08:36:56.000Z</time>
</trkpt>
<trkpt lat="45.9423060" lon="9.5735550">
	<ele>1716.00</ele>
	<time>2023-10-07T08:36:57.000Z</time>
</trkpt>
<trkpt lat="45.9423010" lon="9.5735570">
	<ele>1715.80</ele>
	<time>2023-10-07T08:36:58.000Z</time>
</trkpt>
<trkpt lat="45.9422930" lon="9.5735630">
	<ele>1715.60</ele>
	<time>2023-10-07T08:36:59.000Z</time>
</trkpt>
<trkpt lat="45.9422850" lon="9.5735650">
	<ele>1715.20</ele>
	<time>2023-10-07T08:37:00.000Z</time>
</trkpt>
<trkpt lat="45.9422790" lon="9.5735630">
	<ele>1715.00</ele>
	<time>2023-10-07T08:37:01.000Z</time>
</trkpt>
<trkpt lat="45.9422730" lon="9.5735590">
	<ele>1714.60</ele>
	<time>2023-10-07T08:37:02.000Z</time>
</trkpt>
<trkpt lat="45.9422640" lon="9.5735520">
	<ele>1714.40</ele>
	<time>2023-10-07T08:37:03.000Z</time>
</trkpt>
<trkpt lat="45.9422560" lon="9.5735470">
	<ele>1714.40</ele>
	<time>2023-10-07T08:37:04.000Z</time>
</trkpt>
<trkpt lat="45.9422490" lon="9.5735430">
	<ele>1714.00</ele>
	<time>2023-10-07T08:37:05.000Z</time>
</trkpt>
<trkpt lat="45.9422440" lon="9.5735420">
	<ele>1713.80</ele>
	<time>2023-10-07T08:37:06.000Z</time>
</trkpt>
<trkpt lat="45.9422400" lon="9.5735410">
	<ele>1713.60</ele>
	<time>2023-10-07T08:37:07.000Z</time>
</trkpt>
<trkpt lat="45.9422340" lon="9.5735410">
	<ele>1713.40</ele>
	<time>2023-10-07T08:37:08.000Z</time>
</trkpt>
<trkpt lat="45.9422260" lon="9.5735410">
	<ele>1713.20</ele>
	<time>2023-10-07T08:37:09.000Z</time>
</trkpt>
<trkpt lat="45.9422160" lon="9.5735390">
	<ele>1713.00</ele>
	<time>2023-10-07T08:37:10.000Z</time>
</trkpt>
<trkpt lat="45.9422090" lon="9.5735380">
	<ele>1712.80</ele>
	<time>2023-10-07T08:37:11.000Z</time>
</trkpt>
<trkpt lat="45.9421990" lon="9.5735390">
	<ele>1712.80</ele>
	<time>2023-10-07T08:37:12.000Z</time>
</trkpt>
<trkpt lat="45.9421900" lon="9.5735360">
	<ele>1712.40</ele>
	<time>2023-10-07T08:37:13.000Z</time>
</trkpt>
<trkpt lat="45.9421850" lon="9.5735370">
	<ele>1712.20</ele>
	<time>2023-10-07T08:37:14.000Z</time>
</trkpt>
<trkpt lat="45.9421780" lon="9.5735390">
	<ele>1711.80</ele>
	<time>2023-10-07T08:37:15.000Z</time>
</trkpt>
<trkpt lat="45.9421680" lon="9.5735420">
	<ele>1711.60</ele>
	<time>2023-10-07T08:37:16.000Z</time>
</trkpt>
<trkpt lat="45.9421570" lon="9.5735470">
	<ele>1711.40</ele>
	<time>2023-10-07T08:37:17.000Z</time>
</trkpt>
<trkpt lat="45.9421520" lon="9.5735490">
	<ele>1711.20</ele>
	<time>2023-10-07T08:37:18.000Z</time>
</trkpt>
<trkpt lat="45.9421510" lon="9.5735480">
	<ele>1710.80</ele>
	<time>2023-10-07T08:37:19.000Z</time>
</trkpt>
<trkpt lat="45.9421470" lon="9.5735510">
	<ele>1710.60</ele>
	<time>2023-10-07T08:37:20.000Z</time>
</trkpt>
<trkpt lat="45.9421380" lon="9.5735510">
	<ele>1710.40</ele>
	<time>2023-10-07T08:37:21.000Z</time>
</trkpt>
<trkpt lat="45.9421290" lon="9.5735480">
	<ele>1710.00</ele>
	<time>2023-10-07T08:37:22.000Z</time>
</trkpt>
<trkpt lat="45.9421220" lon="9.5735510">
	<ele>1709.80</ele>
	<time>2023-10-07T08:37:23.000Z</time>
</trkpt>
<trkpt lat="45.9421170" lon="9.5735530">
	<ele>1709.60</ele>
	<time>2023-10-07T08:37:24.000Z</time>
</trkpt>
<trkpt lat="45.9421130" lon="9.5735600">
	<ele>1709.20</ele>
	<time>2023-10-07T08:37:25.000Z</time>
</trkpt>
<trkpt lat="45.9421000" lon="9.5735650">
	<ele>1709.00</ele>
	<time>2023-10-07T08:37:26.000Z</time>
</trkpt>
<trkpt lat="45.9420870" lon="9.5735660">
	<ele>1709.00</ele>
	<time>2023-10-07T08:37:27.000Z</time>
</trkpt>
<trkpt lat="45.9420780" lon="9.5735690">
	<ele>1708.80</ele>
	<time>2023-10-07T08:37:28.000Z</time>
</trkpt>
<trkpt lat="45.9420630" lon="9.5735690">
	<ele>1708.60</ele>
	<time>2023-10-07T08:37:29.000Z</time>
</trkpt>
<trkpt lat="45.9420520" lon="9.5735670">
	<ele>1708.40</ele>
	<time>2023-10-07T08:37:30.000Z</time>
</trkpt>
<trkpt lat="45.9420460" lon="9.5735720">
	<ele>1708.20</ele>
	<time>2023-10-07T08:37:31.000Z</time>
</trkpt>
<trkpt lat="45.9420370" lon="9.5735740">
	<ele>1708.00</ele>
	<time>2023-10-07T08:37:32.000Z</time>
</trkpt>
<trkpt lat="45.9420320" lon="9.5735770">
	<ele>1708.00</ele>
	<time>2023-10-07T08:37:33.000Z</time>
</trkpt>
<trkpt lat="45.9420230" lon="9.5735770">
	<ele>1707.80</ele>
	<time>2023-10-07T08:37:34.000Z</time>
</trkpt>
<trkpt lat="45.9420140" lon="9.5735760">
	<ele>1707.40</ele>
	<time>2023-10-07T08:37:35.000Z</time>
</trkpt>
<trkpt lat="45.9420070" lon="9.5735700">
	<ele>1707.40</ele>
	<time>2023-10-07T08:37:36.000Z</time>
</trkpt>
<trkpt lat="45.9420020" lon="9.5735630">
	<ele>1707.20</ele>
	<time>2023-10-07T08:37:37.000Z</time>
</trkpt>
<trkpt lat="45.9419990" lon="9.5735590">
	<ele>1707.00</ele>
	<time>2023-10-07T08:37:38.000Z</time>
</trkpt>
<trkpt lat="45.9419920" lon="9.5735490">
	<ele>1706.80</ele>
	<time>2023-10-07T08:37:39.000Z</time>
</trkpt>
<trkpt lat="45.9419870" lon="9.5735400">
	<ele>1706.60</ele>
	<time>2023-10-07T08:37:40.000Z</time>
</trkpt>
<trkpt lat="45.9419840" lon="9.5735300">
	<ele>1706.40</ele>
	<time>2023-10-07T08:37:41.000Z</time>
</trkpt>
<trkpt lat="45.9419800" lon="9.5735240">
	<ele>1706.20</ele>
	<time>2023-10-07T08:37:42.000Z</time>
</trkpt>
<trkpt lat="45.9419720" lon="9.5735210">
	<ele>1705.80</ele>
	<time>2023-10-07T08:37:43.000Z</time>
</trkpt>
<trkpt lat="45.9419610" lon="9.5735200">
	<ele>1705.60</ele>
	<time>2023-10-07T08:37:44.000Z</time>
</trkpt>
<trkpt lat="45.9419550" lon="9.5735160">
	<ele>1705.20</ele>
	<time>2023-10-07T08:37:45.000Z</time>
</trkpt>
<trkpt lat="45.9419470" lon="9.5735160">
	<ele>1705.20</ele>
	<time>2023-10-07T08:37:46.000Z</time>
</trkpt>
<trkpt lat="45.9419390" lon="9.5735140">
	<ele>1704.80</ele>
	<time>2023-10-07T08:37:47.000Z</time>
</trkpt>
<trkpt lat="45.9419320" lon="9.5735140">
	<ele>1704.80</ele>
	<time>2023-10-07T08:37:48.000Z</time>
</trkpt>
<trkpt lat="45.9419220" lon="9.5735140">
	<ele>1704.60</ele>
	<time>2023-10-07T08:37:49.000Z</time>
</trkpt>
<trkpt lat="45.9419150" lon="9.5735100">
	<ele>1704.20</ele>
	<time>2023-10-07T08:37:50.000Z</time>
</trkpt>
<trkpt lat="45.9419110" lon="9.5735060">
	<ele>1703.80</ele>
	<time>2023-10-07T08:37:51.000Z</time>
</trkpt>
<trkpt lat="45.9419060" lon="9.5735000">
	<ele>1703.60</ele>
	<time>2023-10-07T08:37:52.000Z</time>
</trkpt>
<trkpt lat="45.9419010" lon="9.5734920">
	<ele>1703.40</ele>
	<time>2023-10-07T08:37:53.000Z</time>
</trkpt>
<trkpt lat="45.9418990" lon="9.5734900">
	<ele>1703.00</ele>
	<time>2023-10-07T08:37:54.000Z</time>
</trkpt>
<trkpt lat="45.9418990" lon="9.5734890">
	<ele>1702.80</ele>
	<time>2023-10-07T08:37:55.000Z</time>
</trkpt>
<trkpt lat="45.9418990" lon="9.5734880">
	<ele>1702.80</ele>
	<time>2023-10-07T08:37:56.000Z</time>
</trkpt>
<trkpt lat="45.9418990" lon="9.5734880">
	<ele>1702.60</ele>
	<time>2023-10-07T08:37:57.000Z</time>
</trkpt>
<trkpt lat="45.9418990" lon="9.5734870">
	<ele>1702.60</ele>
	<time>2023-10-07T08:37:58.000Z</time>
</trkpt>
<trkpt lat="45.9418970" lon="9.5734870">
	<ele>1702.60</ele>
	<time>2023-10-07T08:37:59.000Z</time>
</trkpt>
<trkpt lat="45.9418970" lon="9.5734870">
	<ele>1702.80</ele>
	<time>2023-10-07T08:38:00.000Z</time>
</trkpt>
<trkpt lat="45.9418980" lon="9.5734870">
	<ele>1703.00</ele>
	<time>2023-10-07T08:38:01.000Z</time>
</trkpt>
<trkpt lat="45.9418980" lon="9.5734870">
	<ele>1703.00</ele>
	<time>2023-10-07T08:38:02.000Z</time>
</trkpt>
<trkpt lat="45.9418980" lon="9.5734860">
	<ele>1703.20</ele>
	<time>2023-10-07T08:38:03.000Z</time>
</trkpt>
<trkpt lat="45.9418980" lon="9.5734860">
	<ele>1703.20</ele>
	<time>2023-10-07T08:38:04.000Z</time>
</trkpt>
<trkpt lat="45.9418980" lon="9.5734860">
	<ele>1703.20</ele>
	<time>2023-10-07T08:38:05.000Z</time>
</trkpt>
<trkpt lat="45.9418980" lon="9.5734860">
	<ele>1703.20</ele>
	<time>2023-10-07T08:38:06.000Z</time>
</trkpt>
<trkpt lat="45.9418980" lon="9.5734860">
	<ele>1703.20</ele>
	<time>2023-10-07T08:38:07.000Z</time>
</trkpt>
<trkpt lat="45.9418980" lon="9.5734860">
	<ele>1703.20</ele>
	<time>2023-10-07T08:38:08.000Z</time>
</trkpt>
<trkpt lat="45.9418980" lon="9.5734860">
	<ele>1703.20</ele>
	<time>2023-10-07T08:38:09.000Z</time>
</trkpt>
<trkpt lat="45.9418980" lon="9.5734860">
	<ele>1703.00</ele>
	<time>2023-10-07T08:38:10.000Z</time>
</trkpt>
<trkpt lat="45.9418980" lon="9.5734860">
	<ele>1702.80</ele>
	<time>2023-10-07T08:38:11.000Z</time>
</trkpt>
<trkpt lat="45.9418980" lon="9.5734860">
	<ele>1702.40</ele>
	<time>2023-10-07T08:38:12.000Z</time>
</trkpt>
<trkpt lat="45.9418980" lon="9.5734860">
	<ele>1702.20</ele>
	<time>2023-10-07T08:38:13.000Z</time>
</trkpt>
<trkpt lat="45.9418980" lon="9.5734860">
	<ele>1701.80</ele>
	<time>2023-10-07T08:38:14.000Z</time>
</trkpt>
<trkpt lat="45.9418940" lon="9.5734850">
	<ele>1701.80</ele>
	<time>2023-10-07T08:38:15.000Z</time>
</trkpt>
<trkpt lat="45.9418820" lon="9.5734760">
	<ele>1701.40</ele>
	<time>2023-10-07T08:38:16.000Z</time>
</trkpt>
<trkpt lat="45.9418730" lon="9.5734650">
	<ele>1701.20</ele>
	<time>2023-10-07T08:38:17.000Z</time>
</trkpt>
<trkpt lat="45.9418670" lon="9.5734480">
	<ele>1700.80</ele>
	<time>2023-10-07T08:38:18.000Z</time>
</trkpt>
<trkpt lat="45.9418600" lon="9.5734350">
	<ele>1700.60</ele>
	<time>2023-10-07T08:38:19.000Z</time>
</trkpt>
<trkpt lat="45.9418530" lon="9.5734210">
	<ele>1700.60</ele>
	<time>2023-10-07T08:38:20.000Z</time>
</trkpt>
<trkpt lat="45.9418470" lon="9.5734060">
	<ele>1700.40</ele>
	<time>2023-10-07T08:38:21.000Z</time>
</trkpt>
<trkpt lat="45.9418420" lon="9.5733920">
	<ele>1700.20</ele>
	<time>2023-10-07T08:38:22.000Z</time>
</trkpt>
<trkpt lat="45.9418370" lon="9.5733770">
	<ele>1700.20</ele>
	<time>2023-10-07T08:38:23.000Z</time>
</trkpt>
<trkpt lat="45.9418350" lon="9.5733680">
	<ele>1700.00</ele>
	<time>2023-10-07T08:38:24.000Z</time>
</trkpt>
<trkpt lat="45.9418370" lon="9.5733640">
	<ele>1699.80</ele>
	<time>2023-10-07T08:38:25.000Z</time>
</trkpt>
<trkpt lat="45.9418370" lon="9.5733590">
	<ele>1699.60</ele>
	<time>2023-10-07T08:38:26.000Z</time>
</trkpt>
<trkpt lat="45.9418330" lon="9.5733530">
	<ele>1699.60</ele>
	<time>2023-10-07T08:38:27.000Z</time>
</trkpt>
<trkpt lat="45.9418260" lon="9.5733480">
	<ele>1699.60</ele>
	<time>2023-10-07T08:38:28.000Z</time>
</trkpt>
<trkpt lat="45.9418180" lon="9.5733450">
	<ele>1699.40</ele>
	<time>2023-10-07T08:38:29.000Z</time>
</trkpt>
<trkpt lat="45.9418110" lon="9.5733440">
	<ele>1699.00</ele>
	<time>2023-10-07T08:38:30.000Z</time>
</trkpt>
<trkpt lat="45.9418060" lon="9.5733440">
	<ele>1698.80</ele>
	<time>2023-10-07T08:38:31.000Z</time>
</trkpt>
<trkpt lat="45.9418020" lon="9.5733430">
	<ele>1698.60</ele>
	<time>2023-10-07T08:38:32.000Z</time>
</trkpt>
<trkpt lat="45.9417930" lon="9.5733410">
	<ele>1698.40</ele>
	<time>2023-10-07T08:38:33.000Z</time>
</trkpt>
<trkpt lat="45.9417840" lon="9.5733390">
	<ele>1698.20</ele>
	<time>2023-10-07T08:38:34.000Z</time>
</trkpt>
<trkpt lat="45.9417760" lon="9.5733370">
	<ele>1698.00</ele>
	<time>2023-10-07T08:38:35.000Z</time>
</trkpt>
<trkpt lat="45.9417680" lon="9.5733320">
	<ele>1697.80</ele>
	<time>2023-10-07T08:38:36.000Z</time>
</trkpt>
<trkpt lat="45.9417600" lon="9.5733280">
	<ele>1697.60</ele>
	<time>2023-10-07T08:38:37.000Z</time>
</trkpt>
<trkpt lat="45.9417510" lon="9.5733280">
	<ele>1697.20</ele>
	<time>2023-10-07T08:38:38.000Z</time>
</trkpt>
<trkpt lat="45.9417390" lon="9.5733280">
	<ele>1697.00</ele>
	<time>2023-10-07T08:38:39.000Z</time>
</trkpt>
<trkpt lat="45.9417300" lon="9.5733290">
	<ele>1696.80</ele>
	<time>2023-10-07T08:38:40.000Z</time>
</trkpt>
<trkpt lat="45.9417210" lon="9.5733260">
	<ele>1696.60</ele>
	<time>2023-10-07T08:38:41.000Z</time>
</trkpt>
<trkpt lat="45.9417130" lon="9.5733250">
	<ele>1696.20</ele>
	<time>2023-10-07T08:38:42.000Z</time>
</trkpt>
<trkpt lat="45.9417030" lon="9.5733230">
	<ele>1696.00</ele>
	<time>2023-10-07T08:38:43.000Z</time>
</trkpt>
<trkpt lat="45.9416920" lon="9.5733200">
	<ele>1695.80</ele>
	<time>2023-10-07T08:38:44.000Z</time>
</trkpt>
<trkpt lat="45.9416830" lon="9.5733130">
	<ele>1695.60</ele>
	<time>2023-10-07T08:38:45.000Z</time>
</trkpt>
<trkpt lat="45.9416740" lon="9.5733070">
	<ele>1695.40</ele>
	<time>2023-10-07T08:38:46.000Z</time>
</trkpt>
<trkpt lat="45.9416640" lon="9.5732980">
	<ele>1695.20</ele>
	<time>2023-10-07T08:38:47.000Z</time>
</trkpt>
<trkpt lat="45.9416540" lon="9.5732900">
	<ele>1695.00</ele>
	<time>2023-10-07T08:38:48.000Z</time>
</trkpt>
<trkpt lat="45.9416440" lon="9.5732870">
	<ele>1694.60</ele>
	<time>2023-10-07T08:38:49.000Z</time>
</trkpt>
<trkpt lat="45.9416330" lon="9.5732810">
	<ele>1694.60</ele>
	<time>2023-10-07T08:38:50.000Z</time>
</trkpt>
<trkpt lat="45.9416260" lon="9.5732780">
	<ele>1694.60</ele>
	<time>2023-10-07T08:38:51.000Z</time>
</trkpt>
<trkpt lat="45.9416180" lon="9.5732730">
	<ele>1694.20</ele>
	<time>2023-10-07T08:38:52.000Z</time>
</trkpt>
<trkpt lat="45.9416080" lon="9.5732670">
	<ele>1694.00</ele>
	<time>2023-10-07T08:38:53.000Z</time>
</trkpt>
<trkpt lat="45.9415960" lon="9.5732610">
	<ele>1694.00</ele>
	<time>2023-10-07T08:38:54.000Z</time>
</trkpt>
<trkpt lat="45.9415840" lon="9.5732530">
	<ele>1693.80</ele>
	<time>2023-10-07T08:38:55.000Z</time>
</trkpt>
<trkpt lat="45.9415690" lon="9.5732480">
	<ele>1693.60</ele>
	<time>2023-10-07T08:38:56.000Z</time>
</trkpt>
<trkpt lat="45.9415590" lon="9.5732380">
	<ele>1693.40</ele>
	<time>2023-10-07T08:38:57.000Z</time>
</trkpt>
<trkpt lat="45.9415480" lon="9.5732270">
	<ele>1693.20</ele>
	<time>2023-10-07T08:38:58.000Z</time>
</trkpt>
<trkpt lat="45.9415400" lon="9.5732150">
	<ele>1693.20</ele>
	<time>2023-10-07T08:38:59.000Z</time>
</trkpt>
<trkpt lat="45.9415330" lon="9.5732010">
	<ele>1693.00</ele>
	<time>2023-10-07T08:39:00.000Z</time>
</trkpt>
<trkpt lat="45.9415250" lon="9.5731870">
	<ele>1693.00</ele>
	<time>2023-10-07T08:39:01.000Z</time>
</trkpt>
<trkpt lat="45.9415140" lon="9.5731730">
	<ele>1693.00</ele>
	<time>2023-10-07T08:39:02.000Z</time>
</trkpt>
<trkpt lat="45.9415030" lon="9.5731640">
	<ele>1693.00</ele>
	<time>2023-10-07T08:39:03.000Z</time>
</trkpt>
<trkpt lat="45.9414930" lon="9.5731600">
	<ele>1693.00</ele>
	<time>2023-10-07T08:39:04.000Z</time>
</trkpt>
<trkpt lat="45.9414830" lon="9.5731550">
	<ele>1693.00</ele>
	<time>2023-10-07T08:39:05.000Z</time>
</trkpt>
<trkpt lat="45.9414710" lon="9.5731510">
	<ele>1693.00</ele>
	<time>2023-10-07T08:39:06.000Z</time>
</trkpt>
<trkpt lat="45.9414610" lon="9.5731470">
	<ele>1693.00</ele>
	<time>2023-10-07T08:39:07.000Z</time>
</trkpt>
<trkpt lat="45.9414520" lon="9.5731410">
	<ele>1693.00</ele>
	<time>2023-10-07T08:39:08.000Z</time>
</trkpt>
<trkpt lat="45.9414390" lon="9.5731350">
	<ele>1693.00</ele>
	<time>2023-10-07T08:39:09.000Z</time>
</trkpt>
<trkpt lat="45.9414270" lon="9.5731300">
	<ele>1693.20</ele>
	<time>2023-10-07T08:39:10.000Z</time>
</trkpt>
<trkpt lat="45.9414170" lon="9.5731250">
	<ele>1693.20</ele>
	<time>2023-10-07T08:39:11.000Z</time>
</trkpt>
<trkpt lat="45.9414080" lon="9.5731190">
	<ele>1693.20</ele>
	<time>2023-10-07T08:39:12.000Z</time>
</trkpt>
<trkpt lat="45.9413980" lon="9.5731140">
	<ele>1693.20</ele>
	<time>2023-10-07T08:39:13.000Z</time>
</trkpt>
<trkpt lat="45.9413860" lon="9.5731070">
	<ele>1693.20</ele>
	<time>2023-10-07T08:39:14.000Z</time>
</trkpt>
<trkpt lat="45.9413740" lon="9.5731030">
	<ele>1693.20</ele>
	<time>2023-10-07T08:39:15.000Z</time>
</trkpt>
<trkpt lat="45.9413640" lon="9.5730970">
	<ele>1693.40</ele>
	<time>2023-10-07T08:39:16.000Z</time>
</trkpt>
<trkpt lat="45.9413520" lon="9.5730910">
	<ele>1693.40</ele>
	<time>2023-10-07T08:39:17.000Z</time>
</trkpt>
<trkpt lat="45.9413420" lon="9.5730840">
	<ele>1693.40</ele>
	<time>2023-10-07T08:39:18.000Z</time>
</trkpt>
<trkpt lat="45.9413330" lon="9.5730790">
	<ele>1693.40</ele>
	<time>2023-10-07T08:39:19.000Z</time>
</trkpt>
<trkpt lat="45.9413270" lon="9.5730740">
	<ele>1693.60</ele>
	<time>2023-10-07T08:39:20.000Z</time>
</trkpt>
<trkpt lat="45.9413190" lon="9.5730710">
	<ele>1693.60</ele>
	<time>2023-10-07T08:39:21.000Z</time>
</trkpt>
<trkpt lat="45.9413120" lon="9.5730760">
	<ele>1694.00</ele>
	<time>2023-10-07T08:39:22.000Z</time>
</trkpt>
<trkpt lat="45.9413010" lon="9.5730770">
	<ele>1694.00</ele>
	<time>2023-10-07T08:39:23.000Z</time>
</trkpt>
<trkpt lat="45.9412930" lon="9.5730790">
	<ele>1694.20</ele>
	<time>2023-10-07T08:39:24.000Z</time>
</trkpt>
<trkpt lat="45.9412850" lon="9.5730780">
	<ele>1694.20</ele>
	<time>2023-10-07T08:39:25.000Z</time>
</trkpt>
<trkpt lat="45.9412750" lon="9.5730780">
	<ele>1694.40</ele>
	<time>2023-10-07T08:39:26.000Z</time>
</trkpt>
<trkpt lat="45.9412670" lon="9.5730830">
	<ele>1694.40</ele>
	<time>2023-10-07T08:39:27.000Z</time>
</trkpt>
<trkpt lat="45.9412560" lon="9.5730880">
	<ele>1694.60</ele>
	<time>2023-10-07T08:39:28.000Z</time>
</trkpt>
<trkpt lat="45.9412470" lon="9.5730900">
	<ele>1694.60</ele>
	<time>2023-10-07T08:39:29.000Z</time>
</trkpt>
<trkpt lat="45.9412360" lon="9.5730910">
	<ele>1694.80</ele>
	<time>2023-10-07T08:39:30.000Z</time>
</trkpt>
<trkpt lat="45.9412250" lon="9.5730920">
	<ele>1694.80</ele>
	<time>2023-10-07T08:39:31.000Z</time>
</trkpt>
<trkpt lat="45.9412160" lon="9.5730910">
	<ele>1695.00</ele>
	<time>2023-10-07T08:39:32.000Z</time>
</trkpt>
<trkpt lat="45.9412080" lon="9.5730930">
	<ele>1695.00</ele>
	<time>2023-10-07T08:39:33.000Z</time>
</trkpt>
<trkpt lat="45.9412000" lon="9.5730920">
	<ele>1695.00</ele>
	<time>2023-10-07T08:39:34.000Z</time>
</trkpt>
<trkpt lat="45.9411940" lon="9.5730900">
	<ele>1695.20</ele>
	<time>2023-10-07T08:39:35.000Z</time>
</trkpt>
<trkpt lat="45.9411910" lon="9.5730880">
	<ele>1695.40</ele>
	<time>2023-10-07T08:39:36.000Z</time>
</trkpt>
<trkpt lat="45.9411860" lon="9.5730860">
	<ele>1695.40</ele>
	<time>2023-10-07T08:39:37.000Z</time>
</trkpt>
<trkpt lat="45.9411790" lon="9.5730850">
	<ele>1695.80</ele>
	<time>2023-10-07T08:39:38.000Z</time>
</trkpt>
<trkpt lat="45.9411740" lon="9.5730820">
	<ele>1696.00</ele>
	<time>2023-10-07T08:39:39.000Z</time>
</trkpt>
<trkpt lat="45.9411690" lon="9.5730790">
	<ele>1696.00</ele>
	<time>2023-10-07T08:39:40.000Z</time>
</trkpt>
<trkpt lat="45.9411620" lon="9.5730770">
	<ele>1696.00</ele>
	<time>2023-10-07T08:39:41.000Z</time>
</trkpt>
<trkpt lat="45.9411550" lon="9.5730760">
	<ele>1696.20</ele>
	<time>2023-10-07T08:39:42.000Z</time>
</trkpt>
<trkpt lat="45.9411460" lon="9.5730690">
	<ele>1696.40</ele>
	<time>2023-10-07T08:39:43.000Z</time>
</trkpt>
<trkpt lat="45.9411390" lon="9.5730660">
	<ele>1696.60</ele>
	<time>2023-10-07T08:39:44.000Z</time>
</trkpt>
<trkpt lat="45.9411340" lon="9.5730650">
	<ele>1696.60</ele>
	<time>2023-10-07T08:39:45.000Z</time>
</trkpt>
<trkpt lat="45.9411270" lon="9.5730640">
	<ele>1696.80</ele>
	<time>2023-10-07T08:39:46.000Z</time>
</trkpt>
<trkpt lat="45.9411190" lon="9.5730670">
	<ele>1696.80</ele>
	<time>2023-10-07T08:39:47.000Z</time>
</trkpt>
<trkpt lat="45.9411130" lon="9.5730700">
	<ele>1697.00</ele>
	<time>2023-10-07T08:39:48.000Z</time>
</trkpt>
<trkpt lat="45.9411070" lon="9.5730710">
	<ele>1697.20</ele>
	<time>2023-10-07T08:39:49.000Z</time>
</trkpt>
<trkpt lat="45.9410990" lon="9.5730700">
	<ele>1697.40</ele>
	<time>2023-10-07T08:39:50.000Z</time>
</trkpt>
<trkpt lat="45.9410930" lon="9.5730700">
	<ele>1697.40</ele>
	<time>2023-10-07T08:39:51.000Z</time>
</trkpt>
<trkpt lat="45.9410860" lon="9.5730710">
	<ele>1697.60</ele>
	<time>2023-10-07T08:39:52.000Z</time>
</trkpt>
<trkpt lat="45.9410780" lon="9.5730750">
	<ele>1697.60</ele>
	<time>2023-10-07T08:39:53.000Z</time>
</trkpt>
<trkpt lat="45.9410720" lon="9.5730760">
	<ele>1697.60</ele>
	<time>2023-10-07T08:39:54.000Z</time>
</trkpt>
<trkpt lat="45.9410670" lon="9.5730730">
	<ele>1697.80</ele>
	<time>2023-10-07T08:39:55.000Z</time>
</trkpt>
<trkpt lat="45.9410620" lon="9.5730700">
	<ele>1697.80</ele>
	<time>2023-10-07T08:39:56.000Z</time>
</trkpt>
<trkpt lat="45.9410570" lon="9.5730660">
	<ele>1697.80</ele>
	<time>2023-10-07T08:39:57.000Z</time>
</trkpt>
<trkpt lat="45.9410520" lon="9.5730680">
	<ele>1698.00</ele>
	<time>2023-10-07T08:39:58.000Z</time>
</trkpt>
<trkpt lat="45.9410440" lon="9.5730720">
	<ele>1698.20</ele>
	<time>2023-10-07T08:39:59.000Z</time>
</trkpt>
<trkpt lat="45.9410360" lon="9.5730780">
	<ele>1698.20</ele>
	<time>2023-10-07T08:40:00.000Z</time>
</trkpt>
<trkpt lat="45.9410260" lon="9.5730820">
	<ele>1698.20</ele>
	<time>2023-10-07T08:40:01.000Z</time>
</trkpt>
<trkpt lat="45.9410140" lon="9.5730850">
	<ele>1698.40</ele>
	<time>2023-10-07T08:40:02.000Z</time>
</trkpt>
<trkpt lat="45.9410050" lon="9.5730860">
	<ele>1698.40</ele>
	<time>2023-10-07T08:40:03.000Z</time>
</trkpt>
<trkpt lat="45.9409940" lon="9.5730880">
	<ele>1698.40</ele>
	<time>2023-10-07T08:40:04.000Z</time>
</trkpt>
<trkpt lat="45.9409850" lon="9.5730890">
	<ele>1698.40</ele>
	<time>2023-10-07T08:40:05.000Z</time>
</trkpt>
<trkpt lat="45.9409760" lon="9.5730870">
	<ele>1698.40</ele>
	<time>2023-10-07T08:40:06.000Z</time>
</trkpt>
<trkpt lat="45.9409660" lon="9.5730840">
	<ele>1698.40</ele>
	<time>2023-10-07T08:40:07.000Z</time>
</trkpt>
<trkpt lat="45.9409590" lon="9.5730820">
	<ele>1698.60</ele>
	<time>2023-10-07T08:40:08.000Z</time>
</trkpt>
<trkpt lat="45.9409530" lon="9.5730770">
	<ele>1698.80</ele>
	<time>2023-10-07T08:40:09.000Z</time>
</trkpt>
<trkpt lat="45.9409480" lon="9.5730710">
	<ele>1698.80</ele>
	<time>2023-10-07T08:40:10.000Z</time>
</trkpt>
<trkpt lat="45.9409430" lon="9.5730670">
	<ele>1699.00</ele>
	<time>2023-10-07T08:40:11.000Z</time>
</trkpt>
<trkpt lat="45.9409330" lon="9.5730610">
	<ele>1699.20</ele>
	<time>2023-10-07T08:40:12.000Z</time>
</trkpt>
<trkpt lat="45.9409230" lon="9.5730560">
	<ele>1699.40</ele>
	<time>2023-10-07T08:40:13.000Z</time>
</trkpt>
<trkpt lat="45.9409180" lon="9.5730540">
	<ele>1699.60</ele>
	<time>2023-10-07T08:40:14.000Z</time>
</trkpt>
<trkpt lat="45.9409110" lon="9.5730510">
	<ele>1699.80</ele>
	<time>2023-10-07T08:40:15.000Z</time>
</trkpt>
<trkpt lat="45.9409030" lon="9.5730500">
	<ele>1700.00</ele>
	<time>2023-10-07T08:40:16.000Z</time>
</trkpt>
<trkpt lat="45.9408980" lon="9.5730520">
	<ele>1700.00</ele>
	<time>2023-10-07T08:40:17.000Z</time>
</trkpt>
<trkpt lat="45.9408930" lon="9.5730540">
	<ele>1700.20</ele>
	<time>2023-10-07T08:40:18.000Z</time>
</trkpt>
<trkpt lat="45.9408880" lon="9.5730580">
	<ele>1700.20</ele>
	<time>2023-10-07T08:40:19.000Z</time>
</trkpt>
<trkpt lat="45.9408790" lon="9.5730610">
	<ele>1700.20</ele>
	<time>2023-10-07T08:40:20.000Z</time>
</trkpt>
<trkpt lat="45.9408690" lon="9.5730650">
	<ele>1700.20</ele>
	<time>2023-10-07T08:40:21.000Z</time>
</trkpt>
<trkpt lat="45.9408590" lon="9.5730670">
	<ele>1700.20</ele>
	<time>2023-10-07T08:40:22.000Z</time>
</trkpt>
<trkpt lat="45.9408510" lon="9.5730700">
	<ele>1700.20</ele>
	<time>2023-10-07T08:40:23.000Z</time>
</trkpt>
<trkpt lat="45.9408420" lon="9.5730720">
	<ele>1700.20</ele>
	<time>2023-10-07T08:40:24.000Z</time>
</trkpt>
<trkpt lat="45.9408340" lon="9.5730710">
	<ele>1700.20</ele>
	<time>2023-10-07T08:40:25.000Z</time>
</trkpt>
<trkpt lat="45.9408240" lon="9.5730690">
	<ele>1700.40</ele>
	<time>2023-10-07T08:40:26.000Z</time>
</trkpt>
<trkpt lat="45.9408140" lon="9.5730660">
	<ele>1700.40</ele>
	<time>2023-10-07T08:40:27.000Z</time>
</trkpt>
<trkpt lat="45.9408080" lon="9.5730650">
	<ele>1700.60</ele>
	<time>2023-10-07T08:40:28.000Z</time>
</trkpt>
<trkpt lat="45.9408000" lon="9.5730610">
	<ele>1700.80</ele>
	<time>2023-10-07T08:40:29.000Z</time>
</trkpt>
<trkpt lat="45.9407950" lon="9.5730600">
	<ele>1700.80</ele>
	<time>2023-10-07T08:40:30.000Z</time>
</trkpt>
<trkpt lat="45.9407870" lon="9.5730570">
	<ele>1700.80</ele>
	<time>2023-10-07T08:40:31.000Z</time>
</trkpt>
<trkpt lat="45.9407790" lon="9.5730540">
	<ele>1701.00</ele>
	<time>2023-10-07T08:40:32.000Z</time>
</trkpt>
<trkpt lat="45.9407730" lon="9.5730530">
	<ele>1701.20</ele>
	<time>2023-10-07T08:40:33.000Z</time>
</trkpt>
<trkpt lat="45.9407660" lon="9.5730510">
	<ele>1701.40</ele>
	<time>2023-10-07T08:40:34.000Z</time>
</trkpt>
<trkpt lat="45.9407570" lon="9.5730530">
	<ele>1701.60</ele>
	<time>2023-10-07T08:40:35.000Z</time>
</trkpt>
<trkpt lat="45.9407510" lon="9.5730560">
	<ele>1701.60</ele>
	<time>2023-10-07T08:40:36.000Z</time>
</trkpt>
<trkpt lat="45.9407420" lon="9.5730570">
	<ele>1701.60</ele>
	<time>2023-10-07T08:40:37.000Z</time>
</trkpt>
<trkpt lat="45.9407340" lon="9.5730600">
	<ele>1701.80</ele>
	<time>2023-10-07T08:40:38.000Z</time>
</trkpt>
<trkpt lat="45.9407260" lon="9.5730600">
	<ele>1701.80</ele>
	<time>2023-10-07T08:40:39.000Z</time>
</trkpt>
<trkpt lat="45.9407190" lon="9.5730600">
	<ele>1702.20</ele>
	<time>2023-10-07T08:40:40.000Z</time>
</trkpt>
<trkpt lat="45.9407110" lon="9.5730580">
	<ele>1702.20</ele>
	<time>2023-10-07T08:40:41.000Z</time>
</trkpt>
<trkpt lat="45.9407030" lon="9.5730590">
	<ele>1702.40</ele>
	<time>2023-10-07T08:40:42.000Z</time>
</trkpt>
<trkpt lat="45.9406920" lon="9.5730610">
	<ele>1702.40</ele>
	<time>2023-10-07T08:40:43.000Z</time>
</trkpt>
<trkpt lat="45.9406820" lon="9.5730640">
	<ele>1702.40</ele>
	<time>2023-10-07T08:40:44.000Z</time>
</trkpt>
<trkpt lat="45.9406730" lon="9.5730680">
	<ele>1702.40</ele>
	<time>2023-10-07T08:40:45.000Z</time>
</trkpt>
<trkpt lat="45.9406660" lon="9.5730720">
	<ele>1702.60</ele>
	<time>2023-10-07T08:40:46.000Z</time>
</trkpt>
<trkpt lat="45.9406570" lon="9.5730730">
	<ele>1702.60</ele>
	<time>2023-10-07T08:40:47.000Z</time>
</trkpt>
<trkpt lat="45.9406470" lon="9.5730720">
	<ele>1702.60</ele>
	<time>2023-10-07T08:40:48.000Z</time>
</trkpt>
<trkpt lat="45.9406370" lon="9.5730710">
	<ele>1702.60</ele>
	<time>2023-10-07T08:40:49.000Z</time>
</trkpt>
<trkpt lat="45.9406270" lon="9.5730720">
	<ele>1702.60</ele>
	<time>2023-10-07T08:40:50.000Z</time>
</trkpt>
<trkpt lat="45.9406160" lon="9.5730680">
	<ele>1702.60</ele>
	<time>2023-10-07T08:40:51.000Z</time>
</trkpt>
<trkpt lat="45.9406050" lon="9.5730680">
	<ele>1702.60</ele>
	<time>2023-10-07T08:40:52.000Z</time>
</trkpt>
<trkpt lat="45.9405940" lon="9.5730720">
	<ele>1702.60</ele>
	<time>2023-10-07T08:40:53.000Z</time>
</trkpt>
<trkpt lat="45.9405830" lon="9.5730740">
	<ele>1702.60</ele>
	<time>2023-10-07T08:40:54.000Z</time>
</trkpt>
<trkpt lat="45.9405750" lon="9.5730740">
	<ele>1702.80</ele>
	<time>2023-10-07T08:40:55.000Z</time>
</trkpt>
<trkpt lat="45.9405660" lon="9.5730730">
	<ele>1702.80</ele>
	<time>2023-10-07T08:40:56.000Z</time>
</trkpt>
<trkpt lat="45.9405600" lon="9.5730700">
	<ele>1702.80</ele>
	<time>2023-10-07T08:40:57.000Z</time>
</trkpt>
<trkpt lat="45.9405540" lon="9.5730650">
	<ele>1702.80</ele>
	<time>2023-10-07T08:40:58.000Z</time>
</trkpt>
<trkpt lat="45.9405490" lon="9.5730640">
	<ele>1703.00</ele>
	<time>2023-10-07T08:40:59.000Z</time>
</trkpt>
<trkpt lat="45.9405410" lon="9.5730640">
	<ele>1703.00</ele>
	<time>2023-10-07T08:41:00.000Z</time>
</trkpt>
<trkpt lat="45.9405320" lon="9.5730660">
	<ele>1703.20</ele>
	<time>2023-10-07T08:41:01.000Z</time>
</trkpt>
<trkpt lat="45.9405240" lon="9.5730690">
	<ele>1703.20</ele>
	<time>2023-10-07T08:41:02.000Z</time>
</trkpt>
<trkpt lat="45.9405140" lon="9.5730700">
	<ele>1703.20</ele>
	<time>2023-10-07T08:41:03.000Z</time>
</trkpt>
<trkpt lat="45.9405030" lon="9.5730730">
	<ele>1703.20</ele>
	<time>2023-10-07T08:41:04.000Z</time>
</trkpt>
<trkpt lat="45.9404950" lon="9.5730750">
	<ele>1703.20</ele>
	<time>2023-10-07T08:41:05.000Z</time>
</trkpt>
<trkpt lat="45.9404890" lon="9.5730790">
	<ele>1703.20</ele>
	<time>2023-10-07T08:41:06.000Z</time>
</trkpt>
<trkpt lat="45.9404800" lon="9.5730850">
	<ele>1703.00</ele>
	<time>2023-10-07T08:41:07.000Z</time>
</trkpt>
<trkpt lat="45.9404700" lon="9.5730890">
	<ele>1703.00</ele>
	<time>2023-10-07T08:41:08.000Z</time>
</trkpt>
<trkpt lat="45.9404620" lon="9.5730860">
	<ele>1703.00</ele>
	<time>2023-10-07T08:41:09.000Z</time>
</trkpt>
<trkpt lat="45.9404510" lon="9.5730810">
	<ele>1703.00</ele>
	<time>2023-10-07T08:41:10.000Z</time>
</trkpt>
<trkpt lat="45.9404410" lon="9.5730780">
	<ele>1703.00</ele>
	<time>2023-10-07T08:41:11.000Z</time>
</trkpt>
<trkpt lat="45.9404310" lon="9.5730780">
	<ele>1703.00</ele>
	<time>2023-10-07T08:41:12.000Z</time>
</trkpt>
<trkpt lat="45.9404240" lon="9.5730760">
	<ele>1703.00</ele>
	<time>2023-10-07T08:41:13.000Z</time>
</trkpt>
<trkpt lat="45.9404160" lon="9.5730730">
	<ele>1703.00</ele>
	<time>2023-10-07T08:41:14.000Z</time>
</trkpt>
<trkpt lat="45.9404080" lon="9.5730700">
	<ele>1703.00</ele>
	<time>2023-10-07T08:41:15.000Z</time>
</trkpt>
<trkpt lat="45.9404000" lon="9.5730690">
	<ele>1703.00</ele>
	<time>2023-10-07T08:41:16.000Z</time>
</trkpt>
<trkpt lat="45.9403900" lon="9.5730680">
	<ele>1703.20</ele>
	<time>2023-10-07T08:41:17.000Z</time>
</trkpt>
<trkpt lat="45.9403780" lon="9.5730650">
	<ele>1703.20</ele>
	<time>2023-10-07T08:41:18.000Z</time>
</trkpt>
<trkpt lat="45.9403670" lon="9.5730650">
	<ele>1703.20</ele>
	<time>2023-10-07T08:41:19.000Z</time>
</trkpt>
<trkpt lat="45.9403580" lon="9.5730640">
	<ele>1703.20</ele>
	<time>2023-10-07T08:41:20.000Z</time>
</trkpt>
<trkpt lat="45.9403490" lon="9.5730640">
	<ele>1703.00</ele>
	<time>2023-10-07T08:41:21.000Z</time>
</trkpt>
<trkpt lat="45.9403380" lon="9.5730630">
	<ele>1703.00</ele>
	<time>2023-10-07T08:41:22.000Z</time>
</trkpt>
<trkpt lat="45.9403250" lon="9.5730620">
	<ele>1703.00</ele>
	<time>2023-10-07T08:41:23.000Z</time>
</trkpt>
<trkpt lat="45.9403140" lon="9.5730610">
	<ele>1703.00</ele>
	<time>2023-10-07T08:41:24.000Z</time>
</trkpt>
<trkpt lat="45.9403050" lon="9.5730600">
	<ele>1703.00</ele>
	<time>2023-10-07T08:41:25.000Z</time>
</trkpt>
<trkpt lat="45.9402960" lon="9.5730590">
	<ele>1703.00</ele>
	<time>2023-10-07T08:41:26.000Z</time>
</trkpt>
<trkpt lat="45.9402850" lon="9.5730600">
	<ele>1703.00</ele>
	<time>2023-10-07T08:41:27.000Z</time>
</trkpt>
<trkpt lat="45.9402730" lon="9.5730610">
	<ele>1703.00</ele>
	<time>2023-10-07T08:41:28.000Z</time>
</trkpt>
<trkpt lat="45.9402630" lon="9.5730640">
	<ele>1703.00</ele>
	<time>2023-10-07T08:41:29.000Z</time>
</trkpt>
<trkpt lat="45.9402520" lon="9.5730690">
	<ele>1703.00</ele>
	<time>2023-10-07T08:41:30.000Z</time>
</trkpt>
<trkpt lat="45.9402410" lon="9.5730720">
	<ele>1703.00</ele>
	<time>2023-10-07T08:41:31.000Z</time>
</trkpt>
<trkpt lat="45.9402280" lon="9.5730750">
	<ele>1703.00</ele>
	<time>2023-10-07T08:41:32.000Z</time>
</trkpt>
<trkpt lat="45.9402180" lon="9.5730770">
	<ele>1702.80</ele>
	<time>2023-10-07T08:41:33.000Z</time>
</trkpt>
<trkpt lat="45.9402100" lon="9.5730750">
	<ele>1702.80</ele>
	<time>2023-10-07T08:41:34.000Z</time>
</trkpt>
<trkpt lat="45.9402020" lon="9.5730740">
	<ele>1702.60</ele>
	<time>2023-10-07T08:41:35.000Z</time>
</trkpt>
<trkpt lat="45.9401960" lon="9.5730750">
	<ele>1702.60</ele>
	<time>2023-10-07T08:41:36.000Z</time>
</trkpt>
<trkpt lat="45.9401900" lon="9.5730760">
	<ele>1702.40</ele>
	<time>2023-10-07T08:41:37.000Z</time>
</trkpt>
<trkpt lat="45.9401870" lon="9.5730770">
	<ele>1702.40</ele>
	<time>2023-10-07T08:41:38.000Z</time>
</trkpt>
<trkpt lat="45.9401830" lon="9.5730770">
	<ele>1702.40</ele>
	<time>2023-10-07T08:41:39.000Z</time>
</trkpt>
<trkpt lat="45.9401810" lon="9.5730770">
	<ele>1702.40</ele>
	<time>2023-10-07T08:41:40.000Z</time>
</trkpt>
<trkpt lat="45.9401790" lon="9.5730770">
	<ele>1702.40</ele>
	<time>2023-10-07T08:41:41.000Z</time>
</trkpt>
<trkpt lat="45.9401790" lon="9.5730760">
	<ele>1702.40</ele>
	<time>2023-10-07T08:41:42.000Z</time>
</trkpt>
<trkpt lat="45.9401780" lon="9.5730770">
	<ele>1702.40</ele>
	<time>2023-10-07T08:41:43.000Z</time>
</trkpt>
<trkpt lat="45.9401760" lon="9.5730810">
	<ele>1702.40</ele>
	<time>2023-10-07T08:41:44.000Z</time>
</trkpt>
<trkpt lat="45.9401730" lon="9.5730800">
	<ele>1702.60</ele>
	<time>2023-10-07T08:41:45.000Z</time>
</trkpt>
<trkpt lat="45.9401710" lon="9.5730760">
	<ele>1702.80</ele>
	<time>2023-10-07T08:41:46.000Z</time>
</trkpt>
<trkpt lat="45.9401700" lon="9.5730700">
	<ele>1702.80</ele>
	<time>2023-10-07T08:41:47.000Z</time>
</trkpt>
<trkpt lat="45.9401690" lon="9.5730660">
	<ele>1702.80</ele>
	<time>2023-10-07T08:41:48.000Z</time>
</trkpt>
<trkpt lat="45.9401670" lon="9.5730610">
	<ele>1702.80</ele>
	<time>2023-10-07T08:41:49.000Z</time>
</trkpt>
<trkpt lat="45.9401670" lon="9.5730610">
	<ele>1702.80</ele>
	<time>2023-10-07T08:41:50.000Z</time>
</trkpt>
<trkpt lat="45.9401670" lon="9.5730610">
	<ele>1702.80</ele>
	<time>2023-10-07T08:41:51.000Z</time>
</trkpt>
<trkpt lat="45.9401670" lon="9.5730610">
	<ele>1703.00</ele>
	<time>2023-10-07T08:41:52.000Z</time>
</trkpt>
<trkpt lat="45.9401670" lon="9.5730610">
	<ele>1703.00</ele>
	<time>2023-10-07T08:41:53.000Z</time>
</trkpt>
<trkpt lat="45.9401670" lon="9.5730610">
	<ele>1703.00</ele>
	<time>2023-10-07T08:41:54.000Z</time>
</trkpt>
<trkpt lat="45.9401670" lon="9.5730610">
	<ele>1703.00</ele>
	<time>2023-10-07T08:41:55.000Z</time>
</trkpt>
<trkpt lat="45.9401670" lon="9.5730610">
	<ele>1703.00</ele>
	<time>2023-10-07T08:41:56.000Z</time>
</trkpt>
<trkpt lat="45.9401670" lon="9.5730610">
	<ele>1703.00</ele>
	<time>2023-10-07T08:41:57.000Z</time>
</trkpt>
<trkpt lat="45.9401670" lon="9.5730610">
	<ele>1703.00</ele>
	<time>2023-10-07T08:41:58.000Z</time>
</trkpt>
<trkpt lat="45.9401670" lon="9.5730610">
	<ele>1703.00</ele>
	<time>2023-10-07T08:41:59.000Z</time>
</trkpt>
<trkpt lat="45.9401670" lon="9.5730610">
	<ele>1703.00</ele>
	<time>2023-10-07T08:42:00.000Z</time>
</trkpt>
<trkpt lat="45.9401670" lon="9.5730610">
	<ele>1702.80</ele>
	<time>2023-10-07T08:42:01.000Z</time>
</trkpt>
<trkpt lat="45.9401670" lon="9.5730610">
	<ele>1702.80</ele>
	<time>2023-10-07T08:42:02.000Z</time>
</trkpt>
<trkpt lat="45.9401670" lon="9.5730610">
	<ele>1702.80</ele>
	<time>2023-10-07T08:42:03.000Z</time>
</trkpt>
<trkpt lat="45.9401670" lon="9.5730610">
	<ele>1702.40</ele>
	<time>2023-10-07T08:42:04.000Z</time>
</trkpt>
<trkpt lat="45.9401670" lon="9.5730610">
	<ele>1702.40</ele>
	<time>2023-10-07T08:42:05.000Z</time>
</trkpt>
<trkpt lat="45.9401670" lon="9.5730610">
	<ele>1702.20</ele>
	<time>2023-10-07T08:42:06.000Z</time>
</trkpt>
<trkpt lat="45.9401670" lon="9.5730610">
	<ele>1702.20</ele>
	<time>2023-10-07T08:42:07.000Z</time>
</trkpt>
<trkpt lat="45.9401670" lon="9.5730610">
	<ele>1702.60</ele>
	<time>2023-10-07T08:42:08.000Z</time>
</trkpt>
<trkpt lat="45.9401670" lon="9.5730610">
	<ele>1703.00</ele>
	<time>2023-10-07T08:42:09.000Z</time>
</trkpt>
<trkpt lat="45.9401670" lon="9.5730610">
	<ele>1703.20</ele>
	<time>2023-10-07T08:42:10.000Z</time>
</trkpt>
<trkpt lat="45.9401670" lon="9.5730610">
	<ele>1703.20</ele>
	<time>2023-10-07T08:42:11.000Z</time>
</trkpt>
<trkpt lat="45.9401670" lon="9.5730610">
	<ele>1703.20</ele>
	<time>2023-10-07T08:42:12.000Z</time>
</trkpt>
<trkpt lat="45.9401670" lon="9.5730610">
	<ele>1703.20</ele>
	<time>2023-10-07T08:42:13.000Z</time>
</trkpt>
<trkpt lat="45.9401670" lon="9.5730610">
	<ele>1702.80</ele>
	<time>2023-10-07T08:42:14.000Z</time>
</trkpt>
<trkpt lat="45.9401670" lon="9.5730610">
	<ele>1702.60</ele>
	<time>2023-10-07T08:42:15.000Z</time>
</trkpt>
<trkpt lat="45.9401670" lon="9.5730600">
	<ele>1702.40</ele>
	<time>2023-10-07T08:42:16.000Z</time>
</trkpt>
<trkpt lat="45.9401670" lon="9.5730600">
	<ele>1702.40</ele>
	<time>2023-10-07T08:42:17.000Z</time>
</trkpt>
<trkpt lat="45.9401670" lon="9.5730600">
	<ele>1702.60</ele>
	<time>2023-10-07T08:42:18.000Z</time>
</trkpt>
<trkpt lat="45.9401670" lon="9.5730600">
	<ele>1702.80</ele>
	<time>2023-10-07T08:42:19.000Z</time>
</trkpt>
<trkpt lat="45.9401670" lon="9.5730600">
	<ele>1702.80</ele>
	<time>2023-10-07T08:42:20.000Z</time>
</trkpt>
<trkpt lat="45.9401670" lon="9.5730600">
	<ele>1703.00</ele>
	<time>2023-10-07T08:42:21.000Z</time>
</trkpt>
<trkpt lat="45.9401670" lon="9.5730590">
	<ele>1703.00</ele>
	<time>2023-10-07T08:42:22.000Z</time>
</trkpt>
<trkpt lat="45.9401650" lon="9.5730550">
	<ele>1703.00</ele>
	<time>2023-10-07T08:42:23.000Z</time>
</trkpt>
<trkpt lat="45.9401590" lon="9.5730420">
	<ele>1703.20</ele>
	<time>2023-10-07T08:42:24.000Z</time>
</trkpt>
<trkpt lat="45.9401550" lon="9.5730280">
	<ele>1703.20</ele>
	<time>2023-10-07T08:42:25.000Z</time>
</trkpt>
<trkpt lat="45.9401520" lon="9.5730180">
	<ele>1703.40</ele>
	<time>2023-10-07T08:42:26.000Z</time>
</trkpt>
<trkpt lat="45.9401500" lon="9.5730120">
	<ele>1703.60</ele>
	<time>2023-10-07T08:42:27.000Z</time>
</trkpt>
<trkpt lat="45.9401480" lon="9.5730070">
	<ele>1703.80</ele>
	<time>2023-10-07T08:42:28.000Z</time>
</trkpt>
<trkpt lat="45.9401450" lon="9.5730070">
	<ele>1703.80</ele>
	<time>2023-10-07T08:42:29.000Z</time>
</trkpt>
<trkpt lat="45.9401440" lon="9.5730080">
	<ele>1703.80</ele>
	<time>2023-10-07T08:42:30.000Z</time>
</trkpt>
<trkpt lat="45.9401420" lon="9.5730090">
	<ele>1703.60</ele>
	<time>2023-10-07T08:42:31.000Z</time>
</trkpt>
<trkpt lat="45.9401440" lon="9.5730110">
	<ele>1703.40</ele>
	<time>2023-10-07T08:42:32.000Z</time>
</trkpt>
<trkpt lat="45.9401480" lon="9.5730190">
	<ele>1703.20</ele>
	<time>2023-10-07T08:42:33.000Z</time>
</trkpt>
<trkpt lat="45.9401490" lon="9.5730230">
	<ele>1703.00</ele>
	<time>2023-10-07T08:42:34.000Z</time>
</trkpt>
<trkpt lat="45.9401510" lon="9.5730250">
	<ele>1703.00</ele>
	<time>2023-10-07T08:42:35.000Z</time>
</trkpt>
<trkpt lat="45.9401510" lon="9.5730250">
	<ele>1703.00</ele>
	<time>2023-10-07T08:42:36.000Z</time>
</trkpt>
<trkpt lat="45.9401500" lon="9.5730260">
	<ele>1703.00</ele>
	<time>2023-10-07T08:42:37.000Z</time>
</trkpt>
<trkpt lat="45.9401510" lon="9.5730240">
	<ele>1703.00</ele>
	<time>2023-10-07T08:42:38.000Z</time>
</trkpt>
<trkpt lat="45.9401470" lon="9.5730180">
	<ele>1703.00</ele>
	<time>2023-10-07T08:42:39.000Z</time>
</trkpt>
<trkpt lat="45.9401450" lon="9.5730100">
	<ele>1703.00</ele>
	<time>2023-10-07T08:42:40.000Z</time>
</trkpt>
<trkpt lat="45.9401440" lon="9.5730020">
	<ele>1703.00</ele>
	<time>2023-10-07T08:42:41.000Z</time>
</trkpt>
<trkpt lat="45.9401420" lon="9.5729910">
	<ele>1703.00</ele>
	<time>2023-10-07T08:42:42.000Z</time>
</trkpt>
<trkpt lat="45.9401400" lon="9.5729780">
	<ele>1703.00</ele>
	<time>2023-10-07T08:42:43.000Z</time>
</trkpt>
<trkpt lat="45.9401380" lon="9.5729670">
	<ele>1703.20</ele>
	<time>2023-10-07T08:42:44.000Z</time>
</trkpt>
<trkpt lat="45.9401360" lon="9.5729560">
	<ele>1703.40</ele>
	<time>2023-10-07T08:42:45.000Z</time>
</trkpt>
<trkpt lat="45.9401350" lon="9.5729450">
	<ele>1703.40</ele>
	<time>2023-10-07T08:42:46.000Z</time>
</trkpt>
<trkpt lat="45.9401320" lon="9.5729340">
	<ele>1703.60</ele>
	<time>2023-10-07T08:42:47.000Z</time>
</trkpt>
<trkpt lat="45.9401290" lon="9.5729200">
	<ele>1703.80</ele>
	<time>2023-10-07T08:42:48.000Z</time>
</trkpt>
<trkpt lat="45.9401270" lon="9.5729050">
	<ele>1704.00</ele>
	<time>2023-10-07T08:42:49.000Z</time>
</trkpt>
<trkpt lat="45.9401240" lon="9.5728910">
	<ele>1704.00</ele>
	<time>2023-10-07T08:42:50.000Z</time>
</trkpt>
<trkpt lat="45.9401210" lon="9.5728790">
	<ele>1704.20</ele>
	<time>2023-10-07T08:42:51.000Z</time>
</trkpt>
<trkpt lat="45.9401190" lon="9.5728650">
	<ele>1704.20</ele>
	<time>2023-10-07T08:42:52.000Z</time>
</trkpt>
<trkpt lat="45.9401170" lon="9.5728530">
	<ele>1704.40</ele>
	<time>2023-10-07T08:42:53.000Z</time>
</trkpt>
<trkpt lat="45.9401150" lon="9.5728430">
	<ele>1704.60</ele>
	<time>2023-10-07T08:42:54.000Z</time>
</trkpt>
<trkpt lat="45.9401120" lon="9.5728310">
	<ele>1704.60</ele>
	<time>2023-10-07T08:42:55.000Z</time>
</trkpt>
<trkpt lat="45.9401070" lon="9.5728200">
	<ele>1704.60</ele>
	<time>2023-10-07T08:42:56.000Z</time>
</trkpt>
<trkpt lat="45.9401040" lon="9.5728100">
	<ele>1704.60</ele>
	<time>2023-10-07T08:42:57.000Z</time>
</trkpt>
<trkpt lat="45.9401020" lon="9.5728010">
	<ele>1704.80</ele>
	<time>2023-10-07T08:42:58.000Z</time>
</trkpt>
<trkpt lat="45.9401000" lon="9.5727900">
	<ele>1705.00</ele>
	<time>2023-10-07T08:42:59.000Z</time>
</trkpt>
<trkpt lat="45.9400990" lon="9.5727810">
	<ele>1705.00</ele>
	<time>2023-10-07T08:43:00.000Z</time>
</trkpt>
<trkpt lat="45.9400980" lon="9.5727710">
	<ele>1705.00</ele>
	<time>2023-10-07T08:43:01.000Z</time>
</trkpt>
<trkpt lat="45.9400990" lon="9.5727600">
	<ele>1705.00</ele>
	<time>2023-10-07T08:43:02.000Z</time>
</trkpt>
<trkpt lat="45.9401020" lon="9.5727510">
	<ele>1705.20</ele>
	<time>2023-10-07T08:43:03.000Z</time>
</trkpt>
<trkpt lat="45.9401030" lon="9.5727450">
	<ele>1705.20</ele>
	<time>2023-10-07T08:43:04.000Z</time>
</trkpt>
<trkpt lat="45.9401040" lon="9.5727370">
	<ele>1705.20</ele>
	<time>2023-10-07T08:43:05.000Z</time>
</trkpt>
<trkpt lat="45.9401070" lon="9.5727350">
	<ele>1705.40</ele>
	<time>2023-10-07T08:43:06.000Z</time>
</trkpt>
<trkpt lat="45.9401090" lon="9.5727380">
	<ele>1705.40</ele>
	<time>2023-10-07T08:43:07.000Z</time>
</trkpt>
<trkpt lat="45.9401100" lon="9.5727420">
	<ele>1705.60</ele>
	<time>2023-10-07T08:43:08.000Z</time>
</trkpt>
<trkpt lat="45.9401090" lon="9.5727430">
	<ele>1705.60</ele>
	<time>2023-10-07T08:43:09.000Z</time>
</trkpt>
<trkpt lat="45.9401100" lon="9.5727450">
	<ele>1705.80</ele>
	<time>2023-10-07T08:43:10.000Z</time>
</trkpt>
<trkpt lat="45.9401090" lon="9.5727520">
	<ele>1705.80</ele>
	<time>2023-10-07T08:43:11.000Z</time>
</trkpt>
<trkpt lat="45.9401080" lon="9.5727640">
	<ele>1705.80</ele>
	<time>2023-10-07T08:43:12.000Z</time>
</trkpt>
<trkpt lat="45.9401010" lon="9.5727910">
	<ele>1706.00</ele>
	<time>2023-10-07T08:43:13.000Z</time>
</trkpt>
<trkpt lat="45.9400970" lon="9.5728120">
	<ele>1706.00</ele>
	<time>2023-10-07T08:43:14.000Z</time>
</trkpt>
<trkpt lat="45.9400970" lon="9.5728080">
	<ele>1705.80</ele>
	<time>2023-10-07T08:43:15.000Z</time>
</trkpt>
<trkpt lat="45.9400970" lon="9.5728090">
	<ele>1705.60</ele>
	<time>2023-10-07T08:43:16.000Z</time>
</trkpt>
<trkpt lat="45.9400970" lon="9.5728080">
	<ele>1705.40</ele>
	<time>2023-10-07T08:43:17.000Z</time>
</trkpt>
<trkpt lat="45.9400970" lon="9.5728080">
	<ele>1705.40</ele>
	<time>2023-10-07T08:43:18.000Z</time>
</trkpt>
<trkpt lat="45.9400970" lon="9.5728080">
	<ele>1705.40</ele>
	<time>2023-10-07T08:43:19.000Z</time>
</trkpt>
<trkpt lat="45.9400970" lon="9.5728080">
	<ele>1705.20</ele>
	<time>2023-10-07T08:43:20.000Z</time>
</trkpt>
<trkpt lat="45.9400970" lon="9.5728080">
	<ele>1705.20</ele>
	<time>2023-10-07T08:43:21.000Z</time>
</trkpt>
<trkpt lat="45.9400970" lon="9.5728080">
	<ele>1705.40</ele>
	<time>2023-10-07T08:43:22.000Z</time>
</trkpt>
<trkpt lat="45.9400970" lon="9.5728080">
	<ele>1705.40</ele>
	<time>2023-10-07T08:43:23.000Z</time>
</trkpt>
<trkpt lat="45.9400970" lon="9.5728080">
	<ele>1705.40</ele>
	<time>2023-10-07T08:43:24.000Z</time>
</trkpt>
<trkpt lat="45.9400970" lon="9.5728080">
	<ele>1705.40</ele>
	<time>2023-10-07T08:43:25.000Z</time>
</trkpt>
<trkpt lat="45.9400970" lon="9.5728080">
	<ele>1705.40</ele>
	<time>2023-10-07T08:43:26.000Z</time>
</trkpt>
<trkpt lat="45.9400970" lon="9.5728080">
	<ele>1705.60</ele>
	<time>2023-10-07T08:43:27.000Z</time>
</trkpt>
<trkpt lat="45.9400970" lon="9.5728080">
	<ele>1705.40</ele>
	<time>2023-10-07T08:43:28.000Z</time>
</trkpt>
<trkpt lat="45.9400970" lon="9.5728080">
	<ele>1705.40</ele>
	<time>2023-10-07T08:43:29.000Z</time>
</trkpt>
<trkpt lat="45.9400970" lon="9.5728030">
	<ele>1705.40</ele>
	<time>2023-10-07T08:43:30.000Z</time>
</trkpt>
<trkpt lat="45.9400970" lon="9.5728030">
	<ele>1705.40</ele>
	<time>2023-10-07T08:43:31.000Z</time>
</trkpt>
<trkpt lat="45.9400970" lon="9.5728000">
	<ele>1705.40</ele>
	<time>2023-10-07T08:43:32.000Z</time>
</trkpt>
<trkpt lat="45.9400970" lon="9.5727970">
	<ele>1705.40</ele>
	<time>2023-10-07T08:43:33.000Z</time>
</trkpt>
<trkpt lat="45.9400960" lon="9.5727950">
	<ele>1705.40</ele>
	<time>2023-10-07T08:43:34.000Z</time>
</trkpt>
<trkpt lat="45.9400950" lon="9.5727920">
	<ele>1705.60</ele>
	<time>2023-10-07T08:43:35.000Z</time>
</trkpt>
<trkpt lat="45.9400950" lon="9.5727900">
	<ele>1705.60</ele>
	<time>2023-10-07T08:43:36.000Z</time>
</trkpt>
<trkpt lat="45.9400940" lon="9.5727900">
	<ele>1705.60</ele>
	<time>2023-10-07T08:43:37.000Z</time>
</trkpt>
<trkpt lat="45.9400850" lon="9.5727950">
	<ele>1705.60</ele>
	<time>2023-10-07T08:43:38.000Z</time>
</trkpt>
<trkpt lat="45.9400780" lon="9.5728020">
	<ele>1705.60</ele>
	<time>2023-10-07T08:43:39.000Z</time>
</trkpt>
<trkpt lat="45.9400730" lon="9.5728040">
	<ele>1705.60</ele>
	<time>2023-10-07T08:43:40.000Z</time>
</trkpt>
<trkpt lat="45.9400660" lon="9.5728010">
	<ele>1705.60</ele>
	<time>2023-10-07T08:43:41.000Z</time>
</trkpt>
<trkpt lat="45.9400580" lon="9.5727950">
	<ele>1705.60</ele>
	<time>2023-10-07T08:43:42.000Z</time>
</trkpt>
<trkpt lat="45.9400520" lon="9.5727860">
	<ele>1705.40</ele>
	<time>2023-10-07T08:43:43.000Z</time>
</trkpt>
<trkpt lat="45.9400470" lon="9.5727770">
	<ele>1705.40</ele>
	<time>2023-10-07T08:43:44.000Z</time>
</trkpt>
<trkpt lat="45.9400440" lon="9.5727710">
	<ele>1705.40</ele>
	<time>2023-10-07T08:43:45.000Z</time>
</trkpt>
<trkpt lat="45.9400420" lon="9.5727620">
	<ele>1705.40</ele>
	<time>2023-10-07T08:43:46.000Z</time>
</trkpt>
<trkpt lat="45.9400410" lon="9.5727580">
	<ele>1705.40</ele>
	<time>2023-10-07T08:43:47.000Z</time>
</trkpt>
<trkpt lat="45.9400420" lon="9.5727570">
	<ele>1705.40</ele>
	<time>2023-10-07T08:43:48.000Z</time>
</trkpt>
<trkpt lat="45.9400430" lon="9.5727570">
	<ele>1705.40</ele>
	<time>2023-10-07T08:43:49.000Z</time>
</trkpt>
<trkpt lat="45.9400440" lon="9.5727570">
	<ele>1705.40</ele>
	<time>2023-10-07T08:43:50.000Z</time>
</trkpt>
<trkpt lat="45.9400440" lon="9.5727580">
	<ele>1705.40</ele>
	<time>2023-10-07T08:43:51.000Z</time>
</trkpt>
<trkpt lat="45.9400440" lon="9.5727580">
	<ele>1705.40</ele>
	<time>2023-10-07T08:43:52.000Z</time>
</trkpt>
<trkpt lat="45.9400440" lon="9.5727590">
	<ele>1705.40</ele>
	<time>2023-10-07T08:43:53.000Z</time>
</trkpt>
<trkpt lat="45.9400440" lon="9.5727590">
	<ele>1705.60</ele>
	<time>2023-10-07T08:43:54.000Z</time>
</trkpt>
<trkpt lat="45.9400440" lon="9.5727590">
	<ele>1705.60</ele>
	<time>2023-10-07T08:43:55.000Z</time>
</trkpt>
<trkpt lat="45.9400440" lon="9.5727590">
	<ele>1705.40</ele>
	<time>2023-10-07T08:43:56.000Z</time>
</trkpt>
<trkpt lat="45.9400440" lon="9.5727590">
	<ele>1705.40</ele>
	<time>2023-10-07T08:43:57.000Z</time>
</trkpt>
<trkpt lat="45.9400440" lon="9.5727590">
	<ele>1705.40</ele>
	<time>2023-10-07T08:43:58.000Z</time>
</trkpt>
<trkpt lat="45.9400440" lon="9.5727590">
	<ele>1705.40</ele>
	<time>2023-10-07T08:43:59.000Z</time>
</trkpt>
<trkpt lat="45.9400440" lon="9.5727590">
	<ele>1705.60</ele>
	<time>2023-10-07T08:44:00.000Z</time>
</trkpt>
<trkpt lat="45.9400440" lon="9.5727590">
	<ele>1705.60</ele>
	<time>2023-10-07T08:44:01.000Z</time>
</trkpt>
<trkpt lat="45.9400440" lon="9.5727590">
	<ele>1705.60</ele>
	<time>2023-10-07T08:44:02.000Z</time>
</trkpt>
<trkpt lat="45.9400440" lon="9.5727590">
	<ele>1705.60</ele>
	<time>2023-10-07T08:44:03.000Z</time>
</trkpt>
<trkpt lat="45.9400440" lon="9.5727590">
	<ele>1705.60</ele>
	<time>2023-10-07T08:44:04.000Z</time>
</trkpt>
<trkpt lat="45.9400440" lon="9.5727590">
	<ele>1705.60</ele>
	<time>2023-10-07T08:44:05.000Z</time>
</trkpt>
<trkpt lat="45.9400440" lon="9.5727590">
	<ele>1705.40</ele>
	<time>2023-10-07T08:44:06.000Z</time>
</trkpt>
<trkpt lat="45.9400440" lon="9.5727590">
	<ele>1705.40</ele>
	<time>2023-10-07T08:44:07.000Z</time>
</trkpt>
<trkpt lat="45.9400440" lon="9.5727580">
	<ele>1705.40</ele>
	<time>2023-10-07T08:44:08.000Z</time>
</trkpt>
<trkpt lat="45.9400450" lon="9.5727580">
	<ele>1705.40</ele>
	<time>2023-10-07T08:44:09.000Z</time>
</trkpt>
<trkpt lat="45.9400470" lon="9.5727580">
	<ele>1705.40</ele>
	<time>2023-10-07T08:44:10.000Z</time>
</trkpt>
<trkpt lat="45.9400470" lon="9.5727580">
	<ele>1705.40</ele>
	<time>2023-10-07T08:44:11.000Z</time>
</trkpt>
<trkpt lat="45.9400460" lon="9.5727540">
	<ele>1705.40</ele>
	<time>2023-10-07T08:44:12.000Z</time>
</trkpt>
<trkpt lat="45.9400410" lon="9.5727370">
	<ele>1705.20</ele>
	<time>2023-10-07T08:44:13.000Z</time>
</trkpt>
<trkpt lat="45.9400370" lon="9.5727260">
	<ele>1705.20</ele>
	<time>2023-10-07T08:44:14.000Z</time>
</trkpt>
<trkpt lat="45.9400340" lon="9.5727200">
	<ele>1705.20</ele>
	<time>2023-10-07T08:44:15.000Z</time>
</trkpt>
<trkpt lat="45.9400300" lon="9.5727150">
	<ele>1705.00</ele>
	<time>2023-10-07T08:44:16.000Z</time>
</trkpt>
<trkpt lat="45.9400280" lon="9.5727100">
	<ele>1704.80</ele>
	<time>2023-10-07T08:44:17.000Z</time>
</trkpt>
<trkpt lat="45.9400270" lon="9.5727030">
	<ele>1704.80</ele>
	<time>2023-10-07T08:44:18.000Z</time>
</trkpt>
<trkpt lat="45.9400260" lon="9.5726960">
	<ele>1704.80</ele>
	<time>2023-10-07T08:44:19.000Z</time>
</trkpt>
<trkpt lat="45.9400240" lon="9.5726920">
	<ele>1705.00</ele>
	<time>2023-10-07T08:44:20.000Z</time>
</trkpt>
<trkpt lat="45.9400230" lon="9.5726880">
	<ele>1705.20</ele>
	<time>2023-10-07T08:44:21.000Z</time>
</trkpt>
<trkpt lat="45.9400220" lon="9.5726880">
	<ele>1705.40</ele>
	<time>2023-10-07T08:44:22.000Z</time>
</trkpt>
<trkpt lat="45.9400220" lon="9.5726870">
	<ele>1705.60</ele>
	<time>2023-10-07T08:44:23.000Z</time>
</trkpt>
<trkpt lat="45.9400220" lon="9.5726870">
	<ele>1705.60</ele>
	<time>2023-10-07T08:44:24.000Z</time>
</trkpt>
<trkpt lat="45.9400220" lon="9.5726870">
	<ele>1705.60</ele>
	<time>2023-10-07T08:44:25.000Z</time>
</trkpt>
<trkpt lat="45.9400210" lon="9.5726870">
	<ele>1705.60</ele>
	<time>2023-10-07T08:44:26.000Z</time>
</trkpt>
<trkpt lat="45.9400210" lon="9.5726870">
	<ele>1705.60</ele>
	<time>2023-10-07T08:44:27.000Z</time>
</trkpt>
<trkpt lat="45.9400210" lon="9.5726870">
	<ele>1705.60</ele>
	<time>2023-10-07T08:44:28.000Z</time>
</trkpt>
<trkpt lat="45.9400210" lon="9.5726870">
	<ele>1705.60</ele>
	<time>2023-10-07T08:44:29.000Z</time>
</trkpt>
<trkpt lat="45.9400210" lon="9.5726870">
	<ele>1705.60</ele>
	<time>2023-10-07T08:44:30.000Z</time>
</trkpt>
<trkpt lat="45.9400210" lon="9.5726870">
	<ele>1705.60</ele>
	<time>2023-10-07T08:44:31.000Z</time>
</trkpt>
<trkpt lat="45.9400210" lon="9.5726870">
	<ele>1705.60</ele>
	<time>2023-10-07T08:44:32.000Z</time>
</trkpt>
<trkpt lat="45.9400210" lon="9.5726870">
	<ele>1705.40</ele>
	<time>2023-10-07T08:44:33.000Z</time>
</trkpt>
<trkpt lat="45.9400210" lon="9.5726870">
	<ele>1705.60</ele>
	<time>2023-10-07T08:44:34.000Z</time>
</trkpt>
<trkpt lat="45.9400220" lon="9.5726870">
	<ele>1705.60</ele>
	<time>2023-10-07T08:44:35.000Z</time>
</trkpt>
<trkpt lat="45.9400220" lon="9.5726870">
	<ele>1705.60</ele>
	<time>2023-10-07T08:44:36.000Z</time>
</trkpt>
<trkpt lat="45.9400220" lon="9.5726870">
	<ele>1705.60</ele>
	<time>2023-10-07T08:44:37.000Z</time>
</trkpt>
<trkpt lat="45.9400220" lon="9.5726880">
	<ele>1705.60</ele>
	<time>2023-10-07T08:44:38.000Z</time>
</trkpt>
<trkpt lat="45.9400220" lon="9.5726880">
	<ele>1705.60</ele>
	<time>2023-10-07T08:44:39.000Z</time>
</trkpt>
<trkpt lat="45.9400220" lon="9.5726880">
	<ele>1705.60</ele>
	<time>2023-10-07T08:44:40.000Z</time>
</trkpt>
<trkpt lat="45.9400220" lon="9.5726880">
	<ele>1705.60</ele>
	<time>2023-10-07T08:44:41.000Z</time>
</trkpt>
<trkpt lat="45.9400220" lon="9.5726880">
	<ele>1705.60</ele>
	<time>2023-10-07T08:44:42.000Z</time>
</trkpt>
<trkpt lat="45.9400220" lon="9.5726890">
	<ele>1705.60</ele>
	<time>2023-10-07T08:44:43.000Z</time>
</trkpt>
<trkpt lat="45.9400220" lon="9.5726890">
	<ele>1705.60</ele>
	<time>2023-10-07T08:44:44.000Z</time>
</trkpt>
<trkpt lat="45.9400220" lon="9.5726900">
	<ele>1705.60</ele>
	<time>2023-10-07T08:44:45.000Z</time>
</trkpt>
<trkpt lat="45.9400220" lon="9.5726900">
	<ele>1705.60</ele>
	<time>2023-10-07T08:44:46.000Z</time>
</trkpt>
<trkpt lat="45.9400220" lon="9.5726900">
	<ele>1705.60</ele>
	<time>2023-10-07T08:44:47.000Z</time>
</trkpt>
<trkpt lat="45.9400220" lon="9.5726900">
	<ele>1705.40</ele>
	<time>2023-10-07T08:44:48.000Z</time>
</trkpt>
<trkpt lat="45.9400220" lon="9.5726900">
	<ele>1705.40</ele>
	<time>2023-10-07T08:44:49.000Z</time>
</trkpt>
<trkpt lat="45.9400220" lon="9.5726900">
	<ele>1705.40</ele>
	<time>2023-10-07T08:44:50.000Z</time>
</trkpt>
<trkpt lat="45.9400220" lon="9.5726900">
	<ele>1705.20</ele>
	<time>2023-10-07T08:44:51.000Z</time>
</trkpt>
<trkpt lat="45.9400220" lon="9.5726900">
	<ele>1705.20</ele>
	<time>2023-10-07T08:44:52.000Z</time>
</trkpt>
<trkpt lat="45.9400220" lon="9.5726900">
	<ele>1705.20</ele>
	<time>2023-10-07T08:44:53.000Z</time>
</trkpt>
<trkpt lat="45.9400220" lon="9.5726900">
	<ele>1705.20</ele>
	<time>2023-10-07T08:44:54.000Z</time>
</trkpt>
<trkpt lat="45.9400220" lon="9.5726900">
	<ele>1705.20</ele>
	<time>2023-10-07T08:44:55.000Z</time>
</trkpt>
<trkpt lat="45.9400220" lon="9.5726900">
	<ele>1705.40</ele>
	<time>2023-10-07T08:44:56.000Z</time>
</trkpt>
<trkpt lat="45.9400230" lon="9.5726900">
	<ele>1705.40</ele>
	<time>2023-10-07T08:44:57.000Z</time>
</trkpt>
<trkpt lat="45.9400230" lon="9.5726910">
	<ele>1705.40</ele>
	<time>2023-10-07T08:44:58.000Z</time>
</trkpt>
<trkpt lat="45.9400230" lon="9.5726910">
	<ele>1705.40</ele>
	<time>2023-10-07T08:44:59.000Z</time>
</trkpt>
<trkpt lat="45.9400230" lon="9.5726910">
	<ele>1705.40</ele>
	<time>2023-10-07T08:45:00.000Z</time>
</trkpt>
<trkpt lat="45.9400230" lon="9.5726910">
	<ele>1705.40</ele>
	<time>2023-10-07T08:45:01.000Z</time>
</trkpt>
<trkpt lat="45.9400240" lon="9.5726910">
	<ele>1705.40</ele>
	<time>2023-10-07T08:45:02.000Z</time>
</trkpt>
<trkpt lat="45.9400240" lon="9.5726920">
	<ele>1705.40</ele>
	<time>2023-10-07T08:45:03.000Z</time>
</trkpt>
<trkpt lat="45.9400240" lon="9.5726940">
	<ele>1705.40</ele>
	<time>2023-10-07T08:45:04.000Z</time>
</trkpt>
<trkpt lat="45.9400240" lon="9.5726950">
	<ele>1705.40</ele>
	<time>2023-10-07T08:45:05.000Z</time>
</trkpt>
<trkpt lat="45.9400240" lon="9.5726960">
	<ele>1705.40</ele>
	<time>2023-10-07T08:45:06.000Z</time>
</trkpt>
<trkpt lat="45.9400240" lon="9.5726960">
	<ele>1705.40</ele>
	<time>2023-10-07T08:45:07.000Z</time>
</trkpt>
<trkpt lat="45.9400250" lon="9.5726970">
	<ele>1705.40</ele>
	<time>2023-10-07T08:45:08.000Z</time>
</trkpt>
<trkpt lat="45.9400250" lon="9.5726970">
	<ele>1705.40</ele>
	<time>2023-10-07T08:45:09.000Z</time>
</trkpt>
<trkpt lat="45.9400250" lon="9.5726970">
	<ele>1705.40</ele>
	<time>2023-10-07T08:45:10.000Z</time>
</trkpt>
<trkpt lat="45.9400260" lon="9.5726970">
	<ele>1705.40</ele>
	<time>2023-10-07T08:45:11.000Z</time>
</trkpt>
<trkpt lat="45.9400280" lon="9.5726970">
	<ele>1705.40</ele>
	<time>2023-10-07T08:45:12.000Z</time>
</trkpt>
<trkpt lat="45.9400290" lon="9.5726970">
	<ele>1705.40</ele>
	<time>2023-10-07T08:45:13.000Z</time>
</trkpt>
<trkpt lat="45.9400300" lon="9.5726970">
	<ele>1705.40</ele>
	<time>2023-10-07T08:45:14.000Z</time>
</trkpt>
<trkpt lat="45.9400300" lon="9.5726970">
	<ele>1705.40</ele>
	<time>2023-10-07T08:45:15.000Z</time>
</trkpt>
<trkpt lat="45.9400300" lon="9.5726970">
	<ele>1705.40</ele>
	<time>2023-10-07T08:45:16.000Z</time>
</trkpt>
<trkpt lat="45.9400310" lon="9.5726970">
	<ele>1705.40</ele>
	<time>2023-10-07T08:45:17.000Z</time>
</trkpt>
<trkpt lat="45.9400310" lon="9.5726970">
	<ele>1705.40</ele>
	<time>2023-10-07T08:45:18.000Z</time>
</trkpt>
<trkpt lat="45.9400310" lon="9.5726970">
	<ele>1705.40</ele>
	<time>2023-10-07T08:45:19.000Z</time>
</trkpt>
<trkpt lat="45.9400310" lon="9.5726970">
	<ele>1705.40</ele>
	<time>2023-10-07T08:45:20.000Z</time>
</trkpt>
<trkpt lat="45.9400310" lon="9.5726970">
	<ele>1705.40</ele>
	<time>2023-10-07T08:45:21.000Z</time>
</trkpt>
<trkpt lat="45.9400310" lon="9.5726970">
	<ele>1705.40</ele>
	<time>2023-10-07T08:45:22.000Z</time>
</trkpt>
<trkpt lat="45.9400320" lon="9.5726970">
	<ele>1705.40</ele>
	<time>2023-10-07T08:45:23.000Z</time>
</trkpt>
<trkpt lat="45.9400320" lon="9.5726960">
	<ele>1705.40</ele>
	<time>2023-10-07T08:45:24.000Z</time>
</trkpt>
<trkpt lat="45.9400320" lon="9.5726960">
	<ele>1705.40</ele>
	<time>2023-10-07T08:45:25.000Z</time>
</trkpt>
<trkpt lat="45.9400320" lon="9.5726960">
	<ele>1705.40</ele>
	<time>2023-10-07T08:45:26.000Z</time>
</trkpt>
<trkpt lat="45.9400320" lon="9.5726950">
	<ele>1705.40</ele>
	<time>2023-10-07T08:45:27.000Z</time>
</trkpt>
<trkpt lat="45.9400340" lon="9.5726920">
	<ele>1705.40</ele>
	<time>2023-10-07T08:45:28.000Z</time>
</trkpt>
<trkpt lat="45.9400440" lon="9.5726860">
	<ele>1705.40</ele>
	<time>2023-10-07T08:45:29.000Z</time>
</trkpt>
<trkpt lat="45.9400580" lon="9.5726800">
	<ele>1705.40</ele>
	<time>2023-10-07T08:45:30.000Z</time>
</trkpt>
<trkpt lat="45.9400740" lon="9.5726710">
	<ele>1705.40</ele>
	<time>2023-10-07T08:45:31.000Z</time>
</trkpt>
<trkpt lat="45.9400840" lon="9.5726590">
	<ele>1705.40</ele>
	<time>2023-10-07T08:45:32.000Z</time>
</trkpt>
<trkpt lat="45.9400940" lon="9.5726470">
	<ele>1705.40</ele>
	<time>2023-10-07T08:45:33.000Z</time>
</trkpt>
<trkpt lat="45.9401060" lon="9.5726370">
	<ele>1705.40</ele>
	<time>2023-10-07T08:45:34.000Z</time>
</trkpt>
<trkpt lat="45.9401170" lon="9.5726280">
	<ele>1705.40</ele>
	<time>2023-10-07T08:45:35.000Z</time>
</trkpt>
<trkpt lat="45.9401260" lon="9.5726230">
	<ele>1705.40</ele>
	<time>2023-10-07T08:45:36.000Z</time>
</trkpt>
<trkpt lat="45.9401360" lon="9.5726140">
	<ele>1705.40</ele>
	<time>2023-10-07T08:45:37.000Z</time>
</trkpt>
<trkpt lat="45.9401480" lon="9.5726060">
	<ele>1705.40</ele>
	<time>2023-10-07T08:45:38.000Z</time>
</trkpt>
<trkpt lat="45.9401540" lon="9.5726000">
	<ele>1705.40</ele>
	<time>2023-10-07T08:45:39.000Z</time>
</trkpt>
<trkpt lat="45.9401580" lon="9.5725890">
	<ele>1705.40</ele>
	<time>2023-10-07T08:45:40.000Z</time>
</trkpt>
<trkpt lat="45.9401640" lon="9.5725760">
	<ele>1705.40</ele>
	<time>2023-10-07T08:45:41.000Z</time>
</trkpt>
<trkpt lat="45.9401660" lon="9.5725630">
	<ele>1705.40</ele>
	<time>2023-10-07T08:45:42.000Z</time>
</trkpt>
<trkpt lat="45.9401670" lon="9.5725530">
	<ele>1705.40</ele>
	<time>2023-10-07T08:45:43.000Z</time>
</trkpt>
<trkpt lat="45.9401680" lon="9.5725380">
	<ele>1705.20</ele>
	<time>2023-10-07T08:45:44.000Z</time>
</trkpt>
<trkpt lat="45.9401680" lon="9.5725240">
	<ele>1705.20</ele>
	<time>2023-10-07T08:45:45.000Z</time>
</trkpt>
<trkpt lat="45.9401670" lon="9.5725160">
	<ele>1705.20</ele>
	<time>2023-10-07T08:45:46.000Z</time>
</trkpt>
<trkpt lat="45.9401660" lon="9.5725140">
	<ele>1705.20</ele>
	<time>2023-10-07T08:45:47.000Z</time>
</trkpt>
<trkpt lat="45.9401630" lon="9.5725120">
	<ele>1705.20</ele>
	<time>2023-10-07T08:45:48.000Z</time>
</trkpt>
<trkpt lat="45.9401650" lon="9.5725100">
	<ele>1705.20</ele>
	<time>2023-10-07T08:45:49.000Z</time>
</trkpt>
<trkpt lat="45.9401650" lon="9.5725070">
	<ele>1705.20</ele>
	<time>2023-10-07T08:45:50.000Z</time>
</trkpt>
<trkpt lat="45.9401650" lon="9.5725060">
	<ele>1705.40</ele>
	<time>2023-10-07T08:45:51.000Z</time>
</trkpt>
<trkpt lat="45.9401650" lon="9.5725060">
	<ele>1705.60</ele>
	<time>2023-10-07T08:45:52.000Z</time>
</trkpt>
<trkpt lat="45.9401650" lon="9.5725060">
	<ele>1705.80</ele>
	<time>2023-10-07T08:45:53.000Z</time>
</trkpt>
<trkpt lat="45.9401650" lon="9.5725060">
	<ele>1705.80</ele>
	<time>2023-10-07T08:45:54.000Z</time>
</trkpt>
<trkpt lat="45.9401660" lon="9.5725060">
	<ele>1705.80</ele>
	<time>2023-10-07T08:45:55.000Z</time>
</trkpt>
<trkpt lat="45.9401660" lon="9.5725060">
	<ele>1706.00</ele>
	<time>2023-10-07T08:45:56.000Z</time>
</trkpt>
<trkpt lat="45.9401660" lon="9.5725060">
	<ele>1706.00</ele>
	<time>2023-10-07T08:45:57.000Z</time>
</trkpt>
<trkpt lat="45.9401660" lon="9.5725060">
	<ele>1706.00</ele>
	<time>2023-10-07T08:45:58.000Z</time>
</trkpt>
<trkpt lat="45.9401660" lon="9.5725060">
	<ele>1706.00</ele>
	<time>2023-10-07T08:45:59.000Z</time>
</trkpt>
<trkpt lat="45.9401660" lon="9.5725060">
	<ele>1706.00</ele>
	<time>2023-10-07T08:46:00.000Z</time>
</trkpt>
<trkpt lat="45.9401660" lon="9.5725060">
	<ele>1705.80</ele>
	<time>2023-10-07T08:46:01.000Z</time>
</trkpt>
<trkpt lat="45.9401660" lon="9.5725060">
	<ele>1705.80</ele>
	<time>2023-10-07T08:46:02.000Z</time>
</trkpt>
<trkpt lat="45.9401660" lon="9.5725060">
	<ele>1705.80</ele>
	<time>2023-10-07T08:46:03.000Z</time>
</trkpt>
<trkpt lat="45.9401660" lon="9.5725060">
	<ele>1705.80</ele>
	<time>2023-10-07T08:46:04.000Z</time>
</trkpt>
<trkpt lat="45.9401650" lon="9.5724990">
	<ele>1705.80</ele>
	<time>2023-10-07T08:46:05.000Z</time>
</trkpt>
<trkpt lat="45.9401640" lon="9.5724750">
	<ele>1705.80</ele>
	<time>2023-10-07T08:46:06.000Z</time>
</trkpt>
<trkpt lat="45.9401630" lon="9.5724520">
	<ele>1705.80</ele>
	<time>2023-10-07T08:46:07.000Z</time>
</trkpt>
<trkpt lat="45.9401610" lon="9.5724240">
	<ele>1705.60</ele>
	<time>2023-10-07T08:46:08.000Z</time>
</trkpt>
<trkpt lat="45.9401560" lon="9.5723960">
	<ele>1705.60</ele>
	<time>2023-10-07T08:46:09.000Z</time>
</trkpt>
<trkpt lat="45.9401510" lon="9.5723730">
	<ele>1705.60</ele>
	<time>2023-10-07T08:46:10.000Z</time>
</trkpt>
<trkpt lat="45.9401490" lon="9.5723490">
	<ele>1705.60</ele>
	<time>2023-10-07T08:46:11.000Z</time>
</trkpt>
<trkpt lat="45.9401480" lon="9.5723240">
	<ele>1705.60</ele>
	<time>2023-10-07T08:46:12.000Z</time>
</trkpt>
<trkpt lat="45.9401430" lon="9.5722990">
	<ele>1705.60</ele>
	<time>2023-10-07T08:46:13.000Z</time>
</trkpt>
<trkpt lat="45.9401380" lon="9.5722740">
	<ele>1705.60</ele>
	<time>2023-10-07T08:46:14.000Z</time>
</trkpt>
<trkpt lat="45.9401360" lon="9.5722580">
	<ele>1705.60</ele>
	<time>2023-10-07T08:46:15.000Z</time>
</trkpt>
<trkpt lat="45.9401320" lon="9.5722380">
	<ele>1705.60</ele>
	<time>2023-10-07T08:46:16.000Z</time>
</trkpt>
<trkpt lat="45.9401290" lon="9.5722260">
	<ele>1705.60</ele>
	<time>2023-10-07T08:46:17.000Z</time>
</trkpt>
<trkpt lat="45.9401260" lon="9.5722080">
	<ele>1705.60</ele>
	<time>2023-10-07T08:46:18.000Z</time>
</trkpt>
<trkpt lat="45.9401230" lon="9.5721890">
	<ele>1705.60</ele>
	<time>2023-10-07T08:46:19.000Z</time>
</trkpt>
<trkpt lat="45.9401180" lon="9.5721690">
	<ele>1705.60</ele>
	<time>2023-10-07T08:46:20.000Z</time>
</trkpt>
<trkpt lat="45.9401140" lon="9.5721470">
	<ele>1705.40</ele>
	<time>2023-10-07T08:46:21.000Z</time>
</trkpt>
<trkpt lat="45.9401110" lon="9.5721260">
	<ele>1705.40</ele>
	<time>2023-10-07T08:46:22.000Z</time>
</trkpt>
<trkpt lat="45.9401110" lon="9.5721100">
	<ele>1705.40</ele>
	<time>2023-10-07T08:46:23.000Z</time>
</trkpt>
<trkpt lat="45.9401090" lon="9.5720960">
	<ele>1705.40</ele>
	<time>2023-10-07T08:46:24.000Z</time>
</trkpt>
<trkpt lat="45.9401090" lon="9.5720790">
	<ele>1705.20</ele>
	<time>2023-10-07T08:46:25.000Z</time>
</trkpt>
<trkpt lat="45.9401100" lon="9.5720630">
	<ele>1705.20</ele>
	<time>2023-10-07T08:46:26.000Z</time>
</trkpt>
<trkpt lat="45.9401110" lon="9.5720450">
	<ele>1705.20</ele>
	<time>2023-10-07T08:46:27.000Z</time>
</trkpt>
<trkpt lat="45.9401090" lon="9.5720290">
	<ele>1705.00</ele>
	<time>2023-10-07T08:46:28.000Z</time>
</trkpt>
<trkpt lat="45.9401080" lon="9.5720100">
	<ele>1705.00</ele>
	<time>2023-10-07T08:46:29.000Z</time>
</trkpt>
<trkpt lat="45.9401100" lon="9.5719920">
	<ele>1704.80</ele>
	<time>2023-10-07T08:46:30.000Z</time>
</trkpt>
<trkpt lat="45.9401100" lon="9.5719750">
	<ele>1704.80</ele>
	<time>2023-10-07T08:46:31.000Z</time>
</trkpt>
<trkpt lat="45.9401060" lon="9.5719560">
	<ele>1704.60</ele>
	<time>2023-10-07T08:46:32.000Z</time>
</trkpt>
<trkpt lat="45.9401040" lon="9.5719410">
	<ele>1704.60</ele>
	<time>2023-10-07T08:46:33.000Z</time>
</trkpt>
<trkpt lat="45.9401010" lon="9.5719280">
	<ele>1704.60</ele>
	<time>2023-10-07T08:46:34.000Z</time>
</trkpt>
<trkpt lat="45.9400990" lon="9.5719130">
	<ele>1704.60</ele>
	<time>2023-10-07T08:46:35.000Z</time>
</trkpt>
<trkpt lat="45.9400960" lon="9.5718950">
	<ele>1704.60</ele>
	<time>2023-10-07T08:46:36.000Z</time>
</trkpt>
<trkpt lat="45.9400950" lon="9.5718840">
	<ele>1704.60</ele>
	<time>2023-10-07T08:46:37.000Z</time>
</trkpt>
<trkpt lat="45.9400930" lon="9.5718680">
	<ele>1704.60</ele>
	<time>2023-10-07T08:46:38.000Z</time>
</trkpt>
<trkpt lat="45.9400890" lon="9.5718590">
	<ele>1704.60</ele>
	<time>2023-10-07T08:46:39.000Z</time>
</trkpt>
<trkpt lat="45.9400870" lon="9.5718440">
	<ele>1704.60</ele>
	<time>2023-10-07T08:46:40.000Z</time>
</trkpt>
<trkpt lat="45.9400870" lon="9.5718260">
	<ele>1704.60</ele>
	<time>2023-10-07T08:46:41.000Z</time>
</trkpt>
<trkpt lat="45.9400910" lon="9.5718070">
	<ele>1704.40</ele>
	<time>2023-10-07T08:46:42.000Z</time>
</trkpt>
<trkpt lat="45.9400930" lon="9.5717870">
	<ele>1704.40</ele>
	<time>2023-10-07T08:46:43.000Z</time>
</trkpt>
<trkpt lat="45.9400930" lon="9.5717640">
	<ele>1704.40</ele>
	<time>2023-10-07T08:46:44.000Z</time>
</trkpt>
<trkpt lat="45.9400920" lon="9.5717490">
	<ele>1704.20</ele>
	<time>2023-10-07T08:46:45.000Z</time>
</trkpt>
<trkpt lat="45.9400890" lon="9.5717310">
	<ele>1704.20</ele>
	<time>2023-10-07T08:46:46.000Z</time>
</trkpt>
<trkpt lat="45.9400890" lon="9.5717140">
	<ele>1704.20</ele>
	<time>2023-10-07T08:46:47.000Z</time>
</trkpt>
<trkpt lat="45.9400880" lon="9.5716930">
	<ele>1704.20</ele>
	<time>2023-10-07T08:46:48.000Z</time>
</trkpt>
<trkpt lat="45.9400860" lon="9.5716810">
	<ele>1704.20</ele>
	<time>2023-10-07T08:46:49.000Z</time>
</trkpt>
<trkpt lat="45.9400870" lon="9.5716660">
	<ele>1704.20</ele>
	<time>2023-10-07T08:46:50.000Z</time>
</trkpt>
<trkpt lat="45.9400860" lon="9.5716510">
	<ele>1704.20</ele>
	<time>2023-10-07T08:46:51.000Z</time>
</trkpt>
<trkpt lat="45.9400850" lon="9.5716330">
	<ele>1704.20</ele>
	<time>2023-10-07T08:46:52.000Z</time>
</trkpt>
<trkpt lat="45.9400880" lon="9.5716170">
	<ele>1704.20</ele>
	<time>2023-10-07T08:46:53.000Z</time>
</trkpt>
<trkpt lat="45.9400890" lon="9.5716040">
	<ele>1704.20</ele>
	<time>2023-10-07T08:46:54.000Z</time>
</trkpt>
<trkpt lat="45.9400920" lon="9.5715950">
	<ele>1704.20</ele>
	<time>2023-10-07T08:46:55.000Z</time>
</trkpt>
<trkpt lat="45.9400960" lon="9.5715870">
	<ele>1704.20</ele>
	<time>2023-10-07T08:46:56.000Z</time>
</trkpt>
<trkpt lat="45.9400980" lon="9.5715750">
	<ele>1704.20</ele>
	<time>2023-10-07T08:46:57.000Z</time>
</trkpt>
<trkpt lat="45.9401000" lon="9.5715620">
	<ele>1704.20</ele>
	<time>2023-10-07T08:46:58.000Z</time>
</trkpt>
<trkpt lat="45.9401000" lon="9.5715540">
	<ele>1704.20</ele>
	<time>2023-10-07T08:46:59.000Z</time>
</trkpt>
<trkpt lat="45.9401010" lon="9.5715480">
	<ele>1704.20</ele>
	<time>2023-10-07T08:47:00.000Z</time>
</trkpt>
<trkpt lat="45.9401020" lon="9.5715460">
	<ele>1704.20</ele>
	<time>2023-10-07T08:47:01.000Z</time>
</trkpt>
<trkpt lat="45.9401020" lon="9.5715460">
	<ele>1704.40</ele>
	<time>2023-10-07T08:47:02.000Z</time>
</trkpt>
<trkpt lat="45.9401020" lon="9.5715460">
	<ele>1704.60</ele>
	<time>2023-10-07T08:47:03.000Z</time>
</trkpt>
<trkpt lat="45.9401020" lon="9.5715470">
	<ele>1704.80</ele>
	<time>2023-10-07T08:47:04.000Z</time>
</trkpt>
<trkpt lat="45.9401020" lon="9.5715470">
	<ele>1704.80</ele>
	<time>2023-10-07T08:47:05.000Z</time>
</trkpt>
<trkpt lat="45.9401030" lon="9.5715470">
	<ele>1705.00</ele>
	<time>2023-10-07T08:47:06.000Z</time>
</trkpt>
<trkpt lat="45.9401030" lon="9.5715470">
	<ele>1705.00</ele>
	<time>2023-10-07T08:47:07.000Z</time>
</trkpt>
<trkpt lat="45.9401030" lon="9.5715470">
	<ele>1705.00</ele>
	<time>2023-10-07T08:47:08.000Z</time>
</trkpt>
<trkpt lat="45.9401020" lon="9.5715460">
	<ele>1705.00</ele>
	<time>2023-10-07T08:47:09.000Z</time>
</trkpt>
<trkpt lat="45.9401030" lon="9.5715440">
	<ele>1705.00</ele>
	<time>2023-10-07T08:47:10.000Z</time>
</trkpt>
<trkpt lat="45.9401030" lon="9.5715380">
	<ele>1704.80</ele>
	<time>2023-10-07T08:47:11.000Z</time>
</trkpt>
<trkpt lat="45.9401030" lon="9.5715280">
	<ele>1704.80</ele>
	<time>2023-10-07T08:47:12.000Z</time>
</trkpt>
<trkpt lat="45.9401040" lon="9.5715140">
	<ele>1704.60</ele>
	<time>2023-10-07T08:47:13.000Z</time>
</trkpt>
<trkpt lat="45.9401060" lon="9.5714980">
	<ele>1704.40</ele>
	<time>2023-10-07T08:47:14.000Z</time>
</trkpt>
<trkpt lat="45.9401090" lon="9.5714780">
	<ele>1704.20</ele>
	<time>2023-10-07T08:47:15.000Z</time>
</trkpt>
<trkpt lat="45.9401100" lon="9.5714600">
	<ele>1704.00</ele>
	<time>2023-10-07T08:47:16.000Z</time>
</trkpt>
<trkpt lat="45.9401100" lon="9.5714420">
	<ele>1704.00</ele>
	<time>2023-10-07T08:47:17.000Z</time>
</trkpt>
<trkpt lat="45.9401110" lon="9.5714210">
	<ele>1703.80</ele>
	<time>2023-10-07T08:47:18.000Z</time>
</trkpt>
<trkpt lat="45.9401110" lon="9.5713950">
	<ele>1703.80</ele>
	<time>2023-10-07T08:47:19.000Z</time>
</trkpt>
<trkpt lat="45.9401100" lon="9.5713760">
	<ele>1703.80</ele>
	<time>2023-10-07T08:47:20.000Z</time>
</trkpt>
<trkpt lat="45.9401130" lon="9.5713650">
	<ele>1704.20</ele>
	<time>2023-10-07T08:47:21.000Z</time>
</trkpt>
<trkpt lat="45.9401160" lon="9.5713520">
	<ele>1704.20</ele>
	<time>2023-10-07T08:47:22.000Z</time>
</trkpt>
<trkpt lat="45.9401170" lon="9.5713400">
	<ele>1704.40</ele>
	<time>2023-10-07T08:47:23.000Z</time>
</trkpt>
<trkpt lat="45.9401200" lon="9.5713240">
	<ele>1704.40</ele>
	<time>2023-10-07T08:47:24.000Z</time>
</trkpt>
<trkpt lat="45.9401190" lon="9.5713090">
	<ele>1704.40</ele>
	<time>2023-10-07T08:47:25.000Z</time>
</trkpt>
<trkpt lat="45.9401150" lon="9.5712900">
	<ele>1704.40</ele>
	<time>2023-10-07T08:47:26.000Z</time>
</trkpt>
<trkpt lat="45.9401130" lon="9.5712710">
	<ele>1704.20</ele>
	<time>2023-10-07T08:47:27.000Z</time>
</trkpt>
<trkpt lat="45.9401100" lon="9.5712480">
	<ele>1704.20</ele>
	<time>2023-10-07T08:47:28.000Z</time>
</trkpt>
<trkpt lat="45.9401080" lon="9.5712330">
	<ele>1704.20</ele>
	<time>2023-10-07T08:47:29.000Z</time>
</trkpt>
<trkpt lat="45.9401090" lon="9.5712170">
	<ele>1704.20</ele>
	<time>2023-10-07T08:47:30.000Z</time>
</trkpt>
<trkpt lat="45.9401090" lon="9.5712060">
	<ele>1704.00</ele>
	<time>2023-10-07T08:47:31.000Z</time>
</trkpt>
<trkpt lat="45.9401060" lon="9.5711940">
	<ele>1704.00</ele>
	<time>2023-10-07T08:47:32.000Z</time>
</trkpt>
<trkpt lat="45.9401060" lon="9.5711780">
	<ele>1704.00</ele>
	<time>2023-10-07T08:47:33.000Z</time>
</trkpt>
<trkpt lat="45.9401040" lon="9.5711620">
	<ele>1704.00</ele>
	<time>2023-10-07T08:47:34.000Z</time>
</trkpt>
<trkpt lat="45.9401020" lon="9.5711430">
	<ele>1704.00</ele>
	<time>2023-10-07T08:47:35.000Z</time>
</trkpt>
<trkpt lat="45.9400990" lon="9.5711240">
	<ele>1704.00</ele>
	<time>2023-10-07T08:47:36.000Z</time>
</trkpt>
<trkpt lat="45.9400950" lon="9.5711060">
	<ele>1703.80</ele>
	<time>2023-10-07T08:47:37.000Z</time>
</trkpt>
<trkpt lat="45.9400930" lon="9.5710890">
	<ele>1703.80</ele>
	<time>2023-10-07T08:47:38.000Z</time>
</trkpt>
<trkpt lat="45.9400910" lon="9.5710720">
	<ele>1703.80</ele>
	<time>2023-10-07T08:47:39.000Z</time>
</trkpt>
<trkpt lat="45.9400900" lon="9.5710560">
	<ele>1704.00</ele>
	<time>2023-10-07T08:47:40.000Z</time>
</trkpt>
<trkpt lat="45.9400900" lon="9.5710370">
	<ele>1704.00</ele>
	<time>2023-10-07T08:47:41.000Z</time>
</trkpt>
<trkpt lat="45.9400890" lon="9.5710200">
	<ele>1704.00</ele>
	<time>2023-10-07T08:47:42.000Z</time>
</trkpt>
<trkpt lat="45.9400880" lon="9.5710040">
	<ele>1704.00</ele>
	<time>2023-10-07T08:47:43.000Z</time>
</trkpt>
<trkpt lat="45.9400880" lon="9.5709890">
	<ele>1704.00</ele>
	<time>2023-10-07T08:47:44.000Z</time>
</trkpt>
<trkpt lat="45.9400870" lon="9.5709750">
	<ele>1704.20</ele>
	<time>2023-10-07T08:47:45.000Z</time>
</trkpt>
<trkpt lat="45.9400850" lon="9.5709600">
	<ele>1704.20</ele>
	<time>2023-10-07T08:47:46.000Z</time>
</trkpt>
<trkpt lat="45.9400820" lon="9.5709410">
	<ele>1704.20</ele>
	<time>2023-10-07T08:47:47.000Z</time>
</trkpt>
<trkpt lat="45.9400830" lon="9.5709230">
	<ele>1704.20</ele>
	<time>2023-10-07T08:47:48.000Z</time>
</trkpt>
<trkpt lat="45.9400820" lon="9.5709050">
	<ele>1704.20</ele>
	<time>2023-10-07T08:47:49.000Z</time>
</trkpt>
<trkpt lat="45.9400780" lon="9.5708860">
	<ele>1704.20</ele>
	<time>2023-10-07T08:47:50.000Z</time>
</trkpt>
<trkpt lat="45.9400730" lon="9.5708700">
	<ele>1704.40</ele>
	<time>2023-10-07T08:47:51.000Z</time>
</trkpt>
<trkpt lat="45.9400680" lon="9.5708560">
	<ele>1704.40</ele>
	<time>2023-10-07T08:47:52.000Z</time>
</trkpt>
<trkpt lat="45.9400600" lon="9.5708400">
	<ele>1704.40</ele>
	<time>2023-10-07T08:47:53.000Z</time>
</trkpt>
<trkpt lat="45.9400540" lon="9.5708240">
	<ele>1704.40</ele>
	<time>2023-10-07T08:47:54.000Z</time>
</trkpt>
<trkpt lat="45.9400490" lon="9.5708110">
	<ele>1704.40</ele>
	<time>2023-10-07T08:47:55.000Z</time>
</trkpt>
<trkpt lat="45.9400440" lon="9.5707950">
	<ele>1704.40</ele>
	<time>2023-10-07T08:47:56.000Z</time>
</trkpt>
<trkpt lat="45.9400400" lon="9.5707780">
	<ele>1704.40</ele>
	<time>2023-10-07T08:47:57.000Z</time>
</trkpt>
<trkpt lat="45.9400360" lon="9.5707610">
	<ele>1704.40</ele>
	<time>2023-10-07T08:47:58.000Z</time>
</trkpt>
<trkpt lat="45.9400320" lon="9.5707460">
	<ele>1704.40</ele>
	<time>2023-10-07T08:47:59.000Z</time>
</trkpt>
<trkpt lat="45.9400250" lon="9.5707320">
	<ele>1704.60</ele>
	<time>2023-10-07T08:48:00.000Z</time>
</trkpt>
<trkpt lat="45.9400170" lon="9.5707180">
	<ele>1704.60</ele>
	<time>2023-10-07T08:48:01.000Z</time>
</trkpt>
<trkpt lat="45.9400090" lon="9.5707020">
	<ele>1704.60</ele>
	<time>2023-10-07T08:48:02.000Z</time>
</trkpt>
<trkpt lat="45.9400020" lon="9.5706830">
	<ele>1704.60</ele>
	<time>2023-10-07T08:48:03.000Z</time>
</trkpt>
<trkpt lat="45.9399950" lon="9.5706680">
	<ele>1704.60</ele>
	<time>2023-10-07T08:48:04.000Z</time>
</trkpt>
<trkpt lat="45.9399890" lon="9.5706540">
	<ele>1704.60</ele>
	<time>2023-10-07T08:48:05.000Z</time>
</trkpt>
<trkpt lat="45.9399840" lon="9.5706390">
	<ele>1704.60</ele>
	<time>2023-10-07T08:48:06.000Z</time>
</trkpt>
<trkpt lat="45.9399770" lon="9.5706250">
	<ele>1704.60</ele>
	<time>2023-10-07T08:48:07.000Z</time>
</trkpt>
<trkpt lat="45.9399690" lon="9.5706100">
	<ele>1704.60</ele>
	<time>2023-10-07T08:48:08.000Z</time>
</trkpt>
<trkpt lat="45.9399620" lon="9.5705910">
	<ele>1704.60</ele>
	<time>2023-10-07T08:48:09.000Z</time>
</trkpt>
<trkpt lat="45.9399560" lon="9.5705750">
	<ele>1704.60</ele>
	<time>2023-10-07T08:48:10.000Z</time>
</trkpt>
<trkpt lat="45.9399510" lon="9.5705590">
	<ele>1704.60</ele>
	<time>2023-10-07T08:48:11.000Z</time>
</trkpt>
<trkpt lat="45.9399460" lon="9.5705450">
	<ele>1704.60</ele>
	<time>2023-10-07T08:48:12.000Z</time>
</trkpt>
<trkpt lat="45.9399380" lon="9.5705280">
	<ele>1704.60</ele>
	<time>2023-10-07T08:48:13.000Z</time>
</trkpt>
<trkpt lat="45.9399310" lon="9.5705180">
	<ele>1704.80</ele>
	<time>2023-10-07T08:48:14.000Z</time>
</trkpt>
<trkpt lat="45.9399230" lon="9.5705060">
	<ele>1705.00</ele>
	<time>2023-10-07T08:48:15.000Z</time>
</trkpt>
<trkpt lat="45.9399160" lon="9.5704920">
	<ele>1705.20</ele>
	<time>2023-10-07T08:48:16.000Z</time>
</trkpt>
<trkpt lat="45.9399100" lon="9.5704770">
	<ele>1705.20</ele>
	<time>2023-10-07T08:48:17.000Z</time>
</trkpt>
<trkpt lat="45.9399040" lon="9.5704600">
	<ele>1705.40</ele>
	<time>2023-10-07T08:48:18.000Z</time>
</trkpt>
<trkpt lat="45.9399010" lon="9.5704460">
	<ele>1705.40</ele>
	<time>2023-10-07T08:48:19.000Z</time>
</trkpt>
<trkpt lat="45.9398920" lon="9.5704310">
	<ele>1705.60</ele>
	<time>2023-10-07T08:48:20.000Z</time>
</trkpt>
<trkpt lat="45.9398830" lon="9.5704170">
	<ele>1705.60</ele>
	<time>2023-10-07T08:48:21.000Z</time>
</trkpt>
<trkpt lat="45.9398790" lon="9.5704030">
	<ele>1705.80</ele>
	<time>2023-10-07T08:48:22.000Z</time>
</trkpt>
<trkpt lat="45.9398760" lon="9.5703870">
	<ele>1705.80</ele>
	<time>2023-10-07T08:48:23.000Z</time>
</trkpt>
<trkpt lat="45.9398720" lon="9.5703710">
	<ele>1706.00</ele>
	<time>2023-10-07T08:48:24.000Z</time>
</trkpt>
<trkpt lat="45.9398700" lon="9.5703600">
	<ele>1706.00</ele>
	<time>2023-10-07T08:48:25.000Z</time>
</trkpt>
<trkpt lat="45.9398660" lon="9.5703440">
	<ele>1706.20</ele>
	<time>2023-10-07T08:48:26.000Z</time>
</trkpt>
<trkpt lat="45.9398600" lon="9.5703310">
	<ele>1706.40</ele>
	<time>2023-10-07T08:48:27.000Z</time>
</trkpt>
<trkpt lat="45.9398560" lon="9.5703210">
	<ele>1706.40</ele>
	<time>2023-10-07T08:48:28.000Z</time>
</trkpt>
<trkpt lat="45.9398500" lon="9.5703080">
	<ele>1706.40</ele>
	<time>2023-10-07T08:48:29.000Z</time>
</trkpt>
<trkpt lat="45.9398430" lon="9.5702940">
	<ele>1706.60</ele>
	<time>2023-10-07T08:48:30.000Z</time>
</trkpt>
<trkpt lat="45.9398350" lon="9.5702760">
	<ele>1706.80</ele>
	<time>2023-10-07T08:48:31.000Z</time>
</trkpt>
<trkpt lat="45.9398260" lon="9.5702590">
	<ele>1707.00</ele>
	<time>2023-10-07T08:48:32.000Z</time>
</trkpt>
<trkpt lat="45.9398170" lon="9.5702440">
	<ele>1707.00</ele>
	<time>2023-10-07T08:48:33.000Z</time>
</trkpt>
<trkpt lat="45.9398100" lon="9.5702310">
	<ele>1707.00</ele>
	<time>2023-10-07T08:48:34.000Z</time>
</trkpt>
<trkpt lat="45.9398020" lon="9.5702170">
	<ele>1707.00</ele>
	<time>2023-10-07T08:48:35.000Z</time>
</trkpt>
<trkpt lat="45.9397960" lon="9.5702020">
	<ele>1707.00</ele>
	<time>2023-10-07T08:48:36.000Z</time>
</trkpt>
<trkpt lat="45.9397900" lon="9.5701890">
	<ele>1707.00</ele>
	<time>2023-10-07T08:48:37.000Z</time>
</trkpt>
<trkpt lat="45.9397820" lon="9.5701740">
	<ele>1707.00</ele>
	<time>2023-10-07T08:48:38.000Z</time>
</trkpt>
<trkpt lat="45.9397740" lon="9.5701590">
	<ele>1707.00</ele>
	<time>2023-10-07T08:48:39.000Z</time>
</trkpt>
<trkpt lat="45.9397660" lon="9.5701450">
	<ele>1706.80</ele>
	<time>2023-10-07T08:48:40.000Z</time>
</trkpt>
<trkpt lat="45.9397580" lon="9.5701250">
	<ele>1706.80</ele>
	<time>2023-10-07T08:48:41.000Z</time>
</trkpt>
<trkpt lat="45.9397510" lon="9.5701090">
	<ele>1706.80</ele>
	<time>2023-10-07T08:48:42.000Z</time>
</trkpt>
<trkpt lat="45.9397440" lon="9.5700970">
	<ele>1707.00</ele>
	<time>2023-10-07T08:48:43.000Z</time>
</trkpt>
<trkpt lat="45.9397340" lon="9.5700850">
	<ele>1707.20</ele>
	<time>2023-10-07T08:48:44.000Z</time>
</trkpt>
<trkpt lat="45.9397260" lon="9.5700710">
	<ele>1707.20</ele>
	<time>2023-10-07T08:48:45.000Z</time>
</trkpt>
<trkpt lat="45.9397180" lon="9.5700590">
	<ele>1707.40</ele>
	<time>2023-10-07T08:48:46.000Z</time>
</trkpt>
<trkpt lat="45.9397090" lon="9.5700460">
	<ele>1707.20</ele>
	<time>2023-10-07T08:48:47.000Z</time>
</trkpt>
<trkpt lat="45.9397020" lon="9.5700370">
	<ele>1707.20</ele>
	<time>2023-10-07T08:48:48.000Z</time>
</trkpt>
<trkpt lat="45.9396970" lon="9.5700280">
	<ele>1707.20</ele>
	<time>2023-10-07T08:48:49.000Z</time>
</trkpt>
<trkpt lat="45.9396880" lon="9.5700140">
	<ele>1707.20</ele>
	<time>2023-10-07T08:48:50.000Z</time>
</trkpt>
<trkpt lat="45.9396800" lon="9.5699960">
	<ele>1707.20</ele>
	<time>2023-10-07T08:48:51.000Z</time>
</trkpt>
<trkpt lat="45.9396730" lon="9.5699790">
	<ele>1707.20</ele>
	<time>2023-10-07T08:48:52.000Z</time>
</trkpt>
<trkpt lat="45.9396660" lon="9.5699630">
	<ele>1707.20</ele>
	<time>2023-10-07T08:48:53.000Z</time>
</trkpt>
<trkpt lat="45.9396570" lon="9.5699460">
	<ele>1707.20</ele>
	<time>2023-10-07T08:48:54.000Z</time>
</trkpt>
<trkpt lat="45.9396470" lon="9.5699310">
	<ele>1707.20</ele>
	<time>2023-10-07T08:48:55.000Z</time>
</trkpt>
<trkpt lat="45.9396400" lon="9.5699180">
	<ele>1707.40</ele>
	<time>2023-10-07T08:48:56.000Z</time>
</trkpt>
<trkpt lat="45.9396340" lon="9.5699040">
	<ele>1707.40</ele>
	<time>2023-10-07T08:48:57.000Z</time>
</trkpt>
<trkpt lat="45.9396260" lon="9.5698910">
	<ele>1707.60</ele>
	<time>2023-10-07T08:48:58.000Z</time>
</trkpt>
<trkpt lat="45.9396210" lon="9.5698760">
	<ele>1707.60</ele>
	<time>2023-10-07T08:48:59.000Z</time>
</trkpt>
<trkpt lat="45.9396170" lon="9.5698650">
	<ele>1707.60</ele>
	<time>2023-10-07T08:49:00.000Z</time>
</trkpt>
<trkpt lat="45.9396140" lon="9.5698520">
	<ele>1707.60</ele>
	<time>2023-10-07T08:49:01.000Z</time>
</trkpt>
<trkpt lat="45.9396090" lon="9.5698370">
	<ele>1707.80</ele>
	<time>2023-10-07T08:49:02.000Z</time>
</trkpt>
<trkpt lat="45.9396050" lon="9.5698200">
	<ele>1707.80</ele>
	<time>2023-10-07T08:49:03.000Z</time>
</trkpt>
<trkpt lat="45.9396000" lon="9.5698010">
	<ele>1707.80</ele>
	<time>2023-10-07T08:49:04.000Z</time>
</trkpt>
<trkpt lat="45.9395920" lon="9.5697810">
	<ele>1707.80</ele>
	<time>2023-10-07T08:49:05.000Z</time>
</trkpt>
<trkpt lat="45.9395820" lon="9.5697620">
	<ele>1707.80</ele>
	<time>2023-10-07T08:49:06.000Z</time>
</trkpt>
<trkpt lat="45.9395730" lon="9.5697440">
	<ele>1707.60</ele>
	<time>2023-10-07T08:49:07.000Z</time>
</trkpt>
<trkpt lat="45.9395660" lon="9.5697280">
	<ele>1707.60</ele>
	<time>2023-10-07T08:49:08.000Z</time>
</trkpt>
<trkpt lat="45.9395600" lon="9.5697080">
	<ele>1707.60</ele>
	<time>2023-10-07T08:49:09.000Z</time>
</trkpt>
<trkpt lat="45.9395530" lon="9.5696890">
	<ele>1707.60</ele>
	<time>2023-10-07T08:49:10.000Z</time>
</trkpt>
<trkpt lat="45.9395480" lon="9.5696730">
	<ele>1707.60</ele>
	<time>2023-10-07T08:49:11.000Z</time>
</trkpt>
<trkpt lat="45.9395420" lon="9.5696620">
	<ele>1707.40</ele>
	<time>2023-10-07T08:49:12.000Z</time>
</trkpt>
<trkpt lat="45.9395380" lon="9.5696510">
	<ele>1707.40</ele>
	<time>2023-10-07T08:49:13.000Z</time>
</trkpt>
<trkpt lat="45.9395340" lon="9.5696380">
	<ele>1707.20</ele>
	<time>2023-10-07T08:49:14.000Z</time>
</trkpt>
<trkpt lat="45.9395270" lon="9.5696260">
	<ele>1707.20</ele>
	<time>2023-10-07T08:49:15.000Z</time>
</trkpt>
<trkpt lat="45.9395200" lon="9.5696180">
	<ele>1707.20</ele>
	<time>2023-10-07T08:49:16.000Z</time>
</trkpt>
<trkpt lat="45.9395160" lon="9.5696120">
	<ele>1707.00</ele>
	<time>2023-10-07T08:49:17.000Z</time>
</trkpt>
<trkpt lat="45.9395090" lon="9.5696040">
	<ele>1707.00</ele>
	<time>2023-10-07T08:49:18.000Z</time>
</trkpt>
<trkpt lat="45.9395000" lon="9.5695890">
	<ele>1707.00</ele>
	<time>2023-10-07T08:49:19.000Z</time>
</trkpt>
<trkpt lat="45.9394920" lon="9.5695750">
	<ele>1706.80</ele>
	<time>2023-10-07T08:49:20.000Z</time>
</trkpt>
<trkpt lat="45.9394840" lon="9.5695670">
	<ele>1706.80</ele>
	<time>2023-10-07T08:49:21.000Z</time>
</trkpt>
<trkpt lat="45.9394770" lon="9.5695590">
	<ele>1706.80</ele>
	<time>2023-10-07T08:49:22.000Z</time>
</trkpt>
<trkpt lat="45.9394690" lon="9.5695450">
	<ele>1706.60</ele>
	<time>2023-10-07T08:49:23.000Z</time>
</trkpt>
<trkpt lat="45.9394600" lon="9.5695330">
	<ele>1706.60</ele>
	<time>2023-10-07T08:49:24.000Z</time>
</trkpt>
<trkpt lat="45.9394530" lon="9.5695220">
	<ele>1706.60</ele>
	<time>2023-10-07T08:49:25.000Z</time>
</trkpt>
<trkpt lat="45.9394470" lon="9.5695150">
	<ele>1706.40</ele>
	<time>2023-10-07T08:49:26.000Z</time>
</trkpt>
<trkpt lat="45.9394420" lon="9.5695100">
	<ele>1706.40</ele>
	<time>2023-10-07T08:49:27.000Z</time>
</trkpt>
<trkpt lat="45.9394350" lon="9.5695090">
	<ele>1706.40</ele>
	<time>2023-10-07T08:49:28.000Z</time>
</trkpt>
<trkpt lat="45.9394280" lon="9.5695070">
	<ele>1706.40</ele>
	<time>2023-10-07T08:49:29.000Z</time>
</trkpt>
<trkpt lat="45.9394240" lon="9.5695040">
	<ele>1706.20</ele>
	<time>2023-10-07T08:49:30.000Z</time>
</trkpt>
<trkpt lat="45.9394220" lon="9.5695020">
	<ele>1706.00</ele>
	<time>2023-10-07T08:49:31.000Z</time>
</trkpt>
<trkpt lat="45.9394200" lon="9.5695000">
	<ele>1706.00</ele>
	<time>2023-10-07T08:49:32.000Z</time>
</trkpt>
<trkpt lat="45.9394180" lon="9.5694970">
	<ele>1706.00</ele>
	<time>2023-10-07T08:49:33.000Z</time>
</trkpt>
<trkpt lat="45.9394180" lon="9.5694950">
	<ele>1705.80</ele>
	<time>2023-10-07T08:49:34.000Z</time>
</trkpt>
<trkpt lat="45.9394160" lon="9.5694920">
	<ele>1705.80</ele>
	<time>2023-10-07T08:49:35.000Z</time>
</trkpt>
<trkpt lat="45.9394160" lon="9.5694910">
	<ele>1705.80</ele>
	<time>2023-10-07T08:49:36.000Z</time>
</trkpt>
<trkpt lat="45.9394140" lon="9.5694860">
	<ele>1706.00</ele>
	<time>2023-10-07T08:49:37.000Z</time>
</trkpt>
<trkpt lat="45.9394100" lon="9.5694780">
	<ele>1706.00</ele>
	<time>2023-10-07T08:49:38.000Z</time>
</trkpt>
<trkpt lat="45.9394060" lon="9.5694760">
	<ele>1706.20</ele>
	<time>2023-10-07T08:49:39.000Z</time>
</trkpt>
<trkpt lat="45.9394040" lon="9.5694790">
	<ele>1706.40</ele>
	<time>2023-10-07T08:49:40.000Z</time>
</trkpt>
<trkpt lat="45.9394030" lon="9.5694820">
	<ele>1706.40</ele>
	<time>2023-10-07T08:49:41.000Z</time>
</trkpt>
<trkpt lat="45.9394020" lon="9.5694810">
	<ele>1706.40</ele>
	<time>2023-10-07T08:49:42.000Z</time>
</trkpt>
<trkpt lat="45.9393990" lon="9.5694700">
	<ele>1706.40</ele>
	<time>2023-10-07T08:49:43.000Z</time>
</trkpt>
<trkpt lat="45.9393990" lon="9.5694640">
	<ele>1706.20</ele>
	<time>2023-10-07T08:49:44.000Z</time>
</trkpt>
<trkpt lat="45.9393980" lon="9.5694610">
	<ele>1706.20</ele>
	<time>2023-10-07T08:49:45.000Z</time>
</trkpt>
<trkpt lat="45.9393960" lon="9.5694580">
	<ele>1706.00</ele>
	<time>2023-10-07T08:49:46.000Z</time>
</trkpt>
<trkpt lat="45.9393920" lon="9.5694530">
	<ele>1706.00</ele>
	<time>2023-10-07T08:49:47.000Z</time>
</trkpt>
<trkpt lat="45.9393870" lon="9.5694490">
	<ele>1705.80</ele>
	<time>2023-10-07T08:49:48.000Z</time>
</trkpt>
<trkpt lat="45.9393830" lon="9.5694470">
	<ele>1705.80</ele>
	<time>2023-10-07T08:49:49.000Z</time>
</trkpt>
<trkpt lat="45.9393820" lon="9.5694460">
	<ele>1705.80</ele>
	<time>2023-10-07T08:49:50.000Z</time>
</trkpt>
<trkpt lat="45.9393820" lon="9.5694450">
	<ele>1705.60</ele>
	<time>2023-10-07T08:49:51.000Z</time>
</trkpt>
<trkpt lat="45.9393850" lon="9.5694460">
	<ele>1705.60</ele>
	<time>2023-10-07T08:49:52.000Z</time>
</trkpt>
<trkpt lat="45.9393870" lon="9.5694470">
	<ele>1705.40</ele>
	<time>2023-10-07T08:49:53.000Z</time>
</trkpt>
<trkpt lat="45.9393870" lon="9.5694470">
	<ele>1705.40</ele>
	<time>2023-10-07T08:49:54.000Z</time>
</trkpt>
<trkpt lat="45.9393860" lon="9.5694440">
	<ele>1705.40</ele>
	<time>2023-10-07T08:49:55.000Z</time>
</trkpt>
<trkpt lat="45.9393850" lon="9.5694420">
	<ele>1705.40</ele>
	<time>2023-10-07T08:49:56.000Z</time>
</trkpt>
<trkpt lat="45.9393850" lon="9.5694420">
	<ele>1705.40</ele>
	<time>2023-10-07T08:49:57.000Z</time>
</trkpt>
<trkpt lat="45.9393850" lon="9.5694420">
	<ele>1705.60</ele>
	<time>2023-10-07T08:49:58.000Z</time>
</trkpt>
<trkpt lat="45.9393850" lon="9.5694420">
	<ele>1705.60</ele>
	<time>2023-10-07T08:49:59.000Z</time>
</trkpt>
<trkpt lat="45.9393850" lon="9.5694420">
	<ele>1705.80</ele>
	<time>2023-10-07T08:50:00.000Z</time>
</trkpt>
<trkpt lat="45.9393850" lon="9.5694420">
	<ele>1705.80</ele>
	<time>2023-10-07T08:50:01.000Z</time>
</trkpt>
<trkpt lat="45.9393850" lon="9.5694420">
	<ele>1705.80</ele>
	<time>2023-10-07T08:50:02.000Z</time>
</trkpt>
<trkpt lat="45.9393850" lon="9.5694420">
	<ele>1705.80</ele>
	<time>2023-10-07T08:50:03.000Z</time>
</trkpt>
<trkpt lat="45.9393850" lon="9.5694420">
	<ele>1705.80</ele>
	<time>2023-10-07T08:50:04.000Z</time>
</trkpt>
<trkpt lat="45.9393850" lon="9.5694420">
	<ele>1705.60</ele>
	<time>2023-10-07T08:50:05.000Z</time>
</trkpt>
<trkpt lat="45.9393850" lon="9.5694420">
	<ele>1705.40</ele>
	<time>2023-10-07T08:50:06.000Z</time>
</trkpt>
<trkpt lat="45.9393850" lon="9.5694420">
	<ele>1705.20</ele>
	<time>2023-10-07T08:50:07.000Z</time>
</trkpt>
<trkpt lat="45.9393850" lon="9.5694420">
	<ele>1705.00</ele>
	<time>2023-10-07T08:50:08.000Z</time>
</trkpt>
<trkpt lat="45.9393850" lon="9.5694420">
	<ele>1705.00</ele>
	<time>2023-10-07T08:50:09.000Z</time>
</trkpt>
<trkpt lat="45.9393850" lon="9.5694420">
	<ele>1704.80</ele>
	<time>2023-10-07T08:50:10.000Z</time>
</trkpt>
<trkpt lat="45.9393840" lon="9.5694420">
	<ele>1704.60</ele>
	<time>2023-10-07T08:50:11.000Z</time>
</trkpt>
<trkpt lat="45.9393840" lon="9.5694420">
	<ele>1704.40</ele>
	<time>2023-10-07T08:50:12.000Z</time>
</trkpt>
<trkpt lat="45.9393840" lon="9.5694420">
	<ele>1704.20</ele>
	<time>2023-10-07T08:50:13.000Z</time>
</trkpt>
<trkpt lat="45.9393840" lon="9.5694420">
	<ele>1703.80</ele>
	<time>2023-10-07T08:50:14.000Z</time>
</trkpt>
<trkpt lat="45.9393840" lon="9.5694420">
	<ele>1703.60</ele>
	<time>2023-10-07T08:50:15.000Z</time>
</trkpt>
<trkpt lat="45.9393840" lon="9.5694420">
	<ele>1703.40</ele>
	<time>2023-10-07T08:50:16.000Z</time>
</trkpt>
<trkpt lat="45.9393830" lon="9.5694420">
	<ele>1703.40</ele>
	<time>2023-10-07T08:50:17.000Z</time>
</trkpt>
<trkpt lat="45.9393820" lon="9.5694420">
	<ele>1703.20</ele>
	<time>2023-10-07T08:50:18.000Z</time>
</trkpt>
<trkpt lat="45.9393820" lon="9.5694420">
	<ele>1703.00</ele>
	<time>2023-10-07T08:50:19.000Z</time>
</trkpt>
<trkpt lat="45.9393820" lon="9.5694410">
	<ele>1702.80</ele>
	<time>2023-10-07T08:50:20.000Z</time>
</trkpt>
<trkpt lat="45.9393810" lon="9.5694410">
	<ele>1702.40</ele>
	<time>2023-10-07T08:50:21.000Z</time>
</trkpt>
<trkpt lat="45.9393730" lon="9.5694390">
	<ele>1702.20</ele>
	<time>2023-10-07T08:50:22.000Z</time>
</trkpt>
<trkpt lat="45.9393580" lon="9.5694320">
	<ele>1701.80</ele>
	<time>2023-10-07T08:50:23.000Z</time>
</trkpt>
<trkpt lat="45.9393380" lon="9.5694280">
	<ele>1701.60</ele>
	<time>2023-10-07T08:50:24.000Z</time>
</trkpt>
<trkpt lat="45.9393220" lon="9.5694220">
	<ele>1701.40</ele>
	<time>2023-10-07T08:50:25.000Z</time>
</trkpt>
<trkpt lat="45.9393060" lon="9.5694160">
	<ele>1701.20</ele>
	<time>2023-10-07T08:50:26.000Z</time>
</trkpt>
<trkpt lat="45.9392920" lon="9.5694080">
	<ele>1701.00</ele>
	<time>2023-10-07T08:50:27.000Z</time>
</trkpt>
<trkpt lat="45.9392790" lon="9.5694010">
	<ele>1700.80</ele>
	<time>2023-10-07T08:50:28.000Z</time>
</trkpt>
<trkpt lat="45.9392670" lon="9.5693950">
	<ele>1700.60</ele>
	<time>2023-10-07T08:50:29.000Z</time>
</trkpt>
<trkpt lat="45.9392550" lon="9.5693890">
	<ele>1700.40</ele>
	<time>2023-10-07T08:50:30.000Z</time>
</trkpt>
<trkpt lat="45.9392400" lon="9.5693770">
	<ele>1700.20</ele>
	<time>2023-10-07T08:50:31.000Z</time>
</trkpt>
<trkpt lat="45.9392350" lon="9.5693630">
	<ele>1700.00</ele>
	<time>2023-10-07T08:50:32.000Z</time>
</trkpt>
<trkpt lat="45.9392280" lon="9.5693540">
	<ele>1700.00</ele>
	<time>2023-10-07T08:50:33.000Z</time>
</trkpt>
<trkpt lat="45.9392200" lon="9.5693470">
	<ele>1700.00</ele>
	<time>2023-10-07T08:50:34.000Z</time>
</trkpt>
<trkpt lat="45.9392090" lon="9.5693400">
	<ele>1699.60</ele>
	<time>2023-10-07T08:50:35.000Z</time>
</trkpt>
<trkpt lat="45.9391990" lon="9.5693320">
	<ele>1699.40</ele>
	<time>2023-10-07T08:50:36.000Z</time>
</trkpt>
<trkpt lat="45.9391940" lon="9.5693230">
	<ele>1699.20</ele>
	<time>2023-10-07T08:50:37.000Z</time>
</trkpt>
<trkpt lat="45.9391910" lon="9.5693150">
	<ele>1699.00</ele>
	<time>2023-10-07T08:50:38.000Z</time>
</trkpt>
<trkpt lat="45.9391910" lon="9.5693020">
	<ele>1698.80</ele>
	<time>2023-10-07T08:50:39.000Z</time>
</trkpt>
<trkpt lat="45.9391920" lon="9.5692910">
	<ele>1698.60</ele>
	<time>2023-10-07T08:50:40.000Z</time>
</trkpt>
<trkpt lat="45.9391930" lon="9.5692770">
	<ele>1698.40</ele>
	<time>2023-10-07T08:50:41.000Z</time>
</trkpt>
<trkpt lat="45.9391940" lon="9.5692650">
	<ele>1698.20</ele>
	<time>2023-10-07T08:50:42.000Z</time>
</trkpt>
<trkpt lat="45.9391950" lon="9.5692520">
	<ele>1698.00</ele>
	<time>2023-10-07T08:50:43.000Z</time>
</trkpt>
<trkpt lat="45.9391950" lon="9.5692400">
	<ele>1698.00</ele>
	<time>2023-10-07T08:50:44.000Z</time>
</trkpt>
<trkpt lat="45.9391940" lon="9.5692290">
	<ele>1697.80</ele>
	<time>2023-10-07T08:50:45.000Z</time>
</trkpt>
<trkpt lat="45.9391920" lon="9.5692190">
	<ele>1697.80</ele>
	<time>2023-10-07T08:50:46.000Z</time>
</trkpt>
<trkpt lat="45.9391900" lon="9.5692060">
	<ele>1697.80</ele>
	<time>2023-10-07T08:50:47.000Z</time>
</trkpt>
<trkpt lat="45.9391890" lon="9.5691940">
	<ele>1697.60</ele>
	<time>2023-10-07T08:50:48.000Z</time>
</trkpt>
<trkpt lat="45.9391910" lon="9.5691770">
	<ele>1697.40</ele>
	<time>2023-10-07T08:50:49.000Z</time>
</trkpt>
<trkpt lat="45.9391930" lon="9.5691620">
	<ele>1697.20</ele>
	<time>2023-10-07T08:50:50.000Z</time>
</trkpt>
<trkpt lat="45.9391900" lon="9.5691490">
	<ele>1697.00</ele>
	<time>2023-10-07T08:50:51.000Z</time>
</trkpt>
<trkpt lat="45.9391870" lon="9.5691340">
	<ele>1696.80</ele>
	<time>2023-10-07T08:50:52.000Z</time>
</trkpt>
<trkpt lat="45.9391810" lon="9.5691230">
	<ele>1696.60</ele>
	<time>2023-10-07T08:50:53.000Z</time>
</trkpt>
<trkpt lat="45.9391730" lon="9.5691140">
	<ele>1696.40</ele>
	<time>2023-10-07T08:50:54.000Z</time>
</trkpt>
<trkpt lat="45.9391670" lon="9.5691020">
	<ele>1696.40</ele>
	<time>2023-10-07T08:50:55.000Z</time>
</trkpt>
<trkpt lat="45.9391640" lon="9.5690940">
	<ele>1696.20</ele>
	<time>2023-10-07T08:50:56.000Z</time>
</trkpt>
<trkpt lat="45.9391630" lon="9.5690900">
	<ele>1696.00</ele>
	<time>2023-10-07T08:50:57.000Z</time>
</trkpt>
<trkpt lat="45.9391630" lon="9.5690890">
	<ele>1695.80</ele>
	<time>2023-10-07T08:50:58.000Z</time>
</trkpt>
<trkpt lat="45.9391630" lon="9.5690900">
	<ele>1695.80</ele>
	<time>2023-10-07T08:50:59.000Z</time>
</trkpt>
<trkpt lat="45.9391630" lon="9.5690910">
	<ele>1695.80</ele>
	<time>2023-10-07T08:51:00.000Z</time>
</trkpt>
<trkpt lat="45.9391630" lon="9.5690900">
	<ele>1695.80</ele>
	<time>2023-10-07T08:51:01.000Z</time>
</trkpt>
<trkpt lat="45.9391640" lon="9.5690890">
	<ele>1695.60</ele>
	<time>2023-10-07T08:51:02.000Z</time>
</trkpt>
<trkpt lat="45.9391640" lon="9.5690880">
	<ele>1695.60</ele>
	<time>2023-10-07T08:51:03.000Z</time>
</trkpt>
<trkpt lat="45.9391640" lon="9.5690880">
	<ele>1695.60</ele>
	<time>2023-10-07T08:51:04.000Z</time>
</trkpt>
<trkpt lat="45.9391630" lon="9.5690860">
	<ele>1695.60</ele>
	<time>2023-10-07T08:51:05.000Z</time>
</trkpt>
<trkpt lat="45.9391630" lon="9.5690830">
	<ele>1695.60</ele>
	<time>2023-10-07T08:51:06.000Z</time>
</trkpt>
<trkpt lat="45.9391630" lon="9.5690800">
	<ele>1695.60</ele>
	<time>2023-10-07T08:51:07.000Z</time>
</trkpt>
<trkpt lat="45.9391590" lon="9.5690730">
	<ele>1695.60</ele>
	<time>2023-10-07T08:51:08.000Z</time>
</trkpt>
<trkpt lat="45.9391550" lon="9.5690650">
	<ele>1695.60</ele>
	<time>2023-10-07T08:51:09.000Z</time>
</trkpt>
<trkpt lat="45.9391490" lon="9.5690580">
	<ele>1695.60</ele>
	<time>2023-10-07T08:51:10.000Z</time>
</trkpt>
<trkpt lat="45.9391420" lon="9.5690540">
	<ele>1695.40</ele>
	<time>2023-10-07T08:51:11.000Z</time>
</trkpt>
<trkpt lat="45.9391370" lon="9.5690460">
	<ele>1695.40</ele>
	<time>2023-10-07T08:51:12.000Z</time>
</trkpt>
<trkpt lat="45.9391360" lon="9.5690360">
	<ele>1695.40</ele>
	<time>2023-10-07T08:51:13.000Z</time>
</trkpt>
<trkpt lat="45.9391340" lon="9.5690280">
	<ele>1695.40</ele>
	<time>2023-10-07T08:51:14.000Z</time>
</trkpt>
<trkpt lat="45.9391320" lon="9.5690230">
	<ele>1695.20</ele>
	<time>2023-10-07T08:51:15.000Z</time>
</trkpt>
<trkpt lat="45.9391280" lon="9.5690210">
	<ele>1695.20</ele>
	<time>2023-10-07T08:51:16.000Z</time>
</trkpt>
<trkpt lat="45.9391220" lon="9.5690200">
	<ele>1695.00</ele>
	<time>2023-10-07T08:51:17.000Z</time>
</trkpt>
<trkpt lat="45.9391120" lon="9.5690200">
	<ele>1695.00</ele>
	<time>2023-10-07T08:51:18.000Z</time>
</trkpt>
<trkpt lat="45.9391010" lon="9.5690200">
	<ele>1694.60</ele>
	<time>2023-10-07T08:51:19.000Z</time>
</trkpt>
<trkpt lat="45.9390930" lon="9.5690190">
	<ele>1694.40</ele>
	<time>2023-10-07T08:51:20.000Z</time>
</trkpt>
<trkpt lat="45.9390840" lon="9.5690180">
	<ele>1694.20</ele>
	<time>2023-10-07T08:51:21.000Z</time>
</trkpt>
<trkpt lat="45.9390730" lon="9.5690200">
	<ele>1694.00</ele>
	<time>2023-10-07T08:51:22.000Z</time>
</trkpt>
<trkpt lat="45.9390670" lon="9.5690190">
	<ele>1693.80</ele>
	<time>2023-10-07T08:51:23.000Z</time>
</trkpt>
<trkpt lat="45.9390560" lon="9.5690140">
	<ele>1693.60</ele>
	<time>2023-10-07T08:51:24.000Z</time>
</trkpt>
<trkpt lat="45.9390470" lon="9.5690090">
	<ele>1693.40</ele>
	<time>2023-10-07T08:51:25.000Z</time>
</trkpt>
<trkpt lat="45.9390400" lon="9.5690050">
	<ele>1693.20</ele>
	<time>2023-10-07T08:51:26.000Z</time>
</trkpt>
<trkpt lat="45.9390350" lon="9.5689980">
	<ele>1693.00</ele>
	<time>2023-10-07T08:51:27.000Z</time>
</trkpt>
<trkpt lat="45.9390310" lon="9.5689900">
	<ele>1693.00</ele>
	<time>2023-10-07T08:51:28.000Z</time>
</trkpt>
<trkpt lat="45.9390250" lon="9.5689850">
	<ele>1692.80</ele>
	<time>2023-10-07T08:51:29.000Z</time>
</trkpt>
<trkpt lat="45.9390170" lon="9.5689780">
	<ele>1692.40</ele>
	<time>2023-10-07T08:51:30.000Z</time>
</trkpt>
<trkpt lat="45.9390110" lon="9.5689700">
	<ele>1692.40</ele>
	<time>2023-10-07T08:51:31.000Z</time>
</trkpt>
<trkpt lat="45.9390050" lon="9.5689630">
	<ele>1692.20</ele>
	<time>2023-10-07T08:51:32.000Z</time>
</trkpt>
<trkpt lat="45.9389970" lon="9.5689560">
	<ele>1692.00</ele>
	<time>2023-10-07T08:51:33.000Z</time>
</trkpt>
<trkpt lat="45.9389900" lon="9.5689460">
	<ele>1691.80</ele>
	<time>2023-10-07T08:51:34.000Z</time>
</trkpt>
<trkpt lat="45.9389830" lon="9.5689290">
	<ele>1691.60</ele>
	<time>2023-10-07T08:51:35.000Z</time>
</trkpt>
<trkpt lat="45.9389750" lon="9.5689200">
	<ele>1691.20</ele>
	<time>2023-10-07T08:51:36.000Z</time>
</trkpt>
<trkpt lat="45.9389670" lon="9.5689140">
	<ele>1691.00</ele>
	<time>2023-10-07T08:51:37.000Z</time>
</trkpt>
<trkpt lat="45.9389560" lon="9.5689030">
	<ele>1690.80</ele>
	<time>2023-10-07T08:51:38.000Z</time>
</trkpt>
<trkpt lat="45.9389460" lon="9.5688910">
	<ele>1690.60</ele>
	<time>2023-10-07T08:51:39.000Z</time>
</trkpt>
<trkpt lat="45.9389360" lon="9.5688850">
	<ele>1690.40</ele>
	<time>2023-10-07T08:51:40.000Z</time>
</trkpt>
<trkpt lat="45.9389300" lon="9.5688780">
	<ele>1690.20</ele>
	<time>2023-10-07T08:51:41.000Z</time>
</trkpt>
<trkpt lat="45.9389180" lon="9.5688740">
	<ele>1690.00</ele>
	<time>2023-10-07T08:51:42.000Z</time>
</trkpt>
<trkpt lat="45.9389090" lon="9.5688710">
	<ele>1690.00</ele>
	<time>2023-10-07T08:51:43.000Z</time>
</trkpt>
<trkpt lat="45.9388970" lon="9.5688670">
	<ele>1689.80</ele>
	<time>2023-10-07T08:51:44.000Z</time>
</trkpt>
<trkpt lat="45.9388860" lon="9.5688620">
	<ele>1689.60</ele>
	<time>2023-10-07T08:51:45.000Z</time>
</trkpt>
<trkpt lat="45.9388760" lon="9.5688560">
	<ele>1689.40</ele>
	<time>2023-10-07T08:51:46.000Z</time>
</trkpt>
<trkpt lat="45.9388660" lon="9.5688440">
	<ele>1689.20</ele>
	<time>2023-10-07T08:51:47.000Z</time>
</trkpt>
<trkpt lat="45.9388560" lon="9.5688290">
	<ele>1689.20</ele>
	<time>2023-10-07T08:51:48.000Z</time>
</trkpt>
<trkpt lat="45.9388480" lon="9.5688160">
	<ele>1689.00</ele>
	<time>2023-10-07T08:51:49.000Z</time>
</trkpt>
<trkpt lat="45.9388420" lon="9.5688080">
	<ele>1689.00</ele>
	<time>2023-10-07T08:51:50.000Z</time>
</trkpt>
<trkpt lat="45.9388320" lon="9.5687970">
	<ele>1689.00</ele>
	<time>2023-10-07T08:51:51.000Z</time>
</trkpt>
<trkpt lat="45.9388190" lon="9.5687860">
	<ele>1689.00</ele>
	<time>2023-10-07T08:51:52.000Z</time>
</trkpt>
<trkpt lat="45.9388050" lon="9.5687740">
	<ele>1688.80</ele>
	<time>2023-10-07T08:51:53.000Z</time>
</trkpt>
<trkpt lat="45.9387950" lon="9.5687650">
	<ele>1688.80</ele>
	<time>2023-10-07T08:51:54.000Z</time>
</trkpt>
<trkpt lat="45.9387850" lon="9.5687560">
	<ele>1688.60</ele>
	<time>2023-10-07T08:51:55.000Z</time>
</trkpt>
<trkpt lat="45.9387730" lon="9.5687510">
	<ele>1688.60</ele>
	<time>2023-10-07T08:51:56.000Z</time>
</trkpt>
<trkpt lat="45.9387610" lon="9.5687480">
	<ele>1688.40</ele>
	<time>2023-10-07T08:51:57.000Z</time>
</trkpt>
<trkpt lat="45.9387510" lon="9.5687460">
	<ele>1688.40</ele>
	<time>2023-10-07T08:51:58.000Z</time>
</trkpt>
<trkpt lat="45.9387420" lon="9.5687380">
	<ele>1688.40</ele>
	<time>2023-10-07T08:51:59.000Z</time>
</trkpt>
<trkpt lat="45.9387340" lon="9.5687270">
	<ele>1688.40</ele>
	<time>2023-10-07T08:52:00.000Z</time>
</trkpt>
<trkpt lat="45.9387250" lon="9.5687160">
	<ele>1688.40</ele>
	<time>2023-10-07T08:52:01.000Z</time>
</trkpt>
<trkpt lat="45.9387130" lon="9.5687080">
	<ele>1688.20</ele>
	<time>2023-10-07T08:52:02.000Z</time>
</trkpt>
<trkpt lat="45.9386990" lon="9.5687050">
	<ele>1688.20</ele>
	<time>2023-10-07T08:52:03.000Z</time>
</trkpt>
<trkpt lat="45.9386870" lon="9.5687040">
	<ele>1688.20</ele>
	<time>2023-10-07T08:52:04.000Z</time>
</trkpt>
<trkpt lat="45.9386790" lon="9.5687020">
	<ele>1688.20</ele>
	<time>2023-10-07T08:52:05.000Z</time>
</trkpt>
<trkpt lat="45.9386700" lon="9.5686980">
	<ele>1688.20</ele>
	<time>2023-10-07T08:52:06.000Z</time>
</trkpt>
<trkpt lat="45.9386610" lon="9.5686960">
	<ele>1688.40</ele>
	<time>2023-10-07T08:52:07.000Z</time>
</trkpt>
<trkpt lat="45.9386530" lon="9.5687000">
	<ele>1688.40</ele>
	<time>2023-10-07T08:52:08.000Z</time>
</trkpt>
<trkpt lat="45.9386470" lon="9.5686940">
	<ele>1688.40</ele>
	<time>2023-10-07T08:52:09.000Z</time>
</trkpt>
<trkpt lat="45.9386380" lon="9.5686910">
	<ele>1688.60</ele>
	<time>2023-10-07T08:52:10.000Z</time>
</trkpt>
<trkpt lat="45.9386300" lon="9.5686910">
	<ele>1688.80</ele>
	<time>2023-10-07T08:52:11.000Z</time>
</trkpt>
<trkpt lat="45.9386260" lon="9.5686880">
	<ele>1688.80</ele>
	<time>2023-10-07T08:52:12.000Z</time>
</trkpt>
<trkpt lat="45.9386120" lon="9.5686790">
	<ele>1688.80</ele>
	<time>2023-10-07T08:52:13.000Z</time>
</trkpt>
<trkpt lat="45.9385980" lon="9.5686730">
	<ele>1688.80</ele>
	<time>2023-10-07T08:52:14.000Z</time>
</trkpt>
<trkpt lat="45.9385860" lon="9.5686690">
	<ele>1688.60</ele>
	<time>2023-10-07T08:52:15.000Z</time>
</trkpt>
<trkpt lat="45.9385800" lon="9.5686660">
	<ele>1688.60</ele>
	<time>2023-10-07T08:52:16.000Z</time>
</trkpt>
<trkpt lat="45.9385700" lon="9.5686560">
	<ele>1688.40</ele>
	<time>2023-10-07T08:52:17.000Z</time>
</trkpt>
<trkpt lat="45.9385640" lon="9.5686510">
	<ele>1688.20</ele>
	<time>2023-10-07T08:52:18.000Z</time>
</trkpt>
<trkpt lat="45.9385620" lon="9.5686460">
	<ele>1688.00</ele>
	<time>2023-10-07T08:52:19.000Z</time>
</trkpt>
<trkpt lat="45.9385590" lon="9.5686520">
	<ele>1687.80</ele>
	<time>2023-10-07T08:52:20.000Z</time>
</trkpt>
<trkpt lat="45.9385520" lon="9.5686530">
	<ele>1687.80</ele>
	<time>2023-10-07T08:52:21.000Z</time>
</trkpt>
<trkpt lat="45.9385400" lon="9.5686500">
	<ele>1687.80</ele>
	<time>2023-10-07T08:52:22.000Z</time>
</trkpt>
<trkpt lat="45.9385290" lon="9.5686470">
	<ele>1687.60</ele>
	<time>2023-10-07T08:52:23.000Z</time>
</trkpt>
<trkpt lat="45.9385240" lon="9.5686400">
	<ele>1687.40</ele>
	<time>2023-10-07T08:52:24.000Z</time>
</trkpt>
<trkpt lat="45.9385200" lon="9.5686300">
	<ele>1687.20</ele>
	<time>2023-10-07T08:52:25.000Z</time>
</trkpt>
<trkpt lat="45.9385140" lon="9.5686240">
	<ele>1687.20</ele>
	<time>2023-10-07T08:52:26.000Z</time>
</trkpt>
<trkpt lat="45.9385090" lon="9.5686160">
	<ele>1687.00</ele>
	<time>2023-10-07T08:52:27.000Z</time>
</trkpt>
<trkpt lat="45.9385010" lon="9.5686060">
	<ele>1687.00</ele>
	<time>2023-10-07T08:52:28.000Z</time>
</trkpt>
<trkpt lat="45.9384960" lon="9.5686000">
	<ele>1687.00</ele>
	<time>2023-10-07T08:52:29.000Z</time>
</trkpt>
<trkpt lat="45.9384800" lon="9.5685960">
	<ele>1686.80</ele>
	<time>2023-10-07T08:52:30.000Z</time>
</trkpt>
<trkpt lat="45.9384730" lon="9.5685950">
	<ele>1686.80</ele>
	<time>2023-10-07T08:52:31.000Z</time>
</trkpt>
<trkpt lat="45.9384630" lon="9.5685920">
	<ele>1686.60</ele>
	<time>2023-10-07T08:52:32.000Z</time>
</trkpt>
<trkpt lat="45.9384550" lon="9.5685850">
	<ele>1686.60</ele>
	<time>2023-10-07T08:52:33.000Z</time>
</trkpt>
<trkpt lat="45.9384500" lon="9.5685750">
	<ele>1686.40</ele>
	<time>2023-10-07T08:52:34.000Z</time>
</trkpt>
<trkpt lat="45.9384460" lon="9.5685640">
	<ele>1686.20</ele>
	<time>2023-10-07T08:52:35.000Z</time>
</trkpt>
<trkpt lat="45.9384430" lon="9.5685500">
	<ele>1686.00</ele>
	<time>2023-10-07T08:52:36.000Z</time>
</trkpt>
<trkpt lat="45.9384390" lon="9.5685320">
	<ele>1685.80</ele>
	<time>2023-10-07T08:52:37.000Z</time>
</trkpt>
<trkpt lat="45.9384370" lon="9.5685170">
	<ele>1685.60</ele>
	<time>2023-10-07T08:52:38.000Z</time>
</trkpt>
<trkpt lat="45.9384350" lon="9.5685020">
	<ele>1685.60</ele>
	<time>2023-10-07T08:52:39.000Z</time>
</trkpt>
<trkpt lat="45.9384330" lon="9.5684870">
	<ele>1685.60</ele>
	<time>2023-10-07T08:52:40.000Z</time>
</trkpt>
<trkpt lat="45.9384310" lon="9.5684740">
	<ele>1685.60</ele>
	<time>2023-10-07T08:52:41.000Z</time>
</trkpt>
<trkpt lat="45.9384310" lon="9.5684610">
	<ele>1685.80</ele>
	<time>2023-10-07T08:52:42.000Z</time>
</trkpt>
<trkpt lat="45.9384300" lon="9.5684460">
	<ele>1686.00</ele>
	<time>2023-10-07T08:52:43.000Z</time>
</trkpt>
<trkpt lat="45.9384280" lon="9.5684350">
	<ele>1686.00</ele>
	<time>2023-10-07T08:52:44.000Z</time>
</trkpt>
<trkpt lat="45.9384240" lon="9.5684250">
	<ele>1686.20</ele>
	<time>2023-10-07T08:52:45.000Z</time>
</trkpt>
<trkpt lat="45.9384210" lon="9.5684150">
	<ele>1686.20</ele>
	<time>2023-10-07T08:52:46.000Z</time>
</trkpt>
<trkpt lat="45.9384150" lon="9.5684060">
	<ele>1686.20</ele>
	<time>2023-10-07T08:52:47.000Z</time>
</trkpt>
<trkpt lat="45.9384100" lon="9.5683940">
	<ele>1686.40</ele>
	<time>2023-10-07T08:52:48.000Z</time>
</trkpt>
<trkpt lat="45.9384060" lon="9.5683840">
	<ele>1686.40</ele>
	<time>2023-10-07T08:52:49.000Z</time>
</trkpt>
<trkpt lat="45.9384030" lon="9.5683740">
	<ele>1686.60</ele>
	<time>2023-10-07T08:52:50.000Z</time>
</trkpt>
<trkpt lat="45.9384020" lon="9.5683680">
	<ele>1687.00</ele>
	<time>2023-10-07T08:52:51.000Z</time>
</trkpt>
<trkpt lat="45.9384000" lon="9.5683660">
	<ele>1687.20</ele>
	<time>2023-10-07T08:52:52.000Z</time>
</trkpt>
<trkpt lat="45.9383990" lon="9.5683650">
	<ele>1687.20</ele>
	<time>2023-10-07T08:52:53.000Z</time>
</trkpt>
<trkpt lat="45.9383990" lon="9.5683650">
	<ele>1687.40</ele>
	<time>2023-10-07T08:52:54.000Z</time>
</trkpt>
<trkpt lat="45.9384000" lon="9.5683650">
	<ele>1687.40</ele>
	<time>2023-10-07T08:52:55.000Z</time>
</trkpt>
<trkpt lat="45.9384000" lon="9.5683640">
	<ele>1687.40</ele>
	<time>2023-10-07T08:52:56.000Z</time>
</trkpt>
<trkpt lat="45.9384000" lon="9.5683640">
	<ele>1687.40</ele>
	<time>2023-10-07T08:52:57.000Z</time>
</trkpt>
<trkpt lat="45.9384010" lon="9.5683650">
	<ele>1687.40</ele>
	<time>2023-10-07T08:52:58.000Z</time>
</trkpt>
<trkpt lat="45.9384030" lon="9.5683660">
	<ele>1687.40</ele>
	<time>2023-10-07T08:52:59.000Z</time>
</trkpt>
<trkpt lat="45.9384040" lon="9.5683670">
	<ele>1687.40</ele>
	<time>2023-10-07T08:53:00.000Z</time>
</trkpt>
<trkpt lat="45.9384050" lon="9.5683670">
	<ele>1687.40</ele>
	<time>2023-10-07T08:53:01.000Z</time>
</trkpt>
<trkpt lat="45.9384050" lon="9.5683670">
	<ele>1687.40</ele>
	<time>2023-10-07T08:53:02.000Z</time>
</trkpt>
<trkpt lat="45.9384050" lon="9.5683670">
	<ele>1687.40</ele>
	<time>2023-10-07T08:53:03.000Z</time>
</trkpt>
<trkpt lat="45.9384050" lon="9.5683670">
	<ele>1687.40</ele>
	<time>2023-10-07T08:53:04.000Z</time>
</trkpt>
<trkpt lat="45.9384050" lon="9.5683670">
	<ele>1687.40</ele>
	<time>2023-10-07T08:53:05.000Z</time>
</trkpt>
<trkpt lat="45.9384050" lon="9.5683670">
	<ele>1687.40</ele>
	<time>2023-10-07T08:53:06.000Z</time>
</trkpt>
<trkpt lat="45.9384050" lon="9.5683670">
	<ele>1687.40</ele>
	<time>2023-10-07T08:53:07.000Z</time>
</trkpt>
<trkpt lat="45.9384050" lon="9.5683670">
	<ele>1687.40</ele>
	<time>2023-10-07T08:53:08.000Z</time>
</trkpt>
<trkpt lat="45.9384050" lon="9.5683670">
	<ele>1687.40</ele>
	<time>2023-10-07T08:53:09.000Z</time>
</trkpt>
<trkpt lat="45.9384050" lon="9.5683670">
	<ele>1687.40</ele>
	<time>2023-10-07T08:53:10.000Z</time>
</trkpt>
<trkpt lat="45.9384050" lon="9.5683660">
	<ele>1687.40</ele>
	<time>2023-10-07T08:53:11.000Z</time>
</trkpt>
<trkpt lat="45.9384050" lon="9.5683660">
	<ele>1687.40</ele>
	<time>2023-10-07T08:53:12.000Z</time>
</trkpt>
<trkpt lat="45.9384050" lon="9.5683660">
	<ele>1687.40</ele>
	<time>2023-10-07T08:53:13.000Z</time>
</trkpt>
<trkpt lat="45.9384050" lon="9.5683650">
	<ele>1687.40</ele>
	<time>2023-10-07T08:53:14.000Z</time>
</trkpt>
<trkpt lat="45.9384050" lon="9.5683650">
	<ele>1687.20</ele>
	<time>2023-10-07T08:53:15.000Z</time>
</trkpt>
<trkpt lat="45.9384050" lon="9.5683650">
	<ele>1687.20</ele>
	<time>2023-10-07T08:53:16.000Z</time>
</trkpt>
<trkpt lat="45.9384050" lon="9.5683650">
	<ele>1687.20</ele>
	<time>2023-10-07T08:53:17.000Z</time>
</trkpt>
<trkpt lat="45.9384050" lon="9.5683650">
	<ele>1687.20</ele>
	<time>2023-10-07T08:53:18.000Z</time>
</trkpt>
<trkpt lat="45.9384050" lon="9.5683640">
	<ele>1687.20</ele>
	<time>2023-10-07T08:53:19.000Z</time>
</trkpt>
<trkpt lat="45.9384060" lon="9.5683640">
	<ele>1687.20</ele>
	<time>2023-10-07T08:53:20.000Z</time>
</trkpt>
<trkpt lat="45.9384060" lon="9.5683610">
	<ele>1687.20</ele>
	<time>2023-10-07T08:53:21.000Z</time>
</trkpt>
<trkpt lat="45.9384070" lon="9.5683580">
	<ele>1687.00</ele>
	<time>2023-10-07T08:53:22.000Z</time>
</trkpt>
<trkpt lat="45.9384070" lon="9.5683560">
	<ele>1686.80</ele>
	<time>2023-10-07T08:53:23.000Z</time>
</trkpt>
<trkpt lat="45.9384070" lon="9.5683560">
	<ele>1686.60</ele>
	<time>2023-10-07T08:53:24.000Z</time>
</trkpt>
<trkpt lat="45.9384070" lon="9.5683550">
	<ele>1686.60</ele>
	<time>2023-10-07T08:53:25.000Z</time>
</trkpt>
<trkpt lat="45.9384070" lon="9.5683550">
	<ele>1686.60</ele>
	<time>2023-10-07T08:53:26.000Z</time>
</trkpt>
<trkpt lat="45.9384070" lon="9.5683550">
	<ele>1686.60</ele>
	<time>2023-10-07T08:53:27.000Z</time>
</trkpt>
<trkpt lat="45.9384080" lon="9.5683550">
	<ele>1686.60</ele>
	<time>2023-10-07T08:53:28.000Z</time>
</trkpt>
<trkpt lat="45.9384080" lon="9.5683540">
	<ele>1686.60</ele>
	<time>2023-10-07T08:53:29.000Z</time>
</trkpt>
<trkpt lat="45.9384080" lon="9.5683530">
	<ele>1686.80</ele>
	<time>2023-10-07T08:53:30.000Z</time>
</trkpt>
<trkpt lat="45.9384080" lon="9.5683520">
	<ele>1686.80</ele>
	<time>2023-10-07T08:53:31.000Z</time>
</trkpt>
<trkpt lat="45.9384080" lon="9.5683520">
	<ele>1686.80</ele>
	<time>2023-10-07T08:53:32.000Z</time>
</trkpt>
<trkpt lat="45.9384070" lon="9.5683470">
	<ele>1686.80</ele>
	<time>2023-10-07T08:53:33.000Z</time>
</trkpt>
<trkpt lat="45.9383970" lon="9.5683330">
	<ele>1686.80</ele>
	<time>2023-10-07T08:53:34.000Z</time>
</trkpt>
<trkpt lat="45.9383880" lon="9.5683200">
	<ele>1686.80</ele>
	<time>2023-10-07T08:53:35.000Z</time>
</trkpt>
<trkpt lat="45.9383780" lon="9.5683070">
	<ele>1686.80</ele>
	<time>2023-10-07T08:53:36.000Z</time>
</trkpt>
<trkpt lat="45.9383670" lon="9.5682910">
	<ele>1686.60</ele>
	<time>2023-10-07T08:53:37.000Z</time>
</trkpt>
<trkpt lat="45.9383510" lon="9.5682770">
	<ele>1686.20</ele>
	<time>2023-10-07T08:53:38.000Z</time>
</trkpt>
<trkpt lat="45.9383370" lon="9.5682650">
	<ele>1686.00</ele>
	<time>2023-10-07T08:53:39.000Z</time>
</trkpt>
<trkpt lat="45.9383230" lon="9.5682500">
	<ele>1685.80</ele>
	<time>2023-10-07T08:53:40.000Z</time>
</trkpt>
<trkpt lat="45.9383110" lon="9.5682340">
	<ele>1685.80</ele>
	<time>2023-10-07T08:53:41.000Z</time>
</trkpt>
<trkpt lat="45.9383000" lon="9.5682170">
	<ele>1685.80</ele>
	<time>2023-10-07T08:53:42.000Z</time>
</trkpt>
<trkpt lat="45.9382910" lon="9.5682070">
	<ele>1685.60</ele>
	<time>2023-10-07T08:53:43.000Z</time>
</trkpt>
<trkpt lat="45.9382820" lon="9.5681980">
	<ele>1685.60</ele>
	<time>2023-10-07T08:53:44.000Z</time>
</trkpt>
<trkpt lat="45.9382720" lon="9.5681880">
	<ele>1685.60</ele>
	<time>2023-10-07T08:53:45.000Z</time>
</trkpt>
<trkpt lat="45.9382610" lon="9.5681800">
	<ele>1685.60</ele>
	<time>2023-10-07T08:53:46.000Z</time>
</trkpt>
<trkpt lat="45.9382520" lon="9.5681680">
	<ele>1685.60</ele>
	<time>2023-10-07T08:53:47.000Z</time>
</trkpt>
<trkpt lat="45.9382440" lon="9.5681590">
	<ele>1685.60</ele>
	<time>2023-10-07T08:53:48.000Z</time>
</trkpt>
<trkpt lat="45.9382360" lon="9.5681450">
	<ele>1685.60</ele>
	<time>2023-10-07T08:53:49.000Z</time>
</trkpt>
<trkpt lat="45.9382290" lon="9.5681320">
	<ele>1685.60</ele>
	<time>2023-10-07T08:53:50.000Z</time>
</trkpt>
<trkpt lat="45.9382220" lon="9.5681190">
	<ele>1685.80</ele>
	<time>2023-10-07T08:53:51.000Z</time>
</trkpt>
<trkpt lat="45.9382150" lon="9.5681080">
	<ele>1685.80</ele>
	<time>2023-10-07T08:53:52.000Z</time>
</trkpt>
<trkpt lat="45.9382090" lon="9.5680970">
	<ele>1685.80</ele>
	<time>2023-10-07T08:53:53.000Z</time>
</trkpt>
<trkpt lat="45.9382030" lon="9.5680820">
	<ele>1686.00</ele>
	<time>2023-10-07T08:53:54.000Z</time>
</trkpt>
<trkpt lat="45.9381990" lon="9.5680670">
	<ele>1686.20</ele>
	<time>2023-10-07T08:53:55.000Z</time>
</trkpt>
<trkpt lat="45.9381950" lon="9.5680540">
	<ele>1686.40</ele>
	<time>2023-10-07T08:53:56.000Z</time>
</trkpt>
<trkpt lat="45.9381920" lon="9.5680400">
	<ele>1686.60</ele>
	<time>2023-10-07T08:53:57.000Z</time>
</trkpt>
<trkpt lat="45.9381890" lon="9.5680290">
	<ele>1686.60</ele>
	<time>2023-10-07T08:53:58.000Z</time>
</trkpt>
<trkpt lat="45.9381860" lon="9.5680170">
	<ele>1686.80</ele>
	<time>2023-10-07T08:53:59.000Z</time>
</trkpt>
<trkpt lat="45.9381830" lon="9.5680080">
	<ele>1687.00</ele>
	<time>2023-10-07T08:54:00.000Z</time>
</trkpt>
<trkpt lat="45.9381810" lon="9.5680010">
	<ele>1687.20</ele>
	<time>2023-10-07T08:54:01.000Z</time>
</trkpt>
<trkpt lat="45.9381760" lon="9.5679870">
	<ele>1687.40</ele>
	<time>2023-10-07T08:54:02.000Z</time>
</trkpt>
<trkpt lat="45.9381700" lon="9.5679730">
	<ele>1687.40</ele>
	<time>2023-10-07T08:54:03.000Z</time>
</trkpt>
<trkpt lat="45.9381640" lon="9.5679560">
	<ele>1687.40</ele>
	<time>2023-10-07T08:54:04.000Z</time>
</trkpt>
<trkpt lat="45.9381600" lon="9.5679450">
	<ele>1687.60</ele>
	<time>2023-10-07T08:54:05.000Z</time>
</trkpt>
<trkpt lat="45.9381560" lon="9.5679320">
	<ele>1687.60</ele>
	<time>2023-10-07T08:54:06.000Z</time>
</trkpt>
<trkpt lat="45.9381500" lon="9.5679170">
	<ele>1687.60</ele>
	<time>2023-10-07T08:54:07.000Z</time>
</trkpt>
<trkpt lat="45.9381460" lon="9.5679060">
	<ele>1687.60</ele>
	<time>2023-10-07T08:54:08.000Z</time>
</trkpt>
<trkpt lat="45.9381420" lon="9.5678890">
	<ele>1687.80</ele>
	<time>2023-10-07T08:54:09.000Z</time>
</trkpt>
<trkpt lat="45.9381400" lon="9.5678810">
	<ele>1687.80</ele>
	<time>2023-10-07T08:54:10.000Z</time>
</trkpt>
<trkpt lat="45.9381370" lon="9.5678690">
	<ele>1687.80</ele>
	<time>2023-10-07T08:54:11.000Z</time>
</trkpt>
<trkpt lat="45.9381320" lon="9.5678570">
	<ele>1687.80</ele>
	<time>2023-10-07T08:54:12.000Z</time>
</trkpt>
<trkpt lat="45.9381270" lon="9.5678420">
	<ele>1688.00</ele>
	<time>2023-10-07T08:54:13.000Z</time>
</trkpt>
<trkpt lat="45.9381240" lon="9.5678310">
	<ele>1688.00</ele>
	<time>2023-10-07T08:54:14.000Z</time>
</trkpt>
<trkpt lat="45.9381230" lon="9.5678160">
	<ele>1688.20</ele>
	<time>2023-10-07T08:54:15.000Z</time>
</trkpt>
<trkpt lat="45.9381220" lon="9.5678020">
	<ele>1688.40</ele>
	<time>2023-10-07T08:54:16.000Z</time>
</trkpt>
<trkpt lat="45.9381220" lon="9.5677900">
	<ele>1688.40</ele>
	<time>2023-10-07T08:54:17.000Z</time>
</trkpt>
<trkpt lat="45.9381210" lon="9.5677730">
	<ele>1688.40</ele>
	<time>2023-10-07T08:54:18.000Z</time>
</trkpt>
<trkpt lat="45.9381200" lon="9.5677560">
	<ele>1688.60</ele>
	<time>2023-10-07T08:54:19.000Z</time>
</trkpt>
<trkpt lat="45.9381190" lon="9.5677480">
	<ele>1688.80</ele>
	<time>2023-10-07T08:54:20.000Z</time>
</trkpt>
<trkpt lat="45.9381160" lon="9.5677370">
	<ele>1688.80</ele>
	<time>2023-10-07T08:54:21.000Z</time>
</trkpt>
<trkpt lat="45.9381130" lon="9.5677230">
	<ele>1689.00</ele>
	<time>2023-10-07T08:54:22.000Z</time>
</trkpt>
<trkpt lat="45.9381080" lon="9.5677100">
	<ele>1689.00</ele>
	<time>2023-10-07T08:54:23.000Z</time>
</trkpt>
<trkpt lat="45.9381030" lon="9.5676970">
	<ele>1689.00</ele>
	<time>2023-10-07T08:54:24.000Z</time>
</trkpt>
<trkpt lat="45.9380990" lon="9.5676850">
	<ele>1689.20</ele>
	<time>2023-10-07T08:54:25.000Z</time>
</trkpt>
<trkpt lat="45.9380950" lon="9.5676690">
	<ele>1689.20</ele>
	<time>2023-10-07T08:54:26.000Z</time>
</trkpt>
<trkpt lat="45.9380920" lon="9.5676560">
	<ele>1689.40</ele>
	<time>2023-10-07T08:54:27.000Z</time>
</trkpt>
<trkpt lat="45.9380890" lon="9.5676430">
	<ele>1689.40</ele>
	<time>2023-10-07T08:54:28.000Z</time>
</trkpt>
<trkpt lat="45.9380860" lon="9.5676280">
	<ele>1689.40</ele>
	<time>2023-10-07T08:54:29.000Z</time>
</trkpt>
<trkpt lat="45.9380800" lon="9.5676170">
	<ele>1689.60</ele>
	<time>2023-10-07T08:54:30.000Z</time>
</trkpt>
<trkpt lat="45.9380750" lon="9.5676060">
	<ele>1689.60</ele>
	<time>2023-10-07T08:54:31.000Z</time>
</trkpt>
<trkpt lat="45.9380690" lon="9.5675950">
	<ele>1689.60</ele>
	<time>2023-10-07T08:54:32.000Z</time>
</trkpt>
<trkpt lat="45.9380620" lon="9.5675790">
	<ele>1689.60</ele>
	<time>2023-10-07T08:54:33.000Z</time>
</trkpt>
<trkpt lat="45.9380580" lon="9.5675660">
	<ele>1689.60</ele>
	<time>2023-10-07T08:54:34.000Z</time>
</trkpt>
<trkpt lat="45.9380540" lon="9.5675510">
	<ele>1689.60</ele>
	<time>2023-10-07T08:54:35.000Z</time>
</trkpt>
<trkpt lat="45.9380520" lon="9.5675330">
	<ele>1689.80</ele>
	<time>2023-10-07T08:54:36.000Z</time>
</trkpt>
<trkpt lat="45.9380510" lon="9.5675200">
	<ele>1690.00</ele>
	<time>2023-10-07T08:54:37.000Z</time>
</trkpt>
<trkpt lat="45.9380470" lon="9.5675080">
	<ele>1690.00</ele>
	<time>2023-10-07T08:54:38.000Z</time>
</trkpt>
<trkpt lat="45.9380430" lon="9.5674950">
	<ele>1690.00</ele>
	<time>2023-10-07T08:54:39.000Z</time>
</trkpt>
<trkpt lat="45.9380380" lon="9.5674860">
	<ele>1690.00</ele>
	<time>2023-10-07T08:54:40.000Z</time>
</trkpt>
<trkpt lat="45.9380320" lon="9.5674770">
	<ele>1690.00</ele>
	<time>2023-10-07T08:54:41.000Z</time>
</trkpt>
<trkpt lat="45.9380240" lon="9.5674630">
	<ele>1690.00</ele>
	<time>2023-10-07T08:54:42.000Z</time>
</trkpt>
<trkpt lat="45.9380220" lon="9.5674510">
	<ele>1690.00</ele>
	<time>2023-10-07T08:54:43.000Z</time>
</trkpt>
<trkpt lat="45.9380190" lon="9.5674400">
	<ele>1689.80</ele>
	<time>2023-10-07T08:54:44.000Z</time>
</trkpt>
<trkpt lat="45.9380160" lon="9.5674320">
	<ele>1689.80</ele>
	<time>2023-10-07T08:54:45.000Z</time>
</trkpt>
<trkpt lat="45.9380110" lon="9.5674220">
	<ele>1689.80</ele>
	<time>2023-10-07T08:54:46.000Z</time>
</trkpt>
<trkpt lat="45.9380080" lon="9.5674060">
	<ele>1690.00</ele>
	<time>2023-10-07T08:54:47.000Z</time>
</trkpt>
<trkpt lat="45.9380060" lon="9.5673900">
	<ele>1690.20</ele>
	<time>2023-10-07T08:54:48.000Z</time>
</trkpt>
<trkpt lat="45.9380040" lon="9.5673830">
	<ele>1690.40</ele>
	<time>2023-10-07T08:54:49.000Z</time>
</trkpt>
<trkpt lat="45.9380020" lon="9.5673790">
	<ele>1690.60</ele>
	<time>2023-10-07T08:54:50.000Z</time>
</trkpt>
<trkpt lat="45.9380000" lon="9.5673740">
	<ele>1690.80</ele>
	<time>2023-10-07T08:54:51.000Z</time>
</trkpt>
<trkpt lat="45.9379940" lon="9.5673670">
	<ele>1690.80</ele>
	<time>2023-10-07T08:54:52.000Z</time>
</trkpt>
<trkpt lat="45.9379880" lon="9.5673610">
	<ele>1691.00</ele>
	<time>2023-10-07T08:54:53.000Z</time>
</trkpt>
<trkpt lat="45.9379800" lon="9.5673490">
	<ele>1691.00</ele>
	<time>2023-10-07T08:54:54.000Z</time>
</trkpt>
<trkpt lat="45.9379760" lon="9.5673360">
	<ele>1691.00</ele>
	<time>2023-10-07T08:54:55.000Z</time>
</trkpt>
<trkpt lat="45.9379700" lon="9.5673230">
	<ele>1690.80</ele>
	<time>2023-10-07T08:54:56.000Z</time>
</trkpt>
<trkpt lat="45.9379660" lon="9.5673110">
	<ele>1690.40</ele>
	<time>2023-10-07T08:54:57.000Z</time>
</trkpt>
<trkpt lat="45.9379630" lon="9.5672990">
	<ele>1690.20</ele>
	<time>2023-10-07T08:54:58.000Z</time>
</trkpt>
<trkpt lat="45.9379620" lon="9.5672890">
	<ele>1689.80</ele>
	<time>2023-10-07T08:54:59.000Z</time>
</trkpt>
<trkpt lat="45.9379610" lon="9.5672770">
	<ele>1689.80</ele>
	<time>2023-10-07T08:55:00.000Z</time>
</trkpt>
<trkpt lat="45.9379580" lon="9.5672630">
	<ele>1689.40</ele>
	<time>2023-10-07T08:55:01.000Z</time>
</trkpt>
<trkpt lat="45.9379550" lon="9.5672500">
	<ele>1689.20</ele>
	<time>2023-10-07T08:55:02.000Z</time>
</trkpt>
<trkpt lat="45.9379540" lon="9.5672350">
	<ele>1689.00</ele>
	<time>2023-10-07T08:55:03.000Z</time>
</trkpt>
<trkpt lat="45.9379560" lon="9.5672210">
	<ele>1688.80</ele>
	<time>2023-10-07T08:55:04.000Z</time>
</trkpt>
<trkpt lat="45.9379540" lon="9.5672120">
	<ele>1688.60</ele>
	<time>2023-10-07T08:55:05.000Z</time>
</trkpt>
<trkpt lat="45.9379510" lon="9.5671990">
	<ele>1688.40</ele>
	<time>2023-10-07T08:55:06.000Z</time>
</trkpt>
<trkpt lat="45.9379510" lon="9.5671900">
	<ele>1688.20</ele>
	<time>2023-10-07T08:55:07.000Z</time>
</trkpt>
<trkpt lat="45.9379490" lon="9.5671770">
	<ele>1688.00</ele>
	<time>2023-10-07T08:55:08.000Z</time>
</trkpt>
<trkpt lat="45.9379450" lon="9.5671650">
	<ele>1687.80</ele>
	<time>2023-10-07T08:55:09.000Z</time>
</trkpt>
<trkpt lat="45.9379410" lon="9.5671480">
	<ele>1687.60</ele>
	<time>2023-10-07T08:55:10.000Z</time>
</trkpt>
<trkpt lat="45.9379390" lon="9.5671360">
	<ele>1687.40</ele>
	<time>2023-10-07T08:55:11.000Z</time>
</trkpt>
<trkpt lat="45.9379390" lon="9.5671170">
	<ele>1687.20</ele>
	<time>2023-10-07T08:55:12.000Z</time>
</trkpt>
<trkpt lat="45.9379370" lon="9.5670970">
	<ele>1687.20</ele>
	<time>2023-10-07T08:55:13.000Z</time>
</trkpt>
<trkpt lat="45.9379360" lon="9.5670770">
	<ele>1687.00</ele>
	<time>2023-10-07T08:55:14.000Z</time>
</trkpt>
<trkpt lat="45.9379380" lon="9.5670600">
	<ele>1687.00</ele>
	<time>2023-10-07T08:55:15.000Z</time>
</trkpt>
<trkpt lat="45.9379390" lon="9.5670460">
	<ele>1687.00</ele>
	<time>2023-10-07T08:55:16.000Z</time>
</trkpt>
<trkpt lat="45.9379380" lon="9.5670370">
	<ele>1686.80</ele>
	<time>2023-10-07T08:55:17.000Z</time>
</trkpt>
<trkpt lat="45.9379390" lon="9.5670270">
	<ele>1686.80</ele>
	<time>2023-10-07T08:55:18.000Z</time>
</trkpt>
<trkpt lat="45.9379400" lon="9.5670150">
	<ele>1686.80</ele>
	<time>2023-10-07T08:55:19.000Z</time>
</trkpt>
<trkpt lat="45.9379430" lon="9.5670040">
	<ele>1686.80</ele>
	<time>2023-10-07T08:55:20.000Z</time>
</trkpt>
<trkpt lat="45.9379430" lon="9.5669900">
	<ele>1687.00</ele>
	<time>2023-10-07T08:55:21.000Z</time>
</trkpt>
<trkpt lat="45.9379440" lon="9.5669790">
	<ele>1687.20</ele>
	<time>2023-10-07T08:55:22.000Z</time>
</trkpt>
<trkpt lat="45.9379440" lon="9.5669690">
	<ele>1687.40</ele>
	<time>2023-10-07T08:55:23.000Z</time>
</trkpt>
<trkpt lat="45.9379450" lon="9.5669600">
	<ele>1687.60</ele>
	<time>2023-10-07T08:55:24.000Z</time>
</trkpt>
<trkpt lat="45.9379460" lon="9.5669500">
	<ele>1687.80</ele>
	<time>2023-10-07T08:55:25.000Z</time>
</trkpt>
<trkpt lat="45.9379480" lon="9.5669400">
	<ele>1688.00</ele>
	<time>2023-10-07T08:55:26.000Z</time>
</trkpt>
<trkpt lat="45.9379490" lon="9.5669290">
	<ele>1688.40</ele>
	<time>2023-10-07T08:55:27.000Z</time>
</trkpt>
<trkpt lat="45.9379480" lon="9.5669210">
	<ele>1688.60</ele>
	<time>2023-10-07T08:55:28.000Z</time>
</trkpt>
<trkpt lat="45.9379460" lon="9.5669100">
	<ele>1688.60</ele>
	<time>2023-10-07T08:55:29.000Z</time>
</trkpt>
<trkpt lat="45.9379480" lon="9.5668990">
	<ele>1688.80</ele>
	<time>2023-10-07T08:55:30.000Z</time>
</trkpt>
<trkpt lat="45.9379490" lon="9.5668860">
	<ele>1688.80</ele>
	<time>2023-10-07T08:55:31.000Z</time>
</trkpt>
<trkpt lat="45.9379510" lon="9.5668760">
	<ele>1689.00</ele>
	<time>2023-10-07T08:55:32.000Z</time>
</trkpt>
<trkpt lat="45.9379520" lon="9.5668660">
	<ele>1689.00</ele>
	<time>2023-10-07T08:55:33.000Z</time>
</trkpt>
<trkpt lat="45.9379550" lon="9.5668580">
	<ele>1689.20</ele>
	<time>2023-10-07T08:55:34.000Z</time>
</trkpt>
<trkpt lat="45.9379570" lon="9.5668480">
	<ele>1689.20</ele>
	<time>2023-10-07T08:55:35.000Z</time>
</trkpt>
<trkpt lat="45.9379570" lon="9.5668340">
	<ele>1689.40</ele>
	<time>2023-10-07T08:55:36.000Z</time>
</trkpt>
<trkpt lat="45.9379600" lon="9.5668230">
	<ele>1689.60</ele>
	<time>2023-10-07T08:55:37.000Z</time>
</trkpt>
<trkpt lat="45.9379640" lon="9.5668150">
	<ele>1689.60</ele>
	<time>2023-10-07T08:55:38.000Z</time>
</trkpt>
<trkpt lat="45.9379660" lon="9.5668050">
	<ele>1690.00</ele>
	<time>2023-10-07T08:55:39.000Z</time>
</trkpt>
<trkpt lat="45.9379680" lon="9.5667910">
	<ele>1690.20</ele>
	<time>2023-10-07T08:55:40.000Z</time>
</trkpt>
<trkpt lat="45.9379710" lon="9.5667810">
	<ele>1690.40</ele>
	<time>2023-10-07T08:55:41.000Z</time>
</trkpt>
<trkpt lat="45.9379730" lon="9.5667690">
	<ele>1690.60</ele>
	<time>2023-10-07T08:55:42.000Z</time>
</trkpt>
<trkpt lat="45.9379780" lon="9.5667620">
	<ele>1690.80</ele>
	<time>2023-10-07T08:55:43.000Z</time>
</trkpt>
<trkpt lat="45.9379830" lon="9.5667560">
	<ele>1690.80</ele>
	<time>2023-10-07T08:55:44.000Z</time>
</trkpt>
<trkpt lat="45.9379860" lon="9.5667510">
	<ele>1690.80</ele>
	<time>2023-10-07T08:55:45.000Z</time>
</trkpt>
<trkpt lat="45.9379880" lon="9.5667440">
	<ele>1691.00</ele>
	<time>2023-10-07T08:55:46.000Z</time>
</trkpt>
<trkpt lat="45.9379910" lon="9.5667380">
	<ele>1691.00</ele>
	<time>2023-10-07T08:55:47.000Z</time>
</trkpt>
<trkpt lat="45.9379970" lon="9.5667230">
	<ele>1691.20</ele>
	<time>2023-10-07T08:55:48.000Z</time>
</trkpt>
<trkpt lat="45.9380000" lon="9.5667110">
	<ele>1691.40</ele>
	<time>2023-10-07T08:55:49.000Z</time>
</trkpt>
<trkpt lat="45.9380060" lon="9.5666950">
	<ele>1691.40</ele>
	<time>2023-10-07T08:55:50.000Z</time>
</trkpt>
<trkpt lat="45.9380120" lon="9.5666830">
	<ele>1691.40</ele>
	<time>2023-10-07T08:55:51.000Z</time>
</trkpt>
<trkpt lat="45.9380180" lon="9.5666680">
	<ele>1691.60</ele>
	<time>2023-10-07T08:55:52.000Z</time>
</trkpt>
<trkpt lat="45.9380220" lon="9.5666480">
	<ele>1691.60</ele>
	<time>2023-10-07T08:55:53.000Z</time>
</trkpt>
<trkpt lat="45.9380220" lon="9.5666330">
	<ele>1691.60</ele>
	<time>2023-10-07T08:55:54.000Z</time>
</trkpt>
<trkpt lat="45.9380240" lon="9.5666210">
	<ele>1691.60</ele>
	<time>2023-10-07T08:55:55.000Z</time>
</trkpt>
<trkpt lat="45.9380270" lon="9.5666070">
	<ele>1691.60</ele>
	<time>2023-10-07T08:55:56.000Z</time>
</trkpt>
<trkpt lat="45.9380290" lon="9.5665890">
	<ele>1691.60</ele>
	<time>2023-10-07T08:55:57.000Z</time>
</trkpt>
<trkpt lat="45.9380320" lon="9.5665720">
	<ele>1691.60</ele>
	<time>2023-10-07T08:55:58.000Z</time>
</trkpt>
<trkpt lat="45.9380370" lon="9.5665570">
	<ele>1691.80</ele>
	<time>2023-10-07T08:55:59.000Z</time>
</trkpt>
<trkpt lat="45.9380380" lon="9.5665470">
	<ele>1691.80</ele>
	<time>2023-10-07T08:56:00.000Z</time>
</trkpt>
<trkpt lat="45.9380410" lon="9.5665330">
	<ele>1691.80</ele>
	<time>2023-10-07T08:56:01.000Z</time>
</trkpt>
<trkpt lat="45.9380450" lon="9.5665200">
	<ele>1691.80</ele>
	<time>2023-10-07T08:56:02.000Z</time>
</trkpt>
<trkpt lat="45.9380490" lon="9.5665040">
	<ele>1692.00</ele>
	<time>2023-10-07T08:56:03.000Z</time>
</trkpt>
<trkpt lat="45.9380530" lon="9.5664800">
	<ele>1692.00</ele>
	<time>2023-10-07T08:56:04.000Z</time>
</trkpt>
<trkpt lat="45.9380580" lon="9.5664650">
	<ele>1692.20</ele>
	<time>2023-10-07T08:56:05.000Z</time>
</trkpt>
<trkpt lat="45.9380630" lon="9.5664480">
	<ele>1692.20</ele>
	<time>2023-10-07T08:56:06.000Z</time>
</trkpt>
<trkpt lat="45.9380690" lon="9.5664370">
	<ele>1692.20</ele>
	<time>2023-10-07T08:56:07.000Z</time>
</trkpt>
<trkpt lat="45.9380740" lon="9.5664240">
	<ele>1692.20</ele>
	<time>2023-10-07T08:56:08.000Z</time>
</trkpt>
<trkpt lat="45.9380770" lon="9.5664080">
	<ele>1692.40</ele>
	<time>2023-10-07T08:56:09.000Z</time>
</trkpt>
<trkpt lat="45.9380810" lon="9.5663930">
	<ele>1692.20</ele>
	<time>2023-10-07T08:56:10.000Z</time>
</trkpt>
<trkpt lat="45.9380840" lon="9.5663840">
	<ele>1692.20</ele>
	<time>2023-10-07T08:56:11.000Z</time>
</trkpt>
<trkpt lat="45.9380870" lon="9.5663650">
	<ele>1692.20</ele>
	<time>2023-10-07T08:56:12.000Z</time>
</trkpt>
<trkpt lat="45.9380890" lon="9.5663540">
	<ele>1692.20</ele>
	<time>2023-10-07T08:56:13.000Z</time>
</trkpt>
<trkpt lat="45.9380930" lon="9.5663380">
	<ele>1692.20</ele>
	<time>2023-10-07T08:56:14.000Z</time>
</trkpt>
<trkpt lat="45.9380970" lon="9.5663190">
	<ele>1692.20</ele>
	<time>2023-10-07T08:56:15.000Z</time>
</trkpt>
<trkpt lat="45.9381000" lon="9.5663020">
	<ele>1692.20</ele>
	<time>2023-10-07T08:56:16.000Z</time>
</trkpt>
<trkpt lat="45.9380990" lon="9.5662870">
	<ele>1692.20</ele>
	<time>2023-10-07T08:56:17.000Z</time>
</trkpt>
<trkpt lat="45.9380990" lon="9.5662700">
	<ele>1692.20</ele>
	<time>2023-10-07T08:56:18.000Z</time>
</trkpt>
<trkpt lat="45.9381000" lon="9.5662550">
	<ele>1692.20</ele>
	<time>2023-10-07T08:56:19.000Z</time>
</trkpt>
<trkpt lat="45.9381050" lon="9.5662370">
	<ele>1692.20</ele>
	<time>2023-10-07T08:56:20.000Z</time>
</trkpt>
<trkpt lat="45.9381080" lon="9.5662180">
	<ele>1692.20</ele>
	<time>2023-10-07T08:56:21.000Z</time>
</trkpt>
<trkpt lat="45.9381090" lon="9.5662030">
	<ele>1692.20</ele>
	<time>2023-10-07T08:56:22.000Z</time>
</trkpt>
<trkpt lat="45.9381110" lon="9.5661830">
	<ele>1692.20</ele>
	<time>2023-10-07T08:56:23.000Z</time>
</trkpt>
<trkpt lat="45.9381130" lon="9.5661610">
	<ele>1692.40</ele>
	<time>2023-10-07T08:56:24.000Z</time>
</trkpt>
<trkpt lat="45.9381170" lon="9.5661450">
	<ele>1692.40</ele>
	<time>2023-10-07T08:56:25.000Z</time>
</trkpt>
<trkpt lat="45.9381190" lon="9.5661270">
	<ele>1692.40</ele>
	<time>2023-10-07T08:56:26.000Z</time>
</trkpt>
<trkpt lat="45.9381210" lon="9.5661170">
	<ele>1692.20</ele>
	<time>2023-10-07T08:56:27.000Z</time>
</trkpt>
<trkpt lat="45.9381230" lon="9.5660980">
	<ele>1692.20</ele>
	<time>2023-10-07T08:56:28.000Z</time>
</trkpt>
<trkpt lat="45.9381220" lon="9.5660780">
	<ele>1692.40</ele>
	<time>2023-10-07T08:56:29.000Z</time>
</trkpt>
<trkpt lat="45.9381230" lon="9.5660660">
	<ele>1692.40</ele>
	<time>2023-10-07T08:56:30.000Z</time>
</trkpt>
<trkpt lat="45.9381230" lon="9.5660480">
	<ele>1692.40</ele>
	<time>2023-10-07T08:56:31.000Z</time>
</trkpt>
<trkpt lat="45.9381230" lon="9.5660250">
	<ele>1692.40</ele>
	<time>2023-10-07T08:56:32.000Z</time>
</trkpt>
<trkpt lat="45.9381210" lon="9.5660060">
	<ele>1692.40</ele>
	<time>2023-10-07T08:56:33.000Z</time>
</trkpt>
<trkpt lat="45.9381220" lon="9.5659890">
	<ele>1692.40</ele>
	<time>2023-10-07T08:56:34.000Z</time>
</trkpt>
<trkpt lat="45.9381220" lon="9.5659740">
	<ele>1692.40</ele>
	<time>2023-10-07T08:56:35.000Z</time>
</trkpt>
<trkpt lat="45.9381200" lon="9.5659590">
	<ele>1692.40</ele>
	<time>2023-10-07T08:56:36.000Z</time>
</trkpt>
<trkpt lat="45.9381180" lon="9.5659410">
	<ele>1692.40</ele>
	<time>2023-10-07T08:56:37.000Z</time>
</trkpt>
<trkpt lat="45.9381180" lon="9.5659260">
	<ele>1692.60</ele>
	<time>2023-10-07T08:56:38.000Z</time>
</trkpt>
<trkpt lat="45.9381160" lon="9.5659100">
	<ele>1692.60</ele>
	<time>2023-10-07T08:56:39.000Z</time>
</trkpt>
<trkpt lat="45.9381140" lon="9.5658930">
	<ele>1692.60</ele>
	<time>2023-10-07T08:56:40.000Z</time>
</trkpt>
<trkpt lat="45.9381130" lon="9.5658750">
	<ele>1692.80</ele>
	<time>2023-10-07T08:56:41.000Z</time>
</trkpt>
<trkpt lat="45.9381140" lon="9.5658570">
	<ele>1692.80</ele>
	<time>2023-10-07T08:56:42.000Z</time>
</trkpt>
<trkpt lat="45.9381160" lon="9.5658430">
	<ele>1693.00</ele>
	<time>2023-10-07T08:56:43.000Z</time>
</trkpt>
<trkpt lat="45.9381170" lon="9.5658270">
	<ele>1693.00</ele>
	<time>2023-10-07T08:56:44.000Z</time>
</trkpt>
<trkpt lat="45.9381170" lon="9.5658140">
	<ele>1693.00</ele>
	<time>2023-10-07T08:56:45.000Z</time>
</trkpt>
<trkpt lat="45.9381160" lon="9.5657970">
	<ele>1693.00</ele>
	<time>2023-10-07T08:56:46.000Z</time>
</trkpt>
<trkpt lat="45.9381160" lon="9.5657810">
	<ele>1693.20</ele>
	<time>2023-10-07T08:56:47.000Z</time>
</trkpt>
<trkpt lat="45.9381160" lon="9.5657680">
	<ele>1693.40</ele>
	<time>2023-10-07T08:56:48.000Z</time>
</trkpt>
<trkpt lat="45.9381170" lon="9.5657540">
	<ele>1693.60</ele>
	<time>2023-10-07T08:56:49.000Z</time>
</trkpt>
<trkpt lat="45.9381200" lon="9.5657370">
	<ele>1693.60</ele>
	<time>2023-10-07T08:56:50.000Z</time>
</trkpt>
<trkpt lat="45.9381210" lon="9.5657210">
	<ele>1693.80</ele>
	<time>2023-10-07T08:56:51.000Z</time>
</trkpt>
<trkpt lat="45.9381240" lon="9.5657050">
	<ele>1693.80</ele>
	<time>2023-10-07T08:56:52.000Z</time>
</trkpt>
<trkpt lat="45.9381250" lon="9.5656940">
	<ele>1693.80</ele>
	<time>2023-10-07T08:56:53.000Z</time>
</trkpt>
<trkpt lat="45.9381260" lon="9.5656790">
	<ele>1694.00</ele>
	<time>2023-10-07T08:56:54.000Z</time>
</trkpt>
<trkpt lat="45.9381260" lon="9.5656670">
	<ele>1694.00</ele>
	<time>2023-10-07T08:56:55.000Z</time>
</trkpt>
<trkpt lat="45.9381250" lon="9.5656580">
	<ele>1694.00</ele>
	<time>2023-10-07T08:56:56.000Z</time>
</trkpt>
<trkpt lat="45.9381240" lon="9.5656470">
	<ele>1694.20</ele>
	<time>2023-10-07T08:56:57.000Z</time>
</trkpt>
<trkpt lat="45.9381240" lon="9.5656380">
	<ele>1694.20</ele>
	<time>2023-10-07T08:56:58.000Z</time>
</trkpt>
<trkpt lat="45.9381270" lon="9.5656300">
	<ele>1694.40</ele>
	<time>2023-10-07T08:56:59.000Z</time>
</trkpt>
<trkpt lat="45.9381290" lon="9.5656250">
	<ele>1694.40</ele>
	<time>2023-10-07T08:57:00.000Z</time>
</trkpt>
<trkpt lat="45.9381300" lon="9.5656210">
	<ele>1694.60</ele>
	<time>2023-10-07T08:57:01.000Z</time>
</trkpt>
<trkpt lat="45.9381310" lon="9.5656200">
	<ele>1694.60</ele>
	<time>2023-10-07T08:57:02.000Z</time>
</trkpt>
<trkpt lat="45.9381310" lon="9.5656180">
	<ele>1694.80</ele>
	<time>2023-10-07T08:57:03.000Z</time>
</trkpt>
<trkpt lat="45.9381300" lon="9.5656180">
	<ele>1695.00</ele>
	<time>2023-10-07T08:57:04.000Z</time>
</trkpt>
<trkpt lat="45.9381300" lon="9.5656170">
	<ele>1695.20</ele>
	<time>2023-10-07T08:57:05.000Z</time>
</trkpt>
<trkpt lat="45.9381310" lon="9.5656160">
	<ele>1695.20</ele>
	<time>2023-10-07T08:57:06.000Z</time>
</trkpt>
<trkpt lat="45.9381310" lon="9.5656160">
	<ele>1695.40</ele>
	<time>2023-10-07T08:57:07.000Z</time>
</trkpt>
<trkpt lat="45.9381310" lon="9.5656160">
	<ele>1695.40</ele>
	<time>2023-10-07T08:57:08.000Z</time>
</trkpt>
<trkpt lat="45.9381310" lon="9.5656160">
	<ele>1695.40</ele>
	<time>2023-10-07T08:57:09.000Z</time>
</trkpt>
<trkpt lat="45.9381320" lon="9.5656180">
	<ele>1695.40</ele>
	<time>2023-10-07T08:57:10.000Z</time>
</trkpt>
<trkpt lat="45.9381320" lon="9.5656180">
	<ele>1695.20</ele>
	<time>2023-10-07T08:57:11.000Z</time>
</trkpt>
<trkpt lat="45.9381320" lon="9.5656180">
	<ele>1695.00</ele>
	<time>2023-10-07T08:57:12.000Z</time>
</trkpt>
<trkpt lat="45.9381320" lon="9.5656180">
	<ele>1694.60</ele>
	<time>2023-10-07T08:57:13.000Z</time>
</trkpt>
<trkpt lat="45.9381320" lon="9.5656180">
	<ele>1694.60</ele>
	<time>2023-10-07T08:57:14.000Z</time>
</trkpt>
<trkpt lat="45.9381320" lon="9.5656180">
	<ele>1694.40</ele>
	<time>2023-10-07T08:57:15.000Z</time>
</trkpt>
<trkpt lat="45.9381320" lon="9.5656180">
	<ele>1694.40</ele>
	<time>2023-10-07T08:57:16.000Z</time>
</trkpt>
<trkpt lat="45.9381320" lon="9.5656180">
	<ele>1694.20</ele>
	<time>2023-10-07T08:57:17.000Z</time>
</trkpt>
<trkpt lat="45.9381310" lon="9.5656180">
	<ele>1694.40</ele>
	<time>2023-10-07T08:57:18.000Z</time>
</trkpt>
<trkpt lat="45.9381310" lon="9.5656180">
	<ele>1694.40</ele>
	<time>2023-10-07T08:57:19.000Z</time>
</trkpt>
<trkpt lat="45.9381310" lon="9.5656180">
	<ele>1694.40</ele>
	<time>2023-10-07T08:57:20.000Z</time>
</trkpt>
<trkpt lat="45.9381310" lon="9.5656180">
	<ele>1694.60</ele>
	<time>2023-10-07T08:57:21.000Z</time>
</trkpt>
<trkpt lat="45.9381310" lon="9.5656180">
	<ele>1694.60</ele>
	<time>2023-10-07T08:57:22.000Z</time>
</trkpt>
<trkpt lat="45.9381310" lon="9.5656180">
	<ele>1694.60</ele>
	<time>2023-10-07T08:57:23.000Z</time>
</trkpt>
<trkpt lat="45.9381300" lon="9.5656180">
	<ele>1694.60</ele>
	<time>2023-10-07T08:57:24.000Z</time>
</trkpt>
<trkpt lat="45.9381300" lon="9.5656180">
	<ele>1694.40</ele>
	<time>2023-10-07T08:57:25.000Z</time>
</trkpt>
<trkpt lat="45.9381300" lon="9.5656170">
	<ele>1694.60</ele>
	<time>2023-10-07T08:57:26.000Z</time>
</trkpt>
<trkpt lat="45.9381290" lon="9.5656170">
	<ele>1694.60</ele>
	<time>2023-10-07T08:57:27.000Z</time>
</trkpt>
<trkpt lat="45.9381290" lon="9.5656160">
	<ele>1694.60</ele>
	<time>2023-10-07T08:57:28.000Z</time>
</trkpt>
<trkpt lat="45.9381290" lon="9.5656160">
	<ele>1694.60</ele>
	<time>2023-10-07T08:57:29.000Z</time>
</trkpt>
<trkpt lat="45.9381280" lon="9.5656160">
	<ele>1694.80</ele>
	<time>2023-10-07T08:57:30.000Z</time>
</trkpt>
<trkpt lat="45.9381280" lon="9.5656160">
	<ele>1695.00</ele>
	<time>2023-10-07T08:57:31.000Z</time>
</trkpt>
<trkpt lat="45.9381280" lon="9.5656160">
	<ele>1695.00</ele>
	<time>2023-10-07T08:57:32.000Z</time>
</trkpt>
<trkpt lat="45.9381270" lon="9.5656160">
	<ele>1695.00</ele>
	<time>2023-10-07T08:57:33.000Z</time>
</trkpt>
<trkpt lat="45.9381270" lon="9.5656140">
	<ele>1695.00</ele>
	<time>2023-10-07T08:57:34.000Z</time>
</trkpt>
<trkpt lat="45.9381260" lon="9.5656130">
	<ele>1695.00</ele>
	<time>2023-10-07T08:57:35.000Z</time>
</trkpt>
<trkpt lat="45.9381260" lon="9.5656120">
	<ele>1695.00</ele>
	<time>2023-10-07T08:57:36.000Z</time>
</trkpt>
<trkpt lat="45.9381260" lon="9.5656120">
	<ele>1694.80</ele>
	<time>2023-10-07T08:57:37.000Z</time>
</trkpt>
<trkpt lat="45.9381260" lon="9.5656110">
	<ele>1694.80</ele>
	<time>2023-10-07T08:57:38.000Z</time>
</trkpt>
<trkpt lat="45.9381260" lon="9.5656100">
	<ele>1694.80</ele>
	<time>2023-10-07T08:57:39.000Z</time>
</trkpt>
<trkpt lat="45.9381260" lon="9.5656100">
	<ele>1694.80</ele>
	<time>2023-10-07T08:57:40.000Z</time>
</trkpt>
<trkpt lat="45.9381250" lon="9.5656100">
	<ele>1694.80</ele>
	<time>2023-10-07T08:57:41.000Z</time>
</trkpt>
<trkpt lat="45.9381250" lon="9.5656090">
	<ele>1694.80</ele>
	<time>2023-10-07T08:57:42.000Z</time>
</trkpt>
<trkpt lat="45.9381250" lon="9.5656090">
	<ele>1694.60</ele>
	<time>2023-10-07T08:57:43.000Z</time>
</trkpt>
<trkpt lat="45.9381250" lon="9.5656090">
	<ele>1694.60</ele>
	<time>2023-10-07T08:57:44.000Z</time>
</trkpt>
<trkpt lat="45.9381250" lon="9.5656090">
	<ele>1694.60</ele>
	<time>2023-10-07T08:57:45.000Z</time>
</trkpt>
<trkpt lat="45.9381250" lon="9.5656090">
	<ele>1694.60</ele>
	<time>2023-10-07T08:57:46.000Z</time>
</trkpt>
<trkpt lat="45.9381250" lon="9.5656090">
	<ele>1694.60</ele>
	<time>2023-10-07T08:57:47.000Z</time>
</trkpt>
<trkpt lat="45.9381250" lon="9.5656090">
	<ele>1694.60</ele>
	<time>2023-10-07T08:57:48.000Z</time>
</trkpt>
<trkpt lat="45.9381250" lon="9.5656090">
	<ele>1694.60</ele>
	<time>2023-10-07T08:57:49.000Z</time>
</trkpt>
<trkpt lat="45.9381250" lon="9.5656080">
	<ele>1694.60</ele>
	<time>2023-10-07T08:57:50.000Z</time>
</trkpt>
<trkpt lat="45.9381250" lon="9.5656080">
	<ele>1694.60</ele>
	<time>2023-10-07T08:57:51.000Z</time>
</trkpt>
<trkpt lat="45.9381250" lon="9.5656080">
	<ele>1694.60</ele>
	<time>2023-10-07T08:57:52.000Z</time>
</trkpt>
<trkpt lat="45.9381240" lon="9.5656000">
	<ele>1695.00</ele>
	<time>2023-10-07T08:57:53.000Z</time>
</trkpt>
<trkpt lat="45.9381280" lon="9.5655800">
	<ele>1695.20</ele>
	<time>2023-10-07T08:57:54.000Z</time>
</trkpt>
<trkpt lat="45.9381280" lon="9.5655650">
	<ele>1695.40</ele>
	<time>2023-10-07T08:57:55.000Z</time>
</trkpt>
<trkpt lat="45.9381310" lon="9.5655480">
	<ele>1695.40</ele>
	<time>2023-10-07T08:57:56.000Z</time>
</trkpt>
<trkpt lat="45.9381380" lon="9.5655290">
	<ele>1695.60</ele>
	<time>2023-10-07T08:57:57.000Z</time>
</trkpt>
<trkpt lat="45.9381450" lon="9.5655170">
	<ele>1695.60</ele>
	<time>2023-10-07T08:57:58.000Z</time>
</trkpt>
<trkpt lat="45.9381510" lon="9.5655050">
	<ele>1695.80</ele>
	<time>2023-10-07T08:57:59.000Z</time>
</trkpt>
<trkpt lat="45.9381580" lon="9.5654900">
	<ele>1696.00</ele>
	<time>2023-10-07T08:58:00.000Z</time>
</trkpt>
<trkpt lat="45.9381630" lon="9.5654730">
	<ele>1696.20</ele>
	<time>2023-10-07T08:58:01.000Z</time>
</trkpt>
<trkpt lat="45.9381650" lon="9.5654590">
	<ele>1696.40</ele>
	<time>2023-10-07T08:58:02.000Z</time>
</trkpt>
<trkpt lat="45.9381650" lon="9.5654490">
	<ele>1696.40</ele>
	<time>2023-10-07T08:58:03.000Z</time>
</trkpt>
<trkpt lat="45.9381660" lon="9.5654430">
	<ele>1696.60</ele>
	<time>2023-10-07T08:58:04.000Z</time>
</trkpt>
<trkpt lat="45.9381640" lon="9.5654340">
	<ele>1696.60</ele>
	<time>2023-10-07T08:58:05.000Z</time>
</trkpt>
<trkpt lat="45.9381640" lon="9.5654240">
	<ele>1696.80</ele>
	<time>2023-10-07T08:58:06.000Z</time>
</trkpt>
<trkpt lat="45.9381660" lon="9.5654150">
	<ele>1696.80</ele>
	<time>2023-10-07T08:58:07.000Z</time>
</trkpt>
<trkpt lat="45.9381630" lon="9.5654030">
	<ele>1697.00</ele>
	<time>2023-10-07T08:58:08.000Z</time>
</trkpt>
<trkpt lat="45.9381620" lon="9.5653930">
	<ele>1697.00</ele>
	<time>2023-10-07T08:58:09.000Z</time>
</trkpt>
<trkpt lat="45.9381600" lon="9.5653820">
	<ele>1697.20</ele>
	<time>2023-10-07T08:58:10.000Z</time>
</trkpt>
<trkpt lat="45.9381590" lon="9.5653720">
	<ele>1697.20</ele>
	<time>2023-10-07T08:58:11.000Z</time>
</trkpt>
<trkpt lat="45.9381590" lon="9.5653650">
	<ele>1697.40</ele>
	<time>2023-10-07T08:58:12.000Z</time>
</trkpt>
<trkpt lat="45.9381600" lon="9.5653550">
	<ele>1697.40</ele>
	<time>2023-10-07T08:58:13.000Z</time>
</trkpt>
<trkpt lat="45.9381590" lon="9.5653480">
	<ele>1697.60</ele>
	<time>2023-10-07T08:58:14.000Z</time>
</trkpt>
<trkpt lat="45.9381580" lon="9.5653430">
	<ele>1697.80</ele>
	<time>2023-10-07T08:58:15.000Z</time>
</trkpt>
<trkpt lat="45.9381570" lon="9.5653310">
	<ele>1698.00</ele>
	<time>2023-10-07T08:58:16.000Z</time>
</trkpt>
<trkpt lat="45.9381600" lon="9.5653210">
	<ele>1698.20</ele>
	<time>2023-10-07T08:58:17.000Z</time>
</trkpt>
<trkpt lat="45.9381620" lon="9.5653120">
	<ele>1698.40</ele>
	<time>2023-10-07T08:58:18.000Z</time>
</trkpt>
<trkpt lat="45.9381630" lon="9.5653060">
	<ele>1698.60</ele>
	<time>2023-10-07T08:58:19.000Z</time>
</trkpt>
<trkpt lat="45.9381630" lon="9.5653040">
	<ele>1698.60</ele>
	<time>2023-10-07T08:58:20.000Z</time>
</trkpt>
<trkpt lat="45.9381620" lon="9.5653000">
	<ele>1698.60</ele>
	<time>2023-10-07T08:58:21.000Z</time>
</trkpt>
<trkpt lat="45.9381620" lon="9.5652930">
	<ele>1698.80</ele>
	<time>2023-10-07T08:58:22.000Z</time>
</trkpt>
<trkpt lat="45.9381620" lon="9.5652850">
	<ele>1698.80</ele>
	<time>2023-10-07T08:58:23.000Z</time>
</trkpt>
<trkpt lat="45.9381610" lon="9.5652800">
	<ele>1699.00</ele>
	<time>2023-10-07T08:58:24.000Z</time>
</trkpt>
<trkpt lat="45.9381590" lon="9.5652680">
	<ele>1699.20</ele>
	<time>2023-10-07T08:58:25.000Z</time>
</trkpt>
<trkpt lat="45.9381580" lon="9.5652550">
	<ele>1699.40</ele>
	<time>2023-10-07T08:58:26.000Z</time>
</trkpt>
<trkpt lat="45.9381590" lon="9.5652480">
	<ele>1699.60</ele>
	<time>2023-10-07T08:58:27.000Z</time>
</trkpt>
<trkpt lat="45.9381590" lon="9.5652390">
	<ele>1699.60</ele>
	<time>2023-10-07T08:58:28.000Z</time>
</trkpt>
<trkpt lat="45.9381600" lon="9.5652270">
	<ele>1699.80</ele>
	<time>2023-10-07T08:58:29.000Z</time>
</trkpt>
<trkpt lat="45.9381620" lon="9.5652160">
	<ele>1700.00</ele>
	<time>2023-10-07T08:58:30.000Z</time>
</trkpt>
<trkpt lat="45.9381630" lon="9.5652080">
	<ele>1700.20</ele>
	<time>2023-10-07T08:58:31.000Z</time>
</trkpt>
<trkpt lat="45.9381610" lon="9.5651970">
	<ele>1700.40</ele>
	<time>2023-10-07T08:58:32.000Z</time>
</trkpt>
<trkpt lat="45.9381600" lon="9.5651860">
	<ele>1700.40</ele>
	<time>2023-10-07T08:58:33.000Z</time>
</trkpt>
<trkpt lat="45.9381590" lon="9.5651770">
	<ele>1700.60</ele>
	<time>2023-10-07T08:58:34.000Z</time>
</trkpt>
<trkpt lat="45.9381600" lon="9.5651690">
	<ele>1700.60</ele>
	<time>2023-10-07T08:58:35.000Z</time>
</trkpt>
<trkpt lat="45.9381600" lon="9.5651630">
	<ele>1700.80</ele>
	<time>2023-10-07T08:58:36.000Z</time>
</trkpt>
<trkpt lat="45.9381590" lon="9.5651500">
	<ele>1701.00</ele>
	<time>2023-10-07T08:58:37.000Z</time>
</trkpt>
<trkpt lat="45.9381590" lon="9.5651390">
	<ele>1701.00</ele>
	<time>2023-10-07T08:58:38.000Z</time>
</trkpt>
<trkpt lat="45.9381590" lon="9.5651250">
	<ele>1701.20</ele>
	<time>2023-10-07T08:58:39.000Z</time>
</trkpt>
<trkpt lat="45.9381590" lon="9.5651110">
	<ele>1701.40</ele>
	<time>2023-10-07T08:58:40.000Z</time>
</trkpt>
<trkpt lat="45.9381600" lon="9.5650980">
	<ele>1701.60</ele>
	<time>2023-10-07T08:58:41.000Z</time>
</trkpt>
<trkpt lat="45.9381620" lon="9.5650830">
	<ele>1701.80</ele>
	<time>2023-10-07T08:58:42.000Z</time>
</trkpt>
<trkpt lat="45.9381670" lon="9.5650680">
	<ele>1701.80</ele>
	<time>2023-10-07T08:58:43.000Z</time>
</trkpt>
<trkpt lat="45.9381660" lon="9.5650500">
	<ele>1702.00</ele>
	<time>2023-10-07T08:58:44.000Z</time>
</trkpt>
<trkpt lat="45.9381660" lon="9.5650440">
	<ele>1702.00</ele>
	<time>2023-10-07T08:58:45.000Z</time>
</trkpt>
<trkpt lat="45.9381670" lon="9.5650330">
	<ele>1702.00</ele>
	<time>2023-10-07T08:58:46.000Z</time>
</trkpt>
<trkpt lat="45.9381670" lon="9.5650230">
	<ele>1702.20</ele>
	<time>2023-10-07T08:58:47.000Z</time>
</trkpt>
<trkpt lat="45.9381670" lon="9.5650120">
	<ele>1702.40</ele>
	<time>2023-10-07T08:58:48.000Z</time>
</trkpt>
<trkpt lat="45.9381690" lon="9.5650000">
	<ele>1702.40</ele>
	<time>2023-10-07T08:58:49.000Z</time>
</trkpt>
<trkpt lat="45.9381710" lon="9.5649900">
	<ele>1702.60</ele>
	<time>2023-10-07T08:58:50.000Z</time>
</trkpt>
<trkpt lat="45.9381730" lon="9.5649830">
	<ele>1702.80</ele>
	<time>2023-10-07T08:58:51.000Z</time>
</trkpt>
<trkpt lat="45.9381740" lon="9.5649750">
	<ele>1703.00</ele>
	<time>2023-10-07T08:58:52.000Z</time>
</trkpt>
<trkpt lat="45.9381730" lon="9.5649700">
	<ele>1703.20</ele>
	<time>2023-10-07T08:58:53.000Z</time>
</trkpt>
<trkpt lat="45.9381710" lon="9.5649620">
	<ele>1703.20</ele>
	<time>2023-10-07T08:58:54.000Z</time>
</trkpt>
<trkpt lat="45.9381710" lon="9.5649530">
	<ele>1703.40</ele>
	<time>2023-10-07T08:58:55.000Z</time>
</trkpt>
<trkpt lat="45.9381740" lon="9.5649480">
	<ele>1703.60</ele>
	<time>2023-10-07T08:58:56.000Z</time>
</trkpt>
<trkpt lat="45.9381780" lon="9.5649390">
	<ele>1703.80</ele>
	<time>2023-10-07T08:58:57.000Z</time>
</trkpt>
<trkpt lat="45.9381780" lon="9.5649330">
	<ele>1704.00</ele>
	<time>2023-10-07T08:58:58.000Z</time>
</trkpt>
<trkpt lat="45.9381760" lon="9.5649290">
	<ele>1704.20</ele>
	<time>2023-10-07T08:58:59.000Z</time>
</trkpt>
<trkpt lat="45.9381740" lon="9.5649280">
	<ele>1704.40</ele>
	<time>2023-10-07T08:59:00.000Z</time>
</trkpt>
<trkpt lat="45.9381710" lon="9.5649240">
	<ele>1704.40</ele>
	<time>2023-10-07T08:59:01.000Z</time>
</trkpt>
<trkpt lat="45.9381700" lon="9.5649140">
	<ele>1704.60</ele>
	<time>2023-10-07T08:59:02.000Z</time>
</trkpt>
<trkpt lat="45.9381740" lon="9.5649060">
	<ele>1704.60</ele>
	<time>2023-10-07T08:59:03.000Z</time>
</trkpt>
<trkpt lat="45.9381790" lon="9.5648990">
	<ele>1704.60</ele>
	<time>2023-10-07T08:59:04.000Z</time>
</trkpt>
<trkpt lat="45.9381840" lon="9.5648910">
	<ele>1704.80</ele>
	<time>2023-10-07T08:59:05.000Z</time>
</trkpt>
<trkpt lat="45.9381890" lon="9.5648800">
	<ele>1705.00</ele>
	<time>2023-10-07T08:59:06.000Z</time>
</trkpt>
<trkpt lat="45.9381940" lon="9.5648720">
	<ele>1705.00</ele>
	<time>2023-10-07T08:59:07.000Z</time>
</trkpt>
<trkpt lat="45.9381960" lon="9.5648680">
	<ele>1705.20</ele>
	<time>2023-10-07T08:59:08.000Z</time>
</trkpt>
<trkpt lat="45.9382000" lon="9.5648610">
	<ele>1705.20</ele>
	<time>2023-10-07T08:59:09.000Z</time>
</trkpt>
<trkpt lat="45.9382050" lon="9.5648520">
	<ele>1705.40</ele>
	<time>2023-10-07T08:59:10.000Z</time>
</trkpt>
<trkpt lat="45.9382090" lon="9.5648380">
	<ele>1705.60</ele>
	<time>2023-10-07T08:59:11.000Z</time>
</trkpt>
<trkpt lat="45.9382130" lon="9.5648320">
	<ele>1705.80</ele>
	<time>2023-10-07T08:59:12.000Z</time>
</trkpt>
<trkpt lat="45.9382170" lon="9.5648240">
	<ele>1706.00</ele>
	<time>2023-10-07T08:59:13.000Z</time>
</trkpt>
<trkpt lat="45.9382190" lon="9.5648180">
	<ele>1706.20</ele>
	<time>2023-10-07T08:59:14.000Z</time>
</trkpt>
<trkpt lat="45.9382200" lon="9.5648090">
	<ele>1706.20</ele>
	<time>2023-10-07T08:59:15.000Z</time>
</trkpt>
<trkpt lat="45.9382200" lon="9.5648000">
	<ele>1706.40</ele>
	<time>2023-10-07T08:59:16.000Z</time>
</trkpt>
<trkpt lat="45.9382210" lon="9.5647900">
	<ele>1706.60</ele>
	<time>2023-10-07T08:59:17.000Z</time>
</trkpt>
<trkpt lat="45.9382230" lon="9.5647820">
	<ele>1706.80</ele>
	<time>2023-10-07T08:59:18.000Z</time>
</trkpt>
<trkpt lat="45.9382290" lon="9.5647760">
	<ele>1706.80</ele>
	<time>2023-10-07T08:59:19.000Z</time>
</trkpt>
<trkpt lat="45.9382360" lon="9.5647680">
	<ele>1707.00</ele>
	<time>2023-10-07T08:59:20.000Z</time>
</trkpt>
<trkpt lat="45.9382420" lon="9.5647620">
	<ele>1707.00</ele>
	<time>2023-10-07T08:59:21.000Z</time>
</trkpt>
<trkpt lat="45.9382500" lon="9.5647550">
	<ele>1707.00</ele>
	<time>2023-10-07T08:59:22.000Z</time>
</trkpt>
<trkpt lat="45.9382540" lon="9.5647480">
	<ele>1707.20</ele>
	<time>2023-10-07T08:59:23.000Z</time>
</trkpt>
<trkpt lat="45.9382600" lon="9.5647390">
	<ele>1707.20</ele>
	<time>2023-10-07T08:59:24.000Z</time>
</trkpt>
<trkpt lat="45.9382620" lon="9.5647310">
	<ele>1707.60</ele>
	<time>2023-10-07T08:59:25.000Z</time>
</trkpt>
<trkpt lat="45.9382650" lon="9.5647220">
	<ele>1707.80</ele>
	<time>2023-10-07T08:59:26.000Z</time>
</trkpt>
<trkpt lat="45.9382700" lon="9.5647150">
	<ele>1708.00</ele>
	<time>2023-10-07T08:59:27.000Z</time>
</trkpt>
<trkpt lat="45.9382770" lon="9.5647090">
	<ele>1708.20</ele>
	<time>2023-10-07T08:59:28.000Z</time>
</trkpt>
<trkpt lat="45.9382840" lon="9.5647030">
	<ele>1708.20</ele>
	<time>2023-10-07T08:59:29.000Z</time>
</trkpt>
<trkpt lat="45.9382900" lon="9.5646940">
	<ele>1708.60</ele>
	<time>2023-10-07T08:59:30.000Z</time>
</trkpt>
<trkpt lat="45.9382950" lon="9.5646830">
	<ele>1708.60</ele>
	<time>2023-10-07T08:59:31.000Z</time>
</trkpt>
<trkpt lat="45.9382980" lon="9.5646710">
	<ele>1708.80</ele>
	<time>2023-10-07T08:59:32.000Z</time>
</trkpt>
<trkpt lat="45.9383000" lon="9.5646600">
	<ele>1708.80</ele>
	<time>2023-10-07T08:59:33.000Z</time>
</trkpt>
<trkpt lat="45.9383060" lon="9.5646470">
	<ele>1708.80</ele>
	<time>2023-10-07T08:59:34.000Z</time>
</trkpt>
<trkpt lat="45.9383140" lon="9.5646330">
	<ele>1709.00</ele>
	<time>2023-10-07T08:59:35.000Z</time>
</trkpt>
<trkpt lat="45.9383200" lon="9.5646250">
	<ele>1709.00</ele>
	<time>2023-10-07T08:59:36.000Z</time>
</trkpt>
<trkpt lat="45.9383230" lon="9.5646140">
	<ele>1709.00</ele>
	<time>2023-10-07T08:59:37.000Z</time>
</trkpt>
<trkpt lat="45.9383290" lon="9.5646030">
	<ele>1709.20</ele>
	<time>2023-10-07T08:59:38.000Z</time>
</trkpt>
<trkpt lat="45.9383340" lon="9.5645890">
	<ele>1709.40</ele>
	<time>2023-10-07T08:59:39.000Z</time>
</trkpt>
<trkpt lat="45.9383410" lon="9.5645790">
	<ele>1709.40</ele>
	<time>2023-10-07T08:59:40.000Z</time>
</trkpt>
<trkpt lat="45.9383460" lon="9.5645670">
	<ele>1709.60</ele>
	<time>2023-10-07T08:59:41.000Z</time>
</trkpt>
<trkpt lat="45.9383490" lon="9.5645560">
	<ele>1709.60</ele>
	<time>2023-10-07T08:59:42.000Z</time>
</trkpt>
<trkpt lat="45.9383510" lon="9.5645430">
	<ele>1709.80</ele>
	<time>2023-10-07T08:59:43.000Z</time>
</trkpt>
<trkpt lat="45.9383540" lon="9.5645330">
	<ele>1709.80</ele>
	<time>2023-10-07T08:59:44.000Z</time>
</trkpt>
<trkpt lat="45.9383550" lon="9.5645240">
	<ele>1710.00</ele>
	<time>2023-10-07T08:59:45.000Z</time>
</trkpt>
<trkpt lat="45.9383540" lon="9.5645110">
	<ele>1710.00</ele>
	<time>2023-10-07T08:59:46.000Z</time>
</trkpt>
<trkpt lat="45.9383520" lon="9.5644990">
	<ele>1710.20</ele>
	<time>2023-10-07T08:59:47.000Z</time>
</trkpt>
<trkpt lat="45.9383480" lon="9.5644880">
	<ele>1710.60</ele>
	<time>2023-10-07T08:59:48.000Z</time>
</trkpt>
<trkpt lat="45.9383450" lon="9.5644750">
	<ele>1710.60</ele>
	<time>2023-10-07T08:59:49.000Z</time>
</trkpt>
<trkpt lat="45.9383420" lon="9.5644660">
	<ele>1710.80</ele>
	<time>2023-10-07T08:59:50.000Z</time>
</trkpt>
<trkpt lat="45.9383370" lon="9.5644540">
	<ele>1710.80</ele>
	<time>2023-10-07T08:59:51.000Z</time>
</trkpt>
<trkpt lat="45.9383340" lon="9.5644390">
	<ele>1710.80</ele>
	<time>2023-10-07T08:59:52.000Z</time>
</trkpt>
<trkpt lat="45.9383290" lon="9.5644250">
	<ele>1711.00</ele>
	<time>2023-10-07T08:59:53.000Z</time>
</trkpt>
<trkpt lat="45.9383250" lon="9.5644090">
	<ele>1711.20</ele>
	<time>2023-10-07T08:59:54.000Z</time>
</trkpt>
<trkpt lat="45.9383230" lon="9.5643950">
	<ele>1711.40</ele>
	<time>2023-10-07T08:59:55.000Z</time>
</trkpt>
<trkpt lat="45.9383240" lon="9.5643820">
	<ele>1711.40</ele>
	<time>2023-10-07T08:59:56.000Z</time>
</trkpt>
<trkpt lat="45.9383240" lon="9.5643690">
	<ele>1711.60</ele>
	<time>2023-10-07T08:59:57.000Z</time>
</trkpt>
<trkpt lat="45.9383240" lon="9.5643560">
	<ele>1711.60</ele>
	<time>2023-10-07T08:59:58.000Z</time>
</trkpt>
<trkpt lat="45.9383220" lon="9.5643440">
	<ele>1711.60</ele>
	<time>2023-10-07T08:59:59.000Z</time>
</trkpt>
<trkpt lat="45.9383200" lon="9.5643300">
	<ele>1711.80</ele>
	<time>2023-10-07T09:00:00.000Z</time>
</trkpt>
<trkpt lat="45.9383140" lon="9.5643150">
	<ele>1711.80</ele>
	<time>2023-10-07T09:00:01.000Z</time>
</trkpt>
<trkpt lat="45.9383060" lon="9.5642980">
	<ele>1711.80</ele>
	<time>2023-10-07T09:00:02.000Z</time>
</trkpt>
<trkpt lat="45.9383000" lon="9.5642850">
	<ele>1711.80</ele>
	<time>2023-10-07T09:00:03.000Z</time>
</trkpt>
<trkpt lat="45.9382940" lon="9.5642760">
	<ele>1711.80</ele>
	<time>2023-10-07T09:00:04.000Z</time>
</trkpt>
<trkpt lat="45.9382850" lon="9.5642690">
	<ele>1711.80</ele>
	<time>2023-10-07T09:00:05.000Z</time>
</trkpt>
<trkpt lat="45.9382730" lon="9.5642570">
	<ele>1711.60</ele>
	<time>2023-10-07T09:00:06.000Z</time>
</trkpt>
<trkpt lat="45.9382670" lon="9.5642430">
	<ele>1711.60</ele>
	<time>2023-10-07T09:00:07.000Z</time>
</trkpt>
<trkpt lat="45.9382640" lon="9.5642280">
	<ele>1711.60</ele>
	<time>2023-10-07T09:00:08.000Z</time>
</trkpt>
<trkpt lat="45.9382650" lon="9.5642090">
	<ele>1711.60</ele>
	<time>2023-10-07T09:00:09.000Z</time>
</trkpt>
<trkpt lat="45.9382670" lon="9.5641900">
	<ele>1711.60</ele>
	<time>2023-10-07T09:00:10.000Z</time>
</trkpt>
<trkpt lat="45.9382690" lon="9.5641780">
	<ele>1711.60</ele>
	<time>2023-10-07T09:00:11.000Z</time>
</trkpt>
<trkpt lat="45.9382710" lon="9.5641620">
	<ele>1711.60</ele>
	<time>2023-10-07T09:00:12.000Z</time>
</trkpt>
<trkpt lat="45.9382720" lon="9.5641470">
	<ele>1711.80</ele>
	<time>2023-10-07T09:00:13.000Z</time>
</trkpt>
<trkpt lat="45.9382730" lon="9.5641290">
	<ele>1711.80</ele>
	<time>2023-10-07T09:00:14.000Z</time>
</trkpt>
<trkpt lat="45.9382710" lon="9.5641170">
	<ele>1712.00</ele>
	<time>2023-10-07T09:00:15.000Z</time>
</trkpt>
<trkpt lat="45.9382710" lon="9.5641070">
	<ele>1712.00</ele>
	<time>2023-10-07T09:00:16.000Z</time>
</trkpt>
<trkpt lat="45.9382700" lon="9.5640950">
	<ele>1712.00</ele>
	<time>2023-10-07T09:00:17.000Z</time>
</trkpt>
<trkpt lat="45.9382680" lon="9.5640820">
	<ele>1712.00</ele>
	<time>2023-10-07T09:00:18.000Z</time>
</trkpt>
<trkpt lat="45.9382620" lon="9.5640650">
	<ele>1712.20</ele>
	<time>2023-10-07T09:00:19.000Z</time>
</trkpt>
<trkpt lat="45.9382590" lon="9.5640530">
	<ele>1712.40</ele>
	<time>2023-10-07T09:00:20.000Z</time>
</trkpt>
<trkpt lat="45.9382590" lon="9.5640330">
	<ele>1712.40</ele>
	<time>2023-10-07T09:00:21.000Z</time>
</trkpt>
<trkpt lat="45.9382580" lon="9.5640200">
	<ele>1712.40</ele>
	<time>2023-10-07T09:00:22.000Z</time>
</trkpt>
<trkpt lat="45.9382600" lon="9.5640020">
	<ele>1712.40</ele>
	<time>2023-10-07T09:00:23.000Z</time>
</trkpt>
<trkpt lat="45.9382620" lon="9.5639820">
	<ele>1712.40</ele>
	<time>2023-10-07T09:00:24.000Z</time>
</trkpt>
<trkpt lat="45.9382620" lon="9.5639720">
	<ele>1712.60</ele>
	<time>2023-10-07T09:00:25.000Z</time>
</trkpt>
<trkpt lat="45.9382650" lon="9.5639590">
	<ele>1712.60</ele>
	<time>2023-10-07T09:00:26.000Z</time>
</trkpt>
<trkpt lat="45.9382740" lon="9.5639470">
	<ele>1712.40</ele>
	<time>2023-10-07T09:00:27.000Z</time>
</trkpt>
<trkpt lat="45.9382810" lon="9.5639370">
	<ele>1712.40</ele>
	<time>2023-10-07T09:00:28.000Z</time>
</trkpt>
<trkpt lat="45.9382890" lon="9.5639220">
	<ele>1712.40</ele>
	<time>2023-10-07T09:00:29.000Z</time>
</trkpt>
<trkpt lat="45.9382950" lon="9.5639080">
	<ele>1712.40</ele>
	<time>2023-10-07T09:00:30.000Z</time>
</trkpt>
<trkpt lat="45.9382990" lon="9.5638910">
	<ele>1712.40</ele>
	<time>2023-10-07T09:00:31.000Z</time>
</trkpt>
<trkpt lat="45.9383020" lon="9.5638770">
	<ele>1712.40</ele>
	<time>2023-10-07T09:00:32.000Z</time>
</trkpt>
<trkpt lat="45.9383040" lon="9.5638630">
	<ele>1712.20</ele>
	<time>2023-10-07T09:00:33.000Z</time>
</trkpt>
<trkpt lat="45.9383020" lon="9.5638470">
	<ele>1712.20</ele>
	<time>2023-10-07T09:00:34.000Z</time>
</trkpt>
<trkpt lat="45.9383020" lon="9.5638350">
	<ele>1712.20</ele>
	<time>2023-10-07T09:00:35.000Z</time>
</trkpt>
<trkpt lat="45.9383020" lon="9.5638240">
	<ele>1712.00</ele>
	<time>2023-10-07T09:00:36.000Z</time>
</trkpt>
<trkpt lat="45.9382980" lon="9.5638090">
	<ele>1712.00</ele>
	<time>2023-10-07T09:00:37.000Z</time>
</trkpt>
<trkpt lat="45.9382930" lon="9.5637950">
	<ele>1711.80</ele>
	<time>2023-10-07T09:00:38.000Z</time>
</trkpt>
<trkpt lat="45.9382840" lon="9.5637810">
	<ele>1711.80</ele>
	<time>2023-10-07T09:00:39.000Z</time>
</trkpt>
<trkpt lat="45.9382740" lon="9.5637680">
	<ele>1711.60</ele>
	<time>2023-10-07T09:00:40.000Z</time>
</trkpt>
<trkpt lat="45.9382660" lon="9.5637530">
	<ele>1711.60</ele>
	<time>2023-10-07T09:00:41.000Z</time>
</trkpt>
<trkpt lat="45.9382540" lon="9.5637340">
	<ele>1711.60</ele>
	<time>2023-10-07T09:00:42.000Z</time>
</trkpt>
<trkpt lat="45.9382500" lon="9.5637150">
	<ele>1711.60</ele>
	<time>2023-10-07T09:00:43.000Z</time>
</trkpt>
<trkpt lat="45.9382450" lon="9.5636970">
	<ele>1711.60</ele>
	<time>2023-10-07T09:00:44.000Z</time>
</trkpt>
<trkpt lat="45.9382420" lon="9.5636810">
	<ele>1711.60</ele>
	<time>2023-10-07T09:00:45.000Z</time>
</trkpt>
<trkpt lat="45.9382420" lon="9.5636670">
	<ele>1711.60</ele>
	<time>2023-10-07T09:00:46.000Z</time>
</trkpt>
<trkpt lat="45.9382440" lon="9.5636500">
	<ele>1711.40</ele>
	<time>2023-10-07T09:00:47.000Z</time>
</trkpt>
<trkpt lat="45.9382500" lon="9.5636330">
	<ele>1711.40</ele>
	<time>2023-10-07T09:00:48.000Z</time>
</trkpt>
<trkpt lat="45.9382550" lon="9.5636150">
	<ele>1711.40</ele>
	<time>2023-10-07T09:00:49.000Z</time>
</trkpt>
<trkpt lat="45.9382620" lon="9.5635990">
	<ele>1711.40</ele>
	<time>2023-10-07T09:00:50.000Z</time>
</trkpt>
<trkpt lat="45.9382670" lon="9.5635870">
	<ele>1711.40</ele>
	<time>2023-10-07T09:00:51.000Z</time>
</trkpt>
<trkpt lat="45.9382730" lon="9.5635750">
	<ele>1711.40</ele>
	<time>2023-10-07T09:00:52.000Z</time>
</trkpt>
<trkpt lat="45.9382840" lon="9.5635570">
	<ele>1711.40</ele>
	<time>2023-10-07T09:00:53.000Z</time>
</trkpt>
<trkpt lat="45.9382890" lon="9.5635420">
	<ele>1711.40</ele>
	<time>2023-10-07T09:00:54.000Z</time>
</trkpt>
<trkpt lat="45.9382930" lon="9.5635260">
	<ele>1711.60</ele>
	<time>2023-10-07T09:00:55.000Z</time>
</trkpt>
<trkpt lat="45.9382970" lon="9.5635140">
	<ele>1711.60</ele>
	<time>2023-10-07T09:00:56.000Z</time>
</trkpt>
<trkpt lat="45.9382990" lon="9.5635050">
	<ele>1711.60</ele>
	<time>2023-10-07T09:00:57.000Z</time>
</trkpt>
<trkpt lat="45.9383040" lon="9.5634900">
	<ele>1711.60</ele>
	<time>2023-10-07T09:00:58.000Z</time>
</trkpt>
<trkpt lat="45.9383120" lon="9.5634710">
	<ele>1711.80</ele>
	<time>2023-10-07T09:00:59.000Z</time>
</trkpt>
<trkpt lat="45.9383190" lon="9.5634570">
	<ele>1712.00</ele>
	<time>2023-10-07T09:01:00.000Z</time>
</trkpt>
<trkpt lat="45.9383240" lon="9.5634430">
	<ele>1712.00</ele>
	<time>2023-10-07T09:01:01.000Z</time>
</trkpt>
<trkpt lat="45.9383310" lon="9.5634300">
	<ele>1712.20</ele>
	<time>2023-10-07T09:01:02.000Z</time>
</trkpt>
<trkpt lat="45.9383410" lon="9.5634150">
	<ele>1712.20</ele>
	<time>2023-10-07T09:01:03.000Z</time>
</trkpt>
<trkpt lat="45.9383500" lon="9.5634060">
	<ele>1712.40</ele>
	<time>2023-10-07T09:01:04.000Z</time>
</trkpt>
<trkpt lat="45.9383550" lon="9.5633950">
	<ele>1712.40</ele>
	<time>2023-10-07T09:01:05.000Z</time>
</trkpt>
<trkpt lat="45.9383630" lon="9.5633860">
	<ele>1712.60</ele>
	<time>2023-10-07T09:01:06.000Z</time>
</trkpt>
<trkpt lat="45.9383730" lon="9.5633790">
	<ele>1712.80</ele>
	<time>2023-10-07T09:01:07.000Z</time>
</trkpt>
<trkpt lat="45.9383820" lon="9.5633740">
	<ele>1712.80</ele>
	<time>2023-10-07T09:01:08.000Z</time>
</trkpt>
<trkpt lat="45.9383920" lon="9.5633670">
	<ele>1713.00</ele>
	<time>2023-10-07T09:01:09.000Z</time>
</trkpt>
<trkpt lat="45.9384020" lon="9.5633600">
	<ele>1713.20</ele>
	<time>2023-10-07T09:01:10.000Z</time>
</trkpt>
<trkpt lat="45.9384090" lon="9.5633540">
	<ele>1713.40</ele>
	<time>2023-10-07T09:01:11.000Z</time>
</trkpt>
<trkpt lat="45.9384160" lon="9.5633490">
	<ele>1713.60</ele>
	<time>2023-10-07T09:01:12.000Z</time>
</trkpt>
<trkpt lat="45.9384230" lon="9.5633410">
	<ele>1713.60</ele>
	<time>2023-10-07T09:01:13.000Z</time>
</trkpt>
<trkpt lat="45.9384300" lon="9.5633310">
	<ele>1713.80</ele>
	<time>2023-10-07T09:01:14.000Z</time>
</trkpt>
<trkpt lat="45.9384370" lon="9.5633220">
	<ele>1713.80</ele>
	<time>2023-10-07T09:01:15.000Z</time>
</trkpt>
<trkpt lat="45.9384450" lon="9.5633160">
	<ele>1713.80</ele>
	<time>2023-10-07T09:01:16.000Z</time>
</trkpt>
<trkpt lat="45.9384490" lon="9.5633120">
	<ele>1714.00</ele>
	<time>2023-10-07T09:01:17.000Z</time>
</trkpt>
<trkpt lat="45.9384510" lon="9.5633100">
	<ele>1714.20</ele>
	<time>2023-10-07T09:01:18.000Z</time>
</trkpt>
<trkpt lat="45.9384530" lon="9.5633060">
	<ele>1714.20</ele>
	<time>2023-10-07T09:01:19.000Z</time>
</trkpt>
<trkpt lat="45.9384520" lon="9.5633000">
	<ele>1714.40</ele>
	<time>2023-10-07T09:01:20.000Z</time>
</trkpt>
<trkpt lat="45.9384520" lon="9.5632910">
	<ele>1714.40</ele>
	<time>2023-10-07T09:01:21.000Z</time>
</trkpt>
<trkpt lat="45.9384530" lon="9.5632850">
	<ele>1714.60</ele>
	<time>2023-10-07T09:01:22.000Z</time>
</trkpt>
<trkpt lat="45.9384530" lon="9.5632820">
	<ele>1714.80</ele>
	<time>2023-10-07T09:01:23.000Z</time>
</trkpt>
<trkpt lat="45.9384530" lon="9.5632800">
	<ele>1714.80</ele>
	<time>2023-10-07T09:01:24.000Z</time>
</trkpt>
<trkpt lat="45.9384530" lon="9.5632790">
	<ele>1715.00</ele>
	<time>2023-10-07T09:01:25.000Z</time>
</trkpt>
<trkpt lat="45.9384530" lon="9.5632800">
	<ele>1715.00</ele>
	<time>2023-10-07T09:01:26.000Z</time>
</trkpt>
<trkpt lat="45.9384550" lon="9.5632810">
	<ele>1715.00</ele>
	<time>2023-10-07T09:01:27.000Z</time>
</trkpt>
<trkpt lat="45.9384570" lon="9.5632750">
	<ele>1715.00</ele>
	<time>2023-10-07T09:01:28.000Z</time>
</trkpt>
<trkpt lat="45.9384590" lon="9.5632730">
	<ele>1714.80</ele>
	<time>2023-10-07T09:01:29.000Z</time>
</trkpt>
<trkpt lat="45.9384580" lon="9.5632710">
	<ele>1714.80</ele>
	<time>2023-10-07T09:01:30.000Z</time>
</trkpt>
<trkpt lat="45.9384570" lon="9.5632730">
	<ele>1714.80</ele>
	<time>2023-10-07T09:01:31.000Z</time>
</trkpt>
<trkpt lat="45.9384560" lon="9.5632740">
	<ele>1714.80</ele>
	<time>2023-10-07T09:01:32.000Z</time>
</trkpt>
<trkpt lat="45.9384550" lon="9.5632740">
	<ele>1715.00</ele>
	<time>2023-10-07T09:01:33.000Z</time>
</trkpt>
<trkpt lat="45.9384540" lon="9.5632730">
	<ele>1715.00</ele>
	<time>2023-10-07T09:01:34.000Z</time>
</trkpt>
<trkpt lat="45.9384560" lon="9.5632690">
	<ele>1715.20</ele>
	<time>2023-10-07T09:01:35.000Z</time>
</trkpt>
<trkpt lat="45.9384570" lon="9.5632610">
	<ele>1715.20</ele>
	<time>2023-10-07T09:01:36.000Z</time>
</trkpt>
<trkpt lat="45.9384570" lon="9.5632570">
	<ele>1715.20</ele>
	<time>2023-10-07T09:01:37.000Z</time>
</trkpt>
<trkpt lat="45.9384570" lon="9.5632510">
	<ele>1715.20</ele>
	<time>2023-10-07T09:01:38.000Z</time>
</trkpt>
<trkpt lat="45.9384570" lon="9.5632480">
	<ele>1715.20</ele>
	<time>2023-10-07T09:01:39.000Z</time>
</trkpt>
<trkpt lat="45.9384550" lon="9.5632460">
	<ele>1715.20</ele>
	<time>2023-10-07T09:01:40.000Z</time>
</trkpt>
<trkpt lat="45.9384540" lon="9.5632440">
	<ele>1715.20</ele>
	<time>2023-10-07T09:01:41.000Z</time>
</trkpt>
<trkpt lat="45.9384530" lon="9.5632440">
	<ele>1715.20</ele>
	<time>2023-10-07T09:01:42.000Z</time>
</trkpt>
<trkpt lat="45.9384530" lon="9.5632430">
	<ele>1715.20</ele>
	<time>2023-10-07T09:01:43.000Z</time>
</trkpt>
<trkpt lat="45.9384530" lon="9.5632430">
	<ele>1715.20</ele>
	<time>2023-10-07T09:01:44.000Z</time>
</trkpt>
<trkpt lat="45.9384530" lon="9.5632430">
	<ele>1715.40</ele>
	<time>2023-10-07T09:01:45.000Z</time>
</trkpt>
<trkpt lat="45.9384530" lon="9.5632430">
	<ele>1715.40</ele>
	<time>2023-10-07T09:01:46.000Z</time>
</trkpt>
<trkpt lat="45.9384530" lon="9.5632430">
	<ele>1715.40</ele>
	<time>2023-10-07T09:01:47.000Z</time>
</trkpt>
<trkpt lat="45.9384530" lon="9.5632430">
	<ele>1715.40</ele>
	<time>2023-10-07T09:01:48.000Z</time>
</trkpt>
<trkpt lat="45.9384530" lon="9.5632430">
	<ele>1715.40</ele>
	<time>2023-10-07T09:01:49.000Z</time>
</trkpt>
<trkpt lat="45.9384530" lon="9.5632430">
	<ele>1715.40</ele>
	<time>2023-10-07T09:01:50.000Z</time>
</trkpt>
<trkpt lat="45.9384530" lon="9.5632430">
	<ele>1715.40</ele>
	<time>2023-10-07T09:01:51.000Z</time>
</trkpt>
<trkpt lat="45.9384540" lon="9.5632430">
	<ele>1715.40</ele>
	<time>2023-10-07T09:01:52.000Z</time>
</trkpt>
<trkpt lat="45.9384600" lon="9.5632410">
	<ele>1715.40</ele>
	<time>2023-10-07T09:01:53.000Z</time>
</trkpt>
<trkpt lat="45.9384740" lon="9.5632320">
	<ele>1715.40</ele>
	<time>2023-10-07T09:01:54.000Z</time>
</trkpt>
<trkpt lat="45.9384840" lon="9.5632240">
	<ele>1715.60</ele>
	<time>2023-10-07T09:01:55.000Z</time>
</trkpt>
<trkpt lat="45.9384910" lon="9.5632200">
	<ele>1715.60</ele>
	<time>2023-10-07T09:01:56.000Z</time>
</trkpt>
<trkpt lat="45.9384970" lon="9.5632170">
	<ele>1715.80</ele>
	<time>2023-10-07T09:01:57.000Z</time>
</trkpt>
<trkpt lat="45.9385020" lon="9.5632130">
	<ele>1715.80</ele>
	<time>2023-10-07T09:01:58.000Z</time>
</trkpt>
<trkpt lat="45.9385090" lon="9.5632160">
	<ele>1715.80</ele>
	<time>2023-10-07T09:01:59.000Z</time>
</trkpt>
<trkpt lat="45.9385180" lon="9.5632170">
	<ele>1715.80</ele>
	<time>2023-10-07T09:02:00.000Z</time>
</trkpt>
<trkpt lat="45.9385240" lon="9.5632150">
	<ele>1715.80</ele>
	<time>2023-10-07T09:02:01.000Z</time>
</trkpt>
<trkpt lat="45.9385300" lon="9.5632090">
	<ele>1715.60</ele>
	<time>2023-10-07T09:02:02.000Z</time>
</trkpt>
<trkpt lat="45.9385300" lon="9.5632090">
	<ele>1715.60</ele>
	<time>2023-10-07T09:02:03.000Z</time>
</trkpt>
<trkpt lat="45.9385300" lon="9.5632080">
	<ele>1715.40</ele>
	<time>2023-10-07T09:02:04.000Z</time>
</trkpt>
<trkpt lat="45.9385310" lon="9.5632060">
	<ele>1715.40</ele>
	<time>2023-10-07T09:02:05.000Z</time>
</trkpt>
<trkpt lat="45.9385320" lon="9.5631990">
	<ele>1715.40</ele>
	<time>2023-10-07T09:02:06.000Z</time>
</trkpt>
<trkpt lat="45.9385350" lon="9.5631910">
	<ele>1715.60</ele>
	<time>2023-10-07T09:02:07.000Z</time>
</trkpt>
<trkpt lat="45.9385360" lon="9.5631810">
	<ele>1715.80</ele>
	<time>2023-10-07T09:02:08.000Z</time>
</trkpt>
<trkpt lat="45.9385360" lon="9.5631710">
	<ele>1716.00</ele>
	<time>2023-10-07T09:02:09.000Z</time>
</trkpt>
<trkpt lat="45.9385400" lon="9.5631610">
	<ele>1716.00</ele>
	<time>2023-10-07T09:02:10.000Z</time>
</trkpt>
<trkpt lat="45.9385440" lon="9.5631530">
	<ele>1716.00</ele>
	<time>2023-10-07T09:02:11.000Z</time>
</trkpt>
<trkpt lat="45.9385430" lon="9.5631460">
	<ele>1716.20</ele>
	<time>2023-10-07T09:02:12.000Z</time>
</trkpt>
<trkpt lat="45.9385460" lon="9.5631400">
	<ele>1716.20</ele>
	<time>2023-10-07T09:02:13.000Z</time>
</trkpt>
<trkpt lat="45.9385520" lon="9.5631350">
	<ele>1716.40</ele>
	<time>2023-10-07T09:02:14.000Z</time>
</trkpt>
<trkpt lat="45.9385570" lon="9.5631280">
	<ele>1716.40</ele>
	<time>2023-10-07T09:02:15.000Z</time>
</trkpt>
<trkpt lat="45.9385620" lon="9.5631230">
	<ele>1716.60</ele>
	<time>2023-10-07T09:02:16.000Z</time>
</trkpt>
<trkpt lat="45.9385670" lon="9.5631180">
	<ele>1716.60</ele>
	<time>2023-10-07T09:02:17.000Z</time>
</trkpt>
<trkpt lat="45.9385730" lon="9.5631100">
	<ele>1716.60</ele>
	<time>2023-10-07T09:02:18.000Z</time>
</trkpt>
<trkpt lat="45.9385790" lon="9.5631020">
	<ele>1716.80</ele>
	<time>2023-10-07T09:02:19.000Z</time>
</trkpt>
<trkpt lat="45.9385830" lon="9.5630950">
	<ele>1717.00</ele>
	<time>2023-10-07T09:02:20.000Z</time>
</trkpt>
<trkpt lat="45.9385860" lon="9.5630850">
	<ele>1717.20</ele>
	<time>2023-10-07T09:02:21.000Z</time>
</trkpt>
<trkpt lat="45.9385870" lon="9.5630790">
	<ele>1717.40</ele>
	<time>2023-10-07T09:02:22.000Z</time>
</trkpt>
<trkpt lat="45.9385870" lon="9.5630760">
	<ele>1717.40</ele>
	<time>2023-10-07T09:02:23.000Z</time>
</trkpt>
<trkpt lat="45.9385900" lon="9.5630680">
	<ele>1717.60</ele>
	<time>2023-10-07T09:02:24.000Z</time>
</trkpt>
<trkpt lat="45.9385940" lon="9.5630580">
	<ele>1717.80</ele>
	<time>2023-10-07T09:02:25.000Z</time>
</trkpt>
<trkpt lat="45.9385980" lon="9.5630480">
	<ele>1718.00</ele>
	<time>2023-10-07T09:02:26.000Z</time>
</trkpt>
<trkpt lat="45.9386030" lon="9.5630410">
	<ele>1718.20</ele>
	<time>2023-10-07T09:02:27.000Z</time>
</trkpt>
<trkpt lat="45.9386120" lon="9.5630350">
	<ele>1718.40</ele>
	<time>2023-10-07T09:02:28.000Z</time>
</trkpt>
<trkpt lat="45.9386190" lon="9.5630280">
	<ele>1718.60</ele>
	<time>2023-10-07T09:02:29.000Z</time>
</trkpt>
<trkpt lat="45.9386260" lon="9.5630220">
	<ele>1718.80</ele>
	<time>2023-10-07T09:02:30.000Z</time>
</trkpt>
<trkpt lat="45.9386310" lon="9.5630150">
	<ele>1718.80</ele>
	<time>2023-10-07T09:02:31.000Z</time>
</trkpt>
<trkpt lat="45.9386330" lon="9.5630050">
	<ele>1719.00</ele>
	<time>2023-10-07T09:02:32.000Z</time>
</trkpt>
<trkpt lat="45.9386370" lon="9.5629910">
	<ele>1719.00</ele>
	<time>2023-10-07T09:02:33.000Z</time>
</trkpt>
<trkpt lat="45.9386400" lon="9.5629790">
	<ele>1719.20</ele>
	<time>2023-10-07T09:02:34.000Z</time>
</trkpt>
<trkpt lat="45.9386420" lon="9.5629690">
	<ele>1719.40</ele>
	<time>2023-10-07T09:02:35.000Z</time>
</trkpt>
<trkpt lat="45.9386430" lon="9.5629600">
	<ele>1719.40</ele>
	<time>2023-10-07T09:02:36.000Z</time>
</trkpt>
<trkpt lat="45.9386440" lon="9.5629520">
	<ele>1719.60</ele>
	<time>2023-10-07T09:02:37.000Z</time>
</trkpt>
<trkpt lat="45.9386490" lon="9.5629410">
	<ele>1719.80</ele>
	<time>2023-10-07T09:02:38.000Z</time>
</trkpt>
<trkpt lat="45.9386550" lon="9.5629310">
	<ele>1719.80</ele>
	<time>2023-10-07T09:02:39.000Z</time>
</trkpt>
<trkpt lat="45.9386590" lon="9.5629230">
	<ele>1720.00</ele>
	<time>2023-10-07T09:02:40.000Z</time>
</trkpt>
<trkpt lat="45.9386620" lon="9.5629180">
	<ele>1720.20</ele>
	<time>2023-10-07T09:02:41.000Z</time>
</trkpt>
<trkpt lat="45.9386620" lon="9.5629080">
	<ele>1720.20</ele>
	<time>2023-10-07T09:02:42.000Z</time>
</trkpt>
<trkpt lat="45.9386650" lon="9.5629000">
	<ele>1720.40</ele>
	<time>2023-10-07T09:02:43.000Z</time>
</trkpt>
<trkpt lat="45.9386670" lon="9.5628900">
	<ele>1720.60</ele>
	<time>2023-10-07T09:02:44.000Z</time>
</trkpt>
<trkpt lat="45.9386700" lon="9.5628810">
	<ele>1720.80</ele>
	<time>2023-10-07T09:02:45.000Z</time>
</trkpt>
<trkpt lat="45.9386730" lon="9.5628730">
	<ele>1721.00</ele>
	<time>2023-10-07T09:02:46.000Z</time>
</trkpt>
<trkpt lat="45.9386770" lon="9.5628660">
	<ele>1721.20</ele>
	<time>2023-10-07T09:02:47.000Z</time>
</trkpt>
<trkpt lat="45.9386820" lon="9.5628580">
	<ele>1721.60</ele>
	<time>2023-10-07T09:02:48.000Z</time>
</trkpt>
<trkpt lat="45.9386860" lon="9.5628530">
	<ele>1721.80</ele>
	<time>2023-10-07T09:02:49.000Z</time>
</trkpt>
<trkpt lat="45.9386870" lon="9.5628490">
	<ele>1722.00</ele>
	<time>2023-10-07T09:02:50.000Z</time>
</trkpt>
<trkpt lat="45.9386930" lon="9.5628430">
	<ele>1722.00</ele>
	<time>2023-10-07T09:02:51.000Z</time>
</trkpt>
<trkpt lat="45.9386990" lon="9.5628360">
	<ele>1722.20</ele>
	<time>2023-10-07T09:02:52.000Z</time>
</trkpt>
<trkpt lat="45.9387000" lon="9.5628300">
	<ele>1722.40</ele>
	<time>2023-10-07T09:02:53.000Z</time>
</trkpt>
<trkpt lat="45.9387080" lon="9.5628240">
	<ele>1722.40</ele>
	<time>2023-10-07T09:02:54.000Z</time>
</trkpt>
<trkpt lat="45.9387150" lon="9.5628150">
	<ele>1722.40</ele>
	<time>2023-10-07T09:02:55.000Z</time>
</trkpt>
<trkpt lat="45.9387210" lon="9.5628080">
	<ele>1722.60</ele>
	<time>2023-10-07T09:02:56.000Z</time>
</trkpt>
<trkpt lat="45.9387270" lon="9.5628000">
	<ele>1722.60</ele>
	<time>2023-10-07T09:02:57.000Z</time>
</trkpt>
<trkpt lat="45.9387340" lon="9.5627920">
	<ele>1722.60</ele>
	<time>2023-10-07T09:02:58.000Z</time>
</trkpt>
<trkpt lat="45.9387420" lon="9.5627850">
	<ele>1722.80</ele>
	<time>2023-10-07T09:02:59.000Z</time>
</trkpt>
<trkpt lat="45.9387520" lon="9.5627810">
	<ele>1722.80</ele>
	<time>2023-10-07T09:03:00.000Z</time>
</trkpt>
<trkpt lat="45.9387590" lon="9.5627790">
	<ele>1723.00</ele>
	<time>2023-10-07T09:03:01.000Z</time>
</trkpt>
<trkpt lat="45.9387660" lon="9.5627770">
	<ele>1723.20</ele>
	<time>2023-10-07T09:03:02.000Z</time>
</trkpt>
<trkpt lat="45.9387740" lon="9.5627730">
	<ele>1723.40</ele>
	<time>2023-10-07T09:03:03.000Z</time>
</trkpt>
<trkpt lat="45.9387820" lon="9.5627700">
	<ele>1723.60</ele>
	<time>2023-10-07T09:03:04.000Z</time>
</trkpt>
<trkpt lat="45.9387910" lon="9.5627690">
	<ele>1724.00</ele>
	<time>2023-10-07T09:03:05.000Z</time>
</trkpt>
<trkpt lat="45.9387960" lon="9.5627670">
	<ele>1724.20</ele>
	<time>2023-10-07T09:03:06.000Z</time>
</trkpt>
<trkpt lat="45.9388020" lon="9.5627660">
	<ele>1724.20</ele>
	<time>2023-10-07T09:03:07.000Z</time>
</trkpt>
<trkpt lat="45.9388070" lon="9.5627660">
	<ele>1724.40</ele>
	<time>2023-10-07T09:03:08.000Z</time>
</trkpt>
<trkpt lat="45.9388120" lon="9.5627690">
	<ele>1724.40</ele>
	<time>2023-10-07T09:03:09.000Z</time>
</trkpt>
<trkpt lat="45.9388190" lon="9.5627710">
	<ele>1724.60</ele>
	<time>2023-10-07T09:03:10.000Z</time>
</trkpt>
<trkpt lat="45.9388230" lon="9.5627730">
	<ele>1724.60</ele>
	<time>2023-10-07T09:03:11.000Z</time>
</trkpt>
<trkpt lat="45.9388290" lon="9.5627730">
	<ele>1724.60</ele>
	<time>2023-10-07T09:03:12.000Z</time>
</trkpt>
<trkpt lat="45.9388350" lon="9.5627710">
	<ele>1724.80</ele>
	<time>2023-10-07T09:03:13.000Z</time>
</trkpt>
<trkpt lat="45.9388390" lon="9.5627700">
	<ele>1725.20</ele>
	<time>2023-10-07T09:03:14.000Z</time>
</trkpt>
<trkpt lat="45.9388380" lon="9.5627640">
	<ele>1725.40</ele>
	<time>2023-10-07T09:03:15.000Z</time>
</trkpt>
<trkpt lat="45.9388380" lon="9.5627540">
	<ele>1725.60</ele>
	<time>2023-10-07T09:03:16.000Z</time>
</trkpt>
<trkpt lat="45.9388400" lon="9.5627480">
	<ele>1725.80</ele>
	<time>2023-10-07T09:03:17.000Z</time>
</trkpt>
<trkpt lat="45.9388460" lon="9.5627460">
	<ele>1726.00</ele>
	<time>2023-10-07T09:03:18.000Z</time>
</trkpt>
<trkpt lat="45.9388520" lon="9.5627450">
	<ele>1726.00</ele>
	<time>2023-10-07T09:03:19.000Z</time>
</trkpt>
<trkpt lat="45.9388590" lon="9.5627470">
	<ele>1726.20</ele>
	<time>2023-10-07T09:03:20.000Z</time>
</trkpt>
<trkpt lat="45.9388660" lon="9.5627490">
	<ele>1726.20</ele>
	<time>2023-10-07T09:03:21.000Z</time>
</trkpt>
<trkpt lat="45.9388750" lon="9.5627490">
	<ele>1726.40</ele>
	<time>2023-10-07T09:03:22.000Z</time>
</trkpt>
<trkpt lat="45.9388850" lon="9.5627480">
	<ele>1726.60</ele>
	<time>2023-10-07T09:03:23.000Z</time>
</trkpt>
<trkpt lat="45.9388950" lon="9.5627440">
	<ele>1726.80</ele>
	<time>2023-10-07T09:03:24.000Z</time>
</trkpt>
<trkpt lat="45.9389050" lon="9.5627400">
	<ele>1726.80</ele>
	<time>2023-10-07T09:03:25.000Z</time>
</trkpt>
<trkpt lat="45.9389150" lon="9.5627350">
	<ele>1727.00</ele>
	<time>2023-10-07T09:03:26.000Z</time>
</trkpt>
<trkpt lat="45.9389250" lon="9.5627330">
	<ele>1727.00</ele>
	<time>2023-10-07T09:03:27.000Z</time>
</trkpt>
<trkpt lat="45.9389340" lon="9.5627280">
	<ele>1727.20</ele>
	<time>2023-10-07T09:03:28.000Z</time>
</trkpt>
<trkpt lat="45.9389440" lon="9.5627190">
	<ele>1727.20</ele>
	<time>2023-10-07T09:03:29.000Z</time>
</trkpt>
<trkpt lat="45.9389530" lon="9.5627100">
	<ele>1727.20</ele>
	<time>2023-10-07T09:03:30.000Z</time>
</trkpt>
<trkpt lat="45.9389610" lon="9.5627010">
	<ele>1727.20</ele>
	<time>2023-10-07T09:03:31.000Z</time>
</trkpt>
<trkpt lat="45.9389710" lon="9.5626920">
	<ele>1727.40</ele>
	<time>2023-10-07T09:03:32.000Z</time>
</trkpt>
<trkpt lat="45.9389800" lon="9.5626810">
	<ele>1727.40</ele>
	<time>2023-10-07T09:03:33.000Z</time>
</trkpt>
<trkpt lat="45.9389880" lon="9.5626710">
	<ele>1727.40</ele>
	<time>2023-10-07T09:03:34.000Z</time>
</trkpt>
<trkpt lat="45.9389970" lon="9.5626620">
	<ele>1727.40</ele>
	<time>2023-10-07T09:03:35.000Z</time>
</trkpt>
<trkpt lat="45.9390060" lon="9.5626520">
	<ele>1727.60</ele>
	<time>2023-10-07T09:03:36.000Z</time>
</trkpt>
<trkpt lat="45.9390110" lon="9.5626380">
	<ele>1727.60</ele>
	<time>2023-10-07T09:03:37.000Z</time>
</trkpt>
<trkpt lat="45.9390160" lon="9.5626240">
	<ele>1727.60</ele>
	<time>2023-10-07T09:03:38.000Z</time>
</trkpt>
<trkpt lat="45.9390220" lon="9.5626120">
	<ele>1727.80</ele>
	<time>2023-10-07T09:03:39.000Z</time>
</trkpt>
<trkpt lat="45.9390270" lon="9.5626020">
	<ele>1727.80</ele>
	<time>2023-10-07T09:03:40.000Z</time>
</trkpt>
<trkpt lat="45.9390300" lon="9.5625930">
	<ele>1727.80</ele>
	<time>2023-10-07T09:03:41.000Z</time>
</trkpt>
<trkpt lat="45.9390300" lon="9.5625820">
	<ele>1727.80</ele>
	<time>2023-10-07T09:03:42.000Z</time>
</trkpt>
<trkpt lat="45.9390320" lon="9.5625700">
	<ele>1727.80</ele>
	<time>2023-10-07T09:03:43.000Z</time>
</trkpt>
<trkpt lat="45.9390370" lon="9.5625590">
	<ele>1728.00</ele>
	<time>2023-10-07T09:03:44.000Z</time>
</trkpt>
<trkpt lat="45.9390390" lon="9.5625490">
	<ele>1728.00</ele>
	<time>2023-10-07T09:03:45.000Z</time>
</trkpt>
<trkpt lat="45.9390390" lon="9.5625380">
	<ele>1728.20</ele>
	<time>2023-10-07T09:03:46.000Z</time>
</trkpt>
<trkpt lat="45.9390400" lon="9.5625310">
	<ele>1728.40</ele>
	<time>2023-10-07T09:03:47.000Z</time>
</trkpt>
<trkpt lat="45.9390400" lon="9.5625280">
	<ele>1728.60</ele>
	<time>2023-10-07T09:03:48.000Z</time>
</trkpt>
<trkpt lat="45.9390400" lon="9.5625270">
	<ele>1728.80</ele>
	<time>2023-10-07T09:03:49.000Z</time>
</trkpt>
<trkpt lat="45.9390400" lon="9.5625270">
	<ele>1728.80</ele>
	<time>2023-10-07T09:03:50.000Z</time>
</trkpt>
<trkpt lat="45.9390400" lon="9.5625270">
	<ele>1729.00</ele>
	<time>2023-10-07T09:03:51.000Z</time>
</trkpt>
<trkpt lat="45.9390410" lon="9.5625270">
	<ele>1729.00</ele>
	<time>2023-10-07T09:03:52.000Z</time>
</trkpt>
<trkpt lat="45.9390410" lon="9.5625240">
	<ele>1729.00</ele>
	<time>2023-10-07T09:03:53.000Z</time>
</trkpt>
<trkpt lat="45.9390410" lon="9.5625180">
	<ele>1728.80</ele>
	<time>2023-10-07T09:03:54.000Z</time>
</trkpt>
<trkpt lat="45.9390420" lon="9.5625070">
	<ele>1728.60</ele>
	<time>2023-10-07T09:03:55.000Z</time>
</trkpt>
<trkpt lat="45.9390410" lon="9.5624940">
	<ele>1728.60</ele>
	<time>2023-10-07T09:03:56.000Z</time>
</trkpt>
<trkpt lat="45.9390400" lon="9.5624790">
	<ele>1728.40</ele>
	<time>2023-10-07T09:03:57.000Z</time>
</trkpt>
<trkpt lat="45.9390380" lon="9.5624610">
	<ele>1728.40</ele>
	<time>2023-10-07T09:03:58.000Z</time>
</trkpt>
<trkpt lat="45.9390360" lon="9.5624440">
	<ele>1728.20</ele>
	<time>2023-10-07T09:03:59.000Z</time>
</trkpt>
<trkpt lat="45.9390340" lon="9.5624290">
	<ele>1728.20</ele>
	<time>2023-10-07T09:04:00.000Z</time>
</trkpt>
<trkpt lat="45.9390330" lon="9.5624160">
	<ele>1728.20</ele>
	<time>2023-10-07T09:04:01.000Z</time>
</trkpt>
<trkpt lat="45.9390310" lon="9.5624060">
	<ele>1728.20</ele>
	<time>2023-10-07T09:04:02.000Z</time>
</trkpt>
<trkpt lat="45.9390230" lon="9.5624000">
	<ele>1728.00</ele>
	<time>2023-10-07T09:04:03.000Z</time>
</trkpt>
<trkpt lat="45.9390180" lon="9.5623930">
	<ele>1728.00</ele>
	<time>2023-10-07T09:04:04.000Z</time>
</trkpt>
<trkpt lat="45.9390190" lon="9.5623800">
	<ele>1727.80</ele>
	<time>2023-10-07T09:04:05.000Z</time>
</trkpt>
<trkpt lat="45.9390180" lon="9.5623630">
	<ele>1727.60</ele>
	<time>2023-10-07T09:04:06.000Z</time>
</trkpt>
<trkpt lat="45.9390140" lon="9.5623450">
	<ele>1727.60</ele>
	<time>2023-10-07T09:04:07.000Z</time>
</trkpt>
<trkpt lat="45.9390080" lon="9.5623280">
	<ele>1727.60</ele>
	<time>2023-10-07T09:04:08.000Z</time>
</trkpt>
<trkpt lat="45.9390020" lon="9.5623090">
	<ele>1727.60</ele>
	<time>2023-10-07T09:04:09.000Z</time>
</trkpt>
<trkpt lat="45.9389960" lon="9.5622900">
	<ele>1727.60</ele>
	<time>2023-10-07T09:04:10.000Z</time>
</trkpt>
<trkpt lat="45.9389870" lon="9.5622660">
	<ele>1727.60</ele>
	<time>2023-10-07T09:04:11.000Z</time>
</trkpt>
<trkpt lat="45.9389820" lon="9.5622510">
	<ele>1727.60</ele>
	<time>2023-10-07T09:04:12.000Z</time>
</trkpt>
<trkpt lat="45.9389750" lon="9.5622360">
	<ele>1727.60</ele>
	<time>2023-10-07T09:04:13.000Z</time>
</trkpt>
<trkpt lat="45.9389720" lon="9.5622220">
	<ele>1727.40</ele>
	<time>2023-10-07T09:04:14.000Z</time>
</trkpt>
<trkpt lat="45.9389690" lon="9.5622080">
	<ele>1727.40</ele>
	<time>2023-10-07T09:04:15.000Z</time>
</trkpt>
<trkpt lat="45.9389640" lon="9.5621920">
	<ele>1727.20</ele>
	<time>2023-10-07T09:04:16.000Z</time>
</trkpt>
<trkpt lat="45.9389650" lon="9.5621720">
	<ele>1727.20</ele>
	<time>2023-10-07T09:04:17.000Z</time>
</trkpt>
<trkpt lat="45.9389650" lon="9.5621550">
	<ele>1727.20</ele>
	<time>2023-10-07T09:04:18.000Z</time>
</trkpt>
<trkpt lat="45.9389630" lon="9.5621320">
	<ele>1727.20</ele>
	<time>2023-10-07T09:04:19.000Z</time>
</trkpt>
<trkpt lat="45.9389580" lon="9.5621190">
	<ele>1727.20</ele>
	<time>2023-10-07T09:04:20.000Z</time>
</trkpt>
<trkpt lat="45.9389510" lon="9.5620980">
	<ele>1727.00</ele>
	<time>2023-10-07T09:04:21.000Z</time>
</trkpt>
<trkpt lat="45.9389430" lon="9.5620830">
	<ele>1726.80</ele>
	<time>2023-10-07T09:04:22.000Z</time>
</trkpt>
<trkpt lat="45.9389340" lon="9.5620650">
	<ele>1726.60</ele>
	<time>2023-10-07T09:04:23.000Z</time>
</trkpt>
<trkpt lat="45.9389230" lon="9.5620440">
	<ele>1726.40</ele>
	<time>2023-10-07T09:04:24.000Z</time>
</trkpt>
<trkpt lat="45.9389160" lon="9.5620270">
	<ele>1726.40</ele>
	<time>2023-10-07T09:04:25.000Z</time>
</trkpt>
<trkpt lat="45.9389110" lon="9.5620100">
	<ele>1726.40</ele>
	<time>2023-10-07T09:04:26.000Z</time>
</trkpt>
<trkpt lat="45.9389030" lon="9.5619910">
	<ele>1726.40</ele>
	<time>2023-10-07T09:04:27.000Z</time>
</trkpt>
<trkpt lat="45.9388960" lon="9.5619700">
	<ele>1726.60</ele>
	<time>2023-10-07T09:04:28.000Z</time>
</trkpt>
<trkpt lat="45.9388860" lon="9.5619470">
	<ele>1726.60</ele>
	<time>2023-10-07T09:04:29.000Z</time>
</trkpt>
<trkpt lat="45.9388780" lon="9.5619260">
	<ele>1726.80</ele>
	<time>2023-10-07T09:04:30.000Z</time>
</trkpt>
<trkpt lat="45.9388740" lon="9.5619150">
	<ele>1726.80</ele>
	<time>2023-10-07T09:04:31.000Z</time>
</trkpt>
<trkpt lat="45.9388720" lon="9.5618980">
	<ele>1726.80</ele>
	<time>2023-10-07T09:04:32.000Z</time>
</trkpt>
<trkpt lat="45.9388700" lon="9.5618830">
	<ele>1726.80</ele>
	<time>2023-10-07T09:04:33.000Z</time>
</trkpt>
<trkpt lat="45.9388670" lon="9.5618710">
	<ele>1727.00</ele>
	<time>2023-10-07T09:04:34.000Z</time>
</trkpt>
<trkpt lat="45.9388640" lon="9.5618520">
	<ele>1727.00</ele>
	<time>2023-10-07T09:04:35.000Z</time>
</trkpt>
<trkpt lat="45.9388600" lon="9.5618310">
	<ele>1727.00</ele>
	<time>2023-10-07T09:04:36.000Z</time>
</trkpt>
<trkpt lat="45.9388560" lon="9.5618120">
	<ele>1727.00</ele>
	<time>2023-10-07T09:04:37.000Z</time>
</trkpt>
<trkpt lat="45.9388500" lon="9.5617940">
	<ele>1727.20</ele>
	<time>2023-10-07T09:04:38.000Z</time>
</trkpt>
<trkpt lat="45.9388440" lon="9.5617810">
	<ele>1727.20</ele>
	<time>2023-10-07T09:04:39.000Z</time>
</trkpt>
<trkpt lat="45.9388380" lon="9.5617690">
	<ele>1727.40</ele>
	<time>2023-10-07T09:04:40.000Z</time>
</trkpt>
<trkpt lat="45.9388330" lon="9.5617530">
	<ele>1727.40</ele>
	<time>2023-10-07T09:04:41.000Z</time>
</trkpt>
<trkpt lat="45.9388300" lon="9.5617390">
	<ele>1727.60</ele>
	<time>2023-10-07T09:04:42.000Z</time>
</trkpt>
<trkpt lat="45.9388330" lon="9.5617280">
	<ele>1727.60</ele>
	<time>2023-10-07T09:04:43.000Z</time>
</trkpt>
<trkpt lat="45.9388350" lon="9.5617100">
	<ele>1727.80</ele>
	<time>2023-10-07T09:04:44.000Z</time>
</trkpt>
<trkpt lat="45.9388390" lon="9.5616980">
	<ele>1727.80</ele>
	<time>2023-10-07T09:04:45.000Z</time>
</trkpt>
<trkpt lat="45.9388430" lon="9.5616850">
	<ele>1728.00</ele>
	<time>2023-10-07T09:04:46.000Z</time>
</trkpt>
<trkpt lat="45.9388460" lon="9.5616740">
	<ele>1728.20</ele>
	<time>2023-10-07T09:04:47.000Z</time>
</trkpt>
<trkpt lat="45.9388490" lon="9.5616620">
	<ele>1728.60</ele>
	<time>2023-10-07T09:04:48.000Z</time>
</trkpt>
<trkpt lat="45.9388480" lon="9.5616480">
	<ele>1728.60</ele>
	<time>2023-10-07T09:04:49.000Z</time>
</trkpt>
<trkpt lat="45.9388480" lon="9.5616320">
	<ele>1728.80</ele>
	<time>2023-10-07T09:04:50.000Z</time>
</trkpt>
<trkpt lat="45.9388480" lon="9.5616180">
	<ele>1728.80</ele>
	<time>2023-10-07T09:04:51.000Z</time>
</trkpt>
<trkpt lat="45.9388470" lon="9.5616050">
	<ele>1729.00</ele>
	<time>2023-10-07T09:04:52.000Z</time>
</trkpt>
<trkpt lat="45.9388470" lon="9.5615890">
	<ele>1729.00</ele>
	<time>2023-10-07T09:04:53.000Z</time>
</trkpt>
<trkpt lat="45.9388450" lon="9.5615740">
	<ele>1729.00</ele>
	<time>2023-10-07T09:04:54.000Z</time>
</trkpt>
<trkpt lat="45.9388450" lon="9.5615570">
	<ele>1729.00</ele>
	<time>2023-10-07T09:04:55.000Z</time>
</trkpt>
<trkpt lat="45.9388450" lon="9.5615400">
	<ele>1729.00</ele>
	<time>2023-10-07T09:04:56.000Z</time>
</trkpt>
<trkpt lat="45.9388420" lon="9.5615290">
	<ele>1729.00</ele>
	<time>2023-10-07T09:04:57.000Z</time>
</trkpt>
<trkpt lat="45.9388400" lon="9.5615150">
	<ele>1728.80</ele>
	<time>2023-10-07T09:04:58.000Z</time>
</trkpt>
<trkpt lat="45.9388400" lon="9.5614970">
	<ele>1728.80</ele>
	<time>2023-10-07T09:04:59.000Z</time>
</trkpt>
<trkpt lat="45.9388410" lon="9.5614760">
	<ele>1728.80</ele>
	<time>2023-10-07T09:05:00.000Z</time>
</trkpt>
<trkpt lat="45.9388420" lon="9.5614610">
	<ele>1728.80</ele>
	<time>2023-10-07T09:05:01.000Z</time>
</trkpt>
<trkpt lat="45.9388470" lon="9.5614420">
	<ele>1728.80</ele>
	<time>2023-10-07T09:05:02.000Z</time>
</trkpt>
<trkpt lat="45.9388470" lon="9.5614210">
	<ele>1728.80</ele>
	<time>2023-10-07T09:05:03.000Z</time>
</trkpt>
<trkpt lat="45.9388440" lon="9.5614060">
	<ele>1728.80</ele>
	<time>2023-10-07T09:05:04.000Z</time>
</trkpt>
<trkpt lat="45.9388440" lon="9.5613920">
	<ele>1728.80</ele>
	<time>2023-10-07T09:05:05.000Z</time>
</trkpt>
<trkpt lat="45.9388470" lon="9.5613810">
	<ele>1728.80</ele>
	<time>2023-10-07T09:05:06.000Z</time>
</trkpt>
<trkpt lat="45.9388490" lon="9.5613620">
	<ele>1728.80</ele>
	<time>2023-10-07T09:05:07.000Z</time>
</trkpt>
<trkpt lat="45.9388500" lon="9.5613520">
	<ele>1729.00</ele>
	<time>2023-10-07T09:05:08.000Z</time>
</trkpt>
<trkpt lat="45.9388510" lon="9.5613400">
	<ele>1729.00</ele>
	<time>2023-10-07T09:05:09.000Z</time>
</trkpt>
<trkpt lat="45.9388530" lon="9.5613250">
	<ele>1729.00</ele>
	<time>2023-10-07T09:05:10.000Z</time>
</trkpt>
<trkpt lat="45.9388550" lon="9.5613100">
	<ele>1729.20</ele>
	<time>2023-10-07T09:05:11.000Z</time>
</trkpt>
<trkpt lat="45.9388590" lon="9.5612940">
	<ele>1729.20</ele>
	<time>2023-10-07T09:05:12.000Z</time>
</trkpt>
<trkpt lat="45.9388640" lon="9.5612800">
	<ele>1729.40</ele>
	<time>2023-10-07T09:05:13.000Z</time>
</trkpt>
<trkpt lat="45.9388660" lon="9.5612690">
	<ele>1729.60</ele>
	<time>2023-10-07T09:05:14.000Z</time>
</trkpt>
<trkpt lat="45.9388730" lon="9.5612530">
	<ele>1729.60</ele>
	<time>2023-10-07T09:05:15.000Z</time>
</trkpt>
<trkpt lat="45.9388740" lon="9.5612360">
	<ele>1729.80</ele>
	<time>2023-10-07T09:05:16.000Z</time>
</trkpt>
<trkpt lat="45.9388730" lon="9.5612180">
	<ele>1729.80</ele>
	<time>2023-10-07T09:05:17.000Z</time>
</trkpt>
<trkpt lat="45.9388730" lon="9.5612050">
	<ele>1730.00</ele>
	<time>2023-10-07T09:05:18.000Z</time>
</trkpt>
<trkpt lat="45.9388750" lon="9.5611890">
	<ele>1730.00</ele>
	<time>2023-10-07T09:05:19.000Z</time>
</trkpt>
<trkpt lat="45.9388750" lon="9.5611740">
	<ele>1730.20</ele>
	<time>2023-10-07T09:05:20.000Z</time>
</trkpt>
<trkpt lat="45.9388760" lon="9.5611550">
	<ele>1730.20</ele>
	<time>2023-10-07T09:05:21.000Z</time>
</trkpt>
<trkpt lat="45.9388770" lon="9.5611380">
	<ele>1730.40</ele>
	<time>2023-10-07T09:05:22.000Z</time>
</trkpt>
<trkpt lat="45.9388780" lon="9.5611230">
	<ele>1730.80</ele>
	<time>2023-10-07T09:05:23.000Z</time>
</trkpt>
<trkpt lat="45.9388800" lon="9.5611040">
	<ele>1731.20</ele>
	<time>2023-10-07T09:05:24.000Z</time>
</trkpt>
<trkpt lat="45.9388820" lon="9.5610890">
	<ele>1731.40</ele>
	<time>2023-10-07T09:05:25.000Z</time>
</trkpt>
<trkpt lat="45.9388830" lon="9.5610730">
	<ele>1731.60</ele>
	<time>2023-10-07T09:05:26.000Z</time>
</trkpt>
<trkpt lat="45.9388830" lon="9.5610600">
	<ele>1731.80</ele>
	<time>2023-10-07T09:05:27.000Z</time>
</trkpt>
<trkpt lat="45.9388840" lon="9.5610470">
	<ele>1732.00</ele>
	<time>2023-10-07T09:05:28.000Z</time>
</trkpt>
<trkpt lat="45.9388830" lon="9.5610330">
	<ele>1732.20</ele>
	<time>2023-10-07T09:05:29.000Z</time>
</trkpt>
<trkpt lat="45.9388830" lon="9.5610170">
	<ele>1732.40</ele>
	<time>2023-10-07T09:05:30.000Z</time>
</trkpt>
<trkpt lat="45.9388860" lon="9.5610030">
	<ele>1732.40</ele>
	<time>2023-10-07T09:05:31.000Z</time>
</trkpt>
<trkpt lat="45.9388860" lon="9.5609880">
	<ele>1732.40</ele>
	<time>2023-10-07T09:05:32.000Z</time>
</trkpt>
<trkpt lat="45.9388880" lon="9.5609750">
	<ele>1732.40</ele>
	<time>2023-10-07T09:05:33.000Z</time>
</trkpt>
<trkpt lat="45.9388880" lon="9.5609580">
	<ele>1732.40</ele>
	<time>2023-10-07T09:05:34.000Z</time>
</trkpt>
<trkpt lat="45.9388890" lon="9.5609410">
	<ele>1732.40</ele>
	<time>2023-10-07T09:05:35.000Z</time>
</trkpt>
<trkpt lat="45.9388920" lon="9.5609210">
	<ele>1732.20</ele>
	<time>2023-10-07T09:05:36.000Z</time>
</trkpt>
<trkpt lat="45.9388960" lon="9.5609000">
	<ele>1732.20</ele>
	<time>2023-10-07T09:05:37.000Z</time>
</trkpt>
<trkpt lat="45.9388990" lon="9.5608780">
	<ele>1732.00</ele>
	<time>2023-10-07T09:05:38.000Z</time>
</trkpt>
<trkpt lat="45.9388980" lon="9.5608620">
	<ele>1732.00</ele>
	<time>2023-10-07T09:05:39.000Z</time>
</trkpt>
<trkpt lat="45.9388940" lon="9.5608450">
	<ele>1732.00</ele>
	<time>2023-10-07T09:05:40.000Z</time>
</trkpt>
<trkpt lat="45.9388910" lon="9.5608340">
	<ele>1732.00</ele>
	<time>2023-10-07T09:05:41.000Z</time>
</trkpt>
<trkpt lat="45.9388870" lon="9.5608230">
	<ele>1732.20</ele>
	<time>2023-10-07T09:05:42.000Z</time>
</trkpt>
<trkpt lat="45.9388850" lon="9.5608100">
	<ele>1732.20</ele>
	<time>2023-10-07T09:05:43.000Z</time>
</trkpt>
<trkpt lat="45.9388810" lon="9.5607980">
	<ele>1732.20</ele>
	<time>2023-10-07T09:05:44.000Z</time>
</trkpt>
<trkpt lat="45.9388740" lon="9.5607770">
	<ele>1732.20</ele>
	<time>2023-10-07T09:05:45.000Z</time>
</trkpt>
<trkpt lat="45.9388730" lon="9.5607640">
	<ele>1732.20</ele>
	<time>2023-10-07T09:05:46.000Z</time>
</trkpt>
<trkpt lat="45.9388720" lon="9.5607440">
	<ele>1732.40</ele>
	<time>2023-10-07T09:05:47.000Z</time>
</trkpt>
<trkpt lat="45.9388700" lon="9.5607270">
	<ele>1732.40</ele>
	<time>2023-10-07T09:05:48.000Z</time>
</trkpt>
<trkpt lat="45.9388670" lon="9.5607050">
	<ele>1732.40</ele>
	<time>2023-10-07T09:05:49.000Z</time>
</trkpt>
<trkpt lat="45.9388640" lon="9.5606840">
	<ele>1732.60</ele>
	<time>2023-10-07T09:05:50.000Z</time>
</trkpt>
<trkpt lat="45.9388620" lon="9.5606640">
	<ele>1732.60</ele>
	<time>2023-10-07T09:05:51.000Z</time>
</trkpt>
<trkpt lat="45.9388640" lon="9.5606420">
	<ele>1732.60</ele>
	<time>2023-10-07T09:05:52.000Z</time>
</trkpt>
<trkpt lat="45.9388640" lon="9.5606230">
	<ele>1732.80</ele>
	<time>2023-10-07T09:05:53.000Z</time>
</trkpt>
<trkpt lat="45.9388610" lon="9.5606080">
	<ele>1732.80</ele>
	<time>2023-10-07T09:05:54.000Z</time>
</trkpt>
<trkpt lat="45.9388540" lon="9.5605930">
	<ele>1732.80</ele>
	<time>2023-10-07T09:05:55.000Z</time>
</trkpt>
<trkpt lat="45.9388530" lon="9.5605800">
	<ele>1733.00</ele>
	<time>2023-10-07T09:05:56.000Z</time>
</trkpt>
<trkpt lat="45.9388530" lon="9.5605640">
	<ele>1733.00</ele>
	<time>2023-10-07T09:05:57.000Z</time>
</trkpt>
<trkpt lat="45.9388530" lon="9.5605480">
	<ele>1733.00</ele>
	<time>2023-10-07T09:05:58.000Z</time>
</trkpt>
<trkpt lat="45.9388540" lon="9.5605340">
	<ele>1733.00</ele>
	<time>2023-10-07T09:05:59.000Z</time>
</trkpt>
<trkpt lat="45.9388530" lon="9.5605100">
	<ele>1733.00</ele>
	<time>2023-10-07T09:06:00.000Z</time>
</trkpt>
<trkpt lat="45.9388500" lon="9.5604920">
	<ele>1733.00</ele>
	<time>2023-10-07T09:06:01.000Z</time>
</trkpt>
<trkpt lat="45.9388480" lon="9.5604760">
	<ele>1733.00</ele>
	<time>2023-10-07T09:06:02.000Z</time>
</trkpt>
<trkpt lat="45.9388490" lon="9.5604660">
	<ele>1732.80</ele>
	<time>2023-10-07T09:06:03.000Z</time>
</trkpt>
<trkpt lat="45.9388470" lon="9.5604520">
	<ele>1732.80</ele>
	<time>2023-10-07T09:06:04.000Z</time>
</trkpt>
<trkpt lat="45.9388440" lon="9.5604420">
	<ele>1732.80</ele>
	<time>2023-10-07T09:06:05.000Z</time>
</trkpt>
<trkpt lat="45.9388350" lon="9.5604260">
	<ele>1732.80</ele>
	<time>2023-10-07T09:06:06.000Z</time>
</trkpt>
<trkpt lat="45.9388260" lon="9.5604150">
	<ele>1732.80</ele>
	<time>2023-10-07T09:06:07.000Z</time>
</trkpt>
<trkpt lat="45.9388140" lon="9.5603970">
	<ele>1732.80</ele>
	<time>2023-10-07T09:06:08.000Z</time>
</trkpt>
<trkpt lat="45.9388060" lon="9.5603810">
	<ele>1732.80</ele>
	<time>2023-10-07T09:06:09.000Z</time>
</trkpt>
<trkpt lat="45.9388020" lon="9.5603670">
	<ele>1732.80</ele>
	<time>2023-10-07T09:06:10.000Z</time>
</trkpt>
<trkpt lat="45.9387950" lon="9.5603480">
	<ele>1732.80</ele>
	<time>2023-10-07T09:06:11.000Z</time>
</trkpt>
<trkpt lat="45.9387880" lon="9.5603340">
	<ele>1732.80</ele>
	<time>2023-10-07T09:06:12.000Z</time>
</trkpt>
<trkpt lat="45.9387850" lon="9.5603220">
	<ele>1733.00</ele>
	<time>2023-10-07T09:06:13.000Z</time>
</trkpt>
<trkpt lat="45.9387830" lon="9.5603090">
	<ele>1733.00</ele>
	<time>2023-10-07T09:06:14.000Z</time>
</trkpt>
<trkpt lat="45.9387820" lon="9.5602970">
	<ele>1733.00</ele>
	<time>2023-10-07T09:06:15.000Z</time>
</trkpt>
<trkpt lat="45.9387770" lon="9.5602810">
	<ele>1733.20</ele>
	<time>2023-10-07T09:06:16.000Z</time>
</trkpt>
<trkpt lat="45.9387750" lon="9.5602690">
	<ele>1733.20</ele>
	<time>2023-10-07T09:06:17.000Z</time>
</trkpt>
<trkpt lat="45.9387710" lon="9.5602560">
	<ele>1733.20</ele>
	<time>2023-10-07T09:06:18.000Z</time>
</trkpt>
<trkpt lat="45.9387690" lon="9.5602420">
	<ele>1733.40</ele>
	<time>2023-10-07T09:06:19.000Z</time>
</trkpt>
<trkpt lat="45.9387670" lon="9.5602330">
	<ele>1733.80</ele>
	<time>2023-10-07T09:06:20.000Z</time>
</trkpt>
<trkpt lat="45.9387640" lon="9.5602280">
	<ele>1733.80</ele>
	<time>2023-10-07T09:06:21.000Z</time>
</trkpt>
<trkpt lat="45.9387620" lon="9.5602190">
	<ele>1734.00</ele>
	<time>2023-10-07T09:06:22.000Z</time>
</trkpt>
<trkpt lat="45.9387600" lon="9.5602140">
	<ele>1734.00</ele>
	<time>2023-10-07T09:06:23.000Z</time>
</trkpt>
<trkpt lat="45.9387570" lon="9.5602030">
	<ele>1734.20</ele>
	<time>2023-10-07T09:06:24.000Z</time>
</trkpt>
<trkpt lat="45.9387550" lon="9.5601890">
	<ele>1734.40</ele>
	<time>2023-10-07T09:06:25.000Z</time>
</trkpt>
<trkpt lat="45.9387510" lon="9.5601750">
	<ele>1734.60</ele>
	<time>2023-10-07T09:06:26.000Z</time>
</trkpt>
<trkpt lat="45.9387470" lon="9.5601640">
	<ele>1734.60</ele>
	<time>2023-10-07T09:06:27.000Z</time>
</trkpt>
<trkpt lat="45.9387430" lon="9.5601530">
	<ele>1734.80</ele>
	<time>2023-10-07T09:06:28.000Z</time>
</trkpt>
<trkpt lat="45.9387410" lon="9.5601450">
	<ele>1734.80</ele>
	<time>2023-10-07T09:06:29.000Z</time>
</trkpt>
<trkpt lat="45.9387340" lon="9.5601360">
	<ele>1734.80</ele>
	<time>2023-10-07T09:06:30.000Z</time>
</trkpt>
<trkpt lat="45.9387290" lon="9.5601250">
	<ele>1734.60</ele>
	<time>2023-10-07T09:06:31.000Z</time>
</trkpt>
<trkpt lat="45.9387260" lon="9.5601120">
	<ele>1734.40</ele>
	<time>2023-10-07T09:06:32.000Z</time>
</trkpt>
<trkpt lat="45.9387250" lon="9.5600980">
	<ele>1734.20</ele>
	<time>2023-10-07T09:06:33.000Z</time>
</trkpt>
<trkpt lat="45.9387250" lon="9.5600850">
	<ele>1734.00</ele>
	<time>2023-10-07T09:06:34.000Z</time>
</trkpt>
<trkpt lat="45.9387240" lon="9.5600740">
	<ele>1733.80</ele>
	<time>2023-10-07T09:06:35.000Z</time>
</trkpt>
<trkpt lat="45.9387190" lon="9.5600640">
	<ele>1733.60</ele>
	<time>2023-10-07T09:06:36.000Z</time>
</trkpt>
<trkpt lat="45.9387140" lon="9.5600540">
	<ele>1733.40</ele>
	<time>2023-10-07T09:06:37.000Z</time>
</trkpt>
<trkpt lat="45.9387100" lon="9.5600410">
	<ele>1733.20</ele>
	<time>2023-10-07T09:06:38.000Z</time>
</trkpt>
<trkpt lat="45.9387060" lon="9.5600260">
	<ele>1733.00</ele>
	<time>2023-10-07T09:06:39.000Z</time>
</trkpt>
<trkpt lat="45.9387000" lon="9.5600120">
	<ele>1732.80</ele>
	<time>2023-10-07T09:06:40.000Z</time>
</trkpt>
<trkpt lat="45.9387000" lon="9.5599970">
	<ele>1732.60</ele>
	<time>2023-10-07T09:06:41.000Z</time>
</trkpt>
<trkpt lat="45.9387020" lon="9.5599820">
	<ele>1732.20</ele>
	<time>2023-10-07T09:06:42.000Z</time>
</trkpt>
<trkpt lat="45.9387060" lon="9.5599720">
	<ele>1732.20</ele>
	<time>2023-10-07T09:06:43.000Z</time>
</trkpt>
<trkpt lat="45.9387120" lon="9.5599630">
	<ele>1731.80</ele>
	<time>2023-10-07T09:06:44.000Z</time>
</trkpt>
<trkpt lat="45.9387190" lon="9.5599530">
	<ele>1731.80</ele>
	<time>2023-10-07T09:06:45.000Z</time>
</trkpt>
<trkpt lat="45.9387240" lon="9.5599410">
	<ele>1731.60</ele>
	<time>2023-10-07T09:06:46.000Z</time>
</trkpt>
<trkpt lat="45.9387270" lon="9.5599260">
	<ele>1731.40</ele>
	<time>2023-10-07T09:06:47.000Z</time>
</trkpt>
<trkpt lat="45.9387310" lon="9.5599070">
	<ele>1731.00</ele>
	<time>2023-10-07T09:06:48.000Z</time>
</trkpt>
<trkpt lat="45.9387400" lon="9.5598900">
	<ele>1730.60</ele>
	<time>2023-10-07T09:06:49.000Z</time>
</trkpt>
<trkpt lat="45.9387510" lon="9.5598750">
	<ele>1730.40</ele>
	<time>2023-10-07T09:06:50.000Z</time>
</trkpt>
<trkpt lat="45.9387610" lon="9.5598670">
	<ele>1730.20</ele>
	<time>2023-10-07T09:06:51.000Z</time>
</trkpt>
<trkpt lat="45.9387680" lon="9.5598550">
	<ele>1730.00</ele>
	<time>2023-10-07T09:06:52.000Z</time>
</trkpt>
<trkpt lat="45.9387770" lon="9.5598470">
	<ele>1729.60</ele>
	<time>2023-10-07T09:06:53.000Z</time>
</trkpt>
<trkpt lat="45.9387860" lon="9.5598340">
	<ele>1729.60</ele>
	<time>2023-10-07T09:06:54.000Z</time>
</trkpt>
<trkpt lat="45.9387900" lon="9.5598190">
	<ele>1729.40</ele>
	<time>2023-10-07T09:06:55.000Z</time>
</trkpt>
<trkpt lat="45.9387950" lon="9.5598080">
	<ele>1729.20</ele>
	<time>2023-10-07T09:06:56.000Z</time>
</trkpt>
<trkpt lat="45.9387980" lon="9.5597970">
	<ele>1729.00</ele>
	<time>2023-10-07T09:06:57.000Z</time>
</trkpt>
<trkpt lat="45.9388020" lon="9.5597860">
	<ele>1728.60</ele>
	<time>2023-10-07T09:06:58.000Z</time>
</trkpt>
<trkpt lat="45.9388040" lon="9.5597770">
	<ele>1728.20</ele>
	<time>2023-10-07T09:06:59.000Z</time>
</trkpt>
<trkpt lat="45.9388080" lon="9.5597690">
	<ele>1728.00</ele>
	<time>2023-10-07T09:07:00.000Z</time>
</trkpt>
<trkpt lat="45.9388100" lon="9.5597600">
	<ele>1727.60</ele>
	<time>2023-10-07T09:07:01.000Z</time>
</trkpt>
<trkpt lat="45.9388120" lon="9.5597510">
	<ele>1727.40</ele>
	<time>2023-10-07T09:07:02.000Z</time>
</trkpt>
<trkpt lat="45.9388140" lon="9.5597420">
	<ele>1727.20</ele>
	<time>2023-10-07T09:07:03.000Z</time>
</trkpt>
<trkpt lat="45.9388180" lon="9.5597260">
	<ele>1727.20</ele>
	<time>2023-10-07T09:07:04.000Z</time>
</trkpt>
<trkpt lat="45.9388210" lon="9.5597090">
	<ele>1726.80</ele>
	<time>2023-10-07T09:07:05.000Z</time>
</trkpt>
<trkpt lat="45.9388200" lon="9.5596970">
	<ele>1726.80</ele>
	<time>2023-10-07T09:07:06.000Z</time>
</trkpt>
<trkpt lat="45.9388180" lon="9.5596830">
	<ele>1726.60</ele>
	<time>2023-10-07T09:07:07.000Z</time>
</trkpt>
<trkpt lat="45.9388160" lon="9.5596670">
	<ele>1726.20</ele>
	<time>2023-10-07T09:07:08.000Z</time>
</trkpt>
<trkpt lat="45.9388110" lon="9.5596490">
	<ele>1725.80</ele>
	<time>2023-10-07T09:07:09.000Z</time>
</trkpt>
<trkpt lat="45.9388050" lon="9.5596280">
	<ele>1725.60</ele>
	<time>2023-10-07T09:07:10.000Z</time>
</trkpt>
<trkpt lat="45.9388040" lon="9.5596080">
	<ele>1725.60</ele>
	<time>2023-10-07T09:07:11.000Z</time>
</trkpt>
<trkpt lat="45.9388020" lon="9.5595870">
	<ele>1725.40</ele>
	<time>2023-10-07T09:07:12.000Z</time>
</trkpt>
<trkpt lat="45.9387990" lon="9.5595680">
	<ele>1725.40</ele>
	<time>2023-10-07T09:07:13.000Z</time>
</trkpt>
<trkpt lat="45.9387990" lon="9.5595490">
	<ele>1725.20</ele>
	<time>2023-10-07T09:07:14.000Z</time>
</trkpt>
<trkpt lat="45.9388000" lon="9.5595320">
	<ele>1725.00</ele>
	<time>2023-10-07T09:07:15.000Z</time>
</trkpt>
<trkpt lat="45.9388000" lon="9.5595180">
	<ele>1724.80</ele>
	<time>2023-10-07T09:07:16.000Z</time>
</trkpt>
<trkpt lat="45.9387970" lon="9.5595040">
	<ele>1724.60</ele>
	<time>2023-10-07T09:07:17.000Z</time>
</trkpt>
<trkpt lat="45.9387950" lon="9.5594890">
	<ele>1724.60</ele>
	<time>2023-10-07T09:07:18.000Z</time>
</trkpt>
<trkpt lat="45.9387980" lon="9.5594720">
	<ele>1724.20</ele>
	<time>2023-10-07T09:07:19.000Z</time>
</trkpt>
<trkpt lat="45.9388000" lon="9.5594540">
	<ele>1724.20</ele>
	<time>2023-10-07T09:07:20.000Z</time>
</trkpt>
<trkpt lat="45.9388020" lon="9.5594320">
	<ele>1724.00</ele>
	<time>2023-10-07T09:07:21.000Z</time>
</trkpt>
<trkpt lat="45.9388030" lon="9.5594140">
	<ele>1723.80</ele>
	<time>2023-10-07T09:07:22.000Z</time>
</trkpt>
<trkpt lat="45.9388000" lon="9.5593950">
	<ele>1723.60</ele>
	<time>2023-10-07T09:07:23.000Z</time>
</trkpt>
<trkpt lat="45.9387980" lon="9.5593740">
	<ele>1723.20</ele>
	<time>2023-10-07T09:07:24.000Z</time>
</trkpt>
<trkpt lat="45.9387990" lon="9.5593530">
	<ele>1723.00</ele>
	<time>2023-10-07T09:07:25.000Z</time>
</trkpt>
<trkpt lat="45.9388000" lon="9.5593340">
	<ele>1722.80</ele>
	<time>2023-10-07T09:07:26.000Z</time>
</trkpt>
<trkpt lat="45.9387970" lon="9.5593160">
	<ele>1722.60</ele>
	<time>2023-10-07T09:07:27.000Z</time>
</trkpt>
<trkpt lat="45.9387950" lon="9.5592980">
	<ele>1722.60</ele>
	<time>2023-10-07T09:07:28.000Z</time>
</trkpt>
<trkpt lat="45.9387970" lon="9.5592810">
	<ele>1722.40</ele>
	<time>2023-10-07T09:07:29.000Z</time>
</trkpt>
<trkpt lat="45.9387970" lon="9.5592660">
	<ele>1722.40</ele>
	<time>2023-10-07T09:07:30.000Z</time>
</trkpt>
<trkpt lat="45.9387980" lon="9.5592500">
	<ele>1722.20</ele>
	<time>2023-10-07T09:07:31.000Z</time>
</trkpt>
<trkpt lat="45.9387970" lon="9.5592330">
	<ele>1722.20</ele>
	<time>2023-10-07T09:07:32.000Z</time>
</trkpt>
<trkpt lat="45.9387980" lon="9.5592130">
	<ele>1722.00</ele>
	<time>2023-10-07T09:07:33.000Z</time>
</trkpt>
<trkpt lat="45.9387970" lon="9.5591930">
	<ele>1722.00</ele>
	<time>2023-10-07T09:07:34.000Z</time>
</trkpt>
<trkpt lat="45.9387990" lon="9.5591770">
	<ele>1722.00</ele>
	<time>2023-10-07T09:07:35.000Z</time>
</trkpt>
<trkpt lat="45.9388030" lon="9.5591630">
	<ele>1721.60</ele>
	<time>2023-10-07T09:07:36.000Z</time>
</trkpt>
<trkpt lat="45.9388020" lon="9.5591470">
	<ele>1721.60</ele>
	<time>2023-10-07T09:07:37.000Z</time>
</trkpt>
<trkpt lat="45.9388020" lon="9.5591310">
	<ele>1721.40</ele>
	<time>2023-10-07T09:07:38.000Z</time>
</trkpt>
<trkpt lat="45.9388020" lon="9.5591140">
	<ele>1721.40</ele>
	<time>2023-10-07T09:07:39.000Z</time>
</trkpt>
<trkpt lat="45.9388000" lon="9.5590990">
	<ele>1721.00</ele>
	<time>2023-10-07T09:07:40.000Z</time>
</trkpt>
<trkpt lat="45.9388020" lon="9.5590810">
	<ele>1720.80</ele>
	<time>2023-10-07T09:07:41.000Z</time>
</trkpt>
<trkpt lat="45.9388030" lon="9.5590660">
	<ele>1720.80</ele>
	<time>2023-10-07T09:07:42.000Z</time>
</trkpt>
<trkpt lat="45.9388030" lon="9.5590460">
	<ele>1720.80</ele>
	<time>2023-10-07T09:07:43.000Z</time>
</trkpt>
<trkpt lat="45.9388030" lon="9.5590280">
	<ele>1720.80</ele>
	<time>2023-10-07T09:07:44.000Z</time>
</trkpt>
<trkpt lat="45.9388030" lon="9.5590110">
	<ele>1720.80</ele>
	<time>2023-10-07T09:07:45.000Z</time>
</trkpt>
<trkpt lat="45.9388050" lon="9.5589930">
	<ele>1720.80</ele>
	<time>2023-10-07T09:07:46.000Z</time>
</trkpt>
<trkpt lat="45.9388090" lon="9.5589740">
	<ele>1720.80</ele>
	<time>2023-10-07T09:07:47.000Z</time>
</trkpt>
<trkpt lat="45.9388090" lon="9.5589550">
	<ele>1720.80</ele>
	<time>2023-10-07T09:07:48.000Z</time>
</trkpt>
<trkpt lat="45.9388110" lon="9.5589380">
	<ele>1721.00</ele>
	<time>2023-10-07T09:07:49.000Z</time>
</trkpt>
<trkpt lat="45.9388120" lon="9.5589220">
	<ele>1721.00</ele>
	<time>2023-10-07T09:07:50.000Z</time>
</trkpt>
<trkpt lat="45.9388160" lon="9.5589090">
	<ele>1720.80</ele>
	<time>2023-10-07T09:07:51.000Z</time>
</trkpt>
<trkpt lat="45.9388180" lon="9.5588940">
	<ele>1720.80</ele>
	<time>2023-10-07T09:07:52.000Z</time>
</trkpt>
<trkpt lat="45.9388180" lon="9.5588760">
	<ele>1720.60</ele>
	<time>2023-10-07T09:07:53.000Z</time>
</trkpt>
<trkpt lat="45.9388190" lon="9.5588590">
	<ele>1720.40</ele>
	<time>2023-10-07T09:07:54.000Z</time>
</trkpt>
<trkpt lat="45.9388230" lon="9.5588410">
	<ele>1720.40</ele>
	<time>2023-10-07T09:07:55.000Z</time>
</trkpt>
<trkpt lat="45.9388250" lon="9.5588230">
	<ele>1720.40</ele>
	<time>2023-10-07T09:07:56.000Z</time>
</trkpt>
<trkpt lat="45.9388250" lon="9.5588060">
	<ele>1720.20</ele>
	<time>2023-10-07T09:07:57.000Z</time>
</trkpt>
<trkpt lat="45.9388240" lon="9.5587890">
	<ele>1720.20</ele>
	<time>2023-10-07T09:07:58.000Z</time>
</trkpt>
<trkpt lat="45.9388220" lon="9.5587720">
	<ele>1720.20</ele>
	<time>2023-10-07T09:07:59.000Z</time>
</trkpt>
<trkpt lat="45.9388210" lon="9.5587590">
	<ele>1720.20</ele>
	<time>2023-10-07T09:08:00.000Z</time>
</trkpt>
<trkpt lat="45.9388220" lon="9.5587500">
	<ele>1720.20</ele>
	<time>2023-10-07T09:08:01.000Z</time>
</trkpt>
<trkpt lat="45.9388230" lon="9.5587460">
	<ele>1720.20</ele>
	<time>2023-10-07T09:08:02.000Z</time>
</trkpt>
<trkpt lat="45.9388230" lon="9.5587450">
	<ele>1720.20</ele>
	<time>2023-10-07T09:08:03.000Z</time>
</trkpt>
<trkpt lat="45.9388230" lon="9.5587440">
	<ele>1720.40</ele>
	<time>2023-10-07T09:08:04.000Z</time>
</trkpt>
<trkpt lat="45.9388240" lon="9.5587450">
	<ele>1720.60</ele>
	<time>2023-10-07T09:08:05.000Z</time>
</trkpt>
<trkpt lat="45.9388240" lon="9.5587470">
	<ele>1720.60</ele>
	<time>2023-10-07T09:08:06.000Z</time>
</trkpt>
<trkpt lat="45.9388230" lon="9.5587450">
	<ele>1720.80</ele>
	<time>2023-10-07T09:08:07.000Z</time>
</trkpt>
<trkpt lat="45.9388230" lon="9.5587450">
	<ele>1720.80</ele>
	<time>2023-10-07T09:08:08.000Z</time>
</trkpt>
<trkpt lat="45.9388230" lon="9.5587450">
	<ele>1720.80</ele>
	<time>2023-10-07T09:08:09.000Z</time>
</trkpt>
<trkpt lat="45.9388230" lon="9.5587460">
	<ele>1720.80</ele>
	<time>2023-10-07T09:08:10.000Z</time>
</trkpt>
<trkpt lat="45.9388230" lon="9.5587460">
	<ele>1720.80</ele>
	<time>2023-10-07T09:08:11.000Z</time>
</trkpt>
<trkpt lat="45.9388230" lon="9.5587450">
	<ele>1720.80</ele>
	<time>2023-10-07T09:08:12.000Z</time>
</trkpt>
<trkpt lat="45.9388230" lon="9.5587450">
	<ele>1720.80</ele>
	<time>2023-10-07T09:08:13.000Z</time>
</trkpt>
<trkpt lat="45.9388230" lon="9.5587450">
	<ele>1720.80</ele>
	<time>2023-10-07T09:08:14.000Z</time>
</trkpt>
<trkpt lat="45.9388230" lon="9.5587450">
	<ele>1720.80</ele>
	<time>2023-10-07T09:08:15.000Z</time>
</trkpt>
<trkpt lat="45.9388230" lon="9.5587450">
	<ele>1720.80</ele>
	<time>2023-10-07T09:08:16.000Z</time>
</trkpt>
<trkpt lat="45.9388230" lon="9.5587450">
	<ele>1720.80</ele>
	<time>2023-10-07T09:08:17.000Z</time>
</trkpt>
<trkpt lat="45.9388230" lon="9.5587450">
	<ele>1720.80</ele>
	<time>2023-10-07T09:08:18.000Z</time>
</trkpt>
<trkpt lat="45.9388230" lon="9.5587450">
	<ele>1720.80</ele>
	<time>2023-10-07T09:08:19.000Z</time>
</trkpt>
<trkpt lat="45.9388230" lon="9.5587450">
	<ele>1720.80</ele>
	<time>2023-10-07T09:08:20.000Z</time>
</trkpt>
<trkpt lat="45.9388230" lon="9.5587450">
	<ele>1720.80</ele>
	<time>2023-10-07T09:08:21.000Z</time>
</trkpt>
<trkpt lat="45.9388230" lon="9.5587450">
	<ele>1720.80</ele>
	<time>2023-10-07T09:08:22.000Z</time>
</trkpt>
<trkpt lat="45.9388230" lon="9.5587450">
	<ele>1720.80</ele>
	<time>2023-10-07T09:08:23.000Z</time>
</trkpt>
<trkpt lat="45.9388230" lon="9.5587450">
	<ele>1720.80</ele>
	<time>2023-10-07T09:08:24.000Z</time>
</trkpt>
<trkpt lat="45.9388230" lon="9.5587450">
	<ele>1720.80</ele>
	<time>2023-10-07T09:08:25.000Z</time>
</trkpt>
<trkpt lat="45.9388250" lon="9.5587400">
	<ele>1720.80</ele>
	<time>2023-10-07T09:08:26.000Z</time>
</trkpt>
<trkpt lat="45.9388340" lon="9.5587220">
	<ele>1720.80</ele>
	<time>2023-10-07T09:08:27.000Z</time>
</trkpt>
<trkpt lat="45.9388410" lon="9.5587020">
	<ele>1720.80</ele>
	<time>2023-10-07T09:08:28.000Z</time>
</trkpt>
<trkpt lat="45.9388520" lon="9.5586810">
	<ele>1720.80</ele>
	<time>2023-10-07T09:08:29.000Z</time>
</trkpt>
<trkpt lat="45.9388600" lon="9.5586560">
	<ele>1720.80</ele>
	<time>2023-10-07T09:08:30.000Z</time>
</trkpt>
<trkpt lat="45.9388680" lon="9.5586320">
	<ele>1720.80</ele>
	<time>2023-10-07T09:08:31.000Z</time>
</trkpt>
<trkpt lat="45.9388740" lon="9.5586090">
	<ele>1720.80</ele>
	<time>2023-10-07T09:08:32.000Z</time>
</trkpt>
<trkpt lat="45.9388830" lon="9.5585860">
	<ele>1720.80</ele>
	<time>2023-10-07T09:08:33.000Z</time>
</trkpt>
<trkpt lat="45.9388930" lon="9.5585690">
	<ele>1720.80</ele>
	<time>2023-10-07T09:08:34.000Z</time>
</trkpt>
<trkpt lat="45.9389010" lon="9.5585490">
	<ele>1720.80</ele>
	<time>2023-10-07T09:08:35.000Z</time>
</trkpt>
<trkpt lat="45.9389030" lon="9.5585370">
	<ele>1720.80</ele>
	<time>2023-10-07T09:08:36.000Z</time>
</trkpt>
<trkpt lat="45.9389070" lon="9.5585220">
	<ele>1720.60</ele>
	<time>2023-10-07T09:08:37.000Z</time>
</trkpt>
<trkpt lat="45.9389090" lon="9.5585050">
	<ele>1720.40</ele>
	<time>2023-10-07T09:08:38.000Z</time>
</trkpt>
<trkpt lat="45.9389120" lon="9.5584910">
	<ele>1720.20</ele>
	<time>2023-10-07T09:08:39.000Z</time>
</trkpt>
<trkpt lat="45.9389140" lon="9.5584750">
	<ele>1720.20</ele>
	<time>2023-10-07T09:08:40.000Z</time>
</trkpt>
<trkpt lat="45.9389170" lon="9.5584570">
	<ele>1720.00</ele>
	<time>2023-10-07T09:08:41.000Z</time>
</trkpt>
<trkpt lat="45.9389230" lon="9.5584360">
	<ele>1720.00</ele>
	<time>2023-10-07T09:08:42.000Z</time>
</trkpt>
<trkpt lat="45.9389290" lon="9.5584170">
	<ele>1719.80</ele>
	<time>2023-10-07T09:08:43.000Z</time>
</trkpt>
<trkpt lat="45.9389330" lon="9.5584030">
	<ele>1719.60</ele>
	<time>2023-10-07T09:08:44.000Z</time>
</trkpt>
<trkpt lat="45.9389380" lon="9.5583890">
	<ele>1719.60</ele>
	<time>2023-10-07T09:08:45.000Z</time>
</trkpt>
<trkpt lat="45.9389430" lon="9.5583750">
	<ele>1719.40</ele>
	<time>2023-10-07T09:08:46.000Z</time>
</trkpt>
<trkpt lat="45.9389500" lon="9.5583610">
	<ele>1719.40</ele>
	<time>2023-10-07T09:08:47.000Z</time>
</trkpt>
<trkpt lat="45.9389540" lon="9.5583460">
	<ele>1719.40</ele>
	<time>2023-10-07T09:08:48.000Z</time>
</trkpt>
<trkpt lat="45.9389580" lon="9.5583310">
	<ele>1719.40</ele>
	<time>2023-10-07T09:08:49.000Z</time>
</trkpt>
<trkpt lat="45.9389600" lon="9.5583170">
	<ele>1719.20</ele>
	<time>2023-10-07T09:08:50.000Z</time>
</trkpt>
<trkpt lat="45.9389640" lon="9.5583000">
	<ele>1719.00</ele>
	<time>2023-10-07T09:08:51.000Z</time>
</trkpt>
<trkpt lat="45.9389700" lon="9.5582850">
	<ele>1719.00</ele>
	<time>2023-10-07T09:08:52.000Z</time>
</trkpt>
<trkpt lat="45.9389750" lon="9.5582720">
	<ele>1718.80</ele>
	<time>2023-10-07T09:08:53.000Z</time>
</trkpt>
<trkpt lat="45.9389800" lon="9.5582570">
	<ele>1718.80</ele>
	<time>2023-10-07T09:08:54.000Z</time>
</trkpt>
<trkpt lat="45.9389870" lon="9.5582410">
	<ele>1718.60</ele>
	<time>2023-10-07T09:08:55.000Z</time>
</trkpt>
<trkpt lat="45.9389960" lon="9.5582220">
	<ele>1718.40</ele>
	<time>2023-10-07T09:08:56.000Z</time>
</trkpt>
<trkpt lat="45.9390050" lon="9.5582040">
	<ele>1718.40</ele>
	<time>2023-10-07T09:08:57.000Z</time>
</trkpt>
<trkpt lat="45.9390150" lon="9.5581880">
	<ele>1718.40</ele>
	<time>2023-10-07T09:08:58.000Z</time>
</trkpt>
<trkpt lat="45.9390250" lon="9.5581730">
	<ele>1718.40</ele>
	<time>2023-10-07T09:08:59.000Z</time>
</trkpt>
<trkpt lat="45.9390310" lon="9.5581580">
	<ele>1718.20</ele>
	<time>2023-10-07T09:09:00.000Z</time>
</trkpt>
<trkpt lat="45.9390350" lon="9.5581400">
	<ele>1718.20</ele>
	<time>2023-10-07T09:09:01.000Z</time>
</trkpt>
<trkpt lat="45.9390410" lon="9.5581210">
	<ele>1718.20</ele>
	<time>2023-10-07T09:09:02.000Z</time>
</trkpt>
<trkpt lat="45.9390480" lon="9.5581060">
	<ele>1718.20</ele>
	<time>2023-10-07T09:09:03.000Z</time>
</trkpt>
<trkpt lat="45.9390540" lon="9.5580940">
	<ele>1718.20</ele>
	<time>2023-10-07T09:09:04.000Z</time>
</trkpt>
<trkpt lat="45.9390570" lon="9.5580840">
	<ele>1718.20</ele>
	<time>2023-10-07T09:09:05.000Z</time>
</trkpt>
<trkpt lat="45.9390570" lon="9.5580720">
	<ele>1718.20</ele>
	<time>2023-10-07T09:09:06.000Z</time>
</trkpt>
<trkpt lat="45.9390600" lon="9.5580570">
	<ele>1718.00</ele>
	<time>2023-10-07T09:09:07.000Z</time>
</trkpt>
<trkpt lat="45.9390640" lon="9.5580400">
	<ele>1718.00</ele>
	<time>2023-10-07T09:09:08.000Z</time>
</trkpt>
<trkpt lat="45.9390700" lon="9.5580210">
	<ele>1718.00</ele>
	<time>2023-10-07T09:09:09.000Z</time>
</trkpt>
<trkpt lat="45.9390780" lon="9.5580000">
	<ele>1718.00</ele>
	<time>2023-10-07T09:09:10.000Z</time>
</trkpt>
<trkpt lat="45.9390880" lon="9.5579830">
	<ele>1718.00</ele>
	<time>2023-10-07T09:09:11.000Z</time>
</trkpt>
<trkpt lat="45.9390960" lon="9.5579640">
	<ele>1718.00</ele>
	<time>2023-10-07T09:09:12.000Z</time>
</trkpt>
<trkpt lat="45.9391030" lon="9.5579490">
	<ele>1718.00</ele>
	<time>2023-10-07T09:09:13.000Z</time>
</trkpt>
<trkpt lat="45.9391110" lon="9.5579350">
	<ele>1718.00</ele>
	<time>2023-10-07T09:09:14.000Z</time>
</trkpt>
<trkpt lat="45.9391190" lon="9.5579210">
	<ele>1718.00</ele>
	<time>2023-10-07T09:09:15.000Z</time>
</trkpt>
<trkpt lat="45.9391270" lon="9.5579080">
	<ele>1717.80</ele>
	<time>2023-10-07T09:09:16.000Z</time>
</trkpt>
<trkpt lat="45.9391330" lon="9.5578960">
	<ele>1717.80</ele>
	<time>2023-10-07T09:09:17.000Z</time>
</trkpt>
<trkpt lat="45.9391420" lon="9.5578820">
	<ele>1717.80</ele>
	<time>2023-10-07T09:09:18.000Z</time>
</trkpt>
<trkpt lat="45.9391500" lon="9.5578690">
	<ele>1717.60</ele>
	<time>2023-10-07T09:09:19.000Z</time>
</trkpt>
<trkpt lat="45.9391560" lon="9.5578530">
	<ele>1717.60</ele>
	<time>2023-10-07T09:09:20.000Z</time>
</trkpt>
<trkpt lat="45.9391630" lon="9.5578380">
	<ele>1717.40</ele>
	<time>2023-10-07T09:09:21.000Z</time>
</trkpt>
<trkpt lat="45.9391710" lon="9.5578200">
	<ele>1717.40</ele>
	<time>2023-10-07T09:09:22.000Z</time>
</trkpt>
<trkpt lat="45.9391780" lon="9.5578030">
	<ele>1717.20</ele>
	<time>2023-10-07T09:09:23.000Z</time>
</trkpt>
<trkpt lat="45.9391860" lon="9.5577860">
	<ele>1717.20</ele>
	<time>2023-10-07T09:09:24.000Z</time>
</trkpt>
<trkpt lat="45.9391950" lon="9.5577680">
	<ele>1717.00</ele>
	<time>2023-10-07T09:09:25.000Z</time>
</trkpt>
<trkpt lat="45.9392030" lon="9.5577480">
	<ele>1716.80</ele>
	<time>2023-10-07T09:09:26.000Z</time>
</trkpt>
<trkpt lat="45.9392070" lon="9.5577250">
	<ele>1716.80</ele>
	<time>2023-10-07T09:09:27.000Z</time>
</trkpt>
<trkpt lat="45.9392100" lon="9.5577020">
	<ele>1716.80</ele>
	<time>2023-10-07T09:09:28.000Z</time>
</trkpt>
<trkpt lat="45.9392160" lon="9.5576800">
	<ele>1716.80</ele>
	<time>2023-10-07T09:09:29.000Z</time>
</trkpt>
<trkpt lat="45.9392210" lon="9.5576630">
	<ele>1716.80</ele>
	<time>2023-10-07T09:09:30.000Z</time>
</trkpt>
<trkpt lat="45.9392260" lon="9.5576490">
	<ele>1717.00</ele>
	<time>2023-10-07T09:09:31.000Z</time>
</trkpt>
<trkpt lat="45.9392330" lon="9.5576360">
	<ele>1717.00</ele>
	<time>2023-10-07T09:09:32.000Z</time>
</trkpt>
<trkpt lat="45.9392380" lon="9.5576240">
	<ele>1717.20</ele>
	<time>2023-10-07T09:09:33.000Z</time>
</trkpt>
<trkpt lat="45.9392400" lon="9.5576040">
	<ele>1717.20</ele>
	<time>2023-10-07T09:09:34.000Z</time>
</trkpt>
<trkpt lat="45.9392400" lon="9.5575870">
	<ele>1717.20</ele>
	<time>2023-10-07T09:09:35.000Z</time>
</trkpt>
<trkpt lat="45.9392390" lon="9.5575700">
	<ele>1717.20</ele>
	<time>2023-10-07T09:09:36.000Z</time>
</trkpt>
<trkpt lat="45.9392340" lon="9.5575500">
	<ele>1717.20</ele>
	<time>2023-10-07T09:09:37.000Z</time>
</trkpt>
<trkpt lat="45.9392350" lon="9.5575310">
	<ele>1717.00</ele>
	<time>2023-10-07T09:09:38.000Z</time>
</trkpt>
<trkpt lat="45.9392330" lon="9.5575120">
	<ele>1716.80</ele>
	<time>2023-10-07T09:09:39.000Z</time>
</trkpt>
<trkpt lat="45.9392370" lon="9.5574950">
	<ele>1716.80</ele>
	<time>2023-10-07T09:09:40.000Z</time>
</trkpt>
<trkpt lat="45.9392420" lon="9.5574780">
	<ele>1716.80</ele>
	<time>2023-10-07T09:09:41.000Z</time>
</trkpt>
<trkpt lat="45.9392460" lon="9.5574580">
	<ele>1716.80</ele>
	<time>2023-10-07T09:09:42.000Z</time>
</trkpt>
<trkpt lat="45.9392510" lon="9.5574350">
	<ele>1716.80</ele>
	<time>2023-10-07T09:09:43.000Z</time>
</trkpt>
<trkpt lat="45.9392540" lon="9.5574170">
	<ele>1716.80</ele>
	<time>2023-10-07T09:09:44.000Z</time>
</trkpt>
<trkpt lat="45.9392560" lon="9.5573980">
	<ele>1716.80</ele>
	<time>2023-10-07T09:09:45.000Z</time>
</trkpt>
<trkpt lat="45.9392580" lon="9.5573790">
	<ele>1716.80</ele>
	<time>2023-10-07T09:09:46.000Z</time>
</trkpt>
<trkpt lat="45.9392590" lon="9.5573580">
	<ele>1716.80</ele>
	<time>2023-10-07T09:09:47.000Z</time>
</trkpt>
<trkpt lat="45.9392600" lon="9.5573360">
	<ele>1716.80</ele>
	<time>2023-10-07T09:09:48.000Z</time>
</trkpt>
<trkpt lat="45.9392600" lon="9.5573150">
	<ele>1716.80</ele>
	<time>2023-10-07T09:09:49.000Z</time>
</trkpt>
<trkpt lat="45.9392610" lon="9.5572950">
	<ele>1716.80</ele>
	<time>2023-10-07T09:09:50.000Z</time>
</trkpt>
<trkpt lat="45.9392660" lon="9.5572770">
	<ele>1716.80</ele>
	<time>2023-10-07T09:09:51.000Z</time>
</trkpt>
<trkpt lat="45.9392710" lon="9.5572590">
	<ele>1717.00</ele>
	<time>2023-10-07T09:09:52.000Z</time>
</trkpt>
<trkpt lat="45.9392750" lon="9.5572400">
	<ele>1717.20</ele>
	<time>2023-10-07T09:09:53.000Z</time>
</trkpt>
<trkpt lat="45.9392780" lon="9.5572210">
	<ele>1717.20</ele>
	<time>2023-10-07T09:09:54.000Z</time>
</trkpt>
<trkpt lat="45.9392790" lon="9.5572030">
	<ele>1717.20</ele>
	<time>2023-10-07T09:09:55.000Z</time>
</trkpt>
<trkpt lat="45.9392800" lon="9.5571870">
	<ele>1717.20</ele>
	<time>2023-10-07T09:09:56.000Z</time>
</trkpt>
<trkpt lat="45.9392810" lon="9.5571690">
	<ele>1717.20</ele>
	<time>2023-10-07T09:09:57.000Z</time>
</trkpt>
<trkpt lat="45.9392840" lon="9.5571510">
	<ele>1717.20</ele>
	<time>2023-10-07T09:09:58.000Z</time>
</trkpt>
<trkpt lat="45.9392860" lon="9.5571320">
	<ele>1717.20</ele>
	<time>2023-10-07T09:09:59.000Z</time>
</trkpt>
<trkpt lat="45.9392880" lon="9.5571150">
	<ele>1717.20</ele>
	<time>2023-10-07T09:10:00.000Z</time>
</trkpt>
<trkpt lat="45.9392940" lon="9.5570960">
	<ele>1717.20</ele>
	<time>2023-10-07T09:10:01.000Z</time>
</trkpt>
<trkpt lat="45.9392990" lon="9.5570750">
	<ele>1717.20</ele>
	<time>2023-10-07T09:10:02.000Z</time>
</trkpt>
<trkpt lat="45.9393060" lon="9.5570550">
	<ele>1717.00</ele>
	<time>2023-10-07T09:10:03.000Z</time>
</trkpt>
<trkpt lat="45.9393100" lon="9.5570360">
	<ele>1717.00</ele>
	<time>2023-10-07T09:10:04.000Z</time>
</trkpt>
<trkpt lat="45.9393130" lon="9.5570170">
	<ele>1717.00</ele>
	<time>2023-10-07T09:10:05.000Z</time>
</trkpt>
<trkpt lat="45.9393160" lon="9.5569970">
	<ele>1717.00</ele>
	<time>2023-10-07T09:10:06.000Z</time>
</trkpt>
<trkpt lat="45.9393170" lon="9.5569780">
	<ele>1717.00</ele>
	<time>2023-10-07T09:10:07.000Z</time>
</trkpt>
<trkpt lat="45.9393170" lon="9.5569580">
	<ele>1717.00</ele>
	<time>2023-10-07T09:10:08.000Z</time>
</trkpt>
<trkpt lat="45.9393200" lon="9.5569380">
	<ele>1717.00</ele>
	<time>2023-10-07T09:10:09.000Z</time>
</trkpt>
<trkpt lat="45.9393200" lon="9.5569200">
	<ele>1717.00</ele>
	<time>2023-10-07T09:10:10.000Z</time>
</trkpt>
<trkpt lat="45.9393200" lon="9.5569020">
	<ele>1717.00</ele>
	<time>2023-10-07T09:10:11.000Z</time>
</trkpt>
<trkpt lat="45.9393200" lon="9.5568830">
	<ele>1717.00</ele>
	<time>2023-10-07T09:10:12.000Z</time>
</trkpt>
<trkpt lat="45.9393230" lon="9.5568640">
	<ele>1717.00</ele>
	<time>2023-10-07T09:10:13.000Z</time>
</trkpt>
<trkpt lat="45.9393210" lon="9.5568450">
	<ele>1717.00</ele>
	<time>2023-10-07T09:10:14.000Z</time>
</trkpt>
<trkpt lat="45.9393230" lon="9.5568290">
	<ele>1717.00</ele>
	<time>2023-10-07T09:10:15.000Z</time>
</trkpt>
<trkpt lat="45.9393270" lon="9.5568130">
	<ele>1716.80</ele>
	<time>2023-10-07T09:10:16.000Z</time>
</trkpt>
<trkpt lat="45.9393330" lon="9.5567930">
	<ele>1716.80</ele>
	<time>2023-10-07T09:10:17.000Z</time>
</trkpt>
<trkpt lat="45.9393370" lon="9.5567740">
	<ele>1716.80</ele>
	<time>2023-10-07T09:10:18.000Z</time>
</trkpt>
<trkpt lat="45.9393410" lon="9.5567560">
	<ele>1716.60</ele>
	<time>2023-10-07T09:10:19.000Z</time>
</trkpt>
<trkpt lat="45.9393430" lon="9.5567350">
	<ele>1716.60</ele>
	<time>2023-10-07T09:10:20.000Z</time>
</trkpt>
<trkpt lat="45.9393470" lon="9.5567170">
	<ele>1716.60</ele>
	<time>2023-10-07T09:10:21.000Z</time>
</trkpt>
<trkpt lat="45.9393510" lon="9.5566970">
	<ele>1716.60</ele>
	<time>2023-10-07T09:10:22.000Z</time>
</trkpt>
<trkpt lat="45.9393550" lon="9.5566740">
	<ele>1716.60</ele>
	<time>2023-10-07T09:10:23.000Z</time>
</trkpt>
<trkpt lat="45.9393590" lon="9.5566540">
	<ele>1716.60</ele>
	<time>2023-10-07T09:10:24.000Z</time>
</trkpt>
<trkpt lat="45.9393620" lon="9.5566350">
	<ele>1716.60</ele>
	<time>2023-10-07T09:10:25.000Z</time>
</trkpt>
<trkpt lat="45.9393630" lon="9.5566170">
	<ele>1716.60</ele>
	<time>2023-10-07T09:10:26.000Z</time>
</trkpt>
<trkpt lat="45.9393650" lon="9.5565990">
	<ele>1716.60</ele>
	<time>2023-10-07T09:10:27.000Z</time>
</trkpt>
<trkpt lat="45.9393680" lon="9.5565820">
	<ele>1716.80</ele>
	<time>2023-10-07T09:10:28.000Z</time>
</trkpt>
<trkpt lat="45.9393700" lon="9.5565660">
	<ele>1716.80</ele>
	<time>2023-10-07T09:10:29.000Z</time>
</trkpt>
<trkpt lat="45.9393730" lon="9.5565470">
	<ele>1716.80</ele>
	<time>2023-10-07T09:10:30.000Z</time>
</trkpt>
<trkpt lat="45.9393760" lon="9.5565310">
	<ele>1716.80</ele>
	<time>2023-10-07T09:10:31.000Z</time>
</trkpt>
<trkpt lat="45.9393800" lon="9.5565150">
	<ele>1716.80</ele>
	<time>2023-10-07T09:10:32.000Z</time>
</trkpt>
<trkpt lat="45.9393840" lon="9.5564980">
	<ele>1716.80</ele>
	<time>2023-10-07T09:10:33.000Z</time>
</trkpt>
<trkpt lat="45.9393890" lon="9.5564820">
	<ele>1716.60</ele>
	<time>2023-10-07T09:10:34.000Z</time>
</trkpt>
<trkpt lat="45.9393960" lon="9.5564670">
	<ele>1716.60</ele>
	<time>2023-10-07T09:10:35.000Z</time>
</trkpt>
<trkpt lat="45.9394060" lon="9.5564560">
	<ele>1716.40</ele>
	<time>2023-10-07T09:10:36.000Z</time>
</trkpt>
<trkpt lat="45.9394130" lon="9.5564450">
	<ele>1716.40</ele>
	<time>2023-10-07T09:10:37.000Z</time>
</trkpt>
<trkpt lat="45.9394180" lon="9.5564340">
	<ele>1716.40</ele>
	<time>2023-10-07T09:10:38.000Z</time>
</trkpt>
<trkpt lat="45.9394210" lon="9.5564210">
	<ele>1716.60</ele>
	<time>2023-10-07T09:10:39.000Z</time>
</trkpt>
<trkpt lat="45.9394230" lon="9.5564080">
	<ele>1716.60</ele>
	<time>2023-10-07T09:10:40.000Z</time>
</trkpt>
<trkpt lat="45.9394260" lon="9.5563920">
	<ele>1716.80</ele>
	<time>2023-10-07T09:10:41.000Z</time>
</trkpt>
<trkpt lat="45.9394310" lon="9.5563760">
	<ele>1716.80</ele>
	<time>2023-10-07T09:10:42.000Z</time>
</trkpt>
<trkpt lat="45.9394340" lon="9.5563600">
	<ele>1716.80</ele>
	<time>2023-10-07T09:10:43.000Z</time>
</trkpt>
<trkpt lat="45.9394400" lon="9.5563430">
	<ele>1716.80</ele>
	<time>2023-10-07T09:10:44.000Z</time>
</trkpt>
<trkpt lat="45.9394440" lon="9.5563240">
	<ele>1716.80</ele>
	<time>2023-10-07T09:10:45.000Z</time>
</trkpt>
<trkpt lat="45.9394500" lon="9.5563050">
	<ele>1716.60</ele>
	<time>2023-10-07T09:10:46.000Z</time>
</trkpt>
<trkpt lat="45.9394540" lon="9.5562870">
	<ele>1716.60</ele>
	<time>2023-10-07T09:10:47.000Z</time>
</trkpt>
<trkpt lat="45.9394560" lon="9.5562720">
	<ele>1716.60</ele>
	<time>2023-10-07T09:10:48.000Z</time>
</trkpt>
<trkpt lat="45.9394580" lon="9.5562570">
	<ele>1716.60</ele>
	<time>2023-10-07T09:10:49.000Z</time>
</trkpt>
<trkpt lat="45.9394600" lon="9.5562400">
	<ele>1716.60</ele>
	<time>2023-10-07T09:10:50.000Z</time>
</trkpt>
<trkpt lat="45.9394620" lon="9.5562240">
	<ele>1716.60</ele>
	<time>2023-10-07T09:10:51.000Z</time>
</trkpt>
<trkpt lat="45.9394660" lon="9.5562070">
	<ele>1716.60</ele>
	<time>2023-10-07T09:10:52.000Z</time>
</trkpt>
<trkpt lat="45.9394710" lon="9.5561930">
	<ele>1716.60</ele>
	<time>2023-10-07T09:10:53.000Z</time>
</trkpt>
<trkpt lat="45.9394770" lon="9.5561800">
	<ele>1716.60</ele>
	<time>2023-10-07T09:10:54.000Z</time>
</trkpt>
<trkpt lat="45.9394850" lon="9.5561660">
	<ele>1716.80</ele>
	<time>2023-10-07T09:10:55.000Z</time>
</trkpt>
<trkpt lat="45.9394950" lon="9.5561480">
	<ele>1716.80</ele>
	<time>2023-10-07T09:10:56.000Z</time>
</trkpt>
<trkpt lat="45.9395000" lon="9.5561350">
	<ele>1716.80</ele>
	<time>2023-10-07T09:10:57.000Z</time>
</trkpt>
<trkpt lat="45.9395030" lon="9.5561190">
	<ele>1716.80</ele>
	<time>2023-10-07T09:10:58.000Z</time>
</trkpt>
<trkpt lat="45.9395070" lon="9.5561030">
	<ele>1716.80</ele>
	<time>2023-10-07T09:10:59.000Z</time>
</trkpt>
<trkpt lat="45.9395120" lon="9.5560890">
	<ele>1716.80</ele>
	<time>2023-10-07T09:11:00.000Z</time>
</trkpt>
<trkpt lat="45.9395170" lon="9.5560750">
	<ele>1716.80</ele>
	<time>2023-10-07T09:11:01.000Z</time>
</trkpt>
<trkpt lat="45.9395200" lon="9.5560590">
	<ele>1716.80</ele>
	<time>2023-10-07T09:11:02.000Z</time>
</trkpt>
<trkpt lat="45.9395240" lon="9.5560400">
	<ele>1716.60</ele>
	<time>2023-10-07T09:11:03.000Z</time>
</trkpt>
<trkpt lat="45.9395270" lon="9.5560200">
	<ele>1716.60</ele>
	<time>2023-10-07T09:11:04.000Z</time>
</trkpt>
<trkpt lat="45.9395320" lon="9.5560000">
	<ele>1716.60</ele>
	<time>2023-10-07T09:11:05.000Z</time>
</trkpt>
<trkpt lat="45.9395350" lon="9.5559790">
	<ele>1716.60</ele>
	<time>2023-10-07T09:11:06.000Z</time>
</trkpt>
<trkpt lat="45.9395370" lon="9.5559580">
	<ele>1716.60</ele>
	<time>2023-10-07T09:11:07.000Z</time>
</trkpt>
<trkpt lat="45.9395380" lon="9.5559360">
	<ele>1716.40</ele>
	<time>2023-10-07T09:11:08.000Z</time>
</trkpt>
<trkpt lat="45.9395400" lon="9.5559160">
	<ele>1716.40</ele>
	<time>2023-10-07T09:11:09.000Z</time>
</trkpt>
<trkpt lat="45.9395420" lon="9.5558980">
	<ele>1716.40</ele>
	<time>2023-10-07T09:11:10.000Z</time>
</trkpt>
<trkpt lat="45.9395440" lon="9.5558800">
	<ele>1716.40</ele>
	<time>2023-10-07T09:11:11.000Z</time>
</trkpt>
<trkpt lat="45.9395450" lon="9.5558640">
	<ele>1716.40</ele>
	<time>2023-10-07T09:11:12.000Z</time>
</trkpt>
<trkpt lat="45.9395470" lon="9.5558460">
	<ele>1716.40</ele>
	<time>2023-10-07T09:11:13.000Z</time>
</trkpt>
<trkpt lat="45.9395490" lon="9.5558280">
	<ele>1716.40</ele>
	<time>2023-10-07T09:11:14.000Z</time>
</trkpt>
<trkpt lat="45.9395510" lon="9.5558110">
	<ele>1716.40</ele>
	<time>2023-10-07T09:11:15.000Z</time>
</trkpt>
<trkpt lat="45.9395520" lon="9.5557920">
	<ele>1716.40</ele>
	<time>2023-10-07T09:11:16.000Z</time>
</trkpt>
<trkpt lat="45.9395550" lon="9.5557760">
	<ele>1716.40</ele>
	<time>2023-10-07T09:11:17.000Z</time>
</trkpt>
<trkpt lat="45.9395540" lon="9.5557570">
	<ele>1716.40</ele>
	<time>2023-10-07T09:11:18.000Z</time>
</trkpt>
<trkpt lat="45.9395580" lon="9.5557390">
	<ele>1716.20</ele>
	<time>2023-10-07T09:11:19.000Z</time>
</trkpt>
<trkpt lat="45.9395620" lon="9.5557210">
	<ele>1716.20</ele>
	<time>2023-10-07T09:11:20.000Z</time>
</trkpt>
<trkpt lat="45.9395680" lon="9.5557010">
	<ele>1716.00</ele>
	<time>2023-10-07T09:11:21.000Z</time>
</trkpt>
<trkpt lat="45.9395700" lon="9.5556820">
	<ele>1716.00</ele>
	<time>2023-10-07T09:11:22.000Z</time>
</trkpt>
<trkpt lat="45.9395710" lon="9.5556640">
	<ele>1716.00</ele>
	<time>2023-10-07T09:11:23.000Z</time>
</trkpt>
<trkpt lat="45.9395710" lon="9.5556450">
	<ele>1716.00</ele>
	<time>2023-10-07T09:11:24.000Z</time>
</trkpt>
<trkpt lat="45.9395700" lon="9.5556250">
	<ele>1715.80</ele>
	<time>2023-10-07T09:11:25.000Z</time>
</trkpt>
<trkpt lat="45.9395680" lon="9.5556060">
	<ele>1715.80</ele>
	<time>2023-10-07T09:11:26.000Z</time>
</trkpt>
<trkpt lat="45.9395680" lon="9.5555890">
	<ele>1715.80</ele>
	<time>2023-10-07T09:11:27.000Z</time>
</trkpt>
<trkpt lat="45.9395680" lon="9.5555730">
	<ele>1715.80</ele>
	<time>2023-10-07T09:11:28.000Z</time>
</trkpt>
<trkpt lat="45.9395690" lon="9.5555560">
	<ele>1715.60</ele>
	<time>2023-10-07T09:11:29.000Z</time>
</trkpt>
<trkpt lat="45.9395700" lon="9.5555400">
	<ele>1715.60</ele>
	<time>2023-10-07T09:11:30.000Z</time>
</trkpt>
<trkpt lat="45.9395710" lon="9.5555260">
	<ele>1715.40</ele>
	<time>2023-10-07T09:11:31.000Z</time>
</trkpt>
<trkpt lat="45.9395730" lon="9.5555100">
	<ele>1715.20</ele>
	<time>2023-10-07T09:11:32.000Z</time>
</trkpt>
<trkpt lat="45.9395780" lon="9.5554920">
	<ele>1715.20</ele>
	<time>2023-10-07T09:11:33.000Z</time>
</trkpt>
<trkpt lat="45.9395830" lon="9.5554740">
	<ele>1715.20</ele>
	<time>2023-10-07T09:11:34.000Z</time>
</trkpt>
<trkpt lat="45.9395870" lon="9.5554550">
	<ele>1715.00</ele>
	<time>2023-10-07T09:11:35.000Z</time>
</trkpt>
<trkpt lat="45.9395930" lon="9.5554360">
	<ele>1714.80</ele>
	<time>2023-10-07T09:11:36.000Z</time>
</trkpt>
<trkpt lat="45.9396010" lon="9.5554190">
	<ele>1714.80</ele>
	<time>2023-10-07T09:11:37.000Z</time>
</trkpt>
<trkpt lat="45.9396080" lon="9.5554040">
	<ele>1714.60</ele>
	<time>2023-10-07T09:11:38.000Z</time>
</trkpt>
<trkpt lat="45.9396160" lon="9.5553890">
	<ele>1714.60</ele>
	<time>2023-10-07T09:11:39.000Z</time>
</trkpt>
<trkpt lat="45.9396240" lon="9.5553720">
	<ele>1714.60</ele>
	<time>2023-10-07T09:11:40.000Z</time>
</trkpt>
<trkpt lat="45.9396310" lon="9.5553550">
	<ele>1714.60</ele>
	<time>2023-10-07T09:11:41.000Z</time>
</trkpt>
<trkpt lat="45.9396350" lon="9.5553390">
	<ele>1714.60</ele>
	<time>2023-10-07T09:11:42.000Z</time>
</trkpt>
<trkpt lat="45.9396380" lon="9.5553250">
	<ele>1714.60</ele>
	<time>2023-10-07T09:11:43.000Z</time>
</trkpt>
<trkpt lat="45.9396460" lon="9.5553100">
	<ele>1714.60</ele>
	<time>2023-10-07T09:11:44.000Z</time>
</trkpt>
<trkpt lat="45.9396530" lon="9.5552970">
	<ele>1714.60</ele>
	<time>2023-10-07T09:11:45.000Z</time>
</trkpt>
<trkpt lat="45.9396590" lon="9.5552830">
	<ele>1714.40</ele>
	<time>2023-10-07T09:11:46.000Z</time>
</trkpt>
<trkpt lat="45.9396640" lon="9.5552720">
	<ele>1714.20</ele>
	<time>2023-10-07T09:11:47.000Z</time>
</trkpt>
<trkpt lat="45.9396680" lon="9.5552580">
	<ele>1714.00</ele>
	<time>2023-10-07T09:11:48.000Z</time>
</trkpt>
<trkpt lat="45.9396740" lon="9.5552440">
	<ele>1714.00</ele>
	<time>2023-10-07T09:11:49.000Z</time>
</trkpt>
<trkpt lat="45.9396790" lon="9.5552290">
	<ele>1713.80</ele>
	<time>2023-10-07T09:11:50.000Z</time>
</trkpt>
<trkpt lat="45.9396860" lon="9.5552120">
	<ele>1713.80</ele>
	<time>2023-10-07T09:11:51.000Z</time>
</trkpt>
<trkpt lat="45.9396930" lon="9.5551930">
	<ele>1713.60</ele>
	<time>2023-10-07T09:11:52.000Z</time>
</trkpt>
<trkpt lat="45.9397010" lon="9.5551760">
	<ele>1713.60</ele>
	<time>2023-10-07T09:11:53.000Z</time>
</trkpt>
<trkpt lat="45.9397080" lon="9.5551590">
	<ele>1713.20</ele>
	<time>2023-10-07T09:11:54.000Z</time>
</trkpt>
<trkpt lat="45.9397140" lon="9.5551450">
	<ele>1713.00</ele>
	<time>2023-10-07T09:11:55.000Z</time>
</trkpt>
<trkpt lat="45.9397220" lon="9.5551300">
	<ele>1712.80</ele>
	<time>2023-10-07T09:11:56.000Z</time>
</trkpt>
<trkpt lat="45.9397310" lon="9.5551180">
	<ele>1712.80</ele>
	<time>2023-10-07T09:11:57.000Z</time>
</trkpt>
<trkpt lat="45.9397400" lon="9.5551020">
	<ele>1712.60</ele>
	<time>2023-10-07T09:11:58.000Z</time>
</trkpt>
<trkpt lat="45.9397470" lon="9.5550850">
	<ele>1712.40</ele>
	<time>2023-10-07T09:11:59.000Z</time>
</trkpt>
<trkpt lat="45.9397560" lon="9.5550700">
	<ele>1712.40</ele>
	<time>2023-10-07T09:12:00.000Z</time>
</trkpt>
<trkpt lat="45.9397660" lon="9.5550580">
	<ele>1712.40</ele>
	<time>2023-10-07T09:12:01.000Z</time>
</trkpt>
<trkpt lat="45.9397770" lon="9.5550410">
	<ele>1712.20</ele>
	<time>2023-10-07T09:12:02.000Z</time>
</trkpt>
<trkpt lat="45.9397830" lon="9.5550300">
	<ele>1712.00</ele>
	<time>2023-10-07T09:12:03.000Z</time>
</trkpt>
<trkpt lat="45.9397890" lon="9.5550180">
	<ele>1712.00</ele>
	<time>2023-10-07T09:12:04.000Z</time>
</trkpt>
<trkpt lat="45.9397940" lon="9.5550050">
	<ele>1711.80</ele>
	<time>2023-10-07T09:12:05.000Z</time>
</trkpt>
<trkpt lat="45.9397970" lon="9.5549880">
	<ele>1711.60</ele>
	<time>2023-10-07T09:12:06.000Z</time>
</trkpt>
<trkpt lat="45.9398010" lon="9.5549710">
	<ele>1711.20</ele>
	<time>2023-10-07T09:12:07.000Z</time>
</trkpt>
<trkpt lat="45.9398100" lon="9.5549590">
	<ele>1711.00</ele>
	<time>2023-10-07T09:12:08.000Z</time>
</trkpt>
<trkpt lat="45.9398150" lon="9.5549420">
	<ele>1710.80</ele>
	<time>2023-10-07T09:12:09.000Z</time>
</trkpt>
<trkpt lat="45.9398240" lon="9.5549270">
	<ele>1710.60</ele>
	<time>2023-10-07T09:12:10.000Z</time>
</trkpt>
<trkpt lat="45.9398350" lon="9.5549160">
	<ele>1710.60</ele>
	<time>2023-10-07T09:12:11.000Z</time>
</trkpt>
<trkpt lat="45.9398480" lon="9.5549030">
	<ele>1710.60</ele>
	<time>2023-10-07T09:12:12.000Z</time>
</trkpt>
<trkpt lat="45.9398630" lon="9.5548940">
	<ele>1710.40</ele>
	<time>2023-10-07T09:12:13.000Z</time>
</trkpt>
<trkpt lat="45.9398750" lon="9.5548830">
	<ele>1710.00</ele>
	<time>2023-10-07T09:12:14.000Z</time>
</trkpt>
<trkpt lat="45.9398920" lon="9.5548720">
	<ele>1710.00</ele>
	<time>2023-10-07T09:12:15.000Z</time>
</trkpt>
<trkpt lat="45.9399040" lon="9.5548650">
	<ele>1709.80</ele>
	<time>2023-10-07T09:12:16.000Z</time>
</trkpt>
<trkpt lat="45.9399160" lon="9.5548520">
	<ele>1709.80</ele>
	<time>2023-10-07T09:12:17.000Z</time>
</trkpt>
<trkpt lat="45.9399240" lon="9.5548380">
	<ele>1709.80</ele>
	<time>2023-10-07T09:12:18.000Z</time>
</trkpt>
<trkpt lat="45.9399330" lon="9.5548230">
	<ele>1709.80</ele>
	<time>2023-10-07T09:12:19.000Z</time>
</trkpt>
<trkpt lat="45.9399420" lon="9.5548170">
	<ele>1709.80</ele>
	<time>2023-10-07T09:12:20.000Z</time>
</trkpt>
<trkpt lat="45.9399500" lon="9.5548080">
	<ele>1709.80</ele>
	<time>2023-10-07T09:12:21.000Z</time>
</trkpt>
<trkpt lat="45.9399580" lon="9.5547980">
	<ele>1709.80</ele>
	<time>2023-10-07T09:12:22.000Z</time>
</trkpt>
<trkpt lat="45.9399640" lon="9.5547850">
	<ele>1709.60</ele>
	<time>2023-10-07T09:12:23.000Z</time>
</trkpt>
<trkpt lat="45.9399740" lon="9.5547710">
	<ele>1709.60</ele>
	<time>2023-10-07T09:12:24.000Z</time>
</trkpt>
<trkpt lat="45.9399840" lon="9.5547560">
	<ele>1709.40</ele>
	<time>2023-10-07T09:12:25.000Z</time>
</trkpt>
<trkpt lat="45.9399940" lon="9.5547410">
	<ele>1709.20</ele>
	<time>2023-10-07T09:12:26.000Z</time>
</trkpt>
<trkpt lat="45.9400060" lon="9.5547270">
	<ele>1709.20</ele>
	<time>2023-10-07T09:12:27.000Z</time>
</trkpt>
<trkpt lat="45.9400150" lon="9.5547140">
	<ele>1709.20</ele>
	<time>2023-10-07T09:12:28.000Z</time>
</trkpt>
<trkpt lat="45.9400210" lon="9.5547040">
	<ele>1709.20</ele>
	<time>2023-10-07T09:12:29.000Z</time>
</trkpt>
<trkpt lat="45.9400290" lon="9.5546980">
	<ele>1709.20</ele>
	<time>2023-10-07T09:12:30.000Z</time>
</trkpt>
<trkpt lat="45.9400390" lon="9.5546940">
	<ele>1709.20</ele>
	<time>2023-10-07T09:12:31.000Z</time>
</trkpt>
<trkpt lat="45.9400500" lon="9.5546900">
	<ele>1709.20</ele>
	<time>2023-10-07T09:12:32.000Z</time>
</trkpt>
<trkpt lat="45.9400580" lon="9.5546800">
	<ele>1709.00</ele>
	<time>2023-10-07T09:12:33.000Z</time>
</trkpt>
<trkpt lat="45.9400650" lon="9.5546690">
	<ele>1709.00</ele>
	<time>2023-10-07T09:12:34.000Z</time>
</trkpt>
<trkpt lat="45.9400730" lon="9.5546560">
	<ele>1708.80</ele>
	<time>2023-10-07T09:12:35.000Z</time>
</trkpt>
<trkpt lat="45.9400820" lon="9.5546370">
	<ele>1708.80</ele>
	<time>2023-10-07T09:12:36.000Z</time>
</trkpt>
<trkpt lat="45.9400900" lon="9.5546190">
	<ele>1708.60</ele>
	<time>2023-10-07T09:12:37.000Z</time>
</trkpt>
<trkpt lat="45.9400970" lon="9.5546070">
	<ele>1708.60</ele>
	<time>2023-10-07T09:12:38.000Z</time>
</trkpt>
<trkpt lat="45.9401020" lon="9.5545960">
	<ele>1708.60</ele>
	<time>2023-10-07T09:12:39.000Z</time>
</trkpt>
<trkpt lat="45.9401050" lon="9.5545840">
	<ele>1708.60</ele>
	<time>2023-10-07T09:12:40.000Z</time>
</trkpt>
<trkpt lat="45.9401060" lon="9.5545680">
	<ele>1708.60</ele>
	<time>2023-10-07T09:12:41.000Z</time>
</trkpt>
<trkpt lat="45.9401070" lon="9.5545520">
	<ele>1708.40</ele>
	<time>2023-10-07T09:12:42.000Z</time>
</trkpt>
<trkpt lat="45.9401100" lon="9.5545350">
	<ele>1708.40</ele>
	<time>2023-10-07T09:12:43.000Z</time>
</trkpt>
<trkpt lat="45.9401150" lon="9.5545170">
	<ele>1708.00</ele>
	<time>2023-10-07T09:12:44.000Z</time>
</trkpt>
<trkpt lat="45.9401180" lon="9.5544980">
	<ele>1708.00</ele>
	<time>2023-10-07T09:12:45.000Z</time>
</trkpt>
<trkpt lat="45.9401220" lon="9.5544780">
	<ele>1707.80</ele>
	<time>2023-10-07T09:12:46.000Z</time>
</trkpt>
<trkpt lat="45.9401250" lon="9.5544590">
	<ele>1707.60</ele>
	<time>2023-10-07T09:12:47.000Z</time>
</trkpt>
<trkpt lat="45.9401280" lon="9.5544390">
	<ele>1707.60</ele>
	<time>2023-10-07T09:12:48.000Z</time>
</trkpt>
<trkpt lat="45.9401290" lon="9.5544160">
	<ele>1707.60</ele>
	<time>2023-10-07T09:12:49.000Z</time>
</trkpt>
<trkpt lat="45.9401260" lon="9.5544010">
	<ele>1707.60</ele>
	<time>2023-10-07T09:12:50.000Z</time>
</trkpt>
<trkpt lat="45.9401240" lon="9.5543850">
	<ele>1707.60</ele>
	<time>2023-10-07T09:12:51.000Z</time>
</trkpt>
<trkpt lat="45.9401220" lon="9.5543690">
	<ele>1707.60</ele>
	<time>2023-10-07T09:12:52.000Z</time>
</trkpt>
<trkpt lat="45.9401150" lon="9.5543530">
	<ele>1707.60</ele>
	<time>2023-10-07T09:12:53.000Z</time>
</trkpt>
<trkpt lat="45.9401100" lon="9.5543370">
	<ele>1707.60</ele>
	<time>2023-10-07T09:12:54.000Z</time>
</trkpt>
<trkpt lat="45.9401090" lon="9.5543220">
	<ele>1707.60</ele>
	<time>2023-10-07T09:12:55.000Z</time>
</trkpt>
<trkpt lat="45.9401100" lon="9.5543080">
	<ele>1707.60</ele>
	<time>2023-10-07T09:12:56.000Z</time>
</trkpt>
<trkpt lat="45.9401120" lon="9.5542920">
	<ele>1707.40</ele>
	<time>2023-10-07T09:12:57.000Z</time>
</trkpt>
<trkpt lat="45.9401100" lon="9.5542750">
	<ele>1707.40</ele>
	<time>2023-10-07T09:12:58.000Z</time>
</trkpt>
<trkpt lat="45.9401050" lon="9.5542580">
	<ele>1707.40</ele>
	<time>2023-10-07T09:12:59.000Z</time>
</trkpt>
<trkpt lat="45.9400990" lon="9.5542400">
	<ele>1707.40</ele>
	<time>2023-10-07T09:13:00.000Z</time>
</trkpt>
<trkpt lat="45.9400910" lon="9.5542240">
	<ele>1707.20</ele>
	<time>2023-10-07T09:13:01.000Z</time>
</trkpt>
<trkpt lat="45.9400820" lon="9.5542060">
	<ele>1706.80</ele>
	<time>2023-10-07T09:13:02.000Z</time>
</trkpt>
<trkpt lat="45.9400730" lon="9.5541860">
	<ele>1706.80</ele>
	<time>2023-10-07T09:13:03.000Z</time>
</trkpt>
<trkpt lat="45.9400660" lon="9.5541650">
	<ele>1706.80</ele>
	<time>2023-10-07T09:13:04.000Z</time>
</trkpt>
<trkpt lat="45.9400610" lon="9.5541430">
	<ele>1706.60</ele>
	<time>2023-10-07T09:13:05.000Z</time>
</trkpt>
<trkpt lat="45.9400580" lon="9.5541230">
	<ele>1706.60</ele>
	<time>2023-10-07T09:13:06.000Z</time>
</trkpt>
<trkpt lat="45.9400540" lon="9.5541040">
	<ele>1706.60</ele>
	<time>2023-10-07T09:13:07.000Z</time>
</trkpt>
<trkpt lat="45.9400500" lon="9.5540870">
	<ele>1706.60</ele>
	<time>2023-10-07T09:13:08.000Z</time>
</trkpt>
<trkpt lat="45.9400460" lon="9.5540700">
	<ele>1706.60</ele>
	<time>2023-10-07T09:13:09.000Z</time>
</trkpt>
<trkpt lat="45.9400440" lon="9.5540520">
	<ele>1706.60</ele>
	<time>2023-10-07T09:13:10.000Z</time>
</trkpt>
<trkpt lat="45.9400430" lon="9.5540330">
	<ele>1706.60</ele>
	<time>2023-10-07T09:13:11.000Z</time>
</trkpt>
<trkpt lat="45.9400440" lon="9.5540160">
	<ele>1706.60</ele>
	<time>2023-10-07T09:13:12.000Z</time>
</trkpt>
<trkpt lat="45.9400480" lon="9.5539970">
	<ele>1706.60</ele>
	<time>2023-10-07T09:13:13.000Z</time>
</trkpt>
<trkpt lat="45.9400470" lon="9.5539740">
	<ele>1706.60</ele>
	<time>2023-10-07T09:13:14.000Z</time>
</trkpt>
<trkpt lat="45.9400490" lon="9.5539530">
	<ele>1706.60</ele>
	<time>2023-10-07T09:13:15.000Z</time>
</trkpt>
<trkpt lat="45.9400550" lon="9.5539330">
	<ele>1706.80</ele>
	<time>2023-10-07T09:13:16.000Z</time>
</trkpt>
<trkpt lat="45.9400610" lon="9.5539120">
	<ele>1706.80</ele>
	<time>2023-10-07T09:13:17.000Z</time>
</trkpt>
<trkpt lat="45.9400640" lon="9.5538910">
	<ele>1706.60</ele>
	<time>2023-10-07T09:13:18.000Z</time>
</trkpt>
<trkpt lat="45.9400680" lon="9.5538700">
	<ele>1706.60</ele>
	<time>2023-10-07T09:13:19.000Z</time>
</trkpt>
<trkpt lat="45.9400730" lon="9.5538470">
	<ele>1706.60</ele>
	<time>2023-10-07T09:13:20.000Z</time>
</trkpt>
<trkpt lat="45.9400770" lon="9.5538280">
	<ele>1706.60</ele>
	<time>2023-10-07T09:13:21.000Z</time>
</trkpt>
<trkpt lat="45.9400850" lon="9.5538150">
	<ele>1706.60</ele>
	<time>2023-10-07T09:13:22.000Z</time>
</trkpt>
<trkpt lat="45.9400910" lon="9.5538020">
	<ele>1706.60</ele>
	<time>2023-10-07T09:13:23.000Z</time>
</trkpt>
<trkpt lat="45.9400950" lon="9.5537890">
	<ele>1706.60</ele>
	<time>2023-10-07T09:13:24.000Z</time>
</trkpt>
<trkpt lat="45.9400990" lon="9.5537730">
	<ele>1706.40</ele>
	<time>2023-10-07T09:13:25.000Z</time>
</trkpt>
<trkpt lat="45.9401010" lon="9.5537540">
	<ele>1706.40</ele>
	<time>2023-10-07T09:13:26.000Z</time>
</trkpt>
<trkpt lat="45.9401030" lon="9.5537350">
	<ele>1706.40</ele>
	<time>2023-10-07T09:13:27.000Z</time>
</trkpt>
<trkpt lat="45.9401070" lon="9.5537170">
	<ele>1706.40</ele>
	<time>2023-10-07T09:13:28.000Z</time>
</trkpt>
<trkpt lat="45.9401130" lon="9.5536990">
	<ele>1706.40</ele>
	<time>2023-10-07T09:13:29.000Z</time>
</trkpt>
<trkpt lat="45.9401170" lon="9.5536820">
	<ele>1706.40</ele>
	<time>2023-10-07T09:13:30.000Z</time>
</trkpt>
<trkpt lat="45.9401200" lon="9.5536650">
	<ele>1706.40</ele>
	<time>2023-10-07T09:13:31.000Z</time>
</trkpt>
<trkpt lat="45.9401230" lon="9.5536480">
	<ele>1706.40</ele>
	<time>2023-10-07T09:13:32.000Z</time>
</trkpt>
<trkpt lat="45.9401260" lon="9.5536300">
	<ele>1706.40</ele>
	<time>2023-10-07T09:13:33.000Z</time>
</trkpt>
<trkpt lat="45.9401280" lon="9.5536110">
	<ele>1706.40</ele>
	<time>2023-10-07T09:13:34.000Z</time>
</trkpt>
<trkpt lat="45.9401290" lon="9.5535960">
	<ele>1706.40</ele>
	<time>2023-10-07T09:13:35.000Z</time>
</trkpt>
<trkpt lat="45.9401310" lon="9.5535840">
	<ele>1706.60</ele>
	<time>2023-10-07T09:13:36.000Z</time>
</trkpt>
<trkpt lat="45.9401300" lon="9.5535660">
	<ele>1706.40</ele>
	<time>2023-10-07T09:13:37.000Z</time>
</trkpt>
<trkpt lat="45.9401310" lon="9.5535470">
	<ele>1706.40</ele>
	<time>2023-10-07T09:13:38.000Z</time>
</trkpt>
<trkpt lat="45.9401290" lon="9.5535270">
	<ele>1706.40</ele>
	<time>2023-10-07T09:13:39.000Z</time>
</trkpt>
<trkpt lat="45.9401260" lon="9.5535110">
	<ele>1706.40</ele>
	<time>2023-10-07T09:13:40.000Z</time>
</trkpt>
<trkpt lat="45.9401200" lon="9.5534920">
	<ele>1706.20</ele>
	<time>2023-10-07T09:13:41.000Z</time>
</trkpt>
<trkpt lat="45.9401110" lon="9.5534710">
	<ele>1706.20</ele>
	<time>2023-10-07T09:13:42.000Z</time>
</trkpt>
<trkpt lat="45.9401040" lon="9.5534510">
	<ele>1706.00</ele>
	<time>2023-10-07T09:13:43.000Z</time>
</trkpt>
<trkpt lat="45.9400980" lon="9.5534320">
	<ele>1706.00</ele>
	<time>2023-10-07T09:13:44.000Z</time>
</trkpt>
<trkpt lat="45.9400900" lon="9.5534140">
	<ele>1706.00</ele>
	<time>2023-10-07T09:13:45.000Z</time>
</trkpt>
<trkpt lat="45.9400870" lon="9.5533960">
	<ele>1705.80</ele>
	<time>2023-10-07T09:13:46.000Z</time>
</trkpt>
<trkpt lat="45.9400850" lon="9.5533740">
	<ele>1705.80</ele>
	<time>2023-10-07T09:13:47.000Z</time>
</trkpt>
<trkpt lat="45.9400840" lon="9.5533550">
	<ele>1705.80</ele>
	<time>2023-10-07T09:13:48.000Z</time>
</trkpt>
<trkpt lat="45.9400830" lon="9.5533370">
	<ele>1705.80</ele>
	<time>2023-10-07T09:13:49.000Z</time>
</trkpt>
<trkpt lat="45.9400850" lon="9.5533200">
	<ele>1705.80</ele>
	<time>2023-10-07T09:13:50.000Z</time>
</trkpt>
<trkpt lat="45.9400860" lon="9.5533030">
	<ele>1705.80</ele>
	<time>2023-10-07T09:13:51.000Z</time>
</trkpt>
<trkpt lat="45.9400890" lon="9.5532840">
	<ele>1705.80</ele>
	<time>2023-10-07T09:13:52.000Z</time>
</trkpt>
<trkpt lat="45.9400930" lon="9.5532650">
	<ele>1705.80</ele>
	<time>2023-10-07T09:13:53.000Z</time>
</trkpt>
<trkpt lat="45.9400970" lon="9.5532480">
	<ele>1705.60</ele>
	<time>2023-10-07T09:13:54.000Z</time>
</trkpt>
<trkpt lat="45.9400980" lon="9.5532320">
	<ele>1705.60</ele>
	<time>2023-10-07T09:13:55.000Z</time>
</trkpt>
<trkpt lat="45.9400990" lon="9.5532140">
	<ele>1705.60</ele>
	<time>2023-10-07T09:13:56.000Z</time>
</trkpt>
<trkpt lat="45.9401000" lon="9.5531970">
	<ele>1705.40</ele>
	<time>2023-10-07T09:13:57.000Z</time>
</trkpt>
<trkpt lat="45.9401010" lon="9.5531820">
	<ele>1705.20</ele>
	<time>2023-10-07T09:13:58.000Z</time>
</trkpt>
<trkpt lat="45.9400990" lon="9.5531680">
	<ele>1705.20</ele>
	<time>2023-10-07T09:13:59.000Z</time>
</trkpt>
<trkpt lat="45.9400990" lon="9.5531550">
	<ele>1704.80</ele>
	<time>2023-10-07T09:14:00.000Z</time>
</trkpt>
<trkpt lat="45.9400980" lon="9.5531420">
	<ele>1704.60</ele>
	<time>2023-10-07T09:14:01.000Z</time>
</trkpt>
<trkpt lat="45.9400980" lon="9.5531270">
	<ele>1704.60</ele>
	<time>2023-10-07T09:14:02.000Z</time>
</trkpt>
<trkpt lat="45.9400970" lon="9.5531160">
	<ele>1704.40</ele>
	<time>2023-10-07T09:14:03.000Z</time>
</trkpt>
<trkpt lat="45.9400950" lon="9.5531050">
	<ele>1704.40</ele>
	<time>2023-10-07T09:14:04.000Z</time>
</trkpt>
<trkpt lat="45.9400930" lon="9.5530890">
	<ele>1704.20</ele>
	<time>2023-10-07T09:14:05.000Z</time>
</trkpt>
<trkpt lat="45.9400920" lon="9.5530670">
	<ele>1704.20</ele>
	<time>2023-10-07T09:14:06.000Z</time>
</trkpt>
<trkpt lat="45.9400940" lon="9.5530460">
	<ele>1704.00</ele>
	<time>2023-10-07T09:14:07.000Z</time>
</trkpt>
<trkpt lat="45.9400920" lon="9.5530280">
	<ele>1704.00</ele>
	<time>2023-10-07T09:14:08.000Z</time>
</trkpt>
<trkpt lat="45.9400890" lon="9.5530130">
	<ele>1704.00</ele>
	<time>2023-10-07T09:14:09.000Z</time>
</trkpt>
<trkpt lat="45.9400870" lon="9.5530020">
	<ele>1704.00</ele>
	<time>2023-10-07T09:14:10.000Z</time>
</trkpt>
<trkpt lat="45.9400860" lon="9.5529930">
	<ele>1704.00</ele>
	<time>2023-10-07T09:14:11.000Z</time>
</trkpt>
<trkpt lat="45.9400850" lon="9.5529890">
	<ele>1704.20</ele>
	<time>2023-10-07T09:14:12.000Z</time>
</trkpt>
<trkpt lat="45.9400850" lon="9.5529870">
	<ele>1704.20</ele>
	<time>2023-10-07T09:14:13.000Z</time>
</trkpt>
<trkpt lat="45.9400840" lon="9.5529870">
	<ele>1704.40</ele>
	<time>2023-10-07T09:14:14.000Z</time>
</trkpt>
<trkpt lat="45.9400840" lon="9.5529870">
	<ele>1704.60</ele>
	<time>2023-10-07T09:14:15.000Z</time>
</trkpt>
<trkpt lat="45.9400850" lon="9.5529870">
	<ele>1704.80</ele>
	<time>2023-10-07T09:14:16.000Z</time>
</trkpt>
<trkpt lat="45.9400850" lon="9.5529870">
	<ele>1704.80</ele>
	<time>2023-10-07T09:14:17.000Z</time>
</trkpt>
<trkpt lat="45.9400850" lon="9.5529860">
	<ele>1704.80</ele>
	<time>2023-10-07T09:14:18.000Z</time>
</trkpt>
<trkpt lat="45.9400850" lon="9.5529870">
	<ele>1705.00</ele>
	<time>2023-10-07T09:14:19.000Z</time>
</trkpt>
<trkpt lat="45.9400840" lon="9.5529870">
	<ele>1705.00</ele>
	<time>2023-10-07T09:14:20.000Z</time>
</trkpt>
<trkpt lat="45.9400840" lon="9.5529870">
	<ele>1705.00</ele>
	<time>2023-10-07T09:14:21.000Z</time>
</trkpt>
<trkpt lat="45.9400840" lon="9.5529870">
	<ele>1705.00</ele>
	<time>2023-10-07T09:14:22.000Z</time>
</trkpt>
<trkpt lat="45.9400840" lon="9.5529870">
	<ele>1704.80</ele>
	<time>2023-10-07T09:14:23.000Z</time>
</trkpt>
<trkpt lat="45.9400840" lon="9.5529870">
	<ele>1704.80</ele>
	<time>2023-10-07T09:14:24.000Z</time>
</trkpt>
<trkpt lat="45.9400840" lon="9.5529870">
	<ele>1704.80</ele>
	<time>2023-10-07T09:14:25.000Z</time>
</trkpt>
<trkpt lat="45.9400840" lon="9.5529870">
	<ele>1704.40</ele>
	<time>2023-10-07T09:14:26.000Z</time>
</trkpt>
<trkpt lat="45.9400840" lon="9.5529870">
	<ele>1704.20</ele>
	<time>2023-10-07T09:14:27.000Z</time>
</trkpt>
<trkpt lat="45.9400840" lon="9.5529870">
	<ele>1704.00</ele>
	<time>2023-10-07T09:14:28.000Z</time>
</trkpt>
<trkpt lat="45.9400840" lon="9.5529870">
	<ele>1704.00</ele>
	<time>2023-10-07T09:14:29.000Z</time>
</trkpt>
<trkpt lat="45.9400840" lon="9.5529870">
	<ele>1704.00</ele>
	<time>2023-10-07T09:14:30.000Z</time>
</trkpt>
<trkpt lat="45.9400850" lon="9.5529810">
	<ele>1703.80</ele>
	<time>2023-10-07T09:14:31.000Z</time>
</trkpt>
<trkpt lat="45.9400870" lon="9.5529610">
	<ele>1703.80</ele>
	<time>2023-10-07T09:14:32.000Z</time>
</trkpt>
<trkpt lat="45.9400890" lon="9.5529390">
	<ele>1703.80</ele>
	<time>2023-10-07T09:14:33.000Z</time>
</trkpt>
<trkpt lat="45.9400910" lon="9.5529170">
	<ele>1703.60</ele>
	<time>2023-10-07T09:14:34.000Z</time>
</trkpt>
<trkpt lat="45.9400910" lon="9.5528970">
	<ele>1703.60</ele>
	<time>2023-10-07T09:14:35.000Z</time>
</trkpt>
<trkpt lat="45.9400940" lon="9.5528780">
	<ele>1703.40</ele>
	<time>2023-10-07T09:14:36.000Z</time>
</trkpt>
<trkpt lat="45.9401020" lon="9.5528640">
	<ele>1703.20</ele>
	<time>2023-10-07T09:14:37.000Z</time>
</trkpt>
<trkpt lat="45.9401070" lon="9.5528460">
	<ele>1703.00</ele>
	<time>2023-10-07T09:14:38.000Z</time>
</trkpt>
<trkpt lat="45.9401080" lon="9.5528290">
	<ele>1702.80</ele>
	<time>2023-10-07T09:14:39.000Z</time>
</trkpt>
<trkpt lat="45.9401060" lon="9.5528150">
	<ele>1702.60</ele>
	<time>2023-10-07T09:14:40.000Z</time>
</trkpt>
<trkpt lat="45.9401070" lon="9.5528030">
	<ele>1702.60</ele>
	<time>2023-10-07T09:14:41.000Z</time>
</trkpt>
<trkpt lat="45.9401090" lon="9.5527890">
	<ele>1702.40</ele>
	<time>2023-10-07T09:14:42.000Z</time>
</trkpt>
<trkpt lat="45.9401090" lon="9.5527750">
	<ele>1702.40</ele>
	<time>2023-10-07T09:14:43.000Z</time>
</trkpt>
<trkpt lat="45.9401080" lon="9.5527640">
	<ele>1702.40</ele>
	<time>2023-10-07T09:14:44.000Z</time>
</trkpt>
<trkpt lat="45.9401090" lon="9.5527530">
	<ele>1702.20</ele>
	<time>2023-10-07T09:14:45.000Z</time>
</trkpt>
<trkpt lat="45.9401110" lon="9.5527410">
	<ele>1702.20</ele>
	<time>2023-10-07T09:14:46.000Z</time>
</trkpt>
<trkpt lat="45.9401140" lon="9.5527250">
	<ele>1702.00</ele>
	<time>2023-10-07T09:14:47.000Z</time>
</trkpt>
<trkpt lat="45.9401150" lon="9.5527070">
	<ele>1702.00</ele>
	<time>2023-10-07T09:14:48.000Z</time>
</trkpt>
<trkpt lat="45.9401160" lon="9.5526920">
	<ele>1702.00</ele>
	<time>2023-10-07T09:14:49.000Z</time>
</trkpt>
<trkpt lat="45.9401190" lon="9.5526790">
	<ele>1701.80</ele>
	<time>2023-10-07T09:14:50.000Z</time>
</trkpt>
<trkpt lat="45.9401230" lon="9.5526680">
	<ele>1701.80</ele>
	<time>2023-10-07T09:14:51.000Z</time>
</trkpt>
<trkpt lat="45.9401270" lon="9.5526540">
	<ele>1701.80</ele>
	<time>2023-10-07T09:14:52.000Z</time>
</trkpt>
<trkpt lat="45.9401310" lon="9.5526400">
	<ele>1701.80</ele>
	<time>2023-10-07T09:14:53.000Z</time>
</trkpt>
<trkpt lat="45.9401340" lon="9.5526310">
	<ele>1702.00</ele>
	<time>2023-10-07T09:14:54.000Z</time>
</trkpt>
<trkpt lat="45.9401360" lon="9.5526210">
	<ele>1702.00</ele>
	<time>2023-10-07T09:14:55.000Z</time>
</trkpt>
<trkpt lat="45.9401380" lon="9.5526080">
	<ele>1702.20</ele>
	<time>2023-10-07T09:14:56.000Z</time>
</trkpt>
<trkpt lat="45.9401390" lon="9.5525950">
	<ele>1702.20</ele>
	<time>2023-10-07T09:14:57.000Z</time>
</trkpt>
<trkpt lat="45.9401440" lon="9.5525780">
	<ele>1702.20</ele>
	<time>2023-10-07T09:14:58.000Z</time>
</trkpt>
<trkpt lat="45.9401460" lon="9.5525660">
	<ele>1702.20</ele>
	<time>2023-10-07T09:14:59.000Z</time>
</trkpt>
<trkpt lat="45.9401480" lon="9.5525520">
	<ele>1702.20</ele>
	<time>2023-10-07T09:15:00.000Z</time>
</trkpt>
<trkpt lat="45.9401510" lon="9.5525400">
	<ele>1702.40</ele>
	<time>2023-10-07T09:15:01.000Z</time>
</trkpt>
<trkpt lat="45.9401530" lon="9.5525280">
	<ele>1702.40</ele>
	<time>2023-10-07T09:15:02.000Z</time>
</trkpt>
<trkpt lat="45.9401540" lon="9.5525150">
	<ele>1702.40</ele>
	<time>2023-10-07T09:15:03.000Z</time>
</trkpt>
<trkpt lat="45.9401530" lon="9.5525020">
	<ele>1702.40</ele>
	<time>2023-10-07T09:15:04.000Z</time>
</trkpt>
<trkpt lat="45.9401530" lon="9.5524890">
	<ele>1702.40</ele>
	<time>2023-10-07T09:15:05.000Z</time>
</trkpt>
<trkpt lat="45.9401550" lon="9.5524770">
	<ele>1702.40</ele>
	<time>2023-10-07T09:15:06.000Z</time>
</trkpt>
<trkpt lat="45.9401570" lon="9.5524620">
	<ele>1702.40</ele>
	<time>2023-10-07T09:15:07.000Z</time>
</trkpt>
<trkpt lat="45.9401560" lon="9.5524480">
	<ele>1702.40</ele>
	<time>2023-10-07T09:15:08.000Z</time>
</trkpt>
<trkpt lat="45.9401580" lon="9.5524330">
	<ele>1702.40</ele>
	<time>2023-10-07T09:15:09.000Z</time>
</trkpt>
<trkpt lat="45.9401590" lon="9.5524200">
	<ele>1702.40</ele>
	<time>2023-10-07T09:15:10.000Z</time>
</trkpt>
<trkpt lat="45.9401590" lon="9.5524040">
	<ele>1702.40</ele>
	<time>2023-10-07T09:15:11.000Z</time>
</trkpt>
<trkpt lat="45.9401590" lon="9.5523880">
	<ele>1702.40</ele>
	<time>2023-10-07T09:15:12.000Z</time>
</trkpt>
<trkpt lat="45.9401590" lon="9.5523720">
	<ele>1702.40</ele>
	<time>2023-10-07T09:15:13.000Z</time>
</trkpt>
<trkpt lat="45.9401610" lon="9.5523540">
	<ele>1702.60</ele>
	<time>2023-10-07T09:15:14.000Z</time>
</trkpt>
<trkpt lat="45.9401620" lon="9.5523370">
	<ele>1702.60</ele>
	<time>2023-10-07T09:15:15.000Z</time>
</trkpt>
<trkpt lat="45.9401630" lon="9.5523200">
	<ele>1702.60</ele>
	<time>2023-10-07T09:15:16.000Z</time>
</trkpt>
<trkpt lat="45.9401630" lon="9.5523050">
	<ele>1702.60</ele>
	<time>2023-10-07T09:15:17.000Z</time>
</trkpt>
<trkpt lat="45.9401670" lon="9.5522870">
	<ele>1702.60</ele>
	<time>2023-10-07T09:15:18.000Z</time>
</trkpt>
<trkpt lat="45.9401710" lon="9.5522690">
	<ele>1702.80</ele>
	<time>2023-10-07T09:15:19.000Z</time>
</trkpt>
<trkpt lat="45.9401750" lon="9.5522520">
	<ele>1702.60</ele>
	<time>2023-10-07T09:15:20.000Z</time>
</trkpt>
<trkpt lat="45.9401790" lon="9.5522370">
	<ele>1702.80</ele>
	<time>2023-10-07T09:15:21.000Z</time>
</trkpt>
<trkpt lat="45.9401810" lon="9.5522230">
	<ele>1702.80</ele>
	<time>2023-10-07T09:15:22.000Z</time>
</trkpt>
<trkpt lat="45.9401840" lon="9.5522100">
	<ele>1702.80</ele>
	<time>2023-10-07T09:15:23.000Z</time>
</trkpt>
<trkpt lat="45.9401860" lon="9.5521940">
	<ele>1702.80</ele>
	<time>2023-10-07T09:15:24.000Z</time>
</trkpt>
<trkpt lat="45.9401880" lon="9.5521760">
	<ele>1702.80</ele>
	<time>2023-10-07T09:15:25.000Z</time>
</trkpt>
<trkpt lat="45.9401900" lon="9.5521600">
	<ele>1702.80</ele>
	<time>2023-10-07T09:15:26.000Z</time>
</trkpt>
<trkpt lat="45.9401930" lon="9.5521450">
	<ele>1702.80</ele>
	<time>2023-10-07T09:15:27.000Z</time>
</trkpt>
<trkpt lat="45.9401930" lon="9.5521290">
	<ele>1702.80</ele>
	<time>2023-10-07T09:15:28.000Z</time>
</trkpt>
<trkpt lat="45.9401920" lon="9.5521130">
	<ele>1702.80</ele>
	<time>2023-10-07T09:15:29.000Z</time>
</trkpt>
<trkpt lat="45.9401900" lon="9.5520960">
	<ele>1702.80</ele>
	<time>2023-10-07T09:15:30.000Z</time>
</trkpt>
<trkpt lat="45.9401860" lon="9.5520820">
	<ele>1703.00</ele>
	<time>2023-10-07T09:15:31.000Z</time>
</trkpt>
<trkpt lat="45.9401860" lon="9.5520650">
	<ele>1703.00</ele>
	<time>2023-10-07T09:15:32.000Z</time>
</trkpt>
<trkpt lat="45.9401850" lon="9.5520490">
	<ele>1703.00</ele>
	<time>2023-10-07T09:15:33.000Z</time>
</trkpt>
<trkpt lat="45.9401850" lon="9.5520330">
	<ele>1703.00</ele>
	<time>2023-10-07T09:15:34.000Z</time>
</trkpt>
<trkpt lat="45.9401860" lon="9.5520190">
	<ele>1703.00</ele>
	<time>2023-10-07T09:15:35.000Z</time>
</trkpt>
<trkpt lat="45.9401870" lon="9.5520010">
	<ele>1703.00</ele>
	<time>2023-10-07T09:15:36.000Z</time>
</trkpt>
<trkpt lat="45.9401850" lon="9.5519830">
	<ele>1703.00</ele>
	<time>2023-10-07T09:15:37.000Z</time>
</trkpt>
<trkpt lat="45.9401820" lon="9.5519660">
	<ele>1703.00</ele>
	<time>2023-10-07T09:15:38.000Z</time>
</trkpt>
<trkpt lat="45.9401840" lon="9.5519510">
	<ele>1703.20</ele>
	<time>2023-10-07T09:15:39.000Z</time>
</trkpt>
<trkpt lat="45.9401870" lon="9.5519370">
	<ele>1703.20</ele>
	<time>2023-10-07T09:15:40.000Z</time>
</trkpt>
<trkpt lat="45.9401910" lon="9.5519240">
	<ele>1703.20</ele>
	<time>2023-10-07T09:15:41.000Z</time>
</trkpt>
<trkpt lat="45.9401910" lon="9.5519110">
	<ele>1703.40</ele>
	<time>2023-10-07T09:15:42.000Z</time>
</trkpt>
<trkpt lat="45.9401920" lon="9.5518970">
	<ele>1703.60</ele>
	<time>2023-10-07T09:15:43.000Z</time>
</trkpt>
<trkpt lat="45.9401950" lon="9.5518860">
	<ele>1703.60</ele>
	<time>2023-10-07T09:15:44.000Z</time>
</trkpt>
<trkpt lat="45.9401950" lon="9.5518750">
	<ele>1703.80</ele>
	<time>2023-10-07T09:15:45.000Z</time>
</trkpt>
<trkpt lat="45.9401970" lon="9.5518630">
	<ele>1703.80</ele>
	<time>2023-10-07T09:15:46.000Z</time>
</trkpt>
<trkpt lat="45.9402000" lon="9.5518490">
	<ele>1703.80</ele>
	<time>2023-10-07T09:15:47.000Z</time>
</trkpt>
<trkpt lat="45.9402010" lon="9.5518380">
	<ele>1703.80</ele>
	<time>2023-10-07T09:15:48.000Z</time>
</trkpt>
<trkpt lat="45.9402040" lon="9.5518250">
	<ele>1704.00</ele>
	<time>2023-10-07T09:15:49.000Z</time>
</trkpt>
<trkpt lat="45.9402040" lon="9.5518140">
	<ele>1704.00</ele>
	<time>2023-10-07T09:15:50.000Z</time>
</trkpt>
<trkpt lat="45.9402060" lon="9.5518010">
	<ele>1704.20</ele>
	<time>2023-10-07T09:15:51.000Z</time>
</trkpt>
<trkpt lat="45.9402060" lon="9.5517910">
	<ele>1704.20</ele>
	<time>2023-10-07T09:15:52.000Z</time>
</trkpt>
<trkpt lat="45.9402060" lon="9.5517830">
	<ele>1704.40</ele>
	<time>2023-10-07T09:15:53.000Z</time>
</trkpt>
<trkpt lat="45.9402070" lon="9.5517730">
	<ele>1704.60</ele>
	<time>2023-10-07T09:15:54.000Z</time>
</trkpt>
<trkpt lat="45.9402060" lon="9.5517620">
	<ele>1704.60</ele>
	<time>2023-10-07T09:15:55.000Z</time>
</trkpt>
<trkpt lat="45.9402060" lon="9.5517560">
	<ele>1704.80</ele>
	<time>2023-10-07T09:15:56.000Z</time>
</trkpt>
<trkpt lat="45.9402010" lon="9.5517450">
	<ele>1704.80</ele>
	<time>2023-10-07T09:15:57.000Z</time>
</trkpt>
<trkpt lat="45.9401990" lon="9.5517320">
	<ele>1705.00</ele>
	<time>2023-10-07T09:15:58.000Z</time>
</trkpt>
<trkpt lat="45.9401970" lon="9.5517200">
	<ele>1705.20</ele>
	<time>2023-10-07T09:15:59.000Z</time>
</trkpt>
<trkpt lat="45.9401990" lon="9.5517080">
	<ele>1705.20</ele>
	<time>2023-10-07T09:16:00.000Z</time>
</trkpt>
<trkpt lat="45.9401990" lon="9.5516960">
	<ele>1705.40</ele>
	<time>2023-10-07T09:16:01.000Z</time>
</trkpt>
<trkpt lat="45.9402000" lon="9.5516890">
	<ele>1705.40</ele>
	<time>2023-10-07T09:16:02.000Z</time>
</trkpt>
<trkpt lat="45.9402020" lon="9.5516830">
	<ele>1705.60</ele>
	<time>2023-10-07T09:16:03.000Z</time>
</trkpt>
<trkpt lat="45.9402030" lon="9.5516740">
	<ele>1705.80</ele>
	<time>2023-10-07T09:16:04.000Z</time>
</trkpt>
<trkpt lat="45.9402040" lon="9.5516630">
	<ele>1706.00</ele>
	<time>2023-10-07T09:16:05.000Z</time>
</trkpt>
<trkpt lat="45.9402070" lon="9.5516530">
	<ele>1706.40</ele>
	<time>2023-10-07T09:16:06.000Z</time>
</trkpt>
<trkpt lat="45.9402080" lon="9.5516460">
	<ele>1706.60</ele>
	<time>2023-10-07T09:16:07.000Z</time>
</trkpt>
<trkpt lat="45.9402110" lon="9.5516380">
	<ele>1706.80</ele>
	<time>2023-10-07T09:16:08.000Z</time>
</trkpt>
<trkpt lat="45.9402130" lon="9.5516290">
	<ele>1706.80</ele>
	<time>2023-10-07T09:16:09.000Z</time>
</trkpt>
<trkpt lat="45.9402140" lon="9.5516220">
	<ele>1707.00</ele>
	<time>2023-10-07T09:16:10.000Z</time>
</trkpt>
<trkpt lat="45.9402150" lon="9.5516170">
	<ele>1707.20</ele>
	<time>2023-10-07T09:16:11.000Z</time>
</trkpt>
<trkpt lat="45.9402120" lon="9.5516140">
	<ele>1707.40</ele>
	<time>2023-10-07T09:16:12.000Z</time>
</trkpt>
<trkpt lat="45.9402140" lon="9.5516080">
	<ele>1707.40</ele>
	<time>2023-10-07T09:16:13.000Z</time>
</trkpt>
<trkpt lat="45.9402160" lon="9.5515980">
	<ele>1707.60</ele>
	<time>2023-10-07T09:16:14.000Z</time>
</trkpt>
<trkpt lat="45.9402160" lon="9.5515920">
	<ele>1707.60</ele>
	<time>2023-10-07T09:16:15.000Z</time>
</trkpt>
<trkpt lat="45.9402160" lon="9.5515830">
	<ele>1707.60</ele>
	<time>2023-10-07T09:16:16.000Z</time>
</trkpt>
<trkpt lat="45.9402180" lon="9.5515700">
	<ele>1707.80</ele>
	<time>2023-10-07T09:16:17.000Z</time>
</trkpt>
<trkpt lat="45.9402190" lon="9.5515630">
	<ele>1708.00</ele>
	<time>2023-10-07T09:16:18.000Z</time>
</trkpt>
<trkpt lat="45.9402220" lon="9.5515540">
	<ele>1708.20</ele>
	<time>2023-10-07T09:16:19.000Z</time>
</trkpt>
<trkpt lat="45.9402190" lon="9.5515450">
	<ele>1708.20</ele>
	<time>2023-10-07T09:16:20.000Z</time>
</trkpt>
<trkpt lat="45.9402160" lon="9.5515390">
	<ele>1708.40</ele>
	<time>2023-10-07T09:16:21.000Z</time>
</trkpt>
<trkpt lat="45.9402140" lon="9.5515330">
	<ele>1708.40</ele>
	<time>2023-10-07T09:16:22.000Z</time>
</trkpt>
<trkpt lat="45.9402090" lon="9.5515250">
	<ele>1708.60</ele>
	<time>2023-10-07T09:16:23.000Z</time>
</trkpt>
<trkpt lat="45.9402060" lon="9.5515180">
	<ele>1708.60</ele>
	<time>2023-10-07T09:16:24.000Z</time>
</trkpt>
<trkpt lat="45.9402020" lon="9.5515150">
	<ele>1708.80</ele>
	<time>2023-10-07T09:16:25.000Z</time>
</trkpt>
<trkpt lat="45.9401980" lon="9.5515090">
	<ele>1709.00</ele>
	<time>2023-10-07T09:16:26.000Z</time>
</trkpt>
<trkpt lat="45.9401940" lon="9.5515010">
	<ele>1709.00</ele>
	<time>2023-10-07T09:16:27.000Z</time>
</trkpt>
<trkpt lat="45.9401900" lon="9.5514960">
	<ele>1709.20</ele>
	<time>2023-10-07T09:16:28.000Z</time>
</trkpt>
<trkpt lat="45.9401870" lon="9.5514870">
	<ele>1709.40</ele>
	<time>2023-10-07T09:16:29.000Z</time>
</trkpt>
<trkpt lat="45.9401860" lon="9.5514790">
	<ele>1709.60</ele>
	<time>2023-10-07T09:16:30.000Z</time>
</trkpt>
<trkpt lat="45.9401870" lon="9.5514730">
	<ele>1709.60</ele>
	<time>2023-10-07T09:16:31.000Z</time>
</trkpt>
<trkpt lat="45.9401850" lon="9.5514670">
	<ele>1709.80</ele>
	<time>2023-10-07T09:16:32.000Z</time>
</trkpt>
<trkpt lat="45.9401830" lon="9.5514610">
	<ele>1710.00</ele>
	<time>2023-10-07T09:16:33.000Z</time>
</trkpt>
<trkpt lat="45.9401830" lon="9.5514560">
	<ele>1710.00</ele>
	<time>2023-10-07T09:16:34.000Z</time>
</trkpt>
<trkpt lat="45.9401810" lon="9.5514510">
	<ele>1710.20</ele>
	<time>2023-10-07T09:16:35.000Z</time>
</trkpt>
<trkpt lat="45.9401830" lon="9.5514430">
	<ele>1710.20</ele>
	<time>2023-10-07T09:16:36.000Z</time>
</trkpt>
<trkpt lat="45.9401820" lon="9.5514350">
	<ele>1710.40</ele>
	<time>2023-10-07T09:16:37.000Z</time>
</trkpt>
<trkpt lat="45.9401840" lon="9.5514300">
	<ele>1710.60</ele>
	<time>2023-10-07T09:16:38.000Z</time>
</trkpt>
<trkpt lat="45.9401840" lon="9.5514230">
	<ele>1710.60</ele>
	<time>2023-10-07T09:16:39.000Z</time>
</trkpt>
<trkpt lat="45.9401800" lon="9.5514140">
	<ele>1710.80</ele>
	<time>2023-10-07T09:16:40.000Z</time>
</trkpt>
<trkpt lat="45.9401760" lon="9.5514080">
	<ele>1711.00</ele>
	<time>2023-10-07T09:16:41.000Z</time>
</trkpt>
<trkpt lat="45.9401730" lon="9.5514050">
	<ele>1711.20</ele>
	<time>2023-10-07T09:16:42.000Z</time>
</trkpt>
<trkpt lat="45.9401710" lon="9.5513980">
	<ele>1711.20</ele>
	<time>2023-10-07T09:16:43.000Z</time>
</trkpt>
<trkpt lat="45.9401670" lon="9.5513920">
	<ele>1711.60</ele>
	<time>2023-10-07T09:16:44.000Z</time>
</trkpt>
<trkpt lat="45.9401630" lon="9.5513880">
	<ele>1711.80</ele>
	<time>2023-10-07T09:16:45.000Z</time>
</trkpt>
<trkpt lat="45.9401610" lon="9.5513830">
	<ele>1711.80</ele>
	<time>2023-10-07T09:16:46.000Z</time>
</trkpt>
<trkpt lat="45.9401570" lon="9.5513770">
	<ele>1712.00</ele>
	<time>2023-10-07T09:16:47.000Z</time>
</trkpt>
<trkpt lat="45.9401540" lon="9.5513720">
	<ele>1712.00</ele>
	<time>2023-10-07T09:16:48.000Z</time>
</trkpt>
<trkpt lat="45.9401520" lon="9.5513670">
	<ele>1712.20</ele>
	<time>2023-10-07T09:16:49.000Z</time>
</trkpt>
<trkpt lat="45.9401510" lon="9.5513610">
	<ele>1712.40</ele>
	<time>2023-10-07T09:16:50.000Z</time>
</trkpt>
<trkpt lat="45.9401490" lon="9.5513550">
	<ele>1712.60</ele>
	<time>2023-10-07T09:16:51.000Z</time>
</trkpt>
<trkpt lat="45.9401470" lon="9.5513490">
	<ele>1712.80</ele>
	<time>2023-10-07T09:16:52.000Z</time>
</trkpt>
<trkpt lat="45.9401430" lon="9.5513460">
	<ele>1712.80</ele>
	<time>2023-10-07T09:16:53.000Z</time>
</trkpt>
<trkpt lat="45.9401390" lon="9.5513400">
	<ele>1713.00</ele>
	<time>2023-10-07T09:16:54.000Z</time>
</trkpt>
<trkpt lat="45.9401410" lon="9.5513350">
	<ele>1713.40</ele>
	<time>2023-10-07T09:16:55.000Z</time>
</trkpt>
<trkpt lat="45.9401460" lon="9.5513300">
	<ele>1713.60</ele>
	<time>2023-10-07T09:16:56.000Z</time>
</trkpt>
<trkpt lat="45.9401500" lon="9.5513260">
	<ele>1713.80</ele>
	<time>2023-10-07T09:16:57.000Z</time>
</trkpt>
<trkpt lat="45.9401540" lon="9.5513230">
	<ele>1714.00</ele>
	<time>2023-10-07T09:16:58.000Z</time>
</trkpt>
<trkpt lat="45.9401560" lon="9.5513220">
	<ele>1714.20</ele>
	<time>2023-10-07T09:16:59.000Z</time>
</trkpt>
<trkpt lat="45.9401570" lon="9.5513200">
	<ele>1714.20</ele>
	<time>2023-10-07T09:17:00.000Z</time>
</trkpt>
<trkpt lat="45.9401560" lon="9.5513170">
	<ele>1714.40</ele>
	<time>2023-10-07T09:17:01.000Z</time>
</trkpt>
<trkpt lat="45.9401550" lon="9.5513140">
	<ele>1714.40</ele>
	<time>2023-10-07T09:17:02.000Z</time>
</trkpt>
<trkpt lat="45.9401530" lon="9.5513090">
	<ele>1714.60</ele>
	<time>2023-10-07T09:17:03.000Z</time>
</trkpt>
<trkpt lat="45.9401510" lon="9.5513040">
	<ele>1714.60</ele>
	<time>2023-10-07T09:17:04.000Z</time>
</trkpt>
<trkpt lat="45.9401500" lon="9.5512990">
	<ele>1714.80</ele>
	<time>2023-10-07T09:17:05.000Z</time>
</trkpt>
<trkpt lat="45.9401460" lon="9.5512930">
	<ele>1714.80</ele>
	<time>2023-10-07T09:17:06.000Z</time>
</trkpt>
<trkpt lat="45.9401430" lon="9.5512860">
	<ele>1715.00</ele>
	<time>2023-10-07T09:17:07.000Z</time>
</trkpt>
<trkpt lat="45.9401410" lon="9.5512810">
	<ele>1715.20</ele>
	<time>2023-10-07T09:17:08.000Z</time>
</trkpt>
<trkpt lat="45.9401420" lon="9.5512750">
	<ele>1715.40</ele>
	<time>2023-10-07T09:17:09.000Z</time>
</trkpt>
<trkpt lat="45.9401410" lon="9.5512690">
	<ele>1715.60</ele>
	<time>2023-10-07T09:17:10.000Z</time>
</trkpt>
<trkpt lat="45.9401420" lon="9.5512640">
	<ele>1715.60</ele>
	<time>2023-10-07T09:17:11.000Z</time>
</trkpt>
<trkpt lat="45.9401430" lon="9.5512600">
	<ele>1715.60</ele>
	<time>2023-10-07T09:17:12.000Z</time>
</trkpt>
<trkpt lat="45.9401430" lon="9.5512550">
	<ele>1715.80</ele>
	<time>2023-10-07T09:17:13.000Z</time>
</trkpt>
<trkpt lat="45.9401420" lon="9.5512490">
	<ele>1715.80</ele>
	<time>2023-10-07T09:17:14.000Z</time>
</trkpt>
<trkpt lat="45.9401420" lon="9.5512440">
	<ele>1716.00</ele>
	<time>2023-10-07T09:17:15.000Z</time>
</trkpt>
<trkpt lat="45.9401400" lon="9.5512380">
	<ele>1716.20</ele>
	<time>2023-10-07T09:17:16.000Z</time>
</trkpt>
<trkpt lat="45.9401360" lon="9.5512320">
	<ele>1716.20</ele>
	<time>2023-10-07T09:17:17.000Z</time>
</trkpt>
<trkpt lat="45.9401360" lon="9.5512270">
	<ele>1716.40</ele>
	<time>2023-10-07T09:17:18.000Z</time>
</trkpt>
<trkpt lat="45.9401340" lon="9.5512210">
	<ele>1716.60</ele>
	<time>2023-10-07T09:17:19.000Z</time>
</trkpt>
<trkpt lat="45.9401330" lon="9.5512120">
	<ele>1716.80</ele>
	<time>2023-10-07T09:17:20.000Z</time>
</trkpt>
<trkpt lat="45.9401330" lon="9.5512040">
	<ele>1717.00</ele>
	<time>2023-10-07T09:17:21.000Z</time>
</trkpt>
<trkpt lat="45.9401340" lon="9.5512000">
	<ele>1717.20</ele>
	<time>2023-10-07T09:17:22.000Z</time>
</trkpt>
<trkpt lat="45.9401350" lon="9.5511950">
	<ele>1717.40</ele>
	<time>2023-10-07T09:17:23.000Z</time>
</trkpt>
<trkpt lat="45.9401370" lon="9.5511920">
	<ele>1717.40</ele>
	<time>2023-10-07T09:17:24.000Z</time>
</trkpt>
<trkpt lat="45.9401420" lon="9.5511910">
	<ele>1717.60</ele>
	<time>2023-10-07T09:17:25.000Z</time>
</trkpt>
<trkpt lat="45.9401460" lon="9.5511900">
	<ele>1717.60</ele>
	<time>2023-10-07T09:17:26.000Z</time>
</trkpt>
<trkpt lat="45.9401480" lon="9.5511880">
	<ele>1717.80</ele>
	<time>2023-10-07T09:17:27.000Z</time>
</trkpt>
<trkpt lat="45.9401510" lon="9.5511860">
	<ele>1718.00</ele>
	<time>2023-10-07T09:17:28.000Z</time>
</trkpt>
<trkpt lat="45.9401540" lon="9.5511860">
	<ele>1718.20</ele>
	<time>2023-10-07T09:17:29.000Z</time>
</trkpt>
<trkpt lat="45.9401550" lon="9.5511840">
	<ele>1718.20</ele>
	<time>2023-10-07T09:17:30.000Z</time>
</trkpt>
<trkpt lat="45.9401570" lon="9.5511820">
	<ele>1718.20</ele>
	<time>2023-10-07T09:17:31.000Z</time>
</trkpt>
<trkpt lat="45.9401600" lon="9.5511800">
	<ele>1718.20</ele>
	<time>2023-10-07T09:17:32.000Z</time>
</trkpt>
<trkpt lat="45.9401600" lon="9.5511800">
	<ele>1718.60</ele>
	<time>2023-10-07T09:17:33.000Z</time>
</trkpt>
<trkpt lat="45.9401610" lon="9.5511780">
	<ele>1718.80</ele>
	<time>2023-10-07T09:17:34.000Z</time>
</trkpt>
<trkpt lat="45.9401620" lon="9.5511760">
	<ele>1718.80</ele>
	<time>2023-10-07T09:17:35.000Z</time>
</trkpt>
<trkpt lat="45.9401630" lon="9.5511760">
	<ele>1719.00</ele>
	<time>2023-10-07T09:17:36.000Z</time>
</trkpt>
<trkpt lat="45.9401630" lon="9.5511740">
	<ele>1719.00</ele>
	<time>2023-10-07T09:17:37.000Z</time>
</trkpt>
<trkpt lat="45.9401630" lon="9.5511720">
	<ele>1719.20</ele>
	<time>2023-10-07T09:17:38.000Z</time>
</trkpt>
<trkpt lat="45.9401640" lon="9.5511710">
	<ele>1719.20</ele>
	<time>2023-10-07T09:17:39.000Z</time>
</trkpt>
<trkpt lat="45.9401650" lon="9.5511650">
	<ele>1719.40</ele>
	<time>2023-10-07T09:17:40.000Z</time>
</trkpt>
<trkpt lat="45.9401680" lon="9.5511640">
	<ele>1719.40</ele>
	<time>2023-10-07T09:17:41.000Z</time>
</trkpt>
<trkpt lat="45.9401730" lon="9.5511610">
	<ele>1719.60</ele>
	<time>2023-10-07T09:17:42.000Z</time>
</trkpt>
<trkpt lat="45.9401760" lon="9.5511610">
	<ele>1719.80</ele>
	<time>2023-10-07T09:17:43.000Z</time>
</trkpt>
<trkpt lat="45.9401780" lon="9.5511610">
	<ele>1720.20</ele>
	<time>2023-10-07T09:17:44.000Z</time>
</trkpt>
<trkpt lat="45.9401800" lon="9.5511610">
	<ele>1720.20</ele>
	<time>2023-10-07T09:17:45.000Z</time>
</trkpt>
<trkpt lat="45.9401800" lon="9.5511570">
	<ele>1720.40</ele>
	<time>2023-10-07T09:17:46.000Z</time>
</trkpt>
<trkpt lat="45.9401810" lon="9.5511550">
	<ele>1720.40</ele>
	<time>2023-10-07T09:17:47.000Z</time>
</trkpt>
<trkpt lat="45.9401850" lon="9.5511540">
	<ele>1720.60</ele>
	<time>2023-10-07T09:17:48.000Z</time>
</trkpt>
<trkpt lat="45.9401890" lon="9.5511530">
	<ele>1720.60</ele>
	<time>2023-10-07T09:17:49.000Z</time>
</trkpt>
<trkpt lat="45.9401910" lon="9.5511500">
	<ele>1720.80</ele>
	<time>2023-10-07T09:17:50.000Z</time>
</trkpt>
<trkpt lat="45.9401950" lon="9.5511490">
	<ele>1720.80</ele>
	<time>2023-10-07T09:17:51.000Z</time>
</trkpt>
<trkpt lat="45.9401990" lon="9.5511480">
	<ele>1721.20</ele>
	<time>2023-10-07T09:17:52.000Z</time>
</trkpt>
<trkpt lat="45.9402050" lon="9.5511480">
	<ele>1721.40</ele>
	<time>2023-10-07T09:17:53.000Z</time>
</trkpt>
<trkpt lat="45.9402080" lon="9.5511480">
	<ele>1721.80</ele>
	<time>2023-10-07T09:17:54.000Z</time>
</trkpt>
<trkpt lat="45.9402120" lon="9.5511440">
	<ele>1721.80</ele>
	<time>2023-10-07T09:17:55.000Z</time>
</trkpt>
<trkpt lat="45.9402150" lon="9.5511410">
	<ele>1722.00</ele>
	<time>2023-10-07T09:17:56.000Z</time>
</trkpt>
<trkpt lat="45.9402180" lon="9.5511390">
	<ele>1722.00</ele>
	<time>2023-10-07T09:17:57.000Z</time>
</trkpt>
<trkpt lat="45.9402200" lon="9.5511340">
	<ele>1722.20</ele>
	<time>2023-10-07T09:17:58.000Z</time>
</trkpt>
<trkpt lat="45.9402220" lon="9.5511310">
	<ele>1722.20</ele>
	<time>2023-10-07T09:17:59.000Z</time>
</trkpt>
<trkpt lat="45.9402260" lon="9.5511290">
	<ele>1722.40</ele>
	<time>2023-10-07T09:18:00.000Z</time>
</trkpt>
<trkpt lat="45.9402300" lon="9.5511270">
	<ele>1722.40</ele>
	<time>2023-10-07T09:18:01.000Z</time>
</trkpt>
<trkpt lat="45.9402310" lon="9.5511250">
	<ele>1722.60</ele>
	<time>2023-10-07T09:18:02.000Z</time>
</trkpt>
<trkpt lat="45.9402340" lon="9.5511230">
	<ele>1722.80</ele>
	<time>2023-10-07T09:18:03.000Z</time>
</trkpt>
<trkpt lat="45.9402370" lon="9.5511200">
	<ele>1723.20</ele>
	<time>2023-10-07T09:18:04.000Z</time>
</trkpt>
<trkpt lat="45.9402400" lon="9.5511170">
	<ele>1723.40</ele>
	<time>2023-10-07T09:18:05.000Z</time>
</trkpt>
<trkpt lat="45.9402390" lon="9.5511150">
	<ele>1723.40</ele>
	<time>2023-10-07T09:18:06.000Z</time>
</trkpt>
<trkpt lat="45.9402410" lon="9.5511160">
	<ele>1723.60</ele>
	<time>2023-10-07T09:18:07.000Z</time>
</trkpt>
<trkpt lat="45.9402430" lon="9.5511120">
	<ele>1723.60</ele>
	<time>2023-10-07T09:18:08.000Z</time>
</trkpt>
<trkpt lat="45.9402460" lon="9.5511080">
	<ele>1723.60</ele>
	<time>2023-10-07T09:18:09.000Z</time>
</trkpt>
<trkpt lat="45.9402470" lon="9.5511060">
	<ele>1723.80</ele>
	<time>2023-10-07T09:18:10.000Z</time>
</trkpt>
<trkpt lat="45.9402480" lon="9.5511020">
	<ele>1724.00</ele>
	<time>2023-10-07T09:18:11.000Z</time>
</trkpt>
<trkpt lat="45.9402500" lon="9.5510970">
	<ele>1724.00</ele>
	<time>2023-10-07T09:18:12.000Z</time>
</trkpt>
<trkpt lat="45.9402510" lon="9.5510950">
	<ele>1724.20</ele>
	<time>2023-10-07T09:18:13.000Z</time>
</trkpt>
<trkpt lat="45.9402520" lon="9.5510930">
	<ele>1724.40</ele>
	<time>2023-10-07T09:18:14.000Z</time>
</trkpt>
<trkpt lat="45.9402530" lon="9.5510920">
	<ele>1724.60</ele>
	<time>2023-10-07T09:18:15.000Z</time>
</trkpt>
<trkpt lat="45.9402530" lon="9.5510890">
	<ele>1724.80</ele>
	<time>2023-10-07T09:18:16.000Z</time>
</trkpt>
<trkpt lat="45.9402520" lon="9.5510820">
	<ele>1724.80</ele>
	<time>2023-10-07T09:18:17.000Z</time>
</trkpt>
<trkpt lat="45.9402520" lon="9.5510750">
	<ele>1725.00</ele>
	<time>2023-10-07T09:18:18.000Z</time>
</trkpt>
<trkpt lat="45.9402540" lon="9.5510680">
	<ele>1725.00</ele>
	<time>2023-10-07T09:18:19.000Z</time>
</trkpt>
<trkpt lat="45.9402560" lon="9.5510610">
	<ele>1725.00</ele>
	<time>2023-10-07T09:18:20.000Z</time>
</trkpt>
<trkpt lat="45.9402580" lon="9.5510580">
	<ele>1725.40</ele>
	<time>2023-10-07T09:18:21.000Z</time>
</trkpt>
<trkpt lat="45.9402600" lon="9.5510520">
	<ele>1725.60</ele>
	<time>2023-10-07T09:18:22.000Z</time>
</trkpt>
<trkpt lat="45.9402620" lon="9.5510480">
	<ele>1725.60</ele>
	<time>2023-10-07T09:18:23.000Z</time>
</trkpt>
<trkpt lat="45.9402650" lon="9.5510440">
	<ele>1725.80</ele>
	<time>2023-10-07T09:18:24.000Z</time>
</trkpt>
<trkpt lat="45.9402680" lon="9.5510420">
	<ele>1725.80</ele>
	<time>2023-10-07T09:18:25.000Z</time>
</trkpt>
<trkpt lat="45.9402680" lon="9.5510410">
	<ele>1726.00</ele>
	<time>2023-10-07T09:18:26.000Z</time>
</trkpt>
<trkpt lat="45.9402700" lon="9.5510380">
	<ele>1726.00</ele>
	<time>2023-10-07T09:18:27.000Z</time>
</trkpt>
<trkpt lat="45.9402720" lon="9.5510330">
	<ele>1726.00</ele>
	<time>2023-10-07T09:18:28.000Z</time>
</trkpt>
<trkpt lat="45.9402750" lon="9.5510270">
	<ele>1726.20</ele>
	<time>2023-10-07T09:18:29.000Z</time>
</trkpt>
<trkpt lat="45.9402750" lon="9.5510230">
	<ele>1726.40</ele>
	<time>2023-10-07T09:18:30.000Z</time>
</trkpt>
<trkpt lat="45.9402720" lon="9.5510160">
	<ele>1726.40</ele>
	<time>2023-10-07T09:18:31.000Z</time>
</trkpt>
<trkpt lat="45.9402730" lon="9.5510110">
	<ele>1726.60</ele>
	<time>2023-10-07T09:18:32.000Z</time>
</trkpt>
<trkpt lat="45.9402730" lon="9.5510070">
	<ele>1726.80</ele>
	<time>2023-10-07T09:18:33.000Z</time>
</trkpt>
<trkpt lat="45.9402730" lon="9.5510040">
	<ele>1727.00</ele>
	<time>2023-10-07T09:18:34.000Z</time>
</trkpt>
<trkpt lat="45.9402730" lon="9.5510000">
	<ele>1727.00</ele>
	<time>2023-10-07T09:18:35.000Z</time>
</trkpt>
<trkpt lat="45.9402720" lon="9.5509950">
	<ele>1727.20</ele>
	<time>2023-10-07T09:18:36.000Z</time>
</trkpt>
<trkpt lat="45.9402740" lon="9.5509880">
	<ele>1727.20</ele>
	<time>2023-10-07T09:18:37.000Z</time>
</trkpt>
<trkpt lat="45.9402740" lon="9.5509770">
	<ele>1727.40</ele>
	<time>2023-10-07T09:18:38.000Z</time>
</trkpt>
<trkpt lat="45.9402730" lon="9.5509710">
	<ele>1727.60</ele>
	<time>2023-10-07T09:18:39.000Z</time>
</trkpt>
<trkpt lat="45.9402770" lon="9.5509640">
	<ele>1727.80</ele>
	<time>2023-10-07T09:18:40.000Z</time>
</trkpt>
<trkpt lat="45.9402790" lon="9.5509610">
	<ele>1728.00</ele>
	<time>2023-10-07T09:18:41.000Z</time>
</trkpt>
<trkpt lat="45.9402820" lon="9.5509590">
	<ele>1728.00</ele>
	<time>2023-10-07T09:18:42.000Z</time>
</trkpt>
<trkpt lat="45.9402840" lon="9.5509570">
	<ele>1728.20</ele>
	<time>2023-10-07T09:18:43.000Z</time>
</trkpt>
<trkpt lat="45.9402840" lon="9.5509530">
	<ele>1728.40</ele>
	<time>2023-10-07T09:18:44.000Z</time>
</trkpt>
<trkpt lat="45.9402840" lon="9.5509490">
	<ele>1728.40</ele>
	<time>2023-10-07T09:18:45.000Z</time>
</trkpt>
<trkpt lat="45.9402840" lon="9.5509460">
	<ele>1728.60</ele>
	<time>2023-10-07T09:18:46.000Z</time>
</trkpt>
<trkpt lat="45.9402850" lon="9.5509450">
	<ele>1728.60</ele>
	<time>2023-10-07T09:18:47.000Z</time>
</trkpt>
<trkpt lat="45.9402810" lon="9.5509400">
	<ele>1728.60</ele>
	<time>2023-10-07T09:18:48.000Z</time>
</trkpt>
<trkpt lat="45.9402810" lon="9.5509330">
	<ele>1728.80</ele>
	<time>2023-10-07T09:18:49.000Z</time>
</trkpt>
<trkpt lat="45.9402800" lon="9.5509290">
	<ele>1729.00</ele>
	<time>2023-10-07T09:18:50.000Z</time>
</trkpt>
<trkpt lat="45.9402790" lon="9.5509250">
	<ele>1729.40</ele>
	<time>2023-10-07T09:18:51.000Z</time>
</trkpt>
<trkpt lat="45.9402790" lon="9.5509170">
	<ele>1729.60</ele>
	<time>2023-10-07T09:18:52.000Z</time>
</trkpt>
<trkpt lat="45.9402820" lon="9.5509090">
	<ele>1729.80</ele>
	<time>2023-10-07T09:18:53.000Z</time>
</trkpt>
<trkpt lat="45.9402840" lon="9.5509040">
	<ele>1729.80</ele>
	<time>2023-10-07T09:18:54.000Z</time>
</trkpt>
<trkpt lat="45.9402850" lon="9.5508990">
	<ele>1730.00</ele>
	<time>2023-10-07T09:18:55.000Z</time>
</trkpt>
<trkpt lat="45.9402880" lon="9.5508920">
	<ele>1730.00</ele>
	<time>2023-10-07T09:18:56.000Z</time>
</trkpt>
<trkpt lat="45.9402900" lon="9.5508870">
	<ele>1730.00</ele>
	<time>2023-10-07T09:18:57.000Z</time>
</trkpt>
<trkpt lat="45.9402920" lon="9.5508850">
	<ele>1730.20</ele>
	<time>2023-10-07T09:18:58.000Z</time>
</trkpt>
<trkpt lat="45.9402930" lon="9.5508820">
	<ele>1730.40</ele>
	<time>2023-10-07T09:18:59.000Z</time>
</trkpt>
<trkpt lat="45.9402930" lon="9.5508800">
	<ele>1730.40</ele>
	<time>2023-10-07T09:19:00.000Z</time>
</trkpt>
<trkpt lat="45.9402910" lon="9.5508760">
	<ele>1730.60</ele>
	<time>2023-10-07T09:19:01.000Z</time>
</trkpt>
<trkpt lat="45.9402930" lon="9.5508690">
	<ele>1730.60</ele>
	<time>2023-10-07T09:19:02.000Z</time>
</trkpt>
<trkpt lat="45.9402940" lon="9.5508640">
	<ele>1730.80</ele>
	<time>2023-10-07T09:19:03.000Z</time>
</trkpt>
<trkpt lat="45.9402940" lon="9.5508580">
	<ele>1731.00</ele>
	<time>2023-10-07T09:19:04.000Z</time>
</trkpt>
<trkpt lat="45.9402990" lon="9.5508560">
	<ele>1731.20</ele>
	<time>2023-10-07T09:19:05.000Z</time>
</trkpt>
<trkpt lat="45.9403010" lon="9.5508510">
	<ele>1731.20</ele>
	<time>2023-10-07T09:19:06.000Z</time>
</trkpt>
<trkpt lat="45.9403030" lon="9.5508500">
	<ele>1731.40</ele>
	<time>2023-10-07T09:19:07.000Z</time>
</trkpt>
<trkpt lat="45.9403050" lon="9.5508460">
	<ele>1731.40</ele>
	<time>2023-10-07T09:19:08.000Z</time>
</trkpt>
<trkpt lat="45.9403110" lon="9.5508460">
	<ele>1731.40</ele>
	<time>2023-10-07T09:19:09.000Z</time>
</trkpt>
<trkpt lat="45.9403100" lon="9.5508400">
	<ele>1731.60</ele>
	<time>2023-10-07T09:19:10.000Z</time>
</trkpt>
<trkpt lat="45.9403090" lon="9.5508320">
	<ele>1731.80</ele>
	<time>2023-10-07T09:19:11.000Z</time>
</trkpt>
<trkpt lat="45.9403100" lon="9.5508230">
	<ele>1731.80</ele>
	<time>2023-10-07T09:19:12.000Z</time>
</trkpt>
<trkpt lat="45.9403120" lon="9.5508200">
	<ele>1732.00</ele>
	<time>2023-10-07T09:19:13.000Z</time>
</trkpt>
<trkpt lat="45.9403140" lon="9.5508160">
	<ele>1732.40</ele>
	<time>2023-10-07T09:19:14.000Z</time>
</trkpt>
<trkpt lat="45.9403150" lon="9.5508150">
	<ele>1732.60</ele>
	<time>2023-10-07T09:19:15.000Z</time>
</trkpt>
<trkpt lat="45.9403190" lon="9.5508100">
	<ele>1732.80</ele>
	<time>2023-10-07T09:19:16.000Z</time>
</trkpt>
<trkpt lat="45.9403210" lon="9.5508030">
	<ele>1732.80</ele>
	<time>2023-10-07T09:19:17.000Z</time>
</trkpt>
<trkpt lat="45.9403220" lon="9.5507970">
	<ele>1733.00</ele>
	<time>2023-10-07T09:19:18.000Z</time>
</trkpt>
<trkpt lat="45.9403230" lon="9.5507920">
	<ele>1733.00</ele>
	<time>2023-10-07T09:19:19.000Z</time>
</trkpt>
<trkpt lat="45.9403250" lon="9.5507890">
	<ele>1733.20</ele>
	<time>2023-10-07T09:19:20.000Z</time>
</trkpt>
<trkpt lat="45.9403270" lon="9.5507860">
	<ele>1733.20</ele>
	<time>2023-10-07T09:19:21.000Z</time>
</trkpt>
<trkpt lat="45.9403290" lon="9.5507810">
	<ele>1733.40</ele>
	<time>2023-10-07T09:19:22.000Z</time>
</trkpt>
<trkpt lat="45.9403290" lon="9.5507760">
	<ele>1733.60</ele>
	<time>2023-10-07T09:19:23.000Z</time>
</trkpt>
<trkpt lat="45.9403300" lon="9.5507720">
	<ele>1733.80</ele>
	<time>2023-10-07T09:19:24.000Z</time>
</trkpt>
<trkpt lat="45.9403320" lon="9.5507690">
	<ele>1733.80</ele>
	<time>2023-10-07T09:19:25.000Z</time>
</trkpt>
<trkpt lat="45.9403330" lon="9.5507660">
	<ele>1734.20</ele>
	<time>2023-10-07T09:19:26.000Z</time>
</trkpt>
<trkpt lat="45.9403330" lon="9.5507650">
	<ele>1734.20</ele>
	<time>2023-10-07T09:19:27.000Z</time>
</trkpt>
<trkpt lat="45.9403320" lon="9.5507620">
	<ele>1734.40</ele>
	<time>2023-10-07T09:19:28.000Z</time>
</trkpt>
<trkpt lat="45.9403330" lon="9.5507590">
	<ele>1734.40</ele>
	<time>2023-10-07T09:19:29.000Z</time>
</trkpt>
<trkpt lat="45.9403340" lon="9.5507520">
	<ele>1734.40</ele>
	<time>2023-10-07T09:19:30.000Z</time>
</trkpt>
<trkpt lat="45.9403350" lon="9.5507460">
	<ele>1734.60</ele>
	<time>2023-10-07T09:19:31.000Z</time>
</trkpt>
<trkpt lat="45.9403380" lon="9.5507420">
	<ele>1734.60</ele>
	<time>2023-10-07T09:19:32.000Z</time>
</trkpt>
<trkpt lat="45.9403400" lon="9.5507370">
	<ele>1735.00</ele>
	<time>2023-10-07T09:19:33.000Z</time>
</trkpt>
<trkpt lat="45.9403410" lon="9.5507290">
	<ele>1735.00</ele>
	<time>2023-10-07T09:19:34.000Z</time>
</trkpt>
<trkpt lat="45.9403430" lon="9.5507240">
	<ele>1735.40</ele>
	<time>2023-10-07T09:19:35.000Z</time>
</trkpt>
<trkpt lat="45.9403440" lon="9.5507200">
	<ele>1735.60</ele>
	<time>2023-10-07T09:19:36.000Z</time>
</trkpt>
<trkpt lat="45.9403450" lon="9.5507160">
	<ele>1735.80</ele>
	<time>2023-10-07T09:19:37.000Z</time>
</trkpt>
<trkpt lat="45.9403460" lon="9.5507120">
	<ele>1736.00</ele>
	<time>2023-10-07T09:19:38.000Z</time>
</trkpt>
<trkpt lat="45.9403490" lon="9.5507090">
	<ele>1736.00</ele>
	<time>2023-10-07T09:19:39.000Z</time>
</trkpt>
<trkpt lat="45.9403520" lon="9.5507060">
	<ele>1736.20</ele>
	<time>2023-10-07T09:19:40.000Z</time>
</trkpt>
<trkpt lat="45.9403530" lon="9.5507050">
	<ele>1736.40</ele>
	<time>2023-10-07T09:19:41.000Z</time>
</trkpt>
<trkpt lat="45.9403520" lon="9.5507020">
	<ele>1736.40</ele>
	<time>2023-10-07T09:19:42.000Z</time>
</trkpt>
<trkpt lat="45.9403500" lon="9.5506980">
	<ele>1736.40</ele>
	<time>2023-10-07T09:19:43.000Z</time>
</trkpt>
<trkpt lat="45.9403510" lon="9.5506880">
	<ele>1736.40</ele>
	<time>2023-10-07T09:19:44.000Z</time>
</trkpt>
<trkpt lat="45.9403510" lon="9.5506830">
	<ele>1736.40</ele>
	<time>2023-10-07T09:19:45.000Z</time>
</trkpt>
<trkpt lat="45.9403510" lon="9.5506790">
	<ele>1736.60</ele>
	<time>2023-10-07T09:19:46.000Z</time>
</trkpt>
<trkpt lat="45.9403490" lon="9.5506780">
	<ele>1736.60</ele>
	<time>2023-10-07T09:19:47.000Z</time>
</trkpt>
<trkpt lat="45.9403450" lon="9.5506770">
	<ele>1736.60</ele>
	<time>2023-10-07T09:19:48.000Z</time>
</trkpt>
<trkpt lat="45.9403430" lon="9.5506770">
	<ele>1736.80</ele>
	<time>2023-10-07T09:19:49.000Z</time>
</trkpt>
<trkpt lat="45.9403420" lon="9.5506770">
	<ele>1737.00</ele>
	<time>2023-10-07T09:19:50.000Z</time>
</trkpt>
<trkpt lat="45.9403400" lon="9.5506770">
	<ele>1737.20</ele>
	<time>2023-10-07T09:19:51.000Z</time>
</trkpt>
<trkpt lat="45.9403370" lon="9.5506820">
	<ele>1737.20</ele>
	<time>2023-10-07T09:19:52.000Z</time>
</trkpt>
<trkpt lat="45.9403320" lon="9.5506830">
	<ele>1737.20</ele>
	<time>2023-10-07T09:19:53.000Z</time>
</trkpt>
<trkpt lat="45.9403290" lon="9.5506800">
	<ele>1737.40</ele>
	<time>2023-10-07T09:19:54.000Z</time>
</trkpt>
<trkpt lat="45.9403250" lon="9.5506790">
	<ele>1737.40</ele>
	<time>2023-10-07T09:19:55.000Z</time>
</trkpt>
<trkpt lat="45.9403210" lon="9.5506780">
	<ele>1737.40</ele>
	<time>2023-10-07T09:19:56.000Z</time>
</trkpt>
<trkpt lat="45.9403180" lon="9.5506770">
	<ele>1737.80</ele>
	<time>2023-10-07T09:19:57.000Z</time>
</trkpt>
<trkpt lat="45.9403140" lon="9.5506750">
	<ele>1738.00</ele>
	<time>2023-10-07T09:19:58.000Z</time>
</trkpt>
<trkpt lat="45.9403130" lon="9.5506740">
	<ele>1738.20</ele>
	<time>2023-10-07T09:19:59.000Z</time>
</trkpt>
<trkpt lat="45.9403130" lon="9.5506750">
	<ele>1738.40</ele>
	<time>2023-10-07T09:20:00.000Z</time>
</trkpt>
<trkpt lat="45.9403100" lon="9.5506750">
	<ele>1738.60</ele>
	<time>2023-10-07T09:20:01.000Z</time>
</trkpt>
<trkpt lat="45.9403080" lon="9.5506760">
	<ele>1738.80</ele>
	<time>2023-10-07T09:20:02.000Z</time>
</trkpt>
<trkpt lat="45.9403040" lon="9.5506790">
	<ele>1738.80</ele>
	<time>2023-10-07T09:20:03.000Z</time>
</trkpt>
<trkpt lat="45.9402980" lon="9.5506820">
	<ele>1739.00</ele>
	<time>2023-10-07T09:20:04.000Z</time>
</trkpt>
<trkpt lat="45.9402950" lon="9.5506840">
	<ele>1739.00</ele>
	<time>2023-10-07T09:20:05.000Z</time>
</trkpt>
<trkpt lat="45.9402920" lon="9.5506820">
	<ele>1739.00</ele>
	<time>2023-10-07T09:20:06.000Z</time>
</trkpt>
<trkpt lat="45.9402880" lon="9.5506800">
	<ele>1739.20</ele>
	<time>2023-10-07T09:20:07.000Z</time>
</trkpt>
<trkpt lat="45.9402860" lon="9.5506780">
	<ele>1739.40</ele>
	<time>2023-10-07T09:20:08.000Z</time>
</trkpt>
<trkpt lat="45.9402830" lon="9.5506760">
	<ele>1739.40</ele>
	<time>2023-10-07T09:20:09.000Z</time>
</trkpt>
<trkpt lat="45.9402810" lon="9.5506750">
	<ele>1739.60</ele>
	<time>2023-10-07T09:20:10.000Z</time>
</trkpt>
<trkpt lat="45.9402770" lon="9.5506740">
	<ele>1740.00</ele>
	<time>2023-10-07T09:20:11.000Z</time>
</trkpt>
<trkpt lat="45.9402760" lon="9.5506750">
	<ele>1740.00</ele>
	<time>2023-10-07T09:20:12.000Z</time>
</trkpt>
<trkpt lat="45.9402740" lon="9.5506810">
	<ele>1740.20</ele>
	<time>2023-10-07T09:20:13.000Z</time>
</trkpt>
<trkpt lat="45.9402690" lon="9.5506850">
	<ele>1740.20</ele>
	<time>2023-10-07T09:20:14.000Z</time>
</trkpt>
<trkpt lat="45.9402650" lon="9.5506840">
	<ele>1740.40</ele>
	<time>2023-10-07T09:20:15.000Z</time>
</trkpt>
<trkpt lat="45.9402620" lon="9.5506810">
	<ele>1740.60</ele>
	<time>2023-10-07T09:20:16.000Z</time>
</trkpt>
<trkpt lat="45.9402600" lon="9.5506800">
	<ele>1740.80</ele>
	<time>2023-10-07T09:20:17.000Z</time>
</trkpt>
<trkpt lat="45.9402550" lon="9.5506790">
	<ele>1740.80</ele>
	<time>2023-10-07T09:20:18.000Z</time>
</trkpt>
<trkpt lat="45.9402560" lon="9.5506740">
	<ele>1741.00</ele>
	<time>2023-10-07T09:20:19.000Z</time>
</trkpt>
<trkpt lat="45.9402550" lon="9.5506680">
	<ele>1741.20</ele>
	<time>2023-10-07T09:20:20.000Z</time>
</trkpt>
<trkpt lat="45.9402550" lon="9.5506650">
	<ele>1741.40</ele>
	<time>2023-10-07T09:20:21.000Z</time>
</trkpt>
<trkpt lat="45.9402540" lon="9.5506620">
	<ele>1741.40</ele>
	<time>2023-10-07T09:20:22.000Z</time>
</trkpt>
<trkpt lat="45.9402530" lon="9.5506600">
	<ele>1741.60</ele>
	<time>2023-10-07T09:20:23.000Z</time>
</trkpt>
<trkpt lat="45.9402510" lon="9.5506610">
	<ele>1741.60</ele>
	<time>2023-10-07T09:20:24.000Z</time>
</trkpt>
<trkpt lat="45.9402490" lon="9.5506590">
	<ele>1741.80</ele>
	<time>2023-10-07T09:20:25.000Z</time>
</trkpt>
<trkpt lat="45.9402470" lon="9.5506570">
	<ele>1741.80</ele>
	<time>2023-10-07T09:20:26.000Z</time>
</trkpt>
<trkpt lat="45.9402450" lon="9.5506560">
	<ele>1742.00</ele>
	<time>2023-10-07T09:20:27.000Z</time>
</trkpt>
<trkpt lat="45.9402410" lon="9.5506550">
	<ele>1742.20</ele>
	<time>2023-10-07T09:20:28.000Z</time>
</trkpt>
<trkpt lat="45.9402380" lon="9.5506530">
	<ele>1742.20</ele>
	<time>2023-10-07T09:20:29.000Z</time>
</trkpt>
<trkpt lat="45.9402360" lon="9.5506540">
	<ele>1742.40</ele>
	<time>2023-10-07T09:20:30.000Z</time>
</trkpt>
<trkpt lat="45.9402320" lon="9.5506540">
	<ele>1742.60</ele>
	<time>2023-10-07T09:20:31.000Z</time>
</trkpt>
<trkpt lat="45.9402270" lon="9.5506530">
	<ele>1742.60</ele>
	<time>2023-10-07T09:20:32.000Z</time>
</trkpt>
<trkpt lat="45.9402240" lon="9.5506520">
	<ele>1742.80</ele>
	<time>2023-10-07T09:20:33.000Z</time>
</trkpt>
<trkpt lat="45.9402220" lon="9.5506490">
	<ele>1742.80</ele>
	<time>2023-10-07T09:20:34.000Z</time>
</trkpt>
<trkpt lat="45.9402200" lon="9.5506450">
	<ele>1742.80</ele>
	<time>2023-10-07T09:20:35.000Z</time>
</trkpt>
<trkpt lat="45.9402160" lon="9.5506410">
	<ele>1742.80</ele>
	<time>2023-10-07T09:20:36.000Z</time>
</trkpt>
<trkpt lat="45.9402140" lon="9.5506430">
	<ele>1743.20</ele>
	<time>2023-10-07T09:20:37.000Z</time>
</trkpt>
<trkpt lat="45.9402110" lon="9.5506420">
	<ele>1743.60</ele>
	<time>2023-10-07T09:20:38.000Z</time>
</trkpt>
<trkpt lat="45.9402080" lon="9.5506410">
	<ele>1743.60</ele>
	<time>2023-10-07T09:20:39.000Z</time>
</trkpt>
<trkpt lat="45.9402060" lon="9.5506400">
	<ele>1743.80</ele>
	<time>2023-10-07T09:20:40.000Z</time>
</trkpt>
<trkpt lat="45.9402040" lon="9.5506420">
	<ele>1744.00</ele>
	<time>2023-10-07T09:20:41.000Z</time>
</trkpt>
<trkpt lat="45.9402030" lon="9.5506430">
	<ele>1744.20</ele>
	<time>2023-10-07T09:20:42.000Z</time>
</trkpt>
<trkpt lat="45.9402010" lon="9.5506430">
	<ele>1744.20</ele>
	<time>2023-10-07T09:20:43.000Z</time>
</trkpt>
<trkpt lat="45.9401970" lon="9.5506430">
	<ele>1744.40</ele>
	<time>2023-10-07T09:20:44.000Z</time>
</trkpt>
<trkpt lat="45.9401950" lon="9.5506400">
	<ele>1744.40</ele>
	<time>2023-10-07T09:20:45.000Z</time>
</trkpt>
<trkpt lat="45.9401920" lon="9.5506330">
	<ele>1744.40</ele>
	<time>2023-10-07T09:20:46.000Z</time>
</trkpt>
<trkpt lat="45.9401910" lon="9.5506260">
	<ele>1744.60</ele>
	<time>2023-10-07T09:20:47.000Z</time>
</trkpt>
<trkpt lat="45.9401930" lon="9.5506190">
	<ele>1744.80</ele>
	<time>2023-10-07T09:20:48.000Z</time>
</trkpt>
<trkpt lat="45.9401940" lon="9.5506120">
	<ele>1745.00</ele>
	<time>2023-10-07T09:20:49.000Z</time>
</trkpt>
<trkpt lat="45.9401970" lon="9.5506040">
	<ele>1745.20</ele>
	<time>2023-10-07T09:20:50.000Z</time>
</trkpt>
<trkpt lat="45.9402010" lon="9.5506010">
	<ele>1745.40</ele>
	<time>2023-10-07T09:20:51.000Z</time>
</trkpt>
<trkpt lat="45.9402040" lon="9.5506010">
	<ele>1745.40</ele>
	<time>2023-10-07T09:20:52.000Z</time>
</trkpt>
<trkpt lat="45.9402060" lon="9.5506010">
	<ele>1745.40</ele>
	<time>2023-10-07T09:20:53.000Z</time>
</trkpt>
<trkpt lat="45.9402100" lon="9.5505970">
	<ele>1745.60</ele>
	<time>2023-10-07T09:20:54.000Z</time>
</trkpt>
<trkpt lat="45.9402100" lon="9.5505940">
	<ele>1745.80</ele>
	<time>2023-10-07T09:20:55.000Z</time>
</trkpt>
<trkpt lat="45.9402080" lon="9.5505920">
	<ele>1745.80</ele>
	<time>2023-10-07T09:20:56.000Z</time>
</trkpt>
<trkpt lat="45.9402050" lon="9.5505890">
	<ele>1745.80</ele>
	<time>2023-10-07T09:20:57.000Z</time>
</trkpt>
<trkpt lat="45.9402030" lon="9.5505850">
	<ele>1745.80</ele>
	<time>2023-10-07T09:20:58.000Z</time>
</trkpt>
<trkpt lat="45.9402030" lon="9.5505770">
	<ele>1746.20</ele>
	<time>2023-10-07T09:20:59.000Z</time>
</trkpt>
<trkpt lat="45.9402050" lon="9.5505690">
	<ele>1746.40</ele>
	<time>2023-10-07T09:21:00.000Z</time>
</trkpt>
<trkpt lat="45.9402060" lon="9.5505650">
	<ele>1746.60</ele>
	<time>2023-10-07T09:21:01.000Z</time>
</trkpt>
<trkpt lat="45.9402080" lon="9.5505620">
	<ele>1746.80</ele>
	<time>2023-10-07T09:21:02.000Z</time>
</trkpt>
<trkpt lat="45.9402110" lon="9.5505580">
	<ele>1746.80</ele>
	<time>2023-10-07T09:21:03.000Z</time>
</trkpt>
<trkpt lat="45.9402130" lon="9.5505550">
	<ele>1747.00</ele>
	<time>2023-10-07T09:21:04.000Z</time>
</trkpt>
<trkpt lat="45.9402150" lon="9.5505510">
	<ele>1747.00</ele>
	<time>2023-10-07T09:21:05.000Z</time>
</trkpt>
<trkpt lat="45.9402140" lon="9.5505500">
	<ele>1747.00</ele>
	<time>2023-10-07T09:21:06.000Z</time>
</trkpt>
<trkpt lat="45.9402120" lon="9.5505500">
	<ele>1747.20</ele>
	<time>2023-10-07T09:21:07.000Z</time>
</trkpt>
<trkpt lat="45.9402110" lon="9.5505480">
	<ele>1747.20</ele>
	<time>2023-10-07T09:21:08.000Z</time>
</trkpt>
<trkpt lat="45.9402070" lon="9.5505470">
	<ele>1747.40</ele>
	<time>2023-10-07T09:21:09.000Z</time>
</trkpt>
<trkpt lat="45.9402050" lon="9.5505440">
	<ele>1747.60</ele>
	<time>2023-10-07T09:21:10.000Z</time>
</trkpt>
<trkpt lat="45.9402030" lon="9.5505400">
	<ele>1747.60</ele>
	<time>2023-10-07T09:21:11.000Z</time>
</trkpt>
<trkpt lat="45.9402010" lon="9.5505350">
	<ele>1747.80</ele>
	<time>2023-10-07T09:21:12.000Z</time>
</trkpt>
<trkpt lat="45.9402030" lon="9.5505330">
	<ele>1748.00</ele>
	<time>2023-10-07T09:21:13.000Z</time>
</trkpt>
<trkpt lat="45.9402050" lon="9.5505290">
	<ele>1748.00</ele>
	<time>2023-10-07T09:21:14.000Z</time>
</trkpt>
<trkpt lat="45.9402060" lon="9.5505270">
	<ele>1748.20</ele>
	<time>2023-10-07T09:21:15.000Z</time>
</trkpt>
<trkpt lat="45.9402080" lon="9.5505260">
	<ele>1748.40</ele>
	<time>2023-10-07T09:21:16.000Z</time>
</trkpt>
<trkpt lat="45.9402090" lon="9.5505230">
	<ele>1748.40</ele>
	<time>2023-10-07T09:21:17.000Z</time>
</trkpt>
<trkpt lat="45.9402110" lon="9.5505190">
	<ele>1748.60</ele>
	<time>2023-10-07T09:21:18.000Z</time>
</trkpt>
<trkpt lat="45.9402110" lon="9.5505160">
	<ele>1748.60</ele>
	<time>2023-10-07T09:21:19.000Z</time>
</trkpt>
<trkpt lat="45.9402120" lon="9.5505140">
	<ele>1748.60</ele>
	<time>2023-10-07T09:21:20.000Z</time>
</trkpt>
<trkpt lat="45.9402130" lon="9.5505140">
	<ele>1748.80</ele>
	<time>2023-10-07T09:21:21.000Z</time>
</trkpt>
<trkpt lat="45.9402100" lon="9.5505120">
	<ele>1748.80</ele>
	<time>2023-10-07T09:21:22.000Z</time>
</trkpt>
<trkpt lat="45.9402080" lon="9.5505120">
	<ele>1749.00</ele>
	<time>2023-10-07T09:21:23.000Z</time>
</trkpt>
<trkpt lat="45.9402060" lon="9.5505120">
	<ele>1749.40</ele>
	<time>2023-10-07T09:21:24.000Z</time>
</trkpt>
<trkpt lat="45.9402040" lon="9.5505120">
	<ele>1749.60</ele>
	<time>2023-10-07T09:21:25.000Z</time>
</trkpt>
<trkpt lat="45.9401990" lon="9.5505090">
	<ele>1749.80</ele>
	<time>2023-10-07T09:21:26.000Z</time>
</trkpt>
<trkpt lat="45.9401950" lon="9.5505060">
	<ele>1749.80</ele>
	<time>2023-10-07T09:21:27.000Z</time>
</trkpt>
<trkpt lat="45.9401910" lon="9.5505040">
	<ele>1750.00</ele>
	<time>2023-10-07T09:21:28.000Z</time>
</trkpt>
<trkpt lat="45.9401870" lon="9.5505020">
	<ele>1750.00</ele>
	<time>2023-10-07T09:21:29.000Z</time>
</trkpt>
<trkpt lat="45.9401830" lon="9.5505010">
	<ele>1750.20</ele>
	<time>2023-10-07T09:21:30.000Z</time>
</trkpt>
<trkpt lat="45.9401790" lon="9.5505020">
	<ele>1750.40</ele>
	<time>2023-10-07T09:21:31.000Z</time>
</trkpt>
<trkpt lat="45.9401770" lon="9.5505020">
	<ele>1750.60</ele>
	<time>2023-10-07T09:21:32.000Z</time>
</trkpt>
<trkpt lat="45.9401750" lon="9.5505020">
	<ele>1750.60</ele>
	<time>2023-10-07T09:21:33.000Z</time>
</trkpt>
<trkpt lat="45.9401710" lon="9.5505050">
	<ele>1750.80</ele>
	<time>2023-10-07T09:21:34.000Z</time>
</trkpt>
<trkpt lat="45.9401660" lon="9.5505070">
	<ele>1750.80</ele>
	<time>2023-10-07T09:21:35.000Z</time>
</trkpt>
<trkpt lat="45.9401610" lon="9.5505060">
	<ele>1750.80</ele>
	<time>2023-10-07T09:21:36.000Z</time>
</trkpt>
<trkpt lat="45.9401590" lon="9.5505050">
	<ele>1751.00</ele>
	<time>2023-10-07T09:21:37.000Z</time>
</trkpt>
<trkpt lat="45.9401560" lon="9.5505050">
	<ele>1751.20</ele>
	<time>2023-10-07T09:21:38.000Z</time>
</trkpt>
<trkpt lat="45.9401530" lon="9.5505050">
	<ele>1751.40</ele>
	<time>2023-10-07T09:21:39.000Z</time>
</trkpt>
<trkpt lat="45.9401500" lon="9.5505030">
	<ele>1751.40</ele>
	<time>2023-10-07T09:21:40.000Z</time>
</trkpt>
<trkpt lat="45.9401490" lon="9.5505020">
	<ele>1751.60</ele>
	<time>2023-10-07T09:21:41.000Z</time>
</trkpt>
<trkpt lat="45.9401480" lon="9.5505010">
	<ele>1751.80</ele>
	<time>2023-10-07T09:21:42.000Z</time>
</trkpt>
<trkpt lat="45.9401470" lon="9.5504980">
	<ele>1751.80</ele>
	<time>2023-10-07T09:21:43.000Z</time>
</trkpt>
<trkpt lat="45.9401450" lon="9.5504950">
	<ele>1752.00</ele>
	<time>2023-10-07T09:21:44.000Z</time>
</trkpt>
<trkpt lat="45.9401420" lon="9.5504910">
	<ele>1752.20</ele>
	<time>2023-10-07T09:21:45.000Z</time>
</trkpt>
<trkpt lat="45.9401400" lon="9.5504890">
	<ele>1752.40</ele>
	<time>2023-10-07T09:21:46.000Z</time>
</trkpt>
<trkpt lat="45.9401390" lon="9.5504910">
	<ele>1752.40</ele>
	<time>2023-10-07T09:21:47.000Z</time>
</trkpt>
<trkpt lat="45.9401370" lon="9.5504920">
	<ele>1752.40</ele>
	<time>2023-10-07T09:21:48.000Z</time>
</trkpt>
<trkpt lat="45.9401340" lon="9.5504930">
	<ele>1752.60</ele>
	<time>2023-10-07T09:21:49.000Z</time>
</trkpt>
<trkpt lat="45.9401320" lon="9.5504930">
	<ele>1752.60</ele>
	<time>2023-10-07T09:21:50.000Z</time>
</trkpt>
<trkpt lat="45.9401290" lon="9.5504900">
	<ele>1752.80</ele>
	<time>2023-10-07T09:21:51.000Z</time>
</trkpt>
<trkpt lat="45.9401290" lon="9.5504840">
	<ele>1753.00</ele>
	<time>2023-10-07T09:21:52.000Z</time>
</trkpt>
<trkpt lat="45.9401270" lon="9.5504790">
	<ele>1753.20</ele>
	<time>2023-10-07T09:21:53.000Z</time>
</trkpt>
<trkpt lat="45.9401270" lon="9.5504770">
	<ele>1753.60</ele>
	<time>2023-10-07T09:21:54.000Z</time>
</trkpt>
<trkpt lat="45.9401270" lon="9.5504740">
	<ele>1753.80</ele>
	<time>2023-10-07T09:21:55.000Z</time>
</trkpt>
<trkpt lat="45.9401250" lon="9.5504700">
	<ele>1753.80</ele>
	<time>2023-10-07T09:21:56.000Z</time>
</trkpt>
<trkpt lat="45.9401240" lon="9.5504690">
	<ele>1754.00</ele>
	<time>2023-10-07T09:21:57.000Z</time>
</trkpt>
<trkpt lat="45.9401230" lon="9.5504670">
	<ele>1754.00</ele>
	<time>2023-10-07T09:21:58.000Z</time>
</trkpt>
<trkpt lat="45.9401210" lon="9.5504630">
	<ele>1754.00</ele>
	<time>2023-10-07T09:21:59.000Z</time>
</trkpt>
<trkpt lat="45.9401190" lon="9.5504610">
	<ele>1754.20</ele>
	<time>2023-10-07T09:22:00.000Z</time>
</trkpt>
<trkpt lat="45.9401150" lon="9.5504600">
	<ele>1754.20</ele>
	<time>2023-10-07T09:22:01.000Z</time>
</trkpt>
<trkpt lat="45.9401120" lon="9.5504580">
	<ele>1754.40</ele>
	<time>2023-10-07T09:22:02.000Z</time>
</trkpt>
<trkpt lat="45.9401110" lon="9.5504560">
	<ele>1754.60</ele>
	<time>2023-10-07T09:22:03.000Z</time>
</trkpt>
<trkpt lat="45.9401090" lon="9.5504530">
	<ele>1754.80</ele>
	<time>2023-10-07T09:22:04.000Z</time>
</trkpt>
<trkpt lat="45.9401070" lon="9.5504510">
	<ele>1755.00</ele>
	<time>2023-10-07T09:22:05.000Z</time>
</trkpt>
<trkpt lat="45.9401070" lon="9.5504460">
	<ele>1755.00</ele>
	<time>2023-10-07T09:22:06.000Z</time>
</trkpt>
<trkpt lat="45.9401090" lon="9.5504420">
	<ele>1755.20</ele>
	<time>2023-10-07T09:22:07.000Z</time>
</trkpt>
<trkpt lat="45.9401120" lon="9.5504380">
	<ele>1755.40</ele>
	<time>2023-10-07T09:22:08.000Z</time>
</trkpt>
<trkpt lat="45.9401140" lon="9.5504350">
	<ele>1755.60</ele>
	<time>2023-10-07T09:22:09.000Z</time>
</trkpt>
<trkpt lat="45.9401150" lon="9.5504330">
	<ele>1755.80</ele>
	<time>2023-10-07T09:22:10.000Z</time>
</trkpt>
<trkpt lat="45.9401160" lon="9.5504300">
	<ele>1756.00</ele>
	<time>2023-10-07T09:22:11.000Z</time>
</trkpt>
<trkpt lat="45.9401170" lon="9.5504270">
	<ele>1756.00</ele>
	<time>2023-10-07T09:22:12.000Z</time>
</trkpt>
<trkpt lat="45.9401180" lon="9.5504250">
	<ele>1756.20</ele>
	<time>2023-10-07T09:22:13.000Z</time>
</trkpt>
<trkpt lat="45.9401190" lon="9.5504230">
	<ele>1756.40</ele>
	<time>2023-10-07T09:22:14.000Z</time>
</trkpt>
<trkpt lat="45.9401200" lon="9.5504200">
	<ele>1756.40</ele>
	<time>2023-10-07T09:22:15.000Z</time>
</trkpt>
<trkpt lat="45.9401190" lon="9.5504140">
	<ele>1756.60</ele>
	<time>2023-10-07T09:22:16.000Z</time>
</trkpt>
<trkpt lat="45.9401200" lon="9.5504080">
	<ele>1756.80</ele>
	<time>2023-10-07T09:22:17.000Z</time>
</trkpt>
<trkpt lat="45.9401190" lon="9.5504040">
	<ele>1757.00</ele>
	<time>2023-10-07T09:22:18.000Z</time>
</trkpt>
<trkpt lat="45.9401190" lon="9.5503990">
	<ele>1757.00</ele>
	<time>2023-10-07T09:22:19.000Z</time>
</trkpt>
<trkpt lat="45.9401200" lon="9.5503950">
	<ele>1757.20</ele>
	<time>2023-10-07T09:22:20.000Z</time>
</trkpt>
<trkpt lat="45.9401210" lon="9.5503910">
	<ele>1757.20</ele>
	<time>2023-10-07T09:22:21.000Z</time>
</trkpt>
<trkpt lat="45.9401210" lon="9.5503880">
	<ele>1757.40</ele>
	<time>2023-10-07T09:22:22.000Z</time>
</trkpt>
<trkpt lat="45.9401230" lon="9.5503850">
	<ele>1757.60</ele>
	<time>2023-10-07T09:22:23.000Z</time>
</trkpt>
<trkpt lat="45.9401240" lon="9.5503790">
	<ele>1757.60</ele>
	<time>2023-10-07T09:22:24.000Z</time>
</trkpt>
<trkpt lat="45.9401250" lon="9.5503720">
	<ele>1757.60</ele>
	<time>2023-10-07T09:22:25.000Z</time>
</trkpt>
<trkpt lat="45.9401280" lon="9.5503670">
	<ele>1757.80</ele>
	<time>2023-10-07T09:22:26.000Z</time>
</trkpt>
<trkpt lat="45.9401280" lon="9.5503630">
	<ele>1757.80</ele>
	<time>2023-10-07T09:22:27.000Z</time>
</trkpt>
<trkpt lat="45.9401280" lon="9.5503580">
	<ele>1758.00</ele>
	<time>2023-10-07T09:22:28.000Z</time>
</trkpt>
<trkpt lat="45.9401290" lon="9.5503550">
	<ele>1758.20</ele>
	<time>2023-10-07T09:22:29.000Z</time>
</trkpt>
<trkpt lat="45.9401310" lon="9.5503540">
	<ele>1758.40</ele>
	<time>2023-10-07T09:22:30.000Z</time>
</trkpt>
<trkpt lat="45.9401330" lon="9.5503500">
	<ele>1758.40</ele>
	<time>2023-10-07T09:22:31.000Z</time>
</trkpt>
<trkpt lat="45.9401350" lon="9.5503460">
	<ele>1758.60</ele>
	<time>2023-10-07T09:22:32.000Z</time>
</trkpt>
<trkpt lat="45.9401380" lon="9.5503420">
	<ele>1758.60</ele>
	<time>2023-10-07T09:22:33.000Z</time>
</trkpt>
<trkpt lat="45.9401390" lon="9.5503400">
	<ele>1758.80</ele>
	<time>2023-10-07T09:22:34.000Z</time>
</trkpt>
<trkpt lat="45.9401390" lon="9.5503360">
	<ele>1759.00</ele>
	<time>2023-10-07T09:22:35.000Z</time>
</trkpt>
<trkpt lat="45.9401410" lon="9.5503300">
	<ele>1759.00</ele>
	<time>2023-10-07T09:22:36.000Z</time>
</trkpt>
<trkpt lat="45.9401410" lon="9.5503270">
	<ele>1759.20</ele>
	<time>2023-10-07T09:22:37.000Z</time>
</trkpt>
<trkpt lat="45.9401410" lon="9.5503250">
	<ele>1759.40</ele>
	<time>2023-10-07T09:22:38.000Z</time>
</trkpt>
<trkpt lat="45.9401410" lon="9.5503220">
	<ele>1759.40</ele>
	<time>2023-10-07T09:22:39.000Z</time>
</trkpt>
<trkpt lat="45.9401420" lon="9.5503200">
	<ele>1759.60</ele>
	<time>2023-10-07T09:22:40.000Z</time>
</trkpt>
<trkpt lat="45.9401430" lon="9.5503150">
	<ele>1759.80</ele>
	<time>2023-10-07T09:22:41.000Z</time>
</trkpt>
<trkpt lat="45.9401440" lon="9.5503130">
	<ele>1760.00</ele>
	<time>2023-10-07T09:22:42.000Z</time>
</trkpt>
<trkpt lat="45.9401430" lon="9.5503080">
	<ele>1760.20</ele>
	<time>2023-10-07T09:22:43.000Z</time>
</trkpt>
<trkpt lat="45.9401440" lon="9.5503040">
	<ele>1760.20</ele>
	<time>2023-10-07T09:22:44.000Z</time>
</trkpt>
<trkpt lat="45.9401440" lon="9.5503020">
	<ele>1760.40</ele>
	<time>2023-10-07T09:22:45.000Z</time>
</trkpt>
<trkpt lat="45.9401440" lon="9.5502980">
	<ele>1760.40</ele>
	<time>2023-10-07T09:22:46.000Z</time>
</trkpt>
<trkpt lat="45.9401450" lon="9.5502950">
	<ele>1760.60</ele>
	<time>2023-10-07T09:22:47.000Z</time>
</trkpt>
<trkpt lat="45.9401450" lon="9.5502910">
	<ele>1760.60</ele>
	<time>2023-10-07T09:22:48.000Z</time>
</trkpt>
<trkpt lat="45.9401450" lon="9.5502880">
	<ele>1760.80</ele>
	<time>2023-10-07T09:22:49.000Z</time>
</trkpt>
<trkpt lat="45.9401460" lon="9.5502860">
	<ele>1761.00</ele>
	<time>2023-10-07T09:22:50.000Z</time>
</trkpt>
<trkpt lat="45.9401460" lon="9.5502840">
	<ele>1761.40</ele>
	<time>2023-10-07T09:22:51.000Z</time>
</trkpt>
<trkpt lat="45.9401460" lon="9.5502840">
	<ele>1761.80</ele>
	<time>2023-10-07T09:22:52.000Z</time>
</trkpt>
<trkpt lat="45.9401460" lon="9.5502840">
	<ele>1761.80</ele>
	<time>2023-10-07T09:22:53.000Z</time>
</trkpt>
<trkpt lat="45.9401460" lon="9.5502840">
	<ele>1762.00</ele>
	<time>2023-10-07T09:22:54.000Z</time>
</trkpt>
<trkpt lat="45.9401460" lon="9.5502840">
	<ele>1762.00</ele>
	<time>2023-10-07T09:22:55.000Z</time>
</trkpt>
<trkpt lat="45.9401460" lon="9.5502840">
	<ele>1761.80</ele>
	<time>2023-10-07T09:22:56.000Z</time>
</trkpt>
<trkpt lat="45.9401460" lon="9.5502840">
	<ele>1761.80</ele>
	<time>2023-10-07T09:22:57.000Z</time>
</trkpt>
<trkpt lat="45.9401460" lon="9.5502840">
	<ele>1761.80</ele>
	<time>2023-10-07T09:22:58.000Z</time>
</trkpt>
<trkpt lat="45.9401460" lon="9.5502840">
	<ele>1761.80</ele>
	<time>2023-10-07T09:22:59.000Z</time>
</trkpt>
<trkpt lat="45.9401460" lon="9.5502840">
	<ele>1761.80</ele>
	<time>2023-10-07T09:23:00.000Z</time>
</trkpt>
<trkpt lat="45.9401450" lon="9.5502840">
	<ele>1761.80</ele>
	<time>2023-10-07T09:23:01.000Z</time>
</trkpt>
<trkpt lat="45.9401450" lon="9.5502840">
	<ele>1762.00</ele>
	<time>2023-10-07T09:23:02.000Z</time>
</trkpt>
<trkpt lat="45.9401450" lon="9.5502840">
	<ele>1762.20</ele>
	<time>2023-10-07T09:23:03.000Z</time>
</trkpt>
<trkpt lat="45.9401450" lon="9.5502840">
	<ele>1762.40</ele>
	<time>2023-10-07T09:23:04.000Z</time>
</trkpt>
<trkpt lat="45.9401440" lon="9.5502840">
	<ele>1762.60</ele>
	<time>2023-10-07T09:23:05.000Z</time>
</trkpt>
<trkpt lat="45.9401440" lon="9.5502840">
	<ele>1762.80</ele>
	<time>2023-10-07T09:23:06.000Z</time>
</trkpt>
<trkpt lat="45.9401440" lon="9.5502840">
	<ele>1762.80</ele>
	<time>2023-10-07T09:23:07.000Z</time>
</trkpt>
<trkpt lat="45.9401440" lon="9.5502840">
	<ele>1762.80</ele>
	<time>2023-10-07T09:23:08.000Z</time>
</trkpt>
<trkpt lat="45.9401430" lon="9.5502840">
	<ele>1763.00</ele>
	<time>2023-10-07T09:23:09.000Z</time>
</trkpt>
<trkpt lat="45.9401430" lon="9.5502840">
	<ele>1763.00</ele>
	<time>2023-10-07T09:23:10.000Z</time>
</trkpt>
<trkpt lat="45.9401430" lon="9.5502830">
	<ele>1763.20</ele>
	<time>2023-10-07T09:23:11.000Z</time>
</trkpt>
<trkpt lat="45.9401410" lon="9.5502820">
	<ele>1763.60</ele>
	<time>2023-10-07T09:23:12.000Z</time>
</trkpt>
<trkpt lat="45.9401380" lon="9.5502820">
	<ele>1763.80</ele>
	<time>2023-10-07T09:23:13.000Z</time>
</trkpt>
<trkpt lat="45.9401360" lon="9.5502820">
	<ele>1764.00</ele>
	<time>2023-10-07T09:23:14.000Z</time>
</trkpt>
<trkpt lat="45.9401310" lon="9.5502810">
	<ele>1764.20</ele>
	<time>2023-10-07T09:23:15.000Z</time>
</trkpt>
<trkpt lat="45.9401270" lon="9.5502800">
	<ele>1764.40</ele>
	<time>2023-10-07T09:23:16.000Z</time>
</trkpt>
<trkpt lat="45.9401240" lon="9.5502790">
	<ele>1764.40</ele>
	<time>2023-10-07T09:23:17.000Z</time>
</trkpt>
<trkpt lat="45.9401230" lon="9.5502770">
	<ele>1764.60</ele>
	<time>2023-10-07T09:23:18.000Z</time>
</trkpt>
<trkpt lat="45.9401210" lon="9.5502750">
	<ele>1764.80</ele>
	<time>2023-10-07T09:23:19.000Z</time>
</trkpt>
<trkpt lat="45.9401180" lon="9.5502740">
	<ele>1765.00</ele>
	<time>2023-10-07T09:23:20.000Z</time>
</trkpt>
<trkpt lat="45.9401170" lon="9.5502740">
	<ele>1765.00</ele>
	<time>2023-10-07T09:23:21.000Z</time>
</trkpt>
<trkpt lat="45.9401140" lon="9.5502730">
	<ele>1765.20</ele>
	<time>2023-10-07T09:23:22.000Z</time>
</trkpt>
<trkpt lat="45.9401100" lon="9.5502720">
	<ele>1765.20</ele>
	<time>2023-10-07T09:23:23.000Z</time>
</trkpt>
<trkpt lat="45.9401040" lon="9.5502720">
	<ele>1765.40</ele>
	<time>2023-10-07T09:23:24.000Z</time>
</trkpt>
<trkpt lat="45.9400980" lon="9.5502720">
	<ele>1765.60</ele>
	<time>2023-10-07T09:23:25.000Z</time>
</trkpt>
<trkpt lat="45.9400950" lon="9.5502710">
	<ele>1765.80</ele>
	<time>2023-10-07T09:23:26.000Z</time>
</trkpt>
<trkpt lat="45.9400930" lon="9.5502690">
	<ele>1765.80</ele>
	<time>2023-10-07T09:23:27.000Z</time>
</trkpt>
<trkpt lat="45.9400900" lon="9.5502690">
	<ele>1766.00</ele>
	<time>2023-10-07T09:23:28.000Z</time>
</trkpt>
<trkpt lat="45.9400880" lon="9.5502680">
	<ele>1766.00</ele>
	<time>2023-10-07T09:23:29.000Z</time>
</trkpt>
<trkpt lat="45.9400870" lon="9.5502660">
	<ele>1766.00</ele>
	<time>2023-10-07T09:23:30.000Z</time>
</trkpt>
<trkpt lat="45.9400860" lon="9.5502640">
	<ele>1766.20</ele>
	<time>2023-10-07T09:23:31.000Z</time>
</trkpt>
<trkpt lat="45.9400840" lon="9.5502620">
	<ele>1766.20</ele>
	<time>2023-10-07T09:23:32.000Z</time>
</trkpt>
<trkpt lat="45.9400820" lon="9.5502580">
	<ele>1766.40</ele>
	<time>2023-10-07T09:23:33.000Z</time>
</trkpt>
<trkpt lat="45.9400810" lon="9.5502550">
	<ele>1766.40</ele>
	<time>2023-10-07T09:23:34.000Z</time>
</trkpt>
<trkpt lat="45.9400790" lon="9.5502540">
	<ele>1766.60</ele>
	<time>2023-10-07T09:23:35.000Z</time>
</trkpt>
<trkpt lat="45.9400770" lon="9.5502520">
	<ele>1766.80</ele>
	<time>2023-10-07T09:23:36.000Z</time>
</trkpt>
<trkpt lat="45.9400750" lon="9.5502510">
	<ele>1767.00</ele>
	<time>2023-10-07T09:23:37.000Z</time>
</trkpt>
<trkpt lat="45.9400730" lon="9.5502490">
	<ele>1767.20</ele>
	<time>2023-10-07T09:23:38.000Z</time>
</trkpt>
<trkpt lat="45.9400710" lon="9.5502460">
	<ele>1767.40</ele>
	<time>2023-10-07T09:23:39.000Z</time>
</trkpt>
<trkpt lat="45.9400690" lon="9.5502440">
	<ele>1767.60</ele>
	<time>2023-10-07T09:23:40.000Z</time>
</trkpt>
<trkpt lat="45.9400680" lon="9.5502410">
	<ele>1767.60</ele>
	<time>2023-10-07T09:23:41.000Z</time>
</trkpt>
<trkpt lat="45.9400670" lon="9.5502390">
	<ele>1767.80</ele>
	<time>2023-10-07T09:23:42.000Z</time>
</trkpt>
<trkpt lat="45.9400660" lon="9.5502370">
	<ele>1768.00</ele>
	<time>2023-10-07T09:23:43.000Z</time>
</trkpt>
<trkpt lat="45.9400640" lon="9.5502360">
	<ele>1768.00</ele>
	<time>2023-10-07T09:23:44.000Z</time>
</trkpt>
<trkpt lat="45.9400610" lon="9.5502340">
	<ele>1768.20</ele>
	<time>2023-10-07T09:23:45.000Z</time>
</trkpt>
<trkpt lat="45.9400570" lon="9.5502320">
	<ele>1768.20</ele>
	<time>2023-10-07T09:23:46.000Z</time>
</trkpt>
<trkpt lat="45.9400530" lon="9.5502290">
	<ele>1768.40</ele>
	<time>2023-10-07T09:23:47.000Z</time>
</trkpt>
<trkpt lat="45.9400500" lon="9.5502260">
	<ele>1768.60</ele>
	<time>2023-10-07T09:23:48.000Z</time>
</trkpt>
<trkpt lat="45.9400470" lon="9.5502240">
	<ele>1768.80</ele>
	<time>2023-10-07T09:23:49.000Z</time>
</trkpt>
<trkpt lat="45.9400460" lon="9.5502210">
	<ele>1768.80</ele>
	<time>2023-10-07T09:23:50.000Z</time>
</trkpt>
<trkpt lat="45.9400440" lon="9.5502170">
	<ele>1769.00</ele>
	<time>2023-10-07T09:23:51.000Z</time>
</trkpt>
<trkpt lat="45.9400420" lon="9.5502140">
	<ele>1769.20</ele>
	<time>2023-10-07T09:23:52.000Z</time>
</trkpt>
<trkpt lat="45.9400400" lon="9.5502130">
	<ele>1769.40</ele>
	<time>2023-10-07T09:23:53.000Z</time>
</trkpt>
<trkpt lat="45.9400390" lon="9.5502110">
	<ele>1769.60</ele>
	<time>2023-10-07T09:23:54.000Z</time>
</trkpt>
<trkpt lat="45.9400380" lon="9.5502090">
	<ele>1769.80</ele>
	<time>2023-10-07T09:23:55.000Z</time>
</trkpt>
<trkpt lat="45.9400360" lon="9.5502060">
	<ele>1770.00</ele>
	<time>2023-10-07T09:23:56.000Z</time>
</trkpt>
<trkpt lat="45.9400350" lon="9.5502020">
	<ele>1770.00</ele>
	<time>2023-10-07T09:23:57.000Z</time>
</trkpt>
<trkpt lat="45.9400340" lon="9.5501990">
	<ele>1770.00</ele>
	<time>2023-10-07T09:23:58.000Z</time>
</trkpt>
<trkpt lat="45.9400320" lon="9.5501960">
	<ele>1770.20</ele>
	<time>2023-10-07T09:23:59.000Z</time>
</trkpt>
<trkpt lat="45.9400280" lon="9.5501940">
	<ele>1770.40</ele>
	<time>2023-10-07T09:24:00.000Z</time>
</trkpt>
<trkpt lat="45.9400240" lon="9.5501910">
	<ele>1770.60</ele>
	<time>2023-10-07T09:24:01.000Z</time>
</trkpt>
<trkpt lat="45.9400210" lon="9.5501890">
	<ele>1771.00</ele>
	<time>2023-10-07T09:24:02.000Z</time>
</trkpt>
<trkpt lat="45.9400200" lon="9.5501860">
	<ele>1771.00</ele>
	<time>2023-10-07T09:24:03.000Z</time>
</trkpt>
<trkpt lat="45.9400200" lon="9.5501830">
	<ele>1771.20</ele>
	<time>2023-10-07T09:24:04.000Z</time>
</trkpt>
<trkpt lat="45.9400200" lon="9.5501790">
	<ele>1771.40</ele>
	<time>2023-10-07T09:24:05.000Z</time>
</trkpt>
<trkpt lat="45.9400200" lon="9.5501750">
	<ele>1771.60</ele>
	<time>2023-10-07T09:24:06.000Z</time>
</trkpt>
<trkpt lat="45.9400200" lon="9.5501700">
	<ele>1771.60</ele>
	<time>2023-10-07T09:24:07.000Z</time>
</trkpt>
<trkpt lat="45.9400200" lon="9.5501660">
	<ele>1771.60</ele>
	<time>2023-10-07T09:24:08.000Z</time>
</trkpt>
<trkpt lat="45.9400200" lon="9.5501640">
	<ele>1771.60</ele>
	<time>2023-10-07T09:24:09.000Z</time>
</trkpt>
<trkpt lat="45.9400200" lon="9.5501610">
	<ele>1771.80</ele>
	<time>2023-10-07T09:24:10.000Z</time>
</trkpt>
<trkpt lat="45.9400200" lon="9.5501570">
	<ele>1771.80</ele>
	<time>2023-10-07T09:24:11.000Z</time>
</trkpt>
<trkpt lat="45.9400200" lon="9.5501540">
	<ele>1772.00</ele>
	<time>2023-10-07T09:24:12.000Z</time>
</trkpt>
<trkpt lat="45.9400200" lon="9.5501490">
	<ele>1772.00</ele>
	<time>2023-10-07T09:24:13.000Z</time>
</trkpt>
<trkpt lat="45.9400200" lon="9.5501440">
	<ele>1772.20</ele>
	<time>2023-10-07T09:24:14.000Z</time>
</trkpt>
<trkpt lat="45.9400200" lon="9.5501390">
	<ele>1772.20</ele>
	<time>2023-10-07T09:24:15.000Z</time>
</trkpt>
<trkpt lat="45.9400200" lon="9.5501350">
	<ele>1772.40</ele>
	<time>2023-10-07T09:24:16.000Z</time>
</trkpt>
<trkpt lat="45.9400200" lon="9.5501300">
	<ele>1772.40</ele>
	<time>2023-10-07T09:24:17.000Z</time>
</trkpt>
<trkpt lat="45.9400210" lon="9.5501260">
	<ele>1772.60</ele>
	<time>2023-10-07T09:24:18.000Z</time>
</trkpt>
<trkpt lat="45.9400230" lon="9.5501210">
	<ele>1772.60</ele>
	<time>2023-10-07T09:24:19.000Z</time>
</trkpt>
<trkpt lat="45.9400250" lon="9.5501160">
	<ele>1772.80</ele>
	<time>2023-10-07T09:24:20.000Z</time>
</trkpt>
<trkpt lat="45.9400270" lon="9.5501120">
	<ele>1773.00</ele>
	<time>2023-10-07T09:24:21.000Z</time>
</trkpt>
<trkpt lat="45.9400300" lon="9.5501080">
	<ele>1773.20</ele>
	<time>2023-10-07T09:24:22.000Z</time>
</trkpt>
<trkpt lat="45.9400330" lon="9.5501040">
	<ele>1773.20</ele>
	<time>2023-10-07T09:24:23.000Z</time>
</trkpt>
<trkpt lat="45.9400360" lon="9.5500990">
	<ele>1773.40</ele>
	<time>2023-10-07T09:24:24.000Z</time>
</trkpt>
<trkpt lat="45.9400390" lon="9.5500950">
	<ele>1773.40</ele>
	<time>2023-10-07T09:24:25.000Z</time>
</trkpt>
<trkpt lat="45.9400430" lon="9.5500920">
	<ele>1773.40</ele>
	<time>2023-10-07T09:24:26.000Z</time>
</trkpt>
<trkpt lat="45.9400460" lon="9.5500880">
	<ele>1773.60</ele>
	<time>2023-10-07T09:24:27.000Z</time>
</trkpt>
<trkpt lat="45.9400480" lon="9.5500830">
	<ele>1773.80</ele>
	<time>2023-10-07T09:24:28.000Z</time>
</trkpt>
<trkpt lat="45.9400500" lon="9.5500780">
	<ele>1774.00</ele>
	<time>2023-10-07T09:24:29.000Z</time>
</trkpt>
<trkpt lat="45.9400510" lon="9.5500730">
	<ele>1774.00</ele>
	<time>2023-10-07T09:24:30.000Z</time>
</trkpt>
<trkpt lat="45.9400520" lon="9.5500680">
	<ele>1774.20</ele>
	<time>2023-10-07T09:24:31.000Z</time>
</trkpt>
<trkpt lat="45.9400520" lon="9.5500630">
	<ele>1774.20</ele>
	<time>2023-10-07T09:24:32.000Z</time>
</trkpt>
<trkpt lat="45.9400530" lon="9.5500560">
	<ele>1774.40</ele>
	<time>2023-10-07T09:24:33.000Z</time>
</trkpt>
<trkpt lat="45.9400530" lon="9.5500490">
	<ele>1774.40</ele>
	<time>2023-10-07T09:24:34.000Z</time>
</trkpt>
<trkpt lat="45.9400540" lon="9.5500410">
	<ele>1774.60</ele>
	<time>2023-10-07T09:24:35.000Z</time>
</trkpt>
<trkpt lat="45.9400540" lon="9.5500340">
	<ele>1774.80</ele>
	<time>2023-10-07T09:24:36.000Z</time>
</trkpt>
<trkpt lat="45.9400550" lon="9.5500280">
	<ele>1775.00</ele>
	<time>2023-10-07T09:24:37.000Z</time>
</trkpt>
<trkpt lat="45.9400550" lon="9.5500210">
	<ele>1775.00</ele>
	<time>2023-10-07T09:24:38.000Z</time>
</trkpt>
<trkpt lat="45.9400550" lon="9.5500160">
	<ele>1775.20</ele>
	<time>2023-10-07T09:24:39.000Z</time>
</trkpt>
<trkpt lat="45.9400560" lon="9.5500100">
	<ele>1775.40</ele>
	<time>2023-10-07T09:24:40.000Z</time>
</trkpt>
<trkpt lat="45.9400560" lon="9.5500050">
	<ele>1775.40</ele>
	<time>2023-10-07T09:24:41.000Z</time>
</trkpt>
<trkpt lat="45.9400560" lon="9.5499980">
	<ele>1775.60</ele>
	<time>2023-10-07T09:24:42.000Z</time>
</trkpt>
<trkpt lat="45.9400570" lon="9.5499920">
	<ele>1775.60</ele>
	<time>2023-10-07T09:24:43.000Z</time>
</trkpt>
<trkpt lat="45.9400580" lon="9.5499850">
	<ele>1775.80</ele>
	<time>2023-10-07T09:24:44.000Z</time>
</trkpt>
<trkpt lat="45.9400580" lon="9.5499790">
	<ele>1776.00</ele>
	<time>2023-10-07T09:24:45.000Z</time>
</trkpt>
<trkpt lat="45.9400600" lon="9.5499740">
	<ele>1776.20</ele>
	<time>2023-10-07T09:24:46.000Z</time>
</trkpt>
<trkpt lat="45.9400610" lon="9.5499670">
	<ele>1776.20</ele>
	<time>2023-10-07T09:24:47.000Z</time>
</trkpt>
<trkpt lat="45.9400640" lon="9.5499620">
	<ele>1776.40</ele>
	<time>2023-10-07T09:24:48.000Z</time>
</trkpt>
<trkpt lat="45.9400650" lon="9.5499570">
	<ele>1776.40</ele>
	<time>2023-10-07T09:24:49.000Z</time>
</trkpt>
<trkpt lat="45.9400660" lon="9.5499520">
	<ele>1776.40</ele>
	<time>2023-10-07T09:24:50.000Z</time>
</trkpt>
<trkpt lat="45.9400670" lon="9.5499470">
	<ele>1776.60</ele>
	<time>2023-10-07T09:24:51.000Z</time>
</trkpt>
<trkpt lat="45.9400680" lon="9.5499430">
	<ele>1776.60</ele>
	<time>2023-10-07T09:24:52.000Z</time>
</trkpt>
<trkpt lat="45.9400680" lon="9.5499380">
	<ele>1776.80</ele>
	<time>2023-10-07T09:24:53.000Z</time>
</trkpt>
<trkpt lat="45.9400680" lon="9.5499330">
	<ele>1777.00</ele>
	<time>2023-10-07T09:24:54.000Z</time>
</trkpt>
<trkpt lat="45.9400690" lon="9.5499280">
	<ele>1777.20</ele>
	<time>2023-10-07T09:24:55.000Z</time>
</trkpt>
<trkpt lat="45.9400700" lon="9.5499230">
	<ele>1777.20</ele>
	<time>2023-10-07T09:24:56.000Z</time>
</trkpt>
<trkpt lat="45.9400720" lon="9.5499170">
	<ele>1777.40</ele>
	<time>2023-10-07T09:24:57.000Z</time>
</trkpt>
<trkpt lat="45.9400740" lon="9.5499120">
	<ele>1777.60</ele>
	<time>2023-10-07T09:24:58.000Z</time>
</trkpt>
<trkpt lat="45.9400760" lon="9.5499070">
	<ele>1777.60</ele>
	<time>2023-10-07T09:24:59.000Z</time>
</trkpt>
<trkpt lat="45.9400790" lon="9.5499020">
	<ele>1777.80</ele>
	<time>2023-10-07T09:25:00.000Z</time>
</trkpt>
<trkpt lat="45.9400820" lon="9.5498980">
	<ele>1778.00</ele>
	<time>2023-10-07T09:25:01.000Z</time>
</trkpt>
<trkpt lat="45.9400850" lon="9.5498930">
	<ele>1778.00</ele>
	<time>2023-10-07T09:25:02.000Z</time>
</trkpt>
<trkpt lat="45.9400870" lon="9.5498880">
	<ele>1778.20</ele>
	<time>2023-10-07T09:25:03.000Z</time>
</trkpt>
<trkpt lat="45.9400890" lon="9.5498840">
	<ele>1778.20</ele>
	<time>2023-10-07T09:25:04.000Z</time>
</trkpt>
<trkpt lat="45.9400910" lon="9.5498790">
	<ele>1778.40</ele>
	<time>2023-10-07T09:25:05.000Z</time>
</trkpt>
<trkpt lat="45.9400920" lon="9.5498750">
	<ele>1778.60</ele>
	<time>2023-10-07T09:25:06.000Z</time>
</trkpt>
<trkpt lat="45.9400930" lon="9.5498700">
	<ele>1778.80</ele>
	<time>2023-10-07T09:25:07.000Z</time>
</trkpt>
<trkpt lat="45.9400930" lon="9.5498640">
	<ele>1779.00</ele>
	<time>2023-10-07T09:25:08.000Z</time>
</trkpt>
<trkpt lat="45.9400940" lon="9.5498590">
	<ele>1779.20</ele>
	<time>2023-10-07T09:25:09.000Z</time>
</trkpt>
<trkpt lat="45.9400950" lon="9.5498540">
	<ele>1779.20</ele>
	<time>2023-10-07T09:25:10.000Z</time>
</trkpt>
<trkpt lat="45.9400960" lon="9.5498490">
	<ele>1779.40</ele>
	<time>2023-10-07T09:25:11.000Z</time>
</trkpt>
<trkpt lat="45.9400980" lon="9.5498450">
	<ele>1779.60</ele>
	<time>2023-10-07T09:25:12.000Z</time>
</trkpt>
<trkpt lat="45.9400990" lon="9.5498410">
	<ele>1779.60</ele>
	<time>2023-10-07T09:25:13.000Z</time>
</trkpt>
<trkpt lat="45.9401000" lon="9.5498380">
	<ele>1779.60</ele>
	<time>2023-10-07T09:25:14.000Z</time>
</trkpt>
<trkpt lat="45.9401010" lon="9.5498340">
	<ele>1779.80</ele>
	<time>2023-10-07T09:25:15.000Z</time>
</trkpt>
<trkpt lat="45.9401020" lon="9.5498280">
	<ele>1779.80</ele>
	<time>2023-10-07T09:25:16.000Z</time>
</trkpt>
<trkpt lat="45.9401030" lon="9.5498230">
	<ele>1780.00</ele>
	<time>2023-10-07T09:25:17.000Z</time>
</trkpt>
<trkpt lat="45.9401030" lon="9.5498180">
	<ele>1780.20</ele>
	<time>2023-10-07T09:25:18.000Z</time>
</trkpt>
<trkpt lat="45.9401030" lon="9.5498120">
	<ele>1780.40</ele>
	<time>2023-10-07T09:25:19.000Z</time>
</trkpt>
<trkpt lat="45.9401040" lon="9.5498080">
	<ele>1780.40</ele>
	<time>2023-10-07T09:25:20.000Z</time>
</trkpt>
<trkpt lat="45.9401040" lon="9.5498040">
	<ele>1780.60</ele>
	<time>2023-10-07T09:25:21.000Z</time>
</trkpt>
<trkpt lat="45.9401040" lon="9.5497990">
	<ele>1780.60</ele>
	<time>2023-10-07T09:25:22.000Z</time>
</trkpt>
<trkpt lat="45.9401040" lon="9.5497950">
	<ele>1780.80</ele>
	<time>2023-10-07T09:25:23.000Z</time>
</trkpt>
<trkpt lat="45.9401040" lon="9.5497910">
	<ele>1781.00</ele>
	<time>2023-10-07T09:25:24.000Z</time>
</trkpt>
<trkpt lat="45.9401040" lon="9.5497870">
	<ele>1781.00</ele>
	<time>2023-10-07T09:25:25.000Z</time>
</trkpt>
<trkpt lat="45.9401040" lon="9.5497840">
	<ele>1781.20</ele>
	<time>2023-10-07T09:25:26.000Z</time>
</trkpt>
<trkpt lat="45.9401040" lon="9.5497810">
	<ele>1781.40</ele>
	<time>2023-10-07T09:25:27.000Z</time>
</trkpt>
<trkpt lat="45.9401040" lon="9.5497770">
	<ele>1781.60</ele>
	<time>2023-10-07T09:25:28.000Z</time>
</trkpt>
<trkpt lat="45.9401040" lon="9.5497740">
	<ele>1781.80</ele>
	<time>2023-10-07T09:25:29.000Z</time>
</trkpt>
<trkpt lat="45.9401040" lon="9.5497720">
	<ele>1781.80</ele>
	<time>2023-10-07T09:25:30.000Z</time>
</trkpt>
<trkpt lat="45.9401040" lon="9.5497700">
	<ele>1782.00</ele>
	<time>2023-10-07T09:25:31.000Z</time>
</trkpt>
<trkpt lat="45.9401040" lon="9.5497680">
	<ele>1782.00</ele>
	<time>2023-10-07T09:25:32.000Z</time>
</trkpt>
<trkpt lat="45.9401040" lon="9.5497670">
	<ele>1782.00</ele>
	<time>2023-10-07T09:25:33.000Z</time>
</trkpt>
<trkpt lat="45.9401040" lon="9.5497650">
	<ele>1782.00</ele>
	<time>2023-10-07T09:25:34.000Z</time>
</trkpt>
<trkpt lat="45.9401030" lon="9.5497640">
	<ele>1782.20</ele>
	<time>2023-10-07T09:25:35.000Z</time>
</trkpt>
<trkpt lat="45.9401030" lon="9.5497620">
	<ele>1782.40</ele>
	<time>2023-10-07T09:25:36.000Z</time>
</trkpt>
<trkpt lat="45.9401030" lon="9.5497600">
	<ele>1782.60</ele>
	<time>2023-10-07T09:25:37.000Z</time>
</trkpt>
<trkpt lat="45.9401030" lon="9.5497570">
	<ele>1782.60</ele>
	<time>2023-10-07T09:25:38.000Z</time>
</trkpt>
<trkpt lat="45.9401030" lon="9.5497540">
	<ele>1782.60</ele>
	<time>2023-10-07T09:25:39.000Z</time>
</trkpt>
<trkpt lat="45.9401030" lon="9.5497520">
	<ele>1782.60</ele>
	<time>2023-10-07T09:25:40.000Z</time>
</trkpt>
<trkpt lat="45.9401030" lon="9.5497490">
	<ele>1782.60</ele>
	<time>2023-10-07T09:25:41.000Z</time>
</trkpt>
<trkpt lat="45.9401030" lon="9.5497460">
	<ele>1782.60</ele>
	<time>2023-10-07T09:25:42.000Z</time>
</trkpt>
<trkpt lat="45.9401030" lon="9.5497440">
	<ele>1782.80</ele>
	<time>2023-10-07T09:25:43.000Z</time>
</trkpt>
<trkpt lat="45.9401030" lon="9.5497420">
	<ele>1782.60</ele>
	<time>2023-10-07T09:25:44.000Z</time>
</trkpt>
<trkpt lat="45.9401030" lon="9.5497390">
	<ele>1782.80</ele>
	<time>2023-10-07T09:25:45.000Z</time>
</trkpt>
<trkpt lat="45.9401030" lon="9.5497360">
	<ele>1782.80</ele>
	<time>2023-10-07T09:25:46.000Z</time>
</trkpt>
<trkpt lat="45.9401040" lon="9.5497340">
	<ele>1782.80</ele>
	<time>2023-10-07T09:25:47.000Z</time>
</trkpt>
<trkpt lat="45.9401040" lon="9.5497320">
	<ele>1782.80</ele>
	<time>2023-10-07T09:25:48.000Z</time>
</trkpt>
<trkpt lat="45.9401040" lon="9.5497290">
	<ele>1782.80</ele>
	<time>2023-10-07T09:25:49.000Z</time>
</trkpt>
<trkpt lat="45.9401050" lon="9.5497270">
	<ele>1783.00</ele>
	<time>2023-10-07T09:25:50.000Z</time>
</trkpt>
<trkpt lat="45.9401050" lon="9.5497250">
	<ele>1783.00</ele>
	<time>2023-10-07T09:25:51.000Z</time>
</trkpt>
<trkpt lat="45.9401060" lon="9.5497240">
	<ele>1783.20</ele>
	<time>2023-10-07T09:25:52.000Z</time>
</trkpt>
<trkpt lat="45.9401060" lon="9.5497230">
	<ele>1783.20</ele>
	<time>2023-10-07T09:25:53.000Z</time>
</trkpt>
<trkpt lat="45.9401070" lon="9.5497210">
	<ele>1783.40</ele>
	<time>2023-10-07T09:25:54.000Z</time>
</trkpt>
<trkpt lat="45.9401070" lon="9.5497200">
	<ele>1783.60</ele>
	<time>2023-10-07T09:25:55.000Z</time>
</trkpt>
<trkpt lat="45.9401080" lon="9.5497190">
	<ele>1783.60</ele>
	<time>2023-10-07T09:25:56.000Z</time>
</trkpt>
<trkpt lat="45.9401080" lon="9.5497180">
	<ele>1783.60</ele>
	<time>2023-10-07T09:25:57.000Z</time>
</trkpt>
<trkpt lat="45.9401080" lon="9.5497170">
	<ele>1783.80</ele>
	<time>2023-10-07T09:25:58.000Z</time>
</trkpt>
<trkpt lat="45.9401090" lon="9.5497160">
	<ele>1783.80</ele>
	<time>2023-10-07T09:25:59.000Z</time>
</trkpt>
<trkpt lat="45.9401090" lon="9.5497160">
	<ele>1784.00</ele>
	<time>2023-10-07T09:26:00.000Z</time>
</trkpt>
<trkpt lat="45.9401090" lon="9.5497150">
	<ele>1784.20</ele>
	<time>2023-10-07T09:26:01.000Z</time>
</trkpt>
<trkpt lat="45.9401090" lon="9.5497140">
	<ele>1784.20</ele>
	<time>2023-10-07T09:26:02.000Z</time>
</trkpt>
<trkpt lat="45.9401090" lon="9.5497130">
	<ele>1784.20</ele>
	<time>2023-10-07T09:26:03.000Z</time>
</trkpt>
<trkpt lat="45.9401090" lon="9.5497120">
	<ele>1784.40</ele>
	<time>2023-10-07T09:26:04.000Z</time>
</trkpt>
<trkpt lat="45.9401100" lon="9.5497110">
	<ele>1784.60</ele>
	<time>2023-10-07T09:26:05.000Z</time>
</trkpt>
<trkpt lat="45.9401100" lon="9.5497100">
	<ele>1785.00</ele>
	<time>2023-10-07T09:26:06.000Z</time>
</trkpt>
<trkpt lat="45.9401100" lon="9.5497090">
	<ele>1785.20</ele>
	<time>2023-10-07T09:26:07.000Z</time>
</trkpt>
<trkpt lat="45.9401100" lon="9.5497080">
	<ele>1785.40</ele>
	<time>2023-10-07T09:26:08.000Z</time>
</trkpt>
<trkpt lat="45.9401100" lon="9.5497080">
	<ele>1785.60</ele>
	<time>2023-10-07T09:26:09.000Z</time>
</trkpt>
<trkpt lat="45.9401100" lon="9.5497080">
	<ele>1785.60</ele>
	<time>2023-10-07T09:26:10.000Z</time>
</trkpt>
<trkpt lat="45.9401100" lon="9.5497070">
	<ele>1786.00</ele>
	<time>2023-10-07T09:26:11.000Z</time>
</trkpt>
<trkpt lat="45.9401100" lon="9.5497070">
	<ele>1786.20</ele>
	<time>2023-10-07T09:26:12.000Z</time>
</trkpt>
<trkpt lat="45.9401100" lon="9.5497070">
	<ele>1786.20</ele>
	<time>2023-10-07T09:26:13.000Z</time>
</trkpt>
<trkpt lat="45.9401100" lon="9.5497070">
	<ele>1786.40</ele>
	<time>2023-10-07T09:26:14.000Z</time>
</trkpt>
<trkpt lat="45.9401100" lon="9.5497070">
	<ele>1786.40</ele>
	<time>2023-10-07T09:26:15.000Z</time>
</trkpt>
<trkpt lat="45.9401100" lon="9.5497070">
	<ele>1786.40</ele>
	<time>2023-10-07T09:26:16.000Z</time>
</trkpt>
<trkpt lat="45.9401100" lon="9.5497070">
	<ele>1786.60</ele>
	<time>2023-10-07T09:26:17.000Z</time>
</trkpt>
<trkpt lat="45.9401100" lon="9.5497070">
	<ele>1786.60</ele>
	<time>2023-10-07T09:26:18.000Z</time>
</trkpt>
<trkpt lat="45.9401100" lon="9.5497060">
	<ele>1786.60</ele>
	<time>2023-10-07T09:26:19.000Z</time>
</trkpt>
<trkpt lat="45.9401090" lon="9.5497060">
	<ele>1786.60</ele>
	<time>2023-10-07T09:26:20.000Z</time>
</trkpt>
<trkpt lat="45.9401090" lon="9.5497060">
	<ele>1787.00</ele>
	<time>2023-10-07T09:26:21.000Z</time>
</trkpt>
<trkpt lat="45.9401090" lon="9.5497060">
	<ele>1787.20</ele>
	<time>2023-10-07T09:26:22.000Z</time>
</trkpt>
<trkpt lat="45.9401090" lon="9.5497050">
	<ele>1787.20</ele>
	<time>2023-10-07T09:26:23.000Z</time>
</trkpt>
<trkpt lat="45.9401090" lon="9.5497050">
	<ele>1787.20</ele>
	<time>2023-10-07T09:26:24.000Z</time>
</trkpt>
<trkpt lat="45.9401090" lon="9.5497050">
	<ele>1787.40</ele>
	<time>2023-10-07T09:26:25.000Z</time>
</trkpt>
<trkpt lat="45.9401090" lon="9.5497050">
	<ele>1787.40</ele>
	<time>2023-10-07T09:26:26.000Z</time>
</trkpt>
<trkpt lat="45.9401090" lon="9.5497050">
	<ele>1787.60</ele>
	<time>2023-10-07T09:26:27.000Z</time>
</trkpt>
<trkpt lat="45.9401090" lon="9.5497050">
	<ele>1787.60</ele>
	<time>2023-10-07T09:26:28.000Z</time>
</trkpt>
<trkpt lat="45.9401090" lon="9.5497050">
	<ele>1787.80</ele>
	<time>2023-10-07T09:26:29.000Z</time>
</trkpt>
<trkpt lat="45.9401090" lon="9.5497040">
	<ele>1788.20</ele>
	<time>2023-10-07T09:26:30.000Z</time>
</trkpt>
<trkpt lat="45.9401090" lon="9.5497040">
	<ele>1788.40</ele>
	<time>2023-10-07T09:26:31.000Z</time>
</trkpt>
<trkpt lat="45.9401090" lon="9.5497040">
	<ele>1788.60</ele>
	<time>2023-10-07T09:26:32.000Z</time>
</trkpt>
<trkpt lat="45.9401090" lon="9.5497040">
	<ele>1788.80</ele>
	<time>2023-10-07T09:26:33.000Z</time>
</trkpt>
<trkpt lat="45.9401080" lon="9.5497030">
	<ele>1789.00</ele>
	<time>2023-10-07T09:26:34.000Z</time>
</trkpt>
<trkpt lat="45.9401080" lon="9.5497030">
	<ele>1789.00</ele>
	<time>2023-10-07T09:26:35.000Z</time>
</trkpt>
<trkpt lat="45.9401080" lon="9.5497030">
	<ele>1789.20</ele>
	<time>2023-10-07T09:26:36.000Z</time>
</trkpt>
<trkpt lat="45.9401080" lon="9.5497030">
	<ele>1789.20</ele>
	<time>2023-10-07T09:26:37.000Z</time>
</trkpt>
<trkpt lat="45.9401080" lon="9.5497030">
	<ele>1789.20</ele>
	<time>2023-10-07T09:26:38.000Z</time>
</trkpt>
<trkpt lat="45.9401080" lon="9.5497020">
	<ele>1789.60</ele>
	<time>2023-10-07T09:26:39.000Z</time>
</trkpt>
<trkpt lat="45.9401080" lon="9.5497020">
	<ele>1789.60</ele>
	<time>2023-10-07T09:26:40.000Z</time>
</trkpt>
<trkpt lat="45.9401080" lon="9.5497020">
	<ele>1789.80</ele>
	<time>2023-10-07T09:26:41.000Z</time>
</trkpt>
<trkpt lat="45.9401080" lon="9.5497020">
	<ele>1789.80</ele>
	<time>2023-10-07T09:26:42.000Z</time>
</trkpt>
<trkpt lat="45.9401080" lon="9.5497010">
	<ele>1789.80</ele>
	<time>2023-10-07T09:26:43.000Z</time>
</trkpt>
<trkpt lat="45.9401080" lon="9.5497010">
	<ele>1789.80</ele>
	<time>2023-10-07T09:26:44.000Z</time>
</trkpt>
<trkpt lat="45.9401080" lon="9.5497010">
	<ele>1790.00</ele>
	<time>2023-10-07T09:26:45.000Z</time>
</trkpt>
<trkpt lat="45.9401080" lon="9.5497010">
	<ele>1790.00</ele>
	<time>2023-10-07T09:26:46.000Z</time>
</trkpt>
<trkpt lat="45.9401080" lon="9.5497010">
	<ele>1790.40</ele>
	<time>2023-10-07T09:26:47.000Z</time>
</trkpt>
<trkpt lat="45.9401070" lon="9.5497000">
	<ele>1790.40</ele>
	<time>2023-10-07T09:26:48.000Z</time>
</trkpt>
<trkpt lat="45.9401070" lon="9.5497000">
	<ele>1790.60</ele>
	<time>2023-10-07T09:26:49.000Z</time>
</trkpt>
<trkpt lat="45.9401070" lon="9.5497000">
	<ele>1790.80</ele>
	<time>2023-10-07T09:26:50.000Z</time>
</trkpt>
<trkpt lat="45.9401070" lon="9.5497000">
	<ele>1791.00</ele>
	<time>2023-10-07T09:26:51.000Z</time>
</trkpt>
<trkpt lat="45.9401070" lon="9.5496990">
	<ele>1791.40</ele>
	<time>2023-10-07T09:26:52.000Z</time>
</trkpt>
<trkpt lat="45.9401070" lon="9.5496990">
	<ele>1791.60</ele>
	<time>2023-10-07T09:26:53.000Z</time>
</trkpt>
<trkpt lat="45.9401070" lon="9.5496990">
	<ele>1791.60</ele>
	<time>2023-10-07T09:26:54.000Z</time>
</trkpt>
<trkpt lat="45.9401070" lon="9.5496980">
	<ele>1791.80</ele>
	<time>2023-10-07T09:26:55.000Z</time>
</trkpt>
<trkpt lat="45.9401070" lon="9.5496980">
	<ele>1792.00</ele>
	<time>2023-10-07T09:26:56.000Z</time>
</trkpt>
<trkpt lat="45.9401070" lon="9.5496980">
	<ele>1792.00</ele>
	<time>2023-10-07T09:26:57.000Z</time>
</trkpt>
<trkpt lat="45.9401060" lon="9.5496970">
	<ele>1792.20</ele>
	<time>2023-10-07T09:26:58.000Z</time>
</trkpt>
<trkpt lat="45.9401060" lon="9.5496970">
	<ele>1792.40</ele>
	<time>2023-10-07T09:26:59.000Z</time>
</trkpt>
<trkpt lat="45.9401060" lon="9.5496970">
	<ele>1792.40</ele>
	<time>2023-10-07T09:27:00.000Z</time>
</trkpt>
<trkpt lat="45.9401060" lon="9.5496970">
	<ele>1792.60</ele>
	<time>2023-10-07T09:27:01.000Z</time>
</trkpt>
<trkpt lat="45.9401060" lon="9.5496960">
	<ele>1792.60</ele>
	<time>2023-10-07T09:27:02.000Z</time>
</trkpt>
<trkpt lat="45.9401060" lon="9.5496960">
	<ele>1792.60</ele>
	<time>2023-10-07T09:27:03.000Z</time>
</trkpt>
<trkpt lat="45.9401060" lon="9.5496960">
	<ele>1792.80</ele>
	<time>2023-10-07T09:27:04.000Z</time>
</trkpt>
<trkpt lat="45.9401060" lon="9.5496950">
	<ele>1792.80</ele>
	<time>2023-10-07T09:27:05.000Z</time>
</trkpt>
<trkpt lat="45.9401060" lon="9.5496950">
	<ele>1792.80</ele>
	<time>2023-10-07T09:27:06.000Z</time>
</trkpt>
<trkpt lat="45.9401060" lon="9.5496940">
	<ele>1793.00</ele>
	<time>2023-10-07T09:27:07.000Z</time>
</trkpt>
<trkpt lat="45.9401050" lon="9.5496940">
	<ele>1793.00</ele>
	<time>2023-10-07T09:27:08.000Z</time>
</trkpt>
<trkpt lat="45.9401050" lon="9.5496940">
	<ele>1793.20</ele>
	<time>2023-10-07T09:27:09.000Z</time>
</trkpt>
<trkpt lat="45.9401050" lon="9.5496930">
	<ele>1793.40</ele>
	<time>2023-10-07T09:27:10.000Z</time>
</trkpt>
<trkpt lat="45.9401050" lon="9.5496930">
	<ele>1793.40</ele>
	<time>2023-10-07T09:27:11.000Z</time>
</trkpt>
<trkpt lat="45.9401050" lon="9.5496930">
	<ele>1793.60</ele>
	<time>2023-10-07T09:27:12.000Z</time>
</trkpt>
<trkpt lat="45.9401050" lon="9.5496920">
	<ele>1793.60</ele>
	<time>2023-10-07T09:27:13.000Z</time>
</trkpt>
<trkpt lat="45.9401050" lon="9.5496920">
	<ele>1793.60</ele>
	<time>2023-10-07T09:27:14.000Z</time>
</trkpt>
<trkpt lat="45.9401050" lon="9.5496920">
	<ele>1793.80</ele>
	<time>2023-10-07T09:27:15.000Z</time>
</trkpt>
<trkpt lat="45.9401050" lon="9.5496910">
	<ele>1794.00</ele>
	<time>2023-10-07T09:27:16.000Z</time>
</trkpt>
<trkpt lat="45.9401050" lon="9.5496910">
	<ele>1794.60</ele>
	<time>2023-10-07T09:27:17.000Z</time>
</trkpt>
<trkpt lat="45.9401050" lon="9.5496910">
	<ele>1794.80</ele>
	<time>2023-10-07T09:27:18.000Z</time>
</trkpt>
<trkpt lat="45.9401050" lon="9.5496900">
	<ele>1795.00</ele>
	<time>2023-10-07T09:27:19.000Z</time>
</trkpt>
<trkpt lat="45.9401040" lon="9.5496900">
	<ele>1795.00</ele>
	<time>2023-10-07T09:27:20.000Z</time>
</trkpt>
<trkpt lat="45.9401040" lon="9.5496900">
	<ele>1795.00</ele>
	<time>2023-10-07T09:27:21.000Z</time>
</trkpt>
<trkpt lat="45.9401040" lon="9.5496890">
	<ele>1795.00</ele>
	<time>2023-10-07T09:27:22.000Z</time>
</trkpt>
<trkpt lat="45.9401040" lon="9.5496890">
	<ele>1795.20</ele>
	<time>2023-10-07T09:27:23.000Z</time>
</trkpt>
<trkpt lat="45.9401040" lon="9.5496880">
	<ele>1795.20</ele>
	<time>2023-10-07T09:27:24.000Z</time>
</trkpt>
<trkpt lat="45.9401040" lon="9.5496880">
	<ele>1795.20</ele>
	<time>2023-10-07T09:27:25.000Z</time>
</trkpt>
<trkpt lat="45.9401040" lon="9.5496870">
	<ele>1795.40</ele>
	<time>2023-10-07T09:27:26.000Z</time>
</trkpt>
<trkpt lat="45.9401040" lon="9.5496870">
	<ele>1795.40</ele>
	<time>2023-10-07T09:27:27.000Z</time>
</trkpt>
<trkpt lat="45.9401040" lon="9.5496860">
	<ele>1795.60</ele>
	<time>2023-10-07T09:27:28.000Z</time>
</trkpt>
<trkpt lat="45.9401040" lon="9.5496860">
	<ele>1795.60</ele>
	<time>2023-10-07T09:27:29.000Z</time>
</trkpt>
<trkpt lat="45.9401040" lon="9.5496860">
	<ele>1795.80</ele>
	<time>2023-10-07T09:27:30.000Z</time>
</trkpt>
<trkpt lat="45.9401040" lon="9.5496850">
	<ele>1795.80</ele>
	<time>2023-10-07T09:27:31.000Z</time>
</trkpt>
<trkpt lat="45.9401030" lon="9.5496850">
	<ele>1796.00</ele>
	<time>2023-10-07T09:27:32.000Z</time>
</trkpt>
<trkpt lat="45.9401030" lon="9.5496850">
	<ele>1796.20</ele>
	<time>2023-10-07T09:27:33.000Z</time>
</trkpt>
<trkpt lat="45.9401030" lon="9.5496840">
	<ele>1796.20</ele>
	<time>2023-10-07T09:27:34.000Z</time>
</trkpt>
<trkpt lat="45.9401030" lon="9.5496840">
	<ele>1796.40</ele>
	<time>2023-10-07T09:27:35.000Z</time>
</trkpt>
<trkpt lat="45.9401030" lon="9.5496830">
	<ele>1796.60</ele>
	<time>2023-10-07T09:27:36.000Z</time>
</trkpt>
<trkpt lat="45.9401030" lon="9.5496830">
	<ele>1796.80</ele>
	<time>2023-10-07T09:27:37.000Z</time>
</trkpt>
<trkpt lat="45.9401030" lon="9.5496820">
	<ele>1797.00</ele>
	<time>2023-10-07T09:27:38.000Z</time>
</trkpt>
<trkpt lat="45.9401030" lon="9.5496820">
	<ele>1797.20</ele>
	<time>2023-10-07T09:27:39.000Z</time>
</trkpt>
<trkpt lat="45.9401030" lon="9.5496820">
	<ele>1797.20</ele>
	<time>2023-10-07T09:27:40.000Z</time>
</trkpt>
<trkpt lat="45.9401030" lon="9.5496810">
	<ele>1797.40</ele>
	<time>2023-10-07T09:27:41.000Z</time>
</trkpt>
<trkpt lat="45.9401020" lon="9.5496810">
	<ele>1797.60</ele>
	<time>2023-10-07T09:27:42.000Z</time>
</trkpt>
<trkpt lat="45.9401020" lon="9.5496800">
	<ele>1797.60</ele>
	<time>2023-10-07T09:27:43.000Z</time>
</trkpt>
<trkpt lat="45.9401020" lon="9.5496800">
	<ele>1797.80</ele>
	<time>2023-10-07T09:27:44.000Z</time>
</trkpt>
<trkpt lat="45.9401020" lon="9.5496790">
	<ele>1798.00</ele>
	<time>2023-10-07T09:27:45.000Z</time>
</trkpt>
<trkpt lat="45.9401020" lon="9.5496790">
	<ele>1798.20</ele>
	<time>2023-10-07T09:27:46.000Z</time>
</trkpt>
<trkpt lat="45.9401020" lon="9.5496790">
	<ele>1798.20</ele>
	<time>2023-10-07T09:27:47.000Z</time>
</trkpt>
<trkpt lat="45.9401020" lon="9.5496780">
	<ele>1798.20</ele>
	<time>2023-10-07T09:27:48.000Z</time>
</trkpt>
<trkpt lat="45.9401020" lon="9.5496780">
	<ele>1798.40</ele>
	<time>2023-10-07T09:27:49.000Z</time>
</trkpt>
<trkpt lat="45.9401020" lon="9.5496770">
	<ele>1798.60</ele>
	<time>2023-10-07T09:27:50.000Z</time>
</trkpt>
<trkpt lat="45.9401020" lon="9.5496770">
	<ele>1798.60</ele>
	<time>2023-10-07T09:27:51.000Z</time>
</trkpt>
<trkpt lat="45.9401010" lon="9.5496760">
	<ele>1798.80</ele>
	<time>2023-10-07T09:27:52.000Z</time>
</trkpt>
<trkpt lat="45.9401010" lon="9.5496760">
	<ele>1799.00</ele>
	<time>2023-10-07T09:27:53.000Z</time>
</trkpt>
<trkpt lat="45.9401010" lon="9.5496750">
	<ele>1799.00</ele>
	<time>2023-10-07T09:27:54.000Z</time>
</trkpt>
<trkpt lat="45.9401010" lon="9.5496750">
	<ele>1799.00</ele>
	<time>2023-10-07T09:27:55.000Z</time>
</trkpt>
<trkpt lat="45.9401010" lon="9.5496750">
	<ele>1799.20</ele>
	<time>2023-10-07T09:27:56.000Z</time>
</trkpt>
<trkpt lat="45.9401010" lon="9.5496740">
	<ele>1799.20</ele>
	<time>2023-10-07T09:27:57.000Z</time>
</trkpt>
<trkpt lat="45.9401010" lon="9.5496740">
	<ele>1799.60</ele>
	<time>2023-10-07T09:27:58.000Z</time>
</trkpt>
<trkpt lat="45.9401000" lon="9.5496730">
	<ele>1800.00</ele>
	<time>2023-10-07T09:27:59.000Z</time>
</trkpt>
<trkpt lat="45.9401000" lon="9.5496730">
	<ele>1800.20</ele>
	<time>2023-10-07T09:28:00.000Z</time>
</trkpt>
<trkpt lat="45.9401000" lon="9.5496730">
	<ele>1800.40</ele>
	<time>2023-10-07T09:28:01.000Z</time>
</trkpt>
<trkpt lat="45.9401000" lon="9.5496720">
	<ele>1800.40</ele>
	<time>2023-10-07T09:28:02.000Z</time>
</trkpt>
<trkpt lat="45.9401000" lon="9.5496720">
	<ele>1800.80</ele>
	<time>2023-10-07T09:28:03.000Z</time>
</trkpt>
<trkpt lat="45.9401000" lon="9.5496710">
	<ele>1801.00</ele>
	<time>2023-10-07T09:28:04.000Z</time>
</trkpt>
<trkpt lat="45.9401000" lon="9.5496710">
	<ele>1801.20</ele>
	<time>2023-10-07T09:28:05.000Z</time>
</trkpt>
<trkpt lat="45.9400990" lon="9.5496700">
	<ele>1801.40</ele>
	<time>2023-10-07T09:28:06.000Z</time>
</trkpt>
<trkpt lat="45.9400990" lon="9.5496700">
	<ele>1801.40</ele>
	<time>2023-10-07T09:28:07.000Z</time>
</trkpt>
<trkpt lat="45.9400990" lon="9.5496690">
	<ele>1801.60</ele>
	<time>2023-10-07T09:28:08.000Z</time>
</trkpt>
<trkpt lat="45.9400990" lon="9.5496690">
	<ele>1801.60</ele>
	<time>2023-10-07T09:28:09.000Z</time>
</trkpt>
<trkpt lat="45.9400990" lon="9.5496680">
	<ele>1801.60</ele>
	<time>2023-10-07T09:28:10.000Z</time>
</trkpt>
<trkpt lat="45.9400990" lon="9.5496680">
	<ele>1801.80</ele>
	<time>2023-10-07T09:28:11.000Z</time>
</trkpt>
<trkpt lat="45.9400990" lon="9.5496670">
	<ele>1801.80</ele>
	<time>2023-10-07T09:28:12.000Z</time>
</trkpt>
<trkpt lat="45.9400980" lon="9.5496660">
	<ele>1802.00</ele>
	<time>2023-10-07T09:28:13.000Z</time>
</trkpt>
<trkpt lat="45.9400980" lon="9.5496660">
	<ele>1802.20</ele>
	<time>2023-10-07T09:28:14.000Z</time>
</trkpt>
<trkpt lat="45.9400980" lon="9.5496660">
	<ele>1802.40</ele>
	<time>2023-10-07T09:28:15.000Z</time>
</trkpt>
<trkpt lat="45.9400980" lon="9.5496650">
	<ele>1802.60</ele>
	<time>2023-10-07T09:28:16.000Z</time>
</trkpt>
<trkpt lat="45.9400980" lon="9.5496650">
	<ele>1802.80</ele>
	<time>2023-10-07T09:28:17.000Z</time>
</trkpt>
<trkpt lat="45.9400980" lon="9.5496640">
	<ele>1802.80</ele>
	<time>2023-10-07T09:28:18.000Z</time>
</trkpt>
<trkpt lat="45.9400980" lon="9.5496630">
	<ele>1803.00</ele>
	<time>2023-10-07T09:28:19.000Z</time>
</trkpt>
<trkpt lat="45.9400970" lon="9.5496630">
	<ele>1803.00</ele>
	<time>2023-10-07T09:28:20.000Z</time>
</trkpt>
<trkpt lat="45.9400970" lon="9.5496620">
	<ele>1803.00</ele>
	<time>2023-10-07T09:28:21.000Z</time>
</trkpt>
<trkpt lat="45.9400970" lon="9.5496620">
	<ele>1803.20</ele>
	<time>2023-10-07T09:28:22.000Z</time>
</trkpt>
<trkpt lat="45.9400970" lon="9.5496610">
	<ele>1803.40</ele>
	<time>2023-10-07T09:28:23.000Z</time>
</trkpt>
<trkpt lat="45.9400970" lon="9.5496610">
	<ele>1803.40</ele>
	<time>2023-10-07T09:28:24.000Z</time>
</trkpt>
<trkpt lat="45.9400970" lon="9.5496600">
	<ele>1803.60</ele>
	<time>2023-10-07T09:28:25.000Z</time>
</trkpt>
<trkpt lat="45.9400970" lon="9.5496600">
	<ele>1803.60</ele>
	<time>2023-10-07T09:28:26.000Z</time>
</trkpt>
<trkpt lat="45.9400970" lon="9.5496590">
	<ele>1803.60</ele>
	<time>2023-10-07T09:28:27.000Z</time>
</trkpt>
<trkpt lat="45.9400970" lon="9.5496590">
	<ele>1804.00</ele>
	<time>2023-10-07T09:28:28.000Z</time>
</trkpt>
<trkpt lat="45.9400960" lon="9.5496580">
	<ele>1804.20</ele>
	<time>2023-10-07T09:28:29.000Z</time>
</trkpt>
<trkpt lat="45.9400960" lon="9.5496580">
	<ele>1804.20</ele>
	<time>2023-10-07T09:28:30.000Z</time>
</trkpt>
<trkpt lat="45.9400960" lon="9.5496570">
	<ele>1804.40</ele>
	<time>2023-10-07T09:28:31.000Z</time>
</trkpt>
<trkpt lat="45.9400960" lon="9.5496560">
	<ele>1804.60</ele>
	<time>2023-10-07T09:28:32.000Z</time>
</trkpt>
<trkpt lat="45.9400960" lon="9.5496560">
	<ele>1804.60</ele>
	<time>2023-10-07T09:28:33.000Z</time>
</trkpt>
<trkpt lat="45.9400960" lon="9.5496550">
	<ele>1804.60</ele>
	<time>2023-10-07T09:28:34.000Z</time>
</trkpt>
<trkpt lat="45.9400960" lon="9.5496550">
	<ele>1804.60</ele>
	<time>2023-10-07T09:28:35.000Z</time>
</trkpt>
<trkpt lat="45.9400950" lon="9.5496540">
	<ele>1804.80</ele>
	<time>2023-10-07T09:28:36.000Z</time>
</trkpt>
<trkpt lat="45.9400950" lon="9.5496540">
	<ele>1805.00</ele>
	<time>2023-10-07T09:28:37.000Z</time>
</trkpt>
<trkpt lat="45.9400950" lon="9.5496530">
	<ele>1805.20</ele>
	<time>2023-10-07T09:28:38.000Z</time>
</trkpt>
<trkpt lat="45.9400950" lon="9.5496520">
	<ele>1805.20</ele>
	<time>2023-10-07T09:28:39.000Z</time>
</trkpt>
<trkpt lat="45.9400950" lon="9.5496520">
	<ele>1805.40</ele>
	<time>2023-10-07T09:28:40.000Z</time>
</trkpt>
<trkpt lat="45.9400950" lon="9.5496510">
	<ele>1805.60</ele>
	<time>2023-10-07T09:28:41.000Z</time>
</trkpt>
<trkpt lat="45.9400950" lon="9.5496510">
	<ele>1805.80</ele>
	<time>2023-10-07T09:28:42.000Z</time>
</trkpt>
<trkpt lat="45.9400940" lon="9.5496500">
	<ele>1805.80</ele>
	<time>2023-10-07T09:28:43.000Z</time>
</trkpt>
<trkpt lat="45.9400940" lon="9.5496490">
	<ele>1806.00</ele>
	<time>2023-10-07T09:28:44.000Z</time>
</trkpt>
<trkpt lat="45.9400940" lon="9.5496490">
	<ele>1806.00</ele>
	<time>2023-10-07T09:28:45.000Z</time>
</trkpt>
<trkpt lat="45.9400940" lon="9.5496480">
	<ele>1806.00</ele>
	<time>2023-10-07T09:28:46.000Z</time>
</trkpt>
<trkpt lat="45.9400940" lon="9.5496480">
	<ele>1806.20</ele>
	<time>2023-10-07T09:28:47.000Z</time>
</trkpt>
<trkpt lat="45.9400940" lon="9.5496470">
	<ele>1806.20</ele>
	<time>2023-10-07T09:28:48.000Z</time>
</trkpt>
<trkpt lat="45.9400930" lon="9.5496470">
	<ele>1806.40</ele>
	<time>2023-10-07T09:28:49.000Z</time>
</trkpt>
<trkpt lat="45.9400930" lon="9.5496460">
	<ele>1806.40</ele>
	<time>2023-10-07T09:28:50.000Z</time>
</trkpt>
<trkpt lat="45.9400930" lon="9.5496450">
	<ele>1806.60</ele>
	<time>2023-10-07T09:28:51.000Z</time>
</trkpt>
<trkpt lat="45.9400930" lon="9.5496450">
	<ele>1806.80</ele>
	<time>2023-10-07T09:28:52.000Z</time>
</trkpt>
<trkpt lat="45.9400930" lon="9.5496440">
	<ele>1806.80</ele>
	<time>2023-10-07T09:28:53.000Z</time>
</trkpt>
<trkpt lat="45.9400930" lon="9.5496440">
	<ele>1806.80</ele>
	<time>2023-10-07T09:28:54.000Z</time>
</trkpt>
<trkpt lat="45.9400930" lon="9.5496430">
	<ele>1807.00</ele>
	<time>2023-10-07T09:28:55.000Z</time>
</trkpt>
<trkpt lat="45.9400920" lon="9.5496420">
	<ele>1807.20</ele>
	<time>2023-10-07T09:28:56.000Z</time>
</trkpt>
<trkpt lat="45.9400920" lon="9.5496420">
	<ele>1807.40</ele>
	<time>2023-10-07T09:28:57.000Z</time>
</trkpt>
<trkpt lat="45.9400920" lon="9.5496410">
	<ele>1807.60</ele>
	<time>2023-10-07T09:28:58.000Z</time>
</trkpt>
<trkpt lat="45.9400920" lon="9.5496410">
	<ele>1807.60</ele>
	<time>2023-10-07T09:28:59.000Z</time>
</trkpt>
<trkpt lat="45.9400920" lon="9.5496400">
	<ele>1807.80</ele>
	<time>2023-10-07T09:29:00.000Z</time>
</trkpt>
<trkpt lat="45.9400920" lon="9.5496390">
	<ele>1807.80</ele>
	<time>2023-10-07T09:29:01.000Z</time>
</trkpt>
<trkpt lat="45.9400920" lon="9.5496390">
	<ele>1808.00</ele>
	<time>2023-10-07T09:29:02.000Z</time>
</trkpt>
<trkpt lat="45.9400910" lon="9.5496380">
	<ele>1808.00</ele>
	<time>2023-10-07T09:29:03.000Z</time>
</trkpt>
<trkpt lat="45.9400910" lon="9.5496370">
	<ele>1808.00</ele>
	<time>2023-10-07T09:29:04.000Z</time>
</trkpt>
<trkpt lat="45.9400910" lon="9.5496370">
	<ele>1808.20</ele>
	<time>2023-10-07T09:29:05.000Z</time>
</trkpt>
<trkpt lat="45.9400910" lon="9.5496360">
	<ele>1808.40</ele>
	<time>2023-10-07T09:29:06.000Z</time>
</trkpt>
<trkpt lat="45.9400910" lon="9.5496360">
	<ele>1808.60</ele>
	<time>2023-10-07T09:29:07.000Z</time>
</trkpt>
<trkpt lat="45.9400910" lon="9.5496350">
	<ele>1808.60</ele>
	<time>2023-10-07T09:29:08.000Z</time>
</trkpt>
<trkpt lat="45.9400910" lon="9.5496340">
	<ele>1808.80</ele>
	<time>2023-10-07T09:29:09.000Z</time>
</trkpt>
<trkpt lat="45.9400900" lon="9.5496340">
	<ele>1809.00</ele>
	<time>2023-10-07T09:29:10.000Z</time>
</trkpt>
<trkpt lat="45.9400900" lon="9.5496330">
	<ele>1809.00</ele>
	<time>2023-10-07T09:29:11.000Z</time>
</trkpt>
<trkpt lat="45.9400900" lon="9.5496320">
	<ele>1809.00</ele>
	<time>2023-10-07T09:29:12.000Z</time>
</trkpt>
<trkpt lat="45.9400900" lon="9.5496310">
	<ele>1809.20</ele>
	<time>2023-10-07T09:29:13.000Z</time>
</trkpt>
<trkpt lat="45.9400900" lon="9.5496310">
	<ele>1809.40</ele>
	<time>2023-10-07T09:29:14.000Z</time>
</trkpt>
<trkpt lat="45.9400900" lon="9.5496300">
	<ele>1809.40</ele>
	<time>2023-10-07T09:29:15.000Z</time>
</trkpt>
<trkpt lat="45.9400900" lon="9.5496290">
	<ele>1809.60</ele>
	<time>2023-10-07T09:29:16.000Z</time>
</trkpt>
<trkpt lat="45.9400890" lon="9.5496290">
	<ele>1809.80</ele>
	<time>2023-10-07T09:29:17.000Z</time>
</trkpt>
<trkpt lat="45.9400890" lon="9.5496280">
	<ele>1810.00</ele>
	<time>2023-10-07T09:29:18.000Z</time>
</trkpt>
<trkpt lat="45.9400890" lon="9.5496270">
	<ele>1810.20</ele>
	<time>2023-10-07T09:29:19.000Z</time>
</trkpt>
<trkpt lat="45.9400890" lon="9.5496270">
	<ele>1810.40</ele>
	<time>2023-10-07T09:29:20.000Z</time>
</trkpt>
<trkpt lat="45.9400890" lon="9.5496260">
	<ele>1810.60</ele>
	<time>2023-10-07T09:29:21.000Z</time>
</trkpt>
<trkpt lat="45.9400890" lon="9.5496250">
	<ele>1810.60</ele>
	<time>2023-10-07T09:29:22.000Z</time>
</trkpt>
<trkpt lat="45.9400890" lon="9.5496240">
	<ele>1810.80</ele>
	<time>2023-10-07T09:29:23.000Z</time>
</trkpt>
<trkpt lat="45.9400880" lon="9.5496240">
	<ele>1811.20</ele>
	<time>2023-10-07T09:29:24.000Z</time>
</trkpt>
<trkpt lat="45.9400880" lon="9.5496230">
	<ele>1811.40</ele>
	<time>2023-10-07T09:29:25.000Z</time>
</trkpt>
<trkpt lat="45.9400880" lon="9.5496220">
	<ele>1811.40</ele>
	<time>2023-10-07T09:29:26.000Z</time>
</trkpt>
<trkpt lat="45.9400880" lon="9.5496210">
	<ele>1811.60</ele>
	<time>2023-10-07T09:29:27.000Z</time>
</trkpt>
<trkpt lat="45.9400880" lon="9.5496210">
	<ele>1811.60</ele>
	<time>2023-10-07T09:29:28.000Z</time>
</trkpt>
<trkpt lat="45.9400880" lon="9.5496200">
	<ele>1811.60</ele>
	<time>2023-10-07T09:29:29.000Z</time>
</trkpt>
<trkpt lat="45.9400880" lon="9.5496190">
	<ele>1811.60</ele>
	<time>2023-10-07T09:29:30.000Z</time>
</trkpt>
<trkpt lat="45.9400870" lon="9.5496180">
	<ele>1811.80</ele>
	<time>2023-10-07T09:29:31.000Z</time>
</trkpt>
<trkpt lat="45.9400870" lon="9.5496170">
	<ele>1811.80</ele>
	<time>2023-10-07T09:29:32.000Z</time>
</trkpt>
<trkpt lat="45.9400870" lon="9.5496170">
	<ele>1811.80</ele>
	<time>2023-10-07T09:29:33.000Z</time>
</trkpt>
<trkpt lat="45.9400870" lon="9.5496160">
	<ele>1812.00</ele>
	<time>2023-10-07T09:29:34.000Z</time>
</trkpt>
<trkpt lat="45.9400870" lon="9.5496150">
	<ele>1812.00</ele>
	<time>2023-10-07T09:29:35.000Z</time>
</trkpt>
<trkpt lat="45.9400870" lon="9.5496140">
	<ele>1812.20</ele>
	<time>2023-10-07T09:29:36.000Z</time>
</trkpt>
<trkpt lat="45.9400860" lon="9.5496140">
	<ele>1812.40</ele>
	<time>2023-10-07T09:29:37.000Z</time>
</trkpt>
<trkpt lat="45.9400860" lon="9.5496130">
	<ele>1812.60</ele>
	<time>2023-10-07T09:29:38.000Z</time>
</trkpt>
<trkpt lat="45.9400860" lon="9.5496120">
	<ele>1812.80</ele>
	<time>2023-10-07T09:29:39.000Z</time>
</trkpt>
<trkpt lat="45.9400860" lon="9.5496110">
	<ele>1812.80</ele>
	<time>2023-10-07T09:29:40.000Z</time>
</trkpt>
<trkpt lat="45.9400860" lon="9.5496100">
	<ele>1813.00</ele>
	<time>2023-10-07T09:29:41.000Z</time>
</trkpt>
<trkpt lat="45.9400860" lon="9.5496100">
	<ele>1813.20</ele>
	<time>2023-10-07T09:29:42.000Z</time>
</trkpt>
<trkpt lat="45.9400860" lon="9.5496090">
	<ele>1813.20</ele>
	<time>2023-10-07T09:29:43.000Z</time>
</trkpt>
<trkpt lat="45.9400860" lon="9.5496080">
	<ele>1813.40</ele>
	<time>2023-10-07T09:29:44.000Z</time>
</trkpt>
<trkpt lat="45.9400860" lon="9.5496070">
	<ele>1813.60</ele>
	<time>2023-10-07T09:29:45.000Z</time>
</trkpt>
<trkpt lat="45.9400850" lon="9.5496070">
	<ele>1813.60</ele>
	<time>2023-10-07T09:29:46.000Z</time>
</trkpt>
<trkpt lat="45.9400850" lon="9.5496060">
	<ele>1813.80</ele>
	<time>2023-10-07T09:29:47.000Z</time>
</trkpt>
<trkpt lat="45.9400850" lon="9.5496050">
	<ele>1814.00</ele>
	<time>2023-10-07T09:29:48.000Z</time>
</trkpt>
<trkpt lat="45.9400850" lon="9.5496040">
	<ele>1814.00</ele>
	<time>2023-10-07T09:29:49.000Z</time>
</trkpt>
<trkpt lat="45.9400850" lon="9.5496030">
	<ele>1814.20</ele>
	<time>2023-10-07T09:29:50.000Z</time>
</trkpt>
<trkpt lat="45.9400850" lon="9.5496030">
	<ele>1814.40</ele>
	<time>2023-10-07T09:29:51.000Z</time>
</trkpt>
<trkpt lat="45.9400850" lon="9.5496020">
	<ele>1814.40</ele>
	<time>2023-10-07T09:29:52.000Z</time>
</trkpt>
<trkpt lat="45.9400850" lon="9.5496010">
	<ele>1814.40</ele>
	<time>2023-10-07T09:29:53.000Z</time>
</trkpt>
<trkpt lat="45.9400840" lon="9.5496000">
	<ele>1814.40</ele>
	<time>2023-10-07T09:29:54.000Z</time>
</trkpt>
<trkpt lat="45.9400840" lon="9.5495990">
	<ele>1814.60</ele>
	<time>2023-10-07T09:29:55.000Z</time>
</trkpt>
<trkpt lat="45.9400840" lon="9.5495980">
	<ele>1814.60</ele>
	<time>2023-10-07T09:29:56.000Z</time>
</trkpt>
<trkpt lat="45.9400840" lon="9.5495980">
	<ele>1814.60</ele>
	<time>2023-10-07T09:29:57.000Z</time>
</trkpt>
<trkpt lat="45.9400840" lon="9.5495970">
	<ele>1814.80</ele>
	<time>2023-10-07T09:29:58.000Z</time>
</trkpt>
<trkpt lat="45.9400840" lon="9.5495960">
	<ele>1815.00</ele>
	<time>2023-10-07T09:29:59.000Z</time>
</trkpt>
<trkpt lat="45.9400840" lon="9.5495950">
	<ele>1815.20</ele>
	<time>2023-10-07T09:30:00.000Z</time>
</trkpt>
<trkpt lat="45.9400840" lon="9.5495940">
	<ele>1815.20</ele>
	<time>2023-10-07T09:30:01.000Z</time>
</trkpt>
<trkpt lat="45.9400830" lon="9.5495930">
	<ele>1815.20</ele>
	<time>2023-10-07T09:30:02.000Z</time>
</trkpt>
<trkpt lat="45.9400830" lon="9.5495930">
	<ele>1815.20</ele>
	<time>2023-10-07T09:30:03.000Z</time>
</trkpt>
<trkpt lat="45.9400830" lon="9.5495920">
	<ele>1815.20</ele>
	<time>2023-10-07T09:30:04.000Z</time>
</trkpt>
<trkpt lat="45.9400830" lon="9.5495910">
	<ele>1815.20</ele>
	<time>2023-10-07T09:30:05.000Z</time>
</trkpt>
<trkpt lat="45.9400830" lon="9.5495900">
	<ele>1815.20</ele>
	<time>2023-10-07T09:30:06.000Z</time>
</trkpt>
<trkpt lat="45.9400830" lon="9.5495890">
	<ele>1815.20</ele>
	<time>2023-10-07T09:30:07.000Z</time>
</trkpt>
<trkpt lat="45.9400830" lon="9.5495880">
	<ele>1815.40</ele>
	<time>2023-10-07T09:30:08.000Z</time>
</trkpt>
<trkpt lat="45.9400830" lon="9.5495880">
	<ele>1815.40</ele>
	<time>2023-10-07T09:30:09.000Z</time>
</trkpt>
<trkpt lat="45.9400830" lon="9.5495870">
	<ele>1815.60</ele>
	<time>2023-10-07T09:30:10.000Z</time>
</trkpt>
<trkpt lat="45.9400830" lon="9.5495860">
	<ele>1815.80</ele>
	<time>2023-10-07T09:30:11.000Z</time>
</trkpt>
<trkpt lat="45.9400830" lon="9.5495850">
	<ele>1816.00</ele>
	<time>2023-10-07T09:30:12.000Z</time>
</trkpt>
<trkpt lat="45.9400820" lon="9.5495840">
	<ele>1816.00</ele>
	<time>2023-10-07T09:30:13.000Z</time>
</trkpt>
<trkpt lat="45.9400820" lon="9.5495830">
	<ele>1816.20</ele>
	<time>2023-10-07T09:30:14.000Z</time>
</trkpt>
<trkpt lat="45.9400820" lon="9.5495820">
	<ele>1816.40</ele>
	<time>2023-10-07T09:30:15.000Z</time>
</trkpt>
<trkpt lat="45.9400820" lon="9.5495810">
	<ele>1816.60</ele>
	<time>2023-10-07T09:30:16.000Z</time>
</trkpt>
<trkpt lat="45.9400820" lon="9.5495800">
	<ele>1816.80</ele>
	<time>2023-10-07T09:30:17.000Z</time>
</trkpt>
<trkpt lat="45.9400820" lon="9.5495790">
	<ele>1817.00</ele>
	<time>2023-10-07T09:30:18.000Z</time>
</trkpt>
<trkpt lat="45.9400820" lon="9.5495790">
	<ele>1817.00</ele>
	<time>2023-10-07T09:30:19.000Z</time>
</trkpt>
<trkpt lat="45.9400820" lon="9.5495780">
	<ele>1817.00</ele>
	<time>2023-10-07T09:30:20.000Z</time>
</trkpt>
<trkpt lat="45.9400820" lon="9.5495770">
	<ele>1817.20</ele>
	<time>2023-10-07T09:30:21.000Z</time>
</trkpt>
<trkpt lat="45.9400820" lon="9.5495760">
	<ele>1817.20</ele>
	<time>2023-10-07T09:30:22.000Z</time>
</trkpt>
<trkpt lat="45.9400760" lon="9.5494940">
	<ele>1817.40</ele>
	<time>2023-10-07T09:30:23.000Z</time>
</trkpt>
<trkpt lat="45.9400730" lon="9.5494010">
	<ele>1817.40</ele>
	<time>2023-10-07T09:30:24.000Z</time>
</trkpt>
<trkpt lat="45.9400710" lon="9.5493060">
	<ele>1817.60</ele>
	<time>2023-10-07T09:30:25.000Z</time>
</trkpt>
<trkpt lat="45.9400670" lon="9.5492160">
	<ele>1817.60</ele>
	<time>2023-10-07T09:30:26.000Z</time>
</trkpt>
<trkpt lat="45.9400630" lon="9.5491240">
	<ele>1817.80</ele>
	<time>2023-10-07T09:30:27.000Z</time>
</trkpt>
<trkpt lat="45.9400590" lon="9.5490300">
	<ele>1817.80</ele>
	<time>2023-10-07T09:30:28.000Z</time>
</trkpt>
<trkpt lat="45.9400530" lon="9.5489360">
	<ele>1818.00</ele>
	<time>2023-10-07T09:30:29.000Z</time>
</trkpt>
<trkpt lat="45.9400490" lon="9.5488430">
	<ele>1818.00</ele>
	<time>2023-10-07T09:30:30.000Z</time>
</trkpt>
<trkpt lat="45.9400440" lon="9.5487490">
	<ele>1818.20</ele>
	<time>2023-10-07T09:30:31.000Z</time>
</trkpt>
<trkpt lat="45.9400380" lon="9.5486590">
	<ele>1818.20</ele>
	<time>2023-10-07T09:30:32.000Z</time>
</trkpt>
<trkpt lat="45.9400400" lon="9.5486490">
	<ele>1818.40</ele>
	<time>2023-10-07T09:30:33.000Z</time>
</trkpt>
<trkpt lat="45.9400430" lon="9.5486380">
	<ele>1818.40</ele>
	<time>2023-10-07T09:30:34.000Z</time>
</trkpt>
<trkpt lat="45.9400450" lon="9.5486270">
	<ele>1818.60</ele>
	<time>2023-10-07T09:30:35.000Z</time>
</trkpt>
<trkpt lat="45.9400490" lon="9.5486170">
	<ele>1818.60</ele>
	<time>2023-10-07T09:30:36.000Z</time>
</trkpt>
<trkpt lat="45.9400500" lon="9.5486080">
	<ele>1818.80</ele>
	<time>2023-10-07T09:30:37.000Z</time>
</trkpt>
<trkpt lat="45.9400510" lon="9.5486020">
	<ele>1818.80</ele>
	<time>2023-10-07T09:30:38.000Z</time>
</trkpt>
<trkpt lat="45.9400510" lon="9.5485940">
	<ele>1819.00</ele>
	<time>2023-10-07T09:30:39.000Z</time>
</trkpt>
<trkpt lat="45.9400500" lon="9.5485830">
	<ele>1819.00</ele>
	<time>2023-10-07T09:30:40.000Z</time>
</trkpt>
<trkpt lat="45.9400500" lon="9.5485730">
	<ele>1819.20</ele>
	<time>2023-10-07T09:30:41.000Z</time>
</trkpt>
<trkpt lat="45.9400510" lon="9.5485660">
	<ele>1819.40</ele>
	<time>2023-10-07T09:30:42.000Z</time>
</trkpt>
<trkpt lat="45.9400500" lon="9.5485570">
	<ele>1819.60</ele>
	<time>2023-10-07T09:30:43.000Z</time>
</trkpt>
<trkpt lat="45.9400520" lon="9.5485480">
	<ele>1819.60</ele>
	<time>2023-10-07T09:30:44.000Z</time>
</trkpt>
<trkpt lat="45.9400530" lon="9.5485420">
	<ele>1820.00</ele>
	<time>2023-10-07T09:30:45.000Z</time>
</trkpt>
<trkpt lat="45.9400540" lon="9.5485380">
	<ele>1820.20</ele>
	<time>2023-10-07T09:30:46.000Z</time>
</trkpt>
<trkpt lat="45.9400540" lon="9.5485350">
	<ele>1820.20</ele>
	<time>2023-10-07T09:30:47.000Z</time>
</trkpt>
<trkpt lat="45.9400510" lon="9.5485320">
	<ele>1820.40</ele>
	<time>2023-10-07T09:30:48.000Z</time>
</trkpt>
<trkpt lat="45.9400500" lon="9.5485250">
	<ele>1820.40</ele>
	<time>2023-10-07T09:30:49.000Z</time>
</trkpt>
<trkpt lat="45.9400520" lon="9.5485200">
	<ele>1820.60</ele>
	<time>2023-10-07T09:30:50.000Z</time>
</trkpt>
<trkpt lat="45.9400540" lon="9.5485160">
	<ele>1820.80</ele>
	<time>2023-10-07T09:30:51.000Z</time>
</trkpt>
<trkpt lat="45.9400550" lon="9.5485070">
	<ele>1821.00</ele>
	<time>2023-10-07T09:30:52.000Z</time>
</trkpt>
<trkpt lat="45.9400560" lon="9.5484980">
	<ele>1821.20</ele>
	<time>2023-10-07T09:30:53.000Z</time>
</trkpt>
<trkpt lat="45.9400580" lon="9.5484930">
	<ele>1821.20</ele>
	<time>2023-10-07T09:30:54.000Z</time>
</trkpt>
<trkpt lat="45.9400600" lon="9.5484860">
	<ele>1821.20</ele>
	<time>2023-10-07T09:30:55.000Z</time>
</trkpt>
<trkpt lat="45.9400640" lon="9.5484750">
	<ele>1821.20</ele>
	<time>2023-10-07T09:30:56.000Z</time>
</trkpt>
<trkpt lat="45.9400650" lon="9.5484670">
	<ele>1821.40</ele>
	<time>2023-10-07T09:30:57.000Z</time>
</trkpt>
<trkpt lat="45.9400660" lon="9.5484560">
	<ele>1821.40</ele>
	<time>2023-10-07T09:30:58.000Z</time>
</trkpt>
<trkpt lat="45.9400680" lon="9.5484450">
	<ele>1821.40</ele>
	<time>2023-10-07T09:30:59.000Z</time>
</trkpt>
<trkpt lat="45.9400710" lon="9.5484270">
	<ele>1821.60</ele>
	<time>2023-10-07T09:31:00.000Z</time>
</trkpt>
<trkpt lat="45.9400720" lon="9.5484140">
	<ele>1821.60</ele>
	<time>2023-10-07T09:31:01.000Z</time>
</trkpt>
<trkpt lat="45.9400740" lon="9.5484020">
	<ele>1821.60</ele>
	<time>2023-10-07T09:31:02.000Z</time>
</trkpt>
<trkpt lat="45.9400730" lon="9.5483900">
	<ele>1821.80</ele>
	<time>2023-10-07T09:31:03.000Z</time>
</trkpt>
<trkpt lat="45.9400720" lon="9.5483760">
	<ele>1821.80</ele>
	<time>2023-10-07T09:31:04.000Z</time>
</trkpt>
<trkpt lat="45.9400750" lon="9.5483670">
	<ele>1822.00</ele>
	<time>2023-10-07T09:31:05.000Z</time>
</trkpt>
<trkpt lat="45.9400780" lon="9.5483590">
	<ele>1822.00</ele>
	<time>2023-10-07T09:31:06.000Z</time>
</trkpt>
<trkpt lat="45.9400770" lon="9.5483540">
	<ele>1822.20</ele>
	<time>2023-10-07T09:31:07.000Z</time>
</trkpt>
<trkpt lat="45.9400760" lon="9.5483510">
	<ele>1822.40</ele>
	<time>2023-10-07T09:31:08.000Z</time>
</trkpt>
<trkpt lat="45.9400730" lon="9.5483430">
	<ele>1822.60</ele>
	<time>2023-10-07T09:31:09.000Z</time>
</trkpt>
<trkpt lat="45.9400710" lon="9.5483340">
	<ele>1822.80</ele>
	<time>2023-10-07T09:31:10.000Z</time>
</trkpt>
<trkpt lat="45.9400700" lon="9.5483280">
	<ele>1823.00</ele>
	<time>2023-10-07T09:31:11.000Z</time>
</trkpt>
<trkpt lat="45.9400690" lon="9.5483220">
	<ele>1823.00</ele>
	<time>2023-10-07T09:31:12.000Z</time>
</trkpt>
<trkpt lat="45.9400690" lon="9.5483130">
	<ele>1823.20</ele>
	<time>2023-10-07T09:31:13.000Z</time>
</trkpt>
<trkpt lat="45.9400700" lon="9.5483050">
	<ele>1823.20</ele>
	<time>2023-10-07T09:31:14.000Z</time>
</trkpt>
<trkpt lat="45.9400730" lon="9.5483000">
	<ele>1823.60</ele>
	<time>2023-10-07T09:31:15.000Z</time>
</trkpt>
<trkpt lat="45.9400750" lon="9.5482970">
	<ele>1823.80</ele>
	<time>2023-10-07T09:31:16.000Z</time>
</trkpt>
<trkpt lat="45.9400770" lon="9.5482880">
	<ele>1824.00</ele>
	<time>2023-10-07T09:31:17.000Z</time>
</trkpt>
<trkpt lat="45.9400790" lon="9.5482800">
	<ele>1824.00</ele>
	<time>2023-10-07T09:31:18.000Z</time>
</trkpt>
<trkpt lat="45.9400780" lon="9.5482720">
	<ele>1824.20</ele>
	<time>2023-10-07T09:31:19.000Z</time>
</trkpt>
<trkpt lat="45.9400760" lon="9.5482620">
	<ele>1824.20</ele>
	<time>2023-10-07T09:31:20.000Z</time>
</trkpt>
<trkpt lat="45.9400760" lon="9.5482550">
	<ele>1824.40</ele>
	<time>2023-10-07T09:31:21.000Z</time>
</trkpt>
<trkpt lat="45.9400760" lon="9.5482450">
	<ele>1824.40</ele>
	<time>2023-10-07T09:31:22.000Z</time>
</trkpt>
<trkpt lat="45.9400760" lon="9.5482350">
	<ele>1824.60</ele>
	<time>2023-10-07T09:31:23.000Z</time>
</trkpt>
<trkpt lat="45.9400750" lon="9.5482240">
	<ele>1824.60</ele>
	<time>2023-10-07T09:31:24.000Z</time>
</trkpt>
<trkpt lat="45.9400770" lon="9.5482190">
	<ele>1824.80</ele>
	<time>2023-10-07T09:31:25.000Z</time>
</trkpt>
<trkpt lat="45.9400790" lon="9.5482060">
	<ele>1825.00</ele>
	<time>2023-10-07T09:31:26.000Z</time>
</trkpt>
<trkpt lat="45.9400790" lon="9.5481950">
	<ele>1825.00</ele>
	<time>2023-10-07T09:31:27.000Z</time>
</trkpt>
<trkpt lat="45.9400760" lon="9.5481840">
	<ele>1825.00</ele>
	<time>2023-10-07T09:31:28.000Z</time>
</trkpt>
<trkpt lat="45.9400780" lon="9.5481740">
	<ele>1825.20</ele>
	<time>2023-10-07T09:31:29.000Z</time>
</trkpt>
<trkpt lat="45.9400820" lon="9.5481630">
	<ele>1825.40</ele>
	<time>2023-10-07T09:31:30.000Z</time>
</trkpt>
<trkpt lat="45.9400840" lon="9.5481550">
	<ele>1825.60</ele>
	<time>2023-10-07T09:31:31.000Z</time>
</trkpt>
<trkpt lat="45.9400870" lon="9.5481500">
	<ele>1825.60</ele>
	<time>2023-10-07T09:31:32.000Z</time>
</trkpt>
<trkpt lat="45.9400880" lon="9.5481430">
	<ele>1825.80</ele>
	<time>2023-10-07T09:31:33.000Z</time>
</trkpt>
<trkpt lat="45.9400880" lon="9.5481350">
	<ele>1825.80</ele>
	<time>2023-10-07T09:31:34.000Z</time>
</trkpt>
<trkpt lat="45.9400890" lon="9.5481280">
	<ele>1825.80</ele>
	<time>2023-10-07T09:31:35.000Z</time>
</trkpt>
<trkpt lat="45.9400880" lon="9.5481190">
	<ele>1825.80</ele>
	<time>2023-10-07T09:31:36.000Z</time>
</trkpt>
<trkpt lat="45.9400860" lon="9.5481100">
	<ele>1826.00</ele>
	<time>2023-10-07T09:31:37.000Z</time>
</trkpt>
<trkpt lat="45.9400830" lon="9.5481000">
	<ele>1826.20</ele>
	<time>2023-10-07T09:31:38.000Z</time>
</trkpt>
<trkpt lat="45.9400820" lon="9.5480920">
	<ele>1826.20</ele>
	<time>2023-10-07T09:31:39.000Z</time>
</trkpt>
<trkpt lat="45.9400800" lon="9.5480840">
	<ele>1826.40</ele>
	<time>2023-10-07T09:31:40.000Z</time>
</trkpt>
<trkpt lat="45.9400800" lon="9.5480750">
	<ele>1826.60</ele>
	<time>2023-10-07T09:31:41.000Z</time>
</trkpt>
<trkpt lat="45.9400840" lon="9.5480640">
	<ele>1826.80</ele>
	<time>2023-10-07T09:31:42.000Z</time>
</trkpt>
<trkpt lat="45.9400840" lon="9.5480570">
	<ele>1826.80</ele>
	<time>2023-10-07T09:31:43.000Z</time>
</trkpt>
<trkpt lat="45.9400850" lon="9.5480530">
	<ele>1827.00</ele>
	<time>2023-10-07T09:31:44.000Z</time>
</trkpt>
<trkpt lat="45.9400860" lon="9.5480430">
	<ele>1827.00</ele>
	<time>2023-10-07T09:31:45.000Z</time>
</trkpt>
<trkpt lat="45.9400860" lon="9.5480360">
	<ele>1827.20</ele>
	<time>2023-10-07T09:31:46.000Z</time>
</trkpt>
<trkpt lat="45.9400860" lon="9.5480250">
	<ele>1827.20</ele>
	<time>2023-10-07T09:31:47.000Z</time>
</trkpt>
<trkpt lat="45.9400880" lon="9.5480120">
	<ele>1827.40</ele>
	<time>2023-10-07T09:31:48.000Z</time>
</trkpt>
<trkpt lat="45.9400890" lon="9.5480020">
	<ele>1827.40</ele>
	<time>2023-10-07T09:31:49.000Z</time>
</trkpt>
<trkpt lat="45.9400900" lon="9.5479930">
	<ele>1827.60</ele>
	<time>2023-10-07T09:31:50.000Z</time>
</trkpt>
<trkpt lat="45.9400900" lon="9.5479820">
	<ele>1827.80</ele>
	<time>2023-10-07T09:31:51.000Z</time>
</trkpt>
<trkpt lat="45.9400880" lon="9.5479690">
	<ele>1828.00</ele>
	<time>2023-10-07T09:31:52.000Z</time>
</trkpt>
<trkpt lat="45.9400860" lon="9.5479590">
	<ele>1828.00</ele>
	<time>2023-10-07T09:31:53.000Z</time>
</trkpt>
<trkpt lat="45.9400830" lon="9.5479490">
	<ele>1828.00</ele>
	<time>2023-10-07T09:31:54.000Z</time>
</trkpt>
<trkpt lat="45.9400810" lon="9.5479370">
	<ele>1828.00</ele>
	<time>2023-10-07T09:31:55.000Z</time>
</trkpt>
<trkpt lat="45.9400790" lon="9.5479280">
	<ele>1828.20</ele>
	<time>2023-10-07T09:31:56.000Z</time>
</trkpt>
<trkpt lat="45.9400790" lon="9.5479210">
	<ele>1828.20</ele>
	<time>2023-10-07T09:31:57.000Z</time>
</trkpt>
<trkpt lat="45.9400790" lon="9.5479140">
	<ele>1828.40</ele>
	<time>2023-10-07T09:31:58.000Z</time>
</trkpt>
<trkpt lat="45.9400780" lon="9.5479050">
	<ele>1828.60</ele>
	<time>2023-10-07T09:31:59.000Z</time>
</trkpt>
<trkpt lat="45.9400760" lon="9.5478940">
	<ele>1828.60</ele>
	<time>2023-10-07T09:32:00.000Z</time>
</trkpt>
<trkpt lat="45.9400740" lon="9.5478820">
	<ele>1828.80</ele>
	<time>2023-10-07T09:32:01.000Z</time>
</trkpt>
<trkpt lat="45.9400720" lon="9.5478720">
	<ele>1829.00</ele>
	<time>2023-10-07T09:32:02.000Z</time>
</trkpt>
<trkpt lat="45.9400710" lon="9.5478630">
	<ele>1829.20</ele>
	<time>2023-10-07T09:32:03.000Z</time>
</trkpt>
<trkpt lat="45.9400700" lon="9.5478500">
	<ele>1829.20</ele>
	<time>2023-10-07T09:32:04.000Z</time>
</trkpt>
<trkpt lat="45.9400710" lon="9.5478380">
	<ele>1829.40</ele>
	<time>2023-10-07T09:32:05.000Z</time>
</trkpt>
<trkpt lat="45.9400700" lon="9.5478260">
	<ele>1829.60</ele>
	<time>2023-10-07T09:32:06.000Z</time>
</trkpt>
<trkpt lat="45.9400690" lon="9.5478210">
	<ele>1829.60</ele>
	<time>2023-10-07T09:32:07.000Z</time>
</trkpt>
<trkpt lat="45.9400680" lon="9.5478110">
	<ele>1829.60</ele>
	<time>2023-10-07T09:32:08.000Z</time>
</trkpt>
<trkpt lat="45.9400680" lon="9.5477980">
	<ele>1829.60</ele>
	<time>2023-10-07T09:32:09.000Z</time>
</trkpt>
<trkpt lat="45.9400690" lon="9.5477860">
	<ele>1829.80</ele>
	<time>2023-10-07T09:32:10.000Z</time>
</trkpt>
<trkpt lat="45.9400710" lon="9.5477790">
	<ele>1829.80</ele>
	<time>2023-10-07T09:32:11.000Z</time>
</trkpt>
<trkpt lat="45.9400720" lon="9.5477690">
	<ele>1830.00</ele>
	<time>2023-10-07T09:32:12.000Z</time>
</trkpt>
<trkpt lat="45.9400730" lon="9.5477570">
	<ele>1830.00</ele>
	<time>2023-10-07T09:32:13.000Z</time>
</trkpt>
<trkpt lat="45.9400740" lon="9.5477490">
	<ele>1830.20</ele>
	<time>2023-10-07T09:32:14.000Z</time>
</trkpt>
<trkpt lat="45.9400780" lon="9.5477370">
	<ele>1830.40</ele>
	<time>2023-10-07T09:32:15.000Z</time>
</trkpt>
<trkpt lat="45.9400810" lon="9.5477280">
	<ele>1830.40</ele>
	<time>2023-10-07T09:32:16.000Z</time>
</trkpt>
<trkpt lat="45.9400810" lon="9.5477180">
	<ele>1830.40</ele>
	<time>2023-10-07T09:32:17.000Z</time>
</trkpt>
<trkpt lat="45.9400850" lon="9.5477050">
	<ele>1830.60</ele>
	<time>2023-10-07T09:32:18.000Z</time>
</trkpt>
<trkpt lat="45.9400870" lon="9.5477000">
	<ele>1830.80</ele>
	<time>2023-10-07T09:32:19.000Z</time>
</trkpt>
<trkpt lat="45.9400870" lon="9.5476980">
	<ele>1831.00</ele>
	<time>2023-10-07T09:32:20.000Z</time>
</trkpt>
<trkpt lat="45.9400880" lon="9.5476940">
	<ele>1831.20</ele>
	<time>2023-10-07T09:32:21.000Z</time>
</trkpt>
<trkpt lat="45.9400880" lon="9.5476870">
	<ele>1831.40</ele>
	<time>2023-10-07T09:32:22.000Z</time>
</trkpt>
<trkpt lat="45.9400880" lon="9.5476800">
	<ele>1831.40</ele>
	<time>2023-10-07T09:32:23.000Z</time>
</trkpt>
<trkpt lat="45.9400870" lon="9.5476740">
	<ele>1831.40</ele>
	<time>2023-10-07T09:32:24.000Z</time>
</trkpt>
<trkpt lat="45.9400890" lon="9.5476660">
	<ele>1831.60</ele>
	<time>2023-10-07T09:32:25.000Z</time>
</trkpt>
<trkpt lat="45.9400900" lon="9.5476580">
	<ele>1831.80</ele>
	<time>2023-10-07T09:32:26.000Z</time>
</trkpt>
<trkpt lat="45.9400900" lon="9.5476530">
	<ele>1831.80</ele>
	<time>2023-10-07T09:32:27.000Z</time>
</trkpt>
<trkpt lat="45.9400920" lon="9.5476460">
	<ele>1832.00</ele>
	<time>2023-10-07T09:32:28.000Z</time>
</trkpt>
<trkpt lat="45.9400920" lon="9.5476360">
	<ele>1832.20</ele>
	<time>2023-10-07T09:32:29.000Z</time>
</trkpt>
<trkpt lat="45.9400940" lon="9.5476280">
	<ele>1832.40</ele>
	<time>2023-10-07T09:32:30.000Z</time>
</trkpt>
<trkpt lat="45.9400950" lon="9.5476220">
	<ele>1832.60</ele>
	<time>2023-10-07T09:32:31.000Z</time>
</trkpt>
<trkpt lat="45.9400970" lon="9.5476110">
	<ele>1832.80</ele>
	<time>2023-10-07T09:32:32.000Z</time>
</trkpt>
<trkpt lat="45.9400990" lon="9.5476040">
	<ele>1832.80</ele>
	<time>2023-10-07T09:32:33.000Z</time>
</trkpt>
<trkpt lat="45.9401000" lon="9.5476000">
	<ele>1833.00</ele>
	<time>2023-10-07T09:32:34.000Z</time>
</trkpt>
<trkpt lat="45.9401010" lon="9.5475930">
	<ele>1833.20</ele>
	<time>2023-10-07T09:32:35.000Z</time>
</trkpt>
<trkpt lat="45.9401010" lon="9.5475830">
	<ele>1833.20</ele>
	<time>2023-10-07T09:32:36.000Z</time>
</trkpt>
<trkpt lat="45.9401020" lon="9.5475700">
	<ele>1833.20</ele>
	<time>2023-10-07T09:32:37.000Z</time>
</trkpt>
<trkpt lat="45.9401040" lon="9.5475610">
	<ele>1833.40</ele>
	<time>2023-10-07T09:32:38.000Z</time>
</trkpt>
<trkpt lat="45.9401040" lon="9.5475540">
	<ele>1833.40</ele>
	<time>2023-10-07T09:32:39.000Z</time>
</trkpt>
<trkpt lat="45.9401000" lon="9.5475450">
	<ele>1833.40</ele>
	<time>2023-10-07T09:32:40.000Z</time>
</trkpt>
<trkpt lat="45.9400980" lon="9.5475380">
	<ele>1833.60</ele>
	<time>2023-10-07T09:32:41.000Z</time>
</trkpt>
<trkpt lat="45.9400960" lon="9.5475330">
	<ele>1833.60</ele>
	<time>2023-10-07T09:32:42.000Z</time>
</trkpt>
<trkpt lat="45.9400950" lon="9.5475240">
	<ele>1833.80</ele>
	<time>2023-10-07T09:32:43.000Z</time>
</trkpt>
<trkpt lat="45.9400940" lon="9.5475140">
	<ele>1833.80</ele>
	<time>2023-10-07T09:32:44.000Z</time>
</trkpt>
<trkpt lat="45.9400950" lon="9.5475000">
	<ele>1833.80</ele>
	<time>2023-10-07T09:32:45.000Z</time>
</trkpt>
<trkpt lat="45.9400950" lon="9.5474890">
	<ele>1834.00</ele>
	<time>2023-10-07T09:32:46.000Z</time>
</trkpt>
<trkpt lat="45.9400970" lon="9.5474780">
	<ele>1834.20</ele>
	<time>2023-10-07T09:32:47.000Z</time>
</trkpt>
<trkpt lat="45.9400970" lon="9.5474710">
	<ele>1834.20</ele>
	<time>2023-10-07T09:32:48.000Z</time>
</trkpt>
<trkpt lat="45.9400960" lon="9.5474620">
	<ele>1834.40</ele>
	<time>2023-10-07T09:32:49.000Z</time>
</trkpt>
<trkpt lat="45.9400950" lon="9.5474530">
	<ele>1834.60</ele>
	<time>2023-10-07T09:32:50.000Z</time>
</trkpt>
<trkpt lat="45.9400930" lon="9.5474460">
	<ele>1834.60</ele>
	<time>2023-10-07T09:32:51.000Z</time>
</trkpt>
<trkpt lat="45.9400920" lon="9.5474340">
	<ele>1834.80</ele>
	<time>2023-10-07T09:32:52.000Z</time>
</trkpt>
<trkpt lat="45.9400920" lon="9.5474180">
	<ele>1835.00</ele>
	<time>2023-10-07T09:32:53.000Z</time>
</trkpt>
<trkpt lat="45.9400920" lon="9.5474060">
	<ele>1835.00</ele>
	<time>2023-10-07T09:32:54.000Z</time>
</trkpt>
<trkpt lat="45.9400930" lon="9.5474020">
	<ele>1835.00</ele>
	<time>2023-10-07T09:32:55.000Z</time>
</trkpt>
<trkpt lat="45.9400950" lon="9.5473940">
	<ele>1835.20</ele>
	<time>2023-10-07T09:32:56.000Z</time>
</trkpt>
<trkpt lat="45.9400950" lon="9.5473840">
	<ele>1835.20</ele>
	<time>2023-10-07T09:32:57.000Z</time>
</trkpt>
<trkpt lat="45.9400970" lon="9.5473750">
	<ele>1835.40</ele>
	<time>2023-10-07T09:32:58.000Z</time>
</trkpt>
<trkpt lat="45.9400980" lon="9.5473660">
	<ele>1835.60</ele>
	<time>2023-10-07T09:32:59.000Z</time>
</trkpt>
<trkpt lat="45.9400970" lon="9.5473590">
	<ele>1835.80</ele>
	<time>2023-10-07T09:33:00.000Z</time>
</trkpt>
<trkpt lat="45.9400950" lon="9.5473530">
	<ele>1836.00</ele>
	<time>2023-10-07T09:33:01.000Z</time>
</trkpt>
<trkpt lat="45.9400930" lon="9.5473450">
	<ele>1836.20</ele>
	<time>2023-10-07T09:33:02.000Z</time>
</trkpt>
<trkpt lat="45.9400910" lon="9.5473380">
	<ele>1836.40</ele>
	<time>2023-10-07T09:33:03.000Z</time>
</trkpt>
<trkpt lat="45.9400910" lon="9.5473330">
	<ele>1836.40</ele>
	<time>2023-10-07T09:33:04.000Z</time>
</trkpt>
<trkpt lat="45.9400890" lon="9.5473240">
	<ele>1836.60</ele>
	<time>2023-10-07T09:33:05.000Z</time>
</trkpt>
<trkpt lat="45.9400880" lon="9.5473130">
	<ele>1836.60</ele>
	<time>2023-10-07T09:33:06.000Z</time>
</trkpt>
<trkpt lat="45.9400880" lon="9.5473020">
	<ele>1836.80</ele>
	<time>2023-10-07T09:33:07.000Z</time>
</trkpt>
<trkpt lat="45.9400860" lon="9.5472890">
	<ele>1837.00</ele>
	<time>2023-10-07T09:33:08.000Z</time>
</trkpt>
<trkpt lat="45.9400860" lon="9.5472820">
	<ele>1837.00</ele>
	<time>2023-10-07T09:33:09.000Z</time>
</trkpt>
<trkpt lat="45.9400890" lon="9.5472710">
	<ele>1837.20</ele>
	<time>2023-10-07T09:33:10.000Z</time>
</trkpt>
<trkpt lat="45.9400910" lon="9.5472610">
	<ele>1837.20</ele>
	<time>2023-10-07T09:33:11.000Z</time>
</trkpt>
<trkpt lat="45.9400930" lon="9.5472480">
	<ele>1837.40</ele>
	<time>2023-10-07T09:33:12.000Z</time>
</trkpt>
<trkpt lat="45.9400940" lon="9.5472420">
	<ele>1837.60</ele>
	<time>2023-10-07T09:33:13.000Z</time>
</trkpt>
<trkpt lat="45.9400940" lon="9.5472340">
	<ele>1837.80</ele>
	<time>2023-10-07T09:33:14.000Z</time>
</trkpt>
<trkpt lat="45.9400930" lon="9.5472230">
	<ele>1837.80</ele>
	<time>2023-10-07T09:33:15.000Z</time>
</trkpt>
<trkpt lat="45.9400930" lon="9.5472130">
	<ele>1838.00</ele>
	<time>2023-10-07T09:33:16.000Z</time>
</trkpt>
<trkpt lat="45.9400930" lon="9.5472060">
	<ele>1838.00</ele>
	<time>2023-10-07T09:33:17.000Z</time>
</trkpt>
<trkpt lat="45.9400910" lon="9.5471950">
	<ele>1838.00</ele>
	<time>2023-10-07T09:33:18.000Z</time>
</trkpt>
<trkpt lat="45.9400890" lon="9.5471840">
	<ele>1838.00</ele>
	<time>2023-10-07T09:33:19.000Z</time>
</trkpt>
<trkpt lat="45.9400870" lon="9.5471760">
	<ele>1838.20</ele>
	<time>2023-10-07T09:33:20.000Z</time>
</trkpt>
<trkpt lat="45.9400840" lon="9.5471710">
	<ele>1838.00</ele>
	<time>2023-10-07T09:33:21.000Z</time>
</trkpt>
<trkpt lat="45.9400790" lon="9.5471630">
	<ele>1838.00</ele>
	<time>2023-10-07T09:33:22.000Z</time>
</trkpt>
<trkpt lat="45.9400760" lon="9.5471540">
	<ele>1838.00</ele>
	<time>2023-10-07T09:33:23.000Z</time>
</trkpt>
<trkpt lat="45.9400750" lon="9.5471510">
	<ele>1838.00</ele>
	<time>2023-10-07T09:33:24.000Z</time>
</trkpt>
<trkpt lat="45.9400750" lon="9.5471490">
	<ele>1838.00</ele>
	<time>2023-10-07T09:33:25.000Z</time>
</trkpt>
<trkpt lat="45.9400760" lon="9.5471490">
	<ele>1838.00</ele>
	<time>2023-10-07T09:33:26.000Z</time>
</trkpt>
<trkpt lat="45.9400750" lon="9.5471500">
	<ele>1838.00</ele>
	<time>2023-10-07T09:33:27.000Z</time>
</trkpt>
<trkpt lat="45.9400740" lon="9.5471490">
	<ele>1838.40</ele>
	<time>2023-10-07T09:33:28.000Z</time>
</trkpt>
<trkpt lat="45.9400740" lon="9.5471500">
	<ele>1838.40</ele>
	<time>2023-10-07T09:33:29.000Z</time>
</trkpt>
<trkpt lat="45.9400740" lon="9.5471500">
	<ele>1838.60</ele>
	<time>2023-10-07T09:33:30.000Z</time>
</trkpt>
<trkpt lat="45.9400740" lon="9.5471490">
	<ele>1838.60</ele>
	<time>2023-10-07T09:33:31.000Z</time>
</trkpt>
<trkpt lat="45.9400730" lon="9.5471490">
	<ele>1838.60</ele>
	<time>2023-10-07T09:33:32.000Z</time>
</trkpt>
<trkpt lat="45.9400730" lon="9.5471490">
	<ele>1838.60</ele>
	<time>2023-10-07T09:33:33.000Z</time>
</trkpt>
<trkpt lat="45.9400730" lon="9.5471490">
	<ele>1838.60</ele>
	<time>2023-10-07T09:33:34.000Z</time>
</trkpt>
<trkpt lat="45.9400730" lon="9.5471490">
	<ele>1838.60</ele>
	<time>2023-10-07T09:33:35.000Z</time>
</trkpt>
<trkpt lat="45.9400730" lon="9.5471490">
	<ele>1838.60</ele>
	<time>2023-10-07T09:33:36.000Z</time>
</trkpt>
<trkpt lat="45.9400730" lon="9.5471490">
	<ele>1838.40</ele>
	<time>2023-10-07T09:33:37.000Z</time>
</trkpt>
<trkpt lat="45.9400730" lon="9.5471490">
	<ele>1838.20</ele>
	<time>2023-10-07T09:33:38.000Z</time>
</trkpt>
<trkpt lat="45.9400730" lon="9.5471490">
	<ele>1838.20</ele>
	<time>2023-10-07T09:33:39.000Z</time>
</trkpt>
<trkpt lat="45.9400730" lon="9.5471490">
	<ele>1838.20</ele>
	<time>2023-10-07T09:33:40.000Z</time>
</trkpt>
<trkpt lat="45.9400740" lon="9.5471490">
	<ele>1838.20</ele>
	<time>2023-10-07T09:33:41.000Z</time>
</trkpt>
<trkpt lat="45.9400740" lon="9.5471490">
	<ele>1838.20</ele>
	<time>2023-10-07T09:33:42.000Z</time>
</trkpt>
<trkpt lat="45.9400740" lon="9.5471490">
	<ele>1838.00</ele>
	<time>2023-10-07T09:33:43.000Z</time>
</trkpt>
<trkpt lat="45.9400740" lon="9.5471490">
	<ele>1838.00</ele>
	<time>2023-10-07T09:33:44.000Z</time>
</trkpt>
<trkpt lat="45.9400740" lon="9.5471490">
	<ele>1838.00</ele>
	<time>2023-10-07T09:33:45.000Z</time>
</trkpt>
<trkpt lat="45.9400740" lon="9.5471490">
	<ele>1838.00</ele>
	<time>2023-10-07T09:33:46.000Z</time>
</trkpt>
<trkpt lat="45.9400750" lon="9.5471490">
	<ele>1838.00</ele>
	<time>2023-10-07T09:33:47.000Z</time>
</trkpt>
<trkpt lat="45.9400750" lon="9.5471490">
	<ele>1838.00</ele>
	<time>2023-10-07T09:33:48.000Z</time>
</trkpt>
<trkpt lat="45.9400750" lon="9.5471490">
	<ele>1838.00</ele>
	<time>2023-10-07T09:33:49.000Z</time>
</trkpt>
<trkpt lat="45.9400750" lon="9.5471490">
	<ele>1838.00</ele>
	<time>2023-10-07T09:33:50.000Z</time>
</trkpt>
<trkpt lat="45.9400750" lon="9.5471490">
	<ele>1838.00</ele>
	<time>2023-10-07T09:33:51.000Z</time>
</trkpt>
<trkpt lat="45.9400750" lon="9.5471490">
	<ele>1838.00</ele>
	<time>2023-10-07T09:33:52.000Z</time>
</trkpt>
<trkpt lat="45.9400760" lon="9.5471490">
	<ele>1838.00</ele>
	<time>2023-10-07T09:33:53.000Z</time>
</trkpt>
<trkpt lat="45.9400760" lon="9.5471490">
	<ele>1838.00</ele>
	<time>2023-10-07T09:33:54.000Z</time>
</trkpt>
<trkpt lat="45.9400760" lon="9.5471440">
	<ele>1837.80</ele>
	<time>2023-10-07T09:33:55.000Z</time>
</trkpt>
<trkpt lat="45.9400760" lon="9.5471370">
	<ele>1837.80</ele>
	<time>2023-10-07T09:33:56.000Z</time>
</trkpt>
<trkpt lat="45.9400780" lon="9.5471300">
	<ele>1837.80</ele>
	<time>2023-10-07T09:33:57.000Z</time>
</trkpt>
<trkpt lat="45.9400800" lon="9.5471240">
	<ele>1837.80</ele>
	<time>2023-10-07T09:33:58.000Z</time>
</trkpt>
<trkpt lat="45.9400840" lon="9.5471160">
	<ele>1837.80</ele>
	<time>2023-10-07T09:33:59.000Z</time>
</trkpt>
<trkpt lat="45.9400880" lon="9.5471120">
	<ele>1837.80</ele>
	<time>2023-10-07T09:34:00.000Z</time>
</trkpt>
<trkpt lat="45.9400880" lon="9.5471100">
	<ele>1838.00</ele>
	<time>2023-10-07T09:34:01.000Z</time>
</trkpt>
<trkpt lat="45.9400880" lon="9.5471100">
	<ele>1838.00</ele>
	<time>2023-10-07T09:34:02.000Z</time>
</trkpt>
<trkpt lat="45.9400880" lon="9.5471100">
	<ele>1838.00</ele>
	<time>2023-10-07T09:34:03.000Z</time>
</trkpt>
<trkpt lat="45.9400880" lon="9.5471090">
	<ele>1838.00</ele>
	<time>2023-10-07T09:34:04.000Z</time>
</trkpt>
<trkpt lat="45.9400890" lon="9.5471070">
	<ele>1838.00</ele>
	<time>2023-10-07T09:34:05.000Z</time>
</trkpt>
<trkpt lat="45.9400910" lon="9.5471030">
	<ele>1838.00</ele>
	<time>2023-10-07T09:34:06.000Z</time>
</trkpt>
<trkpt lat="45.9400910" lon="9.5470980">
	<ele>1838.00</ele>
	<time>2023-10-07T09:34:07.000Z</time>
</trkpt>
<trkpt lat="45.9400930" lon="9.5470970">
	<ele>1838.00</ele>
	<time>2023-10-07T09:34:08.000Z</time>
</trkpt>
<trkpt lat="45.9400930" lon="9.5470970">
	<ele>1838.00</ele>
	<time>2023-10-07T09:34:09.000Z</time>
</trkpt>
<trkpt lat="45.9400930" lon="9.5470970">
	<ele>1838.00</ele>
	<time>2023-10-07T09:34:10.000Z</time>
</trkpt>
<trkpt lat="45.9400930" lon="9.5470970">
	<ele>1838.00</ele>
	<time>2023-10-07T09:34:11.000Z</time>
</trkpt>
<trkpt lat="45.9400930" lon="9.5470970">
	<ele>1838.00</ele>
	<time>2023-10-07T09:34:12.000Z</time>
</trkpt>
<trkpt lat="45.9400930" lon="9.5470970">
	<ele>1838.00</ele>
	<time>2023-10-07T09:34:13.000Z</time>
</trkpt>
<trkpt lat="45.9400940" lon="9.5470970">
	<ele>1838.00</ele>
	<time>2023-10-07T09:34:14.000Z</time>
</trkpt>
<trkpt lat="45.9400940" lon="9.5470970">
	<ele>1838.20</ele>
	<time>2023-10-07T09:34:15.000Z</time>
</trkpt>
<trkpt lat="45.9400940" lon="9.5470970">
	<ele>1838.20</ele>
	<time>2023-10-07T09:34:16.000Z</time>
</trkpt>
<trkpt lat="45.9400940" lon="9.5470970">
	<ele>1838.20</ele>
	<time>2023-10-07T09:34:17.000Z</time>
</trkpt>
<trkpt lat="45.9400940" lon="9.5470970">
	<ele>1838.20</ele>
	<time>2023-10-07T09:34:18.000Z</time>
</trkpt>
<trkpt lat="45.9400940" lon="9.5470970">
	<ele>1838.20</ele>
	<time>2023-10-07T09:34:19.000Z</time>
</trkpt>
<trkpt lat="45.9400940" lon="9.5470970">
	<ele>1838.20</ele>
	<time>2023-10-07T09:34:20.000Z</time>
</trkpt>
<trkpt lat="45.9400940" lon="9.5470970">
	<ele>1838.20</ele>
	<time>2023-10-07T09:34:21.000Z</time>
</trkpt>
<trkpt lat="45.9400940" lon="9.5470990">
	<ele>1838.20</ele>
	<time>2023-10-07T09:34:22.000Z</time>
</trkpt>
<trkpt lat="45.9400940" lon="9.5471010">
	<ele>1838.20</ele>
	<time>2023-10-07T09:34:23.000Z</time>
</trkpt>
<trkpt lat="45.9400930" lon="9.5471020">
	<ele>1838.20</ele>
	<time>2023-10-07T09:34:24.000Z</time>
</trkpt>
<trkpt lat="45.9400930" lon="9.5471020">
	<ele>1838.20</ele>
	<time>2023-10-07T09:34:25.000Z</time>
</trkpt>
<trkpt lat="45.9400930" lon="9.5471020">
	<ele>1838.00</ele>
	<time>2023-10-07T09:34:26.000Z</time>
</trkpt>
<trkpt lat="45.9400930" lon="9.5471020">
	<ele>1838.00</ele>
	<time>2023-10-07T09:34:27.000Z</time>
</trkpt>
<trkpt lat="45.9400930" lon="9.5471030">
	<ele>1838.00</ele>
	<time>2023-10-07T09:34:28.000Z</time>
</trkpt>
<trkpt lat="45.9400930" lon="9.5471030">
	<ele>1838.00</ele>
	<time>2023-10-07T09:34:29.000Z</time>
</trkpt>
<trkpt lat="45.9400930" lon="9.5471110">
	<ele>1838.00</ele>
	<time>2023-10-07T09:34:30.000Z</time>
</trkpt>
<trkpt lat="45.9400920" lon="9.5471260">
	<ele>1838.00</ele>
	<time>2023-10-07T09:34:31.000Z</time>
</trkpt>
<trkpt lat="45.9400910" lon="9.5471380">
	<ele>1838.20</ele>
	<time>2023-10-07T09:34:32.000Z</time>
</trkpt>
<trkpt lat="45.9400870" lon="9.5471540">
	<ele>1838.20</ele>
	<time>2023-10-07T09:34:33.000Z</time>
</trkpt>
<trkpt lat="45.9400850" lon="9.5471640">
	<ele>1838.40</ele>
	<time>2023-10-07T09:34:34.000Z</time>
</trkpt>
<trkpt lat="45.9400850" lon="9.5471700">
	<ele>1838.40</ele>
	<time>2023-10-07T09:34:35.000Z</time>
</trkpt>
<trkpt lat="45.9400860" lon="9.5471730">
	<ele>1838.40</ele>
	<time>2023-10-07T09:34:36.000Z</time>
</trkpt>
<trkpt lat="45.9400860" lon="9.5471770">
	<ele>1838.60</ele>
	<time>2023-10-07T09:34:37.000Z</time>
</trkpt>
<trkpt lat="45.9400850" lon="9.5471830">
	<ele>1838.40</ele>
	<time>2023-10-07T09:34:38.000Z</time>
</trkpt>
<trkpt lat="45.9400850" lon="9.5471910">
	<ele>1838.40</ele>
	<time>2023-10-07T09:34:39.000Z</time>
</trkpt>
<trkpt lat="45.9400860" lon="9.5471910">
	<ele>1838.20</ele>
	<time>2023-10-07T09:34:40.000Z</time>
</trkpt>
<trkpt lat="45.9400850" lon="9.5471920">
	<ele>1838.20</ele>
	<time>2023-10-07T09:34:41.000Z</time>
</trkpt>
<trkpt lat="45.9400830" lon="9.5471940">
	<ele>1838.40</ele>
	<time>2023-10-07T09:34:42.000Z</time>
</trkpt>
<trkpt lat="45.9400800" lon="9.5472030">
	<ele>1838.40</ele>
	<time>2023-10-07T09:34:43.000Z</time>
</trkpt>
<trkpt lat="45.9400770" lon="9.5472070">
	<ele>1838.40</ele>
	<time>2023-10-07T09:34:44.000Z</time>
</trkpt>
<trkpt lat="45.9400750" lon="9.5472090">
	<ele>1838.40</ele>
	<time>2023-10-07T09:34:45.000Z</time>
</trkpt>
<trkpt lat="45.9400730" lon="9.5472090">
	<ele>1838.40</ele>
	<time>2023-10-07T09:34:46.000Z</time>
</trkpt>
<trkpt lat="45.9400720" lon="9.5472090">
	<ele>1838.40</ele>
	<time>2023-10-07T09:34:47.000Z</time>
</trkpt>
<trkpt lat="45.9400720" lon="9.5472090">
	<ele>1838.40</ele>
	<time>2023-10-07T09:34:48.000Z</time>
</trkpt>
<trkpt lat="45.9400720" lon="9.5472090">
	<ele>1838.20</ele>
	<time>2023-10-07T09:34:49.000Z</time>
</trkpt>
<trkpt lat="45.9400720" lon="9.5472090">
	<ele>1838.00</ele>
	<time>2023-10-07T09:34:50.000Z</time>
</trkpt>
<trkpt lat="45.9400720" lon="9.5472090">
	<ele>1837.60</ele>
	<time>2023-10-07T09:34:51.000Z</time>
</trkpt>
<trkpt lat="45.9400720" lon="9.5472090">
	<ele>1837.60</ele>
	<time>2023-10-07T09:34:52.000Z</time>
</trkpt>
<trkpt lat="45.9400720" lon="9.5472090">
	<ele>1837.60</ele>
	<time>2023-10-07T09:34:53.000Z</time>
</trkpt>
<trkpt lat="45.9400720" lon="9.5472090">
	<ele>1837.60</ele>
	<time>2023-10-07T09:34:54.000Z</time>
</trkpt>
<trkpt lat="45.9400720" lon="9.5472090">
	<ele>1837.60</ele>
	<time>2023-10-07T09:34:55.000Z</time>
</trkpt>
<trkpt lat="45.9400730" lon="9.5472090">
	<ele>1837.60</ele>
	<time>2023-10-07T09:34:56.000Z</time>
</trkpt>
<trkpt lat="45.9400740" lon="9.5472090">
	<ele>1837.60</ele>
	<time>2023-10-07T09:34:57.000Z</time>
</trkpt>
<trkpt lat="45.9400750" lon="9.5472090">
	<ele>1837.60</ele>
	<time>2023-10-07T09:34:58.000Z</time>
</trkpt>
<trkpt lat="45.9400760" lon="9.5472090">
	<ele>1837.60</ele>
	<time>2023-10-07T09:34:59.000Z</time>
</trkpt>
<trkpt lat="45.9400760" lon="9.5472090">
	<ele>1837.60</ele>
	<time>2023-10-07T09:35:00.000Z</time>
</trkpt>
<trkpt lat="45.9400760" lon="9.5472090">
	<ele>1837.60</ele>
	<time>2023-10-07T09:35:01.000Z</time>
</trkpt>
<trkpt lat="45.9400760" lon="9.5472090">
	<ele>1837.60</ele>
	<time>2023-10-07T09:35:02.000Z</time>
</trkpt>
<trkpt lat="45.9400760" lon="9.5472090">
	<ele>1837.60</ele>
	<time>2023-10-07T09:35:03.000Z</time>
</trkpt>
<trkpt lat="45.9400770" lon="9.5472090">
	<ele>1837.60</ele>
	<time>2023-10-07T09:35:04.000Z</time>
</trkpt>
<trkpt lat="45.9400770" lon="9.5472100">
	<ele>1837.60</ele>
	<time>2023-10-07T09:35:05.000Z</time>
</trkpt>
<trkpt lat="45.9400770" lon="9.5472120">
	<ele>1837.60</ele>
	<time>2023-10-07T09:35:06.000Z</time>
</trkpt>
<trkpt lat="45.9400770" lon="9.5472130">
	<ele>1837.60</ele>
	<time>2023-10-07T09:35:07.000Z</time>
</trkpt>
<trkpt lat="45.9400770" lon="9.5472140">
	<ele>1837.60</ele>
	<time>2023-10-07T09:35:08.000Z</time>
</trkpt>
<trkpt lat="45.9400770" lon="9.5472140">
	<ele>1837.60</ele>
	<time>2023-10-07T09:35:09.000Z</time>
</trkpt>
<trkpt lat="45.9400760" lon="9.5472140">
	<ele>1837.60</ele>
	<time>2023-10-07T09:35:10.000Z</time>
</trkpt>
<trkpt lat="45.9400760" lon="9.5472140">
	<ele>1837.60</ele>
	<time>2023-10-07T09:35:11.000Z</time>
</trkpt>
<trkpt lat="45.9400760" lon="9.5472150">
	<ele>1837.60</ele>
	<time>2023-10-07T09:35:12.000Z</time>
</trkpt>
<trkpt lat="45.9400760" lon="9.5472150">
	<ele>1837.60</ele>
	<time>2023-10-07T09:35:13.000Z</time>
</trkpt>
<trkpt lat="45.9400760" lon="9.5472150">
	<ele>1837.60</ele>
	<time>2023-10-07T09:35:14.000Z</time>
</trkpt>
<trkpt lat="45.9400760" lon="9.5472150">
	<ele>1837.60</ele>
	<time>2023-10-07T09:35:15.000Z</time>
</trkpt>
<trkpt lat="45.9400760" lon="9.5472150">
	<ele>1837.60</ele>
	<time>2023-10-07T09:35:16.000Z</time>
</trkpt>
<trkpt lat="45.9400760" lon="9.5472160">
	<ele>1837.60</ele>
	<time>2023-10-07T09:35:17.000Z</time>
</trkpt>
<trkpt lat="45.9400760" lon="9.5472170">
	<ele>1837.60</ele>
	<time>2023-10-07T09:35:18.000Z</time>
</trkpt>
<trkpt lat="45.9400770" lon="9.5472170">
	<ele>1837.60</ele>
	<time>2023-10-07T09:35:19.000Z</time>
</trkpt>
<trkpt lat="45.9400770" lon="9.5472180">
	<ele>1837.60</ele>
	<time>2023-10-07T09:35:20.000Z</time>
</trkpt>
<trkpt lat="45.9400770" lon="9.5472180">
	<ele>1837.60</ele>
	<time>2023-10-07T09:35:21.000Z</time>
</trkpt>
<trkpt lat="45.9400770" lon="9.5472180">
	<ele>1837.60</ele>
	<time>2023-10-07T09:35:22.000Z</time>
</trkpt>
<trkpt lat="45.9400770" lon="9.5472180">
	<ele>1837.60</ele>
	<time>2023-10-07T09:35:23.000Z</time>
</trkpt>
<trkpt lat="45.9400770" lon="9.5472170">
	<ele>1837.60</ele>
	<time>2023-10-07T09:35:24.000Z</time>
</trkpt>
<trkpt lat="45.9400770" lon="9.5472170">
	<ele>1837.60</ele>
	<time>2023-10-07T09:35:25.000Z</time>
</trkpt>
<trkpt lat="45.9400770" lon="9.5472170">
	<ele>1837.60</ele>
	<time>2023-10-07T09:35:26.000Z</time>
</trkpt>
<trkpt lat="45.9400770" lon="9.5472160">
	<ele>1837.60</ele>
	<time>2023-10-07T09:35:27.000Z</time>
</trkpt>
<trkpt lat="45.9400770" lon="9.5472160">
	<ele>1837.60</ele>
	<time>2023-10-07T09:35:28.000Z</time>
</trkpt>
<trkpt lat="45.9400780" lon="9.5472150">
	<ele>1837.60</ele>
	<time>2023-10-07T09:35:29.000Z</time>
</trkpt>
<trkpt lat="45.9400780" lon="9.5472150">
	<ele>1837.60</ele>
	<time>2023-10-07T09:35:30.000Z</time>
</trkpt>
<trkpt lat="45.9400780" lon="9.5472150">
	<ele>1837.60</ele>
	<time>2023-10-07T09:35:31.000Z</time>
</trkpt>
<trkpt lat="45.9400780" lon="9.5472150">
	<ele>1837.60</ele>
	<time>2023-10-07T09:35:32.000Z</time>
</trkpt>
<trkpt lat="45.9400780" lon="9.5472150">
	<ele>1837.60</ele>
	<time>2023-10-07T09:35:33.000Z</time>
</trkpt>
<trkpt lat="45.9400770" lon="9.5472150">
	<ele>1837.60</ele>
	<time>2023-10-07T09:35:34.000Z</time>
</trkpt>
<trkpt lat="45.9400780" lon="9.5472150">
	<ele>1837.60</ele>
	<time>2023-10-07T09:35:35.000Z</time>
</trkpt>
<trkpt lat="45.9400780" lon="9.5472150">
	<ele>1837.60</ele>
	<time>2023-10-07T09:35:36.000Z</time>
</trkpt>
<trkpt lat="45.9400800" lon="9.5472100">
	<ele>1837.60</ele>
	<time>2023-10-07T09:35:37.000Z</time>
</trkpt>
<trkpt lat="45.9400870" lon="9.5471970">
	<ele>1837.60</ele>
	<time>2023-10-07T09:35:38.000Z</time>
</trkpt>
<trkpt lat="45.9400920" lon="9.5471870">
	<ele>1837.60</ele>
	<time>2023-10-07T09:35:39.000Z</time>
</trkpt>
<trkpt lat="45.9400950" lon="9.5471800">
	<ele>1837.60</ele>
	<time>2023-10-07T09:35:40.000Z</time>
</trkpt>
<trkpt lat="45.9400980" lon="9.5471730">
	<ele>1837.60</ele>
	<time>2023-10-07T09:35:41.000Z</time>
</trkpt>
<trkpt lat="45.9401020" lon="9.5471650">
	<ele>1837.60</ele>
	<time>2023-10-07T09:35:42.000Z</time>
</trkpt>
<trkpt lat="45.9401030" lon="9.5471580">
	<ele>1837.60</ele>
	<time>2023-10-07T09:35:43.000Z</time>
</trkpt>
<trkpt lat="45.9401040" lon="9.5471560">
	<ele>1837.60</ele>
	<time>2023-10-07T09:35:44.000Z</time>
</trkpt>
<trkpt lat="45.9401040" lon="9.5471530">
	<ele>1837.60</ele>
	<time>2023-10-07T09:35:45.000Z</time>
</trkpt>
<trkpt lat="45.9401070" lon="9.5471480">
	<ele>1837.60</ele>
	<time>2023-10-07T09:35:46.000Z</time>
</trkpt>
<trkpt lat="45.9401050" lon="9.5471490">
	<ele>1837.60</ele>
	<time>2023-10-07T09:35:47.000Z</time>
</trkpt>
<trkpt lat="45.9401060" lon="9.5471490">
	<ele>1837.60</ele>
	<time>2023-10-07T09:35:48.000Z</time>
</trkpt>
<trkpt lat="45.9401060" lon="9.5471480">
	<ele>1837.60</ele>
	<time>2023-10-07T09:35:49.000Z</time>
</trkpt>
<trkpt lat="45.9401060" lon="9.5471480">
	<ele>1837.60</ele>
	<time>2023-10-07T09:35:50.000Z</time>
</trkpt>
<trkpt lat="45.9401060" lon="9.5471480">
	<ele>1837.60</ele>
	<time>2023-10-07T09:35:51.000Z</time>
</trkpt>
<trkpt lat="45.9401060" lon="9.5471480">
	<ele>1837.60</ele>
	<time>2023-10-07T09:35:52.000Z</time>
</trkpt>
<trkpt lat="45.9401060" lon="9.5471480">
	<ele>1837.60</ele>
	<time>2023-10-07T09:35:53.000Z</time>
</trkpt>
<trkpt lat="45.9401060" lon="9.5471480">
	<ele>1837.60</ele>
	<time>2023-10-07T09:35:54.000Z</time>
</trkpt>
<trkpt lat="45.9401060" lon="9.5471480">
	<ele>1837.60</ele>
	<time>2023-10-07T09:35:55.000Z</time>
</trkpt>
<trkpt lat="45.9401060" lon="9.5471480">
	<ele>1837.60</ele>
	<time>2023-10-07T09:35:56.000Z</time>
</trkpt>
<trkpt lat="45.9401060" lon="9.5471480">
	<ele>1837.60</ele>
	<time>2023-10-07T09:35:57.000Z</time>
</trkpt>
<trkpt lat="45.9401060" lon="9.5471480">
	<ele>1837.60</ele>
	<time>2023-10-07T09:35:58.000Z</time>
</trkpt>
<trkpt lat="45.9401060" lon="9.5471480">
	<ele>1837.60</ele>
	<time>2023-10-07T09:35:59.000Z</time>
</trkpt>
<trkpt lat="45.9401060" lon="9.5471480">
	<ele>1837.60</ele>
	<time>2023-10-07T09:36:00.000Z</time>
</trkpt>
<trkpt lat="45.9401060" lon="9.5471480">
	<ele>1837.60</ele>
	<time>2023-10-07T09:36:01.000Z</time>
</trkpt>
<trkpt lat="45.9401060" lon="9.5471480">
	<ele>1837.60</ele>
	<time>2023-10-07T09:36:02.000Z</time>
</trkpt>
<trkpt lat="45.9401060" lon="9.5471490">
	<ele>1837.60</ele>
	<time>2023-10-07T09:36:03.000Z</time>
</trkpt>
<trkpt lat="45.9401060" lon="9.5471490">
	<ele>1837.60</ele>
	<time>2023-10-07T09:36:04.000Z</time>
</trkpt>
<trkpt lat="45.9401060" lon="9.5471490">
	<ele>1837.60</ele>
	<time>2023-10-07T09:36:05.000Z</time>
</trkpt>
<trkpt lat="45.9401060" lon="9.5471490">
	<ele>1837.60</ele>
	<time>2023-10-07T09:36:06.000Z</time>
</trkpt>
<trkpt lat="45.9401060" lon="9.5471500">
	<ele>1837.60</ele>
	<time>2023-10-07T09:36:07.000Z</time>
</trkpt>
<trkpt lat="45.9401060" lon="9.5471500">
	<ele>1837.60</ele>
	<time>2023-10-07T09:36:08.000Z</time>
</trkpt>
<trkpt lat="45.9401060" lon="9.5471510">
	<ele>1837.60</ele>
	<time>2023-10-07T09:36:09.000Z</time>
</trkpt>
<trkpt lat="45.9401060" lon="9.5471510">
	<ele>1837.60</ele>
	<time>2023-10-07T09:36:10.000Z</time>
</trkpt>
<trkpt lat="45.9401060" lon="9.5471510">
	<ele>1837.60</ele>
	<time>2023-10-07T09:36:11.000Z</time>
</trkpt>
<trkpt lat="45.9401060" lon="9.5471510">
	<ele>1837.60</ele>
	<time>2023-10-07T09:36:12.000Z</time>
</trkpt>
<trkpt lat="45.9401060" lon="9.5471520">
	<ele>1837.60</ele>
	<time>2023-10-07T09:36:13.000Z</time>
</trkpt>
<trkpt lat="45.9401060" lon="9.5471520">
	<ele>1837.60</ele>
	<time>2023-10-07T09:36:14.000Z</time>
</trkpt>
<trkpt lat="45.9401060" lon="9.5471540">
	<ele>1837.60</ele>
	<time>2023-10-07T09:36:15.000Z</time>
</trkpt>
<trkpt lat="45.9401060" lon="9.5471560">
	<ele>1837.60</ele>
	<time>2023-10-07T09:36:16.000Z</time>
</trkpt>
<trkpt lat="45.9401060" lon="9.5471580">
	<ele>1837.60</ele>
	<time>2023-10-07T09:36:17.000Z</time>
</trkpt>
<trkpt lat="45.9401060" lon="9.5471590">
	<ele>1837.60</ele>
	<time>2023-10-07T09:36:18.000Z</time>
</trkpt>
<trkpt lat="45.9401060" lon="9.5471600">
	<ele>1837.60</ele>
	<time>2023-10-07T09:36:19.000Z</time>
</trkpt>
<trkpt lat="45.9401060" lon="9.5471600">
	<ele>1837.60</ele>
	<time>2023-10-07T09:36:20.000Z</time>
</trkpt>
<trkpt lat="45.9401060" lon="9.5471610">
	<ele>1837.60</ele>
	<time>2023-10-07T09:36:21.000Z</time>
</trkpt>
<trkpt lat="45.9401060" lon="9.5471610">
	<ele>1837.60</ele>
	<time>2023-10-07T09:36:22.000Z</time>
</trkpt>
<trkpt lat="45.9401060" lon="9.5471610">
	<ele>1837.60</ele>
	<time>2023-10-07T09:36:23.000Z</time>
</trkpt>
<trkpt lat="45.9401060" lon="9.5471610">
	<ele>1837.60</ele>
	<time>2023-10-07T09:36:24.000Z</time>
</trkpt>
<trkpt lat="45.9401060" lon="9.5471620">
	<ele>1837.60</ele>
	<time>2023-10-07T09:36:25.000Z</time>
</trkpt>
<trkpt lat="45.9401060" lon="9.5471620">
	<ele>1837.60</ele>
	<time>2023-10-07T09:36:26.000Z</time>
</trkpt>
<trkpt lat="45.9401060" lon="9.5471630">
	<ele>1837.60</ele>
	<time>2023-10-07T09:36:27.000Z</time>
</trkpt>
<trkpt lat="45.9401060" lon="9.5471630">
	<ele>1837.60</ele>
	<time>2023-10-07T09:36:28.000Z</time>
</trkpt>
<trkpt lat="45.9401060" lon="9.5471640">
	<ele>1837.60</ele>
	<time>2023-10-07T09:36:29.000Z</time>
</trkpt>
<trkpt lat="45.9401060" lon="9.5471640">
	<ele>1837.60</ele>
	<time>2023-10-07T09:36:30.000Z</time>
</trkpt>
<trkpt lat="45.9401060" lon="9.5471640">
	<ele>1837.60</ele>
	<time>2023-10-07T09:36:31.000Z</time>
</trkpt>
<trkpt lat="45.9401060" lon="9.5471650">
	<ele>1837.60</ele>
	<time>2023-10-07T09:36:32.000Z</time>
</trkpt>
<trkpt lat="45.9401060" lon="9.5471650">
	<ele>1837.60</ele>
	<time>2023-10-07T09:36:33.000Z</time>
</trkpt>
<trkpt lat="45.9401060" lon="9.5471650">
	<ele>1837.60</ele>
	<time>2023-10-07T09:36:34.000Z</time>
</trkpt>
<trkpt lat="45.9401060" lon="9.5471650">
	<ele>1837.60</ele>
	<time>2023-10-07T09:36:35.000Z</time>
</trkpt>
<trkpt lat="45.9401060" lon="9.5471650">
	<ele>1837.60</ele>
	<time>2023-10-07T09:36:36.000Z</time>
</trkpt>
<trkpt lat="45.9401060" lon="9.5471650">
	<ele>1837.60</ele>
	<time>2023-10-07T09:36:37.000Z</time>
</trkpt>
<trkpt lat="45.9401060" lon="9.5471650">
	<ele>1837.60</ele>
	<time>2023-10-07T09:36:38.000Z</time>
</trkpt>
<trkpt lat="45.9401060" lon="9.5471640">
	<ele>1837.60</ele>
	<time>2023-10-07T09:36:39.000Z</time>
</trkpt>
<trkpt lat="45.9401060" lon="9.5471640">
	<ele>1837.60</ele>
	<time>2023-10-07T09:36:40.000Z</time>
</trkpt>
<trkpt lat="45.9401070" lon="9.5471620">
	<ele>1837.60</ele>
	<time>2023-10-07T09:36:41.000Z</time>
</trkpt>
<trkpt lat="45.9401070" lon="9.5471620">
	<ele>1837.60</ele>
	<time>2023-10-07T09:36:42.000Z</time>
</trkpt>
<trkpt lat="45.9401070" lon="9.5471620">
	<ele>1837.60</ele>
	<time>2023-10-07T09:36:43.000Z</time>
</trkpt>
<trkpt lat="45.9401070" lon="9.5471620">
	<ele>1837.60</ele>
	<time>2023-10-07T09:36:44.000Z</time>
</trkpt>
<trkpt lat="45.9401070" lon="9.5471610">
	<ele>1837.60</ele>
	<time>2023-10-07T09:36:45.000Z</time>
</trkpt>
<trkpt lat="45.9401070" lon="9.5471610">
	<ele>1837.60</ele>
	<time>2023-10-07T09:36:46.000Z</time>
</trkpt>
<trkpt lat="45.9401070" lon="9.5471590">
	<ele>1837.60</ele>
	<time>2023-10-07T09:36:47.000Z</time>
</trkpt>
<trkpt lat="45.9401070" lon="9.5471560">
	<ele>1837.60</ele>
	<time>2023-10-07T09:36:48.000Z</time>
</trkpt>
<trkpt lat="45.9401070" lon="9.5471540">
	<ele>1837.60</ele>
	<time>2023-10-07T09:36:49.000Z</time>
</trkpt>
<trkpt lat="45.9401070" lon="9.5471530">
	<ele>1837.60</ele>
	<time>2023-10-07T09:36:50.000Z</time>
</trkpt>
<trkpt lat="45.9401070" lon="9.5471530">
	<ele>1837.60</ele>
	<time>2023-10-07T09:36:51.000Z</time>
</trkpt>
<trkpt lat="45.9401070" lon="9.5471530">
	<ele>1837.60</ele>
	<time>2023-10-07T09:36:52.000Z</time>
</trkpt>
<trkpt lat="45.9401070" lon="9.5471530">
	<ele>1837.60</ele>
	<time>2023-10-07T09:36:53.000Z</time>
</trkpt>
<trkpt lat="45.9401070" lon="9.5471520">
	<ele>1837.60</ele>
	<time>2023-10-07T09:36:54.000Z</time>
</trkpt>
<trkpt lat="45.9401070" lon="9.5471520">
	<ele>1837.60</ele>
	<time>2023-10-07T09:36:55.000Z</time>
</trkpt>
<trkpt lat="45.9401060" lon="9.5471520">
	<ele>1837.60</ele>
	<time>2023-10-07T09:36:56.000Z</time>
</trkpt>
<trkpt lat="45.9401060" lon="9.5471520">
	<ele>1837.60</ele>
	<time>2023-10-07T09:36:57.000Z</time>
</trkpt>
<trkpt lat="45.9401060" lon="9.5471520">
	<ele>1837.60</ele>
	<time>2023-10-07T09:36:58.000Z</time>
</trkpt>
<trkpt lat="45.9401060" lon="9.5471520">
	<ele>1837.60</ele>
	<time>2023-10-07T09:36:59.000Z</time>
</trkpt>
<trkpt lat="45.9401060" lon="9.5471520">
	<ele>1837.60</ele>
	<time>2023-10-07T09:37:00.000Z</time>
</trkpt>
<trkpt lat="45.9401060" lon="9.5471520">
	<ele>1837.60</ele>
	<time>2023-10-07T09:37:01.000Z</time>
</trkpt>
<trkpt lat="45.9401060" lon="9.5471520">
	<ele>1837.60</ele>
	<time>2023-10-07T09:37:02.000Z</time>
</trkpt>
<trkpt lat="45.9401060" lon="9.5471520">
	<ele>1837.60</ele>
	<time>2023-10-07T09:37:03.000Z</time>
</trkpt>
<trkpt lat="45.9401060" lon="9.5471520">
	<ele>1837.60</ele>
	<time>2023-10-07T09:37:04.000Z</time>
</trkpt>
<trkpt lat="45.9401050" lon="9.5471520">
	<ele>1837.60</ele>
	<time>2023-10-07T09:37:05.000Z</time>
</trkpt>
<trkpt lat="45.9401050" lon="9.5471520">
	<ele>1837.60</ele>
	<time>2023-10-07T09:37:06.000Z</time>
</trkpt>
<trkpt lat="45.9401050" lon="9.5471520">
	<ele>1837.60</ele>
	<time>2023-10-07T09:37:07.000Z</time>
</trkpt>
<trkpt lat="45.9401050" lon="9.5471520">
	<ele>1837.60</ele>
	<time>2023-10-07T09:37:08.000Z</time>
</trkpt>
<trkpt lat="45.9401050" lon="9.5471520">
	<ele>1837.60</ele>
	<time>2023-10-07T09:37:09.000Z</time>
</trkpt>
<trkpt lat="45.9401050" lon="9.5471520">
	<ele>1837.60</ele>
	<time>2023-10-07T09:37:10.000Z</time>
</trkpt>
<trkpt lat="45.9401050" lon="9.5471520">
	<ele>1837.60</ele>
	<time>2023-10-07T09:37:11.000Z</time>
</trkpt>
<trkpt lat="45.9401050" lon="9.5471520">
	<ele>1837.60</ele>
	<time>2023-10-07T09:37:12.000Z</time>
</trkpt>
<trkpt lat="45.9401050" lon="9.5471510">
	<ele>1837.60</ele>
	<time>2023-10-07T09:37:13.000Z</time>
</trkpt>
<trkpt lat="45.9401050" lon="9.5471510">
	<ele>1837.60</ele>
	<time>2023-10-07T09:37:14.000Z</time>
</trkpt>
<trkpt lat="45.9401060" lon="9.5471500">
	<ele>1837.60</ele>
	<time>2023-10-07T09:37:15.000Z</time>
</trkpt>
<trkpt lat="45.9401060" lon="9.5471500">
	<ele>1837.60</ele>
	<time>2023-10-07T09:37:16.000Z</time>
</trkpt>
<trkpt lat="45.9401060" lon="9.5471490">
	<ele>1837.60</ele>
	<time>2023-10-07T09:37:17.000Z</time>
</trkpt>
<trkpt lat="45.9401060" lon="9.5471490">
	<ele>1837.60</ele>
	<time>2023-10-07T09:37:18.000Z</time>
</trkpt>
<trkpt lat="45.9401060" lon="9.5471490">
	<ele>1837.60</ele>
	<time>2023-10-07T09:37:19.000Z</time>
</trkpt>
<trkpt lat="45.9401060" lon="9.5471490">
	<ele>1837.60</ele>
	<time>2023-10-07T09:37:20.000Z</time>
</trkpt>
<trkpt lat="45.9401060" lon="9.5471490">
	<ele>1837.60</ele>
	<time>2023-10-07T09:37:21.000Z</time>
</trkpt>
<trkpt lat="45.9401060" lon="9.5471490">
	<ele>1837.60</ele>
	<time>2023-10-07T09:37:22.000Z</time>
</trkpt>
<trkpt lat="45.9401060" lon="9.5471480">
	<ele>1837.60</ele>
	<time>2023-10-07T09:37:23.000Z</time>
</trkpt>
<trkpt lat="45.9401060" lon="9.5471470">
	<ele>1837.60</ele>
	<time>2023-10-07T09:37:24.000Z</time>
</trkpt>
<trkpt lat="45.9401060" lon="9.5471460">
	<ele>1837.60</ele>
	<time>2023-10-07T09:37:25.000Z</time>
</trkpt>
<trkpt lat="45.9401060" lon="9.5471450">
	<ele>1837.60</ele>
	<time>2023-10-07T09:37:26.000Z</time>
</trkpt>
<trkpt lat="45.9401060" lon="9.5471450">
	<ele>1837.60</ele>
	<time>2023-10-07T09:37:27.000Z</time>
</trkpt>
<trkpt lat="45.9401060" lon="9.5471450">
	<ele>1837.60</ele>
	<time>2023-10-07T09:37:28.000Z</time>
</trkpt>
<trkpt lat="45.9401060" lon="9.5471450">
	<ele>1837.60</ele>
	<time>2023-10-07T09:37:29.000Z</time>
</trkpt>
<trkpt lat="45.9401060" lon="9.5471440">
	<ele>1837.60</ele>
	<time>2023-10-07T09:37:30.000Z</time>
</trkpt>
<trkpt lat="45.9401060" lon="9.5471440">
	<ele>1837.60</ele>
	<time>2023-10-07T09:37:31.000Z</time>
</trkpt>
<trkpt lat="45.9401060" lon="9.5471440">
	<ele>1837.60</ele>
	<time>2023-10-07T09:37:32.000Z</time>
</trkpt>
<trkpt lat="45.9401060" lon="9.5471440">
	<ele>1837.60</ele>
	<time>2023-10-07T09:37:33.000Z</time>
</trkpt>
<trkpt lat="45.9401060" lon="9.5471440">
	<ele>1837.60</ele>
	<time>2023-10-07T09:37:34.000Z</time>
</trkpt>
<trkpt lat="45.9401060" lon="9.5471440">
	<ele>1837.60</ele>
	<time>2023-10-07T09:37:35.000Z</time>
</trkpt>
<trkpt lat="45.9401060" lon="9.5471430">
	<ele>1837.60</ele>
	<time>2023-10-07T09:37:36.000Z</time>
</trkpt>
<trkpt lat="45.9401060" lon="9.5471430">
	<ele>1837.60</ele>
	<time>2023-10-07T09:37:37.000Z</time>
</trkpt>
<trkpt lat="45.9401060" lon="9.5471430">
	<ele>1837.60</ele>
	<time>2023-10-07T09:37:38.000Z</time>
</trkpt>
<trkpt lat="45.9401060" lon="9.5471430">
	<ele>1837.60</ele>
	<time>2023-10-07T09:37:39.000Z</time>
</trkpt>
<trkpt lat="45.9401060" lon="9.5471430">
	<ele>1837.60</ele>
	<time>2023-10-07T09:37:40.000Z</time>
</trkpt>
<trkpt lat="45.9401060" lon="9.5471430">
	<ele>1837.60</ele>
	<time>2023-10-07T09:37:41.000Z</time>
</trkpt>
<trkpt lat="45.9401060" lon="9.5471430">
	<ele>1837.60</ele>
	<time>2023-10-07T09:37:42.000Z</time>
</trkpt>
<trkpt lat="45.9401060" lon="9.5471420">
	<ele>1837.60</ele>
	<time>2023-10-07T09:37:43.000Z</time>
</trkpt>
<trkpt lat="45.9401060" lon="9.5471420">
	<ele>1837.60</ele>
	<time>2023-10-07T09:37:44.000Z</time>
</trkpt>
<trkpt lat="45.9401060" lon="9.5471410">
	<ele>1837.60</ele>
	<time>2023-10-07T09:37:45.000Z</time>
</trkpt>
<trkpt lat="45.9401070" lon="9.5471410">
	<ele>1837.60</ele>
	<time>2023-10-07T09:37:46.000Z</time>
</trkpt>
<trkpt lat="45.9401070" lon="9.5471410">
	<ele>1837.60</ele>
	<time>2023-10-07T09:37:47.000Z</time>
</trkpt>
<trkpt lat="45.9401070" lon="9.5471410">
	<ele>1837.60</ele>
	<time>2023-10-07T09:37:48.000Z</time>
</trkpt>
<trkpt lat="45.9401070" lon="9.5471410">
	<ele>1837.60</ele>
	<time>2023-10-07T09:37:49.000Z</time>
</trkpt>
<trkpt lat="45.9401080" lon="9.5471410">
	<ele>1837.60</ele>
	<time>2023-10-07T09:37:50.000Z</time>
</trkpt>
<trkpt lat="45.9401080" lon="9.5471410">
	<ele>1837.60</ele>
	<time>2023-10-07T09:37:51.000Z</time>
</trkpt>
<trkpt lat="45.9401080" lon="9.5471410">
	<ele>1837.60</ele>
	<time>2023-10-07T09:37:52.000Z</time>
</trkpt>
<trkpt lat="45.9401080" lon="9.5471410">
	<ele>1837.60</ele>
	<time>2023-10-07T09:37:53.000Z</time>
</trkpt>
<trkpt lat="45.9401080" lon="9.5471410">
	<ele>1837.60</ele>
	<time>2023-10-07T09:37:54.000Z</time>
</trkpt>
<trkpt lat="45.9401080" lon="9.5471410">
	<ele>1837.60</ele>
	<time>2023-10-07T09:37:55.000Z</time>
</trkpt>
<trkpt lat="45.9401080" lon="9.5471410">
	<ele>1837.60</ele>
	<time>2023-10-07T09:37:56.000Z</time>
</trkpt>
<trkpt lat="45.9401080" lon="9.5471410">
	<ele>1837.60</ele>
	<time>2023-10-07T09:37:57.000Z</time>
</trkpt>
<trkpt lat="45.9401080" lon="9.5471410">
	<ele>1837.60</ele>
	<time>2023-10-07T09:37:58.000Z</time>
</trkpt>
<trkpt lat="45.9401080" lon="9.5471410">
	<ele>1837.60</ele>
	<time>2023-10-07T09:37:59.000Z</time>
</trkpt>
<trkpt lat="45.9401080" lon="9.5471410">
	<ele>1837.60</ele>
	<time>2023-10-07T09:38:00.000Z</time>
</trkpt>
<trkpt lat="45.9401080" lon="9.5471410">
	<ele>1837.60</ele>
	<time>2023-10-07T09:38:01.000Z</time>
</trkpt>
<trkpt lat="45.9401080" lon="9.5471420">
	<ele>1837.60</ele>
	<time>2023-10-07T09:38:02.000Z</time>
</trkpt>
<trkpt lat="45.9401070" lon="9.5471440">
	<ele>1837.60</ele>
	<time>2023-10-07T09:38:03.000Z</time>
</trkpt>
<trkpt lat="45.9401070" lon="9.5471450">
	<ele>1837.60</ele>
	<time>2023-10-07T09:38:04.000Z</time>
</trkpt>
<trkpt lat="45.9401070" lon="9.5471450">
	<ele>1837.60</ele>
	<time>2023-10-07T09:38:05.000Z</time>
</trkpt>
<trkpt lat="45.9401070" lon="9.5471460">
	<ele>1837.60</ele>
	<time>2023-10-07T09:38:06.000Z</time>
</trkpt>
<trkpt lat="45.9401060" lon="9.5471460">
	<ele>1837.60</ele>
	<time>2023-10-07T09:38:07.000Z</time>
</trkpt>
<trkpt lat="45.9401060" lon="9.5471470">
	<ele>1837.60</ele>
	<time>2023-10-07T09:38:08.000Z</time>
</trkpt>
<trkpt lat="45.9401060" lon="9.5471470">
	<ele>1837.60</ele>
	<time>2023-10-07T09:38:09.000Z</time>
</trkpt>
<trkpt lat="45.9401060" lon="9.5471480">
	<ele>1837.60</ele>
	<time>2023-10-07T09:38:10.000Z</time>
</trkpt>
<trkpt lat="45.9401050" lon="9.5471480">
	<ele>1837.60</ele>
	<time>2023-10-07T09:38:11.000Z</time>
</trkpt>
<trkpt lat="45.9401050" lon="9.5471490">
	<ele>1837.60</ele>
	<time>2023-10-07T09:38:12.000Z</time>
</trkpt>
<trkpt lat="45.9401050" lon="9.5471490">
	<ele>1837.60</ele>
	<time>2023-10-07T09:38:13.000Z</time>
</trkpt>
<trkpt lat="45.9401040" lon="9.5471490">
	<ele>1837.60</ele>
	<time>2023-10-07T09:38:14.000Z</time>
</trkpt>
<trkpt lat="45.9401040" lon="9.5471500">
	<ele>1837.60</ele>
	<time>2023-10-07T09:38:15.000Z</time>
</trkpt>
<trkpt lat="45.9401040" lon="9.5471500">
	<ele>1837.60</ele>
	<time>2023-10-07T09:38:16.000Z</time>
</trkpt>
<trkpt lat="45.9401040" lon="9.5471500">
	<ele>1837.60</ele>
	<time>2023-10-07T09:38:17.000Z</time>
</trkpt>
<trkpt lat="45.9401030" lon="9.5471500">
	<ele>1837.60</ele>
	<time>2023-10-07T09:38:18.000Z</time>
</trkpt>
<trkpt lat="45.9401030" lon="9.5471500">
	<ele>1837.60</ele>
	<time>2023-10-07T09:38:19.000Z</time>
</trkpt>
<trkpt lat="45.9401030" lon="9.5471500">
	<ele>1837.60</ele>
	<time>2023-10-07T09:38:20.000Z</time>
</trkpt>
<trkpt lat="45.9401020" lon="9.5471500">
	<ele>1837.60</ele>
	<time>2023-10-07T09:38:21.000Z</time>
</trkpt>
<trkpt lat="45.9401020" lon="9.5471500">
	<ele>1837.60</ele>
	<time>2023-10-07T09:38:22.000Z</time>
</trkpt>
<trkpt lat="45.9401020" lon="9.5471500">
	<ele>1837.60</ele>
	<time>2023-10-07T09:38:23.000Z</time>
</trkpt>
<trkpt lat="45.9401020" lon="9.5471500">
	<ele>1837.60</ele>
	<time>2023-10-07T09:38:24.000Z</time>
</trkpt>
<trkpt lat="45.9401020" lon="9.5471500">
	<ele>1837.60</ele>
	<time>2023-10-07T09:38:25.000Z</time>
</trkpt>
<trkpt lat="45.9401010" lon="9.5471500">
	<ele>1837.60</ele>
	<time>2023-10-07T09:38:26.000Z</time>
</trkpt>
<trkpt lat="45.9401010" lon="9.5471500">
	<ele>1837.60</ele>
	<time>2023-10-07T09:38:27.000Z</time>
</trkpt>
<trkpt lat="45.9401010" lon="9.5471500">
	<ele>1837.60</ele>
	<time>2023-10-07T09:38:28.000Z</time>
</trkpt>
<trkpt lat="45.9401010" lon="9.5471500">
	<ele>1837.60</ele>
	<time>2023-10-07T09:38:29.000Z</time>
</trkpt>
<trkpt lat="45.9401010" lon="9.5471500">
	<ele>1837.60</ele>
	<time>2023-10-07T09:38:30.000Z</time>
</trkpt>
<trkpt lat="45.9401010" lon="9.5471500">
	<ele>1837.60</ele>
	<time>2023-10-07T09:38:31.000Z</time>
</trkpt>
<trkpt lat="45.9401010" lon="9.5471500">
	<ele>1837.60</ele>
	<time>2023-10-07T09:38:32.000Z</time>
</trkpt>
<trkpt lat="45.9401000" lon="9.5471500">
	<ele>1837.60</ele>
	<time>2023-10-07T09:38:33.000Z</time>
</trkpt>
<trkpt lat="45.9401000" lon="9.5471500">
	<ele>1837.60</ele>
	<time>2023-10-07T09:38:34.000Z</time>
</trkpt>
<trkpt lat="45.9401000" lon="9.5471500">
	<ele>1837.60</ele>
	<time>2023-10-07T09:38:35.000Z</time>
</trkpt>
<trkpt lat="45.9401000" lon="9.5471500">
	<ele>1837.60</ele>
	<time>2023-10-07T09:38:36.000Z</time>
</trkpt>
<trkpt lat="45.9401000" lon="9.5471500">
	<ele>1837.60</ele>
	<time>2023-10-07T09:38:37.000Z</time>
</trkpt>
<trkpt lat="45.9401000" lon="9.5471500">
	<ele>1837.60</ele>
	<time>2023-10-07T09:38:38.000Z</time>
</trkpt>
<trkpt lat="45.9401000" lon="9.5471500">
	<ele>1837.60</ele>
	<time>2023-10-07T09:38:39.000Z</time>
</trkpt>
<trkpt lat="45.9401000" lon="9.5471500">
	<ele>1837.60</ele>
	<time>2023-10-07T09:38:40.000Z</time>
</trkpt>
<trkpt lat="45.9401000" lon="9.5471500">
	<ele>1837.60</ele>
	<time>2023-10-07T09:38:41.000Z</time>
</trkpt>
<trkpt lat="45.9400990" lon="9.5471490">
	<ele>1837.60</ele>
	<time>2023-10-07T09:38:42.000Z</time>
</trkpt>
<trkpt lat="45.9400990" lon="9.5471490">
	<ele>1837.60</ele>
	<time>2023-10-07T09:38:43.000Z</time>
</trkpt>
<trkpt lat="45.9400990" lon="9.5471490">
	<ele>1837.60</ele>
	<time>2023-10-07T09:38:44.000Z</time>
</trkpt>
<trkpt lat="45.9400990" lon="9.5471490">
	<ele>1837.60</ele>
	<time>2023-10-07T09:38:45.000Z</time>
</trkpt>
<trkpt lat="45.9400990" lon="9.5471490">
	<ele>1837.60</ele>
	<time>2023-10-07T09:38:46.000Z</time>
</trkpt>
<trkpt lat="45.9400990" lon="9.5471480">
	<ele>1837.60</ele>
	<time>2023-10-07T09:38:47.000Z</time>
</trkpt>
<trkpt lat="45.9400990" lon="9.5471480">
	<ele>1837.60</ele>
	<time>2023-10-07T09:38:48.000Z</time>
</trkpt>
<trkpt lat="45.9400990" lon="9.5471480">
	<ele>1837.60</ele>
	<time>2023-10-07T09:38:49.000Z</time>
</trkpt>
<trkpt lat="45.9400990" lon="9.5471480">
	<ele>1837.60</ele>
	<time>2023-10-07T09:38:50.000Z</time>
</trkpt>
<trkpt lat="45.9400990" lon="9.5471480">
	<ele>1837.60</ele>
	<time>2023-10-07T09:38:51.000Z</time>
</trkpt>
<trkpt lat="45.9400990" lon="9.5471470">
	<ele>1837.60</ele>
	<time>2023-10-07T09:38:52.000Z</time>
</trkpt>
<trkpt lat="45.9400980" lon="9.5471470">
	<ele>1837.60</ele>
	<time>2023-10-07T09:38:53.000Z</time>
</trkpt>
<trkpt lat="45.9400980" lon="9.5471470">
	<ele>1837.60</ele>
	<time>2023-10-07T09:38:54.000Z</time>
</trkpt>
<trkpt lat="45.9400980" lon="9.5471470">
	<ele>1837.60</ele>
	<time>2023-10-07T09:38:55.000Z</time>
</trkpt>
<trkpt lat="45.9400980" lon="9.5471460">
	<ele>1837.60</ele>
	<time>2023-10-07T09:38:56.000Z</time>
</trkpt>
<trkpt lat="45.9400980" lon="9.5471460">
	<ele>1837.60</ele>
	<time>2023-10-07T09:38:57.000Z</time>
</trkpt>
<trkpt lat="45.9400980" lon="9.5471460">
	<ele>1837.60</ele>
	<time>2023-10-07T09:38:58.000Z</time>
</trkpt>
<trkpt lat="45.9400980" lon="9.5471460">
	<ele>1837.60</ele>
	<time>2023-10-07T09:38:59.000Z</time>
</trkpt>
<trkpt lat="45.9400980" lon="9.5471460">
	<ele>1837.60</ele>
	<time>2023-10-07T09:39:00.000Z</time>
</trkpt>
<trkpt lat="45.9400980" lon="9.5471450">
	<ele>1837.60</ele>
	<time>2023-10-07T09:39:01.000Z</time>
</trkpt>
<trkpt lat="45.9400980" lon="9.5471450">
	<ele>1837.60</ele>
	<time>2023-10-07T09:39:02.000Z</time>
</trkpt>
<trkpt lat="45.9400980" lon="9.5471450">
	<ele>1837.60</ele>
	<time>2023-10-07T09:39:03.000Z</time>
</trkpt>
<trkpt lat="45.9400980" lon="9.5471450">
	<ele>1837.60</ele>
	<time>2023-10-07T09:39:04.000Z</time>
</trkpt>
<trkpt lat="45.9400980" lon="9.5471450">
	<ele>1837.60</ele>
	<time>2023-10-07T09:39:05.000Z</time>
</trkpt>
<trkpt lat="45.9400970" lon="9.5471450">
	<ele>1837.60</ele>
	<time>2023-10-07T09:39:06.000Z</time>
</trkpt>
<trkpt lat="45.9400970" lon="9.5471450">
	<ele>1837.60</ele>
	<time>2023-10-07T09:39:07.000Z</time>
</trkpt>
<trkpt lat="45.9400970" lon="9.5471450">
	<ele>1837.60</ele>
	<time>2023-10-07T09:39:08.000Z</time>
</trkpt>
<trkpt lat="45.9400970" lon="9.5471450">
	<ele>1837.60</ele>
	<time>2023-10-07T09:39:09.000Z</time>
</trkpt>
<trkpt lat="45.9400970" lon="9.5471450">
	<ele>1837.60</ele>
	<time>2023-10-07T09:39:10.000Z</time>
</trkpt>
<trkpt lat="45.9400970" lon="9.5471450">
	<ele>1837.60</ele>
	<time>2023-10-07T09:39:11.000Z</time>
</trkpt>
<trkpt lat="45.9400970" lon="9.5471450">
	<ele>1837.60</ele>
	<time>2023-10-07T09:39:12.000Z</time>
</trkpt>
<trkpt lat="45.9400970" lon="9.5471450">
	<ele>1837.60</ele>
	<time>2023-10-07T09:39:13.000Z</time>
</trkpt>
<trkpt lat="45.9400970" lon="9.5471450">
	<ele>1837.60</ele>
	<time>2023-10-07T09:39:14.000Z</time>
</trkpt>
<trkpt lat="45.9400970" lon="9.5471450">
	<ele>1837.60</ele>
	<time>2023-10-07T09:39:15.000Z</time>
</trkpt>
<trkpt lat="45.9400970" lon="9.5471450">
	<ele>1837.60</ele>
	<time>2023-10-07T09:39:16.000Z</time>
</trkpt>
<trkpt lat="45.9400970" lon="9.5471450">
	<ele>1837.60</ele>
	<time>2023-10-07T09:39:17.000Z</time>
</trkpt>
<trkpt lat="45.9400970" lon="9.5471450">
	<ele>1837.60</ele>
	<time>2023-10-07T09:39:18.000Z</time>
</trkpt>
<trkpt lat="45.9400970" lon="9.5471450">
	<ele>1837.60</ele>
	<time>2023-10-07T09:39:19.000Z</time>
</trkpt>
<trkpt lat="45.9400970" lon="9.5471450">
	<ele>1837.60</ele>
	<time>2023-10-07T09:39:20.000Z</time>
</trkpt>
<trkpt lat="45.9400970" lon="9.5471450">
	<ele>1837.60</ele>
	<time>2023-10-07T09:39:21.000Z</time>
</trkpt>
<trkpt lat="45.9400970" lon="9.5471450">
	<ele>1837.60</ele>
	<time>2023-10-07T09:39:22.000Z</time>
</trkpt>
<trkpt lat="45.9400970" lon="9.5471450">
	<ele>1837.60</ele>
	<time>2023-10-07T09:39:23.000Z</time>
</trkpt>
<trkpt lat="45.9400970" lon="9.5471450">
	<ele>1837.60</ele>
	<time>2023-10-07T09:39:24.000Z</time>
</trkpt>
<trkpt lat="45.9400970" lon="9.5471450">
	<ele>1837.60</ele>
	<time>2023-10-07T09:39:25.000Z</time>
</trkpt>
<trkpt lat="45.9400980" lon="9.5471450">
	<ele>1837.60</ele>
	<time>2023-10-07T09:39:26.000Z</time>
</trkpt>
<trkpt lat="45.9400980" lon="9.5471450">
	<ele>1837.60</ele>
	<time>2023-10-07T09:39:27.000Z</time>
</trkpt>
<trkpt lat="45.9400980" lon="9.5471450">
	<ele>1837.60</ele>
	<time>2023-10-07T09:39:28.000Z</time>
</trkpt>
<trkpt lat="45.9400980" lon="9.5471450">
	<ele>1837.60</ele>
	<time>2023-10-07T09:39:29.000Z</time>
</trkpt>
<trkpt lat="45.9400980" lon="9.5471450">
	<ele>1837.60</ele>
	<time>2023-10-07T09:39:30.000Z</time>
</trkpt>
<trkpt lat="45.9400980" lon="9.5471450">
	<ele>1837.60</ele>
	<time>2023-10-07T09:39:31.000Z</time>
</trkpt>
<trkpt lat="45.9400980" lon="9.5471450">
	<ele>1837.60</ele>
	<time>2023-10-07T09:39:32.000Z</time>
</trkpt>
<trkpt lat="45.9400980" lon="9.5471450">
	<ele>1837.60</ele>
	<time>2023-10-07T09:39:33.000Z</time>
</trkpt>
<trkpt lat="45.9400980" lon="9.5471450">
	<ele>1837.60</ele>
	<time>2023-10-07T09:39:34.000Z</time>
</trkpt>
<trkpt lat="45.9400980" lon="9.5471450">
	<ele>1837.60</ele>
	<time>2023-10-07T09:39:35.000Z</time>
</trkpt>
<trkpt lat="45.9400980" lon="9.5471450">
	<ele>1837.60</ele>
	<time>2023-10-07T09:39:36.000Z</time>
</trkpt>
<trkpt lat="45.9400980" lon="9.5471450">
	<ele>1837.60</ele>
	<time>2023-10-07T09:39:37.000Z</time>
</trkpt>
<trkpt lat="45.9400980" lon="9.5471450">
	<ele>1837.60</ele>
	<time>2023-10-07T09:39:38.000Z</time>
</trkpt>
<trkpt lat="45.9400980" lon="9.5471450">
	<ele>1837.60</ele>
	<time>2023-10-07T09:39:39.000Z</time>
</trkpt>
<trkpt lat="45.9400980" lon="9.5471450">
	<ele>1837.60</ele>
	<time>2023-10-07T09:39:40.000Z</time>
</trkpt>
<trkpt lat="45.9400980" lon="9.5471450">
	<ele>1837.60</ele>
	<time>2023-10-07T09:39:41.000Z</time>
</trkpt>
<trkpt lat="45.9400980" lon="9.5471450">
	<ele>1837.60</ele>
	<time>2023-10-07T09:39:42.000Z</time>
</trkpt>
<trkpt lat="45.9400980" lon="9.5471450">
	<ele>1837.60</ele>
	<time>2023-10-07T09:39:43.000Z</time>
</trkpt>
<trkpt lat="45.9400980" lon="9.5471450">
	<ele>1837.60</ele>
	<time>2023-10-07T09:39:44.000Z</time>
</trkpt>
<trkpt lat="45.9400980" lon="9.5471450">
	<ele>1837.60</ele>
	<time>2023-10-07T09:39:45.000Z</time>
</trkpt>
<trkpt lat="45.9400980" lon="9.5471450">
	<ele>1837.60</ele>
	<time>2023-10-07T09:39:46.000Z</time>
</trkpt>
<trkpt lat="45.9400980" lon="9.5471450">
	<ele>1837.60</ele>
	<time>2023-10-07T09:39:47.000Z</time>
</trkpt>
<trkpt lat="45.9400980" lon="9.5471450">
	<ele>1837.60</ele>
	<time>2023-10-07T09:39:48.000Z</time>
</trkpt>
<trkpt lat="45.9400980" lon="9.5471450">
	<ele>1837.60</ele>
	<time>2023-10-07T09:39:49.000Z</time>
</trkpt>
<trkpt lat="45.9400980" lon="9.5471450">
	<ele>1837.60</ele>
	<time>2023-10-07T09:39:50.000Z</time>
</trkpt>
<trkpt lat="45.9400980" lon="9.5471450">
	<ele>1837.60</ele>
	<time>2023-10-07T09:39:51.000Z</time>
</trkpt>
<trkpt lat="45.9400980" lon="9.5471450">
	<ele>1837.60</ele>
	<time>2023-10-07T09:39:52.000Z</time>
</trkpt>
<trkpt lat="45.9400980" lon="9.5471450">
	<ele>1837.60</ele>
	<time>2023-10-07T09:39:53.000Z</time>
</trkpt>
<trkpt lat="45.9400980" lon="9.5471450">
	<ele>1837.60</ele>
	<time>2023-10-07T09:39:54.000Z</time>
</trkpt>
<trkpt lat="45.9400980" lon="9.5471450">
	<ele>1837.60</ele>
	<time>2023-10-07T09:39:55.000Z</time>
</trkpt>
<trkpt lat="45.9400980" lon="9.5471450">
	<ele>1837.60</ele>
	<time>2023-10-07T09:39:56.000Z</time>
</trkpt>
<trkpt lat="45.9400980" lon="9.5471440">
	<ele>1837.60</ele>
	<time>2023-10-07T09:39:57.000Z</time>
</trkpt>
<trkpt lat="45.9400980" lon="9.5471450">
	<ele>1837.60</ele>
	<time>2023-10-07T09:39:58.000Z</time>
</trkpt>
<trkpt lat="45.9400980" lon="9.5471450">
	<ele>1837.60</ele>
	<time>2023-10-07T09:39:59.000Z</time>
</trkpt>
<trkpt lat="45.9400980" lon="9.5471450">
	<ele>1837.60</ele>
	<time>2023-10-07T09:40:00.000Z</time>
</trkpt>
<trkpt lat="45.9400980" lon="9.5471450">
	<ele>1837.60</ele>
	<time>2023-10-07T09:40:01.000Z</time>
</trkpt>
<trkpt lat="45.9400980" lon="9.5471440">
	<ele>1837.60</ele>
	<time>2023-10-07T09:40:02.000Z</time>
</trkpt>
<trkpt lat="45.9400980" lon="9.5471450">
	<ele>1837.60</ele>
	<time>2023-10-07T09:40:03.000Z</time>
</trkpt>
<trkpt lat="45.9400980" lon="9.5471450">
	<ele>1837.60</ele>
	<time>2023-10-07T09:40:04.000Z</time>
</trkpt>
<trkpt lat="45.9400980" lon="9.5471450">
	<ele>1837.60</ele>
	<time>2023-10-07T09:40:05.000Z</time>
</trkpt>
<trkpt lat="45.9400980" lon="9.5471450">
	<ele>1837.60</ele>
	<time>2023-10-07T09:40:06.000Z</time>
</trkpt>
<trkpt lat="45.9400980" lon="9.5471450">
	<ele>1837.60</ele>
	<time>2023-10-07T09:40:07.000Z</time>
</trkpt>
<trkpt lat="45.9400980" lon="9.5471450">
	<ele>1837.60</ele>
	<time>2023-10-07T09:40:08.000Z</time>
</trkpt>
<trkpt lat="45.9400980" lon="9.5471450">
	<ele>1837.60</ele>
	<time>2023-10-07T09:40:09.000Z</time>
</trkpt>
<trkpt lat="45.9400980" lon="9.5471450">
	<ele>1837.60</ele>
	<time>2023-10-07T09:40:10.000Z</time>
</trkpt>
<trkpt lat="45.9400980" lon="9.5471450">
	<ele>1837.60</ele>
	<time>2023-10-07T09:40:11.000Z</time>
</trkpt>
<trkpt lat="45.9400980" lon="9.5471450">
	<ele>1837.60</ele>
	<time>2023-10-07T09:40:12.000Z</time>
</trkpt>
<trkpt lat="45.9400980" lon="9.5471450">
	<ele>1837.60</ele>
	<time>2023-10-07T09:40:13.000Z</time>
</trkpt>
<trkpt lat="45.9400980" lon="9.5471450">
	<ele>1837.60</ele>
	<time>2023-10-07T09:40:14.000Z</time>
</trkpt>
<trkpt lat="45.9400980" lon="9.5471450">
	<ele>1837.60</ele>
	<time>2023-10-07T09:40:15.000Z</time>
</trkpt>
<trkpt lat="45.9400980" lon="9.5471450">
	<ele>1837.60</ele>
	<time>2023-10-07T09:40:16.000Z</time>
</trkpt>
<trkpt lat="45.9400980" lon="9.5471450">
	<ele>1837.60</ele>
	<time>2023-10-07T09:40:17.000Z</time>
</trkpt>
<trkpt lat="45.9400980" lon="9.5471450">
	<ele>1837.60</ele>
	<time>2023-10-07T09:40:18.000Z</time>
</trkpt>
<trkpt lat="45.9400980" lon="9.5471450">
	<ele>1837.60</ele>
	<time>2023-10-07T09:40:19.000Z</time>
</trkpt>
<trkpt lat="45.9400980" lon="9.5471450">
	<ele>1837.60</ele>
	<time>2023-10-07T09:40:20.000Z</time>
</trkpt>
<trkpt lat="45.9400980" lon="9.5471450">
	<ele>1837.60</ele>
	<time>2023-10-07T09:40:21.000Z</time>
</trkpt>
<trkpt lat="45.9400980" lon="9.5471450">
	<ele>1837.60</ele>
	<time>2023-10-07T09:40:22.000Z</time>
</trkpt>
<trkpt lat="45.9400980" lon="9.5471450">
	<ele>1837.60</ele>
	<time>2023-10-07T09:40:23.000Z</time>
</trkpt>
<trkpt lat="45.9400980" lon="9.5471450">
	<ele>1837.60</ele>
	<time>2023-10-07T09:40:24.000Z</time>
</trkpt>
<trkpt lat="45.9400980" lon="9.5471450">
	<ele>1837.60</ele>
	<time>2023-10-07T09:40:25.000Z</time>
</trkpt>
<trkpt lat="45.9400980" lon="9.5471450">
	<ele>1837.60</ele>
	<time>2023-10-07T09:40:26.000Z</time>
</trkpt>
<trkpt lat="45.9400980" lon="9.5471450">
	<ele>1837.60</ele>
	<time>2023-10-07T09:40:27.000Z</time>
</trkpt>
<trkpt lat="45.9400980" lon="9.5471440">
	<ele>1837.60</ele>
	<time>2023-10-07T09:40:28.000Z</time>
</trkpt>
<trkpt lat="45.9400980" lon="9.5471440">
	<ele>1837.60</ele>
	<time>2023-10-07T09:40:29.000Z</time>
</trkpt>
<trkpt lat="45.9400980" lon="9.5471440">
	<ele>1837.60</ele>
	<time>2023-10-07T09:40:30.000Z</time>
</trkpt>
<trkpt lat="45.9400980" lon="9.5471440">
	<ele>1837.60</ele>
	<time>2023-10-07T09:40:31.000Z</time>
</trkpt>
<trkpt lat="45.9400980" lon="9.5471440">
	<ele>1837.60</ele>
	<time>2023-10-07T09:40:32.000Z</time>
</trkpt>
<trkpt lat="45.9400980" lon="9.5471440">
	<ele>1837.60</ele>
	<time>2023-10-07T09:40:33.000Z</time>
</trkpt>
<trkpt lat="45.9400980" lon="9.5471440">
	<ele>1837.60</ele>
	<time>2023-10-07T09:40:34.000Z</time>
</trkpt>
<trkpt lat="45.9400980" lon="9.5471440">
	<ele>1837.60</ele>
	<time>2023-10-07T09:40:35.000Z</time>
</trkpt>
<trkpt lat="45.9400980" lon="9.5471440">
	<ele>1837.60</ele>
	<time>2023-10-07T09:40:36.000Z</time>
</trkpt>
<trkpt lat="45.9400980" lon="9.5471440">
	<ele>1837.60</ele>
	<time>2023-10-07T09:40:37.000Z</time>
</trkpt>
<trkpt lat="45.9400980" lon="9.5471440">
	<ele>1837.60</ele>
	<time>2023-10-07T09:40:38.000Z</time>
</trkpt>
<trkpt lat="45.9400980" lon="9.5471440">
	<ele>1837.60</ele>
	<time>2023-10-07T09:40:39.000Z</time>
</trkpt>
<trkpt lat="45.9400980" lon="9.5471440">
	<ele>1837.60</ele>
	<time>2023-10-07T09:40:40.000Z</time>
</trkpt>
<trkpt lat="45.9400980" lon="9.5471440">
	<ele>1837.60</ele>
	<time>2023-10-07T09:40:41.000Z</time>
</trkpt>
<trkpt lat="45.9400980" lon="9.5471440">
	<ele>1837.60</ele>
	<time>2023-10-07T09:40:42.000Z</time>
</trkpt>
<trkpt lat="45.9400980" lon="9.5471440">
	<ele>1837.60</ele>
	<time>2023-10-07T09:40:43.000Z</time>
</trkpt>
<trkpt lat="45.9400980" lon="9.5471440">
	<ele>1837.60</ele>
	<time>2023-10-07T09:40:44.000Z</time>
</trkpt>
<trkpt lat="45.9400980" lon="9.5471440">
	<ele>1837.60</ele>
	<time>2023-10-07T09:40:45.000Z</time>
</trkpt>
<trkpt lat="45.9400980" lon="9.5471440">
	<ele>1837.60</ele>
	<time>2023-10-07T09:40:46.000Z</time>
</trkpt>
<trkpt lat="45.9400980" lon="9.5471440">
	<ele>1837.60</ele>
	<time>2023-10-07T09:40:47.000Z</time>
</trkpt>
<trkpt lat="45.9400980" lon="9.5471440">
	<ele>1837.60</ele>
	<time>2023-10-07T09:40:48.000Z</time>
</trkpt>
<trkpt lat="45.9400980" lon="9.5471450">
	<ele>1837.60</ele>
	<time>2023-10-07T09:40:49.000Z</time>
</trkpt>
<trkpt lat="45.9400980" lon="9.5471440">
	<ele>1837.60</ele>
	<time>2023-10-07T09:40:50.000Z</time>
</trkpt>
<trkpt lat="45.9400980" lon="9.5471440">
	<ele>1837.60</ele>
	<time>2023-10-07T09:40:51.000Z</time>
</trkpt>
<trkpt lat="45.9400980" lon="9.5471440">
	<ele>1837.60</ele>
	<time>2023-10-07T09:40:52.000Z</time>
</trkpt>
<trkpt lat="45.9400980" lon="9.5471440">
	<ele>1837.60</ele>
	<time>2023-10-07T09:40:53.000Z</time>
</trkpt>
<trkpt lat="45.9400980" lon="9.5471440">
	<ele>1837.60</ele>
	<time>2023-10-07T09:40:54.000Z</time>
</trkpt>
<trkpt lat="45.9400980" lon="9.5471440">
	<ele>1837.60</ele>
	<time>2023-10-07T09:40:55.000Z</time>
</trkpt>
<trkpt lat="45.9400970" lon="9.5471440">
	<ele>1837.60</ele>
	<time>2023-10-07T09:40:56.000Z</time>
</trkpt>
<trkpt lat="45.9400970" lon="9.5471440">
	<ele>1837.60</ele>
	<time>2023-10-07T09:40:57.000Z</time>
</trkpt>
<trkpt lat="45.9400980" lon="9.5471440">
	<ele>1837.60</ele>
	<time>2023-10-07T09:40:58.000Z</time>
</trkpt>
<trkpt lat="45.9400980" lon="9.5471440">
	<ele>1837.60</ele>
	<time>2023-10-07T09:40:59.000Z</time>
</trkpt>
<trkpt lat="45.9400980" lon="9.5471440">
	<ele>1837.60</ele>
	<time>2023-10-07T09:41:00.000Z</time>
</trkpt>
<trkpt lat="45.9400980" lon="9.5471440">
	<ele>1837.60</ele>
	<time>2023-10-07T09:41:01.000Z</time>
</trkpt>
<trkpt lat="45.9400980" lon="9.5471440">
	<ele>1837.60</ele>
	<time>2023-10-07T09:41:02.000Z</time>
</trkpt>
<trkpt lat="45.9400980" lon="9.5471440">
	<ele>1837.60</ele>
	<time>2023-10-07T09:41:03.000Z</time>
</trkpt>
<trkpt lat="45.9400980" lon="9.5471440">
	<ele>1837.60</ele>
	<time>2023-10-07T09:41:04.000Z</time>
</trkpt>
<trkpt lat="45.9400980" lon="9.5471440">
	<ele>1837.60</ele>
	<time>2023-10-07T09:41:05.000Z</time>
</trkpt>
<trkpt lat="45.9400980" lon="9.5471440">
	<ele>1837.60</ele>
	<time>2023-10-07T09:41:06.000Z</time>
</trkpt>
<trkpt lat="45.9400980" lon="9.5471440">
	<ele>1837.60</ele>
	<time>2023-10-07T09:41:07.000Z</time>
</trkpt>
<trkpt lat="45.9400980" lon="9.5471440">
	<ele>1837.60</ele>
	<time>2023-10-07T09:41:08.000Z</time>
</trkpt>
<trkpt lat="45.9400980" lon="9.5471440">
	<ele>1837.60</ele>
	<time>2023-10-07T09:41:09.000Z</time>
</trkpt>
<trkpt lat="45.9400980" lon="9.5471440">
	<ele>1837.60</ele>
	<time>2023-10-07T09:41:10.000Z</time>
</trkpt>
<trkpt lat="45.9400980" lon="9.5471440">
	<ele>1837.60</ele>
	<time>2023-10-07T09:41:11.000Z</time>
</trkpt>
<trkpt lat="45.9400980" lon="9.5471440">
	<ele>1837.60</ele>
	<time>2023-10-07T09:41:12.000Z</time>
</trkpt>
<trkpt lat="45.9400980" lon="9.5471440">
	<ele>1837.60</ele>
	<time>2023-10-07T09:41:13.000Z</time>
</trkpt>
<trkpt lat="45.9400980" lon="9.5471440">
	<ele>1837.60</ele>
	<time>2023-10-07T09:41:14.000Z</time>
</trkpt>
<trkpt lat="45.9400980" lon="9.5471440">
	<ele>1837.60</ele>
	<time>2023-10-07T09:41:15.000Z</time>
</trkpt>
<trkpt lat="45.9400980" lon="9.5471440">
	<ele>1837.60</ele>
	<time>2023-10-07T09:41:16.000Z</time>
</trkpt>
<trkpt lat="45.9400980" lon="9.5471440">
	<ele>1837.60</ele>
	<time>2023-10-07T09:41:17.000Z</time>
</trkpt>
<trkpt lat="45.9400980" lon="9.5471440">
	<ele>1837.60</ele>
	<time>2023-10-07T09:41:18.000Z</time>
</trkpt>
<trkpt lat="45.9400980" lon="9.5471440">
	<ele>1837.60</ele>
	<time>2023-10-07T09:41:19.000Z</time>
</trkpt>
<trkpt lat="45.9400980" lon="9.5471440">
	<ele>1837.60</ele>
	<time>2023-10-07T09:41:20.000Z</time>
</trkpt>
<trkpt lat="45.9400980" lon="9.5471440">
	<ele>1837.60</ele>
	<time>2023-10-07T09:41:21.000Z</time>
</trkpt>
<trkpt lat="45.9400980" lon="9.5471440">
	<ele>1837.60</ele>
	<time>2023-10-07T09:41:22.000Z</time>
</trkpt>
<trkpt lat="45.9400980" lon="9.5471440">
	<ele>1837.60</ele>
	<time>2023-10-07T09:41:23.000Z</time>
</trkpt>
<trkpt lat="45.9400980" lon="9.5471440">
	<ele>1837.60</ele>
	<time>2023-10-07T09:41:24.000Z</time>
</trkpt>
<trkpt lat="45.9400980" lon="9.5471440">
	<ele>1837.60</ele>
	<time>2023-10-07T09:41:25.000Z</time>
</trkpt>
<trkpt lat="45.9400980" lon="9.5471440">
	<ele>1837.60</ele>
	<time>2023-10-07T09:41:26.000Z</time>
</trkpt>
<trkpt lat="45.9400980" lon="9.5471440">
	<ele>1837.60</ele>
	<time>2023-10-07T09:41:27.000Z</time>
</trkpt>
<trkpt lat="45.9400980" lon="9.5471440">
	<ele>1837.60</ele>
	<time>2023-10-07T09:41:28.000Z</time>
</trkpt>
<trkpt lat="45.9400980" lon="9.5471440">
	<ele>1837.60</ele>
	<time>2023-10-07T09:41:29.000Z</time>
</trkpt>
<trkpt lat="45.9400980" lon="9.5471440">
	<ele>1837.60</ele>
	<time>2023-10-07T09:41:30.000Z</time>
</trkpt>
<trkpt lat="45.9400980" lon="9.5471440">
	<ele>1837.60</ele>
	<time>2023-10-07T09:41:31.000Z</time>
</trkpt>
<trkpt lat="45.9400980" lon="9.5471440">
	<ele>1837.60</ele>
	<time>2023-10-07T09:41:32.000Z</time>
</trkpt>
<trkpt lat="45.9400980" lon="9.5471440">
	<ele>1837.60</ele>
	<time>2023-10-07T09:41:33.000Z</time>
</trkpt>
<trkpt lat="45.9400980" lon="9.5471440">
	<ele>1837.60</ele>
	<time>2023-10-07T09:41:34.000Z</time>
</trkpt>
<trkpt lat="45.9400980" lon="9.5471440">
	<ele>1837.60</ele>
	<time>2023-10-07T09:41:35.000Z</time>
</trkpt>
<trkpt lat="45.9400980" lon="9.5471440">
	<ele>1837.60</ele>
	<time>2023-10-07T09:41:36.000Z</time>
</trkpt>
<trkpt lat="45.9400980" lon="9.5471440">
	<ele>1837.60</ele>
	<time>2023-10-07T09:41:37.000Z</time>
</trkpt>
<trkpt lat="45.9400980" lon="9.5471440">
	<ele>1837.60</ele>
	<time>2023-10-07T09:41:38.000Z</time>
</trkpt>
<trkpt lat="45.9400980" lon="9.5471440">
	<ele>1837.60</ele>
	<time>2023-10-07T09:41:39.000Z</time>
</trkpt>
<trkpt lat="45.9400980" lon="9.5471440">
	<ele>1837.60</ele>
	<time>2023-10-07T09:41:40.000Z</time>
</trkpt>
<trkpt lat="45.9400980" lon="9.5471440">
	<ele>1837.60</ele>
	<time>2023-10-07T09:41:41.000Z</time>
</trkpt>
<trkpt lat="45.9400980" lon="9.5471440">
	<ele>1837.60</ele>
	<time>2023-10-07T09:41:42.000Z</time>
</trkpt>
<trkpt lat="45.9400980" lon="9.5471440">
	<ele>1837.60</ele>
	<time>2023-10-07T09:41:43.000Z</time>
</trkpt>
<trkpt lat="45.9400980" lon="9.5471440">
	<ele>1837.60</ele>
	<time>2023-10-07T09:41:44.000Z</time>
</trkpt>
<trkpt lat="45.9400980" lon="9.5471440">
	<ele>1837.60</ele>
	<time>2023-10-07T09:41:45.000Z</time>
</trkpt>
<trkpt lat="45.9400980" lon="9.5471440">
	<ele>1837.60</ele>
	<time>2023-10-07T09:41:46.000Z</time>
</trkpt>
<trkpt lat="45.9400980" lon="9.5471440">
	<ele>1837.60</ele>
	<time>2023-10-07T09:41:47.000Z</time>
</trkpt>
<trkpt lat="45.9400980" lon="9.5471440">
	<ele>1837.60</ele>
	<time>2023-10-07T09:41:48.000Z</time>
</trkpt>
<trkpt lat="45.9400980" lon="9.5471440">
	<ele>1837.60</ele>
	<time>2023-10-07T09:41:49.000Z</time>
</trkpt>
<trkpt lat="45.9400980" lon="9.5471440">
	<ele>1837.60</ele>
	<time>2023-10-07T09:41:50.000Z</time>
</trkpt>
<trkpt lat="45.9400980" lon="9.5471440">
	<ele>1837.60</ele>
	<time>2023-10-07T09:41:51.000Z</time>
</trkpt>
<trkpt lat="45.9400980" lon="9.5471440">
	<ele>1837.60</ele>
	<time>2023-10-07T09:41:52.000Z</time>
</trkpt>
<trkpt lat="45.9400980" lon="9.5471440">
	<ele>1837.60</ele>
	<time>2023-10-07T09:41:53.000Z</time>
</trkpt>
<trkpt lat="45.9400980" lon="9.5471430">
	<ele>1837.60</ele>
	<time>2023-10-07T09:41:54.000Z</time>
</trkpt>
<trkpt lat="45.9401010" lon="9.5471350">
	<ele>1837.60</ele>
	<time>2023-10-07T09:41:55.000Z</time>
</trkpt>
<trkpt lat="45.9401110" lon="9.5471200">
	<ele>1837.60</ele>
	<time>2023-10-07T09:41:56.000Z</time>
</trkpt>
<trkpt lat="45.9401190" lon="9.5471050">
	<ele>1837.60</ele>
	<time>2023-10-07T09:41:57.000Z</time>
</trkpt>
<trkpt lat="45.9401310" lon="9.5470920">
	<ele>1837.60</ele>
	<time>2023-10-07T09:41:58.000Z</time>
</trkpt>
<trkpt lat="45.9401410" lon="9.5470780">
	<ele>1837.60</ele>
	<time>2023-10-07T09:41:59.000Z</time>
</trkpt>
<trkpt lat="45.9401510" lon="9.5470660">
	<ele>1837.60</ele>
	<time>2023-10-07T09:42:00.000Z</time>
</trkpt>
<trkpt lat="45.9401580" lon="9.5470600">
	<ele>1837.60</ele>
	<time>2023-10-07T09:42:01.000Z</time>
</trkpt>
<trkpt lat="45.9401660" lon="9.5470540">
	<ele>1837.60</ele>
	<time>2023-10-07T09:42:02.000Z</time>
</trkpt>
<trkpt lat="45.9401750" lon="9.5470480">
	<ele>1837.60</ele>
	<time>2023-10-07T09:42:03.000Z</time>
</trkpt>
<trkpt lat="45.9401810" lon="9.5470390">
	<ele>1837.60</ele>
	<time>2023-10-07T09:42:04.000Z</time>
</trkpt>
<trkpt lat="45.9401850" lon="9.5470290">
	<ele>1837.60</ele>
	<time>2023-10-07T09:42:05.000Z</time>
</trkpt>
<trkpt lat="45.9401870" lon="9.5470160">
	<ele>1837.60</ele>
	<time>2023-10-07T09:42:06.000Z</time>
</trkpt>
<trkpt lat="45.9401890" lon="9.5470040">
	<ele>1837.60</ele>
	<time>2023-10-07T09:42:07.000Z</time>
</trkpt>
<trkpt lat="45.9401940" lon="9.5469940">
	<ele>1837.60</ele>
	<time>2023-10-07T09:42:08.000Z</time>
</trkpt>
<trkpt lat="45.9401990" lon="9.5469830">
	<ele>1837.60</ele>
	<time>2023-10-07T09:42:09.000Z</time>
</trkpt>
<trkpt lat="45.9402020" lon="9.5469750">
	<ele>1837.60</ele>
	<time>2023-10-07T09:42:10.000Z</time>
</trkpt>
<trkpt lat="45.9402060" lon="9.5469680">
	<ele>1837.60</ele>
	<time>2023-10-07T09:42:11.000Z</time>
</trkpt>
<trkpt lat="45.9402140" lon="9.5469590">
	<ele>1837.60</ele>
	<time>2023-10-07T09:42:12.000Z</time>
</trkpt>
<trkpt lat="45.9402200" lon="9.5469560">
	<ele>1837.60</ele>
	<time>2023-10-07T09:42:13.000Z</time>
</trkpt>
<trkpt lat="45.9402260" lon="9.5469550">
	<ele>1837.60</ele>
	<time>2023-10-07T09:42:14.000Z</time>
</trkpt>
<trkpt lat="45.9402310" lon="9.5469540">
	<ele>1837.60</ele>
	<time>2023-10-07T09:42:15.000Z</time>
</trkpt>
<trkpt lat="45.9402350" lon="9.5469520">
	<ele>1837.60</ele>
	<time>2023-10-07T09:42:16.000Z</time>
</trkpt>
<trkpt lat="45.9402360" lon="9.5469480">
	<ele>1837.60</ele>
	<time>2023-10-07T09:42:17.000Z</time>
</trkpt>
<trkpt lat="45.9402360" lon="9.5469400">
	<ele>1837.60</ele>
	<time>2023-10-07T09:42:18.000Z</time>
</trkpt>
<trkpt lat="45.9402400" lon="9.5469340">
	<ele>1837.60</ele>
	<time>2023-10-07T09:42:19.000Z</time>
</trkpt>
<trkpt lat="45.9402430" lon="9.5469340">
	<ele>1837.60</ele>
	<time>2023-10-07T09:42:20.000Z</time>
</trkpt>
<trkpt lat="45.9402450" lon="9.5469300">
	<ele>1837.60</ele>
	<time>2023-10-07T09:42:21.000Z</time>
</trkpt>
<trkpt lat="45.9402480" lon="9.5469240">
	<ele>1837.60</ele>
	<time>2023-10-07T09:42:22.000Z</time>
</trkpt>
<trkpt lat="45.9402520" lon="9.5469130">
	<ele>1837.60</ele>
	<time>2023-10-07T09:42:23.000Z</time>
</trkpt>
<trkpt lat="45.9402600" lon="9.5469030">
	<ele>1837.60</ele>
	<time>2023-10-07T09:42:24.000Z</time>
</trkpt>
<trkpt lat="45.9402660" lon="9.5468980">
	<ele>1837.60</ele>
	<time>2023-10-07T09:42:25.000Z</time>
</trkpt>
<trkpt lat="45.9402710" lon="9.5468960">
	<ele>1837.60</ele>
	<time>2023-10-07T09:42:26.000Z</time>
</trkpt>
<trkpt lat="45.9402750" lon="9.5468970">
	<ele>1837.60</ele>
	<time>2023-10-07T09:42:27.000Z</time>
</trkpt>
<trkpt lat="45.9402790" lon="9.5468950">
	<ele>1837.60</ele>
	<time>2023-10-07T09:42:28.000Z</time>
</trkpt>
<trkpt lat="45.9402840" lon="9.5468860">
	<ele>1837.60</ele>
	<time>2023-10-07T09:42:29.000Z</time>
</trkpt>
<trkpt lat="45.9402850" lon="9.5468750">
	<ele>1837.60</ele>
	<time>2023-10-07T09:42:30.000Z</time>
</trkpt>
<trkpt lat="45.9402880" lon="9.5468730">
	<ele>1837.60</ele>
	<time>2023-10-07T09:42:31.000Z</time>
</trkpt>
<trkpt lat="45.9402910" lon="9.5468690">
	<ele>1837.60</ele>
	<time>2023-10-07T09:42:32.000Z</time>
</trkpt>
<trkpt lat="45.9402950" lon="9.5468690">
	<ele>1837.60</ele>
	<time>2023-10-07T09:42:33.000Z</time>
</trkpt>
<trkpt lat="45.9402970" lon="9.5468640">
	<ele>1837.60</ele>
	<time>2023-10-07T09:42:34.000Z</time>
</trkpt>
<trkpt lat="45.9403040" lon="9.5468650">
	<ele>1837.60</ele>
	<time>2023-10-07T09:42:35.000Z</time>
</trkpt>
<trkpt lat="45.9403080" lon="9.5468670">
	<ele>1837.60</ele>
	<time>2023-10-07T09:42:36.000Z</time>
</trkpt>
<trkpt lat="45.9403100" lon="9.5468710">
	<ele>1837.60</ele>
	<time>2023-10-07T09:42:37.000Z</time>
</trkpt>
<trkpt lat="45.9403100" lon="9.5468780">
	<ele>1837.60</ele>
	<time>2023-10-07T09:42:38.000Z</time>
</trkpt>
<trkpt lat="45.9403130" lon="9.5468830">
	<ele>1837.60</ele>
	<time>2023-10-07T09:42:39.000Z</time>
</trkpt>
<trkpt lat="45.9403160" lon="9.5468840">
	<ele>1837.60</ele>
	<time>2023-10-07T09:42:40.000Z</time>
</trkpt>
<trkpt lat="45.9403210" lon="9.5468830">
	<ele>1837.60</ele>
	<time>2023-10-07T09:42:41.000Z</time>
</trkpt>
<trkpt lat="45.9403240" lon="9.5468820">
	<ele>1837.60</ele>
	<time>2023-10-07T09:42:42.000Z</time>
</trkpt>
<trkpt lat="45.9403260" lon="9.5468780">
	<ele>1837.60</ele>
	<time>2023-10-07T09:42:43.000Z</time>
</trkpt>
<trkpt lat="45.9403280" lon="9.5468710">
	<ele>1837.60</ele>
	<time>2023-10-07T09:42:44.000Z</time>
</trkpt>
<trkpt lat="45.9403310" lon="9.5468600">
	<ele>1837.60</ele>
	<time>2023-10-07T09:42:45.000Z</time>
</trkpt>
<trkpt lat="45.9403350" lon="9.5468480">
	<ele>1837.60</ele>
	<time>2023-10-07T09:42:46.000Z</time>
</trkpt>
<trkpt lat="45.9403380" lon="9.5468380">
	<ele>1837.60</ele>
	<time>2023-10-07T09:42:47.000Z</time>
</trkpt>
<trkpt lat="45.9403420" lon="9.5468340">
	<ele>1837.60</ele>
	<time>2023-10-07T09:42:48.000Z</time>
</trkpt>
<trkpt lat="45.9403450" lon="9.5468300">
	<ele>1837.60</ele>
	<time>2023-10-07T09:42:49.000Z</time>
</trkpt>
<trkpt lat="45.9403490" lon="9.5468260">
	<ele>1837.60</ele>
	<time>2023-10-07T09:42:50.000Z</time>
</trkpt>
<trkpt lat="45.9403540" lon="9.5468210">
	<ele>1837.60</ele>
	<time>2023-10-07T09:42:51.000Z</time>
</trkpt>
<trkpt lat="45.9403570" lon="9.5468180">
	<ele>1837.60</ele>
	<time>2023-10-07T09:42:52.000Z</time>
</trkpt>
<trkpt lat="45.9403600" lon="9.5468160">
	<ele>1837.60</ele>
	<time>2023-10-07T09:42:53.000Z</time>
</trkpt>
<trkpt lat="45.9403640" lon="9.5468130">
	<ele>1837.60</ele>
	<time>2023-10-07T09:42:54.000Z</time>
</trkpt>
<trkpt lat="45.9403670" lon="9.5468110">
	<ele>1837.60</ele>
	<time>2023-10-07T09:42:55.000Z</time>
</trkpt>
<trkpt lat="45.9403670" lon="9.5468070">
	<ele>1837.60</ele>
	<time>2023-10-07T09:42:56.000Z</time>
</trkpt>
<trkpt lat="45.9403700" lon="9.5468030">
	<ele>1837.60</ele>
	<time>2023-10-07T09:42:57.000Z</time>
</trkpt>
<trkpt lat="45.9403710" lon="9.5468010">
	<ele>1837.60</ele>
	<time>2023-10-07T09:42:58.000Z</time>
</trkpt>
<trkpt lat="45.9403730" lon="9.5467940">
	<ele>1826.00</ele>
	<time>2023-10-07T09:42:59.000Z</time>
</trkpt>
<trkpt lat="45.9403730" lon="9.5467850">
	<ele>1826.00</ele>
	<time>2023-10-07T09:43:00.000Z</time>
</trkpt>
<trkpt lat="45.9403740" lon="9.5467810">
	<ele>1826.00</ele>
	<time>2023-10-07T09:43:01.000Z</time>
</trkpt>
<trkpt lat="45.9403760" lon="9.5467730">
	<ele>1826.00</ele>
	<time>2023-10-07T09:43:02.000Z</time>
</trkpt>
<trkpt lat="45.9403790" lon="9.5467670">
	<ele>1825.80</ele>
	<time>2023-10-07T09:43:03.000Z</time>
</trkpt>
<trkpt lat="45.9403810" lon="9.5467630">
	<ele>1825.60</ele>
	<time>2023-10-07T09:43:04.000Z</time>
</trkpt>
<trkpt lat="45.9403830" lon="9.5467590">
	<ele>1825.60</ele>
	<time>2023-10-07T09:43:05.000Z</time>
</trkpt>
<trkpt lat="45.9403860" lon="9.5467560">
	<ele>1825.40</ele>
	<time>2023-10-07T09:43:06.000Z</time>
</trkpt>
<trkpt lat="45.9403880" lon="9.5467520">
	<ele>1825.20</ele>
	<time>2023-10-07T09:43:07.000Z</time>
</trkpt>
<trkpt lat="45.9403910" lon="9.5467500">
	<ele>1825.20</ele>
	<time>2023-10-07T09:43:08.000Z</time>
</trkpt>
<trkpt lat="45.9403940" lon="9.5467480">
	<ele>1825.00</ele>
	<time>2023-10-07T09:43:09.000Z</time>
</trkpt>
<trkpt lat="45.9403950" lon="9.5467470">
	<ele>1824.80</ele>
	<time>2023-10-07T09:43:10.000Z</time>
</trkpt>
<trkpt lat="45.9404000" lon="9.5467460">
	<ele>1824.60</ele>
	<time>2023-10-07T09:43:11.000Z</time>
</trkpt>
<trkpt lat="45.9404040" lon="9.5467480">
	<ele>1824.60</ele>
	<time>2023-10-07T09:43:12.000Z</time>
</trkpt>
<trkpt lat="45.9404070" lon="9.5467490">
	<ele>1824.20</ele>
	<time>2023-10-07T09:43:13.000Z</time>
</trkpt>
<trkpt lat="45.9404100" lon="9.5467460">
	<ele>1824.00</ele>
	<time>2023-10-07T09:43:14.000Z</time>
</trkpt>
<trkpt lat="45.9404130" lon="9.5467430">
	<ele>1823.60</ele>
	<time>2023-10-07T09:43:15.000Z</time>
</trkpt>
<trkpt lat="45.9404160" lon="9.5467410">
	<ele>1823.40</ele>
	<time>2023-10-07T09:43:16.000Z</time>
</trkpt>
<trkpt lat="45.9404190" lon="9.5467360">
	<ele>1823.00</ele>
	<time>2023-10-07T09:43:17.000Z</time>
</trkpt>
<trkpt lat="45.9404200" lon="9.5467300">
	<ele>1822.80</ele>
	<time>2023-10-07T09:43:18.000Z</time>
</trkpt>
<trkpt lat="45.9404200" lon="9.5467240">
	<ele>1822.80</ele>
	<time>2023-10-07T09:43:19.000Z</time>
</trkpt>
<trkpt lat="45.9404160" lon="9.5467140">
	<ele>1822.60</ele>
	<time>2023-10-07T09:43:20.000Z</time>
</trkpt>
<trkpt lat="45.9404150" lon="9.5467020">
	<ele>1822.60</ele>
	<time>2023-10-07T09:43:21.000Z</time>
</trkpt>
<trkpt lat="45.9404160" lon="9.5466910">
	<ele>1822.40</ele>
	<time>2023-10-07T09:43:22.000Z</time>
</trkpt>
<trkpt lat="45.9404190" lon="9.5466860">
	<ele>1822.20</ele>
	<time>2023-10-07T09:43:23.000Z</time>
</trkpt>
<trkpt lat="45.9404200" lon="9.5466800">
	<ele>1822.00</ele>
	<time>2023-10-07T09:43:24.000Z</time>
</trkpt>
<trkpt lat="45.9404210" lon="9.5466740">
	<ele>1821.80</ele>
	<time>2023-10-07T09:43:25.000Z</time>
</trkpt>
<trkpt lat="45.9404250" lon="9.5466660">
	<ele>1821.60</ele>
	<time>2023-10-07T09:43:26.000Z</time>
</trkpt>
<trkpt lat="45.9404260" lon="9.5466590">
	<ele>1821.60</ele>
	<time>2023-10-07T09:43:27.000Z</time>
</trkpt>
<trkpt lat="45.9404280" lon="9.5466530">
	<ele>1821.40</ele>
	<time>2023-10-07T09:43:28.000Z</time>
</trkpt>
<trkpt lat="45.9404300" lon="9.5466490">
	<ele>1821.00</ele>
	<time>2023-10-07T09:43:29.000Z</time>
</trkpt>
<trkpt lat="45.9404330" lon="9.5466460">
	<ele>1821.00</ele>
	<time>2023-10-07T09:43:30.000Z</time>
</trkpt>
<trkpt lat="45.9404390" lon="9.5466450">
	<ele>1820.60</ele>
	<time>2023-10-07T09:43:31.000Z</time>
</trkpt>
<trkpt lat="45.9404420" lon="9.5466460">
	<ele>1820.60</ele>
	<time>2023-10-07T09:43:32.000Z</time>
</trkpt>
<trkpt lat="45.9404450" lon="9.5466450">
	<ele>1820.40</ele>
	<time>2023-10-07T09:43:33.000Z</time>
</trkpt>
<trkpt lat="45.9404470" lon="9.5466420">
	<ele>1820.00</ele>
	<time>2023-10-07T09:43:34.000Z</time>
</trkpt>
<trkpt lat="45.9404510" lon="9.5466390">
	<ele>1819.80</ele>
	<time>2023-10-07T09:43:35.000Z</time>
</trkpt>
<trkpt lat="45.9404560" lon="9.5466390">
	<ele>1819.60</ele>
	<time>2023-10-07T09:43:36.000Z</time>
</trkpt>
<trkpt lat="45.9404600" lon="9.5466340">
	<ele>1819.40</ele>
	<time>2023-10-07T09:43:37.000Z</time>
</trkpt>
<trkpt lat="45.9404620" lon="9.5466300">
	<ele>1819.20</ele>
	<time>2023-10-07T09:43:38.000Z</time>
</trkpt>
<trkpt lat="45.9404620" lon="9.5466260">
	<ele>1819.20</ele>
	<time>2023-10-07T09:43:39.000Z</time>
</trkpt>
<trkpt lat="45.9404590" lon="9.5466190">
	<ele>1819.00</ele>
	<time>2023-10-07T09:43:40.000Z</time>
</trkpt>
<trkpt lat="45.9404580" lon="9.5466120">
	<ele>1819.00</ele>
	<time>2023-10-07T09:43:41.000Z</time>
</trkpt>
<trkpt lat="45.9404600" lon="9.5466080">
	<ele>1818.80</ele>
	<time>2023-10-07T09:43:42.000Z</time>
</trkpt>
<trkpt lat="45.9404640" lon="9.5466030">
	<ele>1818.40</ele>
	<time>2023-10-07T09:43:43.000Z</time>
</trkpt>
<trkpt lat="45.9404660" lon="9.5465960">
	<ele>1818.20</ele>
	<time>2023-10-07T09:43:44.000Z</time>
</trkpt>
<trkpt lat="45.9404670" lon="9.5465920">
	<ele>1818.00</ele>
	<time>2023-10-07T09:43:45.000Z</time>
</trkpt>
<trkpt lat="45.9404680" lon="9.5465910">
	<ele>1817.80</ele>
	<time>2023-10-07T09:43:46.000Z</time>
</trkpt>
<trkpt lat="45.9404700" lon="9.5465890">
	<ele>1817.60</ele>
	<time>2023-10-07T09:43:47.000Z</time>
</trkpt>
<trkpt lat="45.9404710" lon="9.5465860">
	<ele>1817.20</ele>
	<time>2023-10-07T09:43:48.000Z</time>
</trkpt>
<trkpt lat="45.9404750" lon="9.5465870">
	<ele>1817.00</ele>
	<time>2023-10-07T09:43:49.000Z</time>
</trkpt>
<trkpt lat="45.9404790" lon="9.5465820">
	<ele>1816.80</ele>
	<time>2023-10-07T09:43:50.000Z</time>
</trkpt>
<trkpt lat="45.9404850" lon="9.5465770">
	<ele>1816.60</ele>
	<time>2023-10-07T09:43:51.000Z</time>
</trkpt>
<trkpt lat="45.9404920" lon="9.5465710">
	<ele>1816.40</ele>
	<time>2023-10-07T09:43:52.000Z</time>
</trkpt>
<trkpt lat="45.9404960" lon="9.5465670">
	<ele>1816.40</ele>
	<time>2023-10-07T09:43:53.000Z</time>
</trkpt>
<trkpt lat="45.9405000" lon="9.5465600">
	<ele>1816.20</ele>
	<time>2023-10-07T09:43:54.000Z</time>
</trkpt>
<trkpt lat="45.9405070" lon="9.5465540">
	<ele>1816.00</ele>
	<time>2023-10-07T09:43:55.000Z</time>
</trkpt>
<trkpt lat="45.9405160" lon="9.5465480">
	<ele>1815.60</ele>
	<time>2023-10-07T09:43:56.000Z</time>
</trkpt>
<trkpt lat="45.9405230" lon="9.5465430">
	<ele>1815.40</ele>
	<time>2023-10-07T09:43:57.000Z</time>
</trkpt>
<trkpt lat="45.9405290" lon="9.5465390">
	<ele>1815.20</ele>
	<time>2023-10-07T09:43:58.000Z</time>
</trkpt>
<trkpt lat="45.9405330" lon="9.5465320">
	<ele>1815.20</ele>
	<time>2023-10-07T09:43:59.000Z</time>
</trkpt>
<trkpt lat="45.9405350" lon="9.5465240">
	<ele>1815.00</ele>
	<time>2023-10-07T09:44:00.000Z</time>
</trkpt>
<trkpt lat="45.9405390" lon="9.5465160">
	<ele>1815.00</ele>
	<time>2023-10-07T09:44:01.000Z</time>
</trkpt>
<trkpt lat="45.9405440" lon="9.5465050">
	<ele>1814.80</ele>
	<time>2023-10-07T09:44:02.000Z</time>
</trkpt>
<trkpt lat="45.9405500" lon="9.5464980">
	<ele>1814.60</ele>
	<time>2023-10-07T09:44:03.000Z</time>
</trkpt>
<trkpt lat="45.9405550" lon="9.5464890">
	<ele>1814.60</ele>
	<time>2023-10-07T09:44:04.000Z</time>
</trkpt>
<trkpt lat="45.9405610" lon="9.5464820">
	<ele>1814.20</ele>
	<time>2023-10-07T09:44:05.000Z</time>
</trkpt>
<trkpt lat="45.9405660" lon="9.5464730">
	<ele>1813.80</ele>
	<time>2023-10-07T09:44:06.000Z</time>
</trkpt>
<trkpt lat="45.9405700" lon="9.5464630">
	<ele>1813.60</ele>
	<time>2023-10-07T09:44:07.000Z</time>
</trkpt>
<trkpt lat="45.9405730" lon="9.5464550">
	<ele>1813.40</ele>
	<time>2023-10-07T09:44:08.000Z</time>
</trkpt>
<trkpt lat="45.9405790" lon="9.5464470">
	<ele>1813.00</ele>
	<time>2023-10-07T09:44:09.000Z</time>
</trkpt>
<trkpt lat="45.9405840" lon="9.5464420">
	<ele>1812.80</ele>
	<time>2023-10-07T09:44:10.000Z</time>
</trkpt>
<trkpt lat="45.9405870" lon="9.5464380">
	<ele>1812.60</ele>
	<time>2023-10-07T09:44:11.000Z</time>
</trkpt>
<trkpt lat="45.9405900" lon="9.5464340">
	<ele>1812.40</ele>
	<time>2023-10-07T09:44:12.000Z</time>
</trkpt>
<trkpt lat="45.9405950" lon="9.5464290">
	<ele>1812.00</ele>
	<time>2023-10-07T09:44:13.000Z</time>
</trkpt>
<trkpt lat="45.9406010" lon="9.5464250">
	<ele>1811.80</ele>
	<time>2023-10-07T09:44:14.000Z</time>
</trkpt>
<trkpt lat="45.9406040" lon="9.5464230">
	<ele>1811.60</ele>
	<time>2023-10-07T09:44:15.000Z</time>
</trkpt>
<trkpt lat="45.9406070" lon="9.5464170">
	<ele>1811.40</ele>
	<time>2023-10-07T09:44:16.000Z</time>
</trkpt>
<trkpt lat="45.9406090" lon="9.5464130">
	<ele>1811.20</ele>
	<time>2023-10-07T09:44:17.000Z</time>
</trkpt>
<trkpt lat="45.9406100" lon="9.5464070">
	<ele>1811.00</ele>
	<time>2023-10-07T09:44:18.000Z</time>
</trkpt>
<trkpt lat="45.9406140" lon="9.5463980">
	<ele>1811.00</ele>
	<time>2023-10-07T09:44:19.000Z</time>
</trkpt>
<trkpt lat="45.9406150" lon="9.5463920">
	<ele>1810.80</ele>
	<time>2023-10-07T09:44:20.000Z</time>
</trkpt>
<trkpt lat="45.9406150" lon="9.5463860">
	<ele>1810.40</ele>
	<time>2023-10-07T09:44:21.000Z</time>
</trkpt>
<trkpt lat="45.9406120" lon="9.5463790">
	<ele>1810.20</ele>
	<time>2023-10-07T09:44:22.000Z</time>
</trkpt>
<trkpt lat="45.9406080" lon="9.5463730">
	<ele>1810.00</ele>
	<time>2023-10-07T09:44:23.000Z</time>
</trkpt>
<trkpt lat="45.9406040" lon="9.5463710">
	<ele>1809.80</ele>
	<time>2023-10-07T09:44:24.000Z</time>
</trkpt>
<trkpt lat="45.9405990" lon="9.5463700">
	<ele>1809.60</ele>
	<time>2023-10-07T09:44:25.000Z</time>
</trkpt>
<trkpt lat="45.9405960" lon="9.5463680">
	<ele>1809.60</ele>
	<time>2023-10-07T09:44:26.000Z</time>
</trkpt>
<trkpt lat="45.9405950" lon="9.5463660">
	<ele>1809.40</ele>
	<time>2023-10-07T09:44:27.000Z</time>
</trkpt>
<trkpt lat="45.9405880" lon="9.5463650">
	<ele>1809.40</ele>
	<time>2023-10-07T09:44:28.000Z</time>
</trkpt>
<trkpt lat="45.9405840" lon="9.5463620">
	<ele>1809.20</ele>
	<time>2023-10-07T09:44:29.000Z</time>
</trkpt>
<trkpt lat="45.9405810" lon="9.5463590">
	<ele>1809.20</ele>
	<time>2023-10-07T09:44:30.000Z</time>
</trkpt>
<trkpt lat="45.9405730" lon="9.5463580">
	<ele>1809.00</ele>
	<time>2023-10-07T09:44:31.000Z</time>
</trkpt>
<trkpt lat="45.9405690" lon="9.5463560">
	<ele>1808.80</ele>
	<time>2023-10-07T09:44:32.000Z</time>
</trkpt>
<trkpt lat="45.9405630" lon="9.5463540">
	<ele>1808.60</ele>
	<time>2023-10-07T09:44:33.000Z</time>
</trkpt>
<trkpt lat="45.9405560" lon="9.5463520">
	<ele>1808.40</ele>
	<time>2023-10-07T09:44:34.000Z</time>
</trkpt>
<trkpt lat="45.9405510" lon="9.5463520">
	<ele>1808.00</ele>
	<time>2023-10-07T09:44:35.000Z</time>
</trkpt>
<trkpt lat="45.9405470" lon="9.5463540">
	<ele>1807.60</ele>
	<time>2023-10-07T09:44:36.000Z</time>
</trkpt>
<trkpt lat="45.9405400" lon="9.5463580">
	<ele>1807.40</ele>
	<time>2023-10-07T09:44:37.000Z</time>
</trkpt>
<trkpt lat="45.9405350" lon="9.5463620">
	<ele>1807.20</ele>
	<time>2023-10-07T09:44:38.000Z</time>
</trkpt>
<trkpt lat="45.9405340" lon="9.5463640">
	<ele>1807.20</ele>
	<time>2023-10-07T09:44:39.000Z</time>
</trkpt>
<trkpt lat="45.9405330" lon="9.5463630">
	<ele>1807.00</ele>
	<time>2023-10-07T09:44:40.000Z</time>
</trkpt>
<trkpt lat="45.9405310" lon="9.5463610">
	<ele>1807.00</ele>
	<time>2023-10-07T09:44:41.000Z</time>
</trkpt>
<trkpt lat="45.9405320" lon="9.5463610">
	<ele>1806.80</ele>
	<time>2023-10-07T09:44:42.000Z</time>
</trkpt>
<trkpt lat="45.9405290" lon="9.5463630">
	<ele>1806.80</ele>
	<time>2023-10-07T09:44:43.000Z</time>
</trkpt>
<trkpt lat="45.9405290" lon="9.5463630">
	<ele>1806.40</ele>
	<time>2023-10-07T09:44:44.000Z</time>
</trkpt>
<trkpt lat="45.9405260" lon="9.5463620">
	<ele>1806.20</ele>
	<time>2023-10-07T09:44:45.000Z</time>
</trkpt>
<trkpt lat="45.9405240" lon="9.5463560">
	<ele>1806.00</ele>
	<time>2023-10-07T09:44:46.000Z</time>
</trkpt>
<trkpt lat="45.9405240" lon="9.5463520">
	<ele>1805.80</ele>
	<time>2023-10-07T09:44:47.000Z</time>
</trkpt>
<trkpt lat="45.9405250" lon="9.5463480">
	<ele>1805.60</ele>
	<time>2023-10-07T09:44:48.000Z</time>
</trkpt>
<trkpt lat="45.9405260" lon="9.5463430">
	<ele>1805.40</ele>
	<time>2023-10-07T09:44:49.000Z</time>
</trkpt>
<trkpt lat="45.9405250" lon="9.5463410">
	<ele>1805.20</ele>
	<time>2023-10-07T09:44:50.000Z</time>
</trkpt>
<trkpt lat="45.9405250" lon="9.5463390">
	<ele>1804.80</ele>
	<time>2023-10-07T09:44:51.000Z</time>
</trkpt>
<trkpt lat="45.9405250" lon="9.5463380">
	<ele>1804.60</ele>
	<time>2023-10-07T09:44:52.000Z</time>
</trkpt>
<trkpt lat="45.9405250" lon="9.5463380">
	<ele>1804.60</ele>
	<time>2023-10-07T09:44:53.000Z</time>
</trkpt>
<trkpt lat="45.9405250" lon="9.5463380">
	<ele>1804.40</ele>
	<time>2023-10-07T09:44:54.000Z</time>
</trkpt>
<trkpt lat="45.9405250" lon="9.5463380">
	<ele>1804.40</ele>
	<time>2023-10-07T09:44:55.000Z</time>
</trkpt>
<trkpt lat="45.9405250" lon="9.5463380">
	<ele>1804.20</ele>
	<time>2023-10-07T09:44:56.000Z</time>
</trkpt>
<trkpt lat="45.9405250" lon="9.5463380">
	<ele>1804.00</ele>
	<time>2023-10-07T09:44:57.000Z</time>
</trkpt>
<trkpt lat="45.9405250" lon="9.5463380">
	<ele>1803.60</ele>
	<time>2023-10-07T09:44:58.000Z</time>
</trkpt>
<trkpt lat="45.9405250" lon="9.5463380">
	<ele>1803.40</ele>
	<time>2023-10-07T09:44:59.000Z</time>
</trkpt>
<trkpt lat="45.9405250" lon="9.5463380">
	<ele>1803.20</ele>
	<time>2023-10-07T09:45:00.000Z</time>
</trkpt>
<trkpt lat="45.9405250" lon="9.5463380">
	<ele>1803.20</ele>
	<time>2023-10-07T09:45:01.000Z</time>
</trkpt>
<trkpt lat="45.9405250" lon="9.5463380">
	<ele>1803.00</ele>
	<time>2023-10-07T09:45:02.000Z</time>
</trkpt>
<trkpt lat="45.9405250" lon="9.5463380">
	<ele>1802.60</ele>
	<time>2023-10-07T09:45:03.000Z</time>
</trkpt>
<trkpt lat="45.9405250" lon="9.5463380">
	<ele>1802.40</ele>
	<time>2023-10-07T09:45:04.000Z</time>
</trkpt>
<trkpt lat="45.9405250" lon="9.5463380">
	<ele>1802.40</ele>
	<time>2023-10-07T09:45:05.000Z</time>
</trkpt>
<trkpt lat="45.9405250" lon="9.5463380">
	<ele>1802.20</ele>
	<time>2023-10-07T09:45:06.000Z</time>
</trkpt>
<trkpt lat="45.9405250" lon="9.5463380">
	<ele>1802.00</ele>
	<time>2023-10-07T09:45:07.000Z</time>
</trkpt>
<trkpt lat="45.9405280" lon="9.5463290">
	<ele>1801.80</ele>
	<time>2023-10-07T09:45:08.000Z</time>
</trkpt>
<trkpt lat="45.9405400" lon="9.5463110">
	<ele>1801.60</ele>
	<time>2023-10-07T09:45:09.000Z</time>
</trkpt>
<trkpt lat="45.9405530" lon="9.5462920">
	<ele>1801.40</ele>
	<time>2023-10-07T09:45:10.000Z</time>
</trkpt>
<trkpt lat="45.9405650" lon="9.5462780">
	<ele>1801.20</ele>
	<time>2023-10-07T09:45:11.000Z</time>
</trkpt>
<trkpt lat="45.9405820" lon="9.5462650">
	<ele>1801.20</ele>
	<time>2023-10-07T09:45:12.000Z</time>
</trkpt>
<trkpt lat="45.9405950" lon="9.5462550">
	<ele>1801.20</ele>
	<time>2023-10-07T09:45:13.000Z</time>
</trkpt>
<trkpt lat="45.9406060" lon="9.5462440">
	<ele>1801.00</ele>
	<time>2023-10-07T09:45:14.000Z</time>
</trkpt>
<trkpt lat="45.9406140" lon="9.5462310">
	<ele>1801.00</ele>
	<time>2023-10-07T09:45:15.000Z</time>
</trkpt>
<trkpt lat="45.9406220" lon="9.5462210">
	<ele>1801.00</ele>
	<time>2023-10-07T09:45:16.000Z</time>
</trkpt>
<trkpt lat="45.9406290" lon="9.5462110">
	<ele>1800.80</ele>
	<time>2023-10-07T09:45:17.000Z</time>
</trkpt>
<trkpt lat="45.9406310" lon="9.5462030">
	<ele>1800.80</ele>
	<time>2023-10-07T09:45:18.000Z</time>
</trkpt>
<trkpt lat="45.9406310" lon="9.5461990">
	<ele>1800.80</ele>
	<time>2023-10-07T09:45:19.000Z</time>
</trkpt>
<trkpt lat="45.9406310" lon="9.5461970">
	<ele>1800.60</ele>
	<time>2023-10-07T09:45:20.000Z</time>
</trkpt>
<trkpt lat="45.9406310" lon="9.5461930">
	<ele>1800.20</ele>
	<time>2023-10-07T09:45:21.000Z</time>
</trkpt>
<trkpt lat="45.9406320" lon="9.5461890">
	<ele>1800.00</ele>
	<time>2023-10-07T09:45:22.000Z</time>
</trkpt>
<trkpt lat="45.9406370" lon="9.5461800">
	<ele>1799.80</ele>
	<time>2023-10-07T09:45:23.000Z</time>
</trkpt>
<trkpt lat="45.9406460" lon="9.5461750">
	<ele>1799.60</ele>
	<time>2023-10-07T09:45:24.000Z</time>
</trkpt>
<trkpt lat="45.9406540" lon="9.5461750">
	<ele>1799.40</ele>
	<time>2023-10-07T09:45:25.000Z</time>
</trkpt>
<trkpt lat="45.9406630" lon="9.5461720">
	<ele>1799.40</ele>
	<time>2023-10-07T09:45:26.000Z</time>
</trkpt>
<trkpt lat="45.9406700" lon="9.5461680">
	<ele>1799.40</ele>
	<time>2023-10-07T09:45:27.000Z</time>
</trkpt>
<trkpt lat="45.9406740" lon="9.5461640">
	<ele>1799.20</ele>
	<time>2023-10-07T09:45:28.000Z</time>
</trkpt>
<trkpt lat="45.9406760" lon="9.5461580">
	<ele>1799.20</ele>
	<time>2023-10-07T09:45:29.000Z</time>
</trkpt>
<trkpt lat="45.9406760" lon="9.5461520">
	<ele>1799.00</ele>
	<time>2023-10-07T09:45:30.000Z</time>
</trkpt>
<trkpt lat="45.9406740" lon="9.5461470">
	<ele>1798.80</ele>
	<time>2023-10-07T09:45:31.000Z</time>
</trkpt>
<trkpt lat="45.9406720" lon="9.5461410">
	<ele>1798.80</ele>
	<time>2023-10-07T09:45:32.000Z</time>
</trkpt>
<trkpt lat="45.9406720" lon="9.5461340">
	<ele>1798.60</ele>
	<time>2023-10-07T09:45:33.000Z</time>
</trkpt>
<trkpt lat="45.9406730" lon="9.5461260">
	<ele>1798.40</ele>
	<time>2023-10-07T09:45:34.000Z</time>
</trkpt>
<trkpt lat="45.9406760" lon="9.5461200">
	<ele>1798.20</ele>
	<time>2023-10-07T09:45:35.000Z</time>
</trkpt>
<trkpt lat="45.9406780" lon="9.5461160">
	<ele>1798.00</ele>
	<time>2023-10-07T09:45:36.000Z</time>
</trkpt>
<trkpt lat="45.9406800" lon="9.5461120">
	<ele>1797.80</ele>
	<time>2023-10-07T09:45:37.000Z</time>
</trkpt>
<trkpt lat="45.9406810" lon="9.5461090">
	<ele>1797.60</ele>
	<time>2023-10-07T09:45:38.000Z</time>
</trkpt>
<trkpt lat="45.9406810" lon="9.5461050">
	<ele>1797.40</ele>
	<time>2023-10-07T09:45:39.000Z</time>
</trkpt>
<trkpt lat="45.9406810" lon="9.5460990">
	<ele>1797.40</ele>
	<time>2023-10-07T09:45:40.000Z</time>
</trkpt>
<trkpt lat="45.9406830" lon="9.5460950">
	<ele>1797.20</ele>
	<time>2023-10-07T09:45:41.000Z</time>
</trkpt>
<trkpt lat="45.9406850" lon="9.5460940">
	<ele>1796.80</ele>
	<time>2023-10-07T09:45:42.000Z</time>
</trkpt>
<trkpt lat="45.9406880" lon="9.5460910">
	<ele>1796.60</ele>
	<time>2023-10-07T09:45:43.000Z</time>
</trkpt>
<trkpt lat="45.9406900" lon="9.5460820">
	<ele>1796.40</ele>
	<time>2023-10-07T09:45:44.000Z</time>
</trkpt>
<trkpt lat="45.9406910" lon="9.5460780">
	<ele>1796.20</ele>
	<time>2023-10-07T09:45:45.000Z</time>
</trkpt>
<trkpt lat="45.9406930" lon="9.5460750">
	<ele>1796.20</ele>
	<time>2023-10-07T09:45:46.000Z</time>
</trkpt>
<trkpt lat="45.9406940" lon="9.5460700">
	<ele>1796.00</ele>
	<time>2023-10-07T09:45:47.000Z</time>
</trkpt>
<trkpt lat="45.9406940" lon="9.5460640">
	<ele>1795.80</ele>
	<time>2023-10-07T09:45:48.000Z</time>
</trkpt>
<trkpt lat="45.9406940" lon="9.5460560">
	<ele>1795.80</ele>
	<time>2023-10-07T09:45:49.000Z</time>
</trkpt>
<trkpt lat="45.9406980" lon="9.5460490">
	<ele>1795.60</ele>
	<time>2023-10-07T09:45:50.000Z</time>
</trkpt>
<trkpt lat="45.9407040" lon="9.5460440">
	<ele>1795.20</ele>
	<time>2023-10-07T09:45:51.000Z</time>
</trkpt>
<trkpt lat="45.9407070" lon="9.5460380">
	<ele>1795.00</ele>
	<time>2023-10-07T09:45:52.000Z</time>
</trkpt>
<trkpt lat="45.9407100" lon="9.5460350">
	<ele>1794.80</ele>
	<time>2023-10-07T09:45:53.000Z</time>
</trkpt>
<trkpt lat="45.9407130" lon="9.5460300">
	<ele>1794.60</ele>
	<time>2023-10-07T09:45:54.000Z</time>
</trkpt>
<trkpt lat="45.9407200" lon="9.5460270">
	<ele>1794.40</ele>
	<time>2023-10-07T09:45:55.000Z</time>
</trkpt>
<trkpt lat="45.9407240" lon="9.5460260">
	<ele>1794.20</ele>
	<time>2023-10-07T09:45:56.000Z</time>
</trkpt>
<trkpt lat="45.9407270" lon="9.5460280">
	<ele>1794.00</ele>
	<time>2023-10-07T09:45:57.000Z</time>
</trkpt>
<trkpt lat="45.9407300" lon="9.5460340">
	<ele>1794.00</ele>
	<time>2023-10-07T09:45:58.000Z</time>
</trkpt>
<trkpt lat="45.9407290" lon="9.5460370">
	<ele>1793.80</ele>
	<time>2023-10-07T09:45:59.000Z</time>
</trkpt>
<trkpt lat="45.9407310" lon="9.5460410">
	<ele>1793.40</ele>
	<time>2023-10-07T09:46:00.000Z</time>
</trkpt>
<trkpt lat="45.9407360" lon="9.5460390">
	<ele>1793.20</ele>
	<time>2023-10-07T09:46:01.000Z</time>
</trkpt>
<trkpt lat="45.9407410" lon="9.5460380">
	<ele>1793.00</ele>
	<time>2023-10-07T09:46:02.000Z</time>
</trkpt>
<trkpt lat="45.9407450" lon="9.5460350">
	<ele>1792.80</ele>
	<time>2023-10-07T09:46:03.000Z</time>
</trkpt>
<trkpt lat="45.9407480" lon="9.5460290">
	<ele>1792.60</ele>
	<time>2023-10-07T09:46:04.000Z</time>
</trkpt>
<trkpt lat="45.9407480" lon="9.5460200">
	<ele>1792.40</ele>
	<time>2023-10-07T09:46:05.000Z</time>
</trkpt>
<trkpt lat="45.9407480" lon="9.5460120">
	<ele>1792.40</ele>
	<time>2023-10-07T09:46:06.000Z</time>
</trkpt>
<trkpt lat="45.9407480" lon="9.5460060">
	<ele>1792.20</ele>
	<time>2023-10-07T09:46:07.000Z</time>
</trkpt>
<trkpt lat="45.9407490" lon="9.5460010">
	<ele>1792.00</ele>
	<time>2023-10-07T09:46:08.000Z</time>
</trkpt>
<trkpt lat="45.9407520" lon="9.5459890">
	<ele>1792.00</ele>
	<time>2023-10-07T09:46:09.000Z</time>
</trkpt>
<trkpt lat="45.9407540" lon="9.5459810">
	<ele>1791.60</ele>
	<time>2023-10-07T09:46:10.000Z</time>
</trkpt>
<trkpt lat="45.9407550" lon="9.5459710">
	<ele>1791.40</ele>
	<time>2023-10-07T09:46:11.000Z</time>
</trkpt>
<trkpt lat="45.9407550" lon="9.5459630">
	<ele>1791.20</ele>
	<time>2023-10-07T09:46:12.000Z</time>
</trkpt>
<trkpt lat="45.9407580" lon="9.5459520">
	<ele>1791.00</ele>
	<time>2023-10-07T09:46:13.000Z</time>
</trkpt>
<trkpt lat="45.9407590" lon="9.5459420">
	<ele>1790.80</ele>
	<time>2023-10-07T09:46:14.000Z</time>
</trkpt>
<trkpt lat="45.9407620" lon="9.5459360">
	<ele>1790.80</ele>
	<time>2023-10-07T09:46:15.000Z</time>
</trkpt>
<trkpt lat="45.9407610" lon="9.5459290">
	<ele>1790.60</ele>
	<time>2023-10-07T09:46:16.000Z</time>
</trkpt>
<trkpt lat="45.9407620" lon="9.5459190">
	<ele>1790.40</ele>
	<time>2023-10-07T09:46:17.000Z</time>
</trkpt>
<trkpt lat="45.9407630" lon="9.5459100">
	<ele>1790.20</ele>
	<time>2023-10-07T09:46:18.000Z</time>
</trkpt>
<trkpt lat="45.9407640" lon="9.5458980">
	<ele>1790.00</ele>
	<time>2023-10-07T09:46:19.000Z</time>
</trkpt>
<trkpt lat="45.9407630" lon="9.5458880">
	<ele>1789.80</ele>
	<time>2023-10-07T09:46:20.000Z</time>
</trkpt>
<trkpt lat="45.9407650" lon="9.5458750">
	<ele>1789.60</ele>
	<time>2023-10-07T09:46:21.000Z</time>
</trkpt>
<trkpt lat="45.9407670" lon="9.5458650">
	<ele>1789.40</ele>
	<time>2023-10-07T09:46:22.000Z</time>
</trkpt>
<trkpt lat="45.9407680" lon="9.5458540">
	<ele>1789.20</ele>
	<time>2023-10-07T09:46:23.000Z</time>
</trkpt>
<trkpt lat="45.9407680" lon="9.5458410">
	<ele>1789.00</ele>
	<time>2023-10-07T09:46:24.000Z</time>
</trkpt>
<trkpt lat="45.9407670" lon="9.5458250">
	<ele>1788.80</ele>
	<time>2023-10-07T09:46:25.000Z</time>
</trkpt>
<trkpt lat="45.9407690" lon="9.5458090">
	<ele>1788.60</ele>
	<time>2023-10-07T09:46:26.000Z</time>
</trkpt>
<trkpt lat="45.9407720" lon="9.5457930">
	<ele>1788.60</ele>
	<time>2023-10-07T09:46:27.000Z</time>
</trkpt>
<trkpt lat="45.9407750" lon="9.5457830">
	<ele>1788.40</ele>
	<time>2023-10-07T09:46:28.000Z</time>
</trkpt>
<trkpt lat="45.9407790" lon="9.5457750">
	<ele>1788.20</ele>
	<time>2023-10-07T09:46:29.000Z</time>
</trkpt>
<trkpt lat="45.9407850" lon="9.5457660">
	<ele>1788.20</ele>
	<time>2023-10-07T09:46:30.000Z</time>
</trkpt>
<trkpt lat="45.9407910" lon="9.5457560">
	<ele>1788.20</ele>
	<time>2023-10-07T09:46:31.000Z</time>
</trkpt>
<trkpt lat="45.9407910" lon="9.5457460">
	<ele>1788.00</ele>
	<time>2023-10-07T09:46:32.000Z</time>
</trkpt>
<trkpt lat="45.9407900" lon="9.5457350">
	<ele>1787.80</ele>
	<time>2023-10-07T09:46:33.000Z</time>
</trkpt>
<trkpt lat="45.9407910" lon="9.5457230">
	<ele>1787.80</ele>
	<time>2023-10-07T09:46:34.000Z</time>
</trkpt>
<trkpt lat="45.9407900" lon="9.5457110">
	<ele>1787.40</ele>
	<time>2023-10-07T09:46:35.000Z</time>
</trkpt>
<trkpt lat="45.9407920" lon="9.5457020">
	<ele>1787.20</ele>
	<time>2023-10-07T09:46:36.000Z</time>
</trkpt>
<trkpt lat="45.9407930" lon="9.5456970">
	<ele>1787.00</ele>
	<time>2023-10-07T09:46:37.000Z</time>
</trkpt>
<trkpt lat="45.9407960" lon="9.5456930">
	<ele>1787.00</ele>
	<time>2023-10-07T09:46:38.000Z</time>
</trkpt>
<trkpt lat="45.9408010" lon="9.5456850">
	<ele>1786.60</ele>
	<time>2023-10-07T09:46:39.000Z</time>
</trkpt>
<trkpt lat="45.9408050" lon="9.5456770">
	<ele>1786.40</ele>
	<time>2023-10-07T09:46:40.000Z</time>
</trkpt>
<trkpt lat="45.9408090" lon="9.5456660">
	<ele>1786.20</ele>
	<time>2023-10-07T09:46:41.000Z</time>
</trkpt>
<trkpt lat="45.9408130" lon="9.5456530">
	<ele>1786.00</ele>
	<time>2023-10-07T09:46:42.000Z</time>
</trkpt>
<trkpt lat="45.9408160" lon="9.5456440">
	<ele>1785.80</ele>
	<time>2023-10-07T09:46:43.000Z</time>
</trkpt>
<trkpt lat="45.9408160" lon="9.5456370">
	<ele>1785.60</ele>
	<time>2023-10-07T09:46:44.000Z</time>
</trkpt>
<trkpt lat="45.9408160" lon="9.5456290">
	<ele>1785.40</ele>
	<time>2023-10-07T09:46:45.000Z</time>
</trkpt>
<trkpt lat="45.9408160" lon="9.5456190">
	<ele>1785.20</ele>
	<time>2023-10-07T09:46:46.000Z</time>
</trkpt>
<trkpt lat="45.9408160" lon="9.5456080">
	<ele>1785.20</ele>
	<time>2023-10-07T09:46:47.000Z</time>
</trkpt>
<trkpt lat="45.9408170" lon="9.5455950">
	<ele>1785.00</ele>
	<time>2023-10-07T09:46:48.000Z</time>
</trkpt>
<trkpt lat="45.9408190" lon="9.5455810">
	<ele>1784.80</ele>
	<time>2023-10-07T09:46:49.000Z</time>
</trkpt>
<trkpt lat="45.9408200" lon="9.5455660">
	<ele>1784.80</ele>
	<time>2023-10-07T09:46:50.000Z</time>
</trkpt>
<trkpt lat="45.9408240" lon="9.5455510">
	<ele>1784.40</ele>
	<time>2023-10-07T09:46:51.000Z</time>
</trkpt>
<trkpt lat="45.9408290" lon="9.5455380">
	<ele>1784.20</ele>
	<time>2023-10-07T09:46:52.000Z</time>
</trkpt>
<trkpt lat="45.9408330" lon="9.5455240">
	<ele>1784.20</ele>
	<time>2023-10-07T09:46:53.000Z</time>
</trkpt>
<trkpt lat="45.9408340" lon="9.5455150">
	<ele>1784.00</ele>
	<time>2023-10-07T09:46:54.000Z</time>
</trkpt>
<trkpt lat="45.9408370" lon="9.5455050">
	<ele>1784.00</ele>
	<time>2023-10-07T09:46:55.000Z</time>
</trkpt>
<trkpt lat="45.9408390" lon="9.5454960">
	<ele>1783.80</ele>
	<time>2023-10-07T09:46:56.000Z</time>
</trkpt>
<trkpt lat="45.9408410" lon="9.5454880">
	<ele>1783.60</ele>
	<time>2023-10-07T09:46:57.000Z</time>
</trkpt>
<trkpt lat="45.9408440" lon="9.5454810">
	<ele>1783.40</ele>
	<time>2023-10-07T09:46:58.000Z</time>
</trkpt>
<trkpt lat="45.9408490" lon="9.5454760">
	<ele>1783.20</ele>
	<time>2023-10-07T09:46:59.000Z</time>
</trkpt>
<trkpt lat="45.9408530" lon="9.5454730">
	<ele>1783.00</ele>
	<time>2023-10-07T09:47:00.000Z</time>
</trkpt>
<trkpt lat="45.9408570" lon="9.5454720">
	<ele>1783.00</ele>
	<time>2023-10-07T09:47:01.000Z</time>
</trkpt>
<trkpt lat="45.9408600" lon="9.5454700">
	<ele>1782.60</ele>
	<time>2023-10-07T09:47:02.000Z</time>
</trkpt>
<trkpt lat="45.9408640" lon="9.5454650">
	<ele>1782.60</ele>
	<time>2023-10-07T09:47:03.000Z</time>
</trkpt>
<trkpt lat="45.9408680" lon="9.5454590">
	<ele>1782.40</ele>
	<time>2023-10-07T09:47:04.000Z</time>
</trkpt>
<trkpt lat="45.9408720" lon="9.5454480">
	<ele>1782.00</ele>
	<time>2023-10-07T09:47:05.000Z</time>
</trkpt>
<trkpt lat="45.9408750" lon="9.5454420">
	<ele>1781.80</ele>
	<time>2023-10-07T09:47:06.000Z</time>
</trkpt>
<trkpt lat="45.9408770" lon="9.5454320">
	<ele>1781.60</ele>
	<time>2023-10-07T09:47:07.000Z</time>
</trkpt>
<trkpt lat="45.9408780" lon="9.5454250">
	<ele>1781.40</ele>
	<time>2023-10-07T09:47:08.000Z</time>
</trkpt>
<trkpt lat="45.9408780" lon="9.5454190">
	<ele>1781.20</ele>
	<time>2023-10-07T09:47:09.000Z</time>
</trkpt>
<trkpt lat="45.9408760" lon="9.5454130">
	<ele>1781.00</ele>
	<time>2023-10-07T09:47:10.000Z</time>
</trkpt>
<trkpt lat="45.9408740" lon="9.5454050">
	<ele>1781.00</ele>
	<time>2023-10-07T09:47:11.000Z</time>
</trkpt>
<trkpt lat="45.9408790" lon="9.5453950">
	<ele>1780.80</ele>
	<time>2023-10-07T09:47:12.000Z</time>
</trkpt>
<trkpt lat="45.9408790" lon="9.5453900">
	<ele>1780.60</ele>
	<time>2023-10-07T09:47:13.000Z</time>
</trkpt>
<trkpt lat="45.9408820" lon="9.5453830">
	<ele>1780.20</ele>
	<time>2023-10-07T09:47:14.000Z</time>
</trkpt>
<trkpt lat="45.9408860" lon="9.5453780">
	<ele>1780.00</ele>
	<time>2023-10-07T09:47:15.000Z</time>
</trkpt>
<trkpt lat="45.9408890" lon="9.5453720">
	<ele>1779.60</ele>
	<time>2023-10-07T09:47:16.000Z</time>
</trkpt>
<trkpt lat="45.9408910" lon="9.5453670">
	<ele>1779.40</ele>
	<time>2023-10-07T09:47:17.000Z</time>
</trkpt>
<trkpt lat="45.9408930" lon="9.5453600">
	<ele>1779.20</ele>
	<time>2023-10-07T09:47:18.000Z</time>
</trkpt>
<trkpt lat="45.9408990" lon="9.5453520">
	<ele>1779.00</ele>
	<time>2023-10-07T09:47:19.000Z</time>
</trkpt>
<trkpt lat="45.9409050" lon="9.5453420">
	<ele>1778.80</ele>
	<time>2023-10-07T09:47:20.000Z</time>
</trkpt>
<trkpt lat="45.9409090" lon="9.5453360">
	<ele>1778.80</ele>
	<time>2023-10-07T09:47:21.000Z</time>
</trkpt>
<trkpt lat="45.9409130" lon="9.5453270">
	<ele>1778.40</ele>
	<time>2023-10-07T09:47:22.000Z</time>
</trkpt>
<trkpt lat="45.9409180" lon="9.5453180">
	<ele>1778.20</ele>
	<time>2023-10-07T09:47:23.000Z</time>
</trkpt>
<trkpt lat="45.9409230" lon="9.5453120">
	<ele>1778.00</ele>
	<time>2023-10-07T09:47:24.000Z</time>
</trkpt>
<trkpt lat="45.9409270" lon="9.5453070">
	<ele>1777.80</ele>
	<time>2023-10-07T09:47:25.000Z</time>
</trkpt>
<trkpt lat="45.9409310" lon="9.5453030">
	<ele>1777.60</ele>
	<time>2023-10-07T09:47:26.000Z</time>
</trkpt>
<trkpt lat="45.9409380" lon="9.5452990">
	<ele>1777.40</ele>
	<time>2023-10-07T09:47:27.000Z</time>
</trkpt>
<trkpt lat="45.9409410" lon="9.5452940">
	<ele>1777.20</ele>
	<time>2023-10-07T09:47:28.000Z</time>
</trkpt>
<trkpt lat="45.9409400" lon="9.5452880">
	<ele>1777.00</ele>
	<time>2023-10-07T09:47:29.000Z</time>
</trkpt>
<trkpt lat="45.9409390" lon="9.5452780">
	<ele>1777.00</ele>
	<time>2023-10-07T09:47:30.000Z</time>
</trkpt>
<trkpt lat="45.9409410" lon="9.5452680">
	<ele>1776.80</ele>
	<time>2023-10-07T09:47:31.000Z</time>
</trkpt>
<trkpt lat="45.9409430" lon="9.5452600">
	<ele>1776.80</ele>
	<time>2023-10-07T09:47:32.000Z</time>
</trkpt>
<trkpt lat="45.9409430" lon="9.5452510">
	<ele>1776.60</ele>
	<time>2023-10-07T09:47:33.000Z</time>
</trkpt>
<trkpt lat="45.9409420" lon="9.5452410">
	<ele>1776.20</ele>
	<time>2023-10-07T09:47:34.000Z</time>
</trkpt>
<trkpt lat="45.9409420" lon="9.5452280">
	<ele>1775.80</ele>
	<time>2023-10-07T09:47:35.000Z</time>
</trkpt>
<trkpt lat="45.9409430" lon="9.5452180">
	<ele>1775.60</ele>
	<time>2023-10-07T09:47:36.000Z</time>
</trkpt>
<trkpt lat="45.9409460" lon="9.5452070">
	<ele>1775.40</ele>
	<time>2023-10-07T09:47:37.000Z</time>
</trkpt>
<trkpt lat="45.9409510" lon="9.5452000">
	<ele>1775.40</ele>
	<time>2023-10-07T09:47:38.000Z</time>
</trkpt>
<trkpt lat="45.9409550" lon="9.5451940">
	<ele>1775.20</ele>
	<time>2023-10-07T09:47:39.000Z</time>
</trkpt>
<trkpt lat="45.9409610" lon="9.5451900">
	<ele>1775.20</ele>
	<time>2023-10-07T09:47:40.000Z</time>
</trkpt>
<trkpt lat="45.9409690" lon="9.5451870">
	<ele>1775.00</ele>
	<time>2023-10-07T09:47:41.000Z</time>
</trkpt>
<trkpt lat="45.9409720" lon="9.5451820">
	<ele>1774.80</ele>
	<time>2023-10-07T09:47:42.000Z</time>
</trkpt>
<trkpt lat="45.9409740" lon="9.5451720">
	<ele>1774.80</ele>
	<time>2023-10-07T09:47:43.000Z</time>
</trkpt>
<trkpt lat="45.9409790" lon="9.5451640">
	<ele>1774.40</ele>
	<time>2023-10-07T09:47:44.000Z</time>
</trkpt>
<trkpt lat="45.9409820" lon="9.5451520">
	<ele>1774.20</ele>
	<time>2023-10-07T09:47:45.000Z</time>
</trkpt>
<trkpt lat="45.9409840" lon="9.5451410">
	<ele>1774.00</ele>
	<time>2023-10-07T09:47:46.000Z</time>
</trkpt>
<trkpt lat="45.9409890" lon="9.5451360">
	<ele>1773.60</ele>
	<time>2023-10-07T09:47:47.000Z</time>
</trkpt>
<trkpt lat="45.9409950" lon="9.5451340">
	<ele>1773.60</ele>
	<time>2023-10-07T09:47:48.000Z</time>
</trkpt>
<trkpt lat="45.9409990" lon="9.5451320">
	<ele>1773.40</ele>
	<time>2023-10-07T09:47:49.000Z</time>
</trkpt>
<trkpt lat="45.9410050" lon="9.5451300">
	<ele>1773.20</ele>
	<time>2023-10-07T09:47:50.000Z</time>
</trkpt>
<trkpt lat="45.9410090" lon="9.5451310">
	<ele>1773.00</ele>
	<time>2023-10-07T09:47:51.000Z</time>
</trkpt>
<trkpt lat="45.9410130" lon="9.5451310">
	<ele>1772.60</ele>
	<time>2023-10-07T09:47:52.000Z</time>
</trkpt>
<trkpt lat="45.9410190" lon="9.5451280">
	<ele>1772.60</ele>
	<time>2023-10-07T09:47:53.000Z</time>
</trkpt>
<trkpt lat="45.9410210" lon="9.5451220">
	<ele>1772.40</ele>
	<time>2023-10-07T09:47:54.000Z</time>
</trkpt>
<trkpt lat="45.9410230" lon="9.5451170">
	<ele>1772.20</ele>
	<time>2023-10-07T09:47:55.000Z</time>
</trkpt>
<trkpt lat="45.9410250" lon="9.5451100">
	<ele>1772.00</ele>
	<time>2023-10-07T09:47:56.000Z</time>
</trkpt>
<trkpt lat="45.9410260" lon="9.5451030">
	<ele>1771.80</ele>
	<time>2023-10-07T09:47:57.000Z</time>
</trkpt>
<trkpt lat="45.9410260" lon="9.5450960">
	<ele>1771.60</ele>
	<time>2023-10-07T09:47:58.000Z</time>
</trkpt>
<trkpt lat="45.9410250" lon="9.5450870">
	<ele>1771.40</ele>
	<time>2023-10-07T09:47:59.000Z</time>
</trkpt>
<trkpt lat="45.9410250" lon="9.5450770">
	<ele>1771.00</ele>
	<time>2023-10-07T09:48:00.000Z</time>
</trkpt>
<trkpt lat="45.9410270" lon="9.5450700">
	<ele>1771.00</ele>
	<time>2023-10-07T09:48:01.000Z</time>
</trkpt>
<trkpt lat="45.9410280" lon="9.5450650">
	<ele>1770.80</ele>
	<time>2023-10-07T09:48:02.000Z</time>
</trkpt>
<trkpt lat="45.9410300" lon="9.5450550">
	<ele>1770.60</ele>
	<time>2023-10-07T09:48:03.000Z</time>
</trkpt>
<trkpt lat="45.9410310" lon="9.5450450">
	<ele>1770.40</ele>
	<time>2023-10-07T09:48:04.000Z</time>
</trkpt>
<trkpt lat="45.9410350" lon="9.5450370">
	<ele>1770.40</ele>
	<time>2023-10-07T09:48:05.000Z</time>
</trkpt>
<trkpt lat="45.9410400" lon="9.5450340">
	<ele>1770.20</ele>
	<time>2023-10-07T09:48:06.000Z</time>
</trkpt>
<trkpt lat="45.9410440" lon="9.5450340">
	<ele>1769.80</ele>
	<time>2023-10-07T09:48:07.000Z</time>
</trkpt>
<trkpt lat="45.9410480" lon="9.5450330">
	<ele>1769.60</ele>
	<time>2023-10-07T09:48:08.000Z</time>
</trkpt>
<trkpt lat="45.9410510" lon="9.5450300">
	<ele>1769.60</ele>
	<time>2023-10-07T09:48:09.000Z</time>
</trkpt>
<trkpt lat="45.9410520" lon="9.5450270">
	<ele>1769.40</ele>
	<time>2023-10-07T09:48:10.000Z</time>
</trkpt>
<trkpt lat="45.9410530" lon="9.5450190">
	<ele>1769.20</ele>
	<time>2023-10-07T09:48:11.000Z</time>
</trkpt>
<trkpt lat="45.9410560" lon="9.5450120">
	<ele>1769.00</ele>
	<time>2023-10-07T09:48:12.000Z</time>
</trkpt>
<trkpt lat="45.9410590" lon="9.5450050">
	<ele>1768.80</ele>
	<time>2023-10-07T09:48:13.000Z</time>
</trkpt>
<trkpt lat="45.9410600" lon="9.5450040">
	<ele>1768.80</ele>
	<time>2023-10-07T09:48:14.000Z</time>
</trkpt>
<trkpt lat="45.9410620" lon="9.5450070">
	<ele>1768.60</ele>
	<time>2023-10-07T09:48:15.000Z</time>
</trkpt>
<trkpt lat="45.9410660" lon="9.5450150">
	<ele>1768.40</ele>
	<time>2023-10-07T09:48:16.000Z</time>
</trkpt>
<trkpt lat="45.9410710" lon="9.5450190">
	<ele>1768.20</ele>
	<time>2023-10-07T09:48:17.000Z</time>
</trkpt>
<trkpt lat="45.9410780" lon="9.5450210">
	<ele>1768.20</ele>
	<time>2023-10-07T09:48:18.000Z</time>
</trkpt>
<trkpt lat="45.9410820" lon="9.5450190">
	<ele>1768.00</ele>
	<time>2023-10-07T09:48:19.000Z</time>
</trkpt>
<trkpt lat="45.9410820" lon="9.5450150">
	<ele>1768.00</ele>
	<time>2023-10-07T09:48:20.000Z</time>
</trkpt>
<trkpt lat="45.9410830" lon="9.5450090">
	<ele>1767.80</ele>
	<time>2023-10-07T09:48:21.000Z</time>
</trkpt>
<trkpt lat="45.9410850" lon="9.5449980">
	<ele>1767.40</ele>
	<time>2023-10-07T09:48:22.000Z</time>
</trkpt>
<trkpt lat="45.9410890" lon="9.5449900">
	<ele>1767.20</ele>
	<time>2023-10-07T09:48:23.000Z</time>
</trkpt>
<trkpt lat="45.9410960" lon="9.5449890">
	<ele>1767.00</ele>
	<time>2023-10-07T09:48:24.000Z</time>
</trkpt>
<trkpt lat="45.9411020" lon="9.5449920">
	<ele>1767.00</ele>
	<time>2023-10-07T09:48:25.000Z</time>
</trkpt>
<trkpt lat="45.9411080" lon="9.5449930">
	<ele>1766.60</ele>
	<time>2023-10-07T09:48:26.000Z</time>
</trkpt>
<trkpt lat="45.9411140" lon="9.5449890">
	<ele>1766.40</ele>
	<time>2023-10-07T09:48:27.000Z</time>
</trkpt>
<trkpt lat="45.9411160" lon="9.5449830">
	<ele>1766.40</ele>
	<time>2023-10-07T09:48:28.000Z</time>
</trkpt>
<trkpt lat="45.9411150" lon="9.5449750">
	<ele>1766.20</ele>
	<time>2023-10-07T09:48:29.000Z</time>
</trkpt>
<trkpt lat="45.9411130" lon="9.5449650">
	<ele>1766.00</ele>
	<time>2023-10-07T09:48:30.000Z</time>
</trkpt>
<trkpt lat="45.9411130" lon="9.5449540">
	<ele>1766.00</ele>
	<time>2023-10-07T09:48:31.000Z</time>
</trkpt>
<trkpt lat="45.9411150" lon="9.5449470">
	<ele>1765.60</ele>
	<time>2023-10-07T09:48:32.000Z</time>
</trkpt>
<trkpt lat="45.9411170" lon="9.5449430">
	<ele>1765.40</ele>
	<time>2023-10-07T09:48:33.000Z</time>
</trkpt>
<trkpt lat="45.9411210" lon="9.5449430">
	<ele>1765.20</ele>
	<time>2023-10-07T09:48:34.000Z</time>
</trkpt>
<trkpt lat="45.9411270" lon="9.5449460">
	<ele>1765.00</ele>
	<time>2023-10-07T09:48:35.000Z</time>
</trkpt>
<trkpt lat="45.9411330" lon="9.5449510">
	<ele>1764.80</ele>
	<time>2023-10-07T09:48:36.000Z</time>
</trkpt>
<trkpt lat="45.9411360" lon="9.5449580">
	<ele>1764.80</ele>
	<time>2023-10-07T09:48:37.000Z</time>
</trkpt>
<trkpt lat="45.9411400" lon="9.5449610">
	<ele>1764.60</ele>
	<time>2023-10-07T09:48:38.000Z</time>
</trkpt>
<trkpt lat="45.9411460" lon="9.5449600">
	<ele>1764.40</ele>
	<time>2023-10-07T09:48:39.000Z</time>
</trkpt>
<trkpt lat="45.9411490" lon="9.5449550">
	<ele>1764.20</ele>
	<time>2023-10-07T09:48:40.000Z</time>
</trkpt>
<trkpt lat="45.9411510" lon="9.5449490">
	<ele>1764.00</ele>
	<time>2023-10-07T09:48:41.000Z</time>
</trkpt>
<trkpt lat="45.9411520" lon="9.5449410">
	<ele>1763.80</ele>
	<time>2023-10-07T09:48:42.000Z</time>
</trkpt>
<trkpt lat="45.9411520" lon="9.5449310">
	<ele>1763.80</ele>
	<time>2023-10-07T09:48:43.000Z</time>
</trkpt>
<trkpt lat="45.9411550" lon="9.5449230">
	<ele>1763.40</ele>
	<time>2023-10-07T09:48:44.000Z</time>
</trkpt>
<trkpt lat="45.9411600" lon="9.5449150">
	<ele>1763.20</ele>
	<time>2023-10-07T09:48:45.000Z</time>
</trkpt>
<trkpt lat="45.9411660" lon="9.5449120">
	<ele>1763.00</ele>
	<time>2023-10-07T09:48:46.000Z</time>
</trkpt>
<trkpt lat="45.9411740" lon="9.5449070">
	<ele>1762.80</ele>
	<time>2023-10-07T09:48:47.000Z</time>
</trkpt>
<trkpt lat="45.9411830" lon="9.5449060">
	<ele>1762.60</ele>
	<time>2023-10-07T09:48:48.000Z</time>
</trkpt>
<trkpt lat="45.9411890" lon="9.5449050">
	<ele>1762.40</ele>
	<time>2023-10-07T09:48:49.000Z</time>
</trkpt>
<trkpt lat="45.9411940" lon="9.5449040">
	<ele>1762.20</ele>
	<time>2023-10-07T09:48:50.000Z</time>
</trkpt>
<trkpt lat="45.9411980" lon="9.5449010">
	<ele>1762.00</ele>
	<time>2023-10-07T09:48:51.000Z</time>
</trkpt>
<trkpt lat="45.9412010" lon="9.5448960">
	<ele>1761.80</ele>
	<time>2023-10-07T09:48:52.000Z</time>
</trkpt>
<trkpt lat="45.9412020" lon="9.5448870">
	<ele>1761.60</ele>
	<time>2023-10-07T09:48:53.000Z</time>
</trkpt>
<trkpt lat="45.9412020" lon="9.5448770">
	<ele>1761.60</ele>
	<time>2023-10-07T09:48:54.000Z</time>
</trkpt>
<trkpt lat="45.9412010" lon="9.5448680">
	<ele>1761.40</ele>
	<time>2023-10-07T09:48:55.000Z</time>
</trkpt>
<trkpt lat="45.9412010" lon="9.5448570">
	<ele>1761.40</ele>
	<time>2023-10-07T09:48:56.000Z</time>
</trkpt>
<trkpt lat="45.9412030" lon="9.5448490">
	<ele>1761.20</ele>
	<time>2023-10-07T09:48:57.000Z</time>
</trkpt>
<trkpt lat="45.9412100" lon="9.5448410">
	<ele>1761.00</ele>
	<time>2023-10-07T09:48:58.000Z</time>
</trkpt>
<trkpt lat="45.9412150" lon="9.5448380">
	<ele>1760.80</ele>
	<time>2023-10-07T09:48:59.000Z</time>
</trkpt>
<trkpt lat="45.9412210" lon="9.5448300">
	<ele>1760.80</ele>
	<time>2023-10-07T09:49:00.000Z</time>
</trkpt>
<trkpt lat="45.9412300" lon="9.5448230">
	<ele>1760.60</ele>
	<time>2023-10-07T09:49:01.000Z</time>
</trkpt>
<trkpt lat="45.9412380" lon="9.5448240">
	<ele>1760.40</ele>
	<time>2023-10-07T09:49:02.000Z</time>
</trkpt>
<trkpt lat="45.9412470" lon="9.5448270">
	<ele>1760.20</ele>
	<time>2023-10-07T09:49:03.000Z</time>
</trkpt>
<trkpt lat="45.9412510" lon="9.5448340">
	<ele>1759.80</ele>
	<time>2023-10-07T09:49:04.000Z</time>
</trkpt>
<trkpt lat="45.9412530" lon="9.5448420">
	<ele>1759.60</ele>
	<time>2023-10-07T09:49:05.000Z</time>
</trkpt>
<trkpt lat="45.9412560" lon="9.5448490">
	<ele>1759.60</ele>
	<time>2023-10-07T09:49:06.000Z</time>
</trkpt>
<trkpt lat="45.9412590" lon="9.5448520">
	<ele>1759.40</ele>
	<time>2023-10-07T09:49:07.000Z</time>
</trkpt>
<trkpt lat="45.9412620" lon="9.5448510">
	<ele>1759.40</ele>
	<time>2023-10-07T09:49:08.000Z</time>
</trkpt>
<trkpt lat="45.9412660" lon="9.5448430">
	<ele>1759.40</ele>
	<time>2023-10-07T09:49:09.000Z</time>
</trkpt>
<trkpt lat="45.9412700" lon="9.5448310">
	<ele>1759.20</ele>
	<time>2023-10-07T09:49:10.000Z</time>
</trkpt>
<trkpt lat="45.9412700" lon="9.5448210">
	<ele>1759.20</ele>
	<time>2023-10-07T09:49:11.000Z</time>
</trkpt>
<trkpt lat="45.9412670" lon="9.5448110">
	<ele>1759.20</ele>
	<time>2023-10-07T09:49:12.000Z</time>
</trkpt>
<trkpt lat="45.9412640" lon="9.5448000">
	<ele>1759.20</ele>
	<time>2023-10-07T09:49:13.000Z</time>
</trkpt>
<trkpt lat="45.9412610" lon="9.5447950">
	<ele>1759.00</ele>
	<time>2023-10-07T09:49:14.000Z</time>
</trkpt>
<trkpt lat="45.9412590" lon="9.5447860">
	<ele>1758.80</ele>
	<time>2023-10-07T09:49:15.000Z</time>
</trkpt>
<trkpt lat="45.9412580" lon="9.5447780">
	<ele>1758.60</ele>
	<time>2023-10-07T09:49:16.000Z</time>
</trkpt>
<trkpt lat="45.9412570" lon="9.5447700">
	<ele>1758.40</ele>
	<time>2023-10-07T09:49:17.000Z</time>
</trkpt>
<trkpt lat="45.9412570" lon="9.5447620">
	<ele>1758.20</ele>
	<time>2023-10-07T09:49:18.000Z</time>
</trkpt>
<trkpt lat="45.9412560" lon="9.5447510">
	<ele>1758.00</ele>
	<time>2023-10-07T09:49:19.000Z</time>
</trkpt>
<trkpt lat="45.9412560" lon="9.5447420">
	<ele>1757.80</ele>
	<time>2023-10-07T09:49:20.000Z</time>
</trkpt>
<trkpt lat="45.9412570" lon="9.5447350">
	<ele>1757.40</ele>
	<time>2023-10-07T09:49:21.000Z</time>
</trkpt>
<trkpt lat="45.9412630" lon="9.5447290">
	<ele>1757.20</ele>
	<time>2023-10-07T09:49:22.000Z</time>
</trkpt>
<trkpt lat="45.9412700" lon="9.5447250">
	<ele>1757.00</ele>
	<time>2023-10-07T09:49:23.000Z</time>
</trkpt>
<trkpt lat="45.9412750" lon="9.5447190">
	<ele>1756.80</ele>
	<time>2023-10-07T09:49:24.000Z</time>
</trkpt>
<trkpt lat="45.9412790" lon="9.5447160">
	<ele>1756.80</ele>
	<time>2023-10-07T09:49:25.000Z</time>
</trkpt>
<trkpt lat="45.9412870" lon="9.5447160">
	<ele>1756.40</ele>
	<time>2023-10-07T09:49:26.000Z</time>
</trkpt>
<trkpt lat="45.9412940" lon="9.5447180">
	<ele>1756.20</ele>
	<time>2023-10-07T09:49:27.000Z</time>
</trkpt>
<trkpt lat="45.9413010" lon="9.5447190">
	<ele>1756.20</ele>
	<time>2023-10-07T09:49:28.000Z</time>
</trkpt>
<trkpt lat="45.9413070" lon="9.5447220">
	<ele>1756.00</ele>
	<time>2023-10-07T09:49:29.000Z</time>
</trkpt>
<trkpt lat="45.9413100" lon="9.5447250">
	<ele>1755.80</ele>
	<time>2023-10-07T09:49:30.000Z</time>
</trkpt>
<trkpt lat="45.9413120" lon="9.5447230">
	<ele>1755.80</ele>
	<time>2023-10-07T09:49:31.000Z</time>
</trkpt>
<trkpt lat="45.9413130" lon="9.5447190">
	<ele>1755.40</ele>
	<time>2023-10-07T09:49:32.000Z</time>
</trkpt>
<trkpt lat="45.9413130" lon="9.5447100">
	<ele>1755.20</ele>
	<time>2023-10-07T09:49:33.000Z</time>
</trkpt>
<trkpt lat="45.9413130" lon="9.5446970">
	<ele>1755.00</ele>
	<time>2023-10-07T09:49:34.000Z</time>
</trkpt>
<trkpt lat="45.9413150" lon="9.5446890">
	<ele>1755.00</ele>
	<time>2023-10-07T09:49:35.000Z</time>
</trkpt>
<trkpt lat="45.9413150" lon="9.5446820">
	<ele>1755.00</ele>
	<time>2023-10-07T09:49:36.000Z</time>
</trkpt>
<trkpt lat="45.9413160" lon="9.5446720">
	<ele>1755.00</ele>
	<time>2023-10-07T09:49:37.000Z</time>
</trkpt>
<trkpt lat="45.9413210" lon="9.5446670">
	<ele>1754.80</ele>
	<time>2023-10-07T09:49:38.000Z</time>
</trkpt>
<trkpt lat="45.9413280" lon="9.5446680">
	<ele>1754.60</ele>
	<time>2023-10-07T09:49:39.000Z</time>
</trkpt>
<trkpt lat="45.9413350" lon="9.5446710">
	<ele>1754.60</ele>
	<time>2023-10-07T09:49:40.000Z</time>
</trkpt>
<trkpt lat="45.9413410" lon="9.5446750">
	<ele>1754.40</ele>
	<time>2023-10-07T09:49:41.000Z</time>
</trkpt>
<trkpt lat="45.9413450" lon="9.5446780">
	<ele>1754.20</ele>
	<time>2023-10-07T09:49:42.000Z</time>
</trkpt>
<trkpt lat="45.9413500" lon="9.5446790">
	<ele>1754.00</ele>
	<time>2023-10-07T09:49:43.000Z</time>
</trkpt>
<trkpt lat="45.9413530" lon="9.5446770">
	<ele>1753.80</ele>
	<time>2023-10-07T09:49:44.000Z</time>
</trkpt>
<trkpt lat="45.9413560" lon="9.5446720">
	<ele>1753.80</ele>
	<time>2023-10-07T09:49:45.000Z</time>
</trkpt>
<trkpt lat="45.9413570" lon="9.5446650">
	<ele>1753.60</ele>
	<time>2023-10-07T09:49:46.000Z</time>
</trkpt>
<trkpt lat="45.9413580" lon="9.5446560">
	<ele>1753.60</ele>
	<time>2023-10-07T09:49:47.000Z</time>
</trkpt>
<trkpt lat="45.9413570" lon="9.5446450">
	<ele>1753.40</ele>
	<time>2023-10-07T09:49:48.000Z</time>
</trkpt>
<trkpt lat="45.9413590" lon="9.5446370">
	<ele>1753.20</ele>
	<time>2023-10-07T09:49:49.000Z</time>
</trkpt>
<trkpt lat="45.9413610" lon="9.5446310">
	<ele>1753.00</ele>
	<time>2023-10-07T09:49:50.000Z</time>
</trkpt>
<trkpt lat="45.9413600" lon="9.5446260">
	<ele>1752.80</ele>
	<time>2023-10-07T09:49:51.000Z</time>
</trkpt>
<trkpt lat="45.9413560" lon="9.5446200">
	<ele>1752.60</ele>
	<time>2023-10-07T09:49:52.000Z</time>
</trkpt>
<trkpt lat="45.9413530" lon="9.5446090">
	<ele>1752.40</ele>
	<time>2023-10-07T09:49:53.000Z</time>
</trkpt>
<trkpt lat="45.9413530" lon="9.5445990">
	<ele>1752.20</ele>
	<time>2023-10-07T09:49:54.000Z</time>
</trkpt>
<trkpt lat="45.9413530" lon="9.5445880">
	<ele>1752.00</ele>
	<time>2023-10-07T09:49:55.000Z</time>
</trkpt>
<trkpt lat="45.9413560" lon="9.5445770">
	<ele>1752.00</ele>
	<time>2023-10-07T09:49:56.000Z</time>
</trkpt>
<trkpt lat="45.9413580" lon="9.5445640">
	<ele>1751.80</ele>
	<time>2023-10-07T09:49:57.000Z</time>
</trkpt>
<trkpt lat="45.9413610" lon="9.5445510">
	<ele>1751.60</ele>
	<time>2023-10-07T09:49:58.000Z</time>
</trkpt>
<trkpt lat="45.9413640" lon="9.5445360">
	<ele>1751.40</ele>
	<time>2023-10-07T09:49:59.000Z</time>
</trkpt>
<trkpt lat="45.9413710" lon="9.5445280">
	<ele>1751.20</ele>
	<time>2023-10-07T09:50:00.000Z</time>
</trkpt>
<trkpt lat="45.9413780" lon="9.5445240">
	<ele>1751.00</ele>
	<time>2023-10-07T09:50:01.000Z</time>
</trkpt>
<trkpt lat="45.9413860" lon="9.5445250">
	<ele>1750.80</ele>
	<time>2023-10-07T09:50:02.000Z</time>
</trkpt>
<trkpt lat="45.9413940" lon="9.5445280">
	<ele>1750.60</ele>
	<time>2023-10-07T09:50:03.000Z</time>
</trkpt>
<trkpt lat="45.9414040" lon="9.5445300">
	<ele>1750.60</ele>
	<time>2023-10-07T09:50:04.000Z</time>
</trkpt>
<trkpt lat="45.9414130" lon="9.5445290">
	<ele>1750.40</ele>
	<time>2023-10-07T09:50:05.000Z</time>
</trkpt>
<trkpt lat="45.9414210" lon="9.5445270">
	<ele>1750.20</ele>
	<time>2023-10-07T09:50:06.000Z</time>
</trkpt>
<trkpt lat="45.9414290" lon="9.5445250">
	<ele>1750.00</ele>
	<time>2023-10-07T09:50:07.000Z</time>
</trkpt>
<trkpt lat="45.9414380" lon="9.5445210">
	<ele>1749.80</ele>
	<time>2023-10-07T09:50:08.000Z</time>
</trkpt>
<trkpt lat="45.9414510" lon="9.5445190">
	<ele>1749.60</ele>
	<time>2023-10-07T09:50:09.000Z</time>
</trkpt>
<trkpt lat="45.9414640" lon="9.5445190">
	<ele>1749.40</ele>
	<time>2023-10-07T09:50:10.000Z</time>
</trkpt>
<trkpt lat="45.9414760" lon="9.5445180">
	<ele>1749.20</ele>
	<time>2023-10-07T09:50:11.000Z</time>
</trkpt>
<trkpt lat="45.9414850" lon="9.5445150">
	<ele>1749.20</ele>
	<time>2023-10-07T09:50:12.000Z</time>
</trkpt>
<trkpt lat="45.9414930" lon="9.5445140">
	<ele>1749.00</ele>
	<time>2023-10-07T09:50:13.000Z</time>
</trkpt>
<trkpt lat="45.9415000" lon="9.5445170">
	<ele>1748.80</ele>
	<time>2023-10-07T09:50:14.000Z</time>
</trkpt>
<trkpt lat="45.9415080" lon="9.5445240">
	<ele>1748.40</ele>
	<time>2023-10-07T09:50:15.000Z</time>
</trkpt>
<trkpt lat="45.9415120" lon="9.5445320">
	<ele>1748.20</ele>
	<time>2023-10-07T09:50:16.000Z</time>
</trkpt>
<trkpt lat="45.9415130" lon="9.5445380">
	<ele>1748.20</ele>
	<time>2023-10-07T09:50:17.000Z</time>
</trkpt>
<trkpt lat="45.9415130" lon="9.5445410">
	<ele>1748.20</ele>
	<time>2023-10-07T09:50:18.000Z</time>
</trkpt>
<trkpt lat="45.9415130" lon="9.5445420">
	<ele>1748.40</ele>
	<time>2023-10-07T09:50:19.000Z</time>
</trkpt>
<trkpt lat="45.9415130" lon="9.5445420">
	<ele>1748.40</ele>
	<time>2023-10-07T09:50:20.000Z</time>
</trkpt>
<trkpt lat="45.9415140" lon="9.5445420">
	<ele>1748.60</ele>
	<time>2023-10-07T09:50:21.000Z</time>
</trkpt>
<trkpt lat="45.9415140" lon="9.5445430">
	<ele>1748.80</ele>
	<time>2023-10-07T09:50:22.000Z</time>
</trkpt>
<trkpt lat="45.9415140" lon="9.5445430">
	<ele>1748.80</ele>
	<time>2023-10-07T09:50:23.000Z</time>
</trkpt>
<trkpt lat="45.9415140" lon="9.5445420">
	<ele>1748.80</ele>
	<time>2023-10-07T09:50:24.000Z</time>
</trkpt>
<trkpt lat="45.9415120" lon="9.5445400">
	<ele>1748.80</ele>
	<time>2023-10-07T09:50:25.000Z</time>
</trkpt>
<trkpt lat="45.9415120" lon="9.5445380">
	<ele>1748.80</ele>
	<time>2023-10-07T09:50:26.000Z</time>
</trkpt>
<trkpt lat="45.9415140" lon="9.5445360">
	<ele>1748.60</ele>
	<time>2023-10-07T09:50:27.000Z</time>
</trkpt>
<trkpt lat="45.9415190" lon="9.5445350">
	<ele>1748.40</ele>
	<time>2023-10-07T09:50:28.000Z</time>
</trkpt>
<trkpt lat="45.9415230" lon="9.5445310">
	<ele>1748.20</ele>
	<time>2023-10-07T09:50:29.000Z</time>
</trkpt>
<trkpt lat="45.9415230" lon="9.5445290">
	<ele>1748.00</ele>
	<time>2023-10-07T09:50:30.000Z</time>
</trkpt>
<trkpt lat="45.9415250" lon="9.5445290">
	<ele>1748.00</ele>
	<time>2023-10-07T09:50:31.000Z</time>
</trkpt>
<trkpt lat="45.9415290" lon="9.5445280">
	<ele>1747.80</ele>
	<time>2023-10-07T09:50:32.000Z</time>
</trkpt>
<trkpt lat="45.9415330" lon="9.5445290">
	<ele>1747.80</ele>
	<time>2023-10-07T09:50:33.000Z</time>
</trkpt>
<trkpt lat="45.9415370" lon="9.5445300">
	<ele>1747.80</ele>
	<time>2023-10-07T09:50:34.000Z</time>
</trkpt>
<trkpt lat="45.9415400" lon="9.5445320">
	<ele>1747.80</ele>
	<time>2023-10-07T09:50:35.000Z</time>
</trkpt>
<trkpt lat="45.9415410" lon="9.5445300">
	<ele>1747.80</ele>
	<time>2023-10-07T09:50:36.000Z</time>
</trkpt>
<trkpt lat="45.9415440" lon="9.5445270">
	<ele>1747.60</ele>
	<time>2023-10-07T09:50:37.000Z</time>
</trkpt>
<trkpt lat="45.9415490" lon="9.5445250">
	<ele>1747.60</ele>
	<time>2023-10-07T09:50:38.000Z</time>
</trkpt>
<trkpt lat="45.9415530" lon="9.5445230">
	<ele>1747.40</ele>
	<time>2023-10-07T09:50:39.000Z</time>
</trkpt>
<trkpt lat="45.9415570" lon="9.5445210">
	<ele>1747.40</ele>
	<time>2023-10-07T09:50:40.000Z</time>
</trkpt>
<trkpt lat="45.9415600" lon="9.5445210">
	<ele>1747.20</ele>
	<time>2023-10-07T09:50:41.000Z</time>
</trkpt>
<trkpt lat="45.9415610" lon="9.5445210">
	<ele>1747.00</ele>
	<time>2023-10-07T09:50:42.000Z</time>
</trkpt>
<trkpt lat="45.9415620" lon="9.5445190">
	<ele>1747.00</ele>
	<time>2023-10-07T09:50:43.000Z</time>
</trkpt>
<trkpt lat="45.9415620" lon="9.5445130">
	<ele>1746.80</ele>
	<time>2023-10-07T09:50:44.000Z</time>
</trkpt>
<trkpt lat="45.9415610" lon="9.5445070">
	<ele>1746.80</ele>
	<time>2023-10-07T09:50:45.000Z</time>
</trkpt>
<trkpt lat="45.9415620" lon="9.5445050">
	<ele>1746.80</ele>
	<time>2023-10-07T09:50:46.000Z</time>
</trkpt>
<trkpt lat="45.9415630" lon="9.5445020">
	<ele>1746.60</ele>
	<time>2023-10-07T09:50:47.000Z</time>
</trkpt>
<trkpt lat="45.9415650" lon="9.5444970">
	<ele>1746.40</ele>
	<time>2023-10-07T09:50:48.000Z</time>
</trkpt>
<trkpt lat="45.9415670" lon="9.5444940">
	<ele>1746.40</ele>
	<time>2023-10-07T09:50:49.000Z</time>
</trkpt>
<trkpt lat="45.9415690" lon="9.5444920">
	<ele>1746.20</ele>
	<time>2023-10-07T09:50:50.000Z</time>
</trkpt>
<trkpt lat="45.9415690" lon="9.5444890">
	<ele>1746.00</ele>
	<time>2023-10-07T09:50:51.000Z</time>
</trkpt>
<trkpt lat="45.9415700" lon="9.5444810">
	<ele>1745.80</ele>
	<time>2023-10-07T09:50:52.000Z</time>
</trkpt>
<trkpt lat="45.9415700" lon="9.5444750">
	<ele>1745.60</ele>
	<time>2023-10-07T09:50:53.000Z</time>
</trkpt>
<trkpt lat="45.9415720" lon="9.5444700">
	<ele>1745.60</ele>
	<time>2023-10-07T09:50:54.000Z</time>
</trkpt>
<trkpt lat="45.9415740" lon="9.5444680">
	<ele>1745.40</ele>
	<time>2023-10-07T09:50:55.000Z</time>
</trkpt>
<trkpt lat="45.9415750" lon="9.5444710">
	<ele>1745.40</ele>
	<time>2023-10-07T09:50:56.000Z</time>
</trkpt>
<trkpt lat="45.9415770" lon="9.5444710">
	<ele>1745.20</ele>
	<time>2023-10-07T09:50:57.000Z</time>
</trkpt>
<trkpt lat="45.9415780" lon="9.5444710">
	<ele>1745.00</ele>
	<time>2023-10-07T09:50:58.000Z</time>
</trkpt>
<trkpt lat="45.9415790" lon="9.5444720">
	<ele>1744.80</ele>
	<time>2023-10-07T09:50:59.000Z</time>
</trkpt>
<trkpt lat="45.9415790" lon="9.5444710">
	<ele>1744.80</ele>
	<time>2023-10-07T09:51:00.000Z</time>
</trkpt>
<trkpt lat="45.9415790" lon="9.5444680">
	<ele>1744.60</ele>
	<time>2023-10-07T09:51:01.000Z</time>
</trkpt>
<trkpt lat="45.9415810" lon="9.5444640">
	<ele>1744.40</ele>
	<time>2023-10-07T09:51:02.000Z</time>
</trkpt>
<trkpt lat="45.9415800" lon="9.5444590">
	<ele>1744.40</ele>
	<time>2023-10-07T09:51:03.000Z</time>
</trkpt>
<trkpt lat="45.9415800" lon="9.5444580">
	<ele>1744.20</ele>
	<time>2023-10-07T09:51:04.000Z</time>
</trkpt>
<trkpt lat="45.9415810" lon="9.5444560">
	<ele>1744.00</ele>
	<time>2023-10-07T09:51:05.000Z</time>
</trkpt>
<trkpt lat="45.9415840" lon="9.5444560">
	<ele>1743.60</ele>
	<time>2023-10-07T09:51:06.000Z</time>
</trkpt>
<trkpt lat="45.9415860" lon="9.5444570">
	<ele>1743.60</ele>
	<time>2023-10-07T09:51:07.000Z</time>
</trkpt>
<trkpt lat="45.9415890" lon="9.5444590">
	<ele>1743.40</ele>
	<time>2023-10-07T09:51:08.000Z</time>
</trkpt>
<trkpt lat="45.9415900" lon="9.5444630">
	<ele>1743.40</ele>
	<time>2023-10-07T09:51:09.000Z</time>
</trkpt>
<trkpt lat="45.9415920" lon="9.5444640">
	<ele>1743.40</ele>
	<time>2023-10-07T09:51:10.000Z</time>
</trkpt>
<trkpt lat="45.9415920" lon="9.5444640">
	<ele>1743.40</ele>
	<time>2023-10-07T09:51:11.000Z</time>
</trkpt>
<trkpt lat="45.9415920" lon="9.5444640">
	<ele>1743.40</ele>
	<time>2023-10-07T09:51:12.000Z</time>
</trkpt>
<trkpt lat="45.9415920" lon="9.5444640">
	<ele>1743.20</ele>
	<time>2023-10-07T09:51:13.000Z</time>
</trkpt>
<trkpt lat="45.9415920" lon="9.5444640">
	<ele>1743.20</ele>
	<time>2023-10-07T09:51:14.000Z</time>
</trkpt>
<trkpt lat="45.9415920" lon="9.5444640">
	<ele>1743.20</ele>
	<time>2023-10-07T09:51:15.000Z</time>
</trkpt>
<trkpt lat="45.9415920" lon="9.5444640">
	<ele>1742.80</ele>
	<time>2023-10-07T09:51:16.000Z</time>
</trkpt>
<trkpt lat="45.9415920" lon="9.5444640">
	<ele>1742.60</ele>
	<time>2023-10-07T09:51:17.000Z</time>
</trkpt>
<trkpt lat="45.9415920" lon="9.5444640">
	<ele>1742.40</ele>
	<time>2023-10-07T09:51:18.000Z</time>
</trkpt>
<trkpt lat="45.9415920" lon="9.5444640">
	<ele>1742.40</ele>
	<time>2023-10-07T09:51:19.000Z</time>
</trkpt>
<trkpt lat="45.9415920" lon="9.5444630">
	<ele>1742.20</ele>
	<time>2023-10-07T09:51:20.000Z</time>
</trkpt>
<trkpt lat="45.9415920" lon="9.5444630">
	<ele>1742.00</ele>
	<time>2023-10-07T09:51:21.000Z</time>
</trkpt>
<trkpt lat="45.9415920" lon="9.5444590">
	<ele>1741.80</ele>
	<time>2023-10-07T09:51:22.000Z</time>
</trkpt>
<trkpt lat="45.9415910" lon="9.5444590">
	<ele>1741.60</ele>
	<time>2023-10-07T09:51:23.000Z</time>
</trkpt>
<trkpt lat="45.9415910" lon="9.5444580">
	<ele>1741.40</ele>
	<time>2023-10-07T09:51:24.000Z</time>
</trkpt>
<trkpt lat="45.9415910" lon="9.5444580">
	<ele>1741.20</ele>
	<time>2023-10-07T09:51:25.000Z</time>
</trkpt>
<trkpt lat="45.9415900" lon="9.5444570">
	<ele>1741.00</ele>
	<time>2023-10-07T09:51:26.000Z</time>
</trkpt>
<trkpt lat="45.9415900" lon="9.5444560">
	<ele>1740.80</ele>
	<time>2023-10-07T09:51:27.000Z</time>
</trkpt>
<trkpt lat="45.9415900" lon="9.5444560">
	<ele>1740.60</ele>
	<time>2023-10-07T09:51:28.000Z</time>
</trkpt>
<trkpt lat="45.9415900" lon="9.5444530">
	<ele>1740.40</ele>
	<time>2023-10-07T09:51:29.000Z</time>
</trkpt>
<trkpt lat="45.9415900" lon="9.5444450">
	<ele>1740.20</ele>
	<time>2023-10-07T09:51:30.000Z</time>
</trkpt>
<trkpt lat="45.9415900" lon="9.5444360">
	<ele>1740.00</ele>
	<time>2023-10-07T09:51:31.000Z</time>
</trkpt>
<trkpt lat="45.9415900" lon="9.5444290">
	<ele>1739.80</ele>
	<time>2023-10-07T09:51:32.000Z</time>
</trkpt>
<trkpt lat="45.9415900" lon="9.5444220">
	<ele>1739.60</ele>
	<time>2023-10-07T09:51:33.000Z</time>
</trkpt>
<trkpt lat="45.9415900" lon="9.5444170">
	<ele>1739.40</ele>
	<time>2023-10-07T09:51:34.000Z</time>
</trkpt>
<trkpt lat="45.9415910" lon="9.5444120">
	<ele>1739.20</ele>
	<time>2023-10-07T09:51:35.000Z</time>
</trkpt>
<trkpt lat="45.9415910" lon="9.5444080">
	<ele>1739.20</ele>
	<time>2023-10-07T09:51:36.000Z</time>
</trkpt>
<trkpt lat="45.9415910" lon="9.5444000">
	<ele>1739.00</ele>
	<time>2023-10-07T09:51:37.000Z</time>
</trkpt>
<trkpt lat="45.9415920" lon="9.5443910">
	<ele>1739.00</ele>
	<time>2023-10-07T09:51:38.000Z</time>
</trkpt>
<trkpt lat="45.9415920" lon="9.5443840">
	<ele>1738.80</ele>
	<time>2023-10-07T09:51:39.000Z</time>
</trkpt>
<trkpt lat="45.9415920" lon="9.5443760">
	<ele>1738.40</ele>
	<time>2023-10-07T09:51:40.000Z</time>
</trkpt>
<trkpt lat="45.9415920" lon="9.5443670">
	<ele>1738.20</ele>
	<time>2023-10-07T09:51:41.000Z</time>
</trkpt>
<trkpt lat="45.9415930" lon="9.5443640">
	<ele>1738.00</ele>
	<time>2023-10-07T09:51:42.000Z</time>
</trkpt>
<trkpt lat="45.9415930" lon="9.5443620">
	<ele>1737.80</ele>
	<time>2023-10-07T09:51:43.000Z</time>
</trkpt>
<trkpt lat="45.9415990" lon="9.5443600">
	<ele>1737.80</ele>
	<time>2023-10-07T09:51:44.000Z</time>
</trkpt>
<trkpt lat="45.9416040" lon="9.5443580">
	<ele>1737.60</ele>
	<time>2023-10-07T09:51:45.000Z</time>
</trkpt>
<trkpt lat="45.9416090" lon="9.5443570">
	<ele>1737.40</ele>
	<time>2023-10-07T09:51:46.000Z</time>
</trkpt>
<trkpt lat="45.9416160" lon="9.5443520">
	<ele>1737.20</ele>
	<time>2023-10-07T09:51:47.000Z</time>
</trkpt>
<trkpt lat="45.9416260" lon="9.5443340">
	<ele>1737.00</ele>
	<time>2023-10-07T09:51:48.000Z</time>
</trkpt>
<trkpt lat="45.9416380" lon="9.5443160">
	<ele>1737.00</ele>
	<time>2023-10-07T09:51:49.000Z</time>
</trkpt>
<trkpt lat="45.9416550" lon="9.5443020">
	<ele>1736.80</ele>
	<time>2023-10-07T09:51:50.000Z</time>
</trkpt>
<trkpt lat="45.9416700" lon="9.5442860">
	<ele>1736.60</ele>
	<time>2023-10-07T09:51:51.000Z</time>
</trkpt>
<trkpt lat="45.9416860" lon="9.5442700">
	<ele>1736.40</ele>
	<time>2023-10-07T09:51:52.000Z</time>
</trkpt>
<trkpt lat="45.9417010" lon="9.5442590">
	<ele>1736.20</ele>
	<time>2023-10-07T09:51:53.000Z</time>
</trkpt>
<trkpt lat="45.9417190" lon="9.5442510">
	<ele>1736.00</ele>
	<time>2023-10-07T09:51:54.000Z</time>
</trkpt>
<trkpt lat="45.9417360" lon="9.5442430">
	<ele>1735.60</ele>
	<time>2023-10-07T09:51:55.000Z</time>
</trkpt>
<trkpt lat="45.9417570" lon="9.5442370">
	<ele>1735.60</ele>
	<time>2023-10-07T09:51:56.000Z</time>
</trkpt>
<trkpt lat="45.9417750" lon="9.5442340">
	<ele>1735.40</ele>
	<time>2023-10-07T09:51:57.000Z</time>
</trkpt>
<trkpt lat="45.9417870" lon="9.5442280">
	<ele>1735.20</ele>
	<time>2023-10-07T09:51:58.000Z</time>
</trkpt>
<trkpt lat="45.9417960" lon="9.5442190">
	<ele>1735.20</ele>
	<time>2023-10-07T09:51:59.000Z</time>
</trkpt>
<trkpt lat="45.9418040" lon="9.5442080">
	<ele>1735.20</ele>
	<time>2023-10-07T09:52:00.000Z</time>
</trkpt>
<trkpt lat="45.9418120" lon="9.5441970">
	<ele>1735.20</ele>
	<time>2023-10-07T09:52:01.000Z</time>
</trkpt>
<trkpt lat="45.9418210" lon="9.5441870">
	<ele>1735.00</ele>
	<time>2023-10-07T09:52:02.000Z</time>
</trkpt>
<trkpt lat="45.9418300" lon="9.5441780">
	<ele>1735.00</ele>
	<time>2023-10-07T09:52:03.000Z</time>
</trkpt>
<trkpt lat="45.9418400" lon="9.5441700">
	<ele>1734.80</ele>
	<time>2023-10-07T09:52:04.000Z</time>
</trkpt>
<trkpt lat="45.9418500" lon="9.5441610">
	<ele>1734.60</ele>
	<time>2023-10-07T09:52:05.000Z</time>
</trkpt>
<trkpt lat="45.9418590" lon="9.5441550">
	<ele>1734.40</ele>
	<time>2023-10-07T09:52:06.000Z</time>
</trkpt>
<trkpt lat="45.9418680" lon="9.5441490">
	<ele>1734.40</ele>
	<time>2023-10-07T09:52:07.000Z</time>
</trkpt>
<trkpt lat="45.9418770" lon="9.5441360">
	<ele>1734.20</ele>
	<time>2023-10-07T09:52:08.000Z</time>
</trkpt>
<trkpt lat="45.9418830" lon="9.5441220">
	<ele>1734.00</ele>
	<time>2023-10-07T09:52:09.000Z</time>
</trkpt>
<trkpt lat="45.9418890" lon="9.5441110">
	<ele>1733.80</ele>
	<time>2023-10-07T09:52:10.000Z</time>
</trkpt>
<trkpt lat="45.9418940" lon="9.5440990">
	<ele>1733.80</ele>
	<time>2023-10-07T09:52:11.000Z</time>
</trkpt>
<trkpt lat="45.9418980" lon="9.5440860">
	<ele>1733.80</ele>
	<time>2023-10-07T09:52:12.000Z</time>
</trkpt>
<trkpt lat="45.9419010" lon="9.5440740">
	<ele>1733.80</ele>
	<time>2023-10-07T09:52:13.000Z</time>
</trkpt>
<trkpt lat="45.9419030" lon="9.5440640">
	<ele>1733.80</ele>
	<time>2023-10-07T09:52:14.000Z</time>
</trkpt>
<trkpt lat="45.9419080" lon="9.5440500">
	<ele>1733.80</ele>
	<time>2023-10-07T09:52:15.000Z</time>
</trkpt>
<trkpt lat="45.9419150" lon="9.5440400">
	<ele>1733.80</ele>
	<time>2023-10-07T09:52:16.000Z</time>
</trkpt>
<trkpt lat="45.9419260" lon="9.5440270">
	<ele>1733.60</ele>
	<time>2023-10-07T09:52:17.000Z</time>
</trkpt>
<trkpt lat="45.9419340" lon="9.5440140">
	<ele>1733.60</ele>
	<time>2023-10-07T09:52:18.000Z</time>
</trkpt>
<trkpt lat="45.9419400" lon="9.5440030">
	<ele>1733.60</ele>
	<time>2023-10-07T09:52:19.000Z</time>
</trkpt>
<trkpt lat="45.9419460" lon="9.5439890">
	<ele>1733.60</ele>
	<time>2023-10-07T09:52:20.000Z</time>
</trkpt>
<trkpt lat="45.9419530" lon="9.5439730">
	<ele>1733.40</ele>
	<time>2023-10-07T09:52:21.000Z</time>
</trkpt>
<trkpt lat="45.9419570" lon="9.5439640">
	<ele>1733.40</ele>
	<time>2023-10-07T09:52:22.000Z</time>
</trkpt>
<trkpt lat="45.9419580" lon="9.5439510">
	<ele>1733.40</ele>
	<time>2023-10-07T09:52:23.000Z</time>
</trkpt>
<trkpt lat="45.9419590" lon="9.5439360">
	<ele>1733.40</ele>
	<time>2023-10-07T09:52:24.000Z</time>
</trkpt>
<trkpt lat="45.9419590" lon="9.5439170">
	<ele>1733.40</ele>
	<time>2023-10-07T09:52:25.000Z</time>
</trkpt>
<trkpt lat="45.9419600" lon="9.5438930">
	<ele>1733.40</ele>
	<time>2023-10-07T09:52:26.000Z</time>
</trkpt>
<trkpt lat="45.9419600" lon="9.5438820">
	<ele>1733.40</ele>
	<time>2023-10-07T09:52:27.000Z</time>
</trkpt>
<trkpt lat="45.9419550" lon="9.5438660">
	<ele>1733.20</ele>
	<time>2023-10-07T09:52:28.000Z</time>
</trkpt>
<trkpt lat="45.9419520" lon="9.5438510">
	<ele>1733.20</ele>
	<time>2023-10-07T09:52:29.000Z</time>
</trkpt>
<trkpt lat="45.9419460" lon="9.5438360">
	<ele>1733.20</ele>
	<time>2023-10-07T09:52:30.000Z</time>
</trkpt>
<trkpt lat="45.9419400" lon="9.5438250">
	<ele>1733.20</ele>
	<time>2023-10-07T09:52:31.000Z</time>
</trkpt>
<trkpt lat="45.9419320" lon="9.5438130">
	<ele>1733.20</ele>
	<time>2023-10-07T09:52:32.000Z</time>
</trkpt>
<trkpt lat="45.9419290" lon="9.5437970">
	<ele>1733.20</ele>
	<time>2023-10-07T09:52:33.000Z</time>
</trkpt>
<trkpt lat="45.9419260" lon="9.5437830">
	<ele>1733.40</ele>
	<time>2023-10-07T09:52:34.000Z</time>
</trkpt>
<trkpt lat="45.9419280" lon="9.5437710">
	<ele>1733.40</ele>
	<time>2023-10-07T09:52:35.000Z</time>
</trkpt>
<trkpt lat="45.9419310" lon="9.5437560">
	<ele>1733.40</ele>
	<time>2023-10-07T09:52:36.000Z</time>
</trkpt>
<trkpt lat="45.9419330" lon="9.5437420">
	<ele>1733.40</ele>
	<time>2023-10-07T09:52:37.000Z</time>
</trkpt>
<trkpt lat="45.9419350" lon="9.5437290">
	<ele>1733.40</ele>
	<time>2023-10-07T09:52:38.000Z</time>
</trkpt>
<trkpt lat="45.9419410" lon="9.5437210">
	<ele>1733.40</ele>
	<time>2023-10-07T09:52:39.000Z</time>
</trkpt>
<trkpt lat="45.9419440" lon="9.5437080">
	<ele>1733.40</ele>
	<time>2023-10-07T09:52:40.000Z</time>
</trkpt>
<trkpt lat="45.9419450" lon="9.5437030">
	<ele>1733.40</ele>
	<time>2023-10-07T09:52:41.000Z</time>
</trkpt>
<trkpt lat="45.9419450" lon="9.5437000">
	<ele>1733.40</ele>
	<time>2023-10-07T09:52:42.000Z</time>
</trkpt>
<trkpt lat="45.9419460" lon="9.5436980">
	<ele>1733.40</ele>
	<time>2023-10-07T09:52:43.000Z</time>
</trkpt>
<trkpt lat="45.9419480" lon="9.5436950">
	<ele>1733.40</ele>
	<time>2023-10-07T09:52:44.000Z</time>
</trkpt>
<trkpt lat="45.9419510" lon="9.5436860">
	<ele>1733.40</ele>
	<time>2023-10-07T09:52:45.000Z</time>
</trkpt>
<trkpt lat="45.9419560" lon="9.5436710">
	<ele>1733.40</ele>
	<time>2023-10-07T09:52:46.000Z</time>
</trkpt>
<trkpt lat="45.9419610" lon="9.5436550">
	<ele>1733.60</ele>
	<time>2023-10-07T09:52:47.000Z</time>
</trkpt>
<trkpt lat="45.9419670" lon="9.5436400">
	<ele>1733.60</ele>
	<time>2023-10-07T09:52:48.000Z</time>
</trkpt>
<trkpt lat="45.9419700" lon="9.5436270">
	<ele>1733.60</ele>
	<time>2023-10-07T09:52:49.000Z</time>
</trkpt>
<trkpt lat="45.9419770" lon="9.5436150">
	<ele>1733.60</ele>
	<time>2023-10-07T09:52:50.000Z</time>
</trkpt>
<trkpt lat="45.9419840" lon="9.5436000">
	<ele>1733.60</ele>
	<time>2023-10-07T09:52:51.000Z</time>
</trkpt>
<trkpt lat="45.9419900" lon="9.5435820">
	<ele>1733.60</ele>
	<time>2023-10-07T09:52:52.000Z</time>
</trkpt>
<trkpt lat="45.9419990" lon="9.5435670">
	<ele>1733.60</ele>
	<time>2023-10-07T09:52:53.000Z</time>
</trkpt>
<trkpt lat="45.9420080" lon="9.5435500">
	<ele>1733.60</ele>
	<time>2023-10-07T09:52:54.000Z</time>
</trkpt>
<trkpt lat="45.9420140" lon="9.5435340">
	<ele>1733.60</ele>
	<time>2023-10-07T09:52:55.000Z</time>
</trkpt>
<trkpt lat="45.9420200" lon="9.5435200">
	<ele>1733.60</ele>
	<time>2023-10-07T09:52:56.000Z</time>
</trkpt>
<trkpt lat="45.9420270" lon="9.5435070">
	<ele>1733.60</ele>
	<time>2023-10-07T09:52:57.000Z</time>
</trkpt>
<trkpt lat="45.9420320" lon="9.5434920">
	<ele>1733.60</ele>
	<time>2023-10-07T09:52:58.000Z</time>
</trkpt>
<trkpt lat="45.9420380" lon="9.5434770">
	<ele>1733.60</ele>
	<time>2023-10-07T09:52:59.000Z</time>
</trkpt>
<trkpt lat="45.9420450" lon="9.5434610">
	<ele>1733.60</ele>
	<time>2023-10-07T09:53:00.000Z</time>
</trkpt>
<trkpt lat="45.9420500" lon="9.5434460">
	<ele>1733.60</ele>
	<time>2023-10-07T09:53:01.000Z</time>
</trkpt>
<trkpt lat="45.9420570" lon="9.5434290">
	<ele>1733.60</ele>
	<time>2023-10-07T09:53:02.000Z</time>
</trkpt>
<trkpt lat="45.9420630" lon="9.5434130">
	<ele>1733.60</ele>
	<time>2023-10-07T09:53:03.000Z</time>
</trkpt>
<trkpt lat="45.9420680" lon="9.5433960">
	<ele>1733.60</ele>
	<time>2023-10-07T09:53:04.000Z</time>
</trkpt>
<trkpt lat="45.9420740" lon="9.5433820">
	<ele>1733.80</ele>
	<time>2023-10-07T09:53:05.000Z</time>
</trkpt>
<trkpt lat="45.9420800" lon="9.5433720">
	<ele>1733.80</ele>
	<time>2023-10-07T09:53:06.000Z</time>
</trkpt>
<trkpt lat="45.9420880" lon="9.5433640">
	<ele>1733.80</ele>
	<time>2023-10-07T09:53:07.000Z</time>
</trkpt>
<trkpt lat="45.9420940" lon="9.5433540">
	<ele>1733.80</ele>
	<time>2023-10-07T09:53:08.000Z</time>
</trkpt>
<trkpt lat="45.9420990" lon="9.5433420">
	<ele>1733.80</ele>
	<time>2023-10-07T09:53:09.000Z</time>
</trkpt>
<trkpt lat="45.9421050" lon="9.5433280">
	<ele>1733.80</ele>
	<time>2023-10-07T09:53:10.000Z</time>
</trkpt>
<trkpt lat="45.9421130" lon="9.5433120">
	<ele>1733.80</ele>
	<time>2023-10-07T09:53:11.000Z</time>
</trkpt>
<trkpt lat="45.9421200" lon="9.5432960">
	<ele>1733.80</ele>
	<time>2023-10-07T09:53:12.000Z</time>
</trkpt>
<trkpt lat="45.9421260" lon="9.5432800">
	<ele>1733.60</ele>
	<time>2023-10-07T09:53:13.000Z</time>
</trkpt>
<trkpt lat="45.9421320" lon="9.5432640">
	<ele>1733.60</ele>
	<time>2023-10-07T09:53:14.000Z</time>
</trkpt>
<trkpt lat="45.9421370" lon="9.5432510">
	<ele>1733.60</ele>
	<time>2023-10-07T09:53:15.000Z</time>
</trkpt>
<trkpt lat="45.9421420" lon="9.5432370">
	<ele>1733.60</ele>
	<time>2023-10-07T09:53:16.000Z</time>
</trkpt>
<trkpt lat="45.9421480" lon="9.5432210">
	<ele>1733.40</ele>
	<time>2023-10-07T09:53:17.000Z</time>
</trkpt>
<trkpt lat="45.9421540" lon="9.5432050">
	<ele>1733.40</ele>
	<time>2023-10-07T09:53:18.000Z</time>
</trkpt>
<trkpt lat="45.9421600" lon="9.5431940">
	<ele>1733.40</ele>
	<time>2023-10-07T09:53:19.000Z</time>
</trkpt>
<trkpt lat="45.9421680" lon="9.5431850">
	<ele>1733.20</ele>
	<time>2023-10-07T09:53:20.000Z</time>
</trkpt>
<trkpt lat="45.9421750" lon="9.5431730">
	<ele>1733.20</ele>
	<time>2023-10-07T09:53:21.000Z</time>
</trkpt>
<trkpt lat="45.9421830" lon="9.5431530">
	<ele>1733.20</ele>
	<time>2023-10-07T09:53:22.000Z</time>
</trkpt>
<trkpt lat="45.9421920" lon="9.5431350">
	<ele>1733.20</ele>
	<time>2023-10-07T09:53:23.000Z</time>
</trkpt>
<trkpt lat="45.9422010" lon="9.5431190">
	<ele>1733.20</ele>
	<time>2023-10-07T09:53:24.000Z</time>
</trkpt>
<trkpt lat="45.9422100" lon="9.5431030">
	<ele>1733.00</ele>
	<time>2023-10-07T09:53:25.000Z</time>
</trkpt>
<trkpt lat="45.9422210" lon="9.5430860">
	<ele>1733.00</ele>
	<time>2023-10-07T09:53:26.000Z</time>
</trkpt>
<trkpt lat="45.9422250" lon="9.5430690">
	<ele>1733.00</ele>
	<time>2023-10-07T09:53:27.000Z</time>
</trkpt>
<trkpt lat="45.9422300" lon="9.5430550">
	<ele>1733.20</ele>
	<time>2023-10-07T09:53:28.000Z</time>
</trkpt>
<trkpt lat="45.9422300" lon="9.5430380">
	<ele>1733.20</ele>
	<time>2023-10-07T09:53:29.000Z</time>
</trkpt>
<trkpt lat="45.9422350" lon="9.5430230">
	<ele>1733.00</ele>
	<time>2023-10-07T09:53:30.000Z</time>
</trkpt>
<trkpt lat="45.9422450" lon="9.5430100">
	<ele>1733.20</ele>
	<time>2023-10-07T09:53:31.000Z</time>
</trkpt>
<trkpt lat="45.9422520" lon="9.5429950">
	<ele>1733.20</ele>
	<time>2023-10-07T09:53:32.000Z</time>
</trkpt>
<trkpt lat="45.9422620" lon="9.5429810">
	<ele>1733.00</ele>
	<time>2023-10-07T09:53:33.000Z</time>
</trkpt>
<trkpt lat="45.9422710" lon="9.5429680">
	<ele>1733.00</ele>
	<time>2023-10-07T09:53:34.000Z</time>
</trkpt>
<trkpt lat="45.9422800" lon="9.5429530">
	<ele>1733.00</ele>
	<time>2023-10-07T09:53:35.000Z</time>
</trkpt>
<trkpt lat="45.9422880" lon="9.5429400">
	<ele>1733.00</ele>
	<time>2023-10-07T09:53:36.000Z</time>
</trkpt>
<trkpt lat="45.9422940" lon="9.5429300">
	<ele>1733.00</ele>
	<time>2023-10-07T09:53:37.000Z</time>
</trkpt>
<trkpt lat="45.9423010" lon="9.5429190">
	<ele>1733.00</ele>
	<time>2023-10-07T09:53:38.000Z</time>
</trkpt>
<trkpt lat="45.9423060" lon="9.5429070">
	<ele>1733.00</ele>
	<time>2023-10-07T09:53:39.000Z</time>
</trkpt>
<trkpt lat="45.9423100" lon="9.5428950">
	<ele>1733.20</ele>
	<time>2023-10-07T09:53:40.000Z</time>
</trkpt>
<trkpt lat="45.9423150" lon="9.5428830">
	<ele>1733.20</ele>
	<time>2023-10-07T09:53:41.000Z</time>
</trkpt>
<trkpt lat="45.9423220" lon="9.5428710">
	<ele>1733.40</ele>
	<time>2023-10-07T09:53:42.000Z</time>
</trkpt>
<trkpt lat="45.9423280" lon="9.5428590">
	<ele>1733.40</ele>
	<time>2023-10-07T09:53:43.000Z</time>
</trkpt>
<trkpt lat="45.9423330" lon="9.5428470">
	<ele>1733.40</ele>
	<time>2023-10-07T09:53:44.000Z</time>
</trkpt>
<trkpt lat="45.9423410" lon="9.5428390">
	<ele>1733.40</ele>
	<time>2023-10-07T09:53:45.000Z</time>
</trkpt>
<trkpt lat="45.9423480" lon="9.5428290">
	<ele>1733.40</ele>
	<time>2023-10-07T09:53:46.000Z</time>
</trkpt>
<trkpt lat="45.9423560" lon="9.5428180">
	<ele>1733.20</ele>
	<time>2023-10-07T09:53:47.000Z</time>
</trkpt>
<trkpt lat="45.9423630" lon="9.5428080">
	<ele>1733.20</ele>
	<time>2023-10-07T09:53:48.000Z</time>
</trkpt>
<trkpt lat="45.9423710" lon="9.5428000">
	<ele>1733.20</ele>
	<time>2023-10-07T09:53:49.000Z</time>
</trkpt>
<trkpt lat="45.9423780" lon="9.5427960">
	<ele>1733.00</ele>
	<time>2023-10-07T09:53:50.000Z</time>
</trkpt>
<trkpt lat="45.9423860" lon="9.5427920">
	<ele>1733.00</ele>
	<time>2023-10-07T09:53:51.000Z</time>
</trkpt>
<trkpt lat="45.9423930" lon="9.5427880">
	<ele>1732.80</ele>
	<time>2023-10-07T09:53:52.000Z</time>
</trkpt>
<trkpt lat="45.9423990" lon="9.5427800">
	<ele>1732.60</ele>
	<time>2023-10-07T09:53:53.000Z</time>
</trkpt>
<trkpt lat="45.9424090" lon="9.5427710">
	<ele>1732.40</ele>
	<time>2023-10-07T09:53:54.000Z</time>
</trkpt>
<trkpt lat="45.9424180" lon="9.5427630">
	<ele>1732.00</ele>
	<time>2023-10-07T09:53:55.000Z</time>
</trkpt>
<trkpt lat="45.9424240" lon="9.5427540">
	<ele>1731.80</ele>
	<time>2023-10-07T09:53:56.000Z</time>
</trkpt>
<trkpt lat="45.9424320" lon="9.5427460">
	<ele>1731.60</ele>
	<time>2023-10-07T09:53:57.000Z</time>
</trkpt>
<trkpt lat="45.9424430" lon="9.5427380">
	<ele>1731.60</ele>
	<time>2023-10-07T09:53:58.000Z</time>
</trkpt>
<trkpt lat="45.9424550" lon="9.5427310">
	<ele>1731.40</ele>
	<time>2023-10-07T09:53:59.000Z</time>
</trkpt>
<trkpt lat="45.9424660" lon="9.5427230">
	<ele>1731.40</ele>
	<time>2023-10-07T09:54:00.000Z</time>
</trkpt>
<trkpt lat="45.9424760" lon="9.5427120">
	<ele>1731.40</ele>
	<time>2023-10-07T09:54:01.000Z</time>
</trkpt>
<trkpt lat="45.9424870" lon="9.5427010">
	<ele>1731.20</ele>
	<time>2023-10-07T09:54:02.000Z</time>
</trkpt>
<trkpt lat="45.9424940" lon="9.5426890">
	<ele>1731.20</ele>
	<time>2023-10-07T09:54:03.000Z</time>
</trkpt>
<trkpt lat="45.9425000" lon="9.5426810">
	<ele>1731.00</ele>
	<time>2023-10-07T09:54:04.000Z</time>
</trkpt>
<trkpt lat="45.9425050" lon="9.5426720">
	<ele>1731.00</ele>
	<time>2023-10-07T09:54:05.000Z</time>
</trkpt>
<trkpt lat="45.9425100" lon="9.5426620">
	<ele>1731.00</ele>
	<time>2023-10-07T09:54:06.000Z</time>
</trkpt>
<trkpt lat="45.9425160" lon="9.5426520">
	<ele>1730.80</ele>
	<time>2023-10-07T09:54:07.000Z</time>
</trkpt>
<trkpt lat="45.9425240" lon="9.5426420">
	<ele>1730.60</ele>
	<time>2023-10-07T09:54:08.000Z</time>
</trkpt>
<trkpt lat="45.9425320" lon="9.5426270">
	<ele>1730.40</ele>
	<time>2023-10-07T09:54:09.000Z</time>
</trkpt>
<trkpt lat="45.9425390" lon="9.5426130">
	<ele>1730.40</ele>
	<time>2023-10-07T09:54:10.000Z</time>
</trkpt>
<trkpt lat="45.9425440" lon="9.5426010">
	<ele>1730.40</ele>
	<time>2023-10-07T09:54:11.000Z</time>
</trkpt>
<trkpt lat="45.9425460" lon="9.5425910">
	<ele>1730.20</ele>
	<time>2023-10-07T09:54:12.000Z</time>
</trkpt>
<trkpt lat="45.9425480" lon="9.5425810">
	<ele>1730.00</ele>
	<time>2023-10-07T09:54:13.000Z</time>
</trkpt>
<trkpt lat="45.9425530" lon="9.5425680">
	<ele>1729.80</ele>
	<time>2023-10-07T09:54:14.000Z</time>
</trkpt>
<trkpt lat="45.9425570" lon="9.5425580">
	<ele>1729.60</ele>
	<time>2023-10-07T09:54:15.000Z</time>
</trkpt>
<trkpt lat="45.9425620" lon="9.5425460">
	<ele>1729.40</ele>
	<time>2023-10-07T09:54:16.000Z</time>
</trkpt>
<trkpt lat="45.9425670" lon="9.5425340">
	<ele>1729.20</ele>
	<time>2023-10-07T09:54:17.000Z</time>
</trkpt>
<trkpt lat="45.9425720" lon="9.5425160">
	<ele>1729.20</ele>
	<time>2023-10-07T09:54:18.000Z</time>
</trkpt>
<trkpt lat="45.9425730" lon="9.5424990">
	<ele>1729.00</ele>
	<time>2023-10-07T09:54:19.000Z</time>
</trkpt>
<trkpt lat="45.9425730" lon="9.5424870">
	<ele>1728.80</ele>
	<time>2023-10-07T09:54:20.000Z</time>
</trkpt>
<trkpt lat="45.9425770" lon="9.5424700">
	<ele>1728.80</ele>
	<time>2023-10-07T09:54:21.000Z</time>
</trkpt>
<trkpt lat="45.9425830" lon="9.5424550">
	<ele>1728.60</ele>
	<time>2023-10-07T09:54:22.000Z</time>
</trkpt>
<trkpt lat="45.9425900" lon="9.5424440">
	<ele>1728.60</ele>
	<time>2023-10-07T09:54:23.000Z</time>
</trkpt>
<trkpt lat="45.9425960" lon="9.5424320">
	<ele>1728.40</ele>
	<time>2023-10-07T09:54:24.000Z</time>
</trkpt>
<trkpt lat="45.9425980" lon="9.5424230">
	<ele>1728.40</ele>
	<time>2023-10-07T09:54:25.000Z</time>
</trkpt>
<trkpt lat="45.9426010" lon="9.5424080">
	<ele>1728.20</ele>
	<time>2023-10-07T09:54:26.000Z</time>
</trkpt>
<trkpt lat="45.9426050" lon="9.5423990">
	<ele>1728.20</ele>
	<time>2023-10-07T09:54:27.000Z</time>
</trkpt>
<trkpt lat="45.9426130" lon="9.5423890">
	<ele>1728.00</ele>
	<time>2023-10-07T09:54:28.000Z</time>
</trkpt>
<trkpt lat="45.9426250" lon="9.5423800">
	<ele>1728.00</ele>
	<time>2023-10-07T09:54:29.000Z</time>
</trkpt>
<trkpt lat="45.9426340" lon="9.5423690">
	<ele>1728.00</ele>
	<time>2023-10-07T09:54:30.000Z</time>
</trkpt>
<trkpt lat="45.9426390" lon="9.5423570">
	<ele>1727.80</ele>
	<time>2023-10-07T09:54:31.000Z</time>
</trkpt>
<trkpt lat="45.9426450" lon="9.5423400">
	<ele>1727.80</ele>
	<time>2023-10-07T09:54:32.000Z</time>
</trkpt>
<trkpt lat="45.9426540" lon="9.5423220">
	<ele>1727.80</ele>
	<time>2023-10-07T09:54:33.000Z</time>
</trkpt>
<trkpt lat="45.9426610" lon="9.5423100">
	<ele>1727.60</ele>
	<time>2023-10-07T09:54:34.000Z</time>
</trkpt>
<trkpt lat="45.9426680" lon="9.5422990">
	<ele>1727.60</ele>
	<time>2023-10-07T09:54:35.000Z</time>
</trkpt>
<trkpt lat="45.9426760" lon="9.5422880">
	<ele>1727.60</ele>
	<time>2023-10-07T09:54:36.000Z</time>
</trkpt>
<trkpt lat="45.9426840" lon="9.5422780">
	<ele>1727.40</ele>
	<time>2023-10-07T09:54:37.000Z</time>
</trkpt>
<trkpt lat="45.9426920" lon="9.5422710">
	<ele>1727.20</ele>
	<time>2023-10-07T09:54:38.000Z</time>
</trkpt>
<trkpt lat="45.9427020" lon="9.5422650">
	<ele>1727.00</ele>
	<time>2023-10-07T09:54:39.000Z</time>
</trkpt>
<trkpt lat="45.9427150" lon="9.5422620">
	<ele>1726.80</ele>
	<time>2023-10-07T09:54:40.000Z</time>
</trkpt>
<trkpt lat="45.9427270" lon="9.5422550">
	<ele>1726.60</ele>
	<time>2023-10-07T09:54:41.000Z</time>
</trkpt>
<trkpt lat="45.9427380" lon="9.5422490">
	<ele>1726.60</ele>
	<time>2023-10-07T09:54:42.000Z</time>
</trkpt>
<trkpt lat="45.9427480" lon="9.5422380">
	<ele>1726.40</ele>
	<time>2023-10-07T09:54:43.000Z</time>
</trkpt>
<trkpt lat="45.9427530" lon="9.5422270">
	<ele>1726.20</ele>
	<time>2023-10-07T09:54:44.000Z</time>
</trkpt>
<trkpt lat="45.9427600" lon="9.5422110">
	<ele>1726.20</ele>
	<time>2023-10-07T09:54:45.000Z</time>
</trkpt>
<trkpt lat="45.9427620" lon="9.5421980">
	<ele>1726.00</ele>
	<time>2023-10-07T09:54:46.000Z</time>
</trkpt>
<trkpt lat="45.9427640" lon="9.5421850">
	<ele>1726.00</ele>
	<time>2023-10-07T09:54:47.000Z</time>
</trkpt>
<trkpt lat="45.9427700" lon="9.5421710">
	<ele>1726.00</ele>
	<time>2023-10-07T09:54:48.000Z</time>
</trkpt>
<trkpt lat="45.9427790" lon="9.5421510">
	<ele>1725.80</ele>
	<time>2023-10-07T09:54:49.000Z</time>
</trkpt>
<trkpt lat="45.9427870" lon="9.5421320">
	<ele>1725.80</ele>
	<time>2023-10-07T09:54:50.000Z</time>
</trkpt>
<trkpt lat="45.9427960" lon="9.5421150">
	<ele>1725.80</ele>
	<time>2023-10-07T09:54:51.000Z</time>
</trkpt>
<trkpt lat="45.9428020" lon="9.5421050">
	<ele>1725.80</ele>
	<time>2023-10-07T09:54:52.000Z</time>
</trkpt>
<trkpt lat="45.9428100" lon="9.5420940">
	<ele>1725.80</ele>
	<time>2023-10-07T09:54:53.000Z</time>
</trkpt>
<trkpt lat="45.9428190" lon="9.5420830">
	<ele>1725.80</ele>
	<time>2023-10-07T09:54:54.000Z</time>
</trkpt>
<trkpt lat="45.9428270" lon="9.5420750">
	<ele>1725.80</ele>
	<time>2023-10-07T09:54:55.000Z</time>
</trkpt>
<trkpt lat="45.9428350" lon="9.5420690">
	<ele>1725.80</ele>
	<time>2023-10-07T09:54:56.000Z</time>
</trkpt>
<trkpt lat="45.9428430" lon="9.5420590">
	<ele>1725.60</ele>
	<time>2023-10-07T09:54:57.000Z</time>
</trkpt>
<trkpt lat="45.9428550" lon="9.5420550">
	<ele>1725.60</ele>
	<time>2023-10-07T09:54:58.000Z</time>
</trkpt>
<trkpt lat="45.9428640" lon="9.5420490">
	<ele>1725.40</ele>
	<time>2023-10-07T09:54:59.000Z</time>
</trkpt>
<trkpt lat="45.9428700" lon="9.5420430">
	<ele>1725.40</ele>
	<time>2023-10-07T09:55:00.000Z</time>
</trkpt>
<trkpt lat="45.9428750" lon="9.5420360">
	<ele>1725.40</ele>
	<time>2023-10-07T09:55:01.000Z</time>
</trkpt>
<trkpt lat="45.9428790" lon="9.5420260">
	<ele>1725.20</ele>
	<time>2023-10-07T09:55:02.000Z</time>
</trkpt>
<trkpt lat="45.9428830" lon="9.5420070">
	<ele>1725.20</ele>
	<time>2023-10-07T09:55:03.000Z</time>
</trkpt>
<trkpt lat="45.9428890" lon="9.5419870">
	<ele>1725.00</ele>
	<time>2023-10-07T09:55:04.000Z</time>
</trkpt>
<trkpt lat="45.9428950" lon="9.5419690">
	<ele>1724.80</ele>
	<time>2023-10-07T09:55:05.000Z</time>
</trkpt>
<trkpt lat="45.9428990" lon="9.5419520">
	<ele>1724.80</ele>
	<time>2023-10-07T09:55:06.000Z</time>
</trkpt>
<trkpt lat="45.9429060" lon="9.5419310">
	<ele>1724.80</ele>
	<time>2023-10-07T09:55:07.000Z</time>
</trkpt>
<trkpt lat="45.9429120" lon="9.5419140">
	<ele>1724.80</ele>
	<time>2023-10-07T09:55:08.000Z</time>
</trkpt>
<trkpt lat="45.9429200" lon="9.5418980">
	<ele>1724.60</ele>
	<time>2023-10-07T09:55:09.000Z</time>
</trkpt>
<trkpt lat="45.9429270" lon="9.5418850">
	<ele>1724.40</ele>
	<time>2023-10-07T09:55:10.000Z</time>
</trkpt>
<trkpt lat="45.9429340" lon="9.5418730">
	<ele>1724.40</ele>
	<time>2023-10-07T09:55:11.000Z</time>
</trkpt>
<trkpt lat="45.9429390" lon="9.5418590">
	<ele>1724.60</ele>
	<time>2023-10-07T09:55:12.000Z</time>
</trkpt>
<trkpt lat="45.9429460" lon="9.5418450">
	<ele>1724.60</ele>
	<time>2023-10-07T09:55:13.000Z</time>
</trkpt>
<trkpt lat="45.9429500" lon="9.5418300">
	<ele>1724.40</ele>
	<time>2023-10-07T09:55:14.000Z</time>
</trkpt>
<trkpt lat="45.9429510" lon="9.5418160">
	<ele>1724.40</ele>
	<time>2023-10-07T09:55:15.000Z</time>
</trkpt>
<trkpt lat="45.9429500" lon="9.5417970">
	<ele>1724.40</ele>
	<time>2023-10-07T09:55:16.000Z</time>
</trkpt>
<trkpt lat="45.9429490" lon="9.5417850">
	<ele>1724.40</ele>
	<time>2023-10-07T09:55:17.000Z</time>
</trkpt>
<trkpt lat="45.9429500" lon="9.5417720">
	<ele>1724.40</ele>
	<time>2023-10-07T09:55:18.000Z</time>
</trkpt>
<trkpt lat="45.9429520" lon="9.5417600">
	<ele>1724.20</ele>
	<time>2023-10-07T09:55:19.000Z</time>
</trkpt>
<trkpt lat="45.9429560" lon="9.5417460">
	<ele>1724.20</ele>
	<time>2023-10-07T09:55:20.000Z</time>
</trkpt>
<trkpt lat="45.9429590" lon="9.5417330">
	<ele>1724.00</ele>
	<time>2023-10-07T09:55:21.000Z</time>
</trkpt>
<trkpt lat="45.9429610" lon="9.5417230">
	<ele>1723.80</ele>
	<time>2023-10-07T09:55:22.000Z</time>
</trkpt>
<trkpt lat="45.9429610" lon="9.5417090">
	<ele>1723.60</ele>
	<time>2023-10-07T09:55:23.000Z</time>
</trkpt>
<trkpt lat="45.9429620" lon="9.5416920">
	<ele>1723.40</ele>
	<time>2023-10-07T09:55:24.000Z</time>
</trkpt>
<trkpt lat="45.9429630" lon="9.5416740">
	<ele>1723.00</ele>
	<time>2023-10-07T09:55:25.000Z</time>
</trkpt>
<trkpt lat="45.9429640" lon="9.5416610">
	<ele>1722.80</ele>
	<time>2023-10-07T09:55:26.000Z</time>
</trkpt>
<trkpt lat="45.9429680" lon="9.5416480">
	<ele>1722.60</ele>
	<time>2023-10-07T09:55:27.000Z</time>
</trkpt>
<trkpt lat="45.9429730" lon="9.5416330">
	<ele>1722.40</ele>
	<time>2023-10-07T09:55:28.000Z</time>
</trkpt>
<trkpt lat="45.9429740" lon="9.5416170">
	<ele>1722.20</ele>
	<time>2023-10-07T09:55:29.000Z</time>
</trkpt>
<trkpt lat="45.9429760" lon="9.5415990">
	<ele>1722.00</ele>
	<time>2023-10-07T09:55:30.000Z</time>
</trkpt>
<trkpt lat="45.9429780" lon="9.5415800">
	<ele>1721.80</ele>
	<time>2023-10-07T09:55:31.000Z</time>
</trkpt>
<trkpt lat="45.9429830" lon="9.5415610">
	<ele>1721.80</ele>
	<time>2023-10-07T09:55:32.000Z</time>
</trkpt>
<trkpt lat="45.9429880" lon="9.5415410">
	<ele>1721.60</ele>
	<time>2023-10-07T09:55:33.000Z</time>
</trkpt>
<trkpt lat="45.9429920" lon="9.5415230">
	<ele>1721.40</ele>
	<time>2023-10-07T09:55:34.000Z</time>
</trkpt>
<trkpt lat="45.9429940" lon="9.5415070">
	<ele>1721.40</ele>
	<time>2023-10-07T09:55:35.000Z</time>
</trkpt>
<trkpt lat="45.9429960" lon="9.5414910">
	<ele>1721.40</ele>
	<time>2023-10-07T09:55:36.000Z</time>
</trkpt>
<trkpt lat="45.9430000" lon="9.5414770">
	<ele>1721.40</ele>
	<time>2023-10-07T09:55:37.000Z</time>
</trkpt>
<trkpt lat="45.9430050" lon="9.5414620">
	<ele>1721.60</ele>
	<time>2023-10-07T09:55:38.000Z</time>
</trkpt>
<trkpt lat="45.9430100" lon="9.5414450">
	<ele>1721.60</ele>
	<time>2023-10-07T09:55:39.000Z</time>
</trkpt>
<trkpt lat="45.9430140" lon="9.5414290">
	<ele>1721.60</ele>
	<time>2023-10-07T09:55:40.000Z</time>
</trkpt>
<trkpt lat="45.9430190" lon="9.5414130">
	<ele>1721.40</ele>
	<time>2023-10-07T09:55:41.000Z</time>
</trkpt>
<trkpt lat="45.9430230" lon="9.5413970">
	<ele>1721.20</ele>
	<time>2023-10-07T09:55:42.000Z</time>
</trkpt>
<trkpt lat="45.9430240" lon="9.5413780">
	<ele>1721.00</ele>
	<time>2023-10-07T09:55:43.000Z</time>
</trkpt>
<trkpt lat="45.9430250" lon="9.5413560">
	<ele>1721.00</ele>
	<time>2023-10-07T09:55:44.000Z</time>
</trkpt>
<trkpt lat="45.9430240" lon="9.5413350">
	<ele>1720.80</ele>
	<time>2023-10-07T09:55:45.000Z</time>
</trkpt>
<trkpt lat="45.9430220" lon="9.5413190">
	<ele>1720.60</ele>
	<time>2023-10-07T09:55:46.000Z</time>
</trkpt>
<trkpt lat="45.9430190" lon="9.5413000">
	<ele>1720.40</ele>
	<time>2023-10-07T09:55:47.000Z</time>
</trkpt>
<trkpt lat="45.9430200" lon="9.5412790">
	<ele>1720.20</ele>
	<time>2023-10-07T09:55:48.000Z</time>
</trkpt>
<trkpt lat="45.9430230" lon="9.5412620">
	<ele>1720.20</ele>
	<time>2023-10-07T09:55:49.000Z</time>
</trkpt>
<trkpt lat="45.9430300" lon="9.5412440">
	<ele>1720.00</ele>
	<time>2023-10-07T09:55:50.000Z</time>
</trkpt>
<trkpt lat="45.9430380" lon="9.5412290">
	<ele>1720.00</ele>
	<time>2023-10-07T09:55:51.000Z</time>
</trkpt>
<trkpt lat="45.9430430" lon="9.5412130">
	<ele>1719.80</ele>
	<time>2023-10-07T09:55:52.000Z</time>
</trkpt>
<trkpt lat="45.9430470" lon="9.5411970">
	<ele>1719.80</ele>
	<time>2023-10-07T09:55:53.000Z</time>
</trkpt>
<trkpt lat="45.9430500" lon="9.5411830">
	<ele>1719.60</ele>
	<time>2023-10-07T09:55:54.000Z</time>
</trkpt>
<trkpt lat="45.9430550" lon="9.5411670">
	<ele>1719.60</ele>
	<time>2023-10-07T09:55:55.000Z</time>
</trkpt>
<trkpt lat="45.9430610" lon="9.5411530">
	<ele>1719.60</ele>
	<time>2023-10-07T09:55:56.000Z</time>
</trkpt>
<trkpt lat="45.9430740" lon="9.5411400">
	<ele>1719.40</ele>
	<time>2023-10-07T09:55:57.000Z</time>
</trkpt>
<trkpt lat="45.9430840" lon="9.5411250">
	<ele>1719.40</ele>
	<time>2023-10-07T09:55:58.000Z</time>
</trkpt>
<trkpt lat="45.9430890" lon="9.5411090">
	<ele>1719.20</ele>
	<time>2023-10-07T09:55:59.000Z</time>
</trkpt>
<trkpt lat="45.9430920" lon="9.5410950">
	<ele>1719.00</ele>
	<time>2023-10-07T09:56:00.000Z</time>
</trkpt>
<trkpt lat="45.9430950" lon="9.5410780">
	<ele>1718.80</ele>
	<time>2023-10-07T09:56:01.000Z</time>
</trkpt>
<trkpt lat="45.9430990" lon="9.5410600">
	<ele>1718.80</ele>
	<time>2023-10-07T09:56:02.000Z</time>
</trkpt>
<trkpt lat="45.9431020" lon="9.5410410">
	<ele>1718.60</ele>
	<time>2023-10-07T09:56:03.000Z</time>
</trkpt>
<trkpt lat="45.9431070" lon="9.5410220">
	<ele>1718.60</ele>
	<time>2023-10-07T09:56:04.000Z</time>
</trkpt>
<trkpt lat="45.9431110" lon="9.5410050">
	<ele>1718.60</ele>
	<time>2023-10-07T09:56:05.000Z</time>
</trkpt>
<trkpt lat="45.9431130" lon="9.5409880">
	<ele>1718.40</ele>
	<time>2023-10-07T09:56:06.000Z</time>
</trkpt>
<trkpt lat="45.9431140" lon="9.5409740">
	<ele>1718.40</ele>
	<time>2023-10-07T09:56:07.000Z</time>
</trkpt>
<trkpt lat="45.9431150" lon="9.5409600">
	<ele>1718.20</ele>
	<time>2023-10-07T09:56:08.000Z</time>
</trkpt>
<trkpt lat="45.9431160" lon="9.5409470">
	<ele>1718.20</ele>
	<time>2023-10-07T09:56:09.000Z</time>
</trkpt>
<trkpt lat="45.9431170" lon="9.5409350">
	<ele>1718.00</ele>
	<time>2023-10-07T09:56:10.000Z</time>
</trkpt>
<trkpt lat="45.9431190" lon="9.5409180">
	<ele>1717.80</ele>
	<time>2023-10-07T09:56:11.000Z</time>
</trkpt>
<trkpt lat="45.9431170" lon="9.5408980">
	<ele>1717.60</ele>
	<time>2023-10-07T09:56:12.000Z</time>
</trkpt>
<trkpt lat="45.9431140" lon="9.5408770">
	<ele>1717.60</ele>
	<time>2023-10-07T09:56:13.000Z</time>
</trkpt>
<trkpt lat="45.9431100" lon="9.5408550">
	<ele>1717.40</ele>
	<time>2023-10-07T09:56:14.000Z</time>
</trkpt>
<trkpt lat="45.9431100" lon="9.5408350">
	<ele>1717.40</ele>
	<time>2023-10-07T09:56:15.000Z</time>
</trkpt>
<trkpt lat="45.9431100" lon="9.5408160">
	<ele>1717.40</ele>
	<time>2023-10-07T09:56:16.000Z</time>
</trkpt>
<trkpt lat="45.9431120" lon="9.5407910">
	<ele>1717.40</ele>
	<time>2023-10-07T09:56:17.000Z</time>
</trkpt>
<trkpt lat="45.9431130" lon="9.5407780">
	<ele>1717.40</ele>
	<time>2023-10-07T09:56:18.000Z</time>
</trkpt>
<trkpt lat="45.9431120" lon="9.5407630">
	<ele>1717.40</ele>
	<time>2023-10-07T09:56:19.000Z</time>
</trkpt>
<trkpt lat="45.9431110" lon="9.5407450">
	<ele>1717.20</ele>
	<time>2023-10-07T09:56:20.000Z</time>
</trkpt>
<trkpt lat="45.9431170" lon="9.5407280">
	<ele>1717.20</ele>
	<time>2023-10-07T09:56:21.000Z</time>
</trkpt>
<trkpt lat="45.9431220" lon="9.5407120">
	<ele>1717.20</ele>
	<time>2023-10-07T09:56:22.000Z</time>
</trkpt>
<trkpt lat="45.9431240" lon="9.5406920">
	<ele>1717.00</ele>
	<time>2023-10-07T09:56:23.000Z</time>
</trkpt>
<trkpt lat="45.9431240" lon="9.5406710">
	<ele>1717.00</ele>
	<time>2023-10-07T09:56:24.000Z</time>
</trkpt>
<trkpt lat="45.9431230" lon="9.5406510">
	<ele>1717.00</ele>
	<time>2023-10-07T09:56:25.000Z</time>
</trkpt>
<trkpt lat="45.9431200" lon="9.5406320">
	<ele>1717.00</ele>
	<time>2023-10-07T09:56:26.000Z</time>
</trkpt>
<trkpt lat="45.9431210" lon="9.5406160">
	<ele>1717.00</ele>
	<time>2023-10-07T09:56:27.000Z</time>
</trkpt>
<trkpt lat="45.9431230" lon="9.5405990">
	<ele>1716.80</ele>
	<time>2023-10-07T09:56:28.000Z</time>
</trkpt>
<trkpt lat="45.9431240" lon="9.5405820">
	<ele>1716.80</ele>
	<time>2023-10-07T09:56:29.000Z</time>
</trkpt>
<trkpt lat="45.9431260" lon="9.5405630">
	<ele>1716.80</ele>
	<time>2023-10-07T09:56:30.000Z</time>
</trkpt>
<trkpt lat="45.9431270" lon="9.5405470">
	<ele>1716.60</ele>
	<time>2023-10-07T09:56:31.000Z</time>
</trkpt>
<trkpt lat="45.9431290" lon="9.5405280">
	<ele>1716.60</ele>
	<time>2023-10-07T09:56:32.000Z</time>
</trkpt>
<trkpt lat="45.9431310" lon="9.5405140">
	<ele>1716.40</ele>
	<time>2023-10-07T09:56:33.000Z</time>
</trkpt>
<trkpt lat="45.9431300" lon="9.5404960">
	<ele>1716.40</ele>
	<time>2023-10-07T09:56:34.000Z</time>
</trkpt>
<trkpt lat="45.9431310" lon="9.5404760">
	<ele>1716.40</ele>
	<time>2023-10-07T09:56:35.000Z</time>
</trkpt>
<trkpt lat="45.9431310" lon="9.5404660">
	<ele>1716.40</ele>
	<time>2023-10-07T09:56:36.000Z</time>
</trkpt>
<trkpt lat="45.9431310" lon="9.5404540">
	<ele>1716.60</ele>
	<time>2023-10-07T09:56:37.000Z</time>
</trkpt>
<trkpt lat="45.9431310" lon="9.5404470">
	<ele>1716.80</ele>
	<time>2023-10-07T09:56:38.000Z</time>
</trkpt>
<trkpt lat="45.9431310" lon="9.5404430">
	<ele>1717.00</ele>
	<time>2023-10-07T09:56:39.000Z</time>
</trkpt>
<trkpt lat="45.9431310" lon="9.5404410">
	<ele>1717.00</ele>
	<time>2023-10-07T09:56:40.000Z</time>
</trkpt>
<trkpt lat="45.9431310" lon="9.5404410">
	<ele>1717.00</ele>
	<time>2023-10-07T09:56:41.000Z</time>
</trkpt>
<trkpt lat="45.9431310" lon="9.5404400">
	<ele>1717.00</ele>
	<time>2023-10-07T09:56:42.000Z</time>
</trkpt>
<trkpt lat="45.9431320" lon="9.5404390">
	<ele>1717.00</ele>
	<time>2023-10-07T09:56:43.000Z</time>
</trkpt>
<trkpt lat="45.9431330" lon="9.5404360">
	<ele>1717.00</ele>
	<time>2023-10-07T09:56:44.000Z</time>
</trkpt>
<trkpt lat="45.9431340" lon="9.5404270">
	<ele>1717.00</ele>
	<time>2023-10-07T09:56:45.000Z</time>
</trkpt>
<trkpt lat="45.9431350" lon="9.5404160">
	<ele>1716.80</ele>
	<time>2023-10-07T09:56:46.000Z</time>
</trkpt>
<trkpt lat="45.9431340" lon="9.5404060">
	<ele>1716.80</ele>
	<time>2023-10-07T09:56:47.000Z</time>
</trkpt>
<trkpt lat="45.9431370" lon="9.5403930">
	<ele>1716.60</ele>
	<time>2023-10-07T09:56:48.000Z</time>
</trkpt>
<trkpt lat="45.9431410" lon="9.5403790">
	<ele>1716.60</ele>
	<time>2023-10-07T09:56:49.000Z</time>
</trkpt>
<trkpt lat="45.9431460" lon="9.5403630">
	<ele>1716.20</ele>
	<time>2023-10-07T09:56:50.000Z</time>
</trkpt>
<trkpt lat="45.9431520" lon="9.5403490">
	<ele>1716.20</ele>
	<time>2023-10-07T09:56:51.000Z</time>
</trkpt>
<trkpt lat="45.9431570" lon="9.5403360">
	<ele>1716.00</ele>
	<time>2023-10-07T09:56:52.000Z</time>
</trkpt>
<trkpt lat="45.9431600" lon="9.5403250">
	<ele>1715.80</ele>
	<time>2023-10-07T09:56:53.000Z</time>
</trkpt>
<trkpt lat="45.9431630" lon="9.5403140">
	<ele>1715.80</ele>
	<time>2023-10-07T09:56:54.000Z</time>
</trkpt>
<trkpt lat="45.9431670" lon="9.5403040">
	<ele>1715.60</ele>
	<time>2023-10-07T09:56:55.000Z</time>
</trkpt>
<trkpt lat="45.9431750" lon="9.5402940">
	<ele>1715.40</ele>
	<time>2023-10-07T09:56:56.000Z</time>
</trkpt>
<trkpt lat="45.9431830" lon="9.5402890">
	<ele>1715.20</ele>
	<time>2023-10-07T09:56:57.000Z</time>
</trkpt>
<trkpt lat="45.9431890" lon="9.5402800">
	<ele>1715.00</ele>
	<time>2023-10-07T09:56:58.000Z</time>
</trkpt>
<trkpt lat="45.9431920" lon="9.5402680">
	<ele>1714.80</ele>
	<time>2023-10-07T09:56:59.000Z</time>
</trkpt>
<trkpt lat="45.9431960" lon="9.5402530">
	<ele>1714.40</ele>
	<time>2023-10-07T09:57:00.000Z</time>
</trkpt>
<trkpt lat="45.9431980" lon="9.5402370">
	<ele>1714.20</ele>
	<time>2023-10-07T09:57:01.000Z</time>
</trkpt>
<trkpt lat="45.9431970" lon="9.5402190">
	<ele>1714.00</ele>
	<time>2023-10-07T09:57:02.000Z</time>
</trkpt>
<trkpt lat="45.9431940" lon="9.5402000">
	<ele>1714.00</ele>
	<time>2023-10-07T09:57:03.000Z</time>
</trkpt>
<trkpt lat="45.9431940" lon="9.5401840">
	<ele>1713.80</ele>
	<time>2023-10-07T09:57:04.000Z</time>
</trkpt>
<trkpt lat="45.9431960" lon="9.5401720">
	<ele>1713.80</ele>
	<time>2023-10-07T09:57:05.000Z</time>
</trkpt>
<trkpt lat="45.9431990" lon="9.5401630">
	<ele>1713.60</ele>
	<time>2023-10-07T09:57:06.000Z</time>
</trkpt>
<trkpt lat="45.9432000" lon="9.5401560">
	<ele>1713.60</ele>
	<time>2023-10-07T09:57:07.000Z</time>
</trkpt>
<trkpt lat="45.9431990" lon="9.5401450">
	<ele>1713.40</ele>
	<time>2023-10-07T09:57:08.000Z</time>
</trkpt>
<trkpt lat="45.9432020" lon="9.5401340">
	<ele>1713.40</ele>
	<time>2023-10-07T09:57:09.000Z</time>
</trkpt>
<trkpt lat="45.9432070" lon="9.5401230">
	<ele>1713.00</ele>
	<time>2023-10-07T09:57:10.000Z</time>
</trkpt>
<trkpt lat="45.9432140" lon="9.5401100">
	<ele>1712.80</ele>
	<time>2023-10-07T09:57:11.000Z</time>
</trkpt>
<trkpt lat="45.9432200" lon="9.5400950">
	<ele>1712.60</ele>
	<time>2023-10-07T09:57:12.000Z</time>
</trkpt>
<trkpt lat="45.9432270" lon="9.5400800">
	<ele>1712.60</ele>
	<time>2023-10-07T09:57:13.000Z</time>
</trkpt>
<trkpt lat="45.9432350" lon="9.5400630">
	<ele>1712.40</ele>
	<time>2023-10-07T09:57:14.000Z</time>
</trkpt>
<trkpt lat="45.9432410" lon="9.5400430">
	<ele>1712.20</ele>
	<time>2023-10-07T09:57:15.000Z</time>
</trkpt>
<trkpt lat="45.9432490" lon="9.5400320">
	<ele>1712.00</ele>
	<time>2023-10-07T09:57:16.000Z</time>
</trkpt>
<trkpt lat="45.9432560" lon="9.5400220">
	<ele>1712.00</ele>
	<time>2023-10-07T09:57:17.000Z</time>
</trkpt>
<trkpt lat="45.9432600" lon="9.5400110">
	<ele>1711.80</ele>
	<time>2023-10-07T09:57:18.000Z</time>
</trkpt>
<trkpt lat="45.9432610" lon="9.5400010">
	<ele>1711.80</ele>
	<time>2023-10-07T09:57:19.000Z</time>
</trkpt>
<trkpt lat="45.9432620" lon="9.5399890">
	<ele>1711.40</ele>
	<time>2023-10-07T09:57:20.000Z</time>
</trkpt>
<trkpt lat="45.9432670" lon="9.5399750">
	<ele>1711.20</ele>
	<time>2023-10-07T09:57:21.000Z</time>
</trkpt>
<trkpt lat="45.9432700" lon="9.5399570">
	<ele>1711.20</ele>
	<time>2023-10-07T09:57:22.000Z</time>
</trkpt>
<trkpt lat="45.9432730" lon="9.5399380">
	<ele>1711.00</ele>
	<time>2023-10-07T09:57:23.000Z</time>
</trkpt>
<trkpt lat="45.9432780" lon="9.5399220">
	<ele>1710.60</ele>
	<time>2023-10-07T09:57:24.000Z</time>
</trkpt>
<trkpt lat="45.9432840" lon="9.5399070">
	<ele>1710.60</ele>
	<time>2023-10-07T09:57:25.000Z</time>
</trkpt>
<trkpt lat="45.9432850" lon="9.5398880">
	<ele>1710.40</ele>
	<time>2023-10-07T09:57:26.000Z</time>
</trkpt>
<trkpt lat="45.9432860" lon="9.5398700">
	<ele>1710.20</ele>
	<time>2023-10-07T09:57:27.000Z</time>
</trkpt>
<trkpt lat="45.9432860" lon="9.5398530">
	<ele>1710.20</ele>
	<time>2023-10-07T09:57:28.000Z</time>
</trkpt>
<trkpt lat="45.9432870" lon="9.5398340">
	<ele>1710.20</ele>
	<time>2023-10-07T09:57:29.000Z</time>
</trkpt>
<trkpt lat="45.9432910" lon="9.5398190">
	<ele>1710.00</ele>
	<time>2023-10-07T09:57:30.000Z</time>
</trkpt>
<trkpt lat="45.9432960" lon="9.5398020">
	<ele>1710.00</ele>
	<time>2023-10-07T09:57:31.000Z</time>
</trkpt>
<trkpt lat="45.9432960" lon="9.5397890">
	<ele>1710.00</ele>
	<time>2023-10-07T09:57:32.000Z</time>
</trkpt>
<trkpt lat="45.9432950" lon="9.5397770">
	<ele>1710.00</ele>
	<time>2023-10-07T09:57:33.000Z</time>
</trkpt>
<trkpt lat="45.9432920" lon="9.5397680">
	<ele>1710.00</ele>
	<time>2023-10-07T09:57:34.000Z</time>
</trkpt>
<trkpt lat="45.9432850" lon="9.5397560">
	<ele>1710.00</ele>
	<time>2023-10-07T09:57:35.000Z</time>
</trkpt>
<trkpt lat="45.9432770" lon="9.5397460">
	<ele>1709.80</ele>
	<time>2023-10-07T09:57:36.000Z</time>
</trkpt>
<trkpt lat="45.9432640" lon="9.5397310">
	<ele>1709.60</ele>
	<time>2023-10-07T09:57:37.000Z</time>
</trkpt>
<trkpt lat="45.9432560" lon="9.5397160">
	<ele>1709.40</ele>
	<time>2023-10-07T09:57:38.000Z</time>
</trkpt>
<trkpt lat="45.9432490" lon="9.5397020">
	<ele>1709.40</ele>
	<time>2023-10-07T09:57:39.000Z</time>
</trkpt>
<trkpt lat="45.9432420" lon="9.5396890">
	<ele>1709.40</ele>
	<time>2023-10-07T09:57:40.000Z</time>
</trkpt>
<trkpt lat="45.9432320" lon="9.5396810">
	<ele>1709.20</ele>
	<time>2023-10-07T09:57:41.000Z</time>
</trkpt>
<trkpt lat="45.9432240" lon="9.5396720">
	<ele>1709.20</ele>
	<time>2023-10-07T09:57:42.000Z</time>
</trkpt>
<trkpt lat="45.9432170" lon="9.5396590">
	<ele>1709.20</ele>
	<time>2023-10-07T09:57:43.000Z</time>
</trkpt>
<trkpt lat="45.9432100" lon="9.5396450">
	<ele>1709.20</ele>
	<time>2023-10-07T09:57:44.000Z</time>
</trkpt>
<trkpt lat="45.9432040" lon="9.5396310">
	<ele>1708.80</ele>
	<time>2023-10-07T09:57:45.000Z</time>
</trkpt>
<trkpt lat="45.9432000" lon="9.5396210">
	<ele>1708.60</ele>
	<time>2023-10-07T09:57:46.000Z</time>
</trkpt>
<trkpt lat="45.9431990" lon="9.5396100">
	<ele>1708.40</ele>
	<time>2023-10-07T09:57:47.000Z</time>
</trkpt>
<trkpt lat="45.9431980" lon="9.5395940">
	<ele>1708.40</ele>
	<time>2023-10-07T09:57:48.000Z</time>
</trkpt>
<trkpt lat="45.9431920" lon="9.5395820">
	<ele>1708.20</ele>
	<time>2023-10-07T09:57:49.000Z</time>
</trkpt>
<trkpt lat="45.9431880" lon="9.5395690">
	<ele>1708.20</ele>
	<time>2023-10-07T09:57:50.000Z</time>
</trkpt>
<trkpt lat="45.9431810" lon="9.5395580">
	<ele>1708.20</ele>
	<time>2023-10-07T09:57:51.000Z</time>
</trkpt>
<trkpt lat="45.9431750" lon="9.5395470">
	<ele>1708.40</ele>
	<time>2023-10-07T09:57:52.000Z</time>
</trkpt>
<trkpt lat="45.9431700" lon="9.5395340">
	<ele>1708.20</ele>
	<time>2023-10-07T09:57:53.000Z</time>
</trkpt>
<trkpt lat="45.9431640" lon="9.5395150">
	<ele>1708.20</ele>
	<time>2023-10-07T09:57:54.000Z</time>
</trkpt>
<trkpt lat="45.9431590" lon="9.5394970">
	<ele>1708.00</ele>
	<time>2023-10-07T09:57:55.000Z</time>
</trkpt>
<trkpt lat="45.9431540" lon="9.5394840">
	<ele>1708.00</ele>
	<time>2023-10-07T09:57:56.000Z</time>
</trkpt>
<trkpt lat="45.9431480" lon="9.5394660">
	<ele>1708.00</ele>
	<time>2023-10-07T09:57:57.000Z</time>
</trkpt>
<trkpt lat="45.9431420" lon="9.5394480">
	<ele>1707.80</ele>
	<time>2023-10-07T09:57:58.000Z</time>
</trkpt>
<trkpt lat="45.9431370" lon="9.5394300">
	<ele>1707.80</ele>
	<time>2023-10-07T09:57:59.000Z</time>
</trkpt>
<trkpt lat="45.9431310" lon="9.5394150">
	<ele>1708.00</ele>
	<time>2023-10-07T09:58:00.000Z</time>
</trkpt>
<trkpt lat="45.9431250" lon="9.5393990">
	<ele>1708.00</ele>
	<time>2023-10-07T09:58:01.000Z</time>
</trkpt>
<trkpt lat="45.9431190" lon="9.5393830">
	<ele>1708.00</ele>
	<time>2023-10-07T09:58:02.000Z</time>
</trkpt>
<trkpt lat="45.9431130" lon="9.5393690">
	<ele>1708.00</ele>
	<time>2023-10-07T09:58:03.000Z</time>
</trkpt>
<trkpt lat="45.9431050" lon="9.5393550">
	<ele>1707.80</ele>
	<time>2023-10-07T09:58:04.000Z</time>
</trkpt>
<trkpt lat="45.9430980" lon="9.5393380">
	<ele>1707.80</ele>
	<time>2023-10-07T09:58:05.000Z</time>
</trkpt>
<trkpt lat="45.9430920" lon="9.5393230">
	<ele>1707.80</ele>
	<time>2023-10-07T09:58:06.000Z</time>
</trkpt>
<trkpt lat="45.9430850" lon="9.5393090">
	<ele>1707.80</ele>
	<time>2023-10-07T09:58:07.000Z</time>
</trkpt>
<trkpt lat="45.9430790" lon="9.5392930">
	<ele>1707.60</ele>
	<time>2023-10-07T09:58:08.000Z</time>
</trkpt>
<trkpt lat="45.9430720" lon="9.5392780">
	<ele>1707.40</ele>
	<time>2023-10-07T09:58:09.000Z</time>
</trkpt>
<trkpt lat="45.9430660" lon="9.5392650">
	<ele>1707.40</ele>
	<time>2023-10-07T09:58:10.000Z</time>
</trkpt>
<trkpt lat="45.9430590" lon="9.5392530">
	<ele>1707.40</ele>
	<time>2023-10-07T09:58:11.000Z</time>
</trkpt>
<trkpt lat="45.9430530" lon="9.5392440">
	<ele>1707.20</ele>
	<time>2023-10-07T09:58:12.000Z</time>
</trkpt>
<trkpt lat="45.9430480" lon="9.5392330">
	<ele>1707.20</ele>
	<time>2023-10-07T09:58:13.000Z</time>
</trkpt>
<trkpt lat="45.9430410" lon="9.5392190">
	<ele>1707.20</ele>
	<time>2023-10-07T09:58:14.000Z</time>
</trkpt>
<trkpt lat="45.9430340" lon="9.5392040">
	<ele>1707.20</ele>
	<time>2023-10-07T09:58:15.000Z</time>
</trkpt>
<trkpt lat="45.9430300" lon="9.5391920">
	<ele>1707.20</ele>
	<time>2023-10-07T09:58:16.000Z</time>
</trkpt>
<trkpt lat="45.9430280" lon="9.5391820">
	<ele>1707.20</ele>
	<time>2023-10-07T09:58:17.000Z</time>
</trkpt>
<trkpt lat="45.9430240" lon="9.5391750">
	<ele>1707.00</ele>
	<time>2023-10-07T09:58:18.000Z</time>
</trkpt>
<trkpt lat="45.9430190" lon="9.5391680">
	<ele>1707.00</ele>
	<time>2023-10-07T09:58:19.000Z</time>
</trkpt>
<trkpt lat="45.9430140" lon="9.5391590">
	<ele>1706.80</ele>
	<time>2023-10-07T09:58:20.000Z</time>
</trkpt>
<trkpt lat="45.9430090" lon="9.5391490">
	<ele>1706.60</ele>
	<time>2023-10-07T09:58:21.000Z</time>
</trkpt>
<trkpt lat="45.9430040" lon="9.5391380">
	<ele>1706.40</ele>
	<time>2023-10-07T09:58:22.000Z</time>
</trkpt>
<trkpt lat="45.9429940" lon="9.5391320">
	<ele>1706.20</ele>
	<time>2023-10-07T09:58:23.000Z</time>
</trkpt>
<trkpt lat="45.9429820" lon="9.5391270">
	<ele>1706.00</ele>
	<time>2023-10-07T09:58:24.000Z</time>
</trkpt>
<trkpt lat="45.9429700" lon="9.5391210">
	<ele>1706.00</ele>
	<time>2023-10-07T09:58:25.000Z</time>
</trkpt>
<trkpt lat="45.9429620" lon="9.5391110">
	<ele>1705.80</ele>
	<time>2023-10-07T09:58:26.000Z</time>
</trkpt>
<trkpt lat="45.9429550" lon="9.5391010">
	<ele>1705.60</ele>
	<time>2023-10-07T09:58:27.000Z</time>
</trkpt>
<trkpt lat="45.9429510" lon="9.5390920">
	<ele>1705.60</ele>
	<time>2023-10-07T09:58:28.000Z</time>
</trkpt>
<trkpt lat="45.9429470" lon="9.5390810">
	<ele>1705.40</ele>
	<time>2023-10-07T09:58:29.000Z</time>
</trkpt>
<trkpt lat="45.9429430" lon="9.5390700">
	<ele>1705.20</ele>
	<time>2023-10-07T09:58:30.000Z</time>
</trkpt>
<trkpt lat="45.9429380" lon="9.5390550">
	<ele>1705.00</ele>
	<time>2023-10-07T09:58:31.000Z</time>
</trkpt>
<trkpt lat="45.9429310" lon="9.5390380">
	<ele>1705.00</ele>
	<time>2023-10-07T09:58:32.000Z</time>
</trkpt>
<trkpt lat="45.9429250" lon="9.5390210">
	<ele>1704.80</ele>
	<time>2023-10-07T09:58:33.000Z</time>
</trkpt>
<trkpt lat="45.9429200" lon="9.5390040">
	<ele>1704.60</ele>
	<time>2023-10-07T09:58:34.000Z</time>
</trkpt>
<trkpt lat="45.9429140" lon="9.5389880">
	<ele>1704.60</ele>
	<time>2023-10-07T09:58:35.000Z</time>
</trkpt>
<trkpt lat="45.9429090" lon="9.5389740">
	<ele>1704.40</ele>
	<time>2023-10-07T09:58:36.000Z</time>
</trkpt>
<trkpt lat="45.9429050" lon="9.5389600">
	<ele>1704.40</ele>
	<time>2023-10-07T09:58:37.000Z</time>
</trkpt>
<trkpt lat="45.9429010" lon="9.5389460">
	<ele>1704.20</ele>
	<time>2023-10-07T09:58:38.000Z</time>
</trkpt>
<trkpt lat="45.9428960" lon="9.5389350">
	<ele>1704.00</ele>
	<time>2023-10-07T09:58:39.000Z</time>
</trkpt>
<trkpt lat="45.9428890" lon="9.5389230">
	<ele>1703.80</ele>
	<time>2023-10-07T09:58:40.000Z</time>
</trkpt>
<trkpt lat="45.9428800" lon="9.5389080">
	<ele>1703.60</ele>
	<time>2023-10-07T09:58:41.000Z</time>
</trkpt>
<trkpt lat="45.9428710" lon="9.5388940">
	<ele>1703.60</ele>
	<time>2023-10-07T09:58:42.000Z</time>
</trkpt>
<trkpt lat="45.9428670" lon="9.5388750">
	<ele>1703.40</ele>
	<time>2023-10-07T09:58:43.000Z</time>
</trkpt>
<trkpt lat="45.9428690" lon="9.5388530">
	<ele>1703.20</ele>
	<time>2023-10-07T09:58:44.000Z</time>
</trkpt>
<trkpt lat="45.9428700" lon="9.5388340">
	<ele>1703.00</ele>
	<time>2023-10-07T09:58:45.000Z</time>
</trkpt>
<trkpt lat="45.9428700" lon="9.5388180">
	<ele>1703.00</ele>
	<time>2023-10-07T09:58:46.000Z</time>
</trkpt>
<trkpt lat="45.9428710" lon="9.5388010">
	<ele>1703.00</ele>
	<time>2023-10-07T09:58:47.000Z</time>
</trkpt>
<trkpt lat="45.9428720" lon="9.5387850">
	<ele>1702.80</ele>
	<time>2023-10-07T09:58:48.000Z</time>
</trkpt>
<trkpt lat="45.9428710" lon="9.5387700">
	<ele>1702.80</ele>
	<time>2023-10-07T09:58:49.000Z</time>
</trkpt>
<trkpt lat="45.9428700" lon="9.5387540">
	<ele>1702.60</ele>
	<time>2023-10-07T09:58:50.000Z</time>
</trkpt>
<trkpt lat="45.9428650" lon="9.5387380">
	<ele>1702.60</ele>
	<time>2023-10-07T09:58:51.000Z</time>
</trkpt>
<trkpt lat="45.9428600" lon="9.5387210">
	<ele>1702.60</ele>
	<time>2023-10-07T09:58:52.000Z</time>
</trkpt>
<trkpt lat="45.9428550" lon="9.5387060">
	<ele>1702.60</ele>
	<time>2023-10-07T09:58:53.000Z</time>
</trkpt>
<trkpt lat="45.9428510" lon="9.5386940">
	<ele>1702.60</ele>
	<time>2023-10-07T09:58:54.000Z</time>
</trkpt>
<trkpt lat="45.9428430" lon="9.5386830">
	<ele>1702.60</ele>
	<time>2023-10-07T09:58:55.000Z</time>
</trkpt>
<trkpt lat="45.9428350" lon="9.5386730">
	<ele>1702.60</ele>
	<time>2023-10-07T09:58:56.000Z</time>
</trkpt>
<trkpt lat="45.9428270" lon="9.5386620">
	<ele>1702.80</ele>
	<time>2023-10-07T09:58:57.000Z</time>
</trkpt>
<trkpt lat="45.9428170" lon="9.5386530">
	<ele>1702.80</ele>
	<time>2023-10-07T09:58:58.000Z</time>
</trkpt>
<trkpt lat="45.9428070" lon="9.5386380">
	<ele>1703.00</ele>
	<time>2023-10-07T09:58:59.000Z</time>
</trkpt>
<trkpt lat="45.9428000" lon="9.5386290">
	<ele>1703.00</ele>
	<time>2023-10-07T09:59:00.000Z</time>
</trkpt>
<trkpt lat="45.9427910" lon="9.5386160">
	<ele>1703.00</ele>
	<time>2023-10-07T09:59:01.000Z</time>
</trkpt>
<trkpt lat="45.9427820" lon="9.5386070">
	<ele>1703.20</ele>
	<time>2023-10-07T09:59:02.000Z</time>
</trkpt>
<trkpt lat="45.9427750" lon="9.5385980">
	<ele>1703.20</ele>
	<time>2023-10-07T09:59:03.000Z</time>
</trkpt>
<trkpt lat="45.9427680" lon="9.5385870">
	<ele>1703.40</ele>
	<time>2023-10-07T09:59:04.000Z</time>
</trkpt>
<trkpt lat="45.9427620" lon="9.5385760">
	<ele>1703.60</ele>
	<time>2023-10-07T09:59:05.000Z</time>
</trkpt>
<trkpt lat="45.9427560" lon="9.5385680">
	<ele>1703.60</ele>
	<time>2023-10-07T09:59:06.000Z</time>
</trkpt>
<trkpt lat="45.9427520" lon="9.5385600">
	<ele>1703.80</ele>
	<time>2023-10-07T09:59:07.000Z</time>
</trkpt>
<trkpt lat="45.9427500" lon="9.5385530">
	<ele>1703.80</ele>
	<time>2023-10-07T09:59:08.000Z</time>
</trkpt>
<trkpt lat="45.9427500" lon="9.5385420">
	<ele>1704.00</ele>
	<time>2023-10-07T09:59:09.000Z</time>
</trkpt>
<trkpt lat="45.9427500" lon="9.5385290">
	<ele>1704.20</ele>
	<time>2023-10-07T09:59:10.000Z</time>
</trkpt>
<trkpt lat="45.9427500" lon="9.5385170">
	<ele>1704.20</ele>
	<time>2023-10-07T09:59:11.000Z</time>
</trkpt>
<trkpt lat="45.9427500" lon="9.5385080">
	<ele>1704.20</ele>
	<time>2023-10-07T09:59:12.000Z</time>
</trkpt>
<trkpt lat="45.9427510" lon="9.5385000">
	<ele>1704.60</ele>
	<time>2023-10-07T09:59:13.000Z</time>
</trkpt>
<trkpt lat="45.9427510" lon="9.5384940">
	<ele>1704.60</ele>
	<time>2023-10-07T09:59:14.000Z</time>
</trkpt>
<trkpt lat="45.9427520" lon="9.5384800">
	<ele>1704.80</ele>
	<time>2023-10-07T09:59:15.000Z</time>
</trkpt>
<trkpt lat="45.9427530" lon="9.5384700">
	<ele>1704.80</ele>
	<time>2023-10-07T09:59:16.000Z</time>
</trkpt>
<trkpt lat="45.9427490" lon="9.5384610">
	<ele>1704.80</ele>
	<time>2023-10-07T09:59:17.000Z</time>
</trkpt>
<trkpt lat="45.9427460" lon="9.5384500">
	<ele>1704.80</ele>
	<time>2023-10-07T09:59:18.000Z</time>
</trkpt>
<trkpt lat="45.9427470" lon="9.5384370">
	<ele>1704.80</ele>
	<time>2023-10-07T09:59:19.000Z</time>
</trkpt>
<trkpt lat="45.9427480" lon="9.5384280">
	<ele>1704.80</ele>
	<time>2023-10-07T09:59:20.000Z</time>
</trkpt>
<trkpt lat="45.9427540" lon="9.5384200">
	<ele>1704.80</ele>
	<time>2023-10-07T09:59:21.000Z</time>
</trkpt>
<trkpt lat="45.9427590" lon="9.5384180">
	<ele>1704.80</ele>
	<time>2023-10-07T09:59:22.000Z</time>
</trkpt>
<trkpt lat="45.9427620" lon="9.5384170">
	<ele>1704.80</ele>
	<time>2023-10-07T09:59:23.000Z</time>
</trkpt>
<trkpt lat="45.9427650" lon="9.5384190">
	<ele>1704.80</ele>
	<time>2023-10-07T09:59:24.000Z</time>
</trkpt>
<trkpt lat="45.9427660" lon="9.5384220">
	<ele>1705.00</ele>
	<time>2023-10-07T09:59:25.000Z</time>
</trkpt>
<trkpt lat="45.9427710" lon="9.5384220">
	<ele>1705.20</ele>
	<time>2023-10-07T09:59:26.000Z</time>
</trkpt>
<trkpt lat="45.9427750" lon="9.5384170">
	<ele>1705.20</ele>
	<time>2023-10-07T09:59:27.000Z</time>
</trkpt>
<trkpt lat="45.9427770" lon="9.5384080">
	<ele>1705.40</ele>
	<time>2023-10-07T09:59:28.000Z</time>
</trkpt>
<trkpt lat="45.9427780" lon="9.5383980">
	<ele>1705.80</ele>
	<time>2023-10-07T09:59:29.000Z</time>
</trkpt>
<trkpt lat="45.9427800" lon="9.5383880">
	<ele>1705.80</ele>
	<time>2023-10-07T09:59:30.000Z</time>
</trkpt>
<trkpt lat="45.9427830" lon="9.5383830">
	<ele>1706.00</ele>
	<time>2023-10-07T09:59:31.000Z</time>
</trkpt>
<trkpt lat="45.9427850" lon="9.5383750">
	<ele>1706.20</ele>
	<time>2023-10-07T09:59:32.000Z</time>
</trkpt>
<trkpt lat="45.9427880" lon="9.5383650">
	<ele>1706.20</ele>
	<time>2023-10-07T09:59:33.000Z</time>
</trkpt>
<trkpt lat="45.9427890" lon="9.5383600">
	<ele>1706.20</ele>
	<time>2023-10-07T09:59:34.000Z</time>
</trkpt>
<trkpt lat="45.9427920" lon="9.5383470">
	<ele>1706.20</ele>
	<time>2023-10-07T09:59:35.000Z</time>
</trkpt>
<trkpt lat="45.9427940" lon="9.5383380">
	<ele>1706.20</ele>
	<time>2023-10-07T09:59:36.000Z</time>
</trkpt>
<trkpt lat="45.9427980" lon="9.5383290">
	<ele>1706.00</ele>
	<time>2023-10-07T09:59:37.000Z</time>
</trkpt>
<trkpt lat="45.9428040" lon="9.5383200">
	<ele>1706.00</ele>
	<time>2023-10-07T09:59:38.000Z</time>
</trkpt>
<trkpt lat="45.9428070" lon="9.5383170">
	<ele>1706.00</ele>
	<time>2023-10-07T09:59:39.000Z</time>
</trkpt>
<trkpt lat="45.9428100" lon="9.5383150">
	<ele>1706.00</ele>
	<time>2023-10-07T09:59:40.000Z</time>
</trkpt>
<trkpt lat="45.9428120" lon="9.5383150">
	<ele>1706.00</ele>
	<time>2023-10-07T09:59:41.000Z</time>
</trkpt>
<trkpt lat="45.9428130" lon="9.5383120">
	<ele>1706.00</ele>
	<time>2023-10-07T09:59:42.000Z</time>
</trkpt>
<trkpt lat="45.9428120" lon="9.5383090">
	<ele>1706.00</ele>
	<time>2023-10-07T09:59:43.000Z</time>
</trkpt>
<trkpt lat="45.9428120" lon="9.5383040">
	<ele>1706.00</ele>
	<time>2023-10-07T09:59:44.000Z</time>
</trkpt>
<trkpt lat="45.9428110" lon="9.5382970">
	<ele>1706.00</ele>
	<time>2023-10-07T09:59:45.000Z</time>
</trkpt>
<trkpt lat="45.9428160" lon="9.5383030">
	<ele>1706.00</ele>
	<time>2023-10-07T09:59:46.000Z</time>
</trkpt>
<trkpt lat="45.9428180" lon="9.5383040">
	<ele>1706.00</ele>
	<time>2023-10-07T09:59:47.000Z</time>
</trkpt>
<trkpt lat="45.9428200" lon="9.5383070">
	<ele>1706.20</ele>
	<time>2023-10-07T09:59:48.000Z</time>
</trkpt>
<trkpt lat="45.9428110" lon="9.5383700">
	<ele>1709.00</ele>
	<time>2023-10-07T10:29:14.000Z</time>
</trkpt>
<trkpt lat="45.9428740" lon="9.5383010">
	<ele>1709.00</ele>
	<time>2023-10-07T10:29:15.000Z</time>
</trkpt>
<trkpt lat="45.9428730" lon="9.5382520">
	<ele>1709.00</ele>
	<time>2023-10-07T10:29:16.000Z</time>
</trkpt>
<trkpt lat="45.9428400" lon="9.5383080">
	<ele>1709.00</ele>
	<time>2023-10-07T10:29:17.000Z</time>
</trkpt>
<trkpt lat="45.9428430" lon="9.5383500">
	<ele>1709.00</ele>
	<time>2023-10-07T10:29:18.000Z</time>
</trkpt>
<trkpt lat="45.9428280" lon="9.5383730">
	<ele>1709.00</ele>
	<time>2023-10-07T10:29:19.000Z</time>
</trkpt>
<trkpt lat="45.9428150" lon="9.5383970">
	<ele>1709.00</ele>
	<time>2023-10-07T10:29:20.000Z</time>
</trkpt>
<trkpt lat="45.9428110" lon="9.5384160">
	<ele>1708.80</ele>
	<time>2023-10-07T10:29:21.000Z</time>
</trkpt>
<trkpt lat="45.9428040" lon="9.5384130">
	<ele>1708.80</ele>
	<time>2023-10-07T10:29:22.000Z</time>
</trkpt>
<trkpt lat="45.9427960" lon="9.5384050">
	<ele>1708.80</ele>
	<time>2023-10-07T10:29:23.000Z</time>
</trkpt>
<trkpt lat="45.9427910" lon="9.5384100">
	<ele>1708.80</ele>
	<time>2023-10-07T10:29:24.000Z</time>
</trkpt>
<trkpt lat="45.9427820" lon="9.5384130">
	<ele>1708.80</ele>
	<time>2023-10-07T10:29:25.000Z</time>
</trkpt>
<trkpt lat="45.9427740" lon="9.5384190">
	<ele>1708.60</ele>
	<time>2023-10-07T10:29:26.000Z</time>
</trkpt>
<trkpt lat="45.9427660" lon="9.5384230">
	<ele>1708.60</ele>
	<time>2023-10-07T10:29:27.000Z</time>
</trkpt>
<trkpt lat="45.9427590" lon="9.5384170">
	<ele>1708.40</ele>
	<time>2023-10-07T10:29:28.000Z</time>
</trkpt>
<trkpt lat="45.9427540" lon="9.5384160">
	<ele>1708.40</ele>
	<time>2023-10-07T10:29:29.000Z</time>
</trkpt>
<trkpt lat="45.9427490" lon="9.5384120">
	<ele>1708.00</ele>
	<time>2023-10-07T10:29:30.000Z</time>
</trkpt>
<trkpt lat="45.9427450" lon="9.5384090">
	<ele>1708.00</ele>
	<time>2023-10-07T10:29:31.000Z</time>
</trkpt>
<trkpt lat="45.9427420" lon="9.5384060">
	<ele>1707.60</ele>
	<time>2023-10-07T10:29:32.000Z</time>
</trkpt>
<trkpt lat="45.9427380" lon="9.5384100">
	<ele>1707.60</ele>
	<time>2023-10-07T10:29:33.000Z</time>
</trkpt>
<trkpt lat="45.9427340" lon="9.5384090">
	<ele>1707.40</ele>
	<time>2023-10-07T10:29:34.000Z</time>
</trkpt>
<trkpt lat="45.9427310" lon="9.5384030">
	<ele>1707.40</ele>
	<time>2023-10-07T10:29:35.000Z</time>
</trkpt>
<trkpt lat="45.9427260" lon="9.5383970">
	<ele>1707.20</ele>
	<time>2023-10-07T10:29:36.000Z</time>
</trkpt>
<trkpt lat="45.9427220" lon="9.5383870">
	<ele>1707.20</ele>
	<time>2023-10-07T10:29:37.000Z</time>
</trkpt>
<trkpt lat="45.9427170" lon="9.5383750">
	<ele>1707.20</ele>
	<time>2023-10-07T10:29:38.000Z</time>
</trkpt>
<trkpt lat="45.9427140" lon="9.5383660">
	<ele>1707.20</ele>
	<time>2023-10-07T10:29:39.000Z</time>
</trkpt>
<trkpt lat="45.9427110" lon="9.5383590">
	<ele>1707.40</ele>
	<time>2023-10-07T10:29:40.000Z</time>
</trkpt>
<trkpt lat="45.9427080" lon="9.5383560">
	<ele>1707.40</ele>
	<time>2023-10-07T10:29:41.000Z</time>
</trkpt>
<trkpt lat="45.9427070" lon="9.5383460">
	<ele>1707.40</ele>
	<time>2023-10-07T10:29:42.000Z</time>
</trkpt>
<trkpt lat="45.9427090" lon="9.5383390">
	<ele>1707.40</ele>
	<time>2023-10-07T10:29:43.000Z</time>
</trkpt>
<trkpt lat="45.9427120" lon="9.5383400">
	<ele>1707.40</ele>
	<time>2023-10-07T10:29:44.000Z</time>
</trkpt>
<trkpt lat="45.9427150" lon="9.5383410">
	<ele>1707.60</ele>
	<time>2023-10-07T10:29:45.000Z</time>
</trkpt>
<trkpt lat="45.9427120" lon="9.5383390">
	<ele>1707.60</ele>
	<time>2023-10-07T10:29:46.000Z</time>
</trkpt>
<trkpt lat="45.9427040" lon="9.5383350">
	<ele>1707.60</ele>
	<time>2023-10-07T10:29:47.000Z</time>
</trkpt>
<trkpt lat="45.9427010" lon="9.5383230">
	<ele>1707.60</ele>
	<time>2023-10-07T10:29:48.000Z</time>
</trkpt>
<trkpt lat="45.9426970" lon="9.5383130">
	<ele>1707.60</ele>
	<time>2023-10-07T10:29:49.000Z</time>
</trkpt>
<trkpt lat="45.9426910" lon="9.5383080">
	<ele>1707.60</ele>
	<time>2023-10-07T10:29:50.000Z</time>
</trkpt>
<trkpt lat="45.9426850" lon="9.5383060">
	<ele>1707.40</ele>
	<time>2023-10-07T10:29:51.000Z</time>
</trkpt>
<trkpt lat="45.9426800" lon="9.5383050">
	<ele>1707.40</ele>
	<time>2023-10-07T10:29:52.000Z</time>
</trkpt>
<trkpt lat="45.9426750" lon="9.5383090">
	<ele>1707.20</ele>
	<time>2023-10-07T10:29:53.000Z</time>
</trkpt>
<trkpt lat="45.9426690" lon="9.5382990">
	<ele>1707.00</ele>
	<time>2023-10-07T10:29:54.000Z</time>
</trkpt>
<trkpt lat="45.9426640" lon="9.5382910">
	<ele>1706.80</ele>
	<time>2023-10-07T10:29:55.000Z</time>
</trkpt>
<trkpt lat="45.9426650" lon="9.5382850">
	<ele>1706.80</ele>
	<time>2023-10-07T10:29:56.000Z</time>
</trkpt>
<trkpt lat="45.9426640" lon="9.5382730">
	<ele>1706.80</ele>
	<time>2023-10-07T10:29:57.000Z</time>
</trkpt>
<trkpt lat="45.9426600" lon="9.5382660">
	<ele>1706.60</ele>
	<time>2023-10-07T10:29:58.000Z</time>
</trkpt>
<trkpt lat="45.9426570" lon="9.5382630">
	<ele>1706.60</ele>
	<time>2023-10-07T10:29:59.000Z</time>
</trkpt>
<trkpt lat="45.9426520" lon="9.5382540">
	<ele>1706.60</ele>
	<time>2023-10-07T10:30:00.000Z</time>
</trkpt>
<trkpt lat="45.9426490" lon="9.5382450">
	<ele>1706.40</ele>
	<time>2023-10-07T10:30:01.000Z</time>
</trkpt>
<trkpt lat="45.9426500" lon="9.5382400">
	<ele>1706.40</ele>
	<time>2023-10-07T10:30:02.000Z</time>
</trkpt>
<trkpt lat="45.9426510" lon="9.5382400">
	<ele>1706.40</ele>
	<time>2023-10-07T10:30:03.000Z</time>
</trkpt>
<trkpt lat="45.9426510" lon="9.5382410">
	<ele>1706.20</ele>
	<time>2023-10-07T10:30:04.000Z</time>
</trkpt>
<trkpt lat="45.9426520" lon="9.5382400">
	<ele>1706.40</ele>
	<time>2023-10-07T10:30:05.000Z</time>
</trkpt>
<trkpt lat="45.9426550" lon="9.5382440">
	<ele>1706.40</ele>
	<time>2023-10-07T10:30:06.000Z</time>
</trkpt>
<trkpt lat="45.9426550" lon="9.5382460">
	<ele>1706.40</ele>
	<time>2023-10-07T10:30:07.000Z</time>
</trkpt>
<trkpt lat="45.9426550" lon="9.5382450">
	<ele>1706.40</ele>
	<time>2023-10-07T10:30:08.000Z</time>
</trkpt>
<trkpt lat="45.9426530" lon="9.5382420">
	<ele>1706.40</ele>
	<time>2023-10-07T10:30:09.000Z</time>
</trkpt>
<trkpt lat="45.9426520" lon="9.5382370">
	<ele>1706.40</ele>
	<time>2023-10-07T10:30:10.000Z</time>
</trkpt>
<trkpt lat="45.9426490" lon="9.5382330">
	<ele>1706.40</ele>
	<time>2023-10-07T10:30:11.000Z</time>
</trkpt>
<trkpt lat="45.9426440" lon="9.5382290">
	<ele>1706.20</ele>
	<time>2023-10-07T10:30:12.000Z</time>
</trkpt>
<trkpt lat="45.9426320" lon="9.5382240">
	<ele>1706.00</ele>
	<time>2023-10-07T10:30:13.000Z</time>
</trkpt>
<trkpt lat="45.9426220" lon="9.5382210">
	<ele>1705.80</ele>
	<time>2023-10-07T10:30:14.000Z</time>
</trkpt>
<trkpt lat="45.9426120" lon="9.5382200">
	<ele>1705.80</ele>
	<time>2023-10-07T10:30:15.000Z</time>
</trkpt>
<trkpt lat="45.9426030" lon="9.5382200">
	<ele>1705.60</ele>
	<time>2023-10-07T10:30:16.000Z</time>
</trkpt>
<trkpt lat="45.9425920" lon="9.5382200">
	<ele>1705.60</ele>
	<time>2023-10-07T10:30:17.000Z</time>
</trkpt>
<trkpt lat="45.9425860" lon="9.5382110">
	<ele>1705.40</ele>
	<time>2023-10-07T10:30:18.000Z</time>
</trkpt>
<trkpt lat="45.9425810" lon="9.5381960">
	<ele>1705.40</ele>
	<time>2023-10-07T10:30:19.000Z</time>
</trkpt>
<trkpt lat="45.9425770" lon="9.5381860">
	<ele>1705.20</ele>
	<time>2023-10-07T10:30:20.000Z</time>
</trkpt>
<trkpt lat="45.9425760" lon="9.5381780">
	<ele>1704.80</ele>
	<time>2023-10-07T10:30:21.000Z</time>
</trkpt>
<trkpt lat="45.9425780" lon="9.5381710">
	<ele>1704.60</ele>
	<time>2023-10-07T10:30:22.000Z</time>
</trkpt>
<trkpt lat="45.9425760" lon="9.5381690">
	<ele>1704.40</ele>
	<time>2023-10-07T10:30:23.000Z</time>
</trkpt>
<trkpt lat="45.9425760" lon="9.5381670">
	<ele>1704.40</ele>
	<time>2023-10-07T10:30:24.000Z</time>
</trkpt>
<trkpt lat="45.9425720" lon="9.5381660">
	<ele>1704.40</ele>
	<time>2023-10-07T10:30:25.000Z</time>
</trkpt>
<trkpt lat="45.9425720" lon="9.5381660">
	<ele>1704.40</ele>
	<time>2023-10-07T10:30:26.000Z</time>
</trkpt>
<trkpt lat="45.9425730" lon="9.5381630">
	<ele>1704.40</ele>
	<time>2023-10-07T10:30:27.000Z</time>
</trkpt>
<trkpt lat="45.9425770" lon="9.5381570">
	<ele>1704.40</ele>
	<time>2023-10-07T10:30:28.000Z</time>
</trkpt>
<trkpt lat="45.9425760" lon="9.5381590">
	<ele>1704.40</ele>
	<time>2023-10-07T10:30:29.000Z</time>
</trkpt>
<trkpt lat="45.9425750" lon="9.5381550">
	<ele>1704.40</ele>
	<time>2023-10-07T10:30:30.000Z</time>
</trkpt>
<trkpt lat="45.9425670" lon="9.5381490">
	<ele>1704.40</ele>
	<time>2023-10-07T10:30:31.000Z</time>
</trkpt>
<trkpt lat="45.9425630" lon="9.5381410">
	<ele>1704.40</ele>
	<time>2023-10-07T10:30:32.000Z</time>
</trkpt>
<trkpt lat="45.9425580" lon="9.5381350">
	<ele>1703.80</ele>
	<time>2023-10-07T10:30:33.000Z</time>
</trkpt>
<trkpt lat="45.9425520" lon="9.5381290">
	<ele>1703.60</ele>
	<time>2023-10-07T10:30:34.000Z</time>
</trkpt>
<trkpt lat="45.9425490" lon="9.5381240">
	<ele>1703.40</ele>
	<time>2023-10-07T10:30:35.000Z</time>
</trkpt>
<trkpt lat="45.9425470" lon="9.5381190">
	<ele>1703.20</ele>
	<time>2023-10-07T10:30:36.000Z</time>
</trkpt>
<trkpt lat="45.9425460" lon="9.5381130">
	<ele>1702.80</ele>
	<time>2023-10-07T10:30:37.000Z</time>
</trkpt>
<trkpt lat="45.9425440" lon="9.5381050">
	<ele>1702.60</ele>
	<time>2023-10-07T10:30:38.000Z</time>
</trkpt>
<trkpt lat="45.9425400" lon="9.5380960">
	<ele>1702.60</ele>
	<time>2023-10-07T10:30:39.000Z</time>
</trkpt>
<trkpt lat="45.9425380" lon="9.5380880">
	<ele>1702.40</ele>
	<time>2023-10-07T10:30:40.000Z</time>
</trkpt>
<trkpt lat="45.9425350" lon="9.5380830">
	<ele>1702.20</ele>
	<time>2023-10-07T10:30:41.000Z</time>
</trkpt>
<trkpt lat="45.9425300" lon="9.5380740">
	<ele>1702.00</ele>
	<time>2023-10-07T10:30:42.000Z</time>
</trkpt>
<trkpt lat="45.9425230" lon="9.5380680">
	<ele>1702.00</ele>
	<time>2023-10-07T10:30:43.000Z</time>
</trkpt>
<trkpt lat="45.9425160" lon="9.5380620">
	<ele>1701.80</ele>
	<time>2023-10-07T10:30:44.000Z</time>
</trkpt>
<trkpt lat="45.9425110" lon="9.5380560">
	<ele>1701.40</ele>
	<time>2023-10-07T10:30:45.000Z</time>
</trkpt>
<trkpt lat="45.9425050" lon="9.5380450">
	<ele>1701.20</ele>
	<time>2023-10-07T10:30:46.000Z</time>
</trkpt>
<trkpt lat="45.9425010" lon="9.5380330">
	<ele>1701.00</ele>
	<time>2023-10-07T10:30:47.000Z</time>
</trkpt>
<trkpt lat="45.9424930" lon="9.5380260">
	<ele>1700.80</ele>
	<time>2023-10-07T10:30:48.000Z</time>
</trkpt>
<trkpt lat="45.9424880" lon="9.5380190">
	<ele>1700.60</ele>
	<time>2023-10-07T10:30:49.000Z</time>
</trkpt>
<trkpt lat="45.9424800" lon="9.5380160">
	<ele>1700.60</ele>
	<time>2023-10-07T10:30:50.000Z</time>
</trkpt>
<trkpt lat="45.9424710" lon="9.5380200">
	<ele>1700.40</ele>
	<time>2023-10-07T10:30:51.000Z</time>
</trkpt>
<trkpt lat="45.9424630" lon="9.5380280">
	<ele>1700.40</ele>
	<time>2023-10-07T10:30:52.000Z</time>
</trkpt>
<trkpt lat="45.9424580" lon="9.5380260">
	<ele>1700.20</ele>
	<time>2023-10-07T10:30:53.000Z</time>
</trkpt>
<trkpt lat="45.9424530" lon="9.5380290">
	<ele>1700.00</ele>
	<time>2023-10-07T10:30:54.000Z</time>
</trkpt>
<trkpt lat="45.9424460" lon="9.5380310">
	<ele>1699.80</ele>
	<time>2023-10-07T10:30:55.000Z</time>
</trkpt>
<trkpt lat="45.9424380" lon="9.5380310">
	<ele>1699.60</ele>
	<time>2023-10-07T10:30:56.000Z</time>
</trkpt>
<trkpt lat="45.9424280" lon="9.5380340">
	<ele>1699.40</ele>
	<time>2023-10-07T10:30:57.000Z</time>
</trkpt>
<trkpt lat="45.9424190" lon="9.5380370">
	<ele>1699.20</ele>
	<time>2023-10-07T10:30:58.000Z</time>
</trkpt>
<trkpt lat="45.9424090" lon="9.5380400">
	<ele>1699.00</ele>
	<time>2023-10-07T10:30:59.000Z</time>
</trkpt>
<trkpt lat="45.9424010" lon="9.5380400">
	<ele>1698.80</ele>
	<time>2023-10-07T10:31:00.000Z</time>
</trkpt>
<trkpt lat="45.9423930" lon="9.5380390">
	<ele>1698.60</ele>
	<time>2023-10-07T10:31:01.000Z</time>
</trkpt>
<trkpt lat="45.9423900" lon="9.5380410">
	<ele>1698.60</ele>
	<time>2023-10-07T10:31:02.000Z</time>
</trkpt>
<trkpt lat="45.9423830" lon="9.5380430">
	<ele>1698.40</ele>
	<time>2023-10-07T10:31:03.000Z</time>
</trkpt>
<trkpt lat="45.9423730" lon="9.5380390">
	<ele>1698.20</ele>
	<time>2023-10-07T10:31:04.000Z</time>
</trkpt>
<trkpt lat="45.9423630" lon="9.5380390">
	<ele>1698.00</ele>
	<time>2023-10-07T10:31:05.000Z</time>
</trkpt>
<trkpt lat="45.9423550" lon="9.5380430">
	<ele>1697.80</ele>
	<time>2023-10-07T10:31:06.000Z</time>
</trkpt>
<trkpt lat="45.9423440" lon="9.5380410">
	<ele>1697.60</ele>
	<time>2023-10-07T10:31:07.000Z</time>
</trkpt>
<trkpt lat="45.9423350" lon="9.5380390">
	<ele>1697.40</ele>
	<time>2023-10-07T10:31:08.000Z</time>
</trkpt>
<trkpt lat="45.9423170" lon="9.5380370">
	<ele>1697.20</ele>
	<time>2023-10-07T10:31:09.000Z</time>
</trkpt>
<trkpt lat="45.9423050" lon="9.5380380">
	<ele>1697.00</ele>
	<time>2023-10-07T10:31:10.000Z</time>
</trkpt>
<trkpt lat="45.9422980" lon="9.5380350">
	<ele>1696.60</ele>
	<time>2023-10-07T10:31:11.000Z</time>
</trkpt>
<trkpt lat="45.9422900" lon="9.5380330">
	<ele>1696.40</ele>
	<time>2023-10-07T10:31:12.000Z</time>
</trkpt>
<trkpt lat="45.9422830" lon="9.5380330">
	<ele>1696.20</ele>
	<time>2023-10-07T10:31:13.000Z</time>
</trkpt>
<trkpt lat="45.9422760" lon="9.5380290">
	<ele>1696.00</ele>
	<time>2023-10-07T10:31:14.000Z</time>
</trkpt>
<trkpt lat="45.9422700" lon="9.5380300">
	<ele>1695.80</ele>
	<time>2023-10-07T10:31:15.000Z</time>
</trkpt>
<trkpt lat="45.9422670" lon="9.5380400">
	<ele>1695.60</ele>
	<time>2023-10-07T10:31:16.000Z</time>
</trkpt>
<trkpt lat="45.9422590" lon="9.5380400">
	<ele>1695.20</ele>
	<time>2023-10-07T10:31:17.000Z</time>
</trkpt>
<trkpt lat="45.9422520" lon="9.5380330">
	<ele>1695.00</ele>
	<time>2023-10-07T10:31:18.000Z</time>
</trkpt>
<trkpt lat="45.9422480" lon="9.5380270">
	<ele>1694.80</ele>
	<time>2023-10-07T10:31:19.000Z</time>
</trkpt>
<trkpt lat="45.9422360" lon="9.5380230">
	<ele>1694.20</ele>
	<time>2023-10-07T10:31:20.000Z</time>
</trkpt>
<trkpt lat="45.9422230" lon="9.5380160">
	<ele>1693.80</ele>
	<time>2023-10-07T10:31:21.000Z</time>
</trkpt>
<trkpt lat="45.9422100" lon="9.5380070">
	<ele>1693.40</ele>
	<time>2023-10-07T10:31:22.000Z</time>
</trkpt>
<trkpt lat="45.9421990" lon="9.5380010">
	<ele>1693.20</ele>
	<time>2023-10-07T10:31:23.000Z</time>
</trkpt>
<trkpt lat="45.9421900" lon="9.5380120">
	<ele>1693.00</ele>
	<time>2023-10-07T10:31:24.000Z</time>
</trkpt>
<trkpt lat="45.9421800" lon="9.5380180">
	<ele>1692.80</ele>
	<time>2023-10-07T10:31:25.000Z</time>
</trkpt>
<trkpt lat="45.9421680" lon="9.5380190">
	<ele>1692.40</ele>
	<time>2023-10-07T10:31:26.000Z</time>
</trkpt>
<trkpt lat="45.9421550" lon="9.5380200">
	<ele>1692.20</ele>
	<time>2023-10-07T10:31:27.000Z</time>
</trkpt>
<trkpt lat="45.9421470" lon="9.5380180">
	<ele>1692.00</ele>
	<time>2023-10-07T10:31:28.000Z</time>
</trkpt>
<trkpt lat="45.9421360" lon="9.5380220">
	<ele>1691.80</ele>
	<time>2023-10-07T10:31:29.000Z</time>
</trkpt>
<trkpt lat="45.9421250" lon="9.5380300">
	<ele>1691.80</ele>
	<time>2023-10-07T10:31:30.000Z</time>
</trkpt>
<trkpt lat="45.9421140" lon="9.5380440">
	<ele>1691.60</ele>
	<time>2023-10-07T10:31:31.000Z</time>
</trkpt>
<trkpt lat="45.9421030" lon="9.5380560">
	<ele>1691.40</ele>
	<time>2023-10-07T10:31:32.000Z</time>
</trkpt>
<trkpt lat="45.9420930" lon="9.5380640">
	<ele>1691.20</ele>
	<time>2023-10-07T10:31:33.000Z</time>
</trkpt>
<trkpt lat="45.9420800" lon="9.5380690">
	<ele>1691.00</ele>
	<time>2023-10-07T10:31:34.000Z</time>
</trkpt>
<trkpt lat="45.9420770" lon="9.5380810">
	<ele>1691.00</ele>
	<time>2023-10-07T10:31:35.000Z</time>
</trkpt>
<trkpt lat="45.9420770" lon="9.5380950">
	<ele>1691.00</ele>
	<time>2023-10-07T10:31:36.000Z</time>
</trkpt>
<trkpt lat="45.9420770" lon="9.5381040">
	<ele>1690.80</ele>
	<time>2023-10-07T10:31:37.000Z</time>
</trkpt>
<trkpt lat="45.9420770" lon="9.5381060">
	<ele>1690.60</ele>
	<time>2023-10-07T10:31:38.000Z</time>
</trkpt>
<trkpt lat="45.9420740" lon="9.5381170">
	<ele>1690.60</ele>
	<time>2023-10-07T10:31:39.000Z</time>
</trkpt>
<trkpt lat="45.9420720" lon="9.5381380">
	<ele>1690.60</ele>
	<time>2023-10-07T10:31:40.000Z</time>
</trkpt>
<trkpt lat="45.9420700" lon="9.5381640">
	<ele>1690.40</ele>
	<time>2023-10-07T10:31:41.000Z</time>
</trkpt>
<trkpt lat="45.9420640" lon="9.5381800">
	<ele>1690.20</ele>
	<time>2023-10-07T10:31:42.000Z</time>
</trkpt>
<trkpt lat="45.9420620" lon="9.5382000">
	<ele>1690.20</ele>
	<time>2023-10-07T10:31:43.000Z</time>
</trkpt>
<trkpt lat="45.9420550" lon="9.5382140">
	<ele>1690.20</ele>
	<time>2023-10-07T10:31:44.000Z</time>
</trkpt>
<trkpt lat="45.9420440" lon="9.5382190">
	<ele>1690.00</ele>
	<time>2023-10-07T10:31:45.000Z</time>
</trkpt>
<trkpt lat="45.9420380" lon="9.5382260">
	<ele>1690.00</ele>
	<time>2023-10-07T10:31:46.000Z</time>
</trkpt>
<trkpt lat="45.9420340" lon="9.5382350">
	<ele>1690.00</ele>
	<time>2023-10-07T10:31:47.000Z</time>
</trkpt>
<trkpt lat="45.9420260" lon="9.5382450">
	<ele>1689.80</ele>
	<time>2023-10-07T10:31:48.000Z</time>
</trkpt>
<trkpt lat="45.9420180" lon="9.5382520">
	<ele>1689.80</ele>
	<time>2023-10-07T10:31:49.000Z</time>
</trkpt>
<trkpt lat="45.9420110" lon="9.5382600">
	<ele>1689.60</ele>
	<time>2023-10-07T10:31:50.000Z</time>
</trkpt>
<trkpt lat="45.9420060" lon="9.5382680">
	<ele>1689.40</ele>
	<time>2023-10-07T10:31:51.000Z</time>
</trkpt>
<trkpt lat="45.9420010" lon="9.5382790">
	<ele>1689.20</ele>
	<time>2023-10-07T10:31:52.000Z</time>
</trkpt>
<trkpt lat="45.9420000" lon="9.5382940">
	<ele>1689.00</ele>
	<time>2023-10-07T10:31:53.000Z</time>
</trkpt>
<trkpt lat="45.9419980" lon="9.5383080">
	<ele>1688.80</ele>
	<time>2023-10-07T10:31:54.000Z</time>
</trkpt>
<trkpt lat="45.9419940" lon="9.5383130">
	<ele>1688.60</ele>
	<time>2023-10-07T10:31:55.000Z</time>
</trkpt>
<trkpt lat="45.9419870" lon="9.5383210">
	<ele>1688.60</ele>
	<time>2023-10-07T10:31:56.000Z</time>
</trkpt>
<trkpt lat="45.9419810" lon="9.5383330">
	<ele>1688.60</ele>
	<time>2023-10-07T10:31:57.000Z</time>
</trkpt>
<trkpt lat="45.9419740" lon="9.5383390">
	<ele>1688.00</ele>
	<time>2023-10-07T10:31:58.000Z</time>
</trkpt>
<trkpt lat="45.9419650" lon="9.5383470">
	<ele>1687.80</ele>
	<time>2023-10-07T10:31:59.000Z</time>
</trkpt>
<trkpt lat="45.9419580" lon="9.5383540">
	<ele>1687.60</ele>
	<time>2023-10-07T10:32:00.000Z</time>
</trkpt>
<trkpt lat="45.9419490" lon="9.5383590">
	<ele>1687.20</ele>
	<time>2023-10-07T10:32:01.000Z</time>
</trkpt>
<trkpt lat="45.9419410" lon="9.5383670">
	<ele>1687.00</ele>
	<time>2023-10-07T10:32:02.000Z</time>
</trkpt>
<trkpt lat="45.9419330" lon="9.5383740">
	<ele>1687.00</ele>
	<time>2023-10-07T10:32:03.000Z</time>
</trkpt>
<trkpt lat="45.9419250" lon="9.5383830">
	<ele>1686.80</ele>
	<time>2023-10-07T10:32:04.000Z</time>
</trkpt>
<trkpt lat="45.9419170" lon="9.5383950">
	<ele>1686.60</ele>
	<time>2023-10-07T10:32:05.000Z</time>
</trkpt>
<trkpt lat="45.9419110" lon="9.5384010">
	<ele>1686.60</ele>
	<time>2023-10-07T10:32:06.000Z</time>
</trkpt>
<trkpt lat="45.9419050" lon="9.5384110">
	<ele>1686.40</ele>
	<time>2023-10-07T10:32:07.000Z</time>
</trkpt>
<trkpt lat="45.9418980" lon="9.5384180">
	<ele>1686.20</ele>
	<time>2023-10-07T10:32:08.000Z</time>
</trkpt>
<trkpt lat="45.9418930" lon="9.5384280">
	<ele>1686.00</ele>
	<time>2023-10-07T10:32:09.000Z</time>
</trkpt>
<trkpt lat="45.9418870" lon="9.5384400">
	<ele>1685.80</ele>
	<time>2023-10-07T10:32:10.000Z</time>
</trkpt>
<trkpt lat="45.9418860" lon="9.5384570">
	<ele>1685.60</ele>
	<time>2023-10-07T10:32:11.000Z</time>
</trkpt>
<trkpt lat="45.9418850" lon="9.5384690">
	<ele>1685.40</ele>
	<time>2023-10-07T10:32:12.000Z</time>
</trkpt>
<trkpt lat="45.9418760" lon="9.5384780">
	<ele>1685.20</ele>
	<time>2023-10-07T10:32:13.000Z</time>
</trkpt>
<trkpt lat="45.9418710" lon="9.5384930">
	<ele>1685.20</ele>
	<time>2023-10-07T10:32:14.000Z</time>
</trkpt>
<trkpt lat="45.9418670" lon="9.5385060">
	<ele>1685.00</ele>
	<time>2023-10-07T10:32:15.000Z</time>
</trkpt>
<trkpt lat="45.9418680" lon="9.5385200">
	<ele>1685.00</ele>
	<time>2023-10-07T10:32:16.000Z</time>
</trkpt>
<trkpt lat="45.9418690" lon="9.5385350">
	<ele>1685.00</ele>
	<time>2023-10-07T10:32:17.000Z</time>
</trkpt>
<trkpt lat="45.9418660" lon="9.5385530">
	<ele>1684.80</ele>
	<time>2023-10-07T10:32:18.000Z</time>
</trkpt>
<trkpt lat="45.9418630" lon="9.5385640">
	<ele>1684.60</ele>
	<time>2023-10-07T10:32:19.000Z</time>
</trkpt>
<trkpt lat="45.9418620" lon="9.5385770">
	<ele>1684.40</ele>
	<time>2023-10-07T10:32:20.000Z</time>
</trkpt>
<trkpt lat="45.9418560" lon="9.5385840">
	<ele>1684.20</ele>
	<time>2023-10-07T10:32:21.000Z</time>
</trkpt>
<trkpt lat="45.9418510" lon="9.5385980">
	<ele>1683.80</ele>
	<time>2023-10-07T10:32:22.000Z</time>
</trkpt>
<trkpt lat="45.9418410" lon="9.5386110">
	<ele>1683.60</ele>
	<time>2023-10-07T10:32:23.000Z</time>
</trkpt>
<trkpt lat="45.9418330" lon="9.5386240">
	<ele>1683.40</ele>
	<time>2023-10-07T10:32:24.000Z</time>
</trkpt>
<trkpt lat="45.9418290" lon="9.5386430">
	<ele>1683.40</ele>
	<time>2023-10-07T10:32:25.000Z</time>
</trkpt>
<trkpt lat="45.9418210" lon="9.5386560">
	<ele>1683.20</ele>
	<time>2023-10-07T10:32:26.000Z</time>
</trkpt>
<trkpt lat="45.9418090" lon="9.5386640">
	<ele>1683.00</ele>
	<time>2023-10-07T10:32:27.000Z</time>
</trkpt>
<trkpt lat="45.9417990" lon="9.5386670">
	<ele>1683.00</ele>
	<time>2023-10-07T10:32:28.000Z</time>
</trkpt>
<trkpt lat="45.9417900" lon="9.5386690">
	<ele>1682.80</ele>
	<time>2023-10-07T10:32:29.000Z</time>
</trkpt>
<trkpt lat="45.9417830" lon="9.5386780">
	<ele>1682.80</ele>
	<time>2023-10-07T10:32:30.000Z</time>
</trkpt>
<trkpt lat="45.9417680" lon="9.5386910">
	<ele>1682.60</ele>
	<time>2023-10-07T10:32:31.000Z</time>
</trkpt>
<trkpt lat="45.9417570" lon="9.5387040">
	<ele>1682.60</ele>
	<time>2023-10-07T10:32:32.000Z</time>
</trkpt>
<trkpt lat="45.9417450" lon="9.5387150">
	<ele>1682.60</ele>
	<time>2023-10-07T10:32:33.000Z</time>
</trkpt>
<trkpt lat="45.9417360" lon="9.5387220">
	<ele>1682.60</ele>
	<time>2023-10-07T10:32:34.000Z</time>
</trkpt>
<trkpt lat="45.9417240" lon="9.5387240">
	<ele>1682.40</ele>
	<time>2023-10-07T10:32:35.000Z</time>
</trkpt>
<trkpt lat="45.9417140" lon="9.5387320">
	<ele>1682.20</ele>
	<time>2023-10-07T10:32:36.000Z</time>
</trkpt>
<trkpt lat="45.9417040" lon="9.5387380">
	<ele>1682.20</ele>
	<time>2023-10-07T10:32:37.000Z</time>
</trkpt>
<trkpt lat="45.9416920" lon="9.5387430">
	<ele>1682.00</ele>
	<time>2023-10-07T10:32:38.000Z</time>
</trkpt>
<trkpt lat="45.9416820" lon="9.5387490">
	<ele>1682.00</ele>
	<time>2023-10-07T10:32:39.000Z</time>
</trkpt>
<trkpt lat="45.9416690" lon="9.5387490">
	<ele>1681.80</ele>
	<time>2023-10-07T10:32:40.000Z</time>
</trkpt>
<trkpt lat="45.9416540" lon="9.5387550">
	<ele>1681.80</ele>
	<time>2023-10-07T10:32:41.000Z</time>
</trkpt>
<trkpt lat="45.9416420" lon="9.5387580">
	<ele>1681.80</ele>
	<time>2023-10-07T10:32:42.000Z</time>
</trkpt>
<trkpt lat="45.9416280" lon="9.5387650">
	<ele>1681.80</ele>
	<time>2023-10-07T10:32:43.000Z</time>
</trkpt>
<trkpt lat="45.9416160" lon="9.5387680">
	<ele>1681.80</ele>
	<time>2023-10-07T10:32:44.000Z</time>
</trkpt>
<trkpt lat="45.9416030" lon="9.5387720">
	<ele>1681.80</ele>
	<time>2023-10-07T10:32:45.000Z</time>
</trkpt>
<trkpt lat="45.9415930" lon="9.5387740">
	<ele>1681.80</ele>
	<time>2023-10-07T10:32:46.000Z</time>
</trkpt>
<trkpt lat="45.9415820" lon="9.5387760">
	<ele>1681.80</ele>
	<time>2023-10-07T10:32:47.000Z</time>
</trkpt>
<trkpt lat="45.9415710" lon="9.5387820">
	<ele>1681.80</ele>
	<time>2023-10-07T10:32:48.000Z</time>
</trkpt>
<trkpt lat="45.9415590" lon="9.5387890">
	<ele>1681.80</ele>
	<time>2023-10-07T10:32:49.000Z</time>
</trkpt>
<trkpt lat="45.9415500" lon="9.5387900">
	<ele>1681.60</ele>
	<time>2023-10-07T10:32:50.000Z</time>
</trkpt>
<trkpt lat="45.9415430" lon="9.5387920">
	<ele>1681.60</ele>
	<time>2023-10-07T10:32:51.000Z</time>
</trkpt>
<trkpt lat="45.9415330" lon="9.5387990">
	<ele>1681.60</ele>
	<time>2023-10-07T10:32:52.000Z</time>
</trkpt>
<trkpt lat="45.9415210" lon="9.5388070">
	<ele>1681.20</ele>
	<time>2023-10-07T10:32:53.000Z</time>
</trkpt>
<trkpt lat="45.9415140" lon="9.5388160">
	<ele>1681.00</ele>
	<time>2023-10-07T10:32:54.000Z</time>
</trkpt>
<trkpt lat="45.9415040" lon="9.5388300">
	<ele>1681.00</ele>
	<time>2023-10-07T10:32:55.000Z</time>
</trkpt>
<trkpt lat="45.9414940" lon="9.5388430">
	<ele>1680.60</ele>
	<time>2023-10-07T10:32:56.000Z</time>
</trkpt>
<trkpt lat="45.9414850" lon="9.5388480">
	<ele>1680.40</ele>
	<time>2023-10-07T10:32:57.000Z</time>
</trkpt>
<trkpt lat="45.9414810" lon="9.5388490">
	<ele>1680.20</ele>
	<time>2023-10-07T10:32:58.000Z</time>
</trkpt>
<trkpt lat="45.9414790" lon="9.5388590">
	<ele>1680.20</ele>
	<time>2023-10-07T10:32:59.000Z</time>
</trkpt>
<trkpt lat="45.9414750" lon="9.5388720">
	<ele>1680.00</ele>
	<time>2023-10-07T10:33:00.000Z</time>
</trkpt>
<trkpt lat="45.9414710" lon="9.5388900">
	<ele>1679.80</ele>
	<time>2023-10-07T10:33:01.000Z</time>
</trkpt>
<trkpt lat="45.9414660" lon="9.5389060">
	<ele>1679.80</ele>
	<time>2023-10-07T10:33:02.000Z</time>
</trkpt>
<trkpt lat="45.9414620" lon="9.5389160">
	<ele>1679.80</ele>
	<time>2023-10-07T10:33:03.000Z</time>
</trkpt>
<trkpt lat="45.9414540" lon="9.5389190">
	<ele>1679.60</ele>
	<time>2023-10-07T10:33:04.000Z</time>
</trkpt>
<trkpt lat="45.9414450" lon="9.5389230">
	<ele>1679.40</ele>
	<time>2023-10-07T10:33:05.000Z</time>
</trkpt>
<trkpt lat="45.9414360" lon="9.5389270">
	<ele>1679.40</ele>
	<time>2023-10-07T10:33:06.000Z</time>
</trkpt>
<trkpt lat="45.9414260" lon="9.5389340">
	<ele>1679.20</ele>
	<time>2023-10-07T10:33:07.000Z</time>
</trkpt>
<trkpt lat="45.9414120" lon="9.5389400">
	<ele>1679.20</ele>
	<time>2023-10-07T10:33:08.000Z</time>
</trkpt>
<trkpt lat="45.9414050" lon="9.5389450">
	<ele>1678.80</ele>
	<time>2023-10-07T10:33:09.000Z</time>
</trkpt>
<trkpt lat="45.9413980" lon="9.5389440">
	<ele>1678.40</ele>
	<time>2023-10-07T10:33:10.000Z</time>
</trkpt>
<trkpt lat="45.9413880" lon="9.5389500">
	<ele>1678.20</ele>
	<time>2023-10-07T10:33:11.000Z</time>
</trkpt>
<trkpt lat="45.9413810" lon="9.5389530">
	<ele>1678.00</ele>
	<time>2023-10-07T10:33:12.000Z</time>
</trkpt>
<trkpt lat="45.9413740" lon="9.5389570">
	<ele>1677.80</ele>
	<time>2023-10-07T10:33:13.000Z</time>
</trkpt>
<trkpt lat="45.9413720" lon="9.5389570">
	<ele>1677.80</ele>
	<time>2023-10-07T10:33:14.000Z</time>
</trkpt>
<trkpt lat="45.9413680" lon="9.5389610">
	<ele>1677.60</ele>
	<time>2023-10-07T10:33:15.000Z</time>
</trkpt>
<trkpt lat="45.9413670" lon="9.5389710">
	<ele>1677.60</ele>
	<time>2023-10-07T10:33:16.000Z</time>
</trkpt>
<trkpt lat="45.9413690" lon="9.5389680">
	<ele>1677.40</ele>
	<time>2023-10-07T10:33:17.000Z</time>
</trkpt>
<trkpt lat="45.9413720" lon="9.5389740">
	<ele>1677.20</ele>
	<time>2023-10-07T10:33:18.000Z</time>
</trkpt>
<trkpt lat="45.9413750" lon="9.5389880">
	<ele>1676.80</ele>
	<time>2023-10-07T10:33:19.000Z</time>
</trkpt>
<trkpt lat="45.9413730" lon="9.5390010">
	<ele>1676.60</ele>
	<time>2023-10-07T10:33:20.000Z</time>
</trkpt>
<trkpt lat="45.9413670" lon="9.5390140">
	<ele>1676.40</ele>
	<time>2023-10-07T10:33:21.000Z</time>
</trkpt>
<trkpt lat="45.9413590" lon="9.5390220">
	<ele>1676.40</ele>
	<time>2023-10-07T10:33:22.000Z</time>
</trkpt>
<trkpt lat="45.9413520" lon="9.5390320">
	<ele>1676.20</ele>
	<time>2023-10-07T10:33:23.000Z</time>
</trkpt>
<trkpt lat="45.9413420" lon="9.5390420">
	<ele>1676.00</ele>
	<time>2023-10-07T10:33:24.000Z</time>
</trkpt>
<trkpt lat="45.9413330" lon="9.5390540">
	<ele>1675.80</ele>
	<time>2023-10-07T10:33:25.000Z</time>
</trkpt>
<trkpt lat="45.9413260" lon="9.5390640">
	<ele>1675.60</ele>
	<time>2023-10-07T10:33:26.000Z</time>
</trkpt>
<trkpt lat="45.9413170" lon="9.5390700">
	<ele>1675.40</ele>
	<time>2023-10-07T10:33:27.000Z</time>
</trkpt>
<trkpt lat="45.9413090" lon="9.5390800">
	<ele>1675.20</ele>
	<time>2023-10-07T10:33:28.000Z</time>
</trkpt>
<trkpt lat="45.9412960" lon="9.5390870">
	<ele>1675.20</ele>
	<time>2023-10-07T10:33:29.000Z</time>
</trkpt>
<trkpt lat="45.9412840" lon="9.5390920">
	<ele>1675.00</ele>
	<time>2023-10-07T10:33:30.000Z</time>
</trkpt>
<trkpt lat="45.9412700" lon="9.5390970">
	<ele>1674.80</ele>
	<time>2023-10-07T10:33:31.000Z</time>
</trkpt>
<trkpt lat="45.9412590" lon="9.5391000">
	<ele>1674.80</ele>
	<time>2023-10-07T10:33:32.000Z</time>
</trkpt>
<trkpt lat="45.9412470" lon="9.5391030">
	<ele>1674.60</ele>
	<time>2023-10-07T10:33:33.000Z</time>
</trkpt>
<trkpt lat="45.9412360" lon="9.5391040">
	<ele>1674.60</ele>
	<time>2023-10-07T10:33:34.000Z</time>
</trkpt>
<trkpt lat="45.9412220" lon="9.5390960">
	<ele>1674.40</ele>
	<time>2023-10-07T10:33:35.000Z</time>
</trkpt>
<trkpt lat="45.9412130" lon="9.5390960">
	<ele>1674.40</ele>
	<time>2023-10-07T10:33:36.000Z</time>
</trkpt>
<trkpt lat="45.9412030" lon="9.5390940">
	<ele>1674.20</ele>
	<time>2023-10-07T10:33:37.000Z</time>
</trkpt>
<trkpt lat="45.9411930" lon="9.5390900">
	<ele>1674.00</ele>
	<time>2023-10-07T10:33:38.000Z</time>
</trkpt>
<trkpt lat="45.9411820" lon="9.5390840">
	<ele>1674.00</ele>
	<time>2023-10-07T10:33:39.000Z</time>
</trkpt>
<trkpt lat="45.9411740" lon="9.5390760">
	<ele>1673.80</ele>
	<time>2023-10-07T10:33:40.000Z</time>
</trkpt>
<trkpt lat="45.9411680" lon="9.5390680">
	<ele>1673.60</ele>
	<time>2023-10-07T10:33:41.000Z</time>
</trkpt>
<trkpt lat="45.9411620" lon="9.5390650">
	<ele>1673.40</ele>
	<time>2023-10-07T10:33:42.000Z</time>
</trkpt>
<trkpt lat="45.9411560" lon="9.5390550">
	<ele>1673.20</ele>
	<time>2023-10-07T10:33:43.000Z</time>
</trkpt>
<trkpt lat="45.9411500" lon="9.5390460">
	<ele>1673.00</ele>
	<time>2023-10-07T10:33:44.000Z</time>
</trkpt>
<trkpt lat="45.9411420" lon="9.5390420">
	<ele>1673.00</ele>
	<time>2023-10-07T10:33:45.000Z</time>
</trkpt>
<trkpt lat="45.9411350" lon="9.5390360">
	<ele>1672.80</ele>
	<time>2023-10-07T10:33:46.000Z</time>
</trkpt>
<trkpt lat="45.9411280" lon="9.5390310">
	<ele>1672.60</ele>
	<time>2023-10-07T10:33:47.000Z</time>
</trkpt>
<trkpt lat="45.9411210" lon="9.5390270">
	<ele>1672.60</ele>
	<time>2023-10-07T10:33:48.000Z</time>
</trkpt>
<trkpt lat="45.9411150" lon="9.5390230">
	<ele>1672.60</ele>
	<time>2023-10-07T10:33:49.000Z</time>
</trkpt>
<trkpt lat="45.9411100" lon="9.5390180">
	<ele>1672.40</ele>
	<time>2023-10-07T10:33:50.000Z</time>
</trkpt>
<trkpt lat="45.9411020" lon="9.5390060">
	<ele>1672.40</ele>
	<time>2023-10-07T10:33:51.000Z</time>
</trkpt>
<trkpt lat="45.9410970" lon="9.5389980">
	<ele>1672.20</ele>
	<time>2023-10-07T10:33:52.000Z</time>
</trkpt>
<trkpt lat="45.9410930" lon="9.5389940">
	<ele>1672.00</ele>
	<time>2023-10-07T10:33:53.000Z</time>
</trkpt>
<trkpt lat="45.9410870" lon="9.5389910">
	<ele>1671.80</ele>
	<time>2023-10-07T10:33:54.000Z</time>
</trkpt>
<trkpt lat="45.9410830" lon="9.5389900">
	<ele>1671.80</ele>
	<time>2023-10-07T10:33:55.000Z</time>
</trkpt>
<trkpt lat="45.9410740" lon="9.5389860">
	<ele>1671.60</ele>
	<time>2023-10-07T10:33:56.000Z</time>
</trkpt>
<trkpt lat="45.9410620" lon="9.5389830">
	<ele>1671.40</ele>
	<time>2023-10-07T10:33:57.000Z</time>
</trkpt>
<trkpt lat="45.9410530" lon="9.5389810">
	<ele>1671.40</ele>
	<time>2023-10-07T10:33:58.000Z</time>
</trkpt>
<trkpt lat="45.9410360" lon="9.5389710">
	<ele>1671.20</ele>
	<time>2023-10-07T10:33:59.000Z</time>
</trkpt>
<trkpt lat="45.9410240" lon="9.5389640">
	<ele>1671.20</ele>
	<time>2023-10-07T10:34:00.000Z</time>
</trkpt>
<trkpt lat="45.9410160" lon="9.5389570">
	<ele>1671.00</ele>
	<time>2023-10-07T10:34:01.000Z</time>
</trkpt>
<trkpt lat="45.9410110" lon="9.5389560">
	<ele>1671.00</ele>
	<time>2023-10-07T10:34:02.000Z</time>
</trkpt>
<trkpt lat="45.9410010" lon="9.5389530">
	<ele>1670.80</ele>
	<time>2023-10-07T10:34:03.000Z</time>
</trkpt>
<trkpt lat="45.9409920" lon="9.5389520">
	<ele>1670.60</ele>
	<time>2023-10-07T10:34:04.000Z</time>
</trkpt>
<trkpt lat="45.9409830" lon="9.5389500">
	<ele>1670.40</ele>
	<time>2023-10-07T10:34:05.000Z</time>
</trkpt>
<trkpt lat="45.9409760" lon="9.5389450">
	<ele>1670.40</ele>
	<time>2023-10-07T10:34:06.000Z</time>
</trkpt>
<trkpt lat="45.9409660" lon="9.5389390">
	<ele>1670.40</ele>
	<time>2023-10-07T10:34:07.000Z</time>
</trkpt>
<trkpt lat="45.9409600" lon="9.5389360">
	<ele>1670.20</ele>
	<time>2023-10-07T10:34:08.000Z</time>
</trkpt>
<trkpt lat="45.9409480" lon="9.5389260">
	<ele>1670.20</ele>
	<time>2023-10-07T10:34:09.000Z</time>
</trkpt>
<trkpt lat="45.9409380" lon="9.5389150">
	<ele>1670.00</ele>
	<time>2023-10-07T10:34:10.000Z</time>
</trkpt>
<trkpt lat="45.9409270" lon="9.5389010">
	<ele>1670.00</ele>
	<time>2023-10-07T10:34:11.000Z</time>
</trkpt>
<trkpt lat="45.9409180" lon="9.5388880">
	<ele>1669.60</ele>
	<time>2023-10-07T10:34:12.000Z</time>
</trkpt>
<trkpt lat="45.9409100" lon="9.5388770">
	<ele>1669.40</ele>
	<time>2023-10-07T10:34:13.000Z</time>
</trkpt>
<trkpt lat="45.9409060" lon="9.5388720">
	<ele>1669.20</ele>
	<time>2023-10-07T10:34:14.000Z</time>
</trkpt>
<trkpt lat="45.9408970" lon="9.5388630">
	<ele>1669.00</ele>
	<time>2023-10-07T10:34:15.000Z</time>
</trkpt>
<trkpt lat="45.9408920" lon="9.5388550">
	<ele>1669.00</ele>
	<time>2023-10-07T10:34:16.000Z</time>
</trkpt>
<trkpt lat="45.9408800" lon="9.5388430">
	<ele>1668.80</ele>
	<time>2023-10-07T10:34:17.000Z</time>
</trkpt>
<trkpt lat="45.9408750" lon="9.5388370">
	<ele>1668.60</ele>
	<time>2023-10-07T10:34:18.000Z</time>
</trkpt>
<trkpt lat="45.9408730" lon="9.5388280">
	<ele>1668.40</ele>
	<time>2023-10-07T10:34:19.000Z</time>
</trkpt>
<trkpt lat="45.9408670" lon="9.5388180">
	<ele>1668.00</ele>
	<time>2023-10-07T10:34:20.000Z</time>
</trkpt>
<trkpt lat="45.9408610" lon="9.5388100">
	<ele>1668.00</ele>
	<time>2023-10-07T10:34:21.000Z</time>
</trkpt>
<trkpt lat="45.9408560" lon="9.5387980">
	<ele>1667.80</ele>
	<time>2023-10-07T10:34:22.000Z</time>
</trkpt>
<trkpt lat="45.9408520" lon="9.5387880">
	<ele>1667.60</ele>
	<time>2023-10-07T10:34:23.000Z</time>
</trkpt>
<trkpt lat="45.9408500" lon="9.5387750">
	<ele>1667.40</ele>
	<time>2023-10-07T10:34:24.000Z</time>
</trkpt>
<trkpt lat="45.9408420" lon="9.5387560">
	<ele>1667.20</ele>
	<time>2023-10-07T10:34:25.000Z</time>
</trkpt>
<trkpt lat="45.9408380" lon="9.5387450">
	<ele>1667.00</ele>
	<time>2023-10-07T10:34:26.000Z</time>
</trkpt>
<trkpt lat="45.9408310" lon="9.5387330">
	<ele>1666.80</ele>
	<time>2023-10-07T10:34:27.000Z</time>
</trkpt>
<trkpt lat="45.9408270" lon="9.5387180">
	<ele>1666.60</ele>
	<time>2023-10-07T10:34:28.000Z</time>
</trkpt>
<trkpt lat="45.9408250" lon="9.5387040">
	<ele>1666.40</ele>
	<time>2023-10-07T10:34:29.000Z</time>
</trkpt>
<trkpt lat="45.9408240" lon="9.5386880">
	<ele>1666.20</ele>
	<time>2023-10-07T10:34:30.000Z</time>
</trkpt>
<trkpt lat="45.9408210" lon="9.5386720">
	<ele>1666.20</ele>
	<time>2023-10-07T10:34:31.000Z</time>
</trkpt>
<trkpt lat="45.9408200" lon="9.5386600">
	<ele>1666.00</ele>
	<time>2023-10-07T10:34:32.000Z</time>
</trkpt>
<trkpt lat="45.9408200" lon="9.5386470">
	<ele>1665.80</ele>
	<time>2023-10-07T10:34:33.000Z</time>
</trkpt>
<trkpt lat="45.9408200" lon="9.5386310">
	<ele>1665.80</ele>
	<time>2023-10-07T10:34:34.000Z</time>
</trkpt>
<trkpt lat="45.9408190" lon="9.5386170">
	<ele>1665.40</ele>
	<time>2023-10-07T10:34:35.000Z</time>
</trkpt>
<trkpt lat="45.9408200" lon="9.5386040">
	<ele>1665.20</ele>
	<time>2023-10-07T10:34:36.000Z</time>
</trkpt>
<trkpt lat="45.9408180" lon="9.5385860">
	<ele>1665.00</ele>
	<time>2023-10-07T10:34:37.000Z</time>
</trkpt>
<trkpt lat="45.9408160" lon="9.5385740">
	<ele>1664.80</ele>
	<time>2023-10-07T10:34:38.000Z</time>
</trkpt>
<trkpt lat="45.9408150" lon="9.5385640">
	<ele>1664.60</ele>
	<time>2023-10-07T10:34:39.000Z</time>
</trkpt>
<trkpt lat="45.9408170" lon="9.5385560">
	<ele>1664.60</ele>
	<time>2023-10-07T10:34:40.000Z</time>
</trkpt>
<trkpt lat="45.9408170" lon="9.5385390">
	<ele>1664.40</ele>
	<time>2023-10-07T10:34:41.000Z</time>
</trkpt>
<trkpt lat="45.9408170" lon="9.5385230">
	<ele>1664.20</ele>
	<time>2023-10-07T10:34:42.000Z</time>
</trkpt>
<trkpt lat="45.9408190" lon="9.5385090">
	<ele>1664.00</ele>
	<time>2023-10-07T10:34:43.000Z</time>
</trkpt>
<trkpt lat="45.9408250" lon="9.5384960">
	<ele>1663.80</ele>
	<time>2023-10-07T10:34:44.000Z</time>
</trkpt>
<trkpt lat="45.9408290" lon="9.5384820">
	<ele>1663.80</ele>
	<time>2023-10-07T10:34:45.000Z</time>
</trkpt>
<trkpt lat="45.9408310" lon="9.5384670">
	<ele>1663.60</ele>
	<time>2023-10-07T10:34:46.000Z</time>
</trkpt>
<trkpt lat="45.9408350" lon="9.5384510">
	<ele>1663.40</ele>
	<time>2023-10-07T10:34:47.000Z</time>
</trkpt>
<trkpt lat="45.9408400" lon="9.5384390">
	<ele>1663.20</ele>
	<time>2023-10-07T10:34:48.000Z</time>
</trkpt>
<trkpt lat="45.9408450" lon="9.5384300">
	<ele>1663.20</ele>
	<time>2023-10-07T10:34:49.000Z</time>
</trkpt>
<trkpt lat="45.9408470" lon="9.5384170">
	<ele>1663.00</ele>
	<time>2023-10-07T10:34:50.000Z</time>
</trkpt>
<trkpt lat="45.9408490" lon="9.5384040">
	<ele>1662.80</ele>
	<time>2023-10-07T10:34:51.000Z</time>
</trkpt>
<trkpt lat="45.9408510" lon="9.5383850">
	<ele>1662.60</ele>
	<time>2023-10-07T10:34:52.000Z</time>
</trkpt>
<trkpt lat="45.9408490" lon="9.5383710">
	<ele>1662.40</ele>
	<time>2023-10-07T10:34:53.000Z</time>
</trkpt>
<trkpt lat="45.9408480" lon="9.5383550">
	<ele>1662.20</ele>
	<time>2023-10-07T10:34:54.000Z</time>
</trkpt>
<trkpt lat="45.9408440" lon="9.5383390">
	<ele>1662.20</ele>
	<time>2023-10-07T10:34:55.000Z</time>
</trkpt>
<trkpt lat="45.9408410" lon="9.5383240">
	<ele>1662.00</ele>
	<time>2023-10-07T10:34:56.000Z</time>
</trkpt>
<trkpt lat="45.9408400" lon="9.5383110">
	<ele>1661.80</ele>
	<time>2023-10-07T10:34:57.000Z</time>
</trkpt>
<trkpt lat="45.9408390" lon="9.5382980">
	<ele>1661.60</ele>
	<time>2023-10-07T10:34:58.000Z</time>
</trkpt>
<trkpt lat="45.9408340" lon="9.5382850">
	<ele>1661.60</ele>
	<time>2023-10-07T10:34:59.000Z</time>
</trkpt>
<trkpt lat="45.9408270" lon="9.5382720">
	<ele>1661.60</ele>
	<time>2023-10-07T10:35:00.000Z</time>
</trkpt>
<trkpt lat="45.9408210" lon="9.5382630">
	<ele>1661.40</ele>
	<time>2023-10-07T10:35:01.000Z</time>
</trkpt>
<trkpt lat="45.9408160" lon="9.5382510">
	<ele>1661.40</ele>
	<time>2023-10-07T10:35:02.000Z</time>
</trkpt>
<trkpt lat="45.9408090" lon="9.5382400">
	<ele>1661.20</ele>
	<time>2023-10-07T10:35:03.000Z</time>
</trkpt>
<trkpt lat="45.9408030" lon="9.5382320">
	<ele>1661.00</ele>
	<time>2023-10-07T10:35:04.000Z</time>
</trkpt>
<trkpt lat="45.9407970" lon="9.5382250">
	<ele>1660.80</ele>
	<time>2023-10-07T10:35:05.000Z</time>
</trkpt>
<trkpt lat="45.9407890" lon="9.5382150">
	<ele>1660.60</ele>
	<time>2023-10-07T10:35:06.000Z</time>
</trkpt>
<trkpt lat="45.9407800" lon="9.5382110">
	<ele>1660.20</ele>
	<time>2023-10-07T10:35:07.000Z</time>
</trkpt>
<trkpt lat="45.9407700" lon="9.5382080">
	<ele>1660.00</ele>
	<time>2023-10-07T10:35:08.000Z</time>
</trkpt>
<trkpt lat="45.9407610" lon="9.5382020">
	<ele>1660.00</ele>
	<time>2023-10-07T10:35:09.000Z</time>
</trkpt>
<trkpt lat="45.9407510" lon="9.5381950">
	<ele>1659.80</ele>
	<time>2023-10-07T10:35:10.000Z</time>
</trkpt>
<trkpt lat="45.9407400" lon="9.5381900">
	<ele>1659.60</ele>
	<time>2023-10-07T10:35:11.000Z</time>
</trkpt>
<trkpt lat="45.9407300" lon="9.5381850">
	<ele>1659.60</ele>
	<time>2023-10-07T10:35:12.000Z</time>
</trkpt>
<trkpt lat="45.9407210" lon="9.5381810">
	<ele>1659.40</ele>
	<time>2023-10-07T10:35:13.000Z</time>
</trkpt>
<trkpt lat="45.9407100" lon="9.5381790">
	<ele>1659.40</ele>
	<time>2023-10-07T10:35:14.000Z</time>
</trkpt>
<trkpt lat="45.9407010" lon="9.5381760">
	<ele>1659.20</ele>
	<time>2023-10-07T10:35:15.000Z</time>
</trkpt>
<trkpt lat="45.9406910" lon="9.5381730">
	<ele>1659.20</ele>
	<time>2023-10-07T10:35:16.000Z</time>
</trkpt>
<trkpt lat="45.9406820" lon="9.5381680">
	<ele>1659.00</ele>
	<time>2023-10-07T10:35:17.000Z</time>
</trkpt>
<trkpt lat="45.9406700" lon="9.5381690">
	<ele>1658.80</ele>
	<time>2023-10-07T10:35:18.000Z</time>
</trkpt>
<trkpt lat="45.9406600" lon="9.5381760">
	<ele>1658.80</ele>
	<time>2023-10-07T10:35:19.000Z</time>
</trkpt>
<trkpt lat="45.9406470" lon="9.5381800">
	<ele>1658.80</ele>
	<time>2023-10-07T10:35:20.000Z</time>
</trkpt>
<trkpt lat="45.9406320" lon="9.5381840">
	<ele>1658.80</ele>
	<time>2023-10-07T10:35:21.000Z</time>
</trkpt>
<trkpt lat="45.9406180" lon="9.5381880">
	<ele>1658.60</ele>
	<time>2023-10-07T10:35:22.000Z</time>
</trkpt>
<trkpt lat="45.9406060" lon="9.5381940">
	<ele>1658.40</ele>
	<time>2023-10-07T10:35:23.000Z</time>
</trkpt>
<trkpt lat="45.9405950" lon="9.5381930">
	<ele>1658.40</ele>
	<time>2023-10-07T10:35:24.000Z</time>
</trkpt>
<trkpt lat="45.9405830" lon="9.5381930">
	<ele>1658.40</ele>
	<time>2023-10-07T10:35:25.000Z</time>
</trkpt>
<trkpt lat="45.9405740" lon="9.5381940">
	<ele>1658.40</ele>
	<time>2023-10-07T10:35:26.000Z</time>
</trkpt>
<trkpt lat="45.9405640" lon="9.5381960">
	<ele>1658.00</ele>
	<time>2023-10-07T10:35:27.000Z</time>
</trkpt>
<trkpt lat="45.9405490" lon="9.5381990">
	<ele>1658.00</ele>
	<time>2023-10-07T10:35:28.000Z</time>
</trkpt>
<trkpt lat="45.9405400" lon="9.5382020">
	<ele>1657.80</ele>
	<time>2023-10-07T10:35:29.000Z</time>
</trkpt>
<trkpt lat="45.9405350" lon="9.5382070">
	<ele>1657.60</ele>
	<time>2023-10-07T10:35:30.000Z</time>
</trkpt>
<trkpt lat="45.9405260" lon="9.5382110">
	<ele>1657.40</ele>
	<time>2023-10-07T10:35:31.000Z</time>
</trkpt>
<trkpt lat="45.9405200" lon="9.5382140">
	<ele>1657.40</ele>
	<time>2023-10-07T10:35:32.000Z</time>
</trkpt>
<trkpt lat="45.9405120" lon="9.5382150">
	<ele>1657.20</ele>
	<time>2023-10-07T10:35:33.000Z</time>
</trkpt>
<trkpt lat="45.9405030" lon="9.5382150">
	<ele>1657.20</ele>
	<time>2023-10-07T10:35:34.000Z</time>
</trkpt>
<trkpt lat="45.9404930" lon="9.5382110">
	<ele>1657.20</ele>
	<time>2023-10-07T10:35:35.000Z</time>
</trkpt>
<trkpt lat="45.9404860" lon="9.5382050">
	<ele>1657.00</ele>
	<time>2023-10-07T10:35:36.000Z</time>
</trkpt>
<trkpt lat="45.9404790" lon="9.5382000">
	<ele>1656.80</ele>
	<time>2023-10-07T10:35:37.000Z</time>
</trkpt>
<trkpt lat="45.9404680" lon="9.5381900">
	<ele>1656.80</ele>
	<time>2023-10-07T10:35:38.000Z</time>
</trkpt>
<trkpt lat="45.9404580" lon="9.5381830">
	<ele>1656.40</ele>
	<time>2023-10-07T10:35:39.000Z</time>
</trkpt>
<trkpt lat="45.9404510" lon="9.5381770">
	<ele>1656.40</ele>
	<time>2023-10-07T10:35:40.000Z</time>
</trkpt>
<trkpt lat="45.9404440" lon="9.5381700">
	<ele>1656.00</ele>
	<time>2023-10-07T10:35:41.000Z</time>
</trkpt>
<trkpt lat="45.9404350" lon="9.5381610">
	<ele>1656.00</ele>
	<time>2023-10-07T10:35:42.000Z</time>
</trkpt>
<trkpt lat="45.9404270" lon="9.5381490">
	<ele>1655.80</ele>
	<time>2023-10-07T10:35:43.000Z</time>
</trkpt>
<trkpt lat="45.9404190" lon="9.5381350">
	<ele>1655.80</ele>
	<time>2023-10-07T10:35:44.000Z</time>
</trkpt>
<trkpt lat="45.9404120" lon="9.5381230">
	<ele>1655.60</ele>
	<time>2023-10-07T10:35:45.000Z</time>
</trkpt>
<trkpt lat="45.9404060" lon="9.5381130">
	<ele>1655.60</ele>
	<time>2023-10-07T10:35:46.000Z</time>
</trkpt>
<trkpt lat="45.9403970" lon="9.5380980">
	<ele>1655.60</ele>
	<time>2023-10-07T10:35:47.000Z</time>
</trkpt>
<trkpt lat="45.9403880" lon="9.5380830">
	<ele>1655.40</ele>
	<time>2023-10-07T10:35:48.000Z</time>
</trkpt>
<trkpt lat="45.9403800" lon="9.5380710">
	<ele>1655.40</ele>
	<time>2023-10-07T10:35:49.000Z</time>
</trkpt>
<trkpt lat="45.9403740" lon="9.5380580">
	<ele>1655.40</ele>
	<time>2023-10-07T10:35:50.000Z</time>
</trkpt>
<trkpt lat="45.9403720" lon="9.5380520">
	<ele>1655.20</ele>
	<time>2023-10-07T10:35:51.000Z</time>
</trkpt>
<trkpt lat="45.9403690" lon="9.5380420">
	<ele>1654.80</ele>
	<time>2023-10-07T10:35:52.000Z</time>
</trkpt>
<trkpt lat="45.9403640" lon="9.5380260">
	<ele>1654.60</ele>
	<time>2023-10-07T10:35:53.000Z</time>
</trkpt>
<trkpt lat="45.9403610" lon="9.5380100">
	<ele>1654.40</ele>
	<time>2023-10-07T10:35:54.000Z</time>
</trkpt>
<trkpt lat="45.9403620" lon="9.5379900">
	<ele>1654.20</ele>
	<time>2023-10-07T10:35:55.000Z</time>
</trkpt>
<trkpt lat="45.9403630" lon="9.5379790">
	<ele>1653.80</ele>
	<time>2023-10-07T10:35:56.000Z</time>
</trkpt>
<trkpt lat="45.9403640" lon="9.5379670">
	<ele>1653.60</ele>
	<time>2023-10-07T10:35:57.000Z</time>
</trkpt>
<trkpt lat="45.9403650" lon="9.5379560">
	<ele>1653.40</ele>
	<time>2023-10-07T10:35:58.000Z</time>
</trkpt>
<trkpt lat="45.9403660" lon="9.5379440">
	<ele>1653.40</ele>
	<time>2023-10-07T10:35:59.000Z</time>
</trkpt>
<trkpt lat="45.9403650" lon="9.5379210">
	<ele>1653.40</ele>
	<time>2023-10-07T10:36:00.000Z</time>
</trkpt>
<trkpt lat="45.9403650" lon="9.5379020">
	<ele>1653.20</ele>
	<time>2023-10-07T10:36:01.000Z</time>
</trkpt>
<trkpt lat="45.9403640" lon="9.5378870">
	<ele>1653.00</ele>
	<time>2023-10-07T10:36:02.000Z</time>
</trkpt>
<trkpt lat="45.9403620" lon="9.5378750">
	<ele>1653.00</ele>
	<time>2023-10-07T10:36:03.000Z</time>
</trkpt>
<trkpt lat="45.9403600" lon="9.5378650">
	<ele>1652.80</ele>
	<time>2023-10-07T10:36:04.000Z</time>
</trkpt>
<trkpt lat="45.9403570" lon="9.5378580">
	<ele>1652.80</ele>
	<time>2023-10-07T10:36:05.000Z</time>
</trkpt>
<trkpt lat="45.9403470" lon="9.5378500">
	<ele>1652.80</ele>
	<time>2023-10-07T10:36:06.000Z</time>
</trkpt>
<trkpt lat="45.9403420" lon="9.5378490">
	<ele>1652.60</ele>
	<time>2023-10-07T10:36:07.000Z</time>
</trkpt>
<trkpt lat="45.9403320" lon="9.5378440">
	<ele>1652.60</ele>
	<time>2023-10-07T10:36:08.000Z</time>
</trkpt>
<trkpt lat="45.9403250" lon="9.5378410">
	<ele>1652.60</ele>
	<time>2023-10-07T10:36:09.000Z</time>
</trkpt>
<trkpt lat="45.9403200" lon="9.5378340">
	<ele>1652.40</ele>
	<time>2023-10-07T10:36:10.000Z</time>
</trkpt>
<trkpt lat="45.9403120" lon="9.5378320">
	<ele>1652.00</ele>
	<time>2023-10-07T10:36:11.000Z</time>
</trkpt>
<trkpt lat="45.9403070" lon="9.5378270">
	<ele>1651.60</ele>
	<time>2023-10-07T10:36:12.000Z</time>
</trkpt>
<trkpt lat="45.9403040" lon="9.5378210">
	<ele>1651.40</ele>
	<time>2023-10-07T10:36:13.000Z</time>
</trkpt>
<trkpt lat="45.9402980" lon="9.5378120">
	<ele>1651.20</ele>
	<time>2023-10-07T10:36:14.000Z</time>
</trkpt>
<trkpt lat="45.9402920" lon="9.5378060">
	<ele>1651.00</ele>
	<time>2023-10-07T10:36:15.000Z</time>
</trkpt>
<trkpt lat="45.9402860" lon="9.5377960">
	<ele>1650.80</ele>
	<time>2023-10-07T10:36:16.000Z</time>
</trkpt>
<trkpt lat="45.9402790" lon="9.5377880">
	<ele>1650.60</ele>
	<time>2023-10-07T10:36:17.000Z</time>
</trkpt>
<trkpt lat="45.9402680" lon="9.5377810">
	<ele>1650.60</ele>
	<time>2023-10-07T10:36:18.000Z</time>
</trkpt>
<trkpt lat="45.9402590" lon="9.5377740">
	<ele>1650.40</ele>
	<time>2023-10-07T10:36:19.000Z</time>
</trkpt>
<trkpt lat="45.9402520" lon="9.5377710">
	<ele>1650.20</ele>
	<time>2023-10-07T10:36:20.000Z</time>
</trkpt>
<trkpt lat="45.9402440" lon="9.5377630">
	<ele>1650.00</ele>
	<time>2023-10-07T10:36:21.000Z</time>
</trkpt>
<trkpt lat="45.9402370" lon="9.5377560">
	<ele>1649.80</ele>
	<time>2023-10-07T10:36:22.000Z</time>
</trkpt>
<trkpt lat="45.9402260" lon="9.5377470">
	<ele>1649.80</ele>
	<time>2023-10-07T10:36:23.000Z</time>
</trkpt>
<trkpt lat="45.9402150" lon="9.5377420">
	<ele>1649.60</ele>
	<time>2023-10-07T10:36:24.000Z</time>
</trkpt>
<trkpt lat="45.9402040" lon="9.5377400">
	<ele>1649.40</ele>
	<time>2023-10-07T10:36:25.000Z</time>
</trkpt>
<trkpt lat="45.9401900" lon="9.5377390">
	<ele>1649.40</ele>
	<time>2023-10-07T10:36:26.000Z</time>
</trkpt>
<trkpt lat="45.9401740" lon="9.5377370">
	<ele>1649.20</ele>
	<time>2023-10-07T10:36:27.000Z</time>
</trkpt>
<trkpt lat="45.9401600" lon="9.5377360">
	<ele>1649.00</ele>
	<time>2023-10-07T10:36:28.000Z</time>
</trkpt>
<trkpt lat="45.9401480" lon="9.5377330">
	<ele>1648.80</ele>
	<time>2023-10-07T10:36:29.000Z</time>
</trkpt>
<trkpt lat="45.9401370" lon="9.5377320">
	<ele>1648.60</ele>
	<time>2023-10-07T10:36:30.000Z</time>
</trkpt>
<trkpt lat="45.9401240" lon="9.5377270">
	<ele>1648.40</ele>
	<time>2023-10-07T10:36:31.000Z</time>
</trkpt>
<trkpt lat="45.9401130" lon="9.5377210">
	<ele>1648.40</ele>
	<time>2023-10-07T10:36:32.000Z</time>
</trkpt>
<trkpt lat="45.9401020" lon="9.5377140">
	<ele>1648.20</ele>
	<time>2023-10-07T10:36:33.000Z</time>
</trkpt>
<trkpt lat="45.9400940" lon="9.5377100">
	<ele>1648.20</ele>
	<time>2023-10-07T10:36:34.000Z</time>
</trkpt>
<trkpt lat="45.9400800" lon="9.5377040">
	<ele>1648.20</ele>
	<time>2023-10-07T10:36:35.000Z</time>
</trkpt>
<trkpt lat="45.9400660" lon="9.5377010">
	<ele>1648.20</ele>
	<time>2023-10-07T10:36:36.000Z</time>
</trkpt>
<trkpt lat="45.9400550" lon="9.5377040">
	<ele>1648.20</ele>
	<time>2023-10-07T10:36:37.000Z</time>
</trkpt>
<trkpt lat="45.9400440" lon="9.5377070">
	<ele>1648.20</ele>
	<time>2023-10-07T10:36:38.000Z</time>
</trkpt>
<trkpt lat="45.9400330" lon="9.5377100">
	<ele>1648.20</ele>
	<time>2023-10-07T10:36:39.000Z</time>
</trkpt>
<trkpt lat="45.9400230" lon="9.5377150">
	<ele>1648.20</ele>
	<time>2023-10-07T10:36:40.000Z</time>
</trkpt>
<trkpt lat="45.9400140" lon="9.5377220">
	<ele>1648.20</ele>
	<time>2023-10-07T10:36:41.000Z</time>
</trkpt>
<trkpt lat="45.9400050" lon="9.5377310">
	<ele>1648.20</ele>
	<time>2023-10-07T10:36:42.000Z</time>
</trkpt>
<trkpt lat="45.9399950" lon="9.5377410">
	<ele>1648.20</ele>
	<time>2023-10-07T10:36:43.000Z</time>
</trkpt>
<trkpt lat="45.9399840" lon="9.5377500">
	<ele>1648.20</ele>
	<time>2023-10-07T10:36:44.000Z</time>
</trkpt>
<trkpt lat="45.9399700" lon="9.5377620">
	<ele>1648.20</ele>
	<time>2023-10-07T10:36:45.000Z</time>
</trkpt>
<trkpt lat="45.9399580" lon="9.5377660">
	<ele>1648.20</ele>
	<time>2023-10-07T10:36:46.000Z</time>
</trkpt>
<trkpt lat="45.9399470" lon="9.5377710">
	<ele>1648.20</ele>
	<time>2023-10-07T10:36:47.000Z</time>
</trkpt>
<trkpt lat="45.9399380" lon="9.5377770">
	<ele>1647.80</ele>
	<time>2023-10-07T10:36:48.000Z</time>
</trkpt>
<trkpt lat="45.9399280" lon="9.5377820">
	<ele>1647.80</ele>
	<time>2023-10-07T10:36:49.000Z</time>
</trkpt>
<trkpt lat="45.9399170" lon="9.5377920">
	<ele>1647.60</ele>
	<time>2023-10-07T10:36:50.000Z</time>
</trkpt>
<trkpt lat="45.9399110" lon="9.5378050">
	<ele>1647.60</ele>
	<time>2023-10-07T10:36:51.000Z</time>
</trkpt>
<trkpt lat="45.9399050" lon="9.5378170">
	<ele>1647.40</ele>
	<time>2023-10-07T10:36:52.000Z</time>
</trkpt>
<trkpt lat="45.9398960" lon="9.5378250">
	<ele>1647.20</ele>
	<time>2023-10-07T10:36:53.000Z</time>
</trkpt>
<trkpt lat="45.9398860" lon="9.5378300">
	<ele>1647.00</ele>
	<time>2023-10-07T10:36:54.000Z</time>
</trkpt>
<trkpt lat="45.9398760" lon="9.5378350">
	<ele>1647.00</ele>
	<time>2023-10-07T10:36:55.000Z</time>
</trkpt>
<trkpt lat="45.9398650" lon="9.5378420">
	<ele>1646.80</ele>
	<time>2023-10-07T10:36:56.000Z</time>
</trkpt>
<trkpt lat="45.9398540" lon="9.5378480">
	<ele>1646.80</ele>
	<time>2023-10-07T10:36:57.000Z</time>
</trkpt>
<trkpt lat="45.9398400" lon="9.5378510">
	<ele>1646.80</ele>
	<time>2023-10-07T10:36:58.000Z</time>
</trkpt>
<trkpt lat="45.9398250" lon="9.5378520">
	<ele>1646.60</ele>
	<time>2023-10-07T10:36:59.000Z</time>
</trkpt>
<trkpt lat="45.9398130" lon="9.5378490">
	<ele>1646.40</ele>
	<time>2023-10-07T10:37:00.000Z</time>
</trkpt>
<trkpt lat="45.9398030" lon="9.5378490">
	<ele>1646.20</ele>
	<time>2023-10-07T10:37:01.000Z</time>
</trkpt>
<trkpt lat="45.9397990" lon="9.5378500">
	<ele>1646.00</ele>
	<time>2023-10-07T10:37:02.000Z</time>
</trkpt>
<trkpt lat="45.9397910" lon="9.5378520">
	<ele>1645.80</ele>
	<time>2023-10-07T10:37:03.000Z</time>
</trkpt>
<trkpt lat="45.9397790" lon="9.5378500">
	<ele>1645.60</ele>
	<time>2023-10-07T10:37:04.000Z</time>
</trkpt>
<trkpt lat="45.9397690" lon="9.5378480">
	<ele>1645.20</ele>
	<time>2023-10-07T10:37:05.000Z</time>
</trkpt>
<trkpt lat="45.9397570" lon="9.5378440">
	<ele>1645.00</ele>
	<time>2023-10-07T10:37:06.000Z</time>
</trkpt>
<trkpt lat="45.9397460" lon="9.5378420">
	<ele>1644.80</ele>
	<time>2023-10-07T10:37:07.000Z</time>
</trkpt>
<trkpt lat="45.9397380" lon="9.5378460">
	<ele>1644.60</ele>
	<time>2023-10-07T10:37:08.000Z</time>
</trkpt>
<trkpt lat="45.9397270" lon="9.5378490">
	<ele>1644.60</ele>
	<time>2023-10-07T10:37:09.000Z</time>
</trkpt>
<trkpt lat="45.9397140" lon="9.5378490">
	<ele>1644.40</ele>
	<time>2023-10-07T10:37:10.000Z</time>
</trkpt>
<trkpt lat="45.9397010" lon="9.5378490">
	<ele>1644.40</ele>
	<time>2023-10-07T10:37:11.000Z</time>
</trkpt>
<trkpt lat="45.9396900" lon="9.5378500">
	<ele>1644.20</ele>
	<time>2023-10-07T10:37:12.000Z</time>
</trkpt>
<trkpt lat="45.9396770" lon="9.5378480">
	<ele>1644.00</ele>
	<time>2023-10-07T10:37:13.000Z</time>
</trkpt>
<trkpt lat="45.9396660" lon="9.5378470">
	<ele>1643.80</ele>
	<time>2023-10-07T10:37:14.000Z</time>
</trkpt>
<trkpt lat="45.9396520" lon="9.5378430">
	<ele>1643.80</ele>
	<time>2023-10-07T10:37:15.000Z</time>
</trkpt>
<trkpt lat="45.9396390" lon="9.5378390">
	<ele>1643.60</ele>
	<time>2023-10-07T10:37:16.000Z</time>
</trkpt>
<trkpt lat="45.9396280" lon="9.5378340">
	<ele>1643.60</ele>
	<time>2023-10-07T10:37:17.000Z</time>
</trkpt>
<trkpt lat="45.9396180" lon="9.5378300">
	<ele>1643.40</ele>
	<time>2023-10-07T10:37:18.000Z</time>
</trkpt>
<trkpt lat="45.9396050" lon="9.5378260">
	<ele>1643.40</ele>
	<time>2023-10-07T10:37:19.000Z</time>
</trkpt>
<trkpt lat="45.9395910" lon="9.5378240">
	<ele>1643.20</ele>
	<time>2023-10-07T10:37:20.000Z</time>
</trkpt>
<trkpt lat="45.9395780" lon="9.5378200">
	<ele>1643.20</ele>
	<time>2023-10-07T10:37:21.000Z</time>
</trkpt>
<trkpt lat="45.9395670" lon="9.5378180">
	<ele>1643.00</ele>
	<time>2023-10-07T10:37:22.000Z</time>
</trkpt>
<trkpt lat="45.9395570" lon="9.5378190">
	<ele>1642.80</ele>
	<time>2023-10-07T10:37:23.000Z</time>
</trkpt>
<trkpt lat="45.9395460" lon="9.5378280">
	<ele>1642.80</ele>
	<time>2023-10-07T10:37:24.000Z</time>
</trkpt>
<trkpt lat="45.9395350" lon="9.5378370">
	<ele>1642.60</ele>
	<time>2023-10-07T10:37:25.000Z</time>
</trkpt>
<trkpt lat="45.9395230" lon="9.5378410">
	<ele>1642.60</ele>
	<time>2023-10-07T10:37:26.000Z</time>
</trkpt>
<trkpt lat="45.9395140" lon="9.5378400">
	<ele>1642.40</ele>
	<time>2023-10-07T10:37:27.000Z</time>
</trkpt>
<trkpt lat="45.9395030" lon="9.5378350">
	<ele>1642.20</ele>
	<time>2023-10-07T10:37:28.000Z</time>
</trkpt>
<trkpt lat="45.9394910" lon="9.5378290">
	<ele>1642.20</ele>
	<time>2023-10-07T10:37:29.000Z</time>
</trkpt>
<trkpt lat="45.9394830" lon="9.5378290">
	<ele>1642.00</ele>
	<time>2023-10-07T10:37:30.000Z</time>
</trkpt>
<trkpt lat="45.9394730" lon="9.5378290">
	<ele>1641.80</ele>
	<time>2023-10-07T10:37:31.000Z</time>
</trkpt>
<trkpt lat="45.9394640" lon="9.5378310">
	<ele>1641.60</ele>
	<time>2023-10-07T10:37:32.000Z</time>
</trkpt>
<trkpt lat="45.9394560" lon="9.5378310">
	<ele>1641.40</ele>
	<time>2023-10-07T10:37:33.000Z</time>
</trkpt>
<trkpt lat="45.9394490" lon="9.5378320">
	<ele>1641.20</ele>
	<time>2023-10-07T10:37:34.000Z</time>
</trkpt>
<trkpt lat="45.9394390" lon="9.5378350">
	<ele>1641.00</ele>
	<time>2023-10-07T10:37:35.000Z</time>
</trkpt>
<trkpt lat="45.9394270" lon="9.5378340">
	<ele>1640.60</ele>
	<time>2023-10-07T10:37:36.000Z</time>
</trkpt>
<trkpt lat="45.9394170" lon="9.5378400">
	<ele>1640.40</ele>
	<time>2023-10-07T10:37:37.000Z</time>
</trkpt>
<trkpt lat="45.9394130" lon="9.5378490">
	<ele>1640.20</ele>
	<time>2023-10-07T10:37:38.000Z</time>
</trkpt>
<trkpt lat="45.9394060" lon="9.5378540">
	<ele>1640.00</ele>
	<time>2023-10-07T10:37:39.000Z</time>
</trkpt>
<trkpt lat="45.9393980" lon="9.5378590">
	<ele>1639.80</ele>
	<time>2023-10-07T10:37:40.000Z</time>
</trkpt>
<trkpt lat="45.9393880" lon="9.5378630">
	<ele>1639.60</ele>
	<time>2023-10-07T10:37:41.000Z</time>
</trkpt>
<trkpt lat="45.9393810" lon="9.5378690">
	<ele>1639.40</ele>
	<time>2023-10-07T10:37:42.000Z</time>
</trkpt>
<trkpt lat="45.9393720" lon="9.5378740">
	<ele>1639.40</ele>
	<time>2023-10-07T10:37:43.000Z</time>
</trkpt>
<trkpt lat="45.9393630" lon="9.5378810">
	<ele>1639.40</ele>
	<time>2023-10-07T10:37:44.000Z</time>
</trkpt>
<trkpt lat="45.9393520" lon="9.5378900">
	<ele>1639.40</ele>
	<time>2023-10-07T10:37:45.000Z</time>
</trkpt>
<trkpt lat="45.9393430" lon="9.5379030">
	<ele>1639.20</ele>
	<time>2023-10-07T10:37:46.000Z</time>
</trkpt>
<trkpt lat="45.9393340" lon="9.5379150">
	<ele>1639.20</ele>
	<time>2023-10-07T10:37:47.000Z</time>
</trkpt>
<trkpt lat="45.9393240" lon="9.5379240">
	<ele>1639.00</ele>
	<time>2023-10-07T10:37:48.000Z</time>
</trkpt>
<trkpt lat="45.9393150" lon="9.5379320">
	<ele>1639.00</ele>
	<time>2023-10-07T10:37:49.000Z</time>
</trkpt>
<trkpt lat="45.9393070" lon="9.5379400">
	<ele>1638.80</ele>
	<time>2023-10-07T10:37:50.000Z</time>
</trkpt>
<trkpt lat="45.9392990" lon="9.5379510">
	<ele>1638.60</ele>
	<time>2023-10-07T10:37:51.000Z</time>
</trkpt>
<trkpt lat="45.9392900" lon="9.5379580">
	<ele>1638.40</ele>
	<time>2023-10-07T10:37:52.000Z</time>
</trkpt>
<trkpt lat="45.9392820" lon="9.5379700">
	<ele>1638.40</ele>
	<time>2023-10-07T10:37:53.000Z</time>
</trkpt>
<trkpt lat="45.9392750" lon="9.5379840">
	<ele>1638.20</ele>
	<time>2023-10-07T10:37:54.000Z</time>
</trkpt>
<trkpt lat="45.9392670" lon="9.5379970">
	<ele>1638.20</ele>
	<time>2023-10-07T10:37:55.000Z</time>
</trkpt>
<trkpt lat="45.9392610" lon="9.5380110">
	<ele>1638.00</ele>
	<time>2023-10-07T10:37:56.000Z</time>
</trkpt>
<trkpt lat="45.9392540" lon="9.5380260">
	<ele>1637.80</ele>
	<time>2023-10-07T10:37:57.000Z</time>
</trkpt>
<trkpt lat="45.9392510" lon="9.5380420">
	<ele>1637.60</ele>
	<time>2023-10-07T10:37:58.000Z</time>
</trkpt>
<trkpt lat="45.9392490" lon="9.5380610">
	<ele>1637.60</ele>
	<time>2023-10-07T10:37:59.000Z</time>
</trkpt>
<trkpt lat="45.9392470" lon="9.5380790">
	<ele>1637.20</ele>
	<time>2023-10-07T10:38:00.000Z</time>
</trkpt>
<trkpt lat="45.9392480" lon="9.5380990">
	<ele>1637.20</ele>
	<time>2023-10-07T10:38:01.000Z</time>
</trkpt>
<trkpt lat="45.9392490" lon="9.5381120">
	<ele>1636.80</ele>
	<time>2023-10-07T10:38:02.000Z</time>
</trkpt>
<trkpt lat="45.9392480" lon="9.5381260">
	<ele>1636.80</ele>
	<time>2023-10-07T10:38:03.000Z</time>
</trkpt>
<trkpt lat="45.9392440" lon="9.5381350">
	<ele>1636.60</ele>
	<time>2023-10-07T10:38:04.000Z</time>
</trkpt>
<trkpt lat="45.9392400" lon="9.5381480">
	<ele>1636.40</ele>
	<time>2023-10-07T10:38:05.000Z</time>
</trkpt>
<trkpt lat="45.9392380" lon="9.5381590">
	<ele>1636.20</ele>
	<time>2023-10-07T10:38:06.000Z</time>
</trkpt>
<trkpt lat="45.9392390" lon="9.5381770">
	<ele>1636.00</ele>
	<time>2023-10-07T10:38:07.000Z</time>
</trkpt>
<trkpt lat="45.9392420" lon="9.5381930">
	<ele>1636.00</ele>
	<time>2023-10-07T10:38:08.000Z</time>
</trkpt>
<trkpt lat="45.9392450" lon="9.5382070">
	<ele>1635.80</ele>
	<time>2023-10-07T10:38:09.000Z</time>
</trkpt>
<trkpt lat="45.9392490" lon="9.5382230">
	<ele>1635.60</ele>
	<time>2023-10-07T10:38:10.000Z</time>
</trkpt>
<trkpt lat="45.9392490" lon="9.5382360">
	<ele>1635.60</ele>
	<time>2023-10-07T10:38:11.000Z</time>
</trkpt>
<trkpt lat="45.9392460" lon="9.5382480">
	<ele>1635.40</ele>
	<time>2023-10-07T10:38:12.000Z</time>
</trkpt>
<trkpt lat="45.9392410" lon="9.5382650">
	<ele>1635.40</ele>
	<time>2023-10-07T10:38:13.000Z</time>
</trkpt>
<trkpt lat="45.9392380" lon="9.5382740">
	<ele>1635.20</ele>
	<time>2023-10-07T10:38:14.000Z</time>
</trkpt>
<trkpt lat="45.9392350" lon="9.5382910">
	<ele>1635.00</ele>
	<time>2023-10-07T10:38:15.000Z</time>
</trkpt>
<trkpt lat="45.9392320" lon="9.5383040">
	<ele>1635.00</ele>
	<time>2023-10-07T10:38:16.000Z</time>
</trkpt>
<trkpt lat="45.9392290" lon="9.5383200">
	<ele>1635.00</ele>
	<time>2023-10-07T10:38:17.000Z</time>
</trkpt>
<trkpt lat="45.9392230" lon="9.5383310">
	<ele>1634.80</ele>
	<time>2023-10-07T10:38:18.000Z</time>
</trkpt>
<trkpt lat="45.9392170" lon="9.5383370">
	<ele>1634.80</ele>
	<time>2023-10-07T10:38:19.000Z</time>
</trkpt>
<trkpt lat="45.9392070" lon="9.5383450">
	<ele>1634.60</ele>
	<time>2023-10-07T10:38:20.000Z</time>
</trkpt>
<trkpt lat="45.9392020" lon="9.5383530">
	<ele>1634.60</ele>
	<time>2023-10-07T10:38:21.000Z</time>
</trkpt>
<trkpt lat="45.9391960" lon="9.5383610">
	<ele>1634.40</ele>
	<time>2023-10-07T10:38:22.000Z</time>
</trkpt>
<trkpt lat="45.9391870" lon="9.5383690">
	<ele>1634.40</ele>
	<time>2023-10-07T10:38:23.000Z</time>
</trkpt>
<trkpt lat="45.9391770" lon="9.5383750">
	<ele>1634.20</ele>
	<time>2023-10-07T10:38:24.000Z</time>
</trkpt>
<trkpt lat="45.9391690" lon="9.5383800">
	<ele>1633.80</ele>
	<time>2023-10-07T10:38:25.000Z</time>
</trkpt>
<trkpt lat="45.9391620" lon="9.5383830">
	<ele>1633.60</ele>
	<time>2023-10-07T10:38:26.000Z</time>
</trkpt>
<trkpt lat="45.9391570" lon="9.5383890">
	<ele>1633.40</ele>
	<time>2023-10-07T10:38:27.000Z</time>
</trkpt>
<trkpt lat="45.9391480" lon="9.5383890">
	<ele>1633.20</ele>
	<time>2023-10-07T10:38:28.000Z</time>
</trkpt>
<trkpt lat="45.9391400" lon="9.5383880">
	<ele>1632.80</ele>
	<time>2023-10-07T10:38:29.000Z</time>
</trkpt>
<trkpt lat="45.9391320" lon="9.5383930">
	<ele>1632.60</ele>
	<time>2023-10-07T10:38:30.000Z</time>
</trkpt>
<trkpt lat="45.9391250" lon="9.5384000">
	<ele>1632.40</ele>
	<time>2023-10-07T10:38:31.000Z</time>
</trkpt>
<trkpt lat="45.9391190" lon="9.5384100">
	<ele>1632.20</ele>
	<time>2023-10-07T10:38:32.000Z</time>
</trkpt>
<trkpt lat="45.9391110" lon="9.5384200">
	<ele>1632.00</ele>
	<time>2023-10-07T10:38:33.000Z</time>
</trkpt>
<trkpt lat="45.9391050" lon="9.5384270">
	<ele>1632.00</ele>
	<time>2023-10-07T10:38:34.000Z</time>
</trkpt>
<trkpt lat="45.9390940" lon="9.5384300">
	<ele>1631.80</ele>
	<time>2023-10-07T10:38:35.000Z</time>
</trkpt>
<trkpt lat="45.9390820" lon="9.5384400">
	<ele>1631.60</ele>
	<time>2023-10-07T10:38:36.000Z</time>
</trkpt>
<trkpt lat="45.9390730" lon="9.5384540">
	<ele>1631.20</ele>
	<time>2023-10-07T10:38:37.000Z</time>
</trkpt>
<trkpt lat="45.9390630" lon="9.5384660">
	<ele>1631.20</ele>
	<time>2023-10-07T10:38:38.000Z</time>
</trkpt>
<trkpt lat="45.9390550" lon="9.5384800">
	<ele>1631.00</ele>
	<time>2023-10-07T10:38:39.000Z</time>
</trkpt>
<trkpt lat="45.9390490" lon="9.5384870">
	<ele>1630.80</ele>
	<time>2023-10-07T10:38:40.000Z</time>
</trkpt>
<trkpt lat="45.9390450" lon="9.5384990">
	<ele>1630.60</ele>
	<time>2023-10-07T10:38:41.000Z</time>
</trkpt>
<trkpt lat="45.9390460" lon="9.5385130">
	<ele>1630.40</ele>
	<time>2023-10-07T10:38:42.000Z</time>
</trkpt>
<trkpt lat="45.9390440" lon="9.5385300">
	<ele>1630.00</ele>
	<time>2023-10-07T10:38:43.000Z</time>
</trkpt>
<trkpt lat="45.9390440" lon="9.5385470">
	<ele>1629.60</ele>
	<time>2023-10-07T10:38:44.000Z</time>
</trkpt>
<trkpt lat="45.9390430" lon="9.5385600">
	<ele>1629.40</ele>
	<time>2023-10-07T10:38:45.000Z</time>
</trkpt>
<trkpt lat="45.9390430" lon="9.5385710">
	<ele>1629.40</ele>
	<time>2023-10-07T10:38:46.000Z</time>
</trkpt>
<trkpt lat="45.9390430" lon="9.5385870">
	<ele>1629.20</ele>
	<time>2023-10-07T10:38:47.000Z</time>
</trkpt>
<trkpt lat="45.9390440" lon="9.5386000">
	<ele>1629.20</ele>
	<time>2023-10-07T10:38:48.000Z</time>
</trkpt>
<trkpt lat="45.9390470" lon="9.5386150">
	<ele>1629.00</ele>
	<time>2023-10-07T10:38:49.000Z</time>
</trkpt>
<trkpt lat="45.9390530" lon="9.5386310">
	<ele>1629.00</ele>
	<time>2023-10-07T10:38:50.000Z</time>
</trkpt>
<trkpt lat="45.9390600" lon="9.5386520">
	<ele>1628.80</ele>
	<time>2023-10-07T10:38:51.000Z</time>
</trkpt>
<trkpt lat="45.9390660" lon="9.5386630">
	<ele>1628.60</ele>
	<time>2023-10-07T10:38:52.000Z</time>
</trkpt>
<trkpt lat="45.9390790" lon="9.5386790">
	<ele>1628.20</ele>
	<time>2023-10-07T10:38:53.000Z</time>
</trkpt>
<trkpt lat="45.9390890" lon="9.5386920">
	<ele>1628.00</ele>
	<time>2023-10-07T10:38:54.000Z</time>
</trkpt>
<trkpt lat="45.9390980" lon="9.5387010">
	<ele>1627.80</ele>
	<time>2023-10-07T10:38:55.000Z</time>
</trkpt>
<trkpt lat="45.9391050" lon="9.5387090">
	<ele>1627.60</ele>
	<time>2023-10-07T10:38:56.000Z</time>
</trkpt>
<trkpt lat="45.9391130" lon="9.5387170">
	<ele>1627.60</ele>
	<time>2023-10-07T10:38:57.000Z</time>
</trkpt>
<trkpt lat="45.9391220" lon="9.5387290">
	<ele>1627.40</ele>
	<time>2023-10-07T10:38:58.000Z</time>
</trkpt>
<trkpt lat="45.9391270" lon="9.5387420">
	<ele>1627.40</ele>
	<time>2023-10-07T10:38:59.000Z</time>
</trkpt>
<trkpt lat="45.9391300" lon="9.5387510">
	<ele>1627.20</ele>
	<time>2023-10-07T10:39:00.000Z</time>
</trkpt>
<trkpt lat="45.9391370" lon="9.5387640">
	<ele>1627.20</ele>
	<time>2023-10-07T10:39:01.000Z</time>
</trkpt>
<trkpt lat="45.9391440" lon="9.5387750">
	<ele>1627.20</ele>
	<time>2023-10-07T10:39:02.000Z</time>
</trkpt>
<trkpt lat="45.9391500" lon="9.5387840">
	<ele>1626.80</ele>
	<time>2023-10-07T10:39:03.000Z</time>
</trkpt>
<trkpt lat="45.9391600" lon="9.5387970">
	<ele>1626.60</ele>
	<time>2023-10-07T10:39:04.000Z</time>
</trkpt>
<trkpt lat="45.9391690" lon="9.5388110">
	<ele>1626.60</ele>
	<time>2023-10-07T10:39:05.000Z</time>
</trkpt>
<trkpt lat="45.9391770" lon="9.5388260">
	<ele>1626.40</ele>
	<time>2023-10-07T10:39:06.000Z</time>
</trkpt>
<trkpt lat="45.9391850" lon="9.5388430">
	<ele>1626.40</ele>
	<time>2023-10-07T10:39:07.000Z</time>
</trkpt>
<trkpt lat="45.9391910" lon="9.5388600">
	<ele>1626.20</ele>
	<time>2023-10-07T10:39:08.000Z</time>
</trkpt>
<trkpt lat="45.9391930" lon="9.5388710">
	<ele>1626.00</ele>
	<time>2023-10-07T10:39:09.000Z</time>
</trkpt>
<trkpt lat="45.9391950" lon="9.5388820">
	<ele>1625.80</ele>
	<time>2023-10-07T10:39:10.000Z</time>
</trkpt>
<trkpt lat="45.9391980" lon="9.5388960">
	<ele>1625.80</ele>
	<time>2023-10-07T10:39:11.000Z</time>
</trkpt>
<trkpt lat="45.9391990" lon="9.5389110">
	<ele>1625.40</ele>
	<time>2023-10-07T10:39:12.000Z</time>
</trkpt>
<trkpt lat="45.9391980" lon="9.5389260">
	<ele>1625.00</ele>
	<time>2023-10-07T10:39:13.000Z</time>
</trkpt>
<trkpt lat="45.9391980" lon="9.5389420">
	<ele>1624.80</ele>
	<time>2023-10-07T10:39:14.000Z</time>
</trkpt>
<trkpt lat="45.9392010" lon="9.5389560">
	<ele>1624.60</ele>
	<time>2023-10-07T10:39:15.000Z</time>
</trkpt>
<trkpt lat="45.9392050" lon="9.5389650">
	<ele>1624.40</ele>
	<time>2023-10-07T10:39:16.000Z</time>
</trkpt>
<trkpt lat="45.9392130" lon="9.5389740">
	<ele>1624.20</ele>
	<time>2023-10-07T10:39:17.000Z</time>
</trkpt>
<trkpt lat="45.9392230" lon="9.5389790">
	<ele>1624.20</ele>
	<time>2023-10-07T10:39:18.000Z</time>
</trkpt>
<trkpt lat="45.9392340" lon="9.5389930">
	<ele>1624.00</ele>
	<time>2023-10-07T10:39:19.000Z</time>
</trkpt>
<trkpt lat="45.9392400" lon="9.5390060">
	<ele>1623.80</ele>
	<time>2023-10-07T10:39:20.000Z</time>
</trkpt>
<trkpt lat="45.9392500" lon="9.5390210">
	<ele>1623.40</ele>
	<time>2023-10-07T10:39:21.000Z</time>
</trkpt>
<trkpt lat="45.9392620" lon="9.5390330">
	<ele>1623.20</ele>
	<time>2023-10-07T10:39:22.000Z</time>
</trkpt>
<trkpt lat="45.9392740" lon="9.5390430">
	<ele>1623.00</ele>
	<time>2023-10-07T10:39:23.000Z</time>
</trkpt>
<trkpt lat="45.9392850" lon="9.5390560">
	<ele>1623.00</ele>
	<time>2023-10-07T10:39:24.000Z</time>
</trkpt>
<trkpt lat="45.9392950" lon="9.5390700">
	<ele>1622.80</ele>
	<time>2023-10-07T10:39:25.000Z</time>
</trkpt>
<trkpt lat="45.9393080" lon="9.5390810">
	<ele>1622.60</ele>
	<time>2023-10-07T10:39:26.000Z</time>
</trkpt>
<trkpt lat="45.9393220" lon="9.5390900">
	<ele>1622.40</ele>
	<time>2023-10-07T10:39:27.000Z</time>
</trkpt>
<trkpt lat="45.9393360" lon="9.5391000">
	<ele>1622.20</ele>
	<time>2023-10-07T10:39:28.000Z</time>
</trkpt>
<trkpt lat="45.9393460" lon="9.5391120">
	<ele>1622.00</ele>
	<time>2023-10-07T10:39:29.000Z</time>
</trkpt>
<trkpt lat="45.9393540" lon="9.5391240">
	<ele>1621.80</ele>
	<time>2023-10-07T10:39:30.000Z</time>
</trkpt>
<trkpt lat="45.9393660" lon="9.5391410">
	<ele>1621.60</ele>
	<time>2023-10-07T10:39:31.000Z</time>
</trkpt>
<trkpt lat="45.9393720" lon="9.5391550">
	<ele>1621.40</ele>
	<time>2023-10-07T10:39:32.000Z</time>
</trkpt>
<trkpt lat="45.9393820" lon="9.5391690">
	<ele>1621.40</ele>
	<time>2023-10-07T10:39:33.000Z</time>
</trkpt>
<trkpt lat="45.9393920" lon="9.5391710">
	<ele>1621.20</ele>
	<time>2023-10-07T10:39:34.000Z</time>
</trkpt>
<trkpt lat="45.9393950" lon="9.5391810">
	<ele>1621.20</ele>
	<time>2023-10-07T10:39:35.000Z</time>
</trkpt>
<trkpt lat="45.9394040" lon="9.5391930">
	<ele>1621.20</ele>
	<time>2023-10-07T10:39:36.000Z</time>
</trkpt>
<trkpt lat="45.9394120" lon="9.5392030">
	<ele>1621.00</ele>
	<time>2023-10-07T10:39:37.000Z</time>
</trkpt>
<trkpt lat="45.9394220" lon="9.5392160">
	<ele>1621.00</ele>
	<time>2023-10-07T10:39:38.000Z</time>
</trkpt>
<trkpt lat="45.9394290" lon="9.5392210">
	<ele>1620.80</ele>
	<time>2023-10-07T10:39:39.000Z</time>
</trkpt>
<trkpt lat="45.9394390" lon="9.5392320">
	<ele>1620.60</ele>
	<time>2023-10-07T10:39:40.000Z</time>
</trkpt>
<trkpt lat="45.9394490" lon="9.5392440">
	<ele>1620.60</ele>
	<time>2023-10-07T10:39:41.000Z</time>
</trkpt>
<trkpt lat="45.9394590" lon="9.5392590">
	<ele>1620.40</ele>
	<time>2023-10-07T10:39:42.000Z</time>
</trkpt>
<trkpt lat="45.9394650" lon="9.5392740">
	<ele>1620.40</ele>
	<time>2023-10-07T10:39:43.000Z</time>
</trkpt>
<trkpt lat="45.9394670" lon="9.5392900">
	<ele>1620.40</ele>
	<time>2023-10-07T10:39:44.000Z</time>
</trkpt>
<trkpt lat="45.9394660" lon="9.5393060">
	<ele>1620.40</ele>
	<time>2023-10-07T10:39:45.000Z</time>
</trkpt>
<trkpt lat="45.9394610" lon="9.5393240">
	<ele>1620.40</ele>
	<time>2023-10-07T10:39:46.000Z</time>
</trkpt>
<trkpt lat="45.9394550" lon="9.5393390">
	<ele>1620.40</ele>
	<time>2023-10-07T10:39:47.000Z</time>
</trkpt>
<trkpt lat="45.9394460" lon="9.5393530">
	<ele>1620.40</ele>
	<time>2023-10-07T10:39:48.000Z</time>
</trkpt>
<trkpt lat="45.9394340" lon="9.5393620">
	<ele>1620.40</ele>
	<time>2023-10-07T10:39:49.000Z</time>
</trkpt>
<trkpt lat="45.9394230" lon="9.5393730">
	<ele>1620.20</ele>
	<time>2023-10-07T10:39:50.000Z</time>
</trkpt>
<trkpt lat="45.9394120" lon="9.5393840">
	<ele>1620.00</ele>
	<time>2023-10-07T10:39:51.000Z</time>
</trkpt>
<trkpt lat="45.9394000" lon="9.5393960">
	<ele>1619.80</ele>
	<time>2023-10-07T10:39:52.000Z</time>
</trkpt>
<trkpt lat="45.9393850" lon="9.5394070">
	<ele>1619.60</ele>
	<time>2023-10-07T10:39:53.000Z</time>
</trkpt>
<trkpt lat="45.9393710" lon="9.5394190">
	<ele>1619.40</ele>
	<time>2023-10-07T10:39:54.000Z</time>
</trkpt>
<trkpt lat="45.9393580" lon="9.5394260">
	<ele>1619.40</ele>
	<time>2023-10-07T10:39:55.000Z</time>
</trkpt>
<trkpt lat="45.9393430" lon="9.5394340">
	<ele>1619.20</ele>
	<time>2023-10-07T10:39:56.000Z</time>
</trkpt>
<trkpt lat="45.9393320" lon="9.5394410">
	<ele>1619.20</ele>
	<time>2023-10-07T10:39:57.000Z</time>
</trkpt>
<trkpt lat="45.9393200" lon="9.5394490">
	<ele>1619.20</ele>
	<time>2023-10-07T10:39:58.000Z</time>
</trkpt>
<trkpt lat="45.9393060" lon="9.5394590">
	<ele>1619.00</ele>
	<time>2023-10-07T10:39:59.000Z</time>
</trkpt>
<trkpt lat="45.9392970" lon="9.5394700">
	<ele>1619.00</ele>
	<time>2023-10-07T10:40:00.000Z</time>
</trkpt>
<trkpt lat="45.9392870" lon="9.5394830">
	<ele>1619.00</ele>
	<time>2023-10-07T10:40:01.000Z</time>
</trkpt>
<trkpt lat="45.9392810" lon="9.5394910">
	<ele>1618.80</ele>
	<time>2023-10-07T10:40:02.000Z</time>
</trkpt>
<trkpt lat="45.9392690" lon="9.5395020">
	<ele>1618.80</ele>
	<time>2023-10-07T10:40:03.000Z</time>
</trkpt>
<trkpt lat="45.9392600" lon="9.5395090">
	<ele>1618.80</ele>
	<time>2023-10-07T10:40:04.000Z</time>
</trkpt>
<trkpt lat="45.9392530" lon="9.5395150">
	<ele>1618.60</ele>
	<time>2023-10-07T10:40:05.000Z</time>
</trkpt>
<trkpt lat="45.9392490" lon="9.5395220">
	<ele>1618.40</ele>
	<time>2023-10-07T10:40:06.000Z</time>
</trkpt>
<trkpt lat="45.9392460" lon="9.5395310">
	<ele>1618.20</ele>
	<time>2023-10-07T10:40:07.000Z</time>
</trkpt>
<trkpt lat="45.9392460" lon="9.5395440">
	<ele>1618.00</ele>
	<time>2023-10-07T10:40:08.000Z</time>
</trkpt>
<trkpt lat="45.9392440" lon="9.5395590">
	<ele>1617.60</ele>
	<time>2023-10-07T10:40:09.000Z</time>
</trkpt>
<trkpt lat="45.9392380" lon="9.5395670">
	<ele>1617.40</ele>
	<time>2023-10-07T10:40:10.000Z</time>
</trkpt>
<trkpt lat="45.9392300" lon="9.5395740">
	<ele>1617.00</ele>
	<time>2023-10-07T10:40:11.000Z</time>
</trkpt>
<trkpt lat="45.9392230" lon="9.5395790">
	<ele>1616.80</ele>
	<time>2023-10-07T10:40:12.000Z</time>
</trkpt>
<trkpt lat="45.9392170" lon="9.5395860">
	<ele>1616.60</ele>
	<time>2023-10-07T10:40:13.000Z</time>
</trkpt>
<trkpt lat="45.9392100" lon="9.5395890">
	<ele>1616.20</ele>
	<time>2023-10-07T10:40:14.000Z</time>
</trkpt>
<trkpt lat="45.9392040" lon="9.5395910">
	<ele>1615.80</ele>
	<time>2023-10-07T10:40:15.000Z</time>
</trkpt>
<trkpt lat="45.9391940" lon="9.5396010">
	<ele>1615.60</ele>
	<time>2023-10-07T10:40:16.000Z</time>
</trkpt>
<trkpt lat="45.9391850" lon="9.5396080">
	<ele>1615.40</ele>
	<time>2023-10-07T10:40:17.000Z</time>
</trkpt>
<trkpt lat="45.9391760" lon="9.5396110">
	<ele>1615.20</ele>
	<time>2023-10-07T10:40:18.000Z</time>
</trkpt>
<trkpt lat="45.9391680" lon="9.5396180">
	<ele>1615.00</ele>
	<time>2023-10-07T10:40:19.000Z</time>
</trkpt>
<trkpt lat="45.9391590" lon="9.5396270">
	<ele>1615.00</ele>
	<time>2023-10-07T10:40:20.000Z</time>
</trkpt>
<trkpt lat="45.9391480" lon="9.5396330">
	<ele>1614.80</ele>
	<time>2023-10-07T10:40:21.000Z</time>
</trkpt>
<trkpt lat="45.9391360" lon="9.5396290">
	<ele>1614.40</ele>
	<time>2023-10-07T10:40:22.000Z</time>
</trkpt>
<trkpt lat="45.9391260" lon="9.5396210">
	<ele>1614.20</ele>
	<time>2023-10-07T10:40:23.000Z</time>
</trkpt>
<trkpt lat="45.9391160" lon="9.5396120">
	<ele>1614.20</ele>
	<time>2023-10-07T10:40:24.000Z</time>
</trkpt>
<trkpt lat="45.9391100" lon="9.5396030">
	<ele>1614.00</ele>
	<time>2023-10-07T10:40:25.000Z</time>
</trkpt>
<trkpt lat="45.9391020" lon="9.5395960">
	<ele>1614.00</ele>
	<time>2023-10-07T10:40:26.000Z</time>
</trkpt>
<trkpt lat="45.9390940" lon="9.5395900">
	<ele>1613.80</ele>
	<time>2023-10-07T10:40:27.000Z</time>
</trkpt>
<trkpt lat="45.9390850" lon="9.5395880">
	<ele>1613.80</ele>
	<time>2023-10-07T10:40:28.000Z</time>
</trkpt>
<trkpt lat="45.9390750" lon="9.5395840">
	<ele>1613.80</ele>
	<time>2023-10-07T10:40:29.000Z</time>
</trkpt>
<trkpt lat="45.9390660" lon="9.5395780">
	<ele>1613.80</ele>
	<time>2023-10-07T10:40:30.000Z</time>
</trkpt>
<trkpt lat="45.9390540" lon="9.5395740">
	<ele>1613.80</ele>
	<time>2023-10-07T10:40:31.000Z</time>
</trkpt>
<trkpt lat="45.9390420" lon="9.5395720">
	<ele>1613.80</ele>
	<time>2023-10-07T10:40:32.000Z</time>
</trkpt>
<trkpt lat="45.9390320" lon="9.5395700">
	<ele>1613.60</ele>
	<time>2023-10-07T10:40:33.000Z</time>
</trkpt>
<trkpt lat="45.9390220" lon="9.5395710">
	<ele>1613.40</ele>
	<time>2023-10-07T10:40:34.000Z</time>
</trkpt>
<trkpt lat="45.9390150" lon="9.5395730">
	<ele>1613.20</ele>
	<time>2023-10-07T10:40:35.000Z</time>
</trkpt>
<trkpt lat="45.9390090" lon="9.5395730">
	<ele>1613.20</ele>
	<time>2023-10-07T10:40:36.000Z</time>
</trkpt>
<trkpt lat="45.9390010" lon="9.5395690">
	<ele>1613.00</ele>
	<time>2023-10-07T10:40:37.000Z</time>
</trkpt>
<trkpt lat="45.9389900" lon="9.5395650">
	<ele>1613.00</ele>
	<time>2023-10-07T10:40:38.000Z</time>
</trkpt>
<trkpt lat="45.9389780" lon="9.5395650">
	<ele>1612.80</ele>
	<time>2023-10-07T10:40:39.000Z</time>
</trkpt>
<trkpt lat="45.9389660" lon="9.5395650">
	<ele>1612.60</ele>
	<time>2023-10-07T10:40:40.000Z</time>
</trkpt>
<trkpt lat="45.9389550" lon="9.5395630">
	<ele>1612.40</ele>
	<time>2023-10-07T10:40:41.000Z</time>
</trkpt>
<trkpt lat="45.9389420" lon="9.5395560">
	<ele>1612.40</ele>
	<time>2023-10-07T10:40:42.000Z</time>
</trkpt>
<trkpt lat="45.9389290" lon="9.5395590">
	<ele>1612.20</ele>
	<time>2023-10-07T10:40:43.000Z</time>
</trkpt>
<trkpt lat="45.9389210" lon="9.5395570">
	<ele>1612.00</ele>
	<time>2023-10-07T10:40:44.000Z</time>
</trkpt>
<trkpt lat="45.9389100" lon="9.5395580">
	<ele>1611.80</ele>
	<time>2023-10-07T10:40:45.000Z</time>
</trkpt>
<trkpt lat="45.9388960" lon="9.5395640">
	<ele>1611.80</ele>
	<time>2023-10-07T10:40:46.000Z</time>
</trkpt>
<trkpt lat="45.9388900" lon="9.5395660">
	<ele>1611.60</ele>
	<time>2023-10-07T10:40:47.000Z</time>
</trkpt>
<trkpt lat="45.9388820" lon="9.5395660">
	<ele>1611.60</ele>
	<time>2023-10-07T10:40:48.000Z</time>
</trkpt>
<trkpt lat="45.9388730" lon="9.5395650">
	<ele>1611.20</ele>
	<time>2023-10-07T10:40:49.000Z</time>
</trkpt>
<trkpt lat="45.9388650" lon="9.5395680">
	<ele>1611.20</ele>
	<time>2023-10-07T10:40:50.000Z</time>
</trkpt>
<trkpt lat="45.9388570" lon="9.5395740">
	<ele>1611.00</ele>
	<time>2023-10-07T10:40:51.000Z</time>
</trkpt>
<trkpt lat="45.9388500" lon="9.5395800">
	<ele>1610.80</ele>
	<time>2023-10-07T10:40:52.000Z</time>
</trkpt>
<trkpt lat="45.9388430" lon="9.5395880">
	<ele>1610.40</ele>
	<time>2023-10-07T10:40:53.000Z</time>
</trkpt>
<trkpt lat="45.9388360" lon="9.5395980">
	<ele>1610.20</ele>
	<time>2023-10-07T10:40:54.000Z</time>
</trkpt>
<trkpt lat="45.9388280" lon="9.5396090">
	<ele>1610.00</ele>
	<time>2023-10-07T10:40:55.000Z</time>
</trkpt>
<trkpt lat="45.9388180" lon="9.5396120">
	<ele>1609.80</ele>
	<time>2023-10-07T10:40:56.000Z</time>
</trkpt>
<trkpt lat="45.9388060" lon="9.5396110">
	<ele>1609.80</ele>
	<time>2023-10-07T10:40:57.000Z</time>
</trkpt>
<trkpt lat="45.9387900" lon="9.5396130">
	<ele>1609.60</ele>
	<time>2023-10-07T10:40:58.000Z</time>
</trkpt>
<trkpt lat="45.9387750" lon="9.5396150">
	<ele>1609.40</ele>
	<time>2023-10-07T10:40:59.000Z</time>
</trkpt>
<trkpt lat="45.9387630" lon="9.5396160">
	<ele>1609.40</ele>
	<time>2023-10-07T10:41:00.000Z</time>
</trkpt>
<trkpt lat="45.9387530" lon="9.5396110">
	<ele>1609.00</ele>
	<time>2023-10-07T10:41:01.000Z</time>
</trkpt>
<trkpt lat="45.9387430" lon="9.5396090">
	<ele>1609.00</ele>
	<time>2023-10-07T10:41:02.000Z</time>
</trkpt>
<trkpt lat="45.9387360" lon="9.5396100">
	<ele>1608.60</ele>
	<time>2023-10-07T10:41:03.000Z</time>
</trkpt>
<trkpt lat="45.9387260" lon="9.5396120">
	<ele>1608.40</ele>
	<time>2023-10-07T10:41:04.000Z</time>
</trkpt>
<trkpt lat="45.9387140" lon="9.5396140">
	<ele>1608.40</ele>
	<time>2023-10-07T10:41:05.000Z</time>
</trkpt>
<trkpt lat="45.9387070" lon="9.5396130">
	<ele>1608.20</ele>
	<time>2023-10-07T10:41:06.000Z</time>
</trkpt>
<trkpt lat="45.9386990" lon="9.5396120">
	<ele>1608.20</ele>
	<time>2023-10-07T10:41:07.000Z</time>
</trkpt>
<trkpt lat="45.9386890" lon="9.5396120">
	<ele>1608.20</ele>
	<time>2023-10-07T10:41:08.000Z</time>
</trkpt>
<trkpt lat="45.9386760" lon="9.5396130">
	<ele>1608.00</ele>
	<time>2023-10-07T10:41:09.000Z</time>
</trkpt>
<trkpt lat="45.9386630" lon="9.5396160">
	<ele>1608.00</ele>
	<time>2023-10-07T10:41:10.000Z</time>
</trkpt>
<trkpt lat="45.9386560" lon="9.5396190">
	<ele>1607.80</ele>
	<time>2023-10-07T10:41:11.000Z</time>
</trkpt>
<trkpt lat="45.9386480" lon="9.5396210">
	<ele>1607.80</ele>
	<time>2023-10-07T10:41:12.000Z</time>
</trkpt>
<trkpt lat="45.9386400" lon="9.5396280">
	<ele>1607.60</ele>
	<time>2023-10-07T10:41:13.000Z</time>
</trkpt>
<trkpt lat="45.9386320" lon="9.5396330">
	<ele>1607.20</ele>
	<time>2023-10-07T10:41:14.000Z</time>
</trkpt>
<trkpt lat="45.9386240" lon="9.5396370">
	<ele>1607.20</ele>
	<time>2023-10-07T10:41:15.000Z</time>
</trkpt>
<trkpt lat="45.9386160" lon="9.5396430">
	<ele>1606.80</ele>
	<time>2023-10-07T10:41:16.000Z</time>
</trkpt>
<trkpt lat="45.9386070" lon="9.5396490">
	<ele>1606.60</ele>
	<time>2023-10-07T10:41:17.000Z</time>
</trkpt>
<trkpt lat="45.9385950" lon="9.5396560">
	<ele>1606.20</ele>
	<time>2023-10-07T10:41:18.000Z</time>
</trkpt>
<trkpt lat="45.9385900" lon="9.5396610">
	<ele>1605.80</ele>
	<time>2023-10-07T10:41:19.000Z</time>
</trkpt>
<trkpt lat="45.9385820" lon="9.5396690">
	<ele>1605.60</ele>
	<time>2023-10-07T10:41:20.000Z</time>
</trkpt>
<trkpt lat="45.9385720" lon="9.5396760">
	<ele>1605.20</ele>
	<time>2023-10-07T10:41:21.000Z</time>
</trkpt>
<trkpt lat="45.9385630" lon="9.5396800">
	<ele>1605.20</ele>
	<time>2023-10-07T10:41:22.000Z</time>
</trkpt>
<trkpt lat="45.9385510" lon="9.5396870">
	<ele>1604.80</ele>
	<time>2023-10-07T10:41:23.000Z</time>
</trkpt>
<trkpt lat="45.9385400" lon="9.5396910">
	<ele>1604.60</ele>
	<time>2023-10-07T10:41:24.000Z</time>
</trkpt>
<trkpt lat="45.9385290" lon="9.5396920">
	<ele>1604.20</ele>
	<time>2023-10-07T10:41:25.000Z</time>
</trkpt>
<trkpt lat="45.9385180" lon="9.5396950">
	<ele>1604.00</ele>
	<time>2023-10-07T10:41:26.000Z</time>
</trkpt>
<trkpt lat="45.9385080" lon="9.5396990">
	<ele>1603.80</ele>
	<time>2023-10-07T10:41:27.000Z</time>
</trkpt>
<trkpt lat="45.9385000" lon="9.5397020">
	<ele>1603.80</ele>
	<time>2023-10-07T10:41:28.000Z</time>
</trkpt>
<trkpt lat="45.9384910" lon="9.5397090">
	<ele>1603.60</ele>
	<time>2023-10-07T10:41:29.000Z</time>
</trkpt>
<trkpt lat="45.9384810" lon="9.5397200">
	<ele>1603.40</ele>
	<time>2023-10-07T10:41:30.000Z</time>
</trkpt>
<trkpt lat="45.9384690" lon="9.5397300">
	<ele>1603.20</ele>
	<time>2023-10-07T10:41:31.000Z</time>
</trkpt>
<trkpt lat="45.9384610" lon="9.5397350">
	<ele>1603.00</ele>
	<time>2023-10-07T10:41:32.000Z</time>
</trkpt>
<trkpt lat="45.9384490" lon="9.5397420">
	<ele>1602.80</ele>
	<time>2023-10-07T10:41:33.000Z</time>
</trkpt>
<trkpt lat="45.9384370" lon="9.5397460">
	<ele>1602.60</ele>
	<time>2023-10-07T10:41:34.000Z</time>
</trkpt>
<trkpt lat="45.9384240" lon="9.5397520">
	<ele>1602.40</ele>
	<time>2023-10-07T10:41:35.000Z</time>
</trkpt>
<trkpt lat="45.9384150" lon="9.5397540">
	<ele>1602.00</ele>
	<time>2023-10-07T10:41:36.000Z</time>
</trkpt>
<trkpt lat="45.9384030" lon="9.5397590">
	<ele>1602.00</ele>
	<time>2023-10-07T10:41:37.000Z</time>
</trkpt>
<trkpt lat="45.9383920" lon="9.5397660">
	<ele>1601.80</ele>
	<time>2023-10-07T10:41:38.000Z</time>
</trkpt>
<trkpt lat="45.9383820" lon="9.5397720">
	<ele>1601.60</ele>
	<time>2023-10-07T10:41:39.000Z</time>
</trkpt>
<trkpt lat="45.9383700" lon="9.5397770">
	<ele>1601.40</ele>
	<time>2023-10-07T10:41:40.000Z</time>
</trkpt>
<trkpt lat="45.9383580" lon="9.5397800">
	<ele>1601.40</ele>
	<time>2023-10-07T10:41:41.000Z</time>
</trkpt>
<trkpt lat="45.9383460" lon="9.5397820">
	<ele>1601.00</ele>
	<time>2023-10-07T10:41:42.000Z</time>
</trkpt>
<trkpt lat="45.9383310" lon="9.5397840">
	<ele>1600.60</ele>
	<time>2023-10-07T10:41:43.000Z</time>
</trkpt>
<trkpt lat="45.9383200" lon="9.5397840">
	<ele>1600.20</ele>
	<time>2023-10-07T10:41:44.000Z</time>
</trkpt>
<trkpt lat="45.9383030" lon="9.5397780">
	<ele>1599.80</ele>
	<time>2023-10-07T10:41:45.000Z</time>
</trkpt>
<trkpt lat="45.9382950" lon="9.5397700">
	<ele>1599.60</ele>
	<time>2023-10-07T10:41:46.000Z</time>
</trkpt>
<trkpt lat="45.9382880" lon="9.5397580">
	<ele>1599.40</ele>
	<time>2023-10-07T10:41:47.000Z</time>
</trkpt>
<trkpt lat="45.9382840" lon="9.5397460">
	<ele>1599.20</ele>
	<time>2023-10-07T10:41:48.000Z</time>
</trkpt>
<trkpt lat="45.9382770" lon="9.5397310">
	<ele>1599.00</ele>
	<time>2023-10-07T10:41:49.000Z</time>
</trkpt>
<trkpt lat="45.9382700" lon="9.5397170">
	<ele>1598.60</ele>
	<time>2023-10-07T10:41:50.000Z</time>
</trkpt>
<trkpt lat="45.9382630" lon="9.5397050">
	<ele>1598.40</ele>
	<time>2023-10-07T10:41:51.000Z</time>
</trkpt>
<trkpt lat="45.9382530" lon="9.5396920">
	<ele>1598.40</ele>
	<time>2023-10-07T10:41:52.000Z</time>
</trkpt>
<trkpt lat="45.9382480" lon="9.5396810">
	<ele>1598.20</ele>
	<time>2023-10-07T10:41:53.000Z</time>
</trkpt>
<trkpt lat="45.9382390" lon="9.5396660">
	<ele>1598.20</ele>
	<time>2023-10-07T10:41:54.000Z</time>
</trkpt>
<trkpt lat="45.9382340" lon="9.5396510">
	<ele>1598.00</ele>
	<time>2023-10-07T10:41:55.000Z</time>
</trkpt>
<trkpt lat="45.9382290" lon="9.5396370">
	<ele>1597.80</ele>
	<time>2023-10-07T10:41:56.000Z</time>
</trkpt>
<trkpt lat="45.9382250" lon="9.5396200">
	<ele>1597.80</ele>
	<time>2023-10-07T10:41:57.000Z</time>
</trkpt>
<trkpt lat="45.9382200" lon="9.5396080">
	<ele>1597.60</ele>
	<time>2023-10-07T10:41:58.000Z</time>
</trkpt>
<trkpt lat="45.9382120" lon="9.5395960">
	<ele>1597.60</ele>
	<time>2023-10-07T10:41:59.000Z</time>
</trkpt>
<trkpt lat="45.9382070" lon="9.5395840">
	<ele>1597.40</ele>
	<time>2023-10-07T10:42:00.000Z</time>
</trkpt>
<trkpt lat="45.9381990" lon="9.5395710">
	<ele>1597.40</ele>
	<time>2023-10-07T10:42:01.000Z</time>
</trkpt>
<trkpt lat="45.9381890" lon="9.5395580">
	<ele>1597.00</ele>
	<time>2023-10-07T10:42:02.000Z</time>
</trkpt>
<trkpt lat="45.9381780" lon="9.5395460">
	<ele>1596.80</ele>
	<time>2023-10-07T10:42:03.000Z</time>
</trkpt>
<trkpt lat="45.9381710" lon="9.5395400">
	<ele>1596.60</ele>
	<time>2023-10-07T10:42:04.000Z</time>
</trkpt>
<trkpt lat="45.9381650" lon="9.5395300">
	<ele>1596.20</ele>
	<time>2023-10-07T10:42:05.000Z</time>
</trkpt>
<trkpt lat="45.9381560" lon="9.5395200">
	<ele>1596.00</ele>
	<time>2023-10-07T10:42:06.000Z</time>
</trkpt>
<trkpt lat="45.9381440" lon="9.5395100">
	<ele>1595.80</ele>
	<time>2023-10-07T10:42:07.000Z</time>
</trkpt>
<trkpt lat="45.9381320" lon="9.5395080">
	<ele>1595.60</ele>
	<time>2023-10-07T10:42:08.000Z</time>
</trkpt>
<trkpt lat="45.9381180" lon="9.5395040">
	<ele>1595.40</ele>
	<time>2023-10-07T10:42:09.000Z</time>
</trkpt>
<trkpt lat="45.9381060" lon="9.5395020">
	<ele>1595.20</ele>
	<time>2023-10-07T10:42:10.000Z</time>
</trkpt>
<trkpt lat="45.9380970" lon="9.5395030">
	<ele>1594.80</ele>
	<time>2023-10-07T10:42:11.000Z</time>
</trkpt>
<trkpt lat="45.9380920" lon="9.5395020">
	<ele>1594.60</ele>
	<time>2023-10-07T10:42:12.000Z</time>
</trkpt>
<trkpt lat="45.9380900" lon="9.5395020">
	<ele>1594.40</ele>
	<time>2023-10-07T10:42:13.000Z</time>
</trkpt>
<trkpt lat="45.9380880" lon="9.5395030">
	<ele>1594.20</ele>
	<time>2023-10-07T10:42:14.000Z</time>
</trkpt>
<trkpt lat="45.9380870" lon="9.5395030">
	<ele>1594.20</ele>
	<time>2023-10-07T10:42:15.000Z</time>
</trkpt>
<trkpt lat="45.9380870" lon="9.5395030">
	<ele>1594.20</ele>
	<time>2023-10-07T10:42:16.000Z</time>
</trkpt>
<trkpt lat="45.9380870" lon="9.5395040">
	<ele>1594.20</ele>
	<time>2023-10-07T10:42:17.000Z</time>
</trkpt>
<trkpt lat="45.9380880" lon="9.5395030">
	<ele>1594.40</ele>
	<time>2023-10-07T10:42:18.000Z</time>
</trkpt>
<trkpt lat="45.9380880" lon="9.5395040">
	<ele>1594.60</ele>
	<time>2023-10-07T10:42:19.000Z</time>
</trkpt>
<trkpt lat="45.9380880" lon="9.5395030">
	<ele>1594.60</ele>
	<time>2023-10-07T10:42:20.000Z</time>
</trkpt>
<trkpt lat="45.9380870" lon="9.5395020">
	<ele>1594.60</ele>
	<time>2023-10-07T10:42:21.000Z</time>
</trkpt>
<trkpt lat="45.9380870" lon="9.5395020">
	<ele>1594.60</ele>
	<time>2023-10-07T10:42:22.000Z</time>
</trkpt>
<trkpt lat="45.9380870" lon="9.5395040">
	<ele>1594.80</ele>
	<time>2023-10-07T10:42:23.000Z</time>
</trkpt>
<trkpt lat="45.9380870" lon="9.5395040">
	<ele>1594.80</ele>
	<time>2023-10-07T10:42:24.000Z</time>
</trkpt>
<trkpt lat="45.9380870" lon="9.5395040">
	<ele>1594.60</ele>
	<time>2023-10-07T10:42:25.000Z</time>
</trkpt>
<trkpt lat="45.9380870" lon="9.5395040">
	<ele>1594.40</ele>
	<time>2023-10-07T10:42:26.000Z</time>
</trkpt>
<trkpt lat="45.9380870" lon="9.5395040">
	<ele>1594.20</ele>
	<time>2023-10-07T10:42:27.000Z</time>
</trkpt>
<trkpt lat="45.9380870" lon="9.5395040">
	<ele>1594.00</ele>
	<time>2023-10-07T10:42:28.000Z</time>
</trkpt>
<trkpt lat="45.9380840" lon="9.5395080">
	<ele>1593.80</ele>
	<time>2023-10-07T10:42:29.000Z</time>
</trkpt>
<trkpt lat="45.9380750" lon="9.5395150">
	<ele>1593.40</ele>
	<time>2023-10-07T10:42:30.000Z</time>
</trkpt>
<trkpt lat="45.9380610" lon="9.5395210">
	<ele>1593.20</ele>
	<time>2023-10-07T10:42:31.000Z</time>
</trkpt>
<trkpt lat="45.9380510" lon="9.5395240">
	<ele>1593.00</ele>
	<time>2023-10-07T10:42:32.000Z</time>
</trkpt>
<trkpt lat="45.9380350" lon="9.5395340">
	<ele>1592.60</ele>
	<time>2023-10-07T10:42:33.000Z</time>
</trkpt>
<trkpt lat="45.9380190" lon="9.5395440">
	<ele>1592.40</ele>
	<time>2023-10-07T10:42:34.000Z</time>
</trkpt>
<trkpt lat="45.9380040" lon="9.5395570">
	<ele>1592.20</ele>
	<time>2023-10-07T10:42:35.000Z</time>
</trkpt>
<trkpt lat="45.9379920" lon="9.5395670">
	<ele>1592.20</ele>
	<time>2023-10-07T10:42:36.000Z</time>
</trkpt>
<trkpt lat="45.9379760" lon="9.5395810">
	<ele>1592.00</ele>
	<time>2023-10-07T10:42:37.000Z</time>
</trkpt>
<trkpt lat="45.9379650" lon="9.5395890">
	<ele>1592.00</ele>
	<time>2023-10-07T10:42:38.000Z</time>
</trkpt>
<trkpt lat="45.9379540" lon="9.5395940">
	<ele>1592.00</ele>
	<time>2023-10-07T10:42:39.000Z</time>
</trkpt>
<trkpt lat="45.9379450" lon="9.5396010">
	<ele>1592.00</ele>
	<time>2023-10-07T10:42:40.000Z</time>
</trkpt>
<trkpt lat="45.9379350" lon="9.5396090">
	<ele>1591.60</ele>
	<time>2023-10-07T10:42:41.000Z</time>
</trkpt>
<trkpt lat="45.9379250" lon="9.5396150">
	<ele>1591.60</ele>
	<time>2023-10-07T10:42:42.000Z</time>
</trkpt>
<trkpt lat="45.9379140" lon="9.5396200">
	<ele>1591.40</ele>
	<time>2023-10-07T10:42:43.000Z</time>
</trkpt>
<trkpt lat="45.9379050" lon="9.5396250">
	<ele>1591.40</ele>
	<time>2023-10-07T10:42:44.000Z</time>
</trkpt>
<trkpt lat="45.9378920" lon="9.5396300">
	<ele>1591.40</ele>
	<time>2023-10-07T10:42:45.000Z</time>
</trkpt>
<trkpt lat="45.9378770" lon="9.5396310">
	<ele>1591.00</ele>
	<time>2023-10-07T10:42:46.000Z</time>
</trkpt>
<trkpt lat="45.9378680" lon="9.5396330">
	<ele>1590.80</ele>
	<time>2023-10-07T10:42:47.000Z</time>
</trkpt>
<trkpt lat="45.9378580" lon="9.5396360">
	<ele>1590.80</ele>
	<time>2023-10-07T10:42:48.000Z</time>
</trkpt>
<trkpt lat="45.9378460" lon="9.5396390">
	<ele>1590.80</ele>
	<time>2023-10-07T10:42:49.000Z</time>
</trkpt>
<trkpt lat="45.9378340" lon="9.5396400">
	<ele>1590.60</ele>
	<time>2023-10-07T10:42:50.000Z</time>
</trkpt>
<trkpt lat="45.9378190" lon="9.5396420">
	<ele>1590.20</ele>
	<time>2023-10-07T10:42:51.000Z</time>
</trkpt>
<trkpt lat="45.9378080" lon="9.5396440">
	<ele>1590.20</ele>
	<time>2023-10-07T10:42:52.000Z</time>
</trkpt>
<trkpt lat="45.9377970" lon="9.5396450">
	<ele>1590.00</ele>
	<time>2023-10-07T10:42:53.000Z</time>
</trkpt>
<trkpt lat="45.9377850" lon="9.5396510">
	<ele>1590.20</ele>
	<time>2023-10-07T10:42:54.000Z</time>
</trkpt>
<trkpt lat="45.9377700" lon="9.5396610">
	<ele>1590.20</ele>
	<time>2023-10-07T10:42:55.000Z</time>
</trkpt>
<trkpt lat="45.9377620" lon="9.5396670">
	<ele>1590.00</ele>
	<time>2023-10-07T10:42:56.000Z</time>
</trkpt>
<trkpt lat="45.9377520" lon="9.5396720">
	<ele>1590.00</ele>
	<time>2023-10-07T10:42:57.000Z</time>
</trkpt>
<trkpt lat="45.9377410" lon="9.5396820">
	<ele>1590.00</ele>
	<time>2023-10-07T10:42:58.000Z</time>
</trkpt>
<trkpt lat="45.9377270" lon="9.5396880">
	<ele>1590.00</ele>
	<time>2023-10-07T10:42:59.000Z</time>
</trkpt>
<trkpt lat="45.9377180" lon="9.5396940">
	<ele>1590.00</ele>
	<time>2023-10-07T10:43:00.000Z</time>
</trkpt>
<trkpt lat="45.9377100" lon="9.5397000">
	<ele>1590.00</ele>
	<time>2023-10-07T10:43:01.000Z</time>
</trkpt>
<trkpt lat="45.9377050" lon="9.5397040">
	<ele>1590.00</ele>
	<time>2023-10-07T10:43:02.000Z</time>
</trkpt>
<trkpt lat="45.9376980" lon="9.5397120">
	<ele>1589.80</ele>
	<time>2023-10-07T10:43:03.000Z</time>
</trkpt>
<trkpt lat="45.9376910" lon="9.5397230">
	<ele>1589.80</ele>
	<time>2023-10-07T10:43:04.000Z</time>
</trkpt>
<trkpt lat="45.9376820" lon="9.5397270">
	<ele>1589.60</ele>
	<time>2023-10-07T10:43:05.000Z</time>
</trkpt>
<trkpt lat="45.9376730" lon="9.5397290">
	<ele>1589.20</ele>
	<time>2023-10-07T10:43:06.000Z</time>
</trkpt>
<trkpt lat="45.9376630" lon="9.5397330">
	<ele>1588.80</ele>
	<time>2023-10-07T10:43:07.000Z</time>
</trkpt>
<trkpt lat="45.9376540" lon="9.5397380">
	<ele>1588.60</ele>
	<time>2023-10-07T10:43:08.000Z</time>
</trkpt>
<trkpt lat="45.9376440" lon="9.5397450">
	<ele>1588.20</ele>
	<time>2023-10-07T10:43:09.000Z</time>
</trkpt>
<trkpt lat="45.9376360" lon="9.5397450">
	<ele>1588.00</ele>
	<time>2023-10-07T10:43:10.000Z</time>
</trkpt>
<trkpt lat="45.9376290" lon="9.5397400">
	<ele>1587.80</ele>
	<time>2023-10-07T10:43:11.000Z</time>
</trkpt>
<trkpt lat="45.9376240" lon="9.5397380">
	<ele>1587.40</ele>
	<time>2023-10-07T10:43:12.000Z</time>
</trkpt>
<trkpt lat="45.9376190" lon="9.5397370">
	<ele>1587.00</ele>
	<time>2023-10-07T10:43:13.000Z</time>
</trkpt>
<trkpt lat="45.9376120" lon="9.5397360">
	<ele>1587.00</ele>
	<time>2023-10-07T10:43:14.000Z</time>
</trkpt>
<trkpt lat="45.9376050" lon="9.5397380">
	<ele>1586.60</ele>
	<time>2023-10-07T10:43:15.000Z</time>
</trkpt>
<trkpt lat="45.9375990" lon="9.5397370">
	<ele>1586.40</ele>
	<time>2023-10-07T10:43:16.000Z</time>
</trkpt>
<trkpt lat="45.9375910" lon="9.5397340">
	<ele>1586.20</ele>
	<time>2023-10-07T10:43:17.000Z</time>
</trkpt>
<trkpt lat="45.9375860" lon="9.5397260">
	<ele>1585.80</ele>
	<time>2023-10-07T10:43:18.000Z</time>
</trkpt>
<trkpt lat="45.9375800" lon="9.5397190">
	<ele>1585.40</ele>
	<time>2023-10-07T10:43:19.000Z</time>
</trkpt>
<trkpt lat="45.9375730" lon="9.5397120">
	<ele>1585.20</ele>
	<time>2023-10-07T10:43:20.000Z</time>
</trkpt>
<trkpt lat="45.9375640" lon="9.5397030">
	<ele>1585.00</ele>
	<time>2023-10-07T10:43:21.000Z</time>
</trkpt>
<trkpt lat="45.9375600" lon="9.5396880">
	<ele>1584.60</ele>
	<time>2023-10-07T10:43:22.000Z</time>
</trkpt>
<trkpt lat="45.9375580" lon="9.5396710">
	<ele>1584.40</ele>
	<time>2023-10-07T10:43:23.000Z</time>
</trkpt>
<trkpt lat="45.9375560" lon="9.5396540">
	<ele>1584.20</ele>
	<time>2023-10-07T10:43:24.000Z</time>
</trkpt>
<trkpt lat="45.9375530" lon="9.5396310">
	<ele>1584.00</ele>
	<time>2023-10-07T10:43:25.000Z</time>
</trkpt>
<trkpt lat="45.9375490" lon="9.5396120">
	<ele>1584.00</ele>
	<time>2023-10-07T10:43:26.000Z</time>
</trkpt>
<trkpt lat="45.9375460" lon="9.5395950">
	<ele>1583.80</ele>
	<time>2023-10-07T10:43:27.000Z</time>
</trkpt>
<trkpt lat="45.9375430" lon="9.5395820">
	<ele>1583.60</ele>
	<time>2023-10-07T10:43:28.000Z</time>
</trkpt>
<trkpt lat="45.9375410" lon="9.5395680">
	<ele>1583.40</ele>
	<time>2023-10-07T10:43:29.000Z</time>
</trkpt>
<trkpt lat="45.9375370" lon="9.5395520">
	<ele>1583.20</ele>
	<time>2023-10-07T10:43:30.000Z</time>
</trkpt>
<trkpt lat="45.9375370" lon="9.5395370">
	<ele>1583.00</ele>
	<time>2023-10-07T10:43:31.000Z</time>
</trkpt>
<trkpt lat="45.9375350" lon="9.5395210">
	<ele>1582.80</ele>
	<time>2023-10-07T10:43:32.000Z</time>
</trkpt>
<trkpt lat="45.9375350" lon="9.5395090">
	<ele>1582.60</ele>
	<time>2023-10-07T10:43:33.000Z</time>
</trkpt>
<trkpt lat="45.9375370" lon="9.5394970">
	<ele>1582.40</ele>
	<time>2023-10-07T10:43:34.000Z</time>
</trkpt>
<trkpt lat="45.9375410" lon="9.5394850">
	<ele>1582.20</ele>
	<time>2023-10-07T10:43:35.000Z</time>
</trkpt>
<trkpt lat="45.9375420" lon="9.5394720">
	<ele>1582.20</ele>
	<time>2023-10-07T10:43:36.000Z</time>
</trkpt>
<trkpt lat="45.9375410" lon="9.5394600">
	<ele>1582.00</ele>
	<time>2023-10-07T10:43:37.000Z</time>
</trkpt>
<trkpt lat="45.9375430" lon="9.5394440">
	<ele>1581.80</ele>
	<time>2023-10-07T10:43:38.000Z</time>
</trkpt>
<trkpt lat="45.9375420" lon="9.5394270">
	<ele>1581.60</ele>
	<time>2023-10-07T10:43:39.000Z</time>
</trkpt>
<trkpt lat="45.9375420" lon="9.5394100">
	<ele>1581.40</ele>
	<time>2023-10-07T10:43:40.000Z</time>
</trkpt>
<trkpt lat="45.9375410" lon="9.5393930">
	<ele>1581.20</ele>
	<time>2023-10-07T10:43:41.000Z</time>
</trkpt>
<trkpt lat="45.9375400" lon="9.5393790">
	<ele>1581.00</ele>
	<time>2023-10-07T10:43:42.000Z</time>
</trkpt>
<trkpt lat="45.9375400" lon="9.5393650">
	<ele>1580.80</ele>
	<time>2023-10-07T10:43:43.000Z</time>
</trkpt>
<trkpt lat="45.9375370" lon="9.5393490">
	<ele>1580.80</ele>
	<time>2023-10-07T10:43:44.000Z</time>
</trkpt>
<trkpt lat="45.9375350" lon="9.5393360">
	<ele>1580.40</ele>
	<time>2023-10-07T10:43:45.000Z</time>
</trkpt>
<trkpt lat="45.9375330" lon="9.5393270">
	<ele>1580.40</ele>
	<time>2023-10-07T10:43:46.000Z</time>
</trkpt>
<trkpt lat="45.9375270" lon="9.5393240">
	<ele>1580.20</ele>
	<time>2023-10-07T10:43:47.000Z</time>
</trkpt>
<trkpt lat="45.9375160" lon="9.5393170">
	<ele>1580.20</ele>
	<time>2023-10-07T10:43:48.000Z</time>
</trkpt>
<trkpt lat="45.9375090" lon="9.5393050">
	<ele>1580.00</ele>
	<time>2023-10-07T10:43:49.000Z</time>
</trkpt>
<trkpt lat="45.9375030" lon="9.5392930">
	<ele>1579.80</ele>
	<time>2023-10-07T10:43:50.000Z</time>
</trkpt>
<trkpt lat="45.9374990" lon="9.5392780">
	<ele>1579.80</ele>
	<time>2023-10-07T10:43:51.000Z</time>
</trkpt>
<trkpt lat="45.9374970" lon="9.5392650">
	<ele>1579.60</ele>
	<time>2023-10-07T10:43:52.000Z</time>
</trkpt>
<trkpt lat="45.9374960" lon="9.5392490">
	<ele>1579.40</ele>
	<time>2023-10-07T10:43:53.000Z</time>
</trkpt>
<trkpt lat="45.9374930" lon="9.5392340">
	<ele>1579.20</ele>
	<time>2023-10-07T10:43:54.000Z</time>
</trkpt>
<trkpt lat="45.9374900" lon="9.5392200">
	<ele>1578.80</ele>
	<time>2023-10-07T10:43:55.000Z</time>
</trkpt>
<trkpt lat="45.9374880" lon="9.5392040">
	<ele>1578.60</ele>
	<time>2023-10-07T10:43:56.000Z</time>
</trkpt>
<trkpt lat="45.9374880" lon="9.5391930">
	<ele>1578.40</ele>
	<time>2023-10-07T10:43:57.000Z</time>
</trkpt>
<trkpt lat="45.9374920" lon="9.5391820">
	<ele>1578.40</ele>
	<time>2023-10-07T10:43:58.000Z</time>
</trkpt>
<trkpt lat="45.9374960" lon="9.5391680">
	<ele>1578.20</ele>
	<time>2023-10-07T10:43:59.000Z</time>
</trkpt>
<trkpt lat="45.9374940" lon="9.5391550">
	<ele>1578.00</ele>
	<time>2023-10-07T10:44:00.000Z</time>
</trkpt>
<trkpt lat="45.9374910" lon="9.5391460">
	<ele>1577.80</ele>
	<time>2023-10-07T10:44:01.000Z</time>
</trkpt>
<trkpt lat="45.9374860" lon="9.5391360">
	<ele>1577.60</ele>
	<time>2023-10-07T10:44:02.000Z</time>
</trkpt>
<trkpt lat="45.9374830" lon="9.5391220">
	<ele>1577.60</ele>
	<time>2023-10-07T10:44:03.000Z</time>
</trkpt>
<trkpt lat="45.9374800" lon="9.5391040">
	<ele>1577.40</ele>
	<time>2023-10-07T10:44:04.000Z</time>
</trkpt>
<trkpt lat="45.9374770" lon="9.5390870">
	<ele>1577.40</ele>
	<time>2023-10-07T10:44:05.000Z</time>
</trkpt>
<trkpt lat="45.9374740" lon="9.5390670">
	<ele>1577.00</ele>
	<time>2023-10-07T10:44:06.000Z</time>
</trkpt>
<trkpt lat="45.9374720" lon="9.5390490">
	<ele>1576.80</ele>
	<time>2023-10-07T10:44:07.000Z</time>
</trkpt>
<trkpt lat="45.9374710" lon="9.5390330">
	<ele>1576.80</ele>
	<time>2023-10-07T10:44:08.000Z</time>
</trkpt>
<trkpt lat="45.9374690" lon="9.5390170">
	<ele>1576.60</ele>
	<time>2023-10-07T10:44:09.000Z</time>
</trkpt>
<trkpt lat="45.9374650" lon="9.5390020">
	<ele>1576.40</ele>
	<time>2023-10-07T10:44:10.000Z</time>
</trkpt>
<trkpt lat="45.9374610" lon="9.5389900">
	<ele>1576.20</ele>
	<time>2023-10-07T10:44:11.000Z</time>
</trkpt>
<trkpt lat="45.9374580" lon="9.5389760">
	<ele>1576.00</ele>
	<time>2023-10-07T10:44:12.000Z</time>
</trkpt>
<trkpt lat="45.9374540" lon="9.5389640">
	<ele>1575.80</ele>
	<time>2023-10-07T10:44:13.000Z</time>
</trkpt>
<trkpt lat="45.9374470" lon="9.5389590">
	<ele>1575.60</ele>
	<time>2023-10-07T10:44:14.000Z</time>
</trkpt>
<trkpt lat="45.9374380" lon="9.5389460">
	<ele>1575.60</ele>
	<time>2023-10-07T10:44:15.000Z</time>
</trkpt>
<trkpt lat="45.9374320" lon="9.5389360">
	<ele>1575.40</ele>
	<time>2023-10-07T10:44:16.000Z</time>
</trkpt>
<trkpt lat="45.9374240" lon="9.5389210">
	<ele>1575.20</ele>
	<time>2023-10-07T10:44:17.000Z</time>
</trkpt>
<trkpt lat="45.9374180" lon="9.5389060">
	<ele>1575.00</ele>
	<time>2023-10-07T10:44:18.000Z</time>
</trkpt>
<trkpt lat="45.9374150" lon="9.5388910">
	<ele>1574.80</ele>
	<time>2023-10-07T10:44:19.000Z</time>
</trkpt>
<trkpt lat="45.9374160" lon="9.5388710">
	<ele>1574.40</ele>
	<time>2023-10-07T10:44:20.000Z</time>
</trkpt>
<trkpt lat="45.9374160" lon="9.5388520">
	<ele>1574.20</ele>
	<time>2023-10-07T10:44:21.000Z</time>
</trkpt>
<trkpt lat="45.9374160" lon="9.5388340">
	<ele>1574.00</ele>
	<time>2023-10-07T10:44:22.000Z</time>
</trkpt>
<trkpt lat="45.9374160" lon="9.5388190">
	<ele>1574.00</ele>
	<time>2023-10-07T10:44:23.000Z</time>
</trkpt>
<trkpt lat="45.9374160" lon="9.5388050">
	<ele>1573.80</ele>
	<time>2023-10-07T10:44:24.000Z</time>
</trkpt>
<trkpt lat="45.9374150" lon="9.5387910">
	<ele>1573.60</ele>
	<time>2023-10-07T10:44:25.000Z</time>
</trkpt>
<trkpt lat="45.9374120" lon="9.5387740">
	<ele>1573.40</ele>
	<time>2023-10-07T10:44:26.000Z</time>
</trkpt>
<trkpt lat="45.9374060" lon="9.5387630">
	<ele>1573.20</ele>
	<time>2023-10-07T10:44:27.000Z</time>
</trkpt>
<trkpt lat="45.9374000" lon="9.5387510">
	<ele>1573.20</ele>
	<time>2023-10-07T10:44:28.000Z</time>
</trkpt>
<trkpt lat="45.9373960" lon="9.5387390">
	<ele>1573.00</ele>
	<time>2023-10-07T10:44:29.000Z</time>
</trkpt>
<trkpt lat="45.9373920" lon="9.5387260">
	<ele>1572.80</ele>
	<time>2023-10-07T10:44:30.000Z</time>
</trkpt>
<trkpt lat="45.9373860" lon="9.5387120">
	<ele>1572.60</ele>
	<time>2023-10-07T10:44:31.000Z</time>
</trkpt>
<trkpt lat="45.9373820" lon="9.5387040">
	<ele>1572.40</ele>
	<time>2023-10-07T10:44:32.000Z</time>
</trkpt>
<trkpt lat="45.9373790" lon="9.5386900">
	<ele>1572.20</ele>
	<time>2023-10-07T10:44:33.000Z</time>
</trkpt>
<trkpt lat="45.9373740" lon="9.5386780">
	<ele>1572.20</ele>
	<time>2023-10-07T10:44:34.000Z</time>
</trkpt>
<trkpt lat="45.9373710" lon="9.5386660">
	<ele>1572.00</ele>
	<time>2023-10-07T10:44:35.000Z</time>
</trkpt>
<trkpt lat="45.9373680" lon="9.5386530">
	<ele>1571.80</ele>
	<time>2023-10-07T10:44:36.000Z</time>
</trkpt>
<trkpt lat="45.9373660" lon="9.5386370">
	<ele>1571.60</ele>
	<time>2023-10-07T10:44:37.000Z</time>
</trkpt>
<trkpt lat="45.9373600" lon="9.5386220">
	<ele>1571.60</ele>
	<time>2023-10-07T10:44:38.000Z</time>
</trkpt>
<trkpt lat="45.9373560" lon="9.5386060">
	<ele>1571.40</ele>
	<time>2023-10-07T10:44:39.000Z</time>
</trkpt>
<trkpt lat="45.9373560" lon="9.5385890">
	<ele>1571.20</ele>
	<time>2023-10-07T10:44:40.000Z</time>
</trkpt>
<trkpt lat="45.9373570" lon="9.5385720">
	<ele>1571.00</ele>
	<time>2023-10-07T10:44:41.000Z</time>
</trkpt>
<trkpt lat="45.9373580" lon="9.5385580">
	<ele>1570.80</ele>
	<time>2023-10-07T10:44:42.000Z</time>
</trkpt>
<trkpt lat="45.9373550" lon="9.5385420">
	<ele>1570.80</ele>
	<time>2023-10-07T10:44:43.000Z</time>
</trkpt>
<trkpt lat="45.9373490" lon="9.5385240">
	<ele>1570.60</ele>
	<time>2023-10-07T10:44:44.000Z</time>
</trkpt>
<trkpt lat="45.9373430" lon="9.5385100">
	<ele>1570.60</ele>
	<time>2023-10-07T10:44:45.000Z</time>
</trkpt>
<trkpt lat="45.9373380" lon="9.5384980">
	<ele>1570.40</ele>
	<time>2023-10-07T10:44:46.000Z</time>
</trkpt>
<trkpt lat="45.9373330" lon="9.5384900">
	<ele>1570.40</ele>
	<time>2023-10-07T10:44:47.000Z</time>
</trkpt>
<trkpt lat="45.9373260" lon="9.5384780">
	<ele>1570.20</ele>
	<time>2023-10-07T10:44:48.000Z</time>
</trkpt>
<trkpt lat="45.9373190" lon="9.5384650">
	<ele>1570.20</ele>
	<time>2023-10-07T10:44:49.000Z</time>
</trkpt>
<trkpt lat="45.9373140" lon="9.5384490">
	<ele>1570.20</ele>
	<time>2023-10-07T10:44:50.000Z</time>
</trkpt>
<trkpt lat="45.9373120" lon="9.5384370">
	<ele>1570.20</ele>
	<time>2023-10-07T10:44:51.000Z</time>
</trkpt>
<trkpt lat="45.9373120" lon="9.5384230">
	<ele>1570.20</ele>
	<time>2023-10-07T10:44:52.000Z</time>
</trkpt>
<trkpt lat="45.9373110" lon="9.5384080">
	<ele>1570.00</ele>
	<time>2023-10-07T10:44:53.000Z</time>
</trkpt>
<trkpt lat="45.9373120" lon="9.5383980">
	<ele>1569.80</ele>
	<time>2023-10-07T10:44:54.000Z</time>
</trkpt>
<trkpt lat="45.9373140" lon="9.5383890">
	<ele>1569.80</ele>
	<time>2023-10-07T10:44:55.000Z</time>
</trkpt>
<trkpt lat="45.9373140" lon="9.5383760">
	<ele>1569.60</ele>
	<time>2023-10-07T10:44:56.000Z</time>
</trkpt>
<trkpt lat="45.9373110" lon="9.5383640">
	<ele>1569.60</ele>
	<time>2023-10-07T10:44:57.000Z</time>
</trkpt>
<trkpt lat="45.9373070" lon="9.5383530">
	<ele>1569.40</ele>
	<time>2023-10-07T10:44:58.000Z</time>
</trkpt>
<trkpt lat="45.9373040" lon="9.5383420">
	<ele>1569.20</ele>
	<time>2023-10-07T10:44:59.000Z</time>
</trkpt>
<trkpt lat="45.9372990" lon="9.5383310">
	<ele>1569.00</ele>
	<time>2023-10-07T10:45:00.000Z</time>
</trkpt>
<trkpt lat="45.9372960" lon="9.5383190">
	<ele>1568.80</ele>
	<time>2023-10-07T10:45:01.000Z</time>
</trkpt>
<trkpt lat="45.9372930" lon="9.5383070">
	<ele>1568.80</ele>
	<time>2023-10-07T10:45:02.000Z</time>
</trkpt>
<trkpt lat="45.9372910" lon="9.5382930">
	<ele>1568.60</ele>
	<time>2023-10-07T10:45:03.000Z</time>
</trkpt>
<trkpt lat="45.9372890" lon="9.5382830">
	<ele>1568.40</ele>
	<time>2023-10-07T10:45:04.000Z</time>
</trkpt>
<trkpt lat="45.9372870" lon="9.5382680">
	<ele>1568.20</ele>
	<time>2023-10-07T10:45:05.000Z</time>
</trkpt>
<trkpt lat="45.9372830" lon="9.5382580">
	<ele>1568.00</ele>
	<time>2023-10-07T10:45:06.000Z</time>
</trkpt>
<trkpt lat="45.9372810" lon="9.5382460">
	<ele>1567.80</ele>
	<time>2023-10-07T10:45:07.000Z</time>
</trkpt>
<trkpt lat="45.9372810" lon="9.5382360">
	<ele>1567.60</ele>
	<time>2023-10-07T10:45:08.000Z</time>
</trkpt>
<trkpt lat="45.9372790" lon="9.5382230">
	<ele>1567.40</ele>
	<time>2023-10-07T10:45:09.000Z</time>
</trkpt>
<trkpt lat="45.9372770" lon="9.5382110">
	<ele>1567.20</ele>
	<time>2023-10-07T10:45:10.000Z</time>
</trkpt>
<trkpt lat="45.9372740" lon="9.5381980">
	<ele>1566.80</ele>
	<time>2023-10-07T10:45:11.000Z</time>
</trkpt>
<trkpt lat="45.9372720" lon="9.5381840">
	<ele>1566.60</ele>
	<time>2023-10-07T10:45:12.000Z</time>
</trkpt>
<trkpt lat="45.9372700" lon="9.5381730">
	<ele>1566.40</ele>
	<time>2023-10-07T10:45:13.000Z</time>
</trkpt>
<trkpt lat="45.9372670" lon="9.5381620">
	<ele>1566.20</ele>
	<time>2023-10-07T10:45:14.000Z</time>
</trkpt>
<trkpt lat="45.9372690" lon="9.5381520">
	<ele>1566.00</ele>
	<time>2023-10-07T10:45:15.000Z</time>
</trkpt>
<trkpt lat="45.9372710" lon="9.5381410">
	<ele>1565.60</ele>
	<time>2023-10-07T10:45:16.000Z</time>
</trkpt>
<trkpt lat="45.9372720" lon="9.5381270">
	<ele>1565.40</ele>
	<time>2023-10-07T10:45:17.000Z</time>
</trkpt>
<trkpt lat="45.9372730" lon="9.5381100">
	<ele>1565.00</ele>
	<time>2023-10-07T10:45:18.000Z</time>
</trkpt>
<trkpt lat="45.9372740" lon="9.5381000">
	<ele>1564.80</ele>
	<time>2023-10-07T10:45:19.000Z</time>
</trkpt>
<trkpt lat="45.9372730" lon="9.5380900">
	<ele>1564.60</ele>
	<time>2023-10-07T10:45:20.000Z</time>
</trkpt>
<trkpt lat="45.9372700" lon="9.5380760">
	<ele>1564.40</ele>
	<time>2023-10-07T10:45:21.000Z</time>
</trkpt>
<trkpt lat="45.9372690" lon="9.5380600">
	<ele>1564.20</ele>
	<time>2023-10-07T10:45:22.000Z</time>
</trkpt>
<trkpt lat="45.9372640" lon="9.5380470">
	<ele>1564.00</ele>
	<time>2023-10-07T10:45:23.000Z</time>
</trkpt>
<trkpt lat="45.9372600" lon="9.5380340">
	<ele>1563.80</ele>
	<time>2023-10-07T10:45:24.000Z</time>
</trkpt>
<trkpt lat="45.9372590" lon="9.5380240">
	<ele>1563.60</ele>
	<time>2023-10-07T10:45:25.000Z</time>
</trkpt>
<trkpt lat="45.9372550" lon="9.5380150">
	<ele>1563.40</ele>
	<time>2023-10-07T10:45:26.000Z</time>
</trkpt>
<trkpt lat="45.9372480" lon="9.5380110">
	<ele>1563.20</ele>
	<time>2023-10-07T10:45:27.000Z</time>
</trkpt>
<trkpt lat="45.9372410" lon="9.5380030">
	<ele>1563.00</ele>
	<time>2023-10-07T10:45:28.000Z</time>
</trkpt>
<trkpt lat="45.9372370" lon="9.5379890">
	<ele>1562.80</ele>
	<time>2023-10-07T10:45:29.000Z</time>
</trkpt>
<trkpt lat="45.9372340" lon="9.5379780">
	<ele>1562.60</ele>
	<time>2023-10-07T10:45:30.000Z</time>
</trkpt>
<trkpt lat="45.9372290" lon="9.5379690">
	<ele>1562.40</ele>
	<time>2023-10-07T10:45:31.000Z</time>
</trkpt>
<trkpt lat="45.9372230" lon="9.5379580">
	<ele>1562.20</ele>
	<time>2023-10-07T10:45:32.000Z</time>
</trkpt>
<trkpt lat="45.9372200" lon="9.5379480">
	<ele>1562.00</ele>
	<time>2023-10-07T10:45:33.000Z</time>
</trkpt>
<trkpt lat="45.9372170" lon="9.5379360">
	<ele>1561.80</ele>
	<time>2023-10-07T10:45:34.000Z</time>
</trkpt>
<trkpt lat="45.9372150" lon="9.5379260">
	<ele>1561.60</ele>
	<time>2023-10-07T10:45:35.000Z</time>
</trkpt>
<trkpt lat="45.9372170" lon="9.5379170">
	<ele>1561.60</ele>
	<time>2023-10-07T10:45:36.000Z</time>
</trkpt>
<trkpt lat="45.9372210" lon="9.5379100">
	<ele>1561.40</ele>
	<time>2023-10-07T10:45:37.000Z</time>
</trkpt>
<trkpt lat="45.9372280" lon="9.5379020">
	<ele>1561.40</ele>
	<time>2023-10-07T10:45:38.000Z</time>
</trkpt>
<trkpt lat="45.9372300" lon="9.5378920">
	<ele>1561.40</ele>
	<time>2023-10-07T10:45:39.000Z</time>
</trkpt>
<trkpt lat="45.9372280" lon="9.5378800">
	<ele>1561.40</ele>
	<time>2023-10-07T10:45:40.000Z</time>
</trkpt>
<trkpt lat="45.9372250" lon="9.5378640">
	<ele>1561.40</ele>
	<time>2023-10-07T10:45:41.000Z</time>
</trkpt>
<trkpt lat="45.9372190" lon="9.5378520">
	<ele>1561.40</ele>
	<time>2023-10-07T10:45:42.000Z</time>
</trkpt>
<trkpt lat="45.9372130" lon="9.5378400">
	<ele>1561.20</ele>
	<time>2023-10-07T10:45:43.000Z</time>
</trkpt>
<trkpt lat="45.9372040" lon="9.5378270">
	<ele>1561.00</ele>
	<time>2023-10-07T10:45:44.000Z</time>
</trkpt>
<trkpt lat="45.9371960" lon="9.5378110">
	<ele>1560.80</ele>
	<time>2023-10-07T10:45:45.000Z</time>
</trkpt>
<trkpt lat="45.9371870" lon="9.5377960">
	<ele>1560.60</ele>
	<time>2023-10-07T10:45:46.000Z</time>
</trkpt>
<trkpt lat="45.9371780" lon="9.5377810">
	<ele>1560.40</ele>
	<time>2023-10-07T10:45:47.000Z</time>
</trkpt>
<trkpt lat="45.9371680" lon="9.5377630">
	<ele>1560.20</ele>
	<time>2023-10-07T10:45:48.000Z</time>
</trkpt>
<trkpt lat="45.9371580" lon="9.5377450">
	<ele>1560.00</ele>
	<time>2023-10-07T10:45:49.000Z</time>
</trkpt>
<trkpt lat="45.9371480" lon="9.5377300">
	<ele>1559.80</ele>
	<time>2023-10-07T10:45:50.000Z</time>
</trkpt>
<trkpt lat="45.9371420" lon="9.5377160">
	<ele>1559.60</ele>
	<time>2023-10-07T10:45:51.000Z</time>
</trkpt>
<trkpt lat="45.9371340" lon="9.5377050">
	<ele>1559.40</ele>
	<time>2023-10-07T10:45:52.000Z</time>
</trkpt>
<trkpt lat="45.9371300" lon="9.5376940">
	<ele>1559.20</ele>
	<time>2023-10-07T10:45:53.000Z</time>
</trkpt>
<trkpt lat="45.9371240" lon="9.5376830">
	<ele>1559.20</ele>
	<time>2023-10-07T10:45:54.000Z</time>
</trkpt>
<trkpt lat="45.9371170" lon="9.5376690">
	<ele>1559.00</ele>
	<time>2023-10-07T10:45:55.000Z</time>
</trkpt>
<trkpt lat="45.9371100" lon="9.5376550">
	<ele>1558.60</ele>
	<time>2023-10-07T10:45:56.000Z</time>
</trkpt>
<trkpt lat="45.9371000" lon="9.5376460">
	<ele>1558.40</ele>
	<time>2023-10-07T10:45:57.000Z</time>
</trkpt>
<trkpt lat="45.9370930" lon="9.5376330">
	<ele>1558.20</ele>
	<time>2023-10-07T10:45:58.000Z</time>
</trkpt>
<trkpt lat="45.9370850" lon="9.5376200">
	<ele>1558.20</ele>
	<time>2023-10-07T10:45:59.000Z</time>
</trkpt>
<trkpt lat="45.9370770" lon="9.5376080">
	<ele>1558.00</ele>
	<time>2023-10-07T10:46:00.000Z</time>
</trkpt>
<trkpt lat="45.9370680" lon="9.5375960">
	<ele>1558.00</ele>
	<time>2023-10-07T10:46:01.000Z</time>
</trkpt>
<trkpt lat="45.9370590" lon="9.5375840">
	<ele>1558.00</ele>
	<time>2023-10-07T10:46:02.000Z</time>
</trkpt>
<trkpt lat="45.9370520" lon="9.5375780">
	<ele>1557.80</ele>
	<time>2023-10-07T10:46:03.000Z</time>
</trkpt>
<trkpt lat="45.9370440" lon="9.5375670">
	<ele>1557.80</ele>
	<time>2023-10-07T10:46:04.000Z</time>
</trkpt>
<trkpt lat="45.9370370" lon="9.5375590">
	<ele>1557.60</ele>
	<time>2023-10-07T10:46:05.000Z</time>
</trkpt>
<trkpt lat="45.9370280" lon="9.5375490">
	<ele>1557.40</ele>
	<time>2023-10-07T10:46:06.000Z</time>
</trkpt>
<trkpt lat="45.9370220" lon="9.5375390">
	<ele>1557.20</ele>
	<time>2023-10-07T10:46:07.000Z</time>
</trkpt>
<trkpt lat="45.9370140" lon="9.5375230">
	<ele>1557.00</ele>
	<time>2023-10-07T10:46:08.000Z</time>
</trkpt>
<trkpt lat="45.9370070" lon="9.5375090">
	<ele>1556.80</ele>
	<time>2023-10-07T10:46:09.000Z</time>
</trkpt>
<trkpt lat="45.9370010" lon="9.5374960">
	<ele>1556.60</ele>
	<time>2023-10-07T10:46:10.000Z</time>
</trkpt>
<trkpt lat="45.9369950" lon="9.5374800">
	<ele>1556.40</ele>
	<time>2023-10-07T10:46:11.000Z</time>
</trkpt>
<trkpt lat="45.9369890" lon="9.5374680">
	<ele>1556.20</ele>
	<time>2023-10-07T10:46:12.000Z</time>
</trkpt>
<trkpt lat="45.9369870" lon="9.5374550">
	<ele>1556.20</ele>
	<time>2023-10-07T10:46:13.000Z</time>
</trkpt>
<trkpt lat="45.9369830" lon="9.5374410">
	<ele>1555.80</ele>
	<time>2023-10-07T10:46:14.000Z</time>
</trkpt>
<trkpt lat="45.9369780" lon="9.5374320">
	<ele>1555.60</ele>
	<time>2023-10-07T10:46:15.000Z</time>
</trkpt>
<trkpt lat="45.9369720" lon="9.5374210">
	<ele>1555.60</ele>
	<time>2023-10-07T10:46:16.000Z</time>
</trkpt>
<trkpt lat="45.9369670" lon="9.5374070">
	<ele>1555.40</ele>
	<time>2023-10-07T10:46:17.000Z</time>
</trkpt>
<trkpt lat="45.9369620" lon="9.5373930">
	<ele>1555.40</ele>
	<time>2023-10-07T10:46:18.000Z</time>
</trkpt>
<trkpt lat="45.9369600" lon="9.5373770">
	<ele>1555.00</ele>
	<time>2023-10-07T10:46:19.000Z</time>
</trkpt>
<trkpt lat="45.9369600" lon="9.5373660">
	<ele>1554.80</ele>
	<time>2023-10-07T10:46:20.000Z</time>
</trkpt>
<trkpt lat="45.9369570" lon="9.5373490">
	<ele>1554.80</ele>
	<time>2023-10-07T10:46:21.000Z</time>
</trkpt>
<trkpt lat="45.9369540" lon="9.5373310">
	<ele>1554.60</ele>
	<time>2023-10-07T10:46:22.000Z</time>
</trkpt>
<trkpt lat="45.9369490" lon="9.5373160">
	<ele>1554.40</ele>
	<time>2023-10-07T10:46:23.000Z</time>
</trkpt>
<trkpt lat="45.9369430" lon="9.5372970">
	<ele>1554.40</ele>
	<time>2023-10-07T10:46:24.000Z</time>
</trkpt>
<trkpt lat="45.9369390" lon="9.5372790">
	<ele>1554.20</ele>
	<time>2023-10-07T10:46:25.000Z</time>
</trkpt>
<trkpt lat="45.9369350" lon="9.5372650">
	<ele>1554.00</ele>
	<time>2023-10-07T10:46:26.000Z</time>
</trkpt>
<trkpt lat="45.9369330" lon="9.5372510">
	<ele>1553.80</ele>
	<time>2023-10-07T10:46:27.000Z</time>
</trkpt>
<trkpt lat="45.9369320" lon="9.5372350">
	<ele>1553.60</ele>
	<time>2023-10-07T10:46:28.000Z</time>
</trkpt>
<trkpt lat="45.9369320" lon="9.5372170">
	<ele>1553.40</ele>
	<time>2023-10-07T10:46:29.000Z</time>
</trkpt>
<trkpt lat="45.9369320" lon="9.5372000">
	<ele>1553.40</ele>
	<time>2023-10-07T10:46:30.000Z</time>
</trkpt>
<trkpt lat="45.9369290" lon="9.5371820">
	<ele>1553.00</ele>
	<time>2023-10-07T10:46:31.000Z</time>
</trkpt>
<trkpt lat="45.9369270" lon="9.5371670">
	<ele>1552.80</ele>
	<time>2023-10-07T10:46:32.000Z</time>
</trkpt>
<trkpt lat="45.9369220" lon="9.5371520">
	<ele>1552.80</ele>
	<time>2023-10-07T10:46:33.000Z</time>
</trkpt>
<trkpt lat="45.9369180" lon="9.5371390">
	<ele>1552.60</ele>
	<time>2023-10-07T10:46:34.000Z</time>
</trkpt>
<trkpt lat="45.9369120" lon="9.5371260">
	<ele>1552.60</ele>
	<time>2023-10-07T10:46:35.000Z</time>
</trkpt>
<trkpt lat="45.9369100" lon="9.5371190">
	<ele>1552.40</ele>
	<time>2023-10-07T10:46:36.000Z</time>
</trkpt>
<trkpt lat="45.9369040" lon="9.5371090">
	<ele>1552.40</ele>
	<time>2023-10-07T10:46:37.000Z</time>
</trkpt>
<trkpt lat="45.9368960" lon="9.5370980">
	<ele>1552.40</ele>
	<time>2023-10-07T10:46:38.000Z</time>
</trkpt>
<trkpt lat="45.9368870" lon="9.5370860">
	<ele>1552.20</ele>
	<time>2023-10-07T10:46:39.000Z</time>
</trkpt>
<trkpt lat="45.9368740" lon="9.5370720">
	<ele>1552.00</ele>
	<time>2023-10-07T10:46:40.000Z</time>
</trkpt>
<trkpt lat="45.9368640" lon="9.5370580">
	<ele>1552.00</ele>
	<time>2023-10-07T10:46:41.000Z</time>
</trkpt>
<trkpt lat="45.9368560" lon="9.5370440">
	<ele>1552.00</ele>
	<time>2023-10-07T10:46:42.000Z</time>
</trkpt>
<trkpt lat="45.9368500" lon="9.5370290">
	<ele>1551.80</ele>
	<time>2023-10-07T10:46:43.000Z</time>
</trkpt>
<trkpt lat="45.9368400" lon="9.5370120">
	<ele>1551.80</ele>
	<time>2023-10-07T10:46:44.000Z</time>
</trkpt>
<trkpt lat="45.9368330" lon="9.5370000">
	<ele>1551.60</ele>
	<time>2023-10-07T10:46:45.000Z</time>
</trkpt>
<trkpt lat="45.9368260" lon="9.5369880">
	<ele>1551.60</ele>
	<time>2023-10-07T10:46:46.000Z</time>
</trkpt>
<trkpt lat="45.9368180" lon="9.5369650">
	<ele>1551.40</ele>
	<time>2023-10-07T10:46:47.000Z</time>
</trkpt>
<trkpt lat="45.9368080" lon="9.5369480">
	<ele>1551.40</ele>
	<time>2023-10-07T10:46:48.000Z</time>
</trkpt>
<trkpt lat="45.9368020" lon="9.5369380">
	<ele>1551.40</ele>
	<time>2023-10-07T10:46:49.000Z</time>
</trkpt>
<trkpt lat="45.9367940" lon="9.5369260">
	<ele>1551.20</ele>
	<time>2023-10-07T10:46:50.000Z</time>
</trkpt>
<trkpt lat="45.9367860" lon="9.5369150">
	<ele>1551.20</ele>
	<time>2023-10-07T10:46:51.000Z</time>
</trkpt>
<trkpt lat="45.9367800" lon="9.5369060">
	<ele>1551.00</ele>
	<time>2023-10-07T10:46:52.000Z</time>
</trkpt>
<trkpt lat="45.9367710" lon="9.5368970">
	<ele>1550.80</ele>
	<time>2023-10-07T10:46:53.000Z</time>
</trkpt>
<trkpt lat="45.9367610" lon="9.5368870">
	<ele>1550.80</ele>
	<time>2023-10-07T10:46:54.000Z</time>
</trkpt>
<trkpt lat="45.9367510" lon="9.5368780">
	<ele>1550.60</ele>
	<time>2023-10-07T10:46:55.000Z</time>
</trkpt>
<trkpt lat="45.9367440" lon="9.5368640">
	<ele>1550.40</ele>
	<time>2023-10-07T10:46:56.000Z</time>
</trkpt>
<trkpt lat="45.9367350" lon="9.5368480">
	<ele>1550.20</ele>
	<time>2023-10-07T10:46:57.000Z</time>
</trkpt>
<trkpt lat="45.9367280" lon="9.5368350">
	<ele>1550.00</ele>
	<time>2023-10-07T10:46:58.000Z</time>
</trkpt>
<trkpt lat="45.9367220" lon="9.5368210">
	<ele>1549.80</ele>
	<time>2023-10-07T10:46:59.000Z</time>
</trkpt>
<trkpt lat="45.9367160" lon="9.5368070">
	<ele>1549.80</ele>
	<time>2023-10-07T10:47:00.000Z</time>
</trkpt>
<trkpt lat="45.9367070" lon="9.5367930">
	<ele>1549.60</ele>
	<time>2023-10-07T10:47:01.000Z</time>
</trkpt>
<trkpt lat="45.9367000" lon="9.5367810">
	<ele>1549.60</ele>
	<time>2023-10-07T10:47:02.000Z</time>
</trkpt>
<trkpt lat="45.9366890" lon="9.5367680">
	<ele>1549.40</ele>
	<time>2023-10-07T10:47:03.000Z</time>
</trkpt>
<trkpt lat="45.9366820" lon="9.5367540">
	<ele>1549.20</ele>
	<time>2023-10-07T10:47:04.000Z</time>
</trkpt>
<trkpt lat="45.9366690" lon="9.5367360">
	<ele>1549.00</ele>
	<time>2023-10-07T10:47:05.000Z</time>
</trkpt>
<trkpt lat="45.9366580" lon="9.5367210">
	<ele>1548.80</ele>
	<time>2023-10-07T10:47:06.000Z</time>
</trkpt>
<trkpt lat="45.9366460" lon="9.5367070">
	<ele>1548.60</ele>
	<time>2023-10-07T10:47:07.000Z</time>
</trkpt>
<trkpt lat="45.9366340" lon="9.5366950">
	<ele>1548.60</ele>
	<time>2023-10-07T10:47:08.000Z</time>
</trkpt>
<trkpt lat="45.9366230" lon="9.5366830">
	<ele>1548.40</ele>
	<time>2023-10-07T10:47:09.000Z</time>
</trkpt>
<trkpt lat="45.9366160" lon="9.5366700">
	<ele>1548.20</ele>
	<time>2023-10-07T10:47:10.000Z</time>
</trkpt>
<trkpt lat="45.9366090" lon="9.5366530">
	<ele>1548.20</ele>
	<time>2023-10-07T10:47:11.000Z</time>
</trkpt>
<trkpt lat="45.9366070" lon="9.5366370">
	<ele>1548.00</ele>
	<time>2023-10-07T10:47:12.000Z</time>
</trkpt>
<trkpt lat="45.9366000" lon="9.5366240">
	<ele>1548.00</ele>
	<time>2023-10-07T10:47:13.000Z</time>
</trkpt>
<trkpt lat="45.9365940" lon="9.5366060">
	<ele>1547.80</ele>
	<time>2023-10-07T10:47:14.000Z</time>
</trkpt>
<trkpt lat="45.9365910" lon="9.5365930">
	<ele>1547.60</ele>
	<time>2023-10-07T10:47:15.000Z</time>
</trkpt>
<trkpt lat="45.9365890" lon="9.5365780">
	<ele>1547.40</ele>
	<time>2023-10-07T10:47:16.000Z</time>
</trkpt>
<trkpt lat="45.9365850" lon="9.5365640">
	<ele>1547.20</ele>
	<time>2023-10-07T10:47:17.000Z</time>
</trkpt>
<trkpt lat="45.9365770" lon="9.5365500">
	<ele>1547.00</ele>
	<time>2023-10-07T10:47:18.000Z</time>
</trkpt>
<trkpt lat="45.9365690" lon="9.5365350">
	<ele>1547.00</ele>
	<time>2023-10-07T10:47:19.000Z</time>
</trkpt>
<trkpt lat="45.9365610" lon="9.5365210">
	<ele>1546.80</ele>
	<time>2023-10-07T10:47:20.000Z</time>
</trkpt>
<trkpt lat="45.9365530" lon="9.5365100">
	<ele>1546.80</ele>
	<time>2023-10-07T10:47:21.000Z</time>
</trkpt>
<trkpt lat="45.9365450" lon="9.5364960">
	<ele>1546.60</ele>
	<time>2023-10-07T10:47:22.000Z</time>
</trkpt>
<trkpt lat="45.9365360" lon="9.5364840">
	<ele>1546.60</ele>
	<time>2023-10-07T10:47:23.000Z</time>
</trkpt>
<trkpt lat="45.9365280" lon="9.5364740">
	<ele>1546.60</ele>
	<time>2023-10-07T10:47:24.000Z</time>
</trkpt>
<trkpt lat="45.9365180" lon="9.5364640">
	<ele>1546.40</ele>
	<time>2023-10-07T10:47:25.000Z</time>
</trkpt>
<trkpt lat="45.9365100" lon="9.5364550">
	<ele>1546.40</ele>
	<time>2023-10-07T10:47:26.000Z</time>
</trkpt>
<trkpt lat="45.9365000" lon="9.5364430">
	<ele>1546.20</ele>
	<time>2023-10-07T10:47:27.000Z</time>
</trkpt>
<trkpt lat="45.9364900" lon="9.5364300">
	<ele>1546.00</ele>
	<time>2023-10-07T10:47:28.000Z</time>
</trkpt>
<trkpt lat="45.9364810" lon="9.5364170">
	<ele>1545.80</ele>
	<time>2023-10-07T10:47:29.000Z</time>
</trkpt>
<trkpt lat="45.9364700" lon="9.5364020">
	<ele>1545.60</ele>
	<time>2023-10-07T10:47:30.000Z</time>
</trkpt>
<trkpt lat="45.9364580" lon="9.5363840">
	<ele>1545.60</ele>
	<time>2023-10-07T10:47:31.000Z</time>
</trkpt>
<trkpt lat="45.9364500" lon="9.5363720">
	<ele>1545.60</ele>
	<time>2023-10-07T10:47:32.000Z</time>
</trkpt>
<trkpt lat="45.9364410" lon="9.5363610">
	<ele>1545.60</ele>
	<time>2023-10-07T10:47:33.000Z</time>
</trkpt>
<trkpt lat="45.9364330" lon="9.5363500">
	<ele>1545.60</ele>
	<time>2023-10-07T10:47:34.000Z</time>
</trkpt>
<trkpt lat="45.9364240" lon="9.5363380">
	<ele>1545.60</ele>
	<time>2023-10-07T10:47:35.000Z</time>
</trkpt>
<trkpt lat="45.9364150" lon="9.5363240">
	<ele>1545.60</ele>
	<time>2023-10-07T10:47:36.000Z</time>
</trkpt>
<trkpt lat="45.9364060" lon="9.5363100">
	<ele>1545.40</ele>
	<time>2023-10-07T10:47:37.000Z</time>
</trkpt>
<trkpt lat="45.9363980" lon="9.5362990">
	<ele>1545.40</ele>
	<time>2023-10-07T10:47:38.000Z</time>
</trkpt>
<trkpt lat="45.9363940" lon="9.5362840">
	<ele>1545.20</ele>
	<time>2023-10-07T10:47:39.000Z</time>
</trkpt>
<trkpt lat="45.9363900" lon="9.5362680">
	<ele>1545.20</ele>
	<time>2023-10-07T10:47:40.000Z</time>
</trkpt>
<trkpt lat="45.9363840" lon="9.5362530">
	<ele>1545.00</ele>
	<time>2023-10-07T10:47:41.000Z</time>
</trkpt>
<trkpt lat="45.9363760" lon="9.5362430">
	<ele>1545.00</ele>
	<time>2023-10-07T10:47:42.000Z</time>
</trkpt>
<trkpt lat="45.9363630" lon="9.5362400">
	<ele>1545.00</ele>
	<time>2023-10-07T10:47:43.000Z</time>
</trkpt>
<trkpt lat="45.9363540" lon="9.5362330">
	<ele>1545.00</ele>
	<time>2023-10-07T10:47:44.000Z</time>
</trkpt>
<trkpt lat="45.9363450" lon="9.5362210">
	<ele>1545.00</ele>
	<time>2023-10-07T10:47:45.000Z</time>
</trkpt>
<trkpt lat="45.9363340" lon="9.5362040">
	<ele>1545.00</ele>
	<time>2023-10-07T10:47:46.000Z</time>
</trkpt>
<trkpt lat="45.9363240" lon="9.5361870">
	<ele>1544.80</ele>
	<time>2023-10-07T10:47:47.000Z</time>
</trkpt>
<trkpt lat="45.9363160" lon="9.5361720">
	<ele>1544.80</ele>
	<time>2023-10-07T10:47:48.000Z</time>
</trkpt>
<trkpt lat="45.9363060" lon="9.5361610">
	<ele>1544.60</ele>
	<time>2023-10-07T10:47:49.000Z</time>
</trkpt>
<trkpt lat="45.9362970" lon="9.5361490">
	<ele>1544.40</ele>
	<time>2023-10-07T10:47:50.000Z</time>
</trkpt>
<trkpt lat="45.9362860" lon="9.5361390">
	<ele>1544.40</ele>
	<time>2023-10-07T10:47:51.000Z</time>
</trkpt>
<trkpt lat="45.9362760" lon="9.5361280">
	<ele>1544.40</ele>
	<time>2023-10-07T10:47:52.000Z</time>
</trkpt>
<trkpt lat="45.9362700" lon="9.5361190">
	<ele>1544.40</ele>
	<time>2023-10-07T10:47:53.000Z</time>
</trkpt>
<trkpt lat="45.9362620" lon="9.5361080">
	<ele>1544.40</ele>
	<time>2023-10-07T10:47:54.000Z</time>
</trkpt>
<trkpt lat="45.9362500" lon="9.5360920">
	<ele>1544.40</ele>
	<time>2023-10-07T10:47:55.000Z</time>
</trkpt>
<trkpt lat="45.9362420" lon="9.5360780">
	<ele>1544.40</ele>
	<time>2023-10-07T10:47:56.000Z</time>
</trkpt>
<trkpt lat="45.9362340" lon="9.5360700">
	<ele>1544.20</ele>
	<time>2023-10-07T10:47:57.000Z</time>
</trkpt>
<trkpt lat="45.9362270" lon="9.5360670">
	<ele>1544.00</ele>
	<time>2023-10-07T10:47:58.000Z</time>
</trkpt>
<trkpt lat="45.9362190" lon="9.5360570">
	<ele>1543.80</ele>
	<time>2023-10-07T10:47:59.000Z</time>
</trkpt>
<trkpt lat="45.9362110" lon="9.5360480">
	<ele>1543.80</ele>
	<time>2023-10-07T10:48:00.000Z</time>
</trkpt>
<trkpt lat="45.9362040" lon="9.5360320">
	<ele>1543.60</ele>
	<time>2023-10-07T10:48:01.000Z</time>
</trkpt>
<trkpt lat="45.9361920" lon="9.5360170">
	<ele>1543.60</ele>
	<time>2023-10-07T10:48:02.000Z</time>
</trkpt>
<trkpt lat="45.9361830" lon="9.5360000">
	<ele>1543.40</ele>
	<time>2023-10-07T10:48:03.000Z</time>
</trkpt>
<trkpt lat="45.9361770" lon="9.5359850">
	<ele>1543.40</ele>
	<time>2023-10-07T10:48:04.000Z</time>
</trkpt>
<trkpt lat="45.9361720" lon="9.5359720">
	<ele>1543.20</ele>
	<time>2023-10-07T10:48:05.000Z</time>
</trkpt>
<trkpt lat="45.9361660" lon="9.5359620">
	<ele>1543.00</ele>
	<time>2023-10-07T10:48:06.000Z</time>
</trkpt>
<trkpt lat="45.9361560" lon="9.5359470">
	<ele>1542.60</ele>
	<time>2023-10-07T10:48:07.000Z</time>
</trkpt>
<trkpt lat="45.9361500" lon="9.5359330">
	<ele>1542.40</ele>
	<time>2023-10-07T10:48:08.000Z</time>
</trkpt>
<trkpt lat="45.9361440" lon="9.5359200">
	<ele>1542.20</ele>
	<time>2023-10-07T10:48:09.000Z</time>
</trkpt>
<trkpt lat="45.9361390" lon="9.5359090">
	<ele>1542.00</ele>
	<time>2023-10-07T10:48:10.000Z</time>
</trkpt>
<trkpt lat="45.9361340" lon="9.5359010">
	<ele>1541.80</ele>
	<time>2023-10-07T10:48:11.000Z</time>
</trkpt>
<trkpt lat="45.9361280" lon="9.5358880">
	<ele>1541.60</ele>
	<time>2023-10-07T10:48:12.000Z</time>
</trkpt>
<trkpt lat="45.9361200" lon="9.5358770">
	<ele>1541.60</ele>
	<time>2023-10-07T10:48:13.000Z</time>
</trkpt>
<trkpt lat="45.9361130" lon="9.5358640">
	<ele>1541.60</ele>
	<time>2023-10-07T10:48:14.000Z</time>
</trkpt>
<trkpt lat="45.9361020" lon="9.5358510">
	<ele>1541.40</ele>
	<time>2023-10-07T10:48:15.000Z</time>
</trkpt>
<trkpt lat="45.9360900" lon="9.5358370">
	<ele>1541.40</ele>
	<time>2023-10-07T10:48:16.000Z</time>
</trkpt>
<trkpt lat="45.9360780" lon="9.5358230">
	<ele>1541.40</ele>
	<time>2023-10-07T10:48:17.000Z</time>
</trkpt>
<trkpt lat="45.9360680" lon="9.5358080">
	<ele>1541.40</ele>
	<time>2023-10-07T10:48:18.000Z</time>
</trkpt>
<trkpt lat="45.9360550" lon="9.5357940">
	<ele>1541.40</ele>
	<time>2023-10-07T10:48:19.000Z</time>
</trkpt>
<trkpt lat="45.9360440" lon="9.5357740">
	<ele>1541.40</ele>
	<time>2023-10-07T10:48:20.000Z</time>
</trkpt>
<trkpt lat="45.9360360" lon="9.5357610">
	<ele>1541.20</ele>
	<time>2023-10-07T10:48:21.000Z</time>
</trkpt>
<trkpt lat="45.9360340" lon="9.5357600">
	<ele>1541.00</ele>
	<time>2023-10-07T10:48:22.000Z</time>
</trkpt>
<trkpt lat="45.9360250" lon="9.5357540">
	<ele>1540.80</ele>
	<time>2023-10-07T10:48:23.000Z</time>
</trkpt>
<trkpt lat="45.9360170" lon="9.5357530">
	<ele>1540.60</ele>
	<time>2023-10-07T10:48:24.000Z</time>
</trkpt>
<trkpt lat="45.9360020" lon="9.5357480">
	<ele>1540.40</ele>
	<time>2023-10-07T10:48:25.000Z</time>
</trkpt>
<trkpt lat="45.9359920" lon="9.5357410">
	<ele>1540.20</ele>
	<time>2023-10-07T10:48:26.000Z</time>
</trkpt>
<trkpt lat="45.9359860" lon="9.5357300">
	<ele>1540.00</ele>
	<time>2023-10-07T10:48:27.000Z</time>
</trkpt>
<trkpt lat="45.9359790" lon="9.5357240">
	<ele>1539.80</ele>
	<time>2023-10-07T10:48:28.000Z</time>
</trkpt>
<trkpt lat="45.9359720" lon="9.5357180">
	<ele>1539.80</ele>
	<time>2023-10-07T10:48:29.000Z</time>
</trkpt>
<trkpt lat="45.9359650" lon="9.5357110">
	<ele>1539.60</ele>
	<time>2023-10-07T10:48:30.000Z</time>
</trkpt>
<trkpt lat="45.9359590" lon="9.5357070">
	<ele>1539.60</ele>
	<time>2023-10-07T10:48:31.000Z</time>
</trkpt>
<trkpt lat="45.9359550" lon="9.5357000">
	<ele>1539.40</ele>
	<time>2023-10-07T10:48:32.000Z</time>
</trkpt>
<trkpt lat="45.9359490" lon="9.5356930">
	<ele>1539.20</ele>
	<time>2023-10-07T10:48:33.000Z</time>
</trkpt>
<trkpt lat="45.9359400" lon="9.5356840">
	<ele>1539.20</ele>
	<time>2023-10-07T10:48:34.000Z</time>
</trkpt>
<trkpt lat="45.9359320" lon="9.5356730">
	<ele>1539.00</ele>
	<time>2023-10-07T10:48:35.000Z</time>
</trkpt>
<trkpt lat="45.9359250" lon="9.5356610">
	<ele>1539.00</ele>
	<time>2023-10-07T10:48:36.000Z</time>
</trkpt>
<trkpt lat="45.9359170" lon="9.5356510">
	<ele>1538.80</ele>
	<time>2023-10-07T10:48:37.000Z</time>
</trkpt>
<trkpt lat="45.9359050" lon="9.5356470">
	<ele>1538.80</ele>
	<time>2023-10-07T10:48:38.000Z</time>
</trkpt>
<trkpt lat="45.9358950" lon="9.5356410">
	<ele>1539.00</ele>
	<time>2023-10-07T10:48:39.000Z</time>
</trkpt>
<trkpt lat="45.9358830" lon="9.5356360">
	<ele>1539.00</ele>
	<time>2023-10-07T10:48:40.000Z</time>
</trkpt>
<trkpt lat="45.9358740" lon="9.5356290">
	<ele>1539.00</ele>
	<time>2023-10-07T10:48:41.000Z</time>
</trkpt>
<trkpt lat="45.9358670" lon="9.5356250">
	<ele>1538.80</ele>
	<time>2023-10-07T10:48:42.000Z</time>
</trkpt>
<trkpt lat="45.9358570" lon="9.5356170">
	<ele>1538.80</ele>
	<time>2023-10-07T10:48:43.000Z</time>
</trkpt>
<trkpt lat="45.9358490" lon="9.5356090">
	<ele>1538.60</ele>
	<time>2023-10-07T10:48:44.000Z</time>
</trkpt>
<trkpt lat="45.9358420" lon="9.5356020">
	<ele>1538.40</ele>
	<time>2023-10-07T10:48:45.000Z</time>
</trkpt>
<trkpt lat="45.9358330" lon="9.5355950">
	<ele>1538.40</ele>
	<time>2023-10-07T10:48:46.000Z</time>
</trkpt>
<trkpt lat="45.9358240" lon="9.5355870">
	<ele>1538.40</ele>
	<time>2023-10-07T10:48:47.000Z</time>
</trkpt>
<trkpt lat="45.9358160" lon="9.5355800">
	<ele>1538.20</ele>
	<time>2023-10-07T10:48:48.000Z</time>
</trkpt>
<trkpt lat="45.9358070" lon="9.5355730">
	<ele>1538.00</ele>
	<time>2023-10-07T10:48:49.000Z</time>
</trkpt>
<trkpt lat="45.9357970" lon="9.5355640">
	<ele>1537.80</ele>
	<time>2023-10-07T10:48:50.000Z</time>
</trkpt>
<trkpt lat="45.9357860" lon="9.5355550">
	<ele>1537.20</ele>
	<time>2023-10-07T10:48:51.000Z</time>
</trkpt>
<trkpt lat="45.9357730" lon="9.5355440">
	<ele>1536.80</ele>
	<time>2023-10-07T10:48:52.000Z</time>
</trkpt>
<trkpt lat="45.9357620" lon="9.5355360">
	<ele>1536.60</ele>
	<time>2023-10-07T10:48:53.000Z</time>
</trkpt>
<trkpt lat="45.9357550" lon="9.5355270">
	<ele>1536.20</ele>
	<time>2023-10-07T10:48:54.000Z</time>
</trkpt>
<trkpt lat="45.9357490" lon="9.5355180">
	<ele>1536.00</ele>
	<time>2023-10-07T10:48:55.000Z</time>
</trkpt>
<trkpt lat="45.9357420" lon="9.5355080">
	<ele>1535.80</ele>
	<time>2023-10-07T10:48:56.000Z</time>
</trkpt>
<trkpt lat="45.9357330" lon="9.5354990">
	<ele>1535.60</ele>
	<time>2023-10-07T10:48:57.000Z</time>
</trkpt>
<trkpt lat="45.9357240" lon="9.5354900">
	<ele>1535.60</ele>
	<time>2023-10-07T10:48:58.000Z</time>
</trkpt>
<trkpt lat="45.9357080" lon="9.5354760">
	<ele>1535.40</ele>
	<time>2023-10-07T10:48:59.000Z</time>
</trkpt>
<trkpt lat="45.9356980" lon="9.5354620">
	<ele>1535.20</ele>
	<time>2023-10-07T10:49:00.000Z</time>
</trkpt>
<trkpt lat="45.9356890" lon="9.5354480">
	<ele>1535.00</ele>
	<time>2023-10-07T10:49:01.000Z</time>
</trkpt>
<trkpt lat="45.9356790" lon="9.5354380">
	<ele>1535.00</ele>
	<time>2023-10-07T10:49:02.000Z</time>
</trkpt>
<trkpt lat="45.9356690" lon="9.5354330">
	<ele>1534.80</ele>
	<time>2023-10-07T10:49:03.000Z</time>
</trkpt>
<trkpt lat="45.9356590" lon="9.5354200">
	<ele>1534.80</ele>
	<time>2023-10-07T10:49:04.000Z</time>
</trkpt>
<trkpt lat="45.9356510" lon="9.5354080">
	<ele>1534.60</ele>
	<time>2023-10-07T10:49:05.000Z</time>
</trkpt>
<trkpt lat="45.9356430" lon="9.5353970">
	<ele>1534.60</ele>
	<time>2023-10-07T10:49:06.000Z</time>
</trkpt>
<trkpt lat="45.9356340" lon="9.5353880">
	<ele>1534.60</ele>
	<time>2023-10-07T10:49:07.000Z</time>
</trkpt>
<trkpt lat="45.9356280" lon="9.5353810">
	<ele>1534.60</ele>
	<time>2023-10-07T10:49:08.000Z</time>
</trkpt>
<trkpt lat="45.9356200" lon="9.5353740">
	<ele>1534.40</ele>
	<time>2023-10-07T10:49:09.000Z</time>
</trkpt>
<trkpt lat="45.9356100" lon="9.5353660">
	<ele>1534.00</ele>
	<time>2023-10-07T10:49:10.000Z</time>
</trkpt>
<trkpt lat="45.9355990" lon="9.5353570">
	<ele>1533.80</ele>
	<time>2023-10-07T10:49:11.000Z</time>
</trkpt>
<trkpt lat="45.9355890" lon="9.5353520">
	<ele>1533.40</ele>
	<time>2023-10-07T10:49:12.000Z</time>
</trkpt>
<trkpt lat="45.9355800" lon="9.5353430">
	<ele>1533.20</ele>
	<time>2023-10-07T10:49:13.000Z</time>
</trkpt>
<trkpt lat="45.9355710" lon="9.5353360">
	<ele>1533.20</ele>
	<time>2023-10-07T10:49:14.000Z</time>
</trkpt>
<trkpt lat="45.9355600" lon="9.5353280">
	<ele>1533.20</ele>
	<time>2023-10-07T10:49:15.000Z</time>
</trkpt>
<trkpt lat="45.9355480" lon="9.5353210">
	<ele>1533.20</ele>
	<time>2023-10-07T10:49:16.000Z</time>
</trkpt>
<trkpt lat="45.9355360" lon="9.5353150">
	<ele>1533.00</ele>
	<time>2023-10-07T10:49:17.000Z</time>
</trkpt>
<trkpt lat="45.9355260" lon="9.5353100">
	<ele>1532.80</ele>
	<time>2023-10-07T10:49:18.000Z</time>
</trkpt>
<trkpt lat="45.9355160" lon="9.5353040">
	<ele>1532.80</ele>
	<time>2023-10-07T10:49:19.000Z</time>
</trkpt>
<trkpt lat="45.9355020" lon="9.5352990">
	<ele>1532.60</ele>
	<time>2023-10-07T10:49:20.000Z</time>
</trkpt>
<trkpt lat="45.9354950" lon="9.5352920">
	<ele>1532.60</ele>
	<time>2023-10-07T10:49:21.000Z</time>
</trkpt>
<trkpt lat="45.9354880" lon="9.5352890">
	<ele>1532.40</ele>
	<time>2023-10-07T10:49:22.000Z</time>
</trkpt>
<trkpt lat="45.9354770" lon="9.5352820">
	<ele>1532.40</ele>
	<time>2023-10-07T10:49:23.000Z</time>
</trkpt>
<trkpt lat="45.9354630" lon="9.5352790">
	<ele>1532.40</ele>
	<time>2023-10-07T10:49:24.000Z</time>
</trkpt>
<trkpt lat="45.9354480" lon="9.5352730">
	<ele>1532.40</ele>
	<time>2023-10-07T10:49:25.000Z</time>
</trkpt>
<trkpt lat="45.9354350" lon="9.5352630">
	<ele>1532.20</ele>
	<time>2023-10-07T10:49:26.000Z</time>
</trkpt>
<trkpt lat="45.9354240" lon="9.5352540">
	<ele>1532.00</ele>
	<time>2023-10-07T10:49:27.000Z</time>
</trkpt>
<trkpt lat="45.9354160" lon="9.5352470">
	<ele>1532.00</ele>
	<time>2023-10-07T10:49:28.000Z</time>
</trkpt>
<trkpt lat="45.9354080" lon="9.5352410">
	<ele>1531.80</ele>
	<time>2023-10-07T10:49:29.000Z</time>
</trkpt>
<trkpt lat="45.9354010" lon="9.5352370">
	<ele>1531.80</ele>
	<time>2023-10-07T10:49:30.000Z</time>
</trkpt>
<trkpt lat="45.9353910" lon="9.5352260">
	<ele>1532.00</ele>
	<time>2023-10-07T10:49:31.000Z</time>
</trkpt>
<trkpt lat="45.9353790" lon="9.5352210">
	<ele>1532.00</ele>
	<time>2023-10-07T10:49:32.000Z</time>
</trkpt>
<trkpt lat="45.9353710" lon="9.5352150">
	<ele>1532.00</ele>
	<time>2023-10-07T10:49:33.000Z</time>
</trkpt>
<trkpt lat="45.9353650" lon="9.5352050">
	<ele>1532.00</ele>
	<time>2023-10-07T10:49:34.000Z</time>
</trkpt>
<trkpt lat="45.9353570" lon="9.5351940">
	<ele>1531.40</ele>
	<time>2023-10-07T10:49:35.000Z</time>
</trkpt>
<trkpt lat="45.9353460" lon="9.5351830">
	<ele>1531.00</ele>
	<time>2023-10-07T10:49:36.000Z</time>
</trkpt>
<trkpt lat="45.9353310" lon="9.5351830">
	<ele>1530.60</ele>
	<time>2023-10-07T10:49:37.000Z</time>
</trkpt>
<trkpt lat="45.9353220" lon="9.5351800">
	<ele>1530.40</ele>
	<time>2023-10-07T10:49:38.000Z</time>
</trkpt>
<trkpt lat="45.9353160" lon="9.5351730">
	<ele>1530.40</ele>
	<time>2023-10-07T10:49:39.000Z</time>
</trkpt>
<trkpt lat="45.9353080" lon="9.5351630">
	<ele>1530.40</ele>
	<time>2023-10-07T10:49:40.000Z</time>
</trkpt>
<trkpt lat="45.9353010" lon="9.5351490">
	<ele>1530.20</ele>
	<time>2023-10-07T10:49:41.000Z</time>
</trkpt>
<trkpt lat="45.9352910" lon="9.5351330">
	<ele>1530.20</ele>
	<time>2023-10-07T10:49:42.000Z</time>
</trkpt>
<trkpt lat="45.9352840" lon="9.5351240">
	<ele>1530.00</ele>
	<time>2023-10-07T10:49:43.000Z</time>
</trkpt>
<trkpt lat="45.9352790" lon="9.5351200">
	<ele>1529.80</ele>
	<time>2023-10-07T10:49:44.000Z</time>
</trkpt>
<trkpt lat="45.9352690" lon="9.5351160">
	<ele>1529.40</ele>
	<time>2023-10-07T10:49:45.000Z</time>
</trkpt>
<trkpt lat="45.9352600" lon="9.5351140">
	<ele>1529.20</ele>
	<time>2023-10-07T10:49:46.000Z</time>
</trkpt>
<trkpt lat="45.9352480" lon="9.5351130">
	<ele>1529.00</ele>
	<time>2023-10-07T10:49:47.000Z</time>
</trkpt>
<trkpt lat="45.9352390" lon="9.5351090">
	<ele>1528.80</ele>
	<time>2023-10-07T10:49:48.000Z</time>
</trkpt>
<trkpt lat="45.9352260" lon="9.5351050">
	<ele>1528.40</ele>
	<time>2023-10-07T10:49:49.000Z</time>
</trkpt>
<trkpt lat="45.9352170" lon="9.5351030">
	<ele>1528.40</ele>
	<time>2023-10-07T10:49:50.000Z</time>
</trkpt>
<trkpt lat="45.9352090" lon="9.5350970">
	<ele>1528.20</ele>
	<time>2023-10-07T10:49:51.000Z</time>
</trkpt>
<trkpt lat="45.9352020" lon="9.5350890">
	<ele>1528.20</ele>
	<time>2023-10-07T10:49:52.000Z</time>
</trkpt>
<trkpt lat="45.9351940" lon="9.5350800">
	<ele>1528.00</ele>
	<time>2023-10-07T10:49:53.000Z</time>
</trkpt>
<trkpt lat="45.9351890" lon="9.5350720">
	<ele>1528.00</ele>
	<time>2023-10-07T10:49:54.000Z</time>
</trkpt>
<trkpt lat="45.9351830" lon="9.5350660">
	<ele>1527.60</ele>
	<time>2023-10-07T10:49:55.000Z</time>
</trkpt>
<trkpt lat="45.9351730" lon="9.5350630">
	<ele>1527.40</ele>
	<time>2023-10-07T10:49:56.000Z</time>
</trkpt>
<trkpt lat="45.9351670" lon="9.5350570">
	<ele>1527.20</ele>
	<time>2023-10-07T10:49:57.000Z</time>
</trkpt>
<trkpt lat="45.9351610" lon="9.5350490">
	<ele>1527.00</ele>
	<time>2023-10-07T10:49:58.000Z</time>
</trkpt>
<trkpt lat="45.9351540" lon="9.5350390">
	<ele>1526.60</ele>
	<time>2023-10-07T10:49:59.000Z</time>
</trkpt>
<trkpt lat="45.9351470" lon="9.5350320">
	<ele>1526.40</ele>
	<time>2023-10-07T10:50:00.000Z</time>
</trkpt>
<trkpt lat="45.9351420" lon="9.5350280">
	<ele>1526.40</ele>
	<time>2023-10-07T10:50:01.000Z</time>
</trkpt>
<trkpt lat="45.9351390" lon="9.5350250">
	<ele>1526.00</ele>
	<time>2023-10-07T10:50:02.000Z</time>
</trkpt>
<trkpt lat="45.9351380" lon="9.5350240">
	<ele>1525.80</ele>
	<time>2023-10-07T10:50:03.000Z</time>
</trkpt>
<trkpt lat="45.9351370" lon="9.5350230">
	<ele>1525.60</ele>
	<time>2023-10-07T10:50:04.000Z</time>
</trkpt>
<trkpt lat="45.9351380" lon="9.5350180">
	<ele>1525.60</ele>
	<time>2023-10-07T10:50:05.000Z</time>
</trkpt>
<trkpt lat="45.9351390" lon="9.5350160">
	<ele>1525.40</ele>
	<time>2023-10-07T10:50:06.000Z</time>
</trkpt>
<trkpt lat="45.9351390" lon="9.5350160">
	<ele>1525.40</ele>
	<time>2023-10-07T10:50:07.000Z</time>
</trkpt>
<trkpt lat="45.9351380" lon="9.5350160">
	<ele>1525.60</ele>
	<time>2023-10-07T10:50:08.000Z</time>
</trkpt>
<trkpt lat="45.9351370" lon="9.5350170">
	<ele>1525.80</ele>
	<time>2023-10-07T10:50:09.000Z</time>
</trkpt>
<trkpt lat="45.9351370" lon="9.5350170">
	<ele>1525.80</ele>
	<time>2023-10-07T10:50:10.000Z</time>
</trkpt>
<trkpt lat="45.9351360" lon="9.5350170">
	<ele>1525.80</ele>
	<time>2023-10-07T10:50:11.000Z</time>
</trkpt>
<trkpt lat="45.9351350" lon="9.5350180">
	<ele>1525.80</ele>
	<time>2023-10-07T10:50:12.000Z</time>
</trkpt>
<trkpt lat="45.9351340" lon="9.5350170">
	<ele>1525.80</ele>
	<time>2023-10-07T10:50:13.000Z</time>
</trkpt>
<trkpt lat="45.9351370" lon="9.5350210">
	<ele>1525.80</ele>
	<time>2023-10-07T10:50:14.000Z</time>
</trkpt>
<trkpt lat="45.9351370" lon="9.5350230">
	<ele>1525.80</ele>
	<time>2023-10-07T10:50:15.000Z</time>
</trkpt>
<trkpt lat="45.9351370" lon="9.5350230">
	<ele>1525.80</ele>
	<time>2023-10-07T10:50:16.000Z</time>
</trkpt>
<trkpt lat="45.9351370" lon="9.5350230">
	<ele>1525.60</ele>
	<time>2023-10-07T10:50:17.000Z</time>
</trkpt>
<trkpt lat="45.9351370" lon="9.5350230">
	<ele>1525.60</ele>
	<time>2023-10-07T10:50:18.000Z</time>
</trkpt>
<trkpt lat="45.9351370" lon="9.5350230">
	<ele>1525.40</ele>
	<time>2023-10-07T10:50:19.000Z</time>
</trkpt>
<trkpt lat="45.9351370" lon="9.5350230">
	<ele>1525.20</ele>
	<time>2023-10-07T10:50:20.000Z</time>
</trkpt>
<trkpt lat="45.9351330" lon="9.5350210">
	<ele>1525.00</ele>
	<time>2023-10-07T10:50:21.000Z</time>
</trkpt>
<trkpt lat="45.9351210" lon="9.5350140">
	<ele>1524.80</ele>
	<time>2023-10-07T10:50:22.000Z</time>
</trkpt>
<trkpt lat="45.9351080" lon="9.5350080">
	<ele>1524.80</ele>
	<time>2023-10-07T10:50:23.000Z</time>
</trkpt>
<trkpt lat="45.9350980" lon="9.5350020">
	<ele>1524.60</ele>
	<time>2023-10-07T10:50:24.000Z</time>
</trkpt>
<trkpt lat="45.9350860" lon="9.5349920">
	<ele>1524.60</ele>
	<time>2023-10-07T10:50:25.000Z</time>
</trkpt>
<trkpt lat="45.9350770" lon="9.5349820">
	<ele>1524.40</ele>
	<time>2023-10-07T10:50:26.000Z</time>
</trkpt>
<trkpt lat="45.9350660" lon="9.5349780">
	<ele>1523.80</ele>
	<time>2023-10-07T10:50:27.000Z</time>
</trkpt>
<trkpt lat="45.9350550" lon="9.5349710">
	<ele>1523.40</ele>
	<time>2023-10-07T10:50:28.000Z</time>
</trkpt>
<trkpt lat="45.9350410" lon="9.5349660">
	<ele>1523.20</ele>
	<time>2023-10-07T10:50:29.000Z</time>
</trkpt>
<trkpt lat="45.9350280" lon="9.5349590">
	<ele>1523.00</ele>
	<time>2023-10-07T10:50:30.000Z</time>
</trkpt>
<trkpt lat="45.9350200" lon="9.5349520">
	<ele>1523.00</ele>
	<time>2023-10-07T10:50:31.000Z</time>
</trkpt>
<trkpt lat="45.9350140" lon="9.5349430">
	<ele>1522.60</ele>
	<time>2023-10-07T10:50:32.000Z</time>
</trkpt>
<trkpt lat="45.9350040" lon="9.5349370">
	<ele>1522.40</ele>
	<time>2023-10-07T10:50:33.000Z</time>
</trkpt>
<trkpt lat="45.9349950" lon="9.5349310">
	<ele>1522.20</ele>
	<time>2023-10-07T10:50:34.000Z</time>
</trkpt>
<trkpt lat="45.9349860" lon="9.5349240">
	<ele>1521.80</ele>
	<time>2023-10-07T10:50:35.000Z</time>
</trkpt>
<trkpt lat="45.9349790" lon="9.5349190">
	<ele>1521.60</ele>
	<time>2023-10-07T10:50:36.000Z</time>
</trkpt>
<trkpt lat="45.9349710" lon="9.5349160">
	<ele>1521.40</ele>
	<time>2023-10-07T10:50:37.000Z</time>
</trkpt>
<trkpt lat="45.9349650" lon="9.5349110">
	<ele>1521.20</ele>
	<time>2023-10-07T10:50:38.000Z</time>
</trkpt>
<trkpt lat="45.9349550" lon="9.5349060">
	<ele>1521.00</ele>
	<time>2023-10-07T10:50:39.000Z</time>
</trkpt>
<trkpt lat="45.9349490" lon="9.5349010">
	<ele>1521.00</ele>
	<time>2023-10-07T10:50:40.000Z</time>
</trkpt>
<trkpt lat="45.9349430" lon="9.5348960">
	<ele>1520.60</ele>
	<time>2023-10-07T10:50:41.000Z</time>
</trkpt>
<trkpt lat="45.9349340" lon="9.5348900">
	<ele>1520.20</ele>
	<time>2023-10-07T10:50:42.000Z</time>
</trkpt>
<trkpt lat="45.9349240" lon="9.5348830">
	<ele>1520.00</ele>
	<time>2023-10-07T10:50:43.000Z</time>
</trkpt>
<trkpt lat="45.9349130" lon="9.5348780">
	<ele>1519.80</ele>
	<time>2023-10-07T10:50:44.000Z</time>
</trkpt>
<trkpt lat="45.9349010" lon="9.5348770">
	<ele>1519.60</ele>
	<time>2023-10-07T10:50:45.000Z</time>
</trkpt>
<trkpt lat="45.9348900" lon="9.5348740">
	<ele>1519.40</ele>
	<time>2023-10-07T10:50:46.000Z</time>
</trkpt>
<trkpt lat="45.9348820" lon="9.5348740">
	<ele>1519.20</ele>
	<time>2023-10-07T10:50:47.000Z</time>
</trkpt>
<trkpt lat="45.9348700" lon="9.5348670">
	<ele>1518.80</ele>
	<time>2023-10-07T10:50:48.000Z</time>
</trkpt>
<trkpt lat="45.9348570" lon="9.5348650">
	<ele>1518.60</ele>
	<time>2023-10-07T10:50:49.000Z</time>
</trkpt>
<trkpt lat="45.9348460" lon="9.5348610">
	<ele>1518.20</ele>
	<time>2023-10-07T10:50:50.000Z</time>
</trkpt>
<trkpt lat="45.9348360" lon="9.5348620">
	<ele>1518.00</ele>
	<time>2023-10-07T10:50:51.000Z</time>
</trkpt>
<trkpt lat="45.9348280" lon="9.5348640">
	<ele>1517.80</ele>
	<time>2023-10-07T10:50:52.000Z</time>
</trkpt>
<trkpt lat="45.9348200" lon="9.5348650">
	<ele>1517.60</ele>
	<time>2023-10-07T10:50:53.000Z</time>
</trkpt>
<trkpt lat="45.9348150" lon="9.5348670">
	<ele>1517.20</ele>
	<time>2023-10-07T10:50:54.000Z</time>
</trkpt>
<trkpt lat="45.9348090" lon="9.5348680">
	<ele>1517.00</ele>
	<time>2023-10-07T10:50:55.000Z</time>
</trkpt>
<trkpt lat="45.9348000" lon="9.5348610">
	<ele>1516.80</ele>
	<time>2023-10-07T10:50:56.000Z</time>
</trkpt>
<trkpt lat="45.9347920" lon="9.5348490">
	<ele>1516.40</ele>
	<time>2023-10-07T10:50:57.000Z</time>
</trkpt>
<trkpt lat="45.9347830" lon="9.5348360">
	<ele>1516.20</ele>
	<time>2023-10-07T10:50:58.000Z</time>
</trkpt>
<trkpt lat="45.9347720" lon="9.5348210">
	<ele>1515.80</ele>
	<time>2023-10-07T10:50:59.000Z</time>
</trkpt>
<trkpt lat="45.9347660" lon="9.5348080">
	<ele>1515.40</ele>
	<time>2023-10-07T10:51:00.000Z</time>
</trkpt>
<trkpt lat="45.9347580" lon="9.5348060">
	<ele>1515.20</ele>
	<time>2023-10-07T10:51:01.000Z</time>
</trkpt>
<trkpt lat="45.9347500" lon="9.5348040">
	<ele>1515.00</ele>
	<time>2023-10-07T10:51:02.000Z</time>
</trkpt>
<trkpt lat="45.9347430" lon="9.5348010">
	<ele>1514.60</ele>
	<time>2023-10-07T10:51:03.000Z</time>
</trkpt>
<trkpt lat="45.9347320" lon="9.5347950">
	<ele>1514.40</ele>
	<time>2023-10-07T10:51:04.000Z</time>
</trkpt>
<trkpt lat="45.9347220" lon="9.5347860">
	<ele>1514.20</ele>
	<time>2023-10-07T10:51:05.000Z</time>
</trkpt>
<trkpt lat="45.9347140" lon="9.5347770">
	<ele>1514.00</ele>
	<time>2023-10-07T10:51:06.000Z</time>
</trkpt>
<trkpt lat="45.9347080" lon="9.5347680">
	<ele>1513.60</ele>
	<time>2023-10-07T10:51:07.000Z</time>
</trkpt>
<trkpt lat="45.9347010" lon="9.5347610">
	<ele>1513.20</ele>
	<time>2023-10-07T10:51:08.000Z</time>
</trkpt>
<trkpt lat="45.9346910" lon="9.5347560">
	<ele>1513.00</ele>
	<time>2023-10-07T10:51:09.000Z</time>
</trkpt>
<trkpt lat="45.9346820" lon="9.5347490">
	<ele>1512.80</ele>
	<time>2023-10-07T10:51:10.000Z</time>
</trkpt>
<trkpt lat="45.9346740" lon="9.5347420">
	<ele>1512.60</ele>
	<time>2023-10-07T10:51:11.000Z</time>
</trkpt>
<trkpt lat="45.9346660" lon="9.5347340">
	<ele>1512.40</ele>
	<time>2023-10-07T10:51:12.000Z</time>
</trkpt>
<trkpt lat="45.9346530" lon="9.5347280">
	<ele>1512.20</ele>
	<time>2023-10-07T10:51:13.000Z</time>
</trkpt>
<trkpt lat="45.9346380" lon="9.5347230">
	<ele>1512.20</ele>
	<time>2023-10-07T10:51:14.000Z</time>
</trkpt>
<trkpt lat="45.9346270" lon="9.5347200">
	<ele>1512.00</ele>
	<time>2023-10-07T10:51:15.000Z</time>
</trkpt>
<trkpt lat="45.9346180" lon="9.5347130">
	<ele>1512.00</ele>
	<time>2023-10-07T10:51:16.000Z</time>
</trkpt>
<trkpt lat="45.9346100" lon="9.5347080">
	<ele>1512.00</ele>
	<time>2023-10-07T10:51:17.000Z</time>
</trkpt>
<trkpt lat="45.9346010" lon="9.5347060">
	<ele>1511.80</ele>
	<time>2023-10-07T10:51:18.000Z</time>
</trkpt>
<trkpt lat="45.9345920" lon="9.5347030">
	<ele>1511.60</ele>
	<time>2023-10-07T10:51:19.000Z</time>
</trkpt>
<trkpt lat="45.9345840" lon="9.5346970">
	<ele>1511.20</ele>
	<time>2023-10-07T10:51:20.000Z</time>
</trkpt>
<trkpt lat="45.9345770" lon="9.5346940">
	<ele>1510.80</ele>
	<time>2023-10-07T10:51:21.000Z</time>
</trkpt>
<trkpt lat="45.9345690" lon="9.5346950">
	<ele>1510.60</ele>
	<time>2023-10-07T10:51:22.000Z</time>
</trkpt>
<trkpt lat="45.9345610" lon="9.5346980">
	<ele>1510.60</ele>
	<time>2023-10-07T10:51:23.000Z</time>
</trkpt>
<trkpt lat="45.9345530" lon="9.5347030">
	<ele>1510.20</ele>
	<time>2023-10-07T10:51:24.000Z</time>
</trkpt>
<trkpt lat="45.9345460" lon="9.5347080">
	<ele>1510.00</ele>
	<time>2023-10-07T10:51:25.000Z</time>
</trkpt>
<trkpt lat="45.9345400" lon="9.5347140">
	<ele>1509.60</ele>
	<time>2023-10-07T10:51:26.000Z</time>
</trkpt>
<trkpt lat="45.9345340" lon="9.5347230">
	<ele>1509.20</ele>
	<time>2023-10-07T10:51:27.000Z</time>
</trkpt>
<trkpt lat="45.9345260" lon="9.5347250">
	<ele>1508.80</ele>
	<time>2023-10-07T10:51:28.000Z</time>
</trkpt>
<trkpt lat="45.9345220" lon="9.5347270">
	<ele>1508.60</ele>
	<time>2023-10-07T10:51:29.000Z</time>
</trkpt>
<trkpt lat="45.9345170" lon="9.5347270">
	<ele>1508.40</ele>
	<time>2023-10-07T10:51:30.000Z</time>
</trkpt>
<trkpt lat="45.9345100" lon="9.5347260">
	<ele>1508.20</ele>
	<time>2023-10-07T10:51:31.000Z</time>
</trkpt>
<trkpt lat="45.9345000" lon="9.5347300">
	<ele>1508.00</ele>
	<time>2023-10-07T10:51:32.000Z</time>
</trkpt>
<trkpt lat="45.9344960" lon="9.5347350">
	<ele>1507.80</ele>
	<time>2023-10-07T10:51:33.000Z</time>
</trkpt>
<trkpt lat="45.9344910" lon="9.5347450">
	<ele>1507.60</ele>
	<time>2023-10-07T10:51:34.000Z</time>
</trkpt>
<trkpt lat="45.9344830" lon="9.5347530">
	<ele>1507.20</ele>
	<time>2023-10-07T10:51:35.000Z</time>
</trkpt>
<trkpt lat="45.9344730" lon="9.5347570">
	<ele>1507.20</ele>
	<time>2023-10-07T10:51:36.000Z</time>
</trkpt>
<trkpt lat="45.9344620" lon="9.5347570">
	<ele>1507.00</ele>
	<time>2023-10-07T10:51:37.000Z</time>
</trkpt>
<trkpt lat="45.9344510" lon="9.5347590">
	<ele>1506.80</ele>
	<time>2023-10-07T10:51:38.000Z</time>
</trkpt>
<trkpt lat="45.9344450" lon="9.5347600">
	<ele>1506.20</ele>
	<time>2023-10-07T10:51:39.000Z</time>
</trkpt>
<trkpt lat="45.9344410" lon="9.5347630">
	<ele>1505.80</ele>
	<time>2023-10-07T10:51:40.000Z</time>
</trkpt>
<trkpt lat="45.9344350" lon="9.5347690">
	<ele>1505.60</ele>
	<time>2023-10-07T10:51:41.000Z</time>
</trkpt>
<trkpt lat="45.9344290" lon="9.5347680">
	<ele>1505.40</ele>
	<time>2023-10-07T10:51:42.000Z</time>
</trkpt>
<trkpt lat="45.9344240" lon="9.5347670">
	<ele>1505.20</ele>
	<time>2023-10-07T10:51:43.000Z</time>
</trkpt>
<trkpt lat="45.9344160" lon="9.5347620">
	<ele>1505.20</ele>
	<time>2023-10-07T10:51:44.000Z</time>
</trkpt>
<trkpt lat="45.9344060" lon="9.5347560">
	<ele>1505.20</ele>
	<time>2023-10-07T10:51:45.000Z</time>
</trkpt>
<trkpt lat="45.9343960" lon="9.5347510">
	<ele>1505.00</ele>
	<time>2023-10-07T10:51:46.000Z</time>
</trkpt>
<trkpt lat="45.9343870" lon="9.5347460">
	<ele>1505.00</ele>
	<time>2023-10-07T10:51:47.000Z</time>
</trkpt>
<trkpt lat="45.9343770" lon="9.5347400">
	<ele>1504.80</ele>
	<time>2023-10-07T10:51:48.000Z</time>
</trkpt>
<trkpt lat="45.9343670" lon="9.5347350">
	<ele>1504.60</ele>
	<time>2023-10-07T10:51:49.000Z</time>
</trkpt>
<trkpt lat="45.9343590" lon="9.5347320">
	<ele>1504.40</ele>
	<time>2023-10-07T10:51:50.000Z</time>
</trkpt>
<trkpt lat="45.9343500" lon="9.5347320">
	<ele>1504.00</ele>
	<time>2023-10-07T10:51:51.000Z</time>
</trkpt>
<trkpt lat="45.9343390" lon="9.5347360">
	<ele>1503.60</ele>
	<time>2023-10-07T10:51:52.000Z</time>
</trkpt>
<trkpt lat="45.9343290" lon="9.5347380">
	<ele>1503.60</ele>
	<time>2023-10-07T10:51:53.000Z</time>
</trkpt>
<trkpt lat="45.9343170" lon="9.5347390">
	<ele>1503.20</ele>
	<time>2023-10-07T10:51:54.000Z</time>
</trkpt>
<trkpt lat="45.9343070" lon="9.5347410">
	<ele>1503.00</ele>
	<time>2023-10-07T10:51:55.000Z</time>
</trkpt>
<trkpt lat="45.9342960" lon="9.5347380">
	<ele>1502.80</ele>
	<time>2023-10-07T10:51:56.000Z</time>
</trkpt>
<trkpt lat="45.9342860" lon="9.5347320">
	<ele>1502.80</ele>
	<time>2023-10-07T10:51:57.000Z</time>
</trkpt>
<trkpt lat="45.9342770" lon="9.5347280">
	<ele>1502.80</ele>
	<time>2023-10-07T10:51:58.000Z</time>
</trkpt>
<trkpt lat="45.9342690" lon="9.5347230">
	<ele>1502.60</ele>
	<time>2023-10-07T10:51:59.000Z</time>
</trkpt>
<trkpt lat="45.9342600" lon="9.5347180">
	<ele>1502.60</ele>
	<time>2023-10-07T10:52:00.000Z</time>
</trkpt>
<trkpt lat="45.9342500" lon="9.5347120">
	<ele>1502.40</ele>
	<time>2023-10-07T10:52:01.000Z</time>
</trkpt>
<trkpt lat="45.9342390" lon="9.5347050">
	<ele>1502.40</ele>
	<time>2023-10-07T10:52:02.000Z</time>
</trkpt>
<trkpt lat="45.9342300" lon="9.5346990">
	<ele>1502.20</ele>
	<time>2023-10-07T10:52:03.000Z</time>
</trkpt>
<trkpt lat="45.9342170" lon="9.5346950">
	<ele>1502.00</ele>
	<time>2023-10-07T10:52:04.000Z</time>
</trkpt>
<trkpt lat="45.9342060" lon="9.5346920">
	<ele>1501.60</ele>
	<time>2023-10-07T10:52:05.000Z</time>
</trkpt>
<trkpt lat="45.9341950" lon="9.5346870">
	<ele>1501.40</ele>
	<time>2023-10-07T10:52:06.000Z</time>
</trkpt>
<trkpt lat="45.9341850" lon="9.5346840">
	<ele>1501.20</ele>
	<time>2023-10-07T10:52:07.000Z</time>
</trkpt>
<trkpt lat="45.9341760" lon="9.5346800">
	<ele>1501.00</ele>
	<time>2023-10-07T10:52:08.000Z</time>
</trkpt>
<trkpt lat="45.9341670" lon="9.5346750">
	<ele>1500.60</ele>
	<time>2023-10-07T10:52:09.000Z</time>
</trkpt>
<trkpt lat="45.9341570" lon="9.5346750">
	<ele>1500.40</ele>
	<time>2023-10-07T10:52:10.000Z</time>
</trkpt>
<trkpt lat="45.9341490" lon="9.5346740">
	<ele>1500.20</ele>
	<time>2023-10-07T10:52:11.000Z</time>
</trkpt>
<trkpt lat="45.9341420" lon="9.5346720">
	<ele>1500.00</ele>
	<time>2023-10-07T10:52:12.000Z</time>
</trkpt>
<trkpt lat="45.9341360" lon="9.5346670">
	<ele>1499.80</ele>
	<time>2023-10-07T10:52:13.000Z</time>
</trkpt>
<trkpt lat="45.9341290" lon="9.5346620">
	<ele>1499.60</ele>
	<time>2023-10-07T10:52:14.000Z</time>
</trkpt>
<trkpt lat="45.9341200" lon="9.5346580">
	<ele>1499.60</ele>
	<time>2023-10-07T10:52:15.000Z</time>
</trkpt>
<trkpt lat="45.9341110" lon="9.5346510">
	<ele>1499.40</ele>
	<time>2023-10-07T10:52:16.000Z</time>
</trkpt>
<trkpt lat="45.9341010" lon="9.5346420">
	<ele>1499.20</ele>
	<time>2023-10-07T10:52:17.000Z</time>
</trkpt>
<trkpt lat="45.9340940" lon="9.5346350">
	<ele>1498.80</ele>
	<time>2023-10-07T10:52:18.000Z</time>
</trkpt>
<trkpt lat="45.9340870" lon="9.5346300">
	<ele>1498.40</ele>
	<time>2023-10-07T10:52:19.000Z</time>
</trkpt>
<trkpt lat="45.9340790" lon="9.5346270">
	<ele>1498.40</ele>
	<time>2023-10-07T10:52:20.000Z</time>
</trkpt>
<trkpt lat="45.9340680" lon="9.5346290">
	<ele>1498.00</ele>
	<time>2023-10-07T10:52:21.000Z</time>
</trkpt>
<trkpt lat="45.9340580" lon="9.5346270">
	<ele>1497.80</ele>
	<time>2023-10-07T10:52:22.000Z</time>
</trkpt>
<trkpt lat="45.9340500" lon="9.5346220">
	<ele>1497.60</ele>
	<time>2023-10-07T10:52:23.000Z</time>
</trkpt>
<trkpt lat="45.9340440" lon="9.5346200">
	<ele>1497.60</ele>
	<time>2023-10-07T10:52:24.000Z</time>
</trkpt>
<trkpt lat="45.9340350" lon="9.5346160">
	<ele>1497.40</ele>
	<time>2023-10-07T10:52:25.000Z</time>
</trkpt>
<trkpt lat="45.9340270" lon="9.5346150">
	<ele>1497.20</ele>
	<time>2023-10-07T10:52:26.000Z</time>
</trkpt>
<trkpt lat="45.9340190" lon="9.5346150">
	<ele>1497.00</ele>
	<time>2023-10-07T10:52:27.000Z</time>
</trkpt>
<trkpt lat="45.9340110" lon="9.5346150">
	<ele>1496.60</ele>
	<time>2023-10-07T10:52:28.000Z</time>
</trkpt>
<trkpt lat="45.9340030" lon="9.5346110">
	<ele>1496.40</ele>
	<time>2023-10-07T10:52:29.000Z</time>
</trkpt>
<trkpt lat="45.9339950" lon="9.5346080">
	<ele>1496.00</ele>
	<time>2023-10-07T10:52:30.000Z</time>
</trkpt>
<trkpt lat="45.9339860" lon="9.5346050">
	<ele>1495.80</ele>
	<time>2023-10-07T10:52:31.000Z</time>
</trkpt>
<trkpt lat="45.9339800" lon="9.5346050">
	<ele>1495.60</ele>
	<time>2023-10-07T10:52:32.000Z</time>
</trkpt>
<trkpt lat="45.9339720" lon="9.5346040">
	<ele>1495.40</ele>
	<time>2023-10-07T10:52:33.000Z</time>
</trkpt>
<trkpt lat="45.9339640" lon="9.5346000">
	<ele>1495.40</ele>
	<time>2023-10-07T10:52:34.000Z</time>
</trkpt>
<trkpt lat="45.9339610" lon="9.5345960">
	<ele>1495.20</ele>
	<time>2023-10-07T10:52:35.000Z</time>
</trkpt>
<trkpt lat="45.9339520" lon="9.5345950">
	<ele>1494.60</ele>
	<time>2023-10-07T10:52:36.000Z</time>
</trkpt>
<trkpt lat="45.9339440" lon="9.5345900">
	<ele>1494.40</ele>
	<time>2023-10-07T10:52:37.000Z</time>
</trkpt>
<trkpt lat="45.9339350" lon="9.5345810">
	<ele>1494.20</ele>
	<time>2023-10-07T10:52:38.000Z</time>
</trkpt>
<trkpt lat="45.9339300" lon="9.5345720">
	<ele>1494.00</ele>
	<time>2023-10-07T10:52:39.000Z</time>
</trkpt>
<trkpt lat="45.9339250" lon="9.5345670">
	<ele>1493.60</ele>
	<time>2023-10-07T10:52:40.000Z</time>
</trkpt>
<trkpt lat="45.9339140" lon="9.5345620">
	<ele>1493.60</ele>
	<time>2023-10-07T10:52:41.000Z</time>
</trkpt>
<trkpt lat="45.9339030" lon="9.5345550">
	<ele>1493.20</ele>
	<time>2023-10-07T10:52:42.000Z</time>
</trkpt>
<trkpt lat="45.9338910" lon="9.5345430">
	<ele>1493.20</ele>
	<time>2023-10-07T10:52:43.000Z</time>
</trkpt>
<trkpt lat="45.9338830" lon="9.5345250">
	<ele>1493.00</ele>
	<time>2023-10-07T10:52:44.000Z</time>
</trkpt>
<trkpt lat="45.9338740" lon="9.5345130">
	<ele>1493.00</ele>
	<time>2023-10-07T10:52:45.000Z</time>
</trkpt>
<trkpt lat="45.9338670" lon="9.5345050">
	<ele>1492.80</ele>
	<time>2023-10-07T10:52:46.000Z</time>
</trkpt>
<trkpt lat="45.9338560" lon="9.5345000">
	<ele>1492.60</ele>
	<time>2023-10-07T10:52:47.000Z</time>
</trkpt>
<trkpt lat="45.9338490" lon="9.5344980">
	<ele>1492.60</ele>
	<time>2023-10-07T10:52:48.000Z</time>
</trkpt>
<trkpt lat="45.9338420" lon="9.5344950">
	<ele>1492.60</ele>
	<time>2023-10-07T10:52:49.000Z</time>
</trkpt>
<trkpt lat="45.9338360" lon="9.5344910">
	<ele>1492.60</ele>
	<time>2023-10-07T10:52:50.000Z</time>
</trkpt>
<trkpt lat="45.9338250" lon="9.5344820">
	<ele>1492.40</ele>
	<time>2023-10-07T10:52:51.000Z</time>
</trkpt>
<trkpt lat="45.9338180" lon="9.5344770">
	<ele>1492.20</ele>
	<time>2023-10-07T10:52:52.000Z</time>
</trkpt>
<trkpt lat="45.9338070" lon="9.5344730">
	<ele>1492.00</ele>
	<time>2023-10-07T10:52:53.000Z</time>
</trkpt>
<trkpt lat="45.9337940" lon="9.5344720">
	<ele>1491.80</ele>
	<time>2023-10-07T10:52:54.000Z</time>
</trkpt>
<trkpt lat="45.9337820" lon="9.5344700">
	<ele>1491.80</ele>
	<time>2023-10-07T10:52:55.000Z</time>
</trkpt>
<trkpt lat="45.9337710" lon="9.5344750">
	<ele>1491.60</ele>
	<time>2023-10-07T10:52:56.000Z</time>
</trkpt>
<trkpt lat="45.9337610" lon="9.5344820">
	<ele>1491.40</ele>
	<time>2023-10-07T10:52:57.000Z</time>
</trkpt>
<trkpt lat="45.9337520" lon="9.5344880">
	<ele>1491.40</ele>
	<time>2023-10-07T10:52:58.000Z</time>
</trkpt>
<trkpt lat="45.9337410" lon="9.5344910">
	<ele>1491.20</ele>
	<time>2023-10-07T10:52:59.000Z</time>
</trkpt>
<trkpt lat="45.9337290" lon="9.5344960">
	<ele>1491.20</ele>
	<time>2023-10-07T10:53:00.000Z</time>
</trkpt>
<trkpt lat="45.9337200" lon="9.5344990">
	<ele>1491.20</ele>
	<time>2023-10-07T10:53:01.000Z</time>
</trkpt>
<trkpt lat="45.9337130" lon="9.5345010">
	<ele>1491.20</ele>
	<time>2023-10-07T10:53:02.000Z</time>
</trkpt>
<trkpt lat="45.9337090" lon="9.5345030">
	<ele>1491.00</ele>
	<time>2023-10-07T10:53:03.000Z</time>
</trkpt>
<trkpt lat="45.9337030" lon="9.5345040">
	<ele>1491.00</ele>
	<time>2023-10-07T10:53:04.000Z</time>
</trkpt>
<trkpt lat="45.9336960" lon="9.5345040">
	<ele>1490.80</ele>
	<time>2023-10-07T10:53:05.000Z</time>
</trkpt>
<trkpt lat="45.9336900" lon="9.5345110">
	<ele>1490.80</ele>
	<time>2023-10-07T10:53:06.000Z</time>
</trkpt>
<trkpt lat="45.9336820" lon="9.5345160">
	<ele>1490.80</ele>
	<time>2023-10-07T10:53:07.000Z</time>
</trkpt>
<trkpt lat="45.9336740" lon="9.5345210">
	<ele>1490.80</ele>
	<time>2023-10-07T10:53:08.000Z</time>
</trkpt>
<trkpt lat="45.9336660" lon="9.5345230">
	<ele>1490.80</ele>
	<time>2023-10-07T10:53:09.000Z</time>
</trkpt>
<trkpt lat="45.9336590" lon="9.5345230">
	<ele>1490.80</ele>
	<time>2023-10-07T10:53:10.000Z</time>
</trkpt>
<trkpt lat="45.9336560" lon="9.5345140">
	<ele>1490.80</ele>
	<time>2023-10-07T10:53:11.000Z</time>
</trkpt>
<trkpt lat="45.9336570" lon="9.5345120">
	<ele>1490.80</ele>
	<time>2023-10-07T10:53:12.000Z</time>
</trkpt>
<trkpt lat="45.9336570" lon="9.5345110">
	<ele>1490.80</ele>
	<time>2023-10-07T10:53:13.000Z</time>
</trkpt>
<trkpt lat="45.9336550" lon="9.5345090">
	<ele>1490.80</ele>
	<time>2023-10-07T10:53:14.000Z</time>
</trkpt>
<trkpt lat="45.9336560" lon="9.5345090">
	<ele>1490.80</ele>
	<time>2023-10-07T10:53:15.000Z</time>
</trkpt>
<trkpt lat="45.9336560" lon="9.5345100">
	<ele>1490.80</ele>
	<time>2023-10-07T10:53:16.000Z</time>
</trkpt>
<trkpt lat="45.9336570" lon="9.5345100">
	<ele>1490.80</ele>
	<time>2023-10-07T10:53:17.000Z</time>
</trkpt>
<trkpt lat="45.9336590" lon="9.5345110">
	<ele>1490.80</ele>
	<time>2023-10-07T10:53:18.000Z</time>
</trkpt>
<trkpt lat="45.9336590" lon="9.5345110">
	<ele>1490.80</ele>
	<time>2023-10-07T10:53:19.000Z</time>
</trkpt>
<trkpt lat="45.9336600" lon="9.5345110">
	<ele>1491.00</ele>
	<time>2023-10-07T10:53:20.000Z</time>
</trkpt>
<trkpt lat="45.9336600" lon="9.5345120">
	<ele>1491.00</ele>
	<time>2023-10-07T10:53:21.000Z</time>
</trkpt>
<trkpt lat="45.9336570" lon="9.5345120">
	<ele>1491.00</ele>
	<time>2023-10-07T10:53:22.000Z</time>
</trkpt>
<trkpt lat="45.9336570" lon="9.5345120">
	<ele>1491.00</ele>
	<time>2023-10-07T10:53:23.000Z</time>
</trkpt>
<trkpt lat="45.9336570" lon="9.5345120">
	<ele>1491.00</ele>
	<time>2023-10-07T10:53:24.000Z</time>
</trkpt>
<trkpt lat="45.9336570" lon="9.5345120">
	<ele>1491.00</ele>
	<time>2023-10-07T10:53:25.000Z</time>
</trkpt>
<trkpt lat="45.9336570" lon="9.5345120">
	<ele>1491.00</ele>
	<time>2023-10-07T10:53:26.000Z</time>
</trkpt>
<trkpt lat="45.9336570" lon="9.5345120">
	<ele>1491.00</ele>
	<time>2023-10-07T10:53:27.000Z</time>
</trkpt>
<trkpt lat="45.9336570" lon="9.5345120">
	<ele>1491.00</ele>
	<time>2023-10-07T10:53:28.000Z</time>
</trkpt>
<trkpt lat="45.9336570" lon="9.5345120">
	<ele>1491.00</ele>
	<time>2023-10-07T10:53:29.000Z</time>
</trkpt>
<trkpt lat="45.9336570" lon="9.5345120">
	<ele>1491.00</ele>
	<time>2023-10-07T10:53:30.000Z</time>
</trkpt>
<trkpt lat="45.9336570" lon="9.5345120">
	<ele>1491.00</ele>
	<time>2023-10-07T10:53:31.000Z</time>
</trkpt>
<trkpt lat="45.9336570" lon="9.5345120">
	<ele>1491.00</ele>
	<time>2023-10-07T10:53:32.000Z</time>
</trkpt>
<trkpt lat="45.9336570" lon="9.5345120">
	<ele>1491.00</ele>
	<time>2023-10-07T10:53:33.000Z</time>
</trkpt>
<trkpt lat="45.9336570" lon="9.5345120">
	<ele>1491.00</ele>
	<time>2023-10-07T10:53:34.000Z</time>
</trkpt>
<trkpt lat="45.9336570" lon="9.5345120">
	<ele>1490.80</ele>
	<time>2023-10-07T10:53:35.000Z</time>
</trkpt>
<trkpt lat="45.9336570" lon="9.5345120">
	<ele>1491.00</ele>
	<time>2023-10-07T10:53:36.000Z</time>
</trkpt>
<trkpt lat="45.9336560" lon="9.5345120">
	<ele>1491.00</ele>
	<time>2023-10-07T10:53:37.000Z</time>
</trkpt>
<trkpt lat="45.9336560" lon="9.5345120">
	<ele>1491.00</ele>
	<time>2023-10-07T10:53:38.000Z</time>
</trkpt>
<trkpt lat="45.9336520" lon="9.5345110">
	<ele>1490.80</ele>
	<time>2023-10-07T10:53:39.000Z</time>
</trkpt>
<trkpt lat="45.9336410" lon="9.5344970">
	<ele>1490.80</ele>
	<time>2023-10-07T10:53:40.000Z</time>
</trkpt>
<trkpt lat="45.9336310" lon="9.5344870">
	<ele>1490.80</ele>
	<time>2023-10-07T10:53:41.000Z</time>
</trkpt>
<trkpt lat="45.9336210" lon="9.5344790">
	<ele>1490.60</ele>
	<time>2023-10-07T10:53:42.000Z</time>
</trkpt>
<trkpt lat="45.9336100" lon="9.5344700">
	<ele>1490.60</ele>
	<time>2023-10-07T10:53:43.000Z</time>
</trkpt>
<trkpt lat="45.9335960" lon="9.5344590">
	<ele>1490.60</ele>
	<time>2023-10-07T10:53:44.000Z</time>
</trkpt>
<trkpt lat="45.9335840" lon="9.5344450">
	<ele>1490.60</ele>
	<time>2023-10-07T10:53:45.000Z</time>
</trkpt>
<trkpt lat="45.9335730" lon="9.5344270">
	<ele>1490.40</ele>
	<time>2023-10-07T10:53:46.000Z</time>
</trkpt>
<trkpt lat="45.9335660" lon="9.5344160">
	<ele>1490.40</ele>
	<time>2023-10-07T10:53:47.000Z</time>
</trkpt>
<trkpt lat="45.9335530" lon="9.5344000">
	<ele>1490.40</ele>
	<time>2023-10-07T10:53:48.000Z</time>
</trkpt>
<trkpt lat="45.9335440" lon="9.5343880">
	<ele>1490.40</ele>
	<time>2023-10-07T10:53:49.000Z</time>
</trkpt>
<trkpt lat="45.9335380" lon="9.5343770">
	<ele>1490.40</ele>
	<time>2023-10-07T10:53:50.000Z</time>
</trkpt>
<trkpt lat="45.9335310" lon="9.5343680">
	<ele>1490.40</ele>
	<time>2023-10-07T10:53:51.000Z</time>
</trkpt>
<trkpt lat="45.9335260" lon="9.5343510">
	<ele>1490.40</ele>
	<time>2023-10-07T10:53:52.000Z</time>
</trkpt>
<trkpt lat="45.9335180" lon="9.5343330">
	<ele>1490.20</ele>
	<time>2023-10-07T10:53:53.000Z</time>
</trkpt>
<trkpt lat="45.9335150" lon="9.5343220">
	<ele>1490.20</ele>
	<time>2023-10-07T10:53:54.000Z</time>
</trkpt>
<trkpt lat="45.9335090" lon="9.5343100">
	<ele>1490.20</ele>
	<time>2023-10-07T10:53:55.000Z</time>
</trkpt>
<trkpt lat="45.9335030" lon="9.5343020">
	<ele>1490.20</ele>
	<time>2023-10-07T10:53:56.000Z</time>
</trkpt>
<trkpt lat="45.9334930" lon="9.5342940">
	<ele>1490.00</ele>
	<time>2023-10-07T10:53:57.000Z</time>
</trkpt>
<trkpt lat="45.9334850" lon="9.5342830">
	<ele>1490.00</ele>
	<time>2023-10-07T10:53:58.000Z</time>
</trkpt>
<trkpt lat="45.9334780" lon="9.5342760">
	<ele>1490.00</ele>
	<time>2023-10-07T10:53:59.000Z</time>
</trkpt>
<trkpt lat="45.9334700" lon="9.5342680">
	<ele>1490.00</ele>
	<time>2023-10-07T10:54:00.000Z</time>
</trkpt>
<trkpt lat="45.9334630" lon="9.5342610">
	<ele>1490.00</ele>
	<time>2023-10-07T10:54:01.000Z</time>
</trkpt>
<trkpt lat="45.9334600" lon="9.5342560">
	<ele>1490.00</ele>
	<time>2023-10-07T10:54:02.000Z</time>
</trkpt>
<trkpt lat="45.9334560" lon="9.5342560">
	<ele>1489.80</ele>
	<time>2023-10-07T10:54:03.000Z</time>
</trkpt>
<trkpt lat="45.9334510" lon="9.5342640">
	<ele>1490.00</ele>
	<time>2023-10-07T10:54:04.000Z</time>
</trkpt>
<trkpt lat="45.9334450" lon="9.5342720">
	<ele>1490.00</ele>
	<time>2023-10-07T10:54:05.000Z</time>
</trkpt>
<trkpt lat="45.9334370" lon="9.5342820">
	<ele>1490.00</ele>
	<time>2023-10-07T10:54:06.000Z</time>
</trkpt>
<trkpt lat="45.9334280" lon="9.5342860">
	<ele>1490.00</ele>
	<time>2023-10-07T10:54:07.000Z</time>
</trkpt>
<trkpt lat="45.9334160" lon="9.5342850">
	<ele>1490.00</ele>
	<time>2023-10-07T10:54:08.000Z</time>
</trkpt>
<trkpt lat="45.9334060" lon="9.5342800">
	<ele>1490.20</ele>
	<time>2023-10-07T10:54:09.000Z</time>
</trkpt>
<trkpt lat="45.9333950" lon="9.5342720">
	<ele>1490.40</ele>
	<time>2023-10-07T10:54:10.000Z</time>
</trkpt>
<trkpt lat="45.9333850" lon="9.5342660">
	<ele>1490.40</ele>
	<time>2023-10-07T10:54:11.000Z</time>
</trkpt>
<trkpt lat="45.9333750" lon="9.5342620">
	<ele>1490.60</ele>
	<time>2023-10-07T10:54:12.000Z</time>
</trkpt>
<trkpt lat="45.9333660" lon="9.5342620">
	<ele>1490.60</ele>
	<time>2023-10-07T10:54:13.000Z</time>
</trkpt>
<trkpt lat="45.9333570" lon="9.5342630">
	<ele>1490.80</ele>
	<time>2023-10-07T10:54:14.000Z</time>
</trkpt>
<trkpt lat="45.9333470" lon="9.5342650">
	<ele>1490.80</ele>
	<time>2023-10-07T10:54:15.000Z</time>
</trkpt>
<trkpt lat="45.9333390" lon="9.5342690">
	<ele>1491.00</ele>
	<time>2023-10-07T10:54:16.000Z</time>
</trkpt>
<trkpt lat="45.9333300" lon="9.5342730">
	<ele>1491.20</ele>
	<time>2023-10-07T10:54:17.000Z</time>
</trkpt>
<trkpt lat="45.9333210" lon="9.5342770">
	<ele>1491.20</ele>
	<time>2023-10-07T10:54:18.000Z</time>
</trkpt>
<trkpt lat="45.9333160" lon="9.5342840">
	<ele>1491.20</ele>
	<time>2023-10-07T10:54:19.000Z</time>
</trkpt>
<trkpt lat="45.9333140" lon="9.5342890">
	<ele>1491.40</ele>
	<time>2023-10-07T10:54:20.000Z</time>
</trkpt>
<trkpt lat="45.9333150" lon="9.5343000">
	<ele>1491.40</ele>
	<time>2023-10-07T10:54:21.000Z</time>
</trkpt>
<trkpt lat="45.9333170" lon="9.5343040">
	<ele>1491.40</ele>
	<time>2023-10-07T10:54:22.000Z</time>
</trkpt>
<trkpt lat="45.9333160" lon="9.5343050">
	<ele>1491.60</ele>
	<time>2023-10-07T10:54:23.000Z</time>
</trkpt>
<trkpt lat="45.9333170" lon="9.5343070">
	<ele>1491.60</ele>
	<time>2023-10-07T10:54:24.000Z</time>
</trkpt>
<trkpt lat="45.9333190" lon="9.5343030">
	<ele>1491.60</ele>
	<time>2023-10-07T10:54:25.000Z</time>
</trkpt>
<trkpt lat="45.9333200" lon="9.5343020">
	<ele>1491.40</ele>
	<time>2023-10-07T10:54:26.000Z</time>
</trkpt>
<trkpt lat="45.9333200" lon="9.5343010">
	<ele>1491.20</ele>
	<time>2023-10-07T10:54:27.000Z</time>
</trkpt>
<trkpt lat="45.9333210" lon="9.5343000">
	<ele>1491.20</ele>
	<time>2023-10-07T10:54:28.000Z</time>
</trkpt>
<trkpt lat="45.9333220" lon="9.5343010">
	<ele>1491.20</ele>
	<time>2023-10-07T10:54:29.000Z</time>
</trkpt>
<trkpt lat="45.9333230" lon="9.5343030">
	<ele>1491.00</ele>
	<time>2023-10-07T10:54:30.000Z</time>
</trkpt>
<trkpt lat="45.9333250" lon="9.5343020">
	<ele>1491.00</ele>
	<time>2023-10-07T10:54:31.000Z</time>
</trkpt>
<trkpt lat="45.9333250" lon="9.5342950">
	<ele>1491.00</ele>
	<time>2023-10-07T10:54:32.000Z</time>
</trkpt>
<trkpt lat="45.9333240" lon="9.5342910">
	<ele>1491.00</ele>
	<time>2023-10-07T10:54:33.000Z</time>
</trkpt>
<trkpt lat="45.9333240" lon="9.5342910">
	<ele>1491.00</ele>
	<time>2023-10-07T10:54:34.000Z</time>
</trkpt>
<trkpt lat="45.9333240" lon="9.5342910">
	<ele>1491.00</ele>
	<time>2023-10-07T10:54:35.000Z</time>
</trkpt>
<trkpt lat="45.9333240" lon="9.5342910">
	<ele>1491.00</ele>
	<time>2023-10-07T10:54:36.000Z</time>
</trkpt>
<trkpt lat="45.9333240" lon="9.5342910">
	<ele>1491.00</ele>
	<time>2023-10-07T10:54:37.000Z</time>
</trkpt>
<trkpt lat="45.9333240" lon="9.5342910">
	<ele>1491.00</ele>
	<time>2023-10-07T10:54:38.000Z</time>
</trkpt>
<trkpt lat="45.9333240" lon="9.5342910">
	<ele>1491.00</ele>
	<time>2023-10-07T10:54:39.000Z</time>
</trkpt>
<trkpt lat="45.9333240" lon="9.5342910">
	<ele>1491.00</ele>
	<time>2023-10-07T10:54:40.000Z</time>
</trkpt>
<trkpt lat="45.9333240" lon="9.5342910">
	<ele>1491.00</ele>
	<time>2023-10-07T10:54:41.000Z</time>
</trkpt>
<trkpt lat="45.9333240" lon="9.5342910">
	<ele>1491.20</ele>
	<time>2023-10-07T10:54:42.000Z</time>
</trkpt>
<trkpt lat="45.9333240" lon="9.5342910">
	<ele>1491.20</ele>
	<time>2023-10-07T10:54:43.000Z</time>
</trkpt>
<trkpt lat="45.9333240" lon="9.5342910">
	<ele>1491.20</ele>
	<time>2023-10-07T10:54:44.000Z</time>
</trkpt>
<trkpt lat="45.9333240" lon="9.5342910">
	<ele>1491.20</ele>
	<time>2023-10-07T10:54:45.000Z</time>
</trkpt>
<trkpt lat="45.9333240" lon="9.5342910">
	<ele>1491.20</ele>
	<time>2023-10-07T10:54:46.000Z</time>
</trkpt>
<trkpt lat="45.9333240" lon="9.5342910">
	<ele>1491.20</ele>
	<time>2023-10-07T10:54:47.000Z</time>
</trkpt>
<trkpt lat="45.9333240" lon="9.5342910">
	<ele>1491.20</ele>
	<time>2023-10-07T10:54:48.000Z</time>
</trkpt>
<trkpt lat="45.9333240" lon="9.5342910">
	<ele>1491.20</ele>
	<time>2023-10-07T10:54:49.000Z</time>
</trkpt>
<trkpt lat="45.9333240" lon="9.5342910">
	<ele>1491.20</ele>
	<time>2023-10-07T10:54:50.000Z</time>
</trkpt>
<trkpt lat="45.9333240" lon="9.5342890">
	<ele>1491.20</ele>
	<time>2023-10-07T10:54:51.000Z</time>
</trkpt>
<trkpt lat="45.9333240" lon="9.5342880">
	<ele>1491.20</ele>
	<time>2023-10-07T10:54:52.000Z</time>
</trkpt>
<trkpt lat="45.9333240" lon="9.5342870">
	<ele>1491.20</ele>
	<time>2023-10-07T10:54:53.000Z</time>
</trkpt>
<trkpt lat="45.9333240" lon="9.5342870">
	<ele>1491.20</ele>
	<time>2023-10-07T10:54:54.000Z</time>
</trkpt>
<trkpt lat="45.9333230" lon="9.5342870">
	<ele>1491.40</ele>
	<time>2023-10-07T10:54:55.000Z</time>
</trkpt>
<trkpt lat="45.9333230" lon="9.5342870">
	<ele>1491.40</ele>
	<time>2023-10-07T10:54:56.000Z</time>
</trkpt>
<trkpt lat="45.9333230" lon="9.5342870">
	<ele>1491.20</ele>
	<time>2023-10-07T10:54:57.000Z</time>
</trkpt>
<trkpt lat="45.9333230" lon="9.5342860">
	<ele>1491.20</ele>
	<time>2023-10-07T10:54:58.000Z</time>
</trkpt>
<trkpt lat="45.9333240" lon="9.5342860">
	<ele>1491.20</ele>
	<time>2023-10-07T10:54:59.000Z</time>
</trkpt>
<trkpt lat="45.9333240" lon="9.5342860">
	<ele>1491.20</ele>
	<time>2023-10-07T10:55:00.000Z</time>
</trkpt>
<trkpt lat="45.9333240" lon="9.5342860">
	<ele>1491.20</ele>
	<time>2023-10-07T10:55:01.000Z</time>
</trkpt>
<trkpt lat="45.9333240" lon="9.5342860">
	<ele>1491.20</ele>
	<time>2023-10-07T10:55:02.000Z</time>
</trkpt>
<trkpt lat="45.9333240" lon="9.5342850">
	<ele>1491.20</ele>
	<time>2023-10-07T10:55:03.000Z</time>
</trkpt>
<trkpt lat="45.9333240" lon="9.5342850">
	<ele>1491.20</ele>
	<time>2023-10-07T10:55:04.000Z</time>
</trkpt>
<trkpt lat="45.9333240" lon="9.5342850">
	<ele>1491.20</ele>
	<time>2023-10-07T10:55:05.000Z</time>
</trkpt>
<trkpt lat="45.9333240" lon="9.5342840">
	<ele>1491.00</ele>
	<time>2023-10-07T10:55:06.000Z</time>
</trkpt>
<trkpt lat="45.9333240" lon="9.5342830">
	<ele>1491.00</ele>
	<time>2023-10-07T10:55:07.000Z</time>
</trkpt>
<trkpt lat="45.9333240" lon="9.5342830">
	<ele>1491.00</ele>
	<time>2023-10-07T10:55:08.000Z</time>
</trkpt>
<trkpt lat="45.9333240" lon="9.5342760">
	<ele>1490.80</ele>
	<time>2023-10-07T10:55:09.000Z</time>
</trkpt>
<trkpt lat="45.9333240" lon="9.5342730">
	<ele>1490.80</ele>
	<time>2023-10-07T10:55:10.000Z</time>
</trkpt>
<trkpt lat="45.9333250" lon="9.5342720">
	<ele>1490.80</ele>
	<time>2023-10-07T10:55:11.000Z</time>
</trkpt>
<trkpt lat="45.9333250" lon="9.5342710">
	<ele>1490.80</ele>
	<time>2023-10-07T10:55:12.000Z</time>
</trkpt>
<trkpt lat="45.9333250" lon="9.5342690">
	<ele>1490.80</ele>
	<time>2023-10-07T10:55:13.000Z</time>
</trkpt>
<trkpt lat="45.9333320" lon="9.5342660">
	<ele>1490.80</ele>
	<time>2023-10-07T10:55:14.000Z</time>
</trkpt>
<trkpt lat="45.9333370" lon="9.5342650">
	<ele>1490.80</ele>
	<time>2023-10-07T10:55:15.000Z</time>
</trkpt>
<trkpt lat="45.9333380" lon="9.5342630">
	<ele>1490.80</ele>
	<time>2023-10-07T10:55:16.000Z</time>
</trkpt>
<trkpt lat="45.9333380" lon="9.5342630">
	<ele>1490.80</ele>
	<time>2023-10-07T10:55:17.000Z</time>
</trkpt>
<trkpt lat="45.9333390" lon="9.5342630">
	<ele>1490.80</ele>
	<time>2023-10-07T10:55:18.000Z</time>
</trkpt>
<trkpt lat="45.9333390" lon="9.5342630">
	<ele>1491.00</ele>
	<time>2023-10-07T10:55:19.000Z</time>
</trkpt>
<trkpt lat="45.9333390" lon="9.5342630">
	<ele>1491.00</ele>
	<time>2023-10-07T10:55:20.000Z</time>
</trkpt>
<trkpt lat="45.9333390" lon="9.5342630">
	<ele>1491.00</ele>
	<time>2023-10-07T10:55:21.000Z</time>
</trkpt>
<trkpt lat="45.9333390" lon="9.5342630">
	<ele>1491.20</ele>
	<time>2023-10-07T10:55:22.000Z</time>
</trkpt>
<trkpt lat="45.9333400" lon="9.5342630">
	<ele>1491.20</ele>
	<time>2023-10-07T10:55:23.000Z</time>
</trkpt>
<trkpt lat="45.9333410" lon="9.5342630">
	<ele>1491.20</ele>
	<time>2023-10-07T10:55:24.000Z</time>
</trkpt>
<trkpt lat="45.9333410" lon="9.5342630">
	<ele>1491.40</ele>
	<time>2023-10-07T10:55:25.000Z</time>
</trkpt>
<trkpt lat="45.9333410" lon="9.5342640">
	<ele>1491.40</ele>
	<time>2023-10-07T10:55:26.000Z</time>
</trkpt>
<trkpt lat="45.9333420" lon="9.5342650">
	<ele>1491.40</ele>
	<time>2023-10-07T10:55:27.000Z</time>
</trkpt>
<trkpt lat="45.9333420" lon="9.5342680">
	<ele>1491.40</ele>
	<time>2023-10-07T10:55:28.000Z</time>
</trkpt>
<trkpt lat="45.9333430" lon="9.5342690">
	<ele>1491.20</ele>
	<time>2023-10-07T10:55:29.000Z</time>
</trkpt>
<trkpt lat="45.9333430" lon="9.5342700">
	<ele>1491.20</ele>
	<time>2023-10-07T10:55:30.000Z</time>
</trkpt>
<trkpt lat="45.9333430" lon="9.5342700">
	<ele>1491.20</ele>
	<time>2023-10-07T10:55:31.000Z</time>
</trkpt>
<trkpt lat="45.9333430" lon="9.5342710">
	<ele>1491.20</ele>
	<time>2023-10-07T10:55:32.000Z</time>
</trkpt>
<trkpt lat="45.9333430" lon="9.5342710">
	<ele>1491.20</ele>
	<time>2023-10-07T10:55:33.000Z</time>
</trkpt>
<trkpt lat="45.9333450" lon="9.5342710">
	<ele>1491.20</ele>
	<time>2023-10-07T10:55:34.000Z</time>
</trkpt>
<trkpt lat="45.9333460" lon="9.5342710">
	<ele>1491.20</ele>
	<time>2023-10-07T10:55:35.000Z</time>
</trkpt>
<trkpt lat="45.9333470" lon="9.5342710">
	<ele>1491.60</ele>
	<time>2023-10-07T10:55:36.000Z</time>
</trkpt>
<trkpt lat="45.9333480" lon="9.5342710">
	<ele>1491.60</ele>
	<time>2023-10-07T10:55:37.000Z</time>
</trkpt>
<trkpt lat="45.9333480" lon="9.5342710">
	<ele>1491.80</ele>
	<time>2023-10-07T10:55:38.000Z</time>
</trkpt>
<trkpt lat="45.9333480" lon="9.5342710">
	<ele>1491.80</ele>
	<time>2023-10-07T10:55:39.000Z</time>
</trkpt>
<trkpt lat="45.9333480" lon="9.5342710">
	<ele>1491.80</ele>
	<time>2023-10-07T10:55:40.000Z</time>
</trkpt>
<trkpt lat="45.9333480" lon="9.5342710">
	<ele>1491.80</ele>
	<time>2023-10-07T10:55:41.000Z</time>
</trkpt>
<trkpt lat="45.9333480" lon="9.5342710">
	<ele>1491.60</ele>
	<time>2023-10-07T10:55:42.000Z</time>
</trkpt>
<trkpt lat="45.9333480" lon="9.5342710">
	<ele>1491.60</ele>
	<time>2023-10-07T10:55:43.000Z</time>
</trkpt>
<trkpt lat="45.9333480" lon="9.5342710">
	<ele>1491.60</ele>
	<time>2023-10-07T10:55:44.000Z</time>
</trkpt>
<trkpt lat="45.9333480" lon="9.5342710">
	<ele>1491.80</ele>
	<time>2023-10-07T10:55:45.000Z</time>
</trkpt>
<trkpt lat="45.9333480" lon="9.5342710">
	<ele>1491.80</ele>
	<time>2023-10-07T10:55:46.000Z</time>
</trkpt>
<trkpt lat="45.9333490" lon="9.5342710">
	<ele>1491.80</ele>
	<time>2023-10-07T10:55:47.000Z</time>
</trkpt>
<trkpt lat="45.9333490" lon="9.5342710">
	<ele>1491.80</ele>
	<time>2023-10-07T10:55:48.000Z</time>
</trkpt>
<trkpt lat="45.9333490" lon="9.5342690">
	<ele>1491.80</ele>
	<time>2023-10-07T10:55:49.000Z</time>
</trkpt>
<trkpt lat="45.9333490" lon="9.5342670">
	<ele>1491.80</ele>
	<time>2023-10-07T10:55:50.000Z</time>
</trkpt>
<trkpt lat="45.9333490" lon="9.5342660">
	<ele>1491.40</ele>
	<time>2023-10-07T10:55:51.000Z</time>
</trkpt>
<trkpt lat="45.9333490" lon="9.5342660">
	<ele>1491.20</ele>
	<time>2023-10-07T10:55:52.000Z</time>
</trkpt>
<trkpt lat="45.9333490" lon="9.5342650">
	<ele>1491.20</ele>
	<time>2023-10-07T10:55:53.000Z</time>
</trkpt>
<trkpt lat="45.9333490" lon="9.5342650">
	<ele>1491.20</ele>
	<time>2023-10-07T10:55:54.000Z</time>
</trkpt>
<trkpt lat="45.9333490" lon="9.5342650">
	<ele>1491.20</ele>
	<time>2023-10-07T10:55:55.000Z</time>
</trkpt>
<trkpt lat="45.9333500" lon="9.5342640">
	<ele>1491.20</ele>
	<time>2023-10-07T10:55:56.000Z</time>
</trkpt>
<trkpt lat="45.9333500" lon="9.5342640">
	<ele>1491.20</ele>
	<time>2023-10-07T10:55:57.000Z</time>
</trkpt>
<trkpt lat="45.9333500" lon="9.5342640">
	<ele>1491.20</ele>
	<time>2023-10-07T10:55:58.000Z</time>
</trkpt>
<trkpt lat="45.9333500" lon="9.5342640">
	<ele>1491.20</ele>
	<time>2023-10-07T10:55:59.000Z</time>
</trkpt>
<trkpt lat="45.9333500" lon="9.5342630">
	<ele>1491.20</ele>
	<time>2023-10-07T10:56:00.000Z</time>
</trkpt>
<trkpt lat="45.9333540" lon="9.5342620">
	<ele>1491.20</ele>
	<time>2023-10-07T10:56:01.000Z</time>
</trkpt>
<trkpt lat="45.9333620" lon="9.5342510">
	<ele>1491.20</ele>
	<time>2023-10-07T10:56:02.000Z</time>
</trkpt>
<trkpt lat="45.9333740" lon="9.5342460">
	<ele>1491.00</ele>
	<time>2023-10-07T10:56:03.000Z</time>
</trkpt>
<trkpt lat="45.9333880" lon="9.5342460">
	<ele>1491.00</ele>
	<time>2023-10-07T10:56:04.000Z</time>
</trkpt>
<trkpt lat="45.9334030" lon="9.5342520">
	<ele>1491.00</ele>
	<time>2023-10-07T10:56:05.000Z</time>
</trkpt>
<trkpt lat="45.9334180" lon="9.5342610">
	<ele>1490.80</ele>
	<time>2023-10-07T10:56:06.000Z</time>
</trkpt>
<trkpt lat="45.9334340" lon="9.5342700">
	<ele>1490.80</ele>
	<time>2023-10-07T10:56:07.000Z</time>
</trkpt>
<trkpt lat="45.9334510" lon="9.5342790">
	<ele>1490.60</ele>
	<time>2023-10-07T10:56:08.000Z</time>
</trkpt>
<trkpt lat="45.9334650" lon="9.5342880">
	<ele>1490.60</ele>
	<time>2023-10-07T10:56:09.000Z</time>
</trkpt>
<trkpt lat="45.9334780" lon="9.5342950">
	<ele>1490.60</ele>
	<time>2023-10-07T10:56:10.000Z</time>
</trkpt>
<trkpt lat="45.9334860" lon="9.5343020">
	<ele>1490.40</ele>
	<time>2023-10-07T10:56:11.000Z</time>
</trkpt>
<trkpt lat="45.9334940" lon="9.5343100">
	<ele>1490.40</ele>
	<time>2023-10-07T10:56:12.000Z</time>
</trkpt>
<trkpt lat="45.9335000" lon="9.5343190">
	<ele>1490.20</ele>
	<time>2023-10-07T10:56:13.000Z</time>
</trkpt>
<trkpt lat="45.9335030" lon="9.5343310">
	<ele>1490.20</ele>
	<time>2023-10-07T10:56:14.000Z</time>
</trkpt>
<trkpt lat="45.9335080" lon="9.5343410">
	<ele>1490.00</ele>
	<time>2023-10-07T10:56:15.000Z</time>
</trkpt>
<trkpt lat="45.9335200" lon="9.5343550">
	<ele>1490.00</ele>
	<time>2023-10-07T10:56:16.000Z</time>
</trkpt>
<trkpt lat="45.9335280" lon="9.5343620">
	<ele>1490.00</ele>
	<time>2023-10-07T10:56:17.000Z</time>
</trkpt>
<trkpt lat="45.9335350" lon="9.5343710">
	<ele>1490.00</ele>
	<time>2023-10-07T10:56:18.000Z</time>
</trkpt>
<trkpt lat="45.9335420" lon="9.5343800">
	<ele>1490.00</ele>
	<time>2023-10-07T10:56:19.000Z</time>
</trkpt>
<trkpt lat="45.9335510" lon="9.5343940">
	<ele>1490.20</ele>
	<time>2023-10-07T10:56:20.000Z</time>
</trkpt>
<trkpt lat="45.9335590" lon="9.5344090">
	<ele>1490.20</ele>
	<time>2023-10-07T10:56:21.000Z</time>
</trkpt>
<trkpt lat="45.9335680" lon="9.5344290">
	<ele>1490.20</ele>
	<time>2023-10-07T10:56:22.000Z</time>
</trkpt>
<trkpt lat="45.9335710" lon="9.5344410">
	<ele>1490.20</ele>
	<time>2023-10-07T10:56:23.000Z</time>
</trkpt>
<trkpt lat="45.9335750" lon="9.5344520">
	<ele>1490.40</ele>
	<time>2023-10-07T10:56:24.000Z</time>
</trkpt>
<trkpt lat="45.9335810" lon="9.5344650">
	<ele>1490.40</ele>
	<time>2023-10-07T10:56:25.000Z</time>
</trkpt>
<trkpt lat="45.9335880" lon="9.5344800">
	<ele>1490.40</ele>
	<time>2023-10-07T10:56:26.000Z</time>
</trkpt>
<trkpt lat="45.9335950" lon="9.5344940">
	<ele>1490.60</ele>
	<time>2023-10-07T10:56:27.000Z</time>
</trkpt>
<trkpt lat="45.9336040" lon="9.5345070">
	<ele>1490.80</ele>
	<time>2023-10-07T10:56:28.000Z</time>
</trkpt>
<trkpt lat="45.9336110" lon="9.5345180">
	<ele>1490.80</ele>
	<time>2023-10-07T10:56:29.000Z</time>
</trkpt>
<trkpt lat="45.9336190" lon="9.5345270">
	<ele>1490.80</ele>
	<time>2023-10-07T10:56:30.000Z</time>
</trkpt>
<trkpt lat="45.9336280" lon="9.5345380">
	<ele>1491.00</ele>
	<time>2023-10-07T10:56:31.000Z</time>
</trkpt>
<trkpt lat="45.9336370" lon="9.5345480">
	<ele>1491.00</ele>
	<time>2023-10-07T10:56:32.000Z</time>
</trkpt>
<trkpt lat="45.9336440" lon="9.5345620">
	<ele>1491.00</ele>
	<time>2023-10-07T10:56:33.000Z</time>
</trkpt>
<trkpt lat="45.9336490" lon="9.5345710">
	<ele>1491.00</ele>
	<time>2023-10-07T10:56:34.000Z</time>
</trkpt>
<trkpt lat="45.9336550" lon="9.5345790">
	<ele>1491.00</ele>
	<time>2023-10-07T10:56:35.000Z</time>
</trkpt>
<trkpt lat="45.9336570" lon="9.5345840">
	<ele>1491.00</ele>
	<time>2023-10-07T10:56:36.000Z</time>
</trkpt>
<trkpt lat="45.9336580" lon="9.5345860">
	<ele>1491.00</ele>
	<time>2023-10-07T10:56:37.000Z</time>
</trkpt>
<trkpt lat="45.9336600" lon="9.5345870">
	<ele>1491.00</ele>
	<time>2023-10-07T10:56:38.000Z</time>
</trkpt>
<trkpt lat="45.9336600" lon="9.5345870">
	<ele>1491.00</ele>
	<time>2023-10-07T10:56:39.000Z</time>
</trkpt>
<trkpt lat="45.9336590" lon="9.5345870">
	<ele>1490.80</ele>
	<time>2023-10-07T10:56:40.000Z</time>
</trkpt>
<trkpt lat="45.9336580" lon="9.5345880">
	<ele>1490.80</ele>
	<time>2023-10-07T10:56:41.000Z</time>
</trkpt>
<trkpt lat="45.9336560" lon="9.5345880">
	<ele>1490.80</ele>
	<time>2023-10-07T10:56:42.000Z</time>
</trkpt>
<trkpt lat="45.9336550" lon="9.5345890">
	<ele>1490.80</ele>
	<time>2023-10-07T10:56:43.000Z</time>
</trkpt>
<trkpt lat="45.9336550" lon="9.5345910">
	<ele>1491.00</ele>
	<time>2023-10-07T10:56:44.000Z</time>
</trkpt>
<trkpt lat="45.9336540" lon="9.5345900">
	<ele>1491.00</ele>
	<time>2023-10-07T10:56:45.000Z</time>
</trkpt>
<trkpt lat="45.9336570" lon="9.5345910">
	<ele>1491.00</ele>
	<time>2023-10-07T10:56:46.000Z</time>
</trkpt>
<trkpt lat="45.9336650" lon="9.5345950">
	<ele>1491.20</ele>
	<time>2023-10-07T10:56:47.000Z</time>
</trkpt>
<trkpt lat="45.9336740" lon="9.5345970">
	<ele>1491.20</ele>
	<time>2023-10-07T10:56:48.000Z</time>
</trkpt>
<trkpt lat="45.9336810" lon="9.5346010">
	<ele>1491.20</ele>
	<time>2023-10-07T10:56:49.000Z</time>
</trkpt>
<trkpt lat="45.9336880" lon="9.5346060">
	<ele>1491.00</ele>
	<time>2023-10-07T10:56:50.000Z</time>
</trkpt>
<trkpt lat="45.9336920" lon="9.5346110">
	<ele>1491.00</ele>
	<time>2023-10-07T10:56:51.000Z</time>
</trkpt>
<trkpt lat="45.9336980" lon="9.5346190">
	<ele>1491.00</ele>
	<time>2023-10-07T10:56:52.000Z</time>
</trkpt>
<trkpt lat="45.9337060" lon="9.5346300">
	<ele>1491.00</ele>
	<time>2023-10-07T10:56:53.000Z</time>
</trkpt>
<trkpt lat="45.9337120" lon="9.5346430">
	<ele>1491.00</ele>
	<time>2023-10-07T10:56:54.000Z</time>
</trkpt>
<trkpt lat="45.9337170" lon="9.5346520">
	<ele>1491.00</ele>
	<time>2023-10-07T10:56:55.000Z</time>
</trkpt>
<trkpt lat="45.9337220" lon="9.5346630">
	<ele>1491.00</ele>
	<time>2023-10-07T10:56:56.000Z</time>
</trkpt>
<trkpt lat="45.9337280" lon="9.5346750">
	<ele>1491.20</ele>
	<time>2023-10-07T10:56:57.000Z</time>
</trkpt>
<trkpt lat="45.9337350" lon="9.5346840">
	<ele>1491.40</ele>
	<time>2023-10-07T10:56:58.000Z</time>
</trkpt>
<trkpt lat="45.9337400" lon="9.5346890">
	<ele>1491.20</ele>
	<time>2023-10-07T10:56:59.000Z</time>
</trkpt>
<trkpt lat="45.9337470" lon="9.5346970">
	<ele>1491.20</ele>
	<time>2023-10-07T10:57:00.000Z</time>
</trkpt>
<trkpt lat="45.9337540" lon="9.5347040">
	<ele>1491.20</ele>
	<time>2023-10-07T10:57:01.000Z</time>
</trkpt>
<trkpt lat="45.9337620" lon="9.5347130">
	<ele>1491.20</ele>
	<time>2023-10-07T10:57:02.000Z</time>
</trkpt>
<trkpt lat="45.9337720" lon="9.5347230">
	<ele>1491.20</ele>
	<time>2023-10-07T10:57:03.000Z</time>
</trkpt>
<trkpt lat="45.9337800" lon="9.5347380">
	<ele>1491.20</ele>
	<time>2023-10-07T10:57:04.000Z</time>
</trkpt>
<trkpt lat="45.9337860" lon="9.5347550">
	<ele>1491.20</ele>
	<time>2023-10-07T10:57:05.000Z</time>
</trkpt>
<trkpt lat="45.9337900" lon="9.5347670">
	<ele>1491.20</ele>
	<time>2023-10-07T10:57:06.000Z</time>
</trkpt>
<trkpt lat="45.9337950" lon="9.5347760">
	<ele>1491.40</ele>
	<time>2023-10-07T10:57:07.000Z</time>
</trkpt>
<trkpt lat="45.9337990" lon="9.5347850">
	<ele>1491.40</ele>
	<time>2023-10-07T10:57:08.000Z</time>
</trkpt>
<trkpt lat="45.9338030" lon="9.5347930">
	<ele>1491.60</ele>
	<time>2023-10-07T10:57:09.000Z</time>
</trkpt>
<trkpt lat="45.9338080" lon="9.5348050">
	<ele>1491.60</ele>
	<time>2023-10-07T10:57:10.000Z</time>
</trkpt>
<trkpt lat="45.9338160" lon="9.5348200">
	<ele>1491.60</ele>
	<time>2023-10-07T10:57:11.000Z</time>
</trkpt>
<trkpt lat="45.9338300" lon="9.5348340">
	<ele>1491.60</ele>
	<time>2023-10-07T10:57:12.000Z</time>
</trkpt>
<trkpt lat="45.9338430" lon="9.5348520">
	<ele>1491.60</ele>
	<time>2023-10-07T10:57:13.000Z</time>
</trkpt>
<trkpt lat="45.9338490" lon="9.5348660">
	<ele>1491.60</ele>
	<time>2023-10-07T10:57:14.000Z</time>
</trkpt>
<trkpt lat="45.9338610" lon="9.5348700">
	<ele>1491.60</ele>
	<time>2023-10-07T10:57:15.000Z</time>
</trkpt>
<trkpt lat="45.9338650" lon="9.5348780">
	<ele>1491.60</ele>
	<time>2023-10-07T10:57:16.000Z</time>
</trkpt>
<trkpt lat="45.9338720" lon="9.5348890">
	<ele>1491.60</ele>
	<time>2023-10-07T10:57:17.000Z</time>
</trkpt>
<trkpt lat="45.9338780" lon="9.5348930">
	<ele>1491.40</ele>
	<time>2023-10-07T10:57:18.000Z</time>
</trkpt>
<trkpt lat="45.9338840" lon="9.5349070">
	<ele>1491.40</ele>
	<time>2023-10-07T10:57:19.000Z</time>
</trkpt>
<trkpt lat="45.9338890" lon="9.5349220">
	<ele>1491.40</ele>
	<time>2023-10-07T10:57:20.000Z</time>
</trkpt>
<trkpt lat="45.9338940" lon="9.5349370">
	<ele>1491.40</ele>
	<time>2023-10-07T10:57:21.000Z</time>
</trkpt>
<trkpt lat="45.9339010" lon="9.5349510">
	<ele>1491.40</ele>
	<time>2023-10-07T10:57:22.000Z</time>
</trkpt>
<trkpt lat="45.9339060" lon="9.5349590">
	<ele>1491.40</ele>
	<time>2023-10-07T10:57:23.000Z</time>
</trkpt>
<trkpt lat="45.9339100" lon="9.5349690">
	<ele>1491.40</ele>
	<time>2023-10-07T10:57:24.000Z</time>
</trkpt>
<trkpt lat="45.9339190" lon="9.5349860">
	<ele>1491.40</ele>
	<time>2023-10-07T10:57:25.000Z</time>
</trkpt>
<trkpt lat="45.9339250" lon="9.5349990">
	<ele>1491.40</ele>
	<time>2023-10-07T10:57:26.000Z</time>
</trkpt>
<trkpt lat="45.9339310" lon="9.5350130">
	<ele>1491.40</ele>
	<time>2023-10-07T10:57:27.000Z</time>
</trkpt>
<trkpt lat="45.9339360" lon="9.5350350">
	<ele>1491.20</ele>
	<time>2023-10-07T10:57:28.000Z</time>
</trkpt>
<trkpt lat="45.9339410" lon="9.5350530">
	<ele>1491.20</ele>
	<time>2023-10-07T10:57:29.000Z</time>
</trkpt>
<trkpt lat="45.9339440" lon="9.5350670">
	<ele>1491.00</ele>
	<time>2023-10-07T10:57:30.000Z</time>
</trkpt>
<trkpt lat="45.9339490" lon="9.5350750">
	<ele>1491.00</ele>
	<time>2023-10-07T10:57:31.000Z</time>
</trkpt>
<trkpt lat="45.9339530" lon="9.5350840">
	<ele>1491.00</ele>
	<time>2023-10-07T10:57:32.000Z</time>
</trkpt>
<trkpt lat="45.9339540" lon="9.5350920">
	<ele>1491.00</ele>
	<time>2023-10-07T10:57:33.000Z</time>
</trkpt>
<trkpt lat="45.9339580" lon="9.5350990">
	<ele>1491.00</ele>
	<time>2023-10-07T10:57:34.000Z</time>
</trkpt>
<trkpt lat="45.9339640" lon="9.5351030">
	<ele>1491.00</ele>
	<time>2023-10-07T10:57:35.000Z</time>
</trkpt>
<trkpt lat="45.9339670" lon="9.5351030">
	<ele>1491.00</ele>
	<time>2023-10-07T10:57:36.000Z</time>
</trkpt>
<trkpt lat="45.9339690" lon="9.5351020">
	<ele>1491.00</ele>
	<time>2023-10-07T10:57:37.000Z</time>
</trkpt>
<trkpt lat="45.9339690" lon="9.5351010">
	<ele>1491.20</ele>
	<time>2023-10-07T10:57:38.000Z</time>
</trkpt>
<trkpt lat="45.9339690" lon="9.5351010">
	<ele>1491.20</ele>
	<time>2023-10-07T10:57:39.000Z</time>
</trkpt>
<trkpt lat="45.9339690" lon="9.5351010">
	<ele>1491.20</ele>
	<time>2023-10-07T10:57:40.000Z</time>
</trkpt>
<trkpt lat="45.9339690" lon="9.5351000">
	<ele>1491.20</ele>
	<time>2023-10-07T10:57:41.000Z</time>
</trkpt>
<trkpt lat="45.9339720" lon="9.5351000">
	<ele>1491.20</ele>
	<time>2023-10-07T10:57:42.000Z</time>
</trkpt>
<trkpt lat="45.9339760" lon="9.5351000">
	<ele>1491.20</ele>
	<time>2023-10-07T10:57:43.000Z</time>
</trkpt>
<trkpt lat="45.9339800" lon="9.5351040">
	<ele>1490.80</ele>
	<time>2023-10-07T10:57:44.000Z</time>
</trkpt>
<trkpt lat="45.9339830" lon="9.5351100">
	<ele>1490.80</ele>
	<time>2023-10-07T10:57:45.000Z</time>
</trkpt>
<trkpt lat="45.9339870" lon="9.5351210">
	<ele>1490.60</ele>
	<time>2023-10-07T10:57:46.000Z</time>
</trkpt>
<trkpt lat="45.9339940" lon="9.5351380">
	<ele>1490.60</ele>
	<time>2023-10-07T10:57:47.000Z</time>
</trkpt>
<trkpt lat="45.9340000" lon="9.5351510">
	<ele>1490.60</ele>
	<time>2023-10-07T10:57:48.000Z</time>
</trkpt>
<trkpt lat="45.9340070" lon="9.5351620">
	<ele>1490.60</ele>
	<time>2023-10-07T10:57:49.000Z</time>
</trkpt>
<trkpt lat="45.9340140" lon="9.5351750">
	<ele>1490.60</ele>
	<time>2023-10-07T10:57:50.000Z</time>
</trkpt>
<trkpt lat="45.9340210" lon="9.5351880">
	<ele>1490.60</ele>
	<time>2023-10-07T10:57:51.000Z</time>
</trkpt>
<trkpt lat="45.9340270" lon="9.5352010">
	<ele>1490.40</ele>
	<time>2023-10-07T10:57:52.000Z</time>
</trkpt>
<trkpt lat="45.9340320" lon="9.5352170">
	<ele>1490.40</ele>
	<time>2023-10-07T10:57:53.000Z</time>
</trkpt>
<trkpt lat="45.9340370" lon="9.5352300">
	<ele>1490.20</ele>
	<time>2023-10-07T10:57:54.000Z</time>
</trkpt>
<trkpt lat="45.9340480" lon="9.5352470">
	<ele>1490.20</ele>
	<time>2023-10-07T10:57:55.000Z</time>
</trkpt>
<trkpt lat="45.9340590" lon="9.5352640">
	<ele>1490.20</ele>
	<time>2023-10-07T10:57:56.000Z</time>
</trkpt>
<trkpt lat="45.9340700" lon="9.5352830">
	<ele>1490.20</ele>
	<time>2023-10-07T10:57:57.000Z</time>
</trkpt>
<trkpt lat="45.9340790" lon="9.5352960">
	<ele>1490.40</ele>
	<time>2023-10-07T10:57:58.000Z</time>
</trkpt>
<trkpt lat="45.9340850" lon="9.5353070">
	<ele>1490.40</ele>
	<time>2023-10-07T10:57:59.000Z</time>
</trkpt>
<trkpt lat="45.9340880" lon="9.5353170">
	<ele>1490.40</ele>
	<time>2023-10-07T10:58:00.000Z</time>
</trkpt>
<trkpt lat="45.9340930" lon="9.5353250">
	<ele>1490.40</ele>
	<time>2023-10-07T10:58:01.000Z</time>
</trkpt>
<trkpt lat="45.9341010" lon="9.5353430">
	<ele>1490.40</ele>
	<time>2023-10-07T10:58:02.000Z</time>
</trkpt>
<trkpt lat="45.9341100" lon="9.5353610">
	<ele>1490.20</ele>
	<time>2023-10-07T10:58:03.000Z</time>
</trkpt>
<trkpt lat="45.9341180" lon="9.5353780">
	<ele>1490.20</ele>
	<time>2023-10-07T10:58:04.000Z</time>
</trkpt>
<trkpt lat="45.9341270" lon="9.5353950">
	<ele>1490.20</ele>
	<time>2023-10-07T10:58:05.000Z</time>
</trkpt>
<trkpt lat="45.9341360" lon="9.5354100">
	<ele>1490.20</ele>
	<time>2023-10-07T10:58:06.000Z</time>
</trkpt>
<trkpt lat="45.9341420" lon="9.5354240">
	<ele>1490.20</ele>
	<time>2023-10-07T10:58:07.000Z</time>
</trkpt>
<trkpt lat="45.9341490" lon="9.5354410">
	<ele>1490.20</ele>
	<time>2023-10-07T10:58:08.000Z</time>
</trkpt>
<trkpt lat="45.9341540" lon="9.5354500">
	<ele>1490.20</ele>
	<time>2023-10-07T10:58:09.000Z</time>
</trkpt>
<trkpt lat="45.9341570" lon="9.5354640">
	<ele>1490.20</ele>
	<time>2023-10-07T10:58:10.000Z</time>
</trkpt>
<trkpt lat="45.9341620" lon="9.5354780">
	<ele>1490.20</ele>
	<time>2023-10-07T10:58:11.000Z</time>
</trkpt>
<trkpt lat="45.9341650" lon="9.5354940">
	<ele>1490.20</ele>
	<time>2023-10-07T10:58:12.000Z</time>
</trkpt>
<trkpt lat="45.9341710" lon="9.5355090">
	<ele>1490.20</ele>
	<time>2023-10-07T10:58:13.000Z</time>
</trkpt>
<trkpt lat="45.9341770" lon="9.5355240">
	<ele>1490.20</ele>
	<time>2023-10-07T10:58:14.000Z</time>
</trkpt>
<trkpt lat="45.9341870" lon="9.5355390">
	<ele>1490.20</ele>
	<time>2023-10-07T10:58:15.000Z</time>
</trkpt>
<trkpt lat="45.9341950" lon="9.5355540">
	<ele>1490.20</ele>
	<time>2023-10-07T10:58:16.000Z</time>
</trkpt>
<trkpt lat="45.9342020" lon="9.5355710">
	<ele>1490.20</ele>
	<time>2023-10-07T10:58:17.000Z</time>
</trkpt>
<trkpt lat="45.9342080" lon="9.5355860">
	<ele>1490.20</ele>
	<time>2023-10-07T10:58:18.000Z</time>
</trkpt>
<trkpt lat="45.9342100" lon="9.5356000">
	<ele>1490.40</ele>
	<time>2023-10-07T10:58:19.000Z</time>
</trkpt>
<trkpt lat="45.9342120" lon="9.5356140">
	<ele>1490.40</ele>
	<time>2023-10-07T10:58:20.000Z</time>
</trkpt>
<trkpt lat="45.9342160" lon="9.5356280">
	<ele>1490.40</ele>
	<time>2023-10-07T10:58:21.000Z</time>
</trkpt>
<trkpt lat="45.9342200" lon="9.5356410">
	<ele>1490.40</ele>
	<time>2023-10-07T10:58:22.000Z</time>
</trkpt>
<trkpt lat="45.9342280" lon="9.5356580">
	<ele>1490.60</ele>
	<time>2023-10-07T10:58:23.000Z</time>
</trkpt>
<trkpt lat="45.9342360" lon="9.5356730">
	<ele>1490.60</ele>
	<time>2023-10-07T10:58:24.000Z</time>
</trkpt>
<trkpt lat="45.9342430" lon="9.5356910">
	<ele>1490.60</ele>
	<time>2023-10-07T10:58:25.000Z</time>
</trkpt>
<trkpt lat="45.9342490" lon="9.5357100">
	<ele>1490.80</ele>
	<time>2023-10-07T10:58:26.000Z</time>
</trkpt>
<trkpt lat="45.9342550" lon="9.5357250">
	<ele>1490.80</ele>
	<time>2023-10-07T10:58:27.000Z</time>
</trkpt>
<trkpt lat="45.9342580" lon="9.5357400">
	<ele>1490.80</ele>
	<time>2023-10-07T10:58:28.000Z</time>
</trkpt>
<trkpt lat="45.9342640" lon="9.5357550">
	<ele>1491.00</ele>
	<time>2023-10-07T10:58:29.000Z</time>
</trkpt>
<trkpt lat="45.9342660" lon="9.5357600">
	<ele>1491.20</ele>
	<time>2023-10-07T10:58:30.000Z</time>
</trkpt>
<trkpt lat="45.9342720" lon="9.5357740">
	<ele>1491.20</ele>
	<time>2023-10-07T10:58:31.000Z</time>
</trkpt>
<trkpt lat="45.9342770" lon="9.5357920">
	<ele>1491.40</ele>
	<time>2023-10-07T10:58:32.000Z</time>
</trkpt>
<trkpt lat="45.9342790" lon="9.5358040">
	<ele>1491.40</ele>
	<time>2023-10-07T10:58:33.000Z</time>
</trkpt>
<trkpt lat="45.9342810" lon="9.5358230">
	<ele>1491.60</ele>
	<time>2023-10-07T10:58:34.000Z</time>
</trkpt>
<trkpt lat="45.9342840" lon="9.5358390">
	<ele>1491.60</ele>
	<time>2023-10-07T10:58:35.000Z</time>
</trkpt>
<trkpt lat="45.9342860" lon="9.5358540">
	<ele>1491.80</ele>
	<time>2023-10-07T10:58:36.000Z</time>
</trkpt>
<trkpt lat="45.9342890" lon="9.5358680">
	<ele>1492.00</ele>
	<time>2023-10-07T10:58:37.000Z</time>
</trkpt>
<trkpt lat="45.9342900" lon="9.5358820">
	<ele>1492.00</ele>
	<time>2023-10-07T10:58:38.000Z</time>
</trkpt>
<trkpt lat="45.9342900" lon="9.5358930">
	<ele>1492.00</ele>
	<time>2023-10-07T10:58:39.000Z</time>
</trkpt>
<trkpt lat="45.9342920" lon="9.5359060">
	<ele>1492.20</ele>
	<time>2023-10-07T10:58:40.000Z</time>
</trkpt>
<trkpt lat="45.9342960" lon="9.5359210">
	<ele>1492.40</ele>
	<time>2023-10-07T10:58:41.000Z</time>
</trkpt>
<trkpt lat="45.9342970" lon="9.5359330">
	<ele>1492.60</ele>
	<time>2023-10-07T10:58:42.000Z</time>
</trkpt>
<trkpt lat="45.9343020" lon="9.5359450">
	<ele>1492.80</ele>
	<time>2023-10-07T10:58:43.000Z</time>
</trkpt>
<trkpt lat="45.9343100" lon="9.5359570">
	<ele>1493.00</ele>
	<time>2023-10-07T10:58:44.000Z</time>
</trkpt>
<trkpt lat="45.9343140" lon="9.5359670">
	<ele>1493.00</ele>
	<time>2023-10-07T10:58:45.000Z</time>
</trkpt>
<trkpt lat="45.9343190" lon="9.5359800">
	<ele>1493.20</ele>
	<time>2023-10-07T10:58:46.000Z</time>
</trkpt>
<trkpt lat="45.9343240" lon="9.5359900">
	<ele>1493.40</ele>
	<time>2023-10-07T10:58:47.000Z</time>
</trkpt>
<trkpt lat="45.9343290" lon="9.5360000">
	<ele>1493.60</ele>
	<time>2023-10-07T10:58:48.000Z</time>
</trkpt>
<trkpt lat="45.9343360" lon="9.5360100">
	<ele>1493.80</ele>
	<time>2023-10-07T10:58:49.000Z</time>
</trkpt>
<trkpt lat="45.9343420" lon="9.5360240">
	<ele>1494.00</ele>
	<time>2023-10-07T10:58:50.000Z</time>
</trkpt>
<trkpt lat="45.9343450" lon="9.5360330">
	<ele>1494.20</ele>
	<time>2023-10-07T10:58:51.000Z</time>
</trkpt>
<trkpt lat="45.9343530" lon="9.5360470">
	<ele>1494.20</ele>
	<time>2023-10-07T10:58:52.000Z</time>
</trkpt>
<trkpt lat="45.9343620" lon="9.5360630">
	<ele>1494.40</ele>
	<time>2023-10-07T10:58:53.000Z</time>
</trkpt>
<trkpt lat="45.9343630" lon="9.5360720">
	<ele>1494.40</ele>
	<time>2023-10-07T10:58:54.000Z</time>
</trkpt>
<trkpt lat="45.9343660" lon="9.5360880">
	<ele>1494.60</ele>
	<time>2023-10-07T10:58:55.000Z</time>
</trkpt>
<trkpt lat="45.9343710" lon="9.5361010">
	<ele>1494.80</ele>
	<time>2023-10-07T10:58:56.000Z</time>
</trkpt>
<trkpt lat="45.9343770" lon="9.5361170">
	<ele>1494.80</ele>
	<time>2023-10-07T10:58:57.000Z</time>
</trkpt>
<trkpt lat="45.9343790" lon="9.5361300">
	<ele>1495.00</ele>
	<time>2023-10-07T10:58:58.000Z</time>
</trkpt>
<trkpt lat="45.9343820" lon="9.5361430">
	<ele>1495.00</ele>
	<time>2023-10-07T10:58:59.000Z</time>
</trkpt>
<trkpt lat="45.9343880" lon="9.5361510">
	<ele>1495.20</ele>
	<time>2023-10-07T10:59:00.000Z</time>
</trkpt>
<trkpt lat="45.9343900" lon="9.5361610">
	<ele>1495.40</ele>
	<time>2023-10-07T10:59:01.000Z</time>
</trkpt>
<trkpt lat="45.9343930" lon="9.5361710">
	<ele>1495.60</ele>
	<time>2023-10-07T10:59:02.000Z</time>
</trkpt>
<trkpt lat="45.9343990" lon="9.5361860">
	<ele>1495.80</ele>
	<time>2023-10-07T10:59:03.000Z</time>
</trkpt>
<trkpt lat="45.9344000" lon="9.5361980">
	<ele>1496.00</ele>
	<time>2023-10-07T10:59:04.000Z</time>
</trkpt>
<trkpt lat="45.9344010" lon="9.5362060">
	<ele>1496.20</ele>
	<time>2023-10-07T10:59:05.000Z</time>
</trkpt>
<trkpt lat="45.9344040" lon="9.5362180">
	<ele>1496.40</ele>
	<time>2023-10-07T10:59:06.000Z</time>
</trkpt>
<trkpt lat="45.9344070" lon="9.5362310">
	<ele>1496.60</ele>
	<time>2023-10-07T10:59:07.000Z</time>
</trkpt>
<trkpt lat="45.9344100" lon="9.5362450">
	<ele>1496.60</ele>
	<time>2023-10-07T10:59:08.000Z</time>
</trkpt>
<trkpt lat="45.9344130" lon="9.5362570">
	<ele>1496.80</ele>
	<time>2023-10-07T10:59:09.000Z</time>
</trkpt>
<trkpt lat="45.9344130" lon="9.5362700">
	<ele>1496.80</ele>
	<time>2023-10-07T10:59:10.000Z</time>
</trkpt>
<trkpt lat="45.9344150" lon="9.5362830">
	<ele>1497.00</ele>
	<time>2023-10-07T10:59:11.000Z</time>
</trkpt>
<trkpt lat="45.9344180" lon="9.5362980">
	<ele>1497.20</ele>
	<time>2023-10-07T10:59:12.000Z</time>
</trkpt>
<trkpt lat="45.9344190" lon="9.5363100">
	<ele>1497.40</ele>
	<time>2023-10-07T10:59:13.000Z</time>
</trkpt>
<trkpt lat="45.9344230" lon="9.5363230">
	<ele>1497.60</ele>
	<time>2023-10-07T10:59:14.000Z</time>
</trkpt>
<trkpt lat="45.9344260" lon="9.5363390">
	<ele>1497.80</ele>
	<time>2023-10-07T10:59:15.000Z</time>
</trkpt>
<trkpt lat="45.9344290" lon="9.5363530">
	<ele>1498.00</ele>
	<time>2023-10-07T10:59:16.000Z</time>
</trkpt>
<trkpt lat="45.9344330" lon="9.5363680">
	<ele>1498.20</ele>
	<time>2023-10-07T10:59:17.000Z</time>
</trkpt>
<trkpt lat="45.9344390" lon="9.5363820">
	<ele>1498.40</ele>
	<time>2023-10-07T10:59:18.000Z</time>
</trkpt>
<trkpt lat="45.9344460" lon="9.5363940">
	<ele>1498.60</ele>
	<time>2023-10-07T10:59:19.000Z</time>
</trkpt>
<trkpt lat="45.9344550" lon="9.5364070">
	<ele>1498.60</ele>
	<time>2023-10-07T10:59:20.000Z</time>
</trkpt>
<trkpt lat="45.9344590" lon="9.5364180">
	<ele>1498.80</ele>
	<time>2023-10-07T10:59:21.000Z</time>
</trkpt>
<trkpt lat="45.9344670" lon="9.5364330">
	<ele>1499.00</ele>
	<time>2023-10-07T10:59:22.000Z</time>
</trkpt>
<trkpt lat="45.9344740" lon="9.5364480">
	<ele>1499.00</ele>
	<time>2023-10-07T10:59:23.000Z</time>
</trkpt>
<trkpt lat="45.9344780" lon="9.5364560">
	<ele>1499.20</ele>
	<time>2023-10-07T10:59:24.000Z</time>
</trkpt>
<trkpt lat="45.9344830" lon="9.5364690">
	<ele>1499.40</ele>
	<time>2023-10-07T10:59:25.000Z</time>
</trkpt>
<trkpt lat="45.9344870" lon="9.5364820">
	<ele>1499.40</ele>
	<time>2023-10-07T10:59:26.000Z</time>
</trkpt>
<trkpt lat="45.9344920" lon="9.5364940">
	<ele>1499.60</ele>
	<time>2023-10-07T10:59:27.000Z</time>
</trkpt>
<trkpt lat="45.9344980" lon="9.5365080">
	<ele>1499.80</ele>
	<time>2023-10-07T10:59:28.000Z</time>
</trkpt>
<trkpt lat="45.9345060" lon="9.5365210">
	<ele>1499.80</ele>
	<time>2023-10-07T10:59:29.000Z</time>
</trkpt>
<trkpt lat="45.9345110" lon="9.5365380">
	<ele>1500.00</ele>
	<time>2023-10-07T10:59:30.000Z</time>
</trkpt>
<trkpt lat="45.9345090" lon="9.5365530">
	<ele>1500.00</ele>
	<time>2023-10-07T10:59:31.000Z</time>
</trkpt>
<trkpt lat="45.9345120" lon="9.5365710">
	<ele>1500.00</ele>
	<time>2023-10-07T10:59:32.000Z</time>
</trkpt>
<trkpt lat="45.9345180" lon="9.5365900">
	<ele>1500.20</ele>
	<time>2023-10-07T10:59:33.000Z</time>
</trkpt>
<trkpt lat="45.9345210" lon="9.5366040">
	<ele>1500.20</ele>
	<time>2023-10-07T10:59:34.000Z</time>
</trkpt>
<trkpt lat="45.9345260" lon="9.5366210">
	<ele>1500.20</ele>
	<time>2023-10-07T10:59:35.000Z</time>
</trkpt>
<trkpt lat="45.9345290" lon="9.5366340">
	<ele>1500.20</ele>
	<time>2023-10-07T10:59:36.000Z</time>
</trkpt>
<trkpt lat="45.9345280" lon="9.5366430">
	<ele>1500.40</ele>
	<time>2023-10-07T10:59:37.000Z</time>
</trkpt>
<trkpt lat="45.9345270" lon="9.5366550">
	<ele>1500.40</ele>
	<time>2023-10-07T10:59:38.000Z</time>
</trkpt>
<trkpt lat="45.9345270" lon="9.5366650">
	<ele>1500.40</ele>
	<time>2023-10-07T10:59:39.000Z</time>
</trkpt>
<trkpt lat="45.9345320" lon="9.5366780">
	<ele>1500.60</ele>
	<time>2023-10-07T10:59:40.000Z</time>
</trkpt>
<trkpt lat="45.9345370" lon="9.5366930">
	<ele>1500.60</ele>
	<time>2023-10-07T10:59:41.000Z</time>
</trkpt>
<trkpt lat="45.9345380" lon="9.5367040">
	<ele>1500.60</ele>
	<time>2023-10-07T10:59:42.000Z</time>
</trkpt>
<trkpt lat="45.9345420" lon="9.5367190">
	<ele>1500.60</ele>
	<time>2023-10-07T10:59:43.000Z</time>
</trkpt>
<trkpt lat="45.9345430" lon="9.5367320">
	<ele>1500.80</ele>
	<time>2023-10-07T10:59:44.000Z</time>
</trkpt>
<trkpt lat="45.9345430" lon="9.5367420">
	<ele>1501.00</ele>
	<time>2023-10-07T10:59:45.000Z</time>
</trkpt>
<trkpt lat="45.9345470" lon="9.5367540">
	<ele>1501.20</ele>
	<time>2023-10-07T10:59:46.000Z</time>
</trkpt>
<trkpt lat="45.9345500" lon="9.5367620">
	<ele>1501.40</ele>
	<time>2023-10-07T10:59:47.000Z</time>
</trkpt>
<trkpt lat="45.9345550" lon="9.5367760">
	<ele>1501.60</ele>
	<time>2023-10-07T10:59:48.000Z</time>
</trkpt>
<trkpt lat="45.9345580" lon="9.5367890">
	<ele>1501.80</ele>
	<time>2023-10-07T10:59:49.000Z</time>
</trkpt>
<trkpt lat="45.9345640" lon="9.5367970">
	<ele>1502.00</ele>
	<time>2023-10-07T10:59:50.000Z</time>
</trkpt>
<trkpt lat="45.9345690" lon="9.5368080">
	<ele>1502.20</ele>
	<time>2023-10-07T10:59:51.000Z</time>
</trkpt>
<trkpt lat="45.9345790" lon="9.5368190">
	<ele>1502.40</ele>
	<time>2023-10-07T10:59:52.000Z</time>
</trkpt>
<trkpt lat="45.9345910" lon="9.5368290">
	<ele>1502.40</ele>
	<time>2023-10-07T10:59:53.000Z</time>
</trkpt>
<trkpt lat="45.9345970" lon="9.5368440">
	<ele>1502.60</ele>
	<time>2023-10-07T10:59:54.000Z</time>
</trkpt>
<trkpt lat="45.9346010" lon="9.5368560">
	<ele>1502.60</ele>
	<time>2023-10-07T10:59:55.000Z</time>
</trkpt>
<trkpt lat="45.9346000" lon="9.5368720">
	<ele>1502.80</ele>
	<time>2023-10-07T10:59:56.000Z</time>
</trkpt>
<trkpt lat="45.9345960" lon="9.5368860">
	<ele>1502.80</ele>
	<time>2023-10-07T10:59:57.000Z</time>
</trkpt>
<trkpt lat="45.9345950" lon="9.5368980">
	<ele>1503.00</ele>
	<time>2023-10-07T10:59:58.000Z</time>
</trkpt>
<trkpt lat="45.9345960" lon="9.5369130">
	<ele>1503.20</ele>
	<time>2023-10-07T10:59:59.000Z</time>
</trkpt>
<trkpt lat="45.9345960" lon="9.5369240">
	<ele>1503.20</ele>
	<time>2023-10-07T11:00:00.000Z</time>
</trkpt>
<trkpt lat="45.9345990" lon="9.5369380">
	<ele>1503.40</ele>
	<time>2023-10-07T11:00:01.000Z</time>
</trkpt>
<trkpt lat="45.9346010" lon="9.5369510">
	<ele>1503.40</ele>
	<time>2023-10-07T11:00:02.000Z</time>
</trkpt>
<trkpt lat="45.9346040" lon="9.5369620">
	<ele>1503.60</ele>
	<time>2023-10-07T11:00:03.000Z</time>
</trkpt>
<trkpt lat="45.9346070" lon="9.5369720">
	<ele>1503.60</ele>
	<time>2023-10-07T11:00:04.000Z</time>
</trkpt>
<trkpt lat="45.9346090" lon="9.5369790">
	<ele>1503.80</ele>
	<time>2023-10-07T11:00:05.000Z</time>
</trkpt>
<trkpt lat="45.9346110" lon="9.5369900">
	<ele>1503.80</ele>
	<time>2023-10-07T11:00:06.000Z</time>
</trkpt>
<trkpt lat="45.9346140" lon="9.5370000">
	<ele>1504.00</ele>
	<time>2023-10-07T11:00:07.000Z</time>
</trkpt>
<trkpt lat="45.9346170" lon="9.5370070">
	<ele>1504.00</ele>
	<time>2023-10-07T11:00:08.000Z</time>
</trkpt>
<trkpt lat="45.9346180" lon="9.5370190">
	<ele>1504.40</ele>
	<time>2023-10-07T11:00:09.000Z</time>
</trkpt>
<trkpt lat="45.9346220" lon="9.5370320">
	<ele>1504.60</ele>
	<time>2023-10-07T11:00:10.000Z</time>
</trkpt>
<trkpt lat="45.9346240" lon="9.5370410">
	<ele>1504.80</ele>
	<time>2023-10-07T11:00:11.000Z</time>
</trkpt>
<trkpt lat="45.9346250" lon="9.5370470">
	<ele>1505.20</ele>
	<time>2023-10-07T11:00:12.000Z</time>
</trkpt>
<trkpt lat="45.9346280" lon="9.5370570">
	<ele>1505.40</ele>
	<time>2023-10-07T11:00:13.000Z</time>
</trkpt>
<trkpt lat="45.9346280" lon="9.5370650">
	<ele>1505.60</ele>
	<time>2023-10-07T11:00:14.000Z</time>
</trkpt>
<trkpt lat="45.9346270" lon="9.5370730">
	<ele>1505.60</ele>
	<time>2023-10-07T11:00:15.000Z</time>
</trkpt>
<trkpt lat="45.9346290" lon="9.5370840">
	<ele>1506.00</ele>
	<time>2023-10-07T11:00:16.000Z</time>
</trkpt>
<trkpt lat="45.9346310" lon="9.5370920">
	<ele>1506.00</ele>
	<time>2023-10-07T11:00:17.000Z</time>
</trkpt>
<trkpt lat="45.9346360" lon="9.5371040">
	<ele>1506.20</ele>
	<time>2023-10-07T11:00:18.000Z</time>
</trkpt>
<trkpt lat="45.9346390" lon="9.5371130">
	<ele>1506.40</ele>
	<time>2023-10-07T11:00:19.000Z</time>
</trkpt>
<trkpt lat="45.9346390" lon="9.5371200">
	<ele>1506.40</ele>
	<time>2023-10-07T11:00:20.000Z</time>
</trkpt>
<trkpt lat="45.9346400" lon="9.5371320">
	<ele>1506.60</ele>
	<time>2023-10-07T11:00:21.000Z</time>
</trkpt>
<trkpt lat="45.9346430" lon="9.5371420">
	<ele>1507.00</ele>
	<time>2023-10-07T11:00:22.000Z</time>
</trkpt>
<trkpt lat="45.9346430" lon="9.5371480">
	<ele>1507.20</ele>
	<time>2023-10-07T11:00:23.000Z</time>
</trkpt>
<trkpt lat="45.9346460" lon="9.5371570">
	<ele>1507.40</ele>
	<time>2023-10-07T11:00:24.000Z</time>
</trkpt>
<trkpt lat="45.9346490" lon="9.5371690">
	<ele>1507.60</ele>
	<time>2023-10-07T11:00:25.000Z</time>
</trkpt>
<trkpt lat="45.9346500" lon="9.5371760">
	<ele>1507.80</ele>
	<time>2023-10-07T11:00:26.000Z</time>
</trkpt>
<trkpt lat="45.9346510" lon="9.5371870">
	<ele>1508.00</ele>
	<time>2023-10-07T11:00:27.000Z</time>
</trkpt>
<trkpt lat="45.9346490" lon="9.5371950">
	<ele>1508.20</ele>
	<time>2023-10-07T11:00:28.000Z</time>
</trkpt>
<trkpt lat="45.9346470" lon="9.5372040">
	<ele>1508.40</ele>
	<time>2023-10-07T11:00:29.000Z</time>
</trkpt>
<trkpt lat="45.9346470" lon="9.5372120">
	<ele>1508.80</ele>
	<time>2023-10-07T11:00:30.000Z</time>
</trkpt>
<trkpt lat="45.9346440" lon="9.5372220">
	<ele>1509.00</ele>
	<time>2023-10-07T11:00:31.000Z</time>
</trkpt>
<trkpt lat="45.9346440" lon="9.5372320">
	<ele>1509.20</ele>
	<time>2023-10-07T11:00:32.000Z</time>
</trkpt>
<trkpt lat="45.9346440" lon="9.5372410">
	<ele>1509.40</ele>
	<time>2023-10-07T11:00:33.000Z</time>
</trkpt>
<trkpt lat="45.9346420" lon="9.5372490">
	<ele>1509.60</ele>
	<time>2023-10-07T11:00:34.000Z</time>
</trkpt>
<trkpt lat="45.9346400" lon="9.5372600">
	<ele>1509.80</ele>
	<time>2023-10-07T11:00:35.000Z</time>
</trkpt>
<trkpt lat="45.9346380" lon="9.5372670">
	<ele>1510.00</ele>
	<time>2023-10-07T11:00:36.000Z</time>
</trkpt>
<trkpt lat="45.9346360" lon="9.5372740">
	<ele>1510.20</ele>
	<time>2023-10-07T11:00:37.000Z</time>
</trkpt>
<trkpt lat="45.9346290" lon="9.5372800">
	<ele>1510.40</ele>
	<time>2023-10-07T11:00:38.000Z</time>
</trkpt>
<trkpt lat="45.9346210" lon="9.5372880">
	<ele>1510.60</ele>
	<time>2023-10-07T11:00:39.000Z</time>
</trkpt>
<trkpt lat="45.9346120" lon="9.5372930">
	<ele>1510.80</ele>
	<time>2023-10-07T11:00:40.000Z</time>
</trkpt>
<trkpt lat="45.9346030" lon="9.5372970">
	<ele>1511.00</ele>
	<time>2023-10-07T11:00:41.000Z</time>
</trkpt>
<trkpt lat="45.9345980" lon="9.5372980">
	<ele>1511.20</ele>
	<time>2023-10-07T11:00:42.000Z</time>
</trkpt>
<trkpt lat="45.9345900" lon="9.5372990">
	<ele>1511.20</ele>
	<time>2023-10-07T11:00:43.000Z</time>
</trkpt>
<trkpt lat="45.9345870" lon="9.5373000">
	<ele>1511.40</ele>
	<time>2023-10-07T11:00:44.000Z</time>
</trkpt>
<trkpt lat="45.9345870" lon="9.5373000">
	<ele>1511.40</ele>
	<time>2023-10-07T11:00:45.000Z</time>
</trkpt>
<trkpt lat="45.9345870" lon="9.5373000">
	<ele>1511.60</ele>
	<time>2023-10-07T11:00:46.000Z</time>
</trkpt>
<trkpt lat="45.9345870" lon="9.5373000">
	<ele>1511.60</ele>
	<time>2023-10-07T11:00:47.000Z</time>
</trkpt>
<trkpt lat="45.9345870" lon="9.5373000">
	<ele>1511.80</ele>
	<time>2023-10-07T11:00:48.000Z</time>
</trkpt>
<trkpt lat="45.9345860" lon="9.5373000">
	<ele>1511.80</ele>
	<time>2023-10-07T11:00:49.000Z</time>
</trkpt>
<trkpt lat="45.9345850" lon="9.5373000">
	<ele>1511.80</ele>
	<time>2023-10-07T11:00:50.000Z</time>
</trkpt>
<trkpt lat="45.9345850" lon="9.5372990">
	<ele>1511.80</ele>
	<time>2023-10-07T11:00:51.000Z</time>
</trkpt>
<trkpt lat="45.9345850" lon="9.5372970">
	<ele>1511.80</ele>
	<time>2023-10-07T11:00:52.000Z</time>
</trkpt>
<trkpt lat="45.9345870" lon="9.5372960">
	<ele>1511.60</ele>
	<time>2023-10-07T11:00:53.000Z</time>
</trkpt>
<trkpt lat="45.9345880" lon="9.5372950">
	<ele>1511.60</ele>
	<time>2023-10-07T11:00:54.000Z</time>
</trkpt>
<trkpt lat="45.9345870" lon="9.5372930">
	<ele>1511.60</ele>
	<time>2023-10-07T11:00:55.000Z</time>
</trkpt>
<trkpt lat="45.9345870" lon="9.5372910">
	<ele>1511.60</ele>
	<time>2023-10-07T11:00:56.000Z</time>
</trkpt>
<trkpt lat="45.9345860" lon="9.5372910">
	<ele>1511.60</ele>
	<time>2023-10-07T11:00:57.000Z</time>
</trkpt>
<trkpt lat="45.9345850" lon="9.5372900">
	<ele>1511.60</ele>
	<time>2023-10-07T11:00:58.000Z</time>
</trkpt>
<trkpt lat="45.9345840" lon="9.5372880">
	<ele>1511.60</ele>
	<time>2023-10-07T11:00:59.000Z</time>
</trkpt>
<trkpt lat="45.9345840" lon="9.5372840">
	<ele>1511.60</ele>
	<time>2023-10-07T11:01:00.000Z</time>
</trkpt>
<trkpt lat="45.9345830" lon="9.5372790">
	<ele>1511.80</ele>
	<time>2023-10-07T11:01:01.000Z</time>
</trkpt>
<trkpt lat="45.9345840" lon="9.5372800">
	<ele>1511.80</ele>
	<time>2023-10-07T11:01:02.000Z</time>
</trkpt>
<trkpt lat="45.9345860" lon="9.5372800">
	<ele>1511.80</ele>
	<time>2023-10-07T11:01:03.000Z</time>
</trkpt>
<trkpt lat="45.9345860" lon="9.5372810">
	<ele>1511.60</ele>
	<time>2023-10-07T11:01:04.000Z</time>
</trkpt>
<trkpt lat="45.9345850" lon="9.5372820">
	<ele>1511.60</ele>
	<time>2023-10-07T11:01:05.000Z</time>
</trkpt>
<trkpt lat="45.9345840" lon="9.5372820">
	<ele>1511.60</ele>
	<time>2023-10-07T11:01:06.000Z</time>
</trkpt>
<trkpt lat="45.9345830" lon="9.5372830">
	<ele>1511.60</ele>
	<time>2023-10-07T11:01:07.000Z</time>
</trkpt>
<trkpt lat="45.9345810" lon="9.5372850">
	<ele>1511.60</ele>
	<time>2023-10-07T11:01:08.000Z</time>
</trkpt>
<trkpt lat="45.9345810" lon="9.5372850">
	<ele>1511.60</ele>
	<time>2023-10-07T11:01:09.000Z</time>
</trkpt>
<trkpt lat="45.9345800" lon="9.5372860">
	<ele>1511.60</ele>
	<time>2023-10-07T11:01:10.000Z</time>
</trkpt>
<trkpt lat="45.9345800" lon="9.5372860">
	<ele>1511.60</ele>
	<time>2023-10-07T11:01:11.000Z</time>
</trkpt>
<trkpt lat="45.9345830" lon="9.5372910">
	<ele>1511.60</ele>
	<time>2023-10-07T11:01:12.000Z</time>
</trkpt>
<trkpt lat="45.9345840" lon="9.5372950">
	<ele>1511.60</ele>
	<time>2023-10-07T11:01:13.000Z</time>
</trkpt>
<trkpt lat="45.9345840" lon="9.5372980">
	<ele>1511.80</ele>
	<time>2023-10-07T11:01:14.000Z</time>
</trkpt>
<trkpt lat="45.9345850" lon="9.5372980">
	<ele>1511.80</ele>
	<time>2023-10-07T11:01:15.000Z</time>
</trkpt>
<trkpt lat="45.9345850" lon="9.5372980">
	<ele>1511.80</ele>
	<time>2023-10-07T11:01:16.000Z</time>
</trkpt>
<trkpt lat="45.9345850" lon="9.5372980">
	<ele>1511.80</ele>
	<time>2023-10-07T11:01:17.000Z</time>
</trkpt>
<trkpt lat="45.9345850" lon="9.5372980">
	<ele>1511.80</ele>
	<time>2023-10-07T11:01:18.000Z</time>
</trkpt>
<trkpt lat="45.9345850" lon="9.5372980">
	<ele>1511.80</ele>
	<time>2023-10-07T11:01:19.000Z</time>
</trkpt>
<trkpt lat="45.9345850" lon="9.5372980">
	<ele>1511.80</ele>
	<time>2023-10-07T11:01:20.000Z</time>
</trkpt>
<trkpt lat="45.9345850" lon="9.5372980">
	<ele>1511.80</ele>
	<time>2023-10-07T11:01:21.000Z</time>
</trkpt>
<trkpt lat="45.9345850" lon="9.5372980">
	<ele>1511.80</ele>
	<time>2023-10-07T11:01:22.000Z</time>
</trkpt>
<trkpt lat="45.9345840" lon="9.5372980">
	<ele>1511.80</ele>
	<time>2023-10-07T11:01:23.000Z</time>
</trkpt>
<trkpt lat="45.9345840" lon="9.5372980">
	<ele>1511.80</ele>
	<time>2023-10-07T11:01:24.000Z</time>
</trkpt>
<trkpt lat="45.9345840" lon="9.5372980">
	<ele>1511.80</ele>
	<time>2023-10-07T11:01:25.000Z</time>
</trkpt>
<trkpt lat="45.9345830" lon="9.5372980">
	<ele>1511.80</ele>
	<time>2023-10-07T11:01:26.000Z</time>
</trkpt>
<trkpt lat="45.9345830" lon="9.5372980">
	<ele>1511.80</ele>
	<time>2023-10-07T11:01:27.000Z</time>
</trkpt>
<trkpt lat="45.9345830" lon="9.5372970">
	<ele>1511.80</ele>
	<time>2023-10-07T11:01:28.000Z</time>
</trkpt>
<trkpt lat="45.9345810" lon="9.5372970">
	<ele>1511.80</ele>
	<time>2023-10-07T11:01:29.000Z</time>
</trkpt>
<trkpt lat="45.9345810" lon="9.5372970">
	<ele>1511.80</ele>
	<time>2023-10-07T11:01:30.000Z</time>
</trkpt>
<trkpt lat="45.9345800" lon="9.5372960">
	<ele>1511.60</ele>
	<time>2023-10-07T11:01:31.000Z</time>
</trkpt>
<trkpt lat="45.9345800" lon="9.5372960">
	<ele>1511.60</ele>
	<time>2023-10-07T11:01:32.000Z</time>
</trkpt>
<trkpt lat="45.9345800" lon="9.5372960">
	<ele>1511.60</ele>
	<time>2023-10-07T11:01:33.000Z</time>
</trkpt>
<trkpt lat="45.9345800" lon="9.5372950">
	<ele>1511.60</ele>
	<time>2023-10-07T11:01:34.000Z</time>
</trkpt>
<trkpt lat="45.9345800" lon="9.5372950">
	<ele>1511.60</ele>
	<time>2023-10-07T11:01:35.000Z</time>
</trkpt>
<trkpt lat="45.9345800" lon="9.5372940">
	<ele>1511.40</ele>
	<time>2023-10-07T11:01:36.000Z</time>
</trkpt>
<trkpt lat="45.9345800" lon="9.5372940">
	<ele>1511.40</ele>
	<time>2023-10-07T11:01:37.000Z</time>
</trkpt>
<trkpt lat="45.9345800" lon="9.5372940">
	<ele>1511.40</ele>
	<time>2023-10-07T11:01:38.000Z</time>
</trkpt>
<trkpt lat="45.9345800" lon="9.5372940">
	<ele>1511.40</ele>
	<time>2023-10-07T11:01:39.000Z</time>
</trkpt>
<trkpt lat="45.9345800" lon="9.5372940">
	<ele>1511.40</ele>
	<time>2023-10-07T11:01:40.000Z</time>
</trkpt>
<trkpt lat="45.9345800" lon="9.5372940">
	<ele>1511.40</ele>
	<time>2023-10-07T11:01:41.000Z</time>
</trkpt>
<trkpt lat="45.9345800" lon="9.5372940">
	<ele>1511.60</ele>
	<time>2023-10-07T11:01:42.000Z</time>
</trkpt>
<trkpt lat="45.9345800" lon="9.5372940">
	<ele>1511.80</ele>
	<time>2023-10-07T11:01:43.000Z</time>
</trkpt>
<trkpt lat="45.9345800" lon="9.5372940">
	<ele>1511.80</ele>
	<time>2023-10-07T11:01:44.000Z</time>
</trkpt>
<trkpt lat="45.9345800" lon="9.5372940">
	<ele>1511.80</ele>
	<time>2023-10-07T11:01:45.000Z</time>
</trkpt>
<trkpt lat="45.9345800" lon="9.5372910">
	<ele>1511.80</ele>
	<time>2023-10-07T11:01:46.000Z</time>
</trkpt>
<trkpt lat="45.9345800" lon="9.5372900">
	<ele>1511.80</ele>
	<time>2023-10-07T11:01:47.000Z</time>
</trkpt>
<trkpt lat="45.9345810" lon="9.5372890">
	<ele>1511.80</ele>
	<time>2023-10-07T11:01:48.000Z</time>
</trkpt>
<trkpt lat="45.9345820" lon="9.5372870">
	<ele>1511.80</ele>
	<time>2023-10-07T11:01:49.000Z</time>
</trkpt>
<trkpt lat="45.9345820" lon="9.5372850">
	<ele>1511.80</ele>
	<time>2023-10-07T11:01:50.000Z</time>
</trkpt>
<trkpt lat="45.9345820" lon="9.5372840">
	<ele>1511.80</ele>
	<time>2023-10-07T11:01:51.000Z</time>
</trkpt>
<trkpt lat="45.9345820" lon="9.5372820">
	<ele>1511.80</ele>
	<time>2023-10-07T11:01:52.000Z</time>
</trkpt>
<trkpt lat="45.9345820" lon="9.5372810">
	<ele>1511.60</ele>
	<time>2023-10-07T11:01:53.000Z</time>
</trkpt>
<trkpt lat="45.9345820" lon="9.5372810">
	<ele>1511.60</ele>
	<time>2023-10-07T11:01:54.000Z</time>
</trkpt>
<trkpt lat="45.9345820" lon="9.5372800">
	<ele>1511.60</ele>
	<time>2023-10-07T11:01:55.000Z</time>
</trkpt>
<trkpt lat="45.9345820" lon="9.5372800">
	<ele>1511.60</ele>
	<time>2023-10-07T11:01:56.000Z</time>
</trkpt>
<trkpt lat="45.9345820" lon="9.5372800">
	<ele>1511.60</ele>
	<time>2023-10-07T11:01:57.000Z</time>
</trkpt>
<trkpt lat="45.9345820" lon="9.5372800">
	<ele>1511.40</ele>
	<time>2023-10-07T11:01:58.000Z</time>
</trkpt>
<trkpt lat="45.9345820" lon="9.5372800">
	<ele>1511.40</ele>
	<time>2023-10-07T11:01:59.000Z</time>
</trkpt>
<trkpt lat="45.9345820" lon="9.5372800">
	<ele>1511.40</ele>
	<time>2023-10-07T11:02:00.000Z</time>
</trkpt>
<trkpt lat="45.9345820" lon="9.5372800">
	<ele>1511.40</ele>
	<time>2023-10-07T11:02:01.000Z</time>
</trkpt>
<trkpt lat="45.9345820" lon="9.5372800">
	<ele>1511.40</ele>
	<time>2023-10-07T11:02:02.000Z</time>
</trkpt>
<trkpt lat="45.9345820" lon="9.5372800">
	<ele>1511.40</ele>
	<time>2023-10-07T11:02:03.000Z</time>
</trkpt>
<trkpt lat="45.9345810" lon="9.5372800">
	<ele>1511.40</ele>
	<time>2023-10-07T11:02:04.000Z</time>
</trkpt>
<trkpt lat="45.9345810" lon="9.5372800">
	<ele>1511.40</ele>
	<time>2023-10-07T11:02:05.000Z</time>
</trkpt>
<trkpt lat="45.9345810" lon="9.5372800">
	<ele>1511.40</ele>
	<time>2023-10-07T11:02:06.000Z</time>
</trkpt>
<trkpt lat="45.9345810" lon="9.5372800">
	<ele>1511.20</ele>
	<time>2023-10-07T11:02:07.000Z</time>
</trkpt>
<trkpt lat="45.9345800" lon="9.5372800">
	<ele>1511.20</ele>
	<time>2023-10-07T11:02:08.000Z</time>
</trkpt>
<trkpt lat="45.9345800" lon="9.5372800">
	<ele>1511.20</ele>
	<time>2023-10-07T11:02:09.000Z</time>
</trkpt>
<trkpt lat="45.9345800" lon="9.5372800">
	<ele>1511.20</ele>
	<time>2023-10-07T11:02:10.000Z</time>
</trkpt>
<trkpt lat="45.9345800" lon="9.5372800">
	<ele>1511.20</ele>
	<time>2023-10-07T11:02:11.000Z</time>
</trkpt>
<trkpt lat="45.9345800" lon="9.5372810">
	<ele>1511.20</ele>
	<time>2023-10-07T11:02:12.000Z</time>
</trkpt>
<trkpt lat="45.9345800" lon="9.5372810">
	<ele>1511.20</ele>
	<time>2023-10-07T11:02:13.000Z</time>
</trkpt>
<trkpt lat="45.9345800" lon="9.5372810">
	<ele>1511.40</ele>
	<time>2023-10-07T11:02:14.000Z</time>
</trkpt>
<trkpt lat="45.9345800" lon="9.5372810">
	<ele>1511.40</ele>
	<time>2023-10-07T11:02:15.000Z</time>
</trkpt>
<trkpt lat="45.9345800" lon="9.5372810">
	<ele>1511.40</ele>
	<time>2023-10-07T11:02:16.000Z</time>
</trkpt>
<trkpt lat="45.9345790" lon="9.5372810">
	<ele>1511.40</ele>
	<time>2023-10-07T11:02:17.000Z</time>
</trkpt>
<trkpt lat="45.9345790" lon="9.5372810">
	<ele>1511.40</ele>
	<time>2023-10-07T11:02:18.000Z</time>
</trkpt>
<trkpt lat="45.9345780" lon="9.5372800">
	<ele>1511.40</ele>
	<time>2023-10-07T11:02:19.000Z</time>
</trkpt>
<trkpt lat="45.9345780" lon="9.5372800">
	<ele>1511.40</ele>
	<time>2023-10-07T11:02:20.000Z</time>
</trkpt>
<trkpt lat="45.9345780" lon="9.5372800">
	<ele>1511.40</ele>
	<time>2023-10-07T11:02:21.000Z</time>
</trkpt>
<trkpt lat="45.9345780" lon="9.5372800">
	<ele>1511.40</ele>
	<time>2023-10-07T11:02:22.000Z</time>
</trkpt>
<trkpt lat="45.9345780" lon="9.5372800">
	<ele>1511.40</ele>
	<time>2023-10-07T11:02:23.000Z</time>
</trkpt>
<trkpt lat="45.9345780" lon="9.5372800">
	<ele>1511.40</ele>
	<time>2023-10-07T11:02:24.000Z</time>
</trkpt>
<trkpt lat="45.9345780" lon="9.5372800">
	<ele>1511.40</ele>
	<time>2023-10-07T11:02:25.000Z</time>
</trkpt>
<trkpt lat="45.9345790" lon="9.5372800">
	<ele>1511.40</ele>
	<time>2023-10-07T11:02:26.000Z</time>
</trkpt>
<trkpt lat="45.9345790" lon="9.5372800">
	<ele>1511.40</ele>
	<time>2023-10-07T11:02:27.000Z</time>
</trkpt>
<trkpt lat="45.9345790" lon="9.5372770">
	<ele>1511.40</ele>
	<time>2023-10-07T11:02:28.000Z</time>
</trkpt>
<trkpt lat="45.9345790" lon="9.5372750">
	<ele>1511.40</ele>
	<time>2023-10-07T11:02:29.000Z</time>
</trkpt>
<trkpt lat="45.9345790" lon="9.5372730">
	<ele>1511.20</ele>
	<time>2023-10-07T11:02:30.000Z</time>
</trkpt>
<trkpt lat="45.9345790" lon="9.5372710">
	<ele>1511.20</ele>
	<time>2023-10-07T11:02:31.000Z</time>
</trkpt>
<trkpt lat="45.9345790" lon="9.5372690">
	<ele>1511.20</ele>
	<time>2023-10-07T11:02:32.000Z</time>
</trkpt>
<trkpt lat="45.9345790" lon="9.5372680">
	<ele>1511.20</ele>
	<time>2023-10-07T11:02:33.000Z</time>
</trkpt>
<trkpt lat="45.9345780" lon="9.5372670">
	<ele>1511.40</ele>
	<time>2023-10-07T11:02:34.000Z</time>
</trkpt>
<trkpt lat="45.9345780" lon="9.5372670">
	<ele>1511.20</ele>
	<time>2023-10-07T11:02:35.000Z</time>
</trkpt>
<trkpt lat="45.9345770" lon="9.5372670">
	<ele>1511.20</ele>
	<time>2023-10-07T11:02:36.000Z</time>
</trkpt>
<trkpt lat="45.9345770" lon="9.5372660">
	<ele>1511.40</ele>
	<time>2023-10-07T11:02:37.000Z</time>
</trkpt>
<trkpt lat="45.9345770" lon="9.5372660">
	<ele>1511.40</ele>
	<time>2023-10-07T11:02:38.000Z</time>
</trkpt>
<trkpt lat="45.9345770" lon="9.5372660">
	<ele>1511.40</ele>
	<time>2023-10-07T11:02:39.000Z</time>
</trkpt>
<trkpt lat="45.9345760" lon="9.5372660">
	<ele>1511.40</ele>
	<time>2023-10-07T11:02:40.000Z</time>
</trkpt>
<trkpt lat="45.9345760" lon="9.5372660">
	<ele>1511.40</ele>
	<time>2023-10-07T11:02:41.000Z</time>
</trkpt>
<trkpt lat="45.9345760" lon="9.5372660">
	<ele>1511.40</ele>
	<time>2023-10-07T11:02:42.000Z</time>
</trkpt>
<trkpt lat="45.9345760" lon="9.5372660">
	<ele>1511.40</ele>
	<time>2023-10-07T11:02:43.000Z</time>
</trkpt>
<trkpt lat="45.9345750" lon="9.5372650">
	<ele>1511.20</ele>
	<time>2023-10-07T11:02:44.000Z</time>
</trkpt>
<trkpt lat="45.9345750" lon="9.5372650">
	<ele>1511.20</ele>
	<time>2023-10-07T11:02:45.000Z</time>
</trkpt>
<trkpt lat="45.9345750" lon="9.5372650">
	<ele>1511.20</ele>
	<time>2023-10-07T11:02:46.000Z</time>
</trkpt>
<trkpt lat="45.9345740" lon="9.5372650">
	<ele>1511.20</ele>
	<time>2023-10-07T11:02:47.000Z</time>
</trkpt>
<trkpt lat="45.9345740" lon="9.5372650">
	<ele>1511.20</ele>
	<time>2023-10-07T11:02:48.000Z</time>
</trkpt>
<trkpt lat="45.9345740" lon="9.5372650">
	<ele>1511.20</ele>
	<time>2023-10-07T11:02:49.000Z</time>
</trkpt>
<trkpt lat="45.9345740" lon="9.5372650">
	<ele>1511.40</ele>
	<time>2023-10-07T11:02:50.000Z</time>
</trkpt>
<trkpt lat="45.9345740" lon="9.5372650">
	<ele>1511.20</ele>
	<time>2023-10-07T11:02:51.000Z</time>
</trkpt>
<trkpt lat="45.9345740" lon="9.5372650">
	<ele>1511.20</ele>
	<time>2023-10-07T11:02:52.000Z</time>
</trkpt>
<trkpt lat="45.9345730" lon="9.5372650">
	<ele>1511.20</ele>
	<time>2023-10-07T11:02:53.000Z</time>
</trkpt>
<trkpt lat="45.9345730" lon="9.5372650">
	<ele>1511.20</ele>
	<time>2023-10-07T11:02:54.000Z</time>
</trkpt>
<trkpt lat="45.9345730" lon="9.5372650">
	<ele>1511.20</ele>
	<time>2023-10-07T11:02:55.000Z</time>
</trkpt>
<trkpt lat="45.9345730" lon="9.5372650">
	<ele>1511.20</ele>
	<time>2023-10-07T11:02:56.000Z</time>
</trkpt>
<trkpt lat="45.9345730" lon="9.5372650">
	<ele>1511.20</ele>
	<time>2023-10-07T11:02:57.000Z</time>
</trkpt>
<trkpt lat="45.9345730" lon="9.5372650">
	<ele>1511.20</ele>
	<time>2023-10-07T11:02:58.000Z</time>
</trkpt>
<trkpt lat="45.9345730" lon="9.5372650">
	<ele>1511.20</ele>
	<time>2023-10-07T11:02:59.000Z</time>
</trkpt>
<trkpt lat="45.9345730" lon="9.5372660">
	<ele>1511.40</ele>
	<time>2023-10-07T11:03:00.000Z</time>
</trkpt>
<trkpt lat="45.9345730" lon="9.5372660">
	<ele>1511.40</ele>
	<time>2023-10-07T11:03:01.000Z</time>
</trkpt>
<trkpt lat="45.9345700" lon="9.5372680">
	<ele>1511.60</ele>
	<time>2023-10-07T11:03:02.000Z</time>
</trkpt>
<trkpt lat="45.9345590" lon="9.5372710">
	<ele>1511.60</ele>
	<time>2023-10-07T11:03:03.000Z</time>
</trkpt>
<trkpt lat="45.9345480" lon="9.5372770">
	<ele>1511.80</ele>
	<time>2023-10-07T11:03:04.000Z</time>
</trkpt>
<trkpt lat="45.9345380" lon="9.5372820">
	<ele>1511.80</ele>
	<time>2023-10-07T11:03:05.000Z</time>
</trkpt>
<trkpt lat="45.9345240" lon="9.5372890">
	<ele>1512.00</ele>
	<time>2023-10-07T11:03:06.000Z</time>
</trkpt>
<trkpt lat="45.9345070" lon="9.5372920">
	<ele>1512.00</ele>
	<time>2023-10-07T11:03:07.000Z</time>
</trkpt>
<trkpt lat="45.9344940" lon="9.5372960">
	<ele>1512.20</ele>
	<time>2023-10-07T11:03:08.000Z</time>
</trkpt>
<trkpt lat="45.9344830" lon="9.5373050">
	<ele>1512.20</ele>
	<time>2023-10-07T11:03:09.000Z</time>
</trkpt>
<trkpt lat="45.9344710" lon="9.5373130">
	<ele>1512.20</ele>
	<time>2023-10-07T11:03:10.000Z</time>
</trkpt>
<trkpt lat="45.9344600" lon="9.5373230">
	<ele>1512.40</ele>
	<time>2023-10-07T11:03:11.000Z</time>
</trkpt>
<trkpt lat="45.9344520" lon="9.5373300">
	<ele>1512.40</ele>
	<time>2023-10-07T11:03:12.000Z</time>
</trkpt>
<trkpt lat="45.9344450" lon="9.5373380">
	<ele>1512.60</ele>
	<time>2023-10-07T11:03:13.000Z</time>
</trkpt>
<trkpt lat="45.9344400" lon="9.5373540">
	<ele>1512.80</ele>
	<time>2023-10-07T11:03:14.000Z</time>
</trkpt>
<trkpt lat="45.9344340" lon="9.5373690">
	<ele>1512.80</ele>
	<time>2023-10-07T11:03:15.000Z</time>
</trkpt>
<trkpt lat="45.9344280" lon="9.5373810">
	<ele>1512.80</ele>
	<time>2023-10-07T11:03:16.000Z</time>
</trkpt>
<trkpt lat="45.9344230" lon="9.5373940">
	<ele>1513.00</ele>
	<time>2023-10-07T11:03:17.000Z</time>
</trkpt>
<trkpt lat="45.9344210" lon="9.5374080">
	<ele>1513.00</ele>
	<time>2023-10-07T11:03:18.000Z</time>
</trkpt>
<trkpt lat="45.9344160" lon="9.5374210">
	<ele>1513.00</ele>
	<time>2023-10-07T11:03:19.000Z</time>
</trkpt>
<trkpt lat="45.9344120" lon="9.5374320">
	<ele>1513.20</ele>
	<time>2023-10-07T11:03:20.000Z</time>
</trkpt>
<trkpt lat="45.9344070" lon="9.5374460">
	<ele>1513.20</ele>
	<time>2023-10-07T11:03:21.000Z</time>
</trkpt>
<trkpt lat="45.9344020" lon="9.5374580">
	<ele>1513.20</ele>
	<time>2023-10-07T11:03:22.000Z</time>
</trkpt>
<trkpt lat="45.9343970" lon="9.5374710">
	<ele>1513.20</ele>
	<time>2023-10-07T11:03:23.000Z</time>
</trkpt>
<trkpt lat="45.9343920" lon="9.5374830">
	<ele>1513.20</ele>
	<time>2023-10-07T11:03:24.000Z</time>
</trkpt>
<trkpt lat="45.9343880" lon="9.5374950">
	<ele>1513.40</ele>
	<time>2023-10-07T11:03:25.000Z</time>
</trkpt>
<trkpt lat="45.9343830" lon="9.5375090">
	<ele>1513.40</ele>
	<time>2023-10-07T11:03:26.000Z</time>
</trkpt>
<trkpt lat="45.9343770" lon="9.5375220">
	<ele>1513.60</ele>
	<time>2023-10-07T11:03:27.000Z</time>
</trkpt>
<trkpt lat="45.9343710" lon="9.5375340">
	<ele>1513.60</ele>
	<time>2023-10-07T11:03:28.000Z</time>
</trkpt>
<trkpt lat="45.9343650" lon="9.5375460">
	<ele>1513.80</ele>
	<time>2023-10-07T11:03:29.000Z</time>
</trkpt>
<trkpt lat="45.9343590" lon="9.5375590">
	<ele>1513.80</ele>
	<time>2023-10-07T11:03:30.000Z</time>
</trkpt>
<trkpt lat="45.9343560" lon="9.5375770">
	<ele>1514.00</ele>
	<time>2023-10-07T11:03:31.000Z</time>
</trkpt>
<trkpt lat="45.9343540" lon="9.5375940">
	<ele>1514.00</ele>
	<time>2023-10-07T11:03:32.000Z</time>
</trkpt>
<trkpt lat="45.9343530" lon="9.5376030">
	<ele>1514.20</ele>
	<time>2023-10-07T11:03:33.000Z</time>
</trkpt>
<trkpt lat="45.9343510" lon="9.5376120">
	<ele>1514.20</ele>
	<time>2023-10-07T11:03:34.000Z</time>
</trkpt>
<trkpt lat="45.9343500" lon="9.5376250">
	<ele>1514.40</ele>
	<time>2023-10-07T11:03:35.000Z</time>
</trkpt>
<trkpt lat="45.9343520" lon="9.5376360">
	<ele>1514.40</ele>
	<time>2023-10-07T11:03:36.000Z</time>
</trkpt>
<trkpt lat="45.9343510" lon="9.5376520">
	<ele>1514.80</ele>
	<time>2023-10-07T11:03:37.000Z</time>
</trkpt>
<trkpt lat="45.9343510" lon="9.5376640">
	<ele>1514.80</ele>
	<time>2023-10-07T11:03:38.000Z</time>
</trkpt>
<trkpt lat="45.9343520" lon="9.5376820">
	<ele>1515.00</ele>
	<time>2023-10-07T11:03:39.000Z</time>
</trkpt>
<trkpt lat="45.9343530" lon="9.5376970">
	<ele>1515.20</ele>
	<time>2023-10-07T11:03:40.000Z</time>
</trkpt>
<trkpt lat="45.9343500" lon="9.5377100">
	<ele>1515.60</ele>
	<time>2023-10-07T11:03:41.000Z</time>
</trkpt>
<trkpt lat="45.9343490" lon="9.5377220">
	<ele>1515.80</ele>
	<time>2023-10-07T11:03:42.000Z</time>
</trkpt>
<trkpt lat="45.9343500" lon="9.5377350">
	<ele>1515.80</ele>
	<time>2023-10-07T11:03:43.000Z</time>
</trkpt>
<trkpt lat="45.9343490" lon="9.5377460">
	<ele>1516.00</ele>
	<time>2023-10-07T11:03:44.000Z</time>
</trkpt>
<trkpt lat="45.9343480" lon="9.5377620">
	<ele>1516.20</ele>
	<time>2023-10-07T11:03:45.000Z</time>
</trkpt>
<trkpt lat="45.9343480" lon="9.5377720">
	<ele>1516.20</ele>
	<time>2023-10-07T11:03:46.000Z</time>
</trkpt>
<trkpt lat="45.9343460" lon="9.5377850">
	<ele>1516.20</ele>
	<time>2023-10-07T11:03:47.000Z</time>
</trkpt>
<trkpt lat="45.9343470" lon="9.5377970">
	<ele>1516.40</ele>
	<time>2023-10-07T11:03:48.000Z</time>
</trkpt>
<trkpt lat="45.9343490" lon="9.5378100">
	<ele>1516.40</ele>
	<time>2023-10-07T11:03:49.000Z</time>
</trkpt>
<trkpt lat="45.9343500" lon="9.5378260">
	<ele>1516.40</ele>
	<time>2023-10-07T11:03:50.000Z</time>
</trkpt>
<trkpt lat="45.9343490" lon="9.5378410">
	<ele>1516.40</ele>
	<time>2023-10-07T11:03:51.000Z</time>
</trkpt>
<trkpt lat="45.9343480" lon="9.5378580">
	<ele>1516.40</ele>
	<time>2023-10-07T11:03:52.000Z</time>
</trkpt>
<trkpt lat="45.9343500" lon="9.5378730">
	<ele>1516.60</ele>
	<time>2023-10-07T11:03:53.000Z</time>
</trkpt>
<trkpt lat="45.9343490" lon="9.5378870">
	<ele>1516.80</ele>
	<time>2023-10-07T11:03:54.000Z</time>
</trkpt>
<trkpt lat="45.9343470" lon="9.5378980">
	<ele>1516.80</ele>
	<time>2023-10-07T11:03:55.000Z</time>
</trkpt>
<trkpt lat="45.9343470" lon="9.5379090">
	<ele>1517.00</ele>
	<time>2023-10-07T11:03:56.000Z</time>
</trkpt>
<trkpt lat="45.9343420" lon="9.5379270">
	<ele>1517.20</ele>
	<time>2023-10-07T11:03:57.000Z</time>
</trkpt>
<trkpt lat="45.9343390" lon="9.5379380">
	<ele>1517.40</ele>
	<time>2023-10-07T11:03:58.000Z</time>
</trkpt>
<trkpt lat="45.9343330" lon="9.5379520">
	<ele>1517.40</ele>
	<time>2023-10-07T11:03:59.000Z</time>
</trkpt>
<trkpt lat="45.9343290" lon="9.5379670">
	<ele>1517.60</ele>
	<time>2023-10-07T11:04:00.000Z</time>
</trkpt>
<trkpt lat="45.9343210" lon="9.5379830">
	<ele>1517.60</ele>
	<time>2023-10-07T11:04:01.000Z</time>
</trkpt>
<trkpt lat="45.9343140" lon="9.5379970">
	<ele>1517.60</ele>
	<time>2023-10-07T11:04:02.000Z</time>
</trkpt>
<trkpt lat="45.9343110" lon="9.5380090">
	<ele>1517.80</ele>
	<time>2023-10-07T11:04:03.000Z</time>
</trkpt>
<trkpt lat="45.9343120" lon="9.5380220">
	<ele>1517.80</ele>
	<time>2023-10-07T11:04:04.000Z</time>
</trkpt>
<trkpt lat="45.9343140" lon="9.5380320">
	<ele>1518.00</ele>
	<time>2023-10-07T11:04:05.000Z</time>
</trkpt>
<trkpt lat="45.9343110" lon="9.5380380">
	<ele>1518.00</ele>
	<time>2023-10-07T11:04:06.000Z</time>
</trkpt>
<trkpt lat="45.9343110" lon="9.5380480">
	<ele>1518.00</ele>
	<time>2023-10-07T11:04:07.000Z</time>
</trkpt>
<trkpt lat="45.9343110" lon="9.5380520">
	<ele>1518.20</ele>
	<time>2023-10-07T11:04:08.000Z</time>
</trkpt>
<trkpt lat="45.9343110" lon="9.5380550">
	<ele>1518.40</ele>
	<time>2023-10-07T11:04:09.000Z</time>
</trkpt>
<trkpt lat="45.9343100" lon="9.5380560">
	<ele>1518.60</ele>
	<time>2023-10-07T11:04:10.000Z</time>
</trkpt>
<trkpt lat="45.9343090" lon="9.5380560">
	<ele>1518.60</ele>
	<time>2023-10-07T11:04:11.000Z</time>
</trkpt>
<trkpt lat="45.9343070" lon="9.5380570">
	<ele>1518.80</ele>
	<time>2023-10-07T11:04:12.000Z</time>
</trkpt>
<trkpt lat="45.9343080" lon="9.5380590">
	<ele>1518.80</ele>
	<time>2023-10-07T11:04:13.000Z</time>
</trkpt>
<trkpt lat="45.9343090" lon="9.5380630">
	<ele>1518.80</ele>
	<time>2023-10-07T11:04:14.000Z</time>
</trkpt>
<trkpt lat="45.9343110" lon="9.5380700">
	<ele>1519.00</ele>
	<time>2023-10-07T11:04:15.000Z</time>
</trkpt>
<trkpt lat="45.9343080" lon="9.5380760">
	<ele>1519.00</ele>
	<time>2023-10-07T11:04:16.000Z</time>
</trkpt>
<trkpt lat="45.9343060" lon="9.5380810">
	<ele>1519.00</ele>
	<time>2023-10-07T11:04:17.000Z</time>
</trkpt>
<trkpt lat="45.9343040" lon="9.5380910">
	<ele>1519.00</ele>
	<time>2023-10-07T11:04:18.000Z</time>
</trkpt>
<trkpt lat="45.9343030" lon="9.5380990">
	<ele>1519.00</ele>
	<time>2023-10-07T11:04:19.000Z</time>
</trkpt>
<trkpt lat="45.9342960" lon="9.5381120">
	<ele>1519.00</ele>
	<time>2023-10-07T11:04:20.000Z</time>
</trkpt>
<trkpt lat="45.9342890" lon="9.5381220">
	<ele>1519.20</ele>
	<time>2023-10-07T11:04:21.000Z</time>
</trkpt>
<trkpt lat="45.9342790" lon="9.5381320">
	<ele>1519.20</ele>
	<time>2023-10-07T11:04:22.000Z</time>
</trkpt>
<trkpt lat="45.9342720" lon="9.5381420">
	<ele>1519.60</ele>
	<time>2023-10-07T11:04:23.000Z</time>
</trkpt>
<trkpt lat="45.9342660" lon="9.5381500">
	<ele>1519.60</ele>
	<time>2023-10-07T11:04:24.000Z</time>
</trkpt>
<trkpt lat="45.9342610" lon="9.5381550">
	<ele>1519.80</ele>
	<time>2023-10-07T11:04:25.000Z</time>
</trkpt>
<trkpt lat="45.9342550" lon="9.5381610">
	<ele>1519.80</ele>
	<time>2023-10-07T11:04:26.000Z</time>
</trkpt>
<trkpt lat="45.9342490" lon="9.5381660">
	<ele>1520.20</ele>
	<time>2023-10-07T11:04:27.000Z</time>
</trkpt>
<trkpt lat="45.9342430" lon="9.5381720">
	<ele>1520.40</ele>
	<time>2023-10-07T11:04:28.000Z</time>
</trkpt>
<trkpt lat="45.9342360" lon="9.5381800">
	<ele>1520.60</ele>
	<time>2023-10-07T11:04:29.000Z</time>
</trkpt>
<trkpt lat="45.9342310" lon="9.5381840">
	<ele>1521.00</ele>
	<time>2023-10-07T11:04:30.000Z</time>
</trkpt>
<trkpt lat="45.9342270" lon="9.5381910">
	<ele>1521.40</ele>
	<time>2023-10-07T11:04:31.000Z</time>
</trkpt>
<trkpt lat="45.9342220" lon="9.5381990">
	<ele>1521.60</ele>
	<time>2023-10-07T11:04:32.000Z</time>
</trkpt>
<trkpt lat="45.9342160" lon="9.5382080">
	<ele>1521.80</ele>
	<time>2023-10-07T11:04:33.000Z</time>
</trkpt>
<trkpt lat="45.9342090" lon="9.5382150">
	<ele>1522.00</ele>
	<time>2023-10-07T11:04:34.000Z</time>
</trkpt>
<trkpt lat="45.9342030" lon="9.5382240">
	<ele>1522.20</ele>
	<time>2023-10-07T11:04:35.000Z</time>
</trkpt>
<trkpt lat="45.9341980" lon="9.5382300">
	<ele>1522.40</ele>
	<time>2023-10-07T11:04:36.000Z</time>
</trkpt>
<trkpt lat="45.9341930" lon="9.5382360">
	<ele>1522.60</ele>
	<time>2023-10-07T11:04:37.000Z</time>
</trkpt>
<trkpt lat="45.9341850" lon="9.5382450">
	<ele>1522.60</ele>
	<time>2023-10-07T11:04:38.000Z</time>
</trkpt>
<trkpt lat="45.9341770" lon="9.5382560">
	<ele>1522.80</ele>
	<time>2023-10-07T11:04:39.000Z</time>
</trkpt>
<trkpt lat="45.9341700" lon="9.5382670">
	<ele>1522.80</ele>
	<time>2023-10-07T11:04:40.000Z</time>
</trkpt>
<trkpt lat="45.9341630" lon="9.5382730">
	<ele>1523.20</ele>
	<time>2023-10-07T11:04:41.000Z</time>
</trkpt>
<trkpt lat="45.9341560" lon="9.5382810">
	<ele>1523.40</ele>
	<time>2023-10-07T11:04:42.000Z</time>
</trkpt>
<trkpt lat="45.9341500" lon="9.5382860">
	<ele>1523.40</ele>
	<time>2023-10-07T11:04:43.000Z</time>
</trkpt>
<trkpt lat="45.9341440" lon="9.5382930">
	<ele>1523.80</ele>
	<time>2023-10-07T11:04:44.000Z</time>
</trkpt>
<trkpt lat="45.9341370" lon="9.5382980">
	<ele>1523.80</ele>
	<time>2023-10-07T11:04:45.000Z</time>
</trkpt>
<trkpt lat="45.9341310" lon="9.5383060">
	<ele>1524.00</ele>
	<time>2023-10-07T11:04:46.000Z</time>
</trkpt>
<trkpt lat="45.9341250" lon="9.5383180">
	<ele>1524.20</ele>
	<time>2023-10-07T11:04:47.000Z</time>
</trkpt>
<trkpt lat="45.9341200" lon="9.5383270">
	<ele>1524.40</ele>
	<time>2023-10-07T11:04:48.000Z</time>
</trkpt>
<trkpt lat="45.9341140" lon="9.5383350">
	<ele>1524.40</ele>
	<time>2023-10-07T11:04:49.000Z</time>
</trkpt>
<trkpt lat="45.9341080" lon="9.5383420">
	<ele>1524.60</ele>
	<time>2023-10-07T11:04:50.000Z</time>
</trkpt>
<trkpt lat="45.9341000" lon="9.5383490">
	<ele>1524.80</ele>
	<time>2023-10-07T11:04:51.000Z</time>
</trkpt>
<trkpt lat="45.9340920" lon="9.5383580">
	<ele>1525.00</ele>
	<time>2023-10-07T11:04:52.000Z</time>
</trkpt>
<trkpt lat="45.9340850" lon="9.5383670">
	<ele>1525.20</ele>
	<time>2023-10-07T11:04:53.000Z</time>
</trkpt>
<trkpt lat="45.9340790" lon="9.5383760">
	<ele>1525.20</ele>
	<time>2023-10-07T11:04:54.000Z</time>
</trkpt>
<trkpt lat="45.9340710" lon="9.5383820">
	<ele>1525.60</ele>
	<time>2023-10-07T11:04:55.000Z</time>
</trkpt>
<trkpt lat="45.9340660" lon="9.5383900">
	<ele>1525.80</ele>
	<time>2023-10-07T11:04:56.000Z</time>
</trkpt>
<trkpt lat="45.9340620" lon="9.5384010">
	<ele>1526.00</ele>
	<time>2023-10-07T11:04:57.000Z</time>
</trkpt>
<trkpt lat="45.9340590" lon="9.5384120">
	<ele>1526.20</ele>
	<time>2023-10-07T11:04:58.000Z</time>
</trkpt>
<trkpt lat="45.9340550" lon="9.5384240">
	<ele>1526.40</ele>
	<time>2023-10-07T11:04:59.000Z</time>
</trkpt>
<trkpt lat="45.9340510" lon="9.5384340">
	<ele>1526.40</ele>
	<time>2023-10-07T11:05:00.000Z</time>
</trkpt>
<trkpt lat="45.9340450" lon="9.5384470">
	<ele>1526.60</ele>
	<time>2023-10-07T11:05:01.000Z</time>
</trkpt>
<trkpt lat="45.9340410" lon="9.5384620">
	<ele>1526.80</ele>
	<time>2023-10-07T11:05:02.000Z</time>
</trkpt>
<trkpt lat="45.9340400" lon="9.5384750">
	<ele>1527.20</ele>
	<time>2023-10-07T11:05:03.000Z</time>
</trkpt>
<trkpt lat="45.9340380" lon="9.5384820">
	<ele>1527.40</ele>
	<time>2023-10-07T11:05:04.000Z</time>
</trkpt>
<trkpt lat="45.9340350" lon="9.5384900">
	<ele>1527.60</ele>
	<time>2023-10-07T11:05:05.000Z</time>
</trkpt>
<trkpt lat="45.9340310" lon="9.5384970">
	<ele>1527.60</ele>
	<time>2023-10-07T11:05:06.000Z</time>
</trkpt>
<trkpt lat="45.9340270" lon="9.5385080">
	<ele>1527.80</ele>
	<time>2023-10-07T11:05:07.000Z</time>
</trkpt>
<trkpt lat="45.9340240" lon="9.5385150">
	<ele>1528.00</ele>
	<time>2023-10-07T11:05:08.000Z</time>
</trkpt>
<trkpt lat="45.9340170" lon="9.5385210">
	<ele>1528.00</ele>
	<time>2023-10-07T11:05:09.000Z</time>
</trkpt>
<trkpt lat="45.9340120" lon="9.5385300">
	<ele>1528.40</ele>
	<time>2023-10-07T11:05:10.000Z</time>
</trkpt>
<trkpt lat="45.9340100" lon="9.5385400">
	<ele>1528.40</ele>
	<time>2023-10-07T11:05:11.000Z</time>
</trkpt>
<trkpt lat="45.9340100" lon="9.5385520">
	<ele>1528.60</ele>
	<time>2023-10-07T11:05:12.000Z</time>
</trkpt>
<trkpt lat="45.9340100" lon="9.5385660">
	<ele>1528.80</ele>
	<time>2023-10-07T11:05:13.000Z</time>
</trkpt>
<trkpt lat="45.9340090" lon="9.5385750">
	<ele>1528.80</ele>
	<time>2023-10-07T11:05:14.000Z</time>
</trkpt>
<trkpt lat="45.9340120" lon="9.5385870">
	<ele>1529.20</ele>
	<time>2023-10-07T11:05:15.000Z</time>
</trkpt>
<trkpt lat="45.9340140" lon="9.5385990">
	<ele>1529.20</ele>
	<time>2023-10-07T11:05:16.000Z</time>
</trkpt>
<trkpt lat="45.9340140" lon="9.5386070">
	<ele>1529.40</ele>
	<time>2023-10-07T11:05:17.000Z</time>
</trkpt>
<trkpt lat="45.9340150" lon="9.5386210">
	<ele>1529.80</ele>
	<time>2023-10-07T11:05:18.000Z</time>
</trkpt>
<trkpt lat="45.9340140" lon="9.5386320">
	<ele>1530.00</ele>
	<time>2023-10-07T11:05:19.000Z</time>
</trkpt>
<trkpt lat="45.9340130" lon="9.5386410">
	<ele>1530.20</ele>
	<time>2023-10-07T11:05:20.000Z</time>
</trkpt>
<trkpt lat="45.9340110" lon="9.5386530">
	<ele>1530.40</ele>
	<time>2023-10-07T11:05:21.000Z</time>
</trkpt>
<trkpt lat="45.9340120" lon="9.5386680">
	<ele>1530.60</ele>
	<time>2023-10-07T11:05:22.000Z</time>
</trkpt>
<trkpt lat="45.9340100" lon="9.5386830">
	<ele>1530.80</ele>
	<time>2023-10-07T11:05:23.000Z</time>
</trkpt>
<trkpt lat="45.9340090" lon="9.5386920">
	<ele>1531.00</ele>
	<time>2023-10-07T11:05:24.000Z</time>
</trkpt>
<trkpt lat="45.9340050" lon="9.5387050">
	<ele>1531.20</ele>
	<time>2023-10-07T11:05:25.000Z</time>
</trkpt>
<trkpt lat="45.9340010" lon="9.5387130">
	<ele>1531.40</ele>
	<time>2023-10-07T11:05:26.000Z</time>
</trkpt>
<trkpt lat="45.9339980" lon="9.5387210">
	<ele>1531.60</ele>
	<time>2023-10-07T11:05:27.000Z</time>
</trkpt>
<trkpt lat="45.9339940" lon="9.5387290">
	<ele>1531.80</ele>
	<time>2023-10-07T11:05:28.000Z</time>
</trkpt>
<trkpt lat="45.9339920" lon="9.5387410">
	<ele>1531.80</ele>
	<time>2023-10-07T11:05:29.000Z</time>
</trkpt>
<trkpt lat="45.9339890" lon="9.5387540">
	<ele>1532.00</ele>
	<time>2023-10-07T11:05:30.000Z</time>
</trkpt>
<trkpt lat="45.9339870" lon="9.5387660">
	<ele>1532.00</ele>
	<time>2023-10-07T11:05:31.000Z</time>
</trkpt>
<trkpt lat="45.9339820" lon="9.5387760">
	<ele>1532.20</ele>
	<time>2023-10-07T11:05:32.000Z</time>
</trkpt>
<trkpt lat="45.9339770" lon="9.5387860">
	<ele>1532.20</ele>
	<time>2023-10-07T11:05:33.000Z</time>
</trkpt>
<trkpt lat="45.9339730" lon="9.5387930">
	<ele>1532.20</ele>
	<time>2023-10-07T11:05:34.000Z</time>
</trkpt>
<trkpt lat="45.9339680" lon="9.5388010">
	<ele>1532.60</ele>
	<time>2023-10-07T11:05:35.000Z</time>
</trkpt>
<trkpt lat="45.9339660" lon="9.5388100">
	<ele>1532.60</ele>
	<time>2023-10-07T11:05:36.000Z</time>
</trkpt>
<trkpt lat="45.9339640" lon="9.5388200">
	<ele>1532.80</ele>
	<time>2023-10-07T11:05:37.000Z</time>
</trkpt>
<trkpt lat="45.9339600" lon="9.5388310">
	<ele>1533.00</ele>
	<time>2023-10-07T11:05:38.000Z</time>
</trkpt>
<trkpt lat="45.9339600" lon="9.5388400">
	<ele>1533.20</ele>
	<time>2023-10-07T11:05:39.000Z</time>
</trkpt>
<trkpt lat="45.9339610" lon="9.5388490">
	<ele>1533.40</ele>
	<time>2023-10-07T11:05:40.000Z</time>
</trkpt>
<trkpt lat="45.9339590" lon="9.5388600">
	<ele>1533.40</ele>
	<time>2023-10-07T11:05:41.000Z</time>
</trkpt>
<trkpt lat="45.9339570" lon="9.5388690">
	<ele>1533.40</ele>
	<time>2023-10-07T11:05:42.000Z</time>
</trkpt>
<trkpt lat="45.9339520" lon="9.5388810">
	<ele>1533.40</ele>
	<time>2023-10-07T11:05:43.000Z</time>
</trkpt>
<trkpt lat="45.9339470" lon="9.5388910">
	<ele>1533.60</ele>
	<time>2023-10-07T11:05:44.000Z</time>
</trkpt>
<trkpt lat="45.9339440" lon="9.5389020">
	<ele>1533.80</ele>
	<time>2023-10-07T11:05:45.000Z</time>
</trkpt>
<trkpt lat="45.9339400" lon="9.5389180">
	<ele>1534.00</ele>
	<time>2023-10-07T11:05:46.000Z</time>
</trkpt>
<trkpt lat="45.9339350" lon="9.5389300">
	<ele>1534.00</ele>
	<time>2023-10-07T11:05:47.000Z</time>
</trkpt>
<trkpt lat="45.9339330" lon="9.5389390">
	<ele>1534.20</ele>
	<time>2023-10-07T11:05:48.000Z</time>
</trkpt>
<trkpt lat="45.9339320" lon="9.5389510">
	<ele>1534.20</ele>
	<time>2023-10-07T11:05:49.000Z</time>
</trkpt>
<trkpt lat="45.9339290" lon="9.5389620">
	<ele>1534.40</ele>
	<time>2023-10-07T11:05:50.000Z</time>
</trkpt>
<trkpt lat="45.9339250" lon="9.5389720">
	<ele>1534.60</ele>
	<time>2023-10-07T11:05:51.000Z</time>
</trkpt>
<trkpt lat="45.9339210" lon="9.5389860">
	<ele>1534.60</ele>
	<time>2023-10-07T11:05:52.000Z</time>
</trkpt>
<trkpt lat="45.9339200" lon="9.5389970">
	<ele>1534.80</ele>
	<time>2023-10-07T11:05:53.000Z</time>
</trkpt>
<trkpt lat="45.9339180" lon="9.5390140">
	<ele>1535.20</ele>
	<time>2023-10-07T11:05:54.000Z</time>
</trkpt>
<trkpt lat="45.9339170" lon="9.5390260">
	<ele>1535.20</ele>
	<time>2023-10-07T11:05:55.000Z</time>
</trkpt>
<trkpt lat="45.9339140" lon="9.5390370">
	<ele>1535.40</ele>
	<time>2023-10-07T11:05:56.000Z</time>
</trkpt>
<trkpt lat="45.9339120" lon="9.5390530">
	<ele>1535.60</ele>
	<time>2023-10-07T11:05:57.000Z</time>
</trkpt>
<trkpt lat="45.9339100" lon="9.5390670">
	<ele>1535.60</ele>
	<time>2023-10-07T11:05:58.000Z</time>
</trkpt>
<trkpt lat="45.9339100" lon="9.5390810">
	<ele>1535.80</ele>
	<time>2023-10-07T11:05:59.000Z</time>
</trkpt>
<trkpt lat="45.9339100" lon="9.5390950">
	<ele>1535.80</ele>
	<time>2023-10-07T11:06:00.000Z</time>
</trkpt>
<trkpt lat="45.9339090" lon="9.5391110">
	<ele>1535.80</ele>
	<time>2023-10-07T11:06:01.000Z</time>
</trkpt>
<trkpt lat="45.9339090" lon="9.5391240">
	<ele>1536.00</ele>
	<time>2023-10-07T11:06:02.000Z</time>
</trkpt>
<trkpt lat="45.9339080" lon="9.5391390">
	<ele>1536.00</ele>
	<time>2023-10-07T11:06:03.000Z</time>
</trkpt>
<trkpt lat="45.9339060" lon="9.5391500">
	<ele>1536.20</ele>
	<time>2023-10-07T11:06:04.000Z</time>
</trkpt>
<trkpt lat="45.9339070" lon="9.5391650">
	<ele>1536.20</ele>
	<time>2023-10-07T11:06:05.000Z</time>
</trkpt>
<trkpt lat="45.9339090" lon="9.5391810">
	<ele>1536.20</ele>
	<time>2023-10-07T11:06:06.000Z</time>
</trkpt>
<trkpt lat="45.9339090" lon="9.5391960">
	<ele>1536.20</ele>
	<time>2023-10-07T11:06:07.000Z</time>
</trkpt>
<trkpt lat="45.9339070" lon="9.5392120">
	<ele>1536.40</ele>
	<time>2023-10-07T11:06:08.000Z</time>
</trkpt>
<trkpt lat="45.9339060" lon="9.5392280">
	<ele>1536.40</ele>
	<time>2023-10-07T11:06:09.000Z</time>
</trkpt>
<trkpt lat="45.9339080" lon="9.5392420">
	<ele>1536.60</ele>
	<time>2023-10-07T11:06:10.000Z</time>
</trkpt>
<trkpt lat="45.9339090" lon="9.5392600">
	<ele>1536.60</ele>
	<time>2023-10-07T11:06:11.000Z</time>
</trkpt>
<trkpt lat="45.9339110" lon="9.5392730">
	<ele>1536.60</ele>
	<time>2023-10-07T11:06:12.000Z</time>
</trkpt>
<trkpt lat="45.9339140" lon="9.5392890">
	<ele>1536.80</ele>
	<time>2023-10-07T11:06:13.000Z</time>
</trkpt>
<trkpt lat="45.9339140" lon="9.5393100">
	<ele>1536.80</ele>
	<time>2023-10-07T11:06:14.000Z</time>
</trkpt>
<trkpt lat="45.9339110" lon="9.5393320">
	<ele>1536.80</ele>
	<time>2023-10-07T11:06:15.000Z</time>
</trkpt>
<trkpt lat="45.9339100" lon="9.5393480">
	<ele>1536.80</ele>
	<time>2023-10-07T11:06:16.000Z</time>
</trkpt>
<trkpt lat="45.9339080" lon="9.5393600">
	<ele>1536.80</ele>
	<time>2023-10-07T11:06:17.000Z</time>
</trkpt>
<trkpt lat="45.9339030" lon="9.5393740">
	<ele>1537.00</ele>
	<time>2023-10-07T11:06:18.000Z</time>
</trkpt>
<trkpt lat="45.9338990" lon="9.5393850">
	<ele>1537.00</ele>
	<time>2023-10-07T11:06:19.000Z</time>
</trkpt>
<trkpt lat="45.9338910" lon="9.5394040">
	<ele>1537.00</ele>
	<time>2023-10-07T11:06:20.000Z</time>
</trkpt>
<trkpt lat="45.9338820" lon="9.5394180">
	<ele>1537.20</ele>
	<time>2023-10-07T11:06:21.000Z</time>
</trkpt>
<trkpt lat="45.9338730" lon="9.5394310">
	<ele>1537.20</ele>
	<time>2023-10-07T11:06:22.000Z</time>
</trkpt>
<trkpt lat="45.9338640" lon="9.5394440">
	<ele>1537.40</ele>
	<time>2023-10-07T11:06:23.000Z</time>
</trkpt>
<trkpt lat="45.9338590" lon="9.5394520">
	<ele>1537.40</ele>
	<time>2023-10-07T11:06:24.000Z</time>
</trkpt>
<trkpt lat="45.9338500" lon="9.5394670">
	<ele>1537.60</ele>
	<time>2023-10-07T11:06:25.000Z</time>
</trkpt>
<trkpt lat="45.9338440" lon="9.5394760">
	<ele>1537.60</ele>
	<time>2023-10-07T11:06:26.000Z</time>
</trkpt>
<trkpt lat="45.9338390" lon="9.5394820">
	<ele>1537.60</ele>
	<time>2023-10-07T11:06:27.000Z</time>
</trkpt>
<trkpt lat="45.9338330" lon="9.5394890">
	<ele>1537.80</ele>
	<time>2023-10-07T11:06:28.000Z</time>
</trkpt>
<trkpt lat="45.9338240" lon="9.5394960">
	<ele>1537.80</ele>
	<time>2023-10-07T11:06:29.000Z</time>
</trkpt>
<trkpt lat="45.9338160" lon="9.5395020">
	<ele>1537.80</ele>
	<time>2023-10-07T11:06:30.000Z</time>
</trkpt>
<trkpt lat="45.9338100" lon="9.5395110">
	<ele>1537.80</ele>
	<time>2023-10-07T11:06:31.000Z</time>
</trkpt>
<trkpt lat="45.9338060" lon="9.5395200">
	<ele>1538.00</ele>
	<time>2023-10-07T11:06:32.000Z</time>
</trkpt>
<trkpt lat="45.9337990" lon="9.5395300">
	<ele>1538.20</ele>
	<time>2023-10-07T11:06:33.000Z</time>
</trkpt>
<trkpt lat="45.9337910" lon="9.5395410">
	<ele>1538.20</ele>
	<time>2023-10-07T11:06:34.000Z</time>
</trkpt>
<trkpt lat="45.9337820" lon="9.5395500">
	<ele>1538.40</ele>
	<time>2023-10-07T11:06:35.000Z</time>
</trkpt>
<trkpt lat="45.9337740" lon="9.5395580">
	<ele>1538.60</ele>
	<time>2023-10-07T11:06:36.000Z</time>
</trkpt>
<trkpt lat="45.9337680" lon="9.5395660">
	<ele>1538.80</ele>
	<time>2023-10-07T11:06:37.000Z</time>
</trkpt>
<trkpt lat="45.9337590" lon="9.5395770">
	<ele>1539.00</ele>
	<time>2023-10-07T11:06:38.000Z</time>
</trkpt>
<trkpt lat="45.9337530" lon="9.5395860">
	<ele>1539.20</ele>
	<time>2023-10-07T11:06:39.000Z</time>
</trkpt>
<trkpt lat="45.9337490" lon="9.5395910">
	<ele>1539.20</ele>
	<time>2023-10-07T11:06:40.000Z</time>
</trkpt>
<trkpt lat="45.9337430" lon="9.5395960">
	<ele>1539.40</ele>
	<time>2023-10-07T11:06:41.000Z</time>
</trkpt>
<trkpt lat="45.9337370" lon="9.5396060">
	<ele>1539.40</ele>
	<time>2023-10-07T11:06:42.000Z</time>
</trkpt>
<trkpt lat="45.9337320" lon="9.5396170">
	<ele>1539.60</ele>
	<time>2023-10-07T11:06:43.000Z</time>
</trkpt>
<trkpt lat="45.9337230" lon="9.5396280">
	<ele>1539.60</ele>
	<time>2023-10-07T11:06:44.000Z</time>
</trkpt>
<trkpt lat="45.9337160" lon="9.5396360">
	<ele>1539.80</ele>
	<time>2023-10-07T11:06:45.000Z</time>
</trkpt>
<trkpt lat="45.9337050" lon="9.5396430">
	<ele>1539.80</ele>
	<time>2023-10-07T11:06:46.000Z</time>
</trkpt>
<trkpt lat="45.9336990" lon="9.5396510">
	<ele>1539.80</ele>
	<time>2023-10-07T11:06:47.000Z</time>
</trkpt>
<trkpt lat="45.9336960" lon="9.5396630">
	<ele>1539.80</ele>
	<time>2023-10-07T11:06:48.000Z</time>
</trkpt>
<trkpt lat="45.9336950" lon="9.5396750">
	<ele>1540.00</ele>
	<time>2023-10-07T11:06:49.000Z</time>
</trkpt>
<trkpt lat="45.9336930" lon="9.5396870">
	<ele>1540.20</ele>
	<time>2023-10-07T11:06:50.000Z</time>
</trkpt>
<trkpt lat="45.9336910" lon="9.5396990">
	<ele>1540.20</ele>
	<time>2023-10-07T11:06:51.000Z</time>
</trkpt>
<trkpt lat="45.9336870" lon="9.5397100">
	<ele>1540.40</ele>
	<time>2023-10-07T11:06:52.000Z</time>
</trkpt>
<trkpt lat="45.9336850" lon="9.5397250">
	<ele>1540.40</ele>
	<time>2023-10-07T11:06:53.000Z</time>
</trkpt>
<trkpt lat="45.9336830" lon="9.5397360">
	<ele>1540.60</ele>
	<time>2023-10-07T11:06:54.000Z</time>
</trkpt>
<trkpt lat="45.9336790" lon="9.5397450">
	<ele>1540.60</ele>
	<time>2023-10-07T11:06:55.000Z</time>
</trkpt>
<trkpt lat="45.9336740" lon="9.5397520">
	<ele>1540.60</ele>
	<time>2023-10-07T11:06:56.000Z</time>
</trkpt>
<trkpt lat="45.9336690" lon="9.5397590">
	<ele>1540.80</ele>
	<time>2023-10-07T11:06:57.000Z</time>
</trkpt>
<trkpt lat="45.9336680" lon="9.5397600">
	<ele>1540.80</ele>
	<time>2023-10-07T11:06:58.000Z</time>
</trkpt>
<trkpt lat="45.9336670" lon="9.5397610">
	<ele>1540.80</ele>
	<time>2023-10-07T11:06:59.000Z</time>
</trkpt>
<trkpt lat="45.9336680" lon="9.5397600">
	<ele>1540.80</ele>
	<time>2023-10-07T11:07:00.000Z</time>
</trkpt>
<trkpt lat="45.9336690" lon="9.5397610">
	<ele>1540.60</ele>
	<time>2023-10-07T11:07:01.000Z</time>
</trkpt>
<trkpt lat="45.9336680" lon="9.5397620">
	<ele>1540.60</ele>
	<time>2023-10-07T11:07:02.000Z</time>
</trkpt>
<trkpt lat="45.9336690" lon="9.5397630">
	<ele>1540.60</ele>
	<time>2023-10-07T11:07:03.000Z</time>
</trkpt>
<trkpt lat="45.9336680" lon="9.5397650">
	<ele>1540.60</ele>
	<time>2023-10-07T11:07:04.000Z</time>
</trkpt>
<trkpt lat="45.9336690" lon="9.5397710">
	<ele>1540.60</ele>
	<time>2023-10-07T11:07:05.000Z</time>
</trkpt>
<trkpt lat="45.9336710" lon="9.5397830">
	<ele>1540.80</ele>
	<time>2023-10-07T11:07:06.000Z</time>
</trkpt>
<trkpt lat="45.9336730" lon="9.5397970">
	<ele>1540.80</ele>
	<time>2023-10-07T11:07:07.000Z</time>
</trkpt>
<trkpt lat="45.9336740" lon="9.5398090">
	<ele>1541.00</ele>
	<time>2023-10-07T11:07:08.000Z</time>
</trkpt>
<trkpt lat="45.9336760" lon="9.5398250">
	<ele>1541.00</ele>
	<time>2023-10-07T11:07:09.000Z</time>
</trkpt>
<trkpt lat="45.9336790" lon="9.5398440">
	<ele>1541.00</ele>
	<time>2023-10-07T11:07:10.000Z</time>
</trkpt>
<trkpt lat="45.9336810" lon="9.5398580">
	<ele>1541.20</ele>
	<time>2023-10-07T11:07:11.000Z</time>
</trkpt>
<trkpt lat="45.9336830" lon="9.5398710">
	<ele>1541.20</ele>
	<time>2023-10-07T11:07:12.000Z</time>
</trkpt>
<trkpt lat="45.9336870" lon="9.5398830">
	<ele>1541.20</ele>
	<time>2023-10-07T11:07:13.000Z</time>
</trkpt>
<trkpt lat="45.9336910" lon="9.5398980">
	<ele>1541.20</ele>
	<time>2023-10-07T11:07:14.000Z</time>
</trkpt>
<trkpt lat="45.9336920" lon="9.5399140">
	<ele>1541.20</ele>
	<time>2023-10-07T11:07:15.000Z</time>
</trkpt>
<trkpt lat="45.9336910" lon="9.5399280">
	<ele>1541.40</ele>
	<time>2023-10-07T11:07:16.000Z</time>
</trkpt>
<trkpt lat="45.9336890" lon="9.5399400">
	<ele>1541.40</ele>
	<time>2023-10-07T11:07:17.000Z</time>
</trkpt>
<trkpt lat="45.9336920" lon="9.5399550">
	<ele>1541.40</ele>
	<time>2023-10-07T11:07:18.000Z</time>
</trkpt>
<trkpt lat="45.9336940" lon="9.5399720">
	<ele>1541.40</ele>
	<time>2023-10-07T11:07:19.000Z</time>
</trkpt>
<trkpt lat="45.9336950" lon="9.5399880">
	<ele>1541.60</ele>
	<time>2023-10-07T11:07:20.000Z</time>
</trkpt>
<trkpt lat="45.9336940" lon="9.5400040">
	<ele>1541.60</ele>
	<time>2023-10-07T11:07:21.000Z</time>
</trkpt>
<trkpt lat="45.9336970" lon="9.5400210">
	<ele>1541.60</ele>
	<time>2023-10-07T11:07:22.000Z</time>
</trkpt>
<trkpt lat="45.9336990" lon="9.5400370">
	<ele>1541.80</ele>
	<time>2023-10-07T11:07:23.000Z</time>
</trkpt>
<trkpt lat="45.9337000" lon="9.5400540">
	<ele>1541.80</ele>
	<time>2023-10-07T11:07:24.000Z</time>
</trkpt>
<trkpt lat="45.9337030" lon="9.5400710">
	<ele>1542.20</ele>
	<time>2023-10-07T11:07:25.000Z</time>
</trkpt>
<trkpt lat="45.9337070" lon="9.5400830">
	<ele>1542.40</ele>
	<time>2023-10-07T11:07:26.000Z</time>
</trkpt>
<trkpt lat="45.9337120" lon="9.5400980">
	<ele>1542.40</ele>
	<time>2023-10-07T11:07:27.000Z</time>
</trkpt>
<trkpt lat="45.9337190" lon="9.5401130">
	<ele>1542.60</ele>
	<time>2023-10-07T11:07:28.000Z</time>
</trkpt>
<trkpt lat="45.9337260" lon="9.5401290">
	<ele>1542.60</ele>
	<time>2023-10-07T11:07:29.000Z</time>
</trkpt>
<trkpt lat="45.9337300" lon="9.5401440">
	<ele>1542.40</ele>
	<time>2023-10-07T11:07:30.000Z</time>
</trkpt>
<trkpt lat="45.9337330" lon="9.5401580">
	<ele>1542.40</ele>
	<time>2023-10-07T11:07:31.000Z</time>
</trkpt>
<trkpt lat="45.9337320" lon="9.5401750">
	<ele>1542.20</ele>
	<time>2023-10-07T11:07:32.000Z</time>
</trkpt>
<trkpt lat="45.9337310" lon="9.5401910">
	<ele>1542.20</ele>
	<time>2023-10-07T11:07:33.000Z</time>
</trkpt>
<trkpt lat="45.9337320" lon="9.5402080">
	<ele>1542.00</ele>
	<time>2023-10-07T11:07:34.000Z</time>
</trkpt>
<trkpt lat="45.9337330" lon="9.5402250">
	<ele>1542.00</ele>
	<time>2023-10-07T11:07:35.000Z</time>
</trkpt>
<trkpt lat="45.9337340" lon="9.5402420">
	<ele>1542.00</ele>
	<time>2023-10-07T11:07:36.000Z</time>
</trkpt>
<trkpt lat="45.9337330" lon="9.5402580">
	<ele>1541.80</ele>
	<time>2023-10-07T11:07:37.000Z</time>
</trkpt>
<trkpt lat="45.9337340" lon="9.5402720">
	<ele>1541.80</ele>
	<time>2023-10-07T11:07:38.000Z</time>
</trkpt>
<trkpt lat="45.9337360" lon="9.5402870">
	<ele>1541.60</ele>
	<time>2023-10-07T11:07:39.000Z</time>
</trkpt>
<trkpt lat="45.9337430" lon="9.5403020">
	<ele>1541.60</ele>
	<time>2023-10-07T11:07:40.000Z</time>
</trkpt>
<trkpt lat="45.9337490" lon="9.5403210">
	<ele>1541.60</ele>
	<time>2023-10-07T11:07:41.000Z</time>
</trkpt>
<trkpt lat="45.9337530" lon="9.5403360">
	<ele>1541.60</ele>
	<time>2023-10-07T11:07:42.000Z</time>
</trkpt>
<trkpt lat="45.9337570" lon="9.5403540">
	<ele>1541.60</ele>
	<time>2023-10-07T11:07:43.000Z</time>
</trkpt>
<trkpt lat="45.9337620" lon="9.5403760">
	<ele>1541.40</ele>
	<time>2023-10-07T11:07:44.000Z</time>
</trkpt>
<trkpt lat="45.9337640" lon="9.5403930">
	<ele>1541.20</ele>
	<time>2023-10-07T11:07:45.000Z</time>
</trkpt>
<trkpt lat="45.9337680" lon="9.5404100">
	<ele>1541.20</ele>
	<time>2023-10-07T11:07:46.000Z</time>
</trkpt>
<trkpt lat="45.9337710" lon="9.5404290">
	<ele>1541.00</ele>
	<time>2023-10-07T11:07:47.000Z</time>
</trkpt>
<trkpt lat="45.9337730" lon="9.5404470">
	<ele>1541.00</ele>
	<time>2023-10-07T11:07:48.000Z</time>
</trkpt>
<trkpt lat="45.9337740" lon="9.5404670">
	<ele>1541.00</ele>
	<time>2023-10-07T11:07:49.000Z</time>
</trkpt>
<trkpt lat="45.9337720" lon="9.5404870">
	<ele>1540.80</ele>
	<time>2023-10-07T11:07:50.000Z</time>
</trkpt>
<trkpt lat="45.9337690" lon="9.5405020">
	<ele>1540.80</ele>
	<time>2023-10-07T11:07:51.000Z</time>
</trkpt>
<trkpt lat="45.9337680" lon="9.5405210">
	<ele>1540.80</ele>
	<time>2023-10-07T11:07:52.000Z</time>
</trkpt>
<trkpt lat="45.9337670" lon="9.5405400">
	<ele>1540.80</ele>
	<time>2023-10-07T11:07:53.000Z</time>
</trkpt>
<trkpt lat="45.9337660" lon="9.5405570">
	<ele>1540.80</ele>
	<time>2023-10-07T11:07:54.000Z</time>
</trkpt>
<trkpt lat="45.9337670" lon="9.5405740">
	<ele>1540.80</ele>
	<time>2023-10-07T11:07:55.000Z</time>
</trkpt>
<trkpt lat="45.9337680" lon="9.5405920">
	<ele>1540.80</ele>
	<time>2023-10-07T11:07:56.000Z</time>
</trkpt>
<trkpt lat="45.9337710" lon="9.5406100">
	<ele>1540.80</ele>
	<time>2023-10-07T11:07:57.000Z</time>
</trkpt>
<trkpt lat="45.9337740" lon="9.5406260">
	<ele>1540.80</ele>
	<time>2023-10-07T11:07:58.000Z</time>
</trkpt>
<trkpt lat="45.9337750" lon="9.5406420">
	<ele>1541.00</ele>
	<time>2023-10-07T11:07:59.000Z</time>
</trkpt>
<trkpt lat="45.9337790" lon="9.5406610">
	<ele>1541.00</ele>
	<time>2023-10-07T11:08:00.000Z</time>
</trkpt>
<trkpt lat="45.9337830" lon="9.5406800">
	<ele>1541.00</ele>
	<time>2023-10-07T11:08:01.000Z</time>
</trkpt>
<trkpt lat="45.9337880" lon="9.5406960">
	<ele>1541.00</ele>
	<time>2023-10-07T11:08:02.000Z</time>
</trkpt>
<trkpt lat="45.9337960" lon="9.5407160">
	<ele>1541.00</ele>
	<time>2023-10-07T11:08:03.000Z</time>
</trkpt>
<trkpt lat="45.9338040" lon="9.5407390">
	<ele>1541.00</ele>
	<time>2023-10-07T11:08:04.000Z</time>
</trkpt>
<trkpt lat="45.9338100" lon="9.5407620">
	<ele>1541.00</ele>
	<time>2023-10-07T11:08:05.000Z</time>
</trkpt>
<trkpt lat="45.9338190" lon="9.5407830">
	<ele>1541.00</ele>
	<time>2023-10-07T11:08:06.000Z</time>
</trkpt>
<trkpt lat="45.9338250" lon="9.5408030">
	<ele>1541.00</ele>
	<time>2023-10-07T11:08:07.000Z</time>
</trkpt>
<trkpt lat="45.9338290" lon="9.5408200">
	<ele>1541.00</ele>
	<time>2023-10-07T11:08:08.000Z</time>
</trkpt>
<trkpt lat="45.9338360" lon="9.5408350">
	<ele>1541.00</ele>
	<time>2023-10-07T11:08:09.000Z</time>
</trkpt>
<trkpt lat="45.9338430" lon="9.5408490">
	<ele>1541.00</ele>
	<time>2023-10-07T11:08:10.000Z</time>
</trkpt>
<trkpt lat="45.9338500" lon="9.5408620">
	<ele>1541.00</ele>
	<time>2023-10-07T11:08:11.000Z</time>
</trkpt>
<trkpt lat="45.9338570" lon="9.5408760">
	<ele>1541.00</ele>
	<time>2023-10-07T11:08:12.000Z</time>
</trkpt>
<trkpt lat="45.9338640" lon="9.5408900">
	<ele>1541.20</ele>
	<time>2023-10-07T11:08:13.000Z</time>
</trkpt>
<trkpt lat="45.9338680" lon="9.5409030">
	<ele>1541.20</ele>
	<time>2023-10-07T11:08:14.000Z</time>
</trkpt>
<trkpt lat="45.9338720" lon="9.5409150">
	<ele>1541.20</ele>
	<time>2023-10-07T11:08:15.000Z</time>
</trkpt>
<trkpt lat="45.9338760" lon="9.5409290">
	<ele>1541.20</ele>
	<time>2023-10-07T11:08:16.000Z</time>
</trkpt>
<trkpt lat="45.9338790" lon="9.5409430">
	<ele>1541.20</ele>
	<time>2023-10-07T11:08:17.000Z</time>
</trkpt>
<trkpt lat="45.9338840" lon="9.5409590">
	<ele>1541.20</ele>
	<time>2023-10-07T11:08:18.000Z</time>
</trkpt>
<trkpt lat="45.9338860" lon="9.5409780">
	<ele>1541.40</ele>
	<time>2023-10-07T11:08:19.000Z</time>
</trkpt>
<trkpt lat="45.9338860" lon="9.5409960">
	<ele>1541.40</ele>
	<time>2023-10-07T11:08:20.000Z</time>
</trkpt>
<trkpt lat="45.9338890" lon="9.5410100">
	<ele>1541.40</ele>
	<time>2023-10-07T11:08:21.000Z</time>
</trkpt>
<trkpt lat="45.9338940" lon="9.5410230">
	<ele>1541.60</ele>
	<time>2023-10-07T11:08:22.000Z</time>
</trkpt>
<trkpt lat="45.9339010" lon="9.5410380">
	<ele>1541.60</ele>
	<time>2023-10-07T11:08:23.000Z</time>
</trkpt>
<trkpt lat="45.9339040" lon="9.5410520">
	<ele>1541.60</ele>
	<time>2023-10-07T11:08:24.000Z</time>
</trkpt>
<trkpt lat="45.9339070" lon="9.5410680">
	<ele>1541.60</ele>
	<time>2023-10-07T11:08:25.000Z</time>
</trkpt>
<trkpt lat="45.9339120" lon="9.5410860">
	<ele>1541.60</ele>
	<time>2023-10-07T11:08:26.000Z</time>
</trkpt>
<trkpt lat="45.9339160" lon="9.5411070">
	<ele>1541.60</ele>
	<time>2023-10-07T11:08:27.000Z</time>
</trkpt>
<trkpt lat="45.9339200" lon="9.5411250">
	<ele>1541.60</ele>
	<time>2023-10-07T11:08:28.000Z</time>
</trkpt>
<trkpt lat="45.9339250" lon="9.5411430">
	<ele>1541.60</ele>
	<time>2023-10-07T11:08:29.000Z</time>
</trkpt>
<trkpt lat="45.9339320" lon="9.5411600">
	<ele>1541.60</ele>
	<time>2023-10-07T11:08:30.000Z</time>
</trkpt>
<trkpt lat="45.9339370" lon="9.5411770">
	<ele>1541.60</ele>
	<time>2023-10-07T11:08:31.000Z</time>
</trkpt>
<trkpt lat="45.9339420" lon="9.5411930">
	<ele>1541.60</ele>
	<time>2023-10-07T11:08:32.000Z</time>
</trkpt>
<trkpt lat="45.9339500" lon="9.5412090">
	<ele>1541.60</ele>
	<time>2023-10-07T11:08:33.000Z</time>
</trkpt>
<trkpt lat="45.9339570" lon="9.5412200">
	<ele>1541.60</ele>
	<time>2023-10-07T11:08:34.000Z</time>
</trkpt>
<trkpt lat="45.9339650" lon="9.5412320">
	<ele>1541.60</ele>
	<time>2023-10-07T11:08:35.000Z</time>
</trkpt>
<trkpt lat="45.9339730" lon="9.5412450">
	<ele>1541.60</ele>
	<time>2023-10-07T11:08:36.000Z</time>
</trkpt>
<trkpt lat="45.9339790" lon="9.5412570">
	<ele>1541.60</ele>
	<time>2023-10-07T11:08:37.000Z</time>
</trkpt>
<trkpt lat="45.9339850" lon="9.5412690">
	<ele>1541.40</ele>
	<time>2023-10-07T11:08:38.000Z</time>
</trkpt>
<trkpt lat="45.9339940" lon="9.5412820">
	<ele>1541.40</ele>
	<time>2023-10-07T11:08:39.000Z</time>
</trkpt>
<trkpt lat="45.9340040" lon="9.5412960">
	<ele>1541.20</ele>
	<time>2023-10-07T11:08:40.000Z</time>
</trkpt>
<trkpt lat="45.9340140" lon="9.5413110">
	<ele>1541.00</ele>
	<time>2023-10-07T11:08:41.000Z</time>
</trkpt>
<trkpt lat="45.9340210" lon="9.5413200">
	<ele>1540.80</ele>
	<time>2023-10-07T11:08:42.000Z</time>
</trkpt>
<trkpt lat="45.9340300" lon="9.5413370">
	<ele>1540.80</ele>
	<time>2023-10-07T11:08:43.000Z</time>
</trkpt>
<trkpt lat="45.9340370" lon="9.5413540">
	<ele>1540.60</ele>
	<time>2023-10-07T11:08:44.000Z</time>
</trkpt>
<trkpt lat="45.9340410" lon="9.5413720">
	<ele>1540.60</ele>
	<time>2023-10-07T11:08:45.000Z</time>
</trkpt>
<trkpt lat="45.9340430" lon="9.5413910">
	<ele>1540.60</ele>
	<time>2023-10-07T11:08:46.000Z</time>
</trkpt>
<trkpt lat="45.9340440" lon="9.5414110">
	<ele>1540.60</ele>
	<time>2023-10-07T11:08:47.000Z</time>
</trkpt>
<trkpt lat="45.9340410" lon="9.5414310">
	<ele>1540.60</ele>
	<time>2023-10-07T11:08:48.000Z</time>
</trkpt>
<trkpt lat="45.9340380" lon="9.5414470">
	<ele>1540.60</ele>
	<time>2023-10-07T11:08:49.000Z</time>
</trkpt>
<trkpt lat="45.9340310" lon="9.5414630">
	<ele>1540.60</ele>
	<time>2023-10-07T11:08:50.000Z</time>
</trkpt>
<trkpt lat="45.9340240" lon="9.5414770">
	<ele>1540.60</ele>
	<time>2023-10-07T11:08:51.000Z</time>
</trkpt>
<trkpt lat="45.9340190" lon="9.5414930">
	<ele>1540.80</ele>
	<time>2023-10-07T11:08:52.000Z</time>
</trkpt>
<trkpt lat="45.9340110" lon="9.5415050">
	<ele>1541.00</ele>
	<time>2023-10-07T11:08:53.000Z</time>
</trkpt>
<trkpt lat="45.9340030" lon="9.5415130">
	<ele>1541.00</ele>
	<time>2023-10-07T11:08:54.000Z</time>
</trkpt>
<trkpt lat="45.9339950" lon="9.5415230">
	<ele>1541.00</ele>
	<time>2023-10-07T11:08:55.000Z</time>
</trkpt>
<trkpt lat="45.9339880" lon="9.5415340">
	<ele>1541.20</ele>
	<time>2023-10-07T11:08:56.000Z</time>
</trkpt>
<trkpt lat="45.9339810" lon="9.5415450">
	<ele>1541.20</ele>
	<time>2023-10-07T11:08:57.000Z</time>
</trkpt>
<trkpt lat="45.9339770" lon="9.5415570">
	<ele>1541.20</ele>
	<time>2023-10-07T11:08:58.000Z</time>
</trkpt>
<trkpt lat="45.9339750" lon="9.5415700">
	<ele>1541.20</ele>
	<time>2023-10-07T11:08:59.000Z</time>
</trkpt>
<trkpt lat="45.9339720" lon="9.5415850">
	<ele>1541.20</ele>
	<time>2023-10-07T11:09:00.000Z</time>
</trkpt>
<trkpt lat="45.9339640" lon="9.5415990">
	<ele>1541.20</ele>
	<time>2023-10-07T11:09:01.000Z</time>
</trkpt>
<trkpt lat="45.9339580" lon="9.5416140">
	<ele>1541.40</ele>
	<time>2023-10-07T11:09:02.000Z</time>
</trkpt>
<trkpt lat="45.9339540" lon="9.5416290">
	<ele>1541.80</ele>
	<time>2023-10-07T11:09:03.000Z</time>
</trkpt>
<trkpt lat="45.9339500" lon="9.5416470">
	<ele>1542.00</ele>
	<time>2023-10-07T11:09:04.000Z</time>
</trkpt>
<trkpt lat="45.9339460" lon="9.5416670">
	<ele>1542.00</ele>
	<time>2023-10-07T11:09:05.000Z</time>
</trkpt>
<trkpt lat="45.9339420" lon="9.5416840">
	<ele>1542.20</ele>
	<time>2023-10-07T11:09:06.000Z</time>
</trkpt>
<trkpt lat="45.9339350" lon="9.5416980">
	<ele>1542.20</ele>
	<time>2023-10-07T11:09:07.000Z</time>
</trkpt>
<trkpt lat="45.9339300" lon="9.5417130">
	<ele>1542.20</ele>
	<time>2023-10-07T11:09:08.000Z</time>
</trkpt>
<trkpt lat="45.9339250" lon="9.5417250">
	<ele>1542.00</ele>
	<time>2023-10-07T11:09:09.000Z</time>
</trkpt>
<trkpt lat="45.9339230" lon="9.5417400">
	<ele>1542.00</ele>
	<time>2023-10-07T11:09:10.000Z</time>
</trkpt>
<trkpt lat="45.9339210" lon="9.5417540">
	<ele>1542.00</ele>
	<time>2023-10-07T11:09:11.000Z</time>
</trkpt>
<trkpt lat="45.9339170" lon="9.5417670">
	<ele>1541.80</ele>
	<time>2023-10-07T11:09:12.000Z</time>
</trkpt>
<trkpt lat="45.9339120" lon="9.5417830">
	<ele>1541.80</ele>
	<time>2023-10-07T11:09:13.000Z</time>
</trkpt>
<trkpt lat="45.9339130" lon="9.5417980">
	<ele>1542.00</ele>
	<time>2023-10-07T11:09:14.000Z</time>
</trkpt>
<trkpt lat="45.9339090" lon="9.5418120">
	<ele>1542.00</ele>
	<time>2023-10-07T11:09:15.000Z</time>
</trkpt>
<trkpt lat="45.9339060" lon="9.5418240">
	<ele>1542.00</ele>
	<time>2023-10-07T11:09:16.000Z</time>
</trkpt>
<trkpt lat="45.9339040" lon="9.5418420">
	<ele>1542.00</ele>
	<time>2023-10-07T11:09:17.000Z</time>
</trkpt>
<trkpt lat="45.9339030" lon="9.5418620">
	<ele>1542.20</ele>
	<time>2023-10-07T11:09:18.000Z</time>
</trkpt>
<trkpt lat="45.9339030" lon="9.5418830">
	<ele>1542.20</ele>
	<time>2023-10-07T11:09:19.000Z</time>
</trkpt>
<trkpt lat="45.9339020" lon="9.5419050">
	<ele>1542.40</ele>
	<time>2023-10-07T11:09:20.000Z</time>
</trkpt>
<trkpt lat="45.9339030" lon="9.5419260">
	<ele>1542.40</ele>
	<time>2023-10-07T11:09:21.000Z</time>
</trkpt>
<trkpt lat="45.9339000" lon="9.5419460">
	<ele>1542.40</ele>
	<time>2023-10-07T11:09:22.000Z</time>
</trkpt>
<trkpt lat="45.9338960" lon="9.5419640">
	<ele>1542.40</ele>
	<time>2023-10-07T11:09:23.000Z</time>
</trkpt>
<trkpt lat="45.9338940" lon="9.5419840">
	<ele>1542.40</ele>
	<time>2023-10-07T11:09:24.000Z</time>
</trkpt>
<trkpt lat="45.9338940" lon="9.5420020">
	<ele>1542.40</ele>
	<time>2023-10-07T11:09:25.000Z</time>
</trkpt>
<trkpt lat="45.9338970" lon="9.5420190">
	<ele>1542.40</ele>
	<time>2023-10-07T11:09:26.000Z</time>
</trkpt>
<trkpt lat="45.9338960" lon="9.5420350">
	<ele>1542.60</ele>
	<time>2023-10-07T11:09:27.000Z</time>
</trkpt>
<trkpt lat="45.9338920" lon="9.5420520">
	<ele>1542.60</ele>
	<time>2023-10-07T11:09:28.000Z</time>
</trkpt>
<trkpt lat="45.9338890" lon="9.5420680">
	<ele>1542.60</ele>
	<time>2023-10-07T11:09:29.000Z</time>
</trkpt>
<trkpt lat="45.9338830" lon="9.5420840">
	<ele>1542.60</ele>
	<time>2023-10-07T11:09:30.000Z</time>
</trkpt>
<trkpt lat="45.9338780" lon="9.5421040">
	<ele>1542.60</ele>
	<time>2023-10-07T11:09:31.000Z</time>
</trkpt>
<trkpt lat="45.9338750" lon="9.5421170">
	<ele>1542.60</ele>
	<time>2023-10-07T11:09:32.000Z</time>
</trkpt>
<trkpt lat="45.9338710" lon="9.5421320">
	<ele>1542.80</ele>
	<time>2023-10-07T11:09:33.000Z</time>
</trkpt>
<trkpt lat="45.9338680" lon="9.5421470">
	<ele>1543.00</ele>
	<time>2023-10-07T11:09:34.000Z</time>
</trkpt>
<trkpt lat="45.9338690" lon="9.5421660">
	<ele>1543.00</ele>
	<time>2023-10-07T11:09:35.000Z</time>
</trkpt>
<trkpt lat="45.9338670" lon="9.5421810">
	<ele>1543.20</ele>
	<time>2023-10-07T11:09:36.000Z</time>
</trkpt>
<trkpt lat="45.9338650" lon="9.5421940">
	<ele>1543.20</ele>
	<time>2023-10-07T11:09:37.000Z</time>
</trkpt>
<trkpt lat="45.9338630" lon="9.5422130">
	<ele>1543.40</ele>
	<time>2023-10-07T11:09:38.000Z</time>
</trkpt>
<trkpt lat="45.9338610" lon="9.5422320">
	<ele>1543.40</ele>
	<time>2023-10-07T11:09:39.000Z</time>
</trkpt>
<trkpt lat="45.9338610" lon="9.5422470">
	<ele>1543.60</ele>
	<time>2023-10-07T11:09:40.000Z</time>
</trkpt>
<trkpt lat="45.9338610" lon="9.5422640">
	<ele>1543.60</ele>
	<time>2023-10-07T11:09:41.000Z</time>
</trkpt>
<trkpt lat="45.9338600" lon="9.5422800">
	<ele>1543.60</ele>
	<time>2023-10-07T11:09:42.000Z</time>
</trkpt>
<trkpt lat="45.9338590" lon="9.5422970">
	<ele>1543.60</ele>
	<time>2023-10-07T11:09:43.000Z</time>
</trkpt>
<trkpt lat="45.9338610" lon="9.5423130">
	<ele>1543.80</ele>
	<time>2023-10-07T11:09:44.000Z</time>
</trkpt>
<trkpt lat="45.9338630" lon="9.5423280">
	<ele>1544.00</ele>
	<time>2023-10-07T11:09:45.000Z</time>
</trkpt>
<trkpt lat="45.9338670" lon="9.5423460">
	<ele>1544.00</ele>
	<time>2023-10-07T11:09:46.000Z</time>
</trkpt>
<trkpt lat="45.9338660" lon="9.5423610">
	<ele>1544.20</ele>
	<time>2023-10-07T11:09:47.000Z</time>
</trkpt>
<trkpt lat="45.9338670" lon="9.5423790">
	<ele>1544.40</ele>
	<time>2023-10-07T11:09:48.000Z</time>
</trkpt>
<trkpt lat="45.9338680" lon="9.5423910">
	<ele>1544.40</ele>
	<time>2023-10-07T11:09:49.000Z</time>
</trkpt>
<trkpt lat="45.9338700" lon="9.5424040">
	<ele>1544.40</ele>
	<time>2023-10-07T11:09:50.000Z</time>
</trkpt>
<trkpt lat="45.9338750" lon="9.5424190">
	<ele>1544.40</ele>
	<time>2023-10-07T11:09:51.000Z</time>
</trkpt>
<trkpt lat="45.9338790" lon="9.5424330">
	<ele>1544.40</ele>
	<time>2023-10-07T11:09:52.000Z</time>
</trkpt>
<trkpt lat="45.9338810" lon="9.5424480">
	<ele>1544.40</ele>
	<time>2023-10-07T11:09:53.000Z</time>
</trkpt>
<trkpt lat="45.9338820" lon="9.5424600">
	<ele>1544.60</ele>
	<time>2023-10-07T11:09:54.000Z</time>
</trkpt>
<trkpt lat="45.9338840" lon="9.5424770">
	<ele>1544.60</ele>
	<time>2023-10-07T11:09:55.000Z</time>
</trkpt>
<trkpt lat="45.9338860" lon="9.5424950">
	<ele>1544.60</ele>
	<time>2023-10-07T11:09:56.000Z</time>
</trkpt>
<trkpt lat="45.9338880" lon="9.5425130">
	<ele>1544.60</ele>
	<time>2023-10-07T11:09:57.000Z</time>
</trkpt>
<trkpt lat="45.9338910" lon="9.5425310">
	<ele>1544.80</ele>
	<time>2023-10-07T11:09:58.000Z</time>
</trkpt>
<trkpt lat="45.9338930" lon="9.5425470">
	<ele>1544.80</ele>
	<time>2023-10-07T11:09:59.000Z</time>
</trkpt>
<trkpt lat="45.9338950" lon="9.5425630">
	<ele>1544.80</ele>
	<time>2023-10-07T11:10:00.000Z</time>
</trkpt>
<trkpt lat="45.9338960" lon="9.5425770">
	<ele>1545.00</ele>
	<time>2023-10-07T11:10:01.000Z</time>
</trkpt>
<trkpt lat="45.9338990" lon="9.5425920">
	<ele>1545.00</ele>
	<time>2023-10-07T11:10:02.000Z</time>
</trkpt>
<trkpt lat="45.9338980" lon="9.5426080">
	<ele>1545.00</ele>
	<time>2023-10-07T11:10:03.000Z</time>
</trkpt>
<trkpt lat="45.9338960" lon="9.5426240">
	<ele>1545.20</ele>
	<time>2023-10-07T11:10:04.000Z</time>
</trkpt>
<trkpt lat="45.9338950" lon="9.5426400">
	<ele>1545.20</ele>
	<time>2023-10-07T11:10:05.000Z</time>
</trkpt>
<trkpt lat="45.9338970" lon="9.5426550">
	<ele>1545.40</ele>
	<time>2023-10-07T11:10:06.000Z</time>
</trkpt>
<trkpt lat="45.9338980" lon="9.5426700">
	<ele>1545.60</ele>
	<time>2023-10-07T11:10:07.000Z</time>
</trkpt>
<trkpt lat="45.9338990" lon="9.5426840">
	<ele>1545.60</ele>
	<time>2023-10-07T11:10:08.000Z</time>
</trkpt>
<trkpt lat="45.9339010" lon="9.5427020">
	<ele>1545.80</ele>
	<time>2023-10-07T11:10:09.000Z</time>
</trkpt>
<trkpt lat="45.9338990" lon="9.5427180">
	<ele>1545.80</ele>
	<time>2023-10-07T11:10:10.000Z</time>
</trkpt>
<trkpt lat="45.9338970" lon="9.5427360">
	<ele>1545.80</ele>
	<time>2023-10-07T11:10:11.000Z</time>
</trkpt>
<trkpt lat="45.9338960" lon="9.5427560">
	<ele>1545.80</ele>
	<time>2023-10-07T11:10:12.000Z</time>
</trkpt>
<trkpt lat="45.9338930" lon="9.5427680">
	<ele>1546.00</ele>
	<time>2023-10-07T11:10:13.000Z</time>
</trkpt>
<trkpt lat="45.9338920" lon="9.5427850">
	<ele>1546.20</ele>
	<time>2023-10-07T11:10:14.000Z</time>
</trkpt>
<trkpt lat="45.9338900" lon="9.5427970">
	<ele>1546.20</ele>
	<time>2023-10-07T11:10:15.000Z</time>
</trkpt>
<trkpt lat="45.9338900" lon="9.5428100">
	<ele>1546.20</ele>
	<time>2023-10-07T11:10:16.000Z</time>
</trkpt>
<trkpt lat="45.9338910" lon="9.5428250">
	<ele>1546.20</ele>
	<time>2023-10-07T11:10:17.000Z</time>
</trkpt>
<trkpt lat="45.9338930" lon="9.5428410">
	<ele>1546.20</ele>
	<time>2023-10-07T11:10:18.000Z</time>
</trkpt>
<trkpt lat="45.9338920" lon="9.5428570">
	<ele>1546.40</ele>
	<time>2023-10-07T11:10:19.000Z</time>
</trkpt>
<trkpt lat="45.9338900" lon="9.5428720">
	<ele>1546.40</ele>
	<time>2023-10-07T11:10:20.000Z</time>
</trkpt>
<trkpt lat="45.9338880" lon="9.5428870">
	<ele>1546.40</ele>
	<time>2023-10-07T11:10:21.000Z</time>
</trkpt>
<trkpt lat="45.9338850" lon="9.5428990">
	<ele>1546.40</ele>
	<time>2023-10-07T11:10:22.000Z</time>
</trkpt>
<trkpt lat="45.9338850" lon="9.5429170">
	<ele>1546.60</ele>
	<time>2023-10-07T11:10:23.000Z</time>
</trkpt>
<trkpt lat="45.9338840" lon="9.5429330">
	<ele>1546.60</ele>
	<time>2023-10-07T11:10:24.000Z</time>
</trkpt>
<trkpt lat="45.9338870" lon="9.5429500">
	<ele>1546.60</ele>
	<time>2023-10-07T11:10:25.000Z</time>
</trkpt>
<trkpt lat="45.9338910" lon="9.5429680">
	<ele>1546.60</ele>
	<time>2023-10-07T11:10:26.000Z</time>
</trkpt>
<trkpt lat="45.9338940" lon="9.5429840">
	<ele>1546.60</ele>
	<time>2023-10-07T11:10:27.000Z</time>
</trkpt>
<trkpt lat="45.9338970" lon="9.5430010">
	<ele>1546.60</ele>
	<time>2023-10-07T11:10:28.000Z</time>
</trkpt>
<trkpt lat="45.9338970" lon="9.5430150">
	<ele>1546.60</ele>
	<time>2023-10-07T11:10:29.000Z</time>
</trkpt>
<trkpt lat="45.9338980" lon="9.5430340">
	<ele>1546.60</ele>
	<time>2023-10-07T11:10:30.000Z</time>
</trkpt>
<trkpt lat="45.9339000" lon="9.5430490">
	<ele>1546.60</ele>
	<time>2023-10-07T11:10:31.000Z</time>
</trkpt>
<trkpt lat="45.9339030" lon="9.5430710">
	<ele>1546.60</ele>
	<time>2023-10-07T11:10:32.000Z</time>
</trkpt>
<trkpt lat="45.9339080" lon="9.5430850">
	<ele>1546.60</ele>
	<time>2023-10-07T11:10:33.000Z</time>
</trkpt>
<trkpt lat="45.9339100" lon="9.5430990">
	<ele>1546.60</ele>
	<time>2023-10-07T11:10:34.000Z</time>
</trkpt>
<trkpt lat="45.9339130" lon="9.5431130">
	<ele>1546.80</ele>
	<time>2023-10-07T11:10:35.000Z</time>
</trkpt>
<trkpt lat="45.9339170" lon="9.5431280">
	<ele>1546.80</ele>
	<time>2023-10-07T11:10:36.000Z</time>
</trkpt>
<trkpt lat="45.9339220" lon="9.5431440">
	<ele>1546.80</ele>
	<time>2023-10-07T11:10:37.000Z</time>
</trkpt>
<trkpt lat="45.9339260" lon="9.5431600">
	<ele>1546.80</ele>
	<time>2023-10-07T11:10:38.000Z</time>
</trkpt>
<trkpt lat="45.9339290" lon="9.5431780">
	<ele>1547.00</ele>
	<time>2023-10-07T11:10:39.000Z</time>
</trkpt>
<trkpt lat="45.9339320" lon="9.5431960">
	<ele>1547.00</ele>
	<time>2023-10-07T11:10:40.000Z</time>
</trkpt>
<trkpt lat="45.9339350" lon="9.5432110">
	<ele>1547.20</ele>
	<time>2023-10-07T11:10:41.000Z</time>
</trkpt>
<trkpt lat="45.9339400" lon="9.5432250">
	<ele>1547.20</ele>
	<time>2023-10-07T11:10:42.000Z</time>
</trkpt>
<trkpt lat="45.9339430" lon="9.5432410">
	<ele>1547.20</ele>
	<time>2023-10-07T11:10:43.000Z</time>
</trkpt>
<trkpt lat="45.9339440" lon="9.5432570">
	<ele>1547.20</ele>
	<time>2023-10-07T11:10:44.000Z</time>
</trkpt>
<trkpt lat="45.9339490" lon="9.5432700">
	<ele>1547.20</ele>
	<time>2023-10-07T11:10:45.000Z</time>
</trkpt>
<trkpt lat="45.9339550" lon="9.5432840">
	<ele>1547.40</ele>
	<time>2023-10-07T11:10:46.000Z</time>
</trkpt>
<trkpt lat="45.9339600" lon="9.5432990">
	<ele>1547.40</ele>
	<time>2023-10-07T11:10:47.000Z</time>
</trkpt>
<trkpt lat="45.9339650" lon="9.5433140">
	<ele>1547.60</ele>
	<time>2023-10-07T11:10:48.000Z</time>
</trkpt>
<trkpt lat="45.9339710" lon="9.5433300">
	<ele>1547.60</ele>
	<time>2023-10-07T11:10:49.000Z</time>
</trkpt>
<trkpt lat="45.9339780" lon="9.5433440">
	<ele>1547.60</ele>
	<time>2023-10-07T11:10:50.000Z</time>
</trkpt>
<trkpt lat="45.9339840" lon="9.5433580">
	<ele>1547.60</ele>
	<time>2023-10-07T11:10:51.000Z</time>
</trkpt>
<trkpt lat="45.9339890" lon="9.5433730">
	<ele>1547.80</ele>
	<time>2023-10-07T11:10:52.000Z</time>
</trkpt>
<trkpt lat="45.9339970" lon="9.5433870">
	<ele>1547.80</ele>
	<time>2023-10-07T11:10:53.000Z</time>
</trkpt>
<trkpt lat="45.9340050" lon="9.5433970">
	<ele>1547.80</ele>
	<time>2023-10-07T11:10:54.000Z</time>
</trkpt>
<trkpt lat="45.9340120" lon="9.5434120">
	<ele>1548.00</ele>
	<time>2023-10-07T11:10:55.000Z</time>
</trkpt>
<trkpt lat="45.9340190" lon="9.5434260">
	<ele>1548.20</ele>
	<time>2023-10-07T11:10:56.000Z</time>
</trkpt>
<trkpt lat="45.9340230" lon="9.5434430">
	<ele>1548.20</ele>
	<time>2023-10-07T11:10:57.000Z</time>
</trkpt>
<trkpt lat="45.9340240" lon="9.5434620">
	<ele>1548.20</ele>
	<time>2023-10-07T11:10:58.000Z</time>
</trkpt>
<trkpt lat="45.9340270" lon="9.5434790">
	<ele>1548.40</ele>
	<time>2023-10-07T11:10:59.000Z</time>
</trkpt>
<trkpt lat="45.9340330" lon="9.5434920">
	<ele>1548.40</ele>
	<time>2023-10-07T11:11:00.000Z</time>
</trkpt>
<trkpt lat="45.9340450" lon="9.5435030">
	<ele>1548.40</ele>
	<time>2023-10-07T11:11:01.000Z</time>
</trkpt>
<trkpt lat="45.9340550" lon="9.5435190">
	<ele>1548.60</ele>
	<time>2023-10-07T11:11:02.000Z</time>
</trkpt>
<trkpt lat="45.9340630" lon="9.5435360">
	<ele>1548.60</ele>
	<time>2023-10-07T11:11:03.000Z</time>
</trkpt>
<trkpt lat="45.9340700" lon="9.5435500">
	<ele>1548.40</ele>
	<time>2023-10-07T11:11:04.000Z</time>
</trkpt>
<trkpt lat="45.9340780" lon="9.5435630">
	<ele>1548.60</ele>
	<time>2023-10-07T11:11:05.000Z</time>
</trkpt>
<trkpt lat="45.9340850" lon="9.5435750">
	<ele>1548.60</ele>
	<time>2023-10-07T11:11:06.000Z</time>
</trkpt>
<trkpt lat="45.9340900" lon="9.5435890">
	<ele>1548.60</ele>
	<time>2023-10-07T11:11:07.000Z</time>
</trkpt>
<trkpt lat="45.9340980" lon="9.5435990">
	<ele>1548.60</ele>
	<time>2023-10-07T11:11:08.000Z</time>
</trkpt>
<trkpt lat="45.9341100" lon="9.5436050">
	<ele>1548.60</ele>
	<time>2023-10-07T11:11:09.000Z</time>
</trkpt>
<trkpt lat="45.9341210" lon="9.5436110">
	<ele>1548.80</ele>
	<time>2023-10-07T11:11:10.000Z</time>
</trkpt>
<trkpt lat="45.9341310" lon="9.5436160">
	<ele>1548.80</ele>
	<time>2023-10-07T11:11:11.000Z</time>
</trkpt>
<trkpt lat="45.9341420" lon="9.5436210">
	<ele>1548.80</ele>
	<time>2023-10-07T11:11:12.000Z</time>
</trkpt>
<trkpt lat="45.9341530" lon="9.5436260">
	<ele>1549.00</ele>
	<time>2023-10-07T11:11:13.000Z</time>
</trkpt>
<trkpt lat="45.9341650" lon="9.5436290">
	<ele>1549.00</ele>
	<time>2023-10-07T11:11:14.000Z</time>
</trkpt>
<trkpt lat="45.9341740" lon="9.5436360">
	<ele>1549.00</ele>
	<time>2023-10-07T11:11:15.000Z</time>
</trkpt>
<trkpt lat="45.9341830" lon="9.5436420">
	<ele>1549.20</ele>
	<time>2023-10-07T11:11:16.000Z</time>
</trkpt>
<trkpt lat="45.9341900" lon="9.5436500">
	<ele>1549.20</ele>
	<time>2023-10-07T11:11:17.000Z</time>
</trkpt>
<trkpt lat="45.9341950" lon="9.5436600">
	<ele>1549.40</ele>
	<time>2023-10-07T11:11:18.000Z</time>
</trkpt>
<trkpt lat="45.9342000" lon="9.5436690">
	<ele>1549.60</ele>
	<time>2023-10-07T11:11:19.000Z</time>
</trkpt>
<trkpt lat="45.9342090" lon="9.5436740">
	<ele>1549.80</ele>
	<time>2023-10-07T11:11:20.000Z</time>
</trkpt>
<trkpt lat="45.9342170" lon="9.5436820">
	<ele>1549.80</ele>
	<time>2023-10-07T11:11:21.000Z</time>
</trkpt>
<trkpt lat="45.9342250" lon="9.5436920">
	<ele>1550.00</ele>
	<time>2023-10-07T11:11:22.000Z</time>
</trkpt>
<trkpt lat="45.9342350" lon="9.5437020">
	<ele>1550.00</ele>
	<time>2023-10-07T11:11:23.000Z</time>
</trkpt>
<trkpt lat="45.9342430" lon="9.5437170">
	<ele>1550.20</ele>
	<time>2023-10-07T11:11:24.000Z</time>
</trkpt>
<trkpt lat="45.9342480" lon="9.5437310">
	<ele>1550.20</ele>
	<time>2023-10-07T11:11:25.000Z</time>
</trkpt>
<trkpt lat="45.9342500" lon="9.5437480">
	<ele>1550.40</ele>
	<time>2023-10-07T11:11:26.000Z</time>
</trkpt>
<trkpt lat="45.9342510" lon="9.5437670">
	<ele>1550.40</ele>
	<time>2023-10-07T11:11:27.000Z</time>
</trkpt>
<trkpt lat="45.9342480" lon="9.5437840">
	<ele>1550.40</ele>
	<time>2023-10-07T11:11:28.000Z</time>
</trkpt>
<trkpt lat="45.9342480" lon="9.5438000">
	<ele>1550.60</ele>
	<time>2023-10-07T11:11:29.000Z</time>
</trkpt>
<trkpt lat="45.9342480" lon="9.5438180">
	<ele>1550.60</ele>
	<time>2023-10-07T11:11:30.000Z</time>
</trkpt>
<trkpt lat="45.9342460" lon="9.5438350">
	<ele>1550.80</ele>
	<time>2023-10-07T11:11:31.000Z</time>
</trkpt>
<trkpt lat="45.9342460" lon="9.5438540">
	<ele>1550.80</ele>
	<time>2023-10-07T11:11:32.000Z</time>
</trkpt>
<trkpt lat="45.9342440" lon="9.5438710">
	<ele>1550.80</ele>
	<time>2023-10-07T11:11:33.000Z</time>
</trkpt>
<trkpt lat="45.9342430" lon="9.5438880">
	<ele>1551.00</ele>
	<time>2023-10-07T11:11:34.000Z</time>
</trkpt>
<trkpt lat="45.9342410" lon="9.5439050">
	<ele>1551.00</ele>
	<time>2023-10-07T11:11:35.000Z</time>
</trkpt>
<trkpt lat="45.9342410" lon="9.5439200">
	<ele>1551.20</ele>
	<time>2023-10-07T11:11:36.000Z</time>
</trkpt>
<trkpt lat="45.9342390" lon="9.5439350">
	<ele>1551.20</ele>
	<time>2023-10-07T11:11:37.000Z</time>
</trkpt>
<trkpt lat="45.9342410" lon="9.5439480">
	<ele>1551.20</ele>
	<time>2023-10-07T11:11:38.000Z</time>
</trkpt>
<trkpt lat="45.9342410" lon="9.5439650">
	<ele>1551.40</ele>
	<time>2023-10-07T11:11:39.000Z</time>
</trkpt>
<trkpt lat="45.9342400" lon="9.5439810">
	<ele>1551.60</ele>
	<time>2023-10-07T11:11:40.000Z</time>
</trkpt>
<trkpt lat="45.9342420" lon="9.5439940">
	<ele>1551.80</ele>
	<time>2023-10-07T11:11:41.000Z</time>
</trkpt>
<trkpt lat="45.9342420" lon="9.5440070">
	<ele>1551.80</ele>
	<time>2023-10-07T11:11:42.000Z</time>
</trkpt>
<trkpt lat="45.9342440" lon="9.5440190">
	<ele>1552.00</ele>
	<time>2023-10-07T11:11:43.000Z</time>
</trkpt>
<trkpt lat="45.9342500" lon="9.5440280">
	<ele>1552.20</ele>
	<time>2023-10-07T11:11:44.000Z</time>
</trkpt>
<trkpt lat="45.9342570" lon="9.5440390">
	<ele>1552.20</ele>
	<time>2023-10-07T11:11:45.000Z</time>
</trkpt>
<trkpt lat="45.9342650" lon="9.5440500">
	<ele>1552.20</ele>
	<time>2023-10-07T11:11:46.000Z</time>
</trkpt>
<trkpt lat="45.9342700" lon="9.5440580">
	<ele>1552.40</ele>
	<time>2023-10-07T11:11:47.000Z</time>
</trkpt>
<trkpt lat="45.9342750" lon="9.5440710">
	<ele>1552.40</ele>
	<time>2023-10-07T11:11:48.000Z</time>
</trkpt>
<trkpt lat="45.9342810" lon="9.5440810">
	<ele>1552.60</ele>
	<time>2023-10-07T11:11:49.000Z</time>
</trkpt>
<trkpt lat="45.9342920" lon="9.5440870">
	<ele>1552.80</ele>
	<time>2023-10-07T11:11:50.000Z</time>
</trkpt>
<trkpt lat="45.9343010" lon="9.5440930">
	<ele>1553.00</ele>
	<time>2023-10-07T11:11:51.000Z</time>
</trkpt>
<trkpt lat="45.9343090" lon="9.5441070">
	<ele>1553.20</ele>
	<time>2023-10-07T11:11:52.000Z</time>
</trkpt>
<trkpt lat="45.9343160" lon="9.5441220">
	<ele>1553.40</ele>
	<time>2023-10-07T11:11:53.000Z</time>
</trkpt>
<trkpt lat="45.9343210" lon="9.5441370">
	<ele>1553.40</ele>
	<time>2023-10-07T11:11:54.000Z</time>
</trkpt>
<trkpt lat="45.9343290" lon="9.5441500">
	<ele>1553.40</ele>
	<time>2023-10-07T11:11:55.000Z</time>
</trkpt>
<trkpt lat="45.9343360" lon="9.5441640">
	<ele>1553.40</ele>
	<time>2023-10-07T11:11:56.000Z</time>
</trkpt>
<trkpt lat="45.9343480" lon="9.5441790">
	<ele>1553.40</ele>
	<time>2023-10-07T11:11:57.000Z</time>
</trkpt>
<trkpt lat="45.9343540" lon="9.5441890">
	<ele>1553.40</ele>
	<time>2023-10-07T11:11:58.000Z</time>
</trkpt>
<trkpt lat="45.9343660" lon="9.5441980">
	<ele>1553.40</ele>
	<time>2023-10-07T11:11:59.000Z</time>
</trkpt>
<trkpt lat="45.9343760" lon="9.5442010">
	<ele>1553.40</ele>
	<time>2023-10-07T11:12:00.000Z</time>
</trkpt>
<trkpt lat="45.9343860" lon="9.5442130">
	<ele>1553.60</ele>
	<time>2023-10-07T11:12:01.000Z</time>
</trkpt>
<trkpt lat="45.9343910" lon="9.5442200">
	<ele>1553.60</ele>
	<time>2023-10-07T11:12:02.000Z</time>
</trkpt>
<trkpt lat="45.9343990" lon="9.5442270">
	<ele>1553.60</ele>
	<time>2023-10-07T11:12:03.000Z</time>
</trkpt>
<trkpt lat="45.9344090" lon="9.5442340">
	<ele>1553.60</ele>
	<time>2023-10-07T11:12:04.000Z</time>
</trkpt>
<trkpt lat="45.9344210" lon="9.5442390">
	<ele>1553.40</ele>
	<time>2023-10-07T11:12:05.000Z</time>
</trkpt>
<trkpt lat="45.9344320" lon="9.5442430">
	<ele>1553.40</ele>
	<time>2023-10-07T11:12:06.000Z</time>
</trkpt>
<trkpt lat="45.9344440" lon="9.5442450">
	<ele>1553.20</ele>
	<time>2023-10-07T11:12:07.000Z</time>
</trkpt>
<trkpt lat="45.9344510" lon="9.5442470">
	<ele>1553.20</ele>
	<time>2023-10-07T11:12:08.000Z</time>
</trkpt>
<trkpt lat="45.9344590" lon="9.5442550">
	<ele>1553.20</ele>
	<time>2023-10-07T11:12:09.000Z</time>
</trkpt>
<trkpt lat="45.9344680" lon="9.5442550">
	<ele>1553.20</ele>
	<time>2023-10-07T11:12:10.000Z</time>
</trkpt>
<trkpt lat="45.9344780" lon="9.5442570">
	<ele>1553.20</ele>
	<time>2023-10-07T11:12:11.000Z</time>
</trkpt>
<trkpt lat="45.9344860" lon="9.5442620">
	<ele>1553.20</ele>
	<time>2023-10-07T11:12:12.000Z</time>
</trkpt>
<trkpt lat="45.9344950" lon="9.5442680">
	<ele>1553.20</ele>
	<time>2023-10-07T11:12:13.000Z</time>
</trkpt>
<trkpt lat="45.9345020" lon="9.5442770">
	<ele>1553.40</ele>
	<time>2023-10-07T11:12:14.000Z</time>
</trkpt>
<trkpt lat="45.9345130" lon="9.5442770">
	<ele>1553.40</ele>
	<time>2023-10-07T11:12:15.000Z</time>
</trkpt>
<trkpt lat="45.9345180" lon="9.5442790">
	<ele>1553.60</ele>
	<time>2023-10-07T11:12:16.000Z</time>
</trkpt>
<trkpt lat="45.9345240" lon="9.5442790">
	<ele>1553.60</ele>
	<time>2023-10-07T11:12:17.000Z</time>
</trkpt>
<trkpt lat="45.9345290" lon="9.5442800">
	<ele>1553.60</ele>
	<time>2023-10-07T11:12:18.000Z</time>
</trkpt>
<trkpt lat="45.9345370" lon="9.5442830">
	<ele>1553.80</ele>
	<time>2023-10-07T11:12:19.000Z</time>
</trkpt>
<trkpt lat="45.9345480" lon="9.5442900">
	<ele>1553.80</ele>
	<time>2023-10-07T11:12:20.000Z</time>
</trkpt>
<trkpt lat="45.9345540" lon="9.5442930">
	<ele>1553.80</ele>
	<time>2023-10-07T11:12:21.000Z</time>
</trkpt>
<trkpt lat="45.9345700" lon="9.5442830">
	<ele>1554.00</ele>
	<time>2023-10-07T11:12:22.000Z</time>
</trkpt>
<trkpt lat="45.9345770" lon="9.5442780">
	<ele>1554.00</ele>
	<time>2023-10-07T11:12:23.000Z</time>
</trkpt>
<trkpt lat="45.9345820" lon="9.5442760">
	<ele>1554.00</ele>
	<time>2023-10-07T11:12:24.000Z</time>
</trkpt>
<trkpt lat="45.9345870" lon="9.5442710">
	<ele>1554.00</ele>
	<time>2023-10-07T11:12:25.000Z</time>
</trkpt>
<trkpt lat="45.9345970" lon="9.5442630">
	<ele>1554.00</ele>
	<time>2023-10-07T11:12:26.000Z</time>
</trkpt>
<trkpt lat="45.9346060" lon="9.5442570">
	<ele>1554.00</ele>
	<time>2023-10-07T11:12:27.000Z</time>
</trkpt>
<trkpt lat="45.9346140" lon="9.5442510">
	<ele>1554.00</ele>
	<time>2023-10-07T11:12:28.000Z</time>
</trkpt>
<trkpt lat="45.9346240" lon="9.5442470">
	<ele>1554.00</ele>
	<time>2023-10-07T11:12:29.000Z</time>
</trkpt>
<trkpt lat="45.9346340" lon="9.5442430">
	<ele>1553.80</ele>
	<time>2023-10-07T11:12:30.000Z</time>
</trkpt>
<trkpt lat="45.9346370" lon="9.5442410">
	<ele>1553.80</ele>
	<time>2023-10-07T11:12:31.000Z</time>
</trkpt>
<trkpt lat="45.9346380" lon="9.5442370">
	<ele>1553.80</ele>
	<time>2023-10-07T11:12:32.000Z</time>
</trkpt>
<trkpt lat="45.9346390" lon="9.5442380">
	<ele>1553.80</ele>
	<time>2023-10-07T11:12:33.000Z</time>
</trkpt>
<trkpt lat="45.9346400" lon="9.5442460">
	<ele>1553.80</ele>
	<time>2023-10-07T11:12:34.000Z</time>
</trkpt>
<trkpt lat="45.9346400" lon="9.5442470">
	<ele>1554.00</ele>
	<time>2023-10-07T11:12:35.000Z</time>
</trkpt>
<trkpt lat="45.9346380" lon="9.5442440">
	<ele>1554.20</ele>
	<time>2023-10-07T11:12:36.000Z</time>
</trkpt>
<trkpt lat="45.9346380" lon="9.5442380">
	<ele>1554.40</ele>
	<time>2023-10-07T11:12:37.000Z</time>
</trkpt>
<trkpt lat="45.9346370" lon="9.5442340">
	<ele>1554.40</ele>
	<time>2023-10-07T11:12:38.000Z</time>
</trkpt>
<trkpt lat="45.9346380" lon="9.5442300">
	<ele>1554.60</ele>
	<time>2023-10-07T11:12:39.000Z</time>
</trkpt>
<trkpt lat="45.9346390" lon="9.5442290">
	<ele>1554.60</ele>
	<time>2023-10-07T11:12:40.000Z</time>
</trkpt>
<trkpt lat="45.9346400" lon="9.5442240">
	<ele>1554.60</ele>
	<time>2023-10-07T11:12:41.000Z</time>
</trkpt>
<trkpt lat="45.9346410" lon="9.5442220">
	<ele>1554.40</ele>
	<time>2023-10-07T11:12:42.000Z</time>
</trkpt>
<trkpt lat="45.9346430" lon="9.5442240">
	<ele>1554.20</ele>
	<time>2023-10-07T11:12:43.000Z</time>
</trkpt>
<trkpt lat="45.9346440" lon="9.5442270">
	<ele>1554.00</ele>
	<time>2023-10-07T11:12:44.000Z</time>
</trkpt>
<trkpt lat="45.9346450" lon="9.5442290">
	<ele>1553.80</ele>
	<time>2023-10-07T11:12:45.000Z</time>
</trkpt>
<trkpt lat="45.9346460" lon="9.5442320">
	<ele>1553.80</ele>
	<time>2023-10-07T11:12:46.000Z</time>
</trkpt>
<trkpt lat="45.9346470" lon="9.5442330">
	<ele>1553.80</ele>
	<time>2023-10-07T11:12:47.000Z</time>
</trkpt>
<trkpt lat="45.9346490" lon="9.5442350">
	<ele>1553.80</ele>
	<time>2023-10-07T11:12:48.000Z</time>
</trkpt>
<trkpt lat="45.9346480" lon="9.5442350">
	<ele>1553.80</ele>
	<time>2023-10-07T11:12:49.000Z</time>
</trkpt>
<trkpt lat="45.9346480" lon="9.5442350">
	<ele>1553.80</ele>
	<time>2023-10-07T11:12:50.000Z</time>
</trkpt>
<trkpt lat="45.9346480" lon="9.5442350">
	<ele>1553.80</ele>
	<time>2023-10-07T11:12:51.000Z</time>
</trkpt>
<trkpt lat="45.9346480" lon="9.5442350">
	<ele>1554.00</ele>
	<time>2023-10-07T11:12:52.000Z</time>
</trkpt>
<trkpt lat="45.9346480" lon="9.5442350">
	<ele>1554.00</ele>
	<time>2023-10-07T11:12:53.000Z</time>
</trkpt>
<trkpt lat="45.9346480" lon="9.5442350">
	<ele>1554.00</ele>
	<time>2023-10-07T11:12:54.000Z</time>
</trkpt>
<trkpt lat="45.9346480" lon="9.5442350">
	<ele>1554.00</ele>
	<time>2023-10-07T11:12:55.000Z</time>
</trkpt>
<trkpt lat="45.9346480" lon="9.5442350">
	<ele>1554.00</ele>
	<time>2023-10-07T11:12:56.000Z</time>
</trkpt>
<trkpt lat="45.9346480" lon="9.5442350">
	<ele>1554.00</ele>
	<time>2023-10-07T11:12:57.000Z</time>
</trkpt>
<trkpt lat="45.9346470" lon="9.5442350">
	<ele>1554.00</ele>
	<time>2023-10-07T11:12:58.000Z</time>
</trkpt>
<trkpt lat="45.9346470" lon="9.5442330">
	<ele>1554.00</ele>
	<time>2023-10-07T11:12:59.000Z</time>
</trkpt>
<trkpt lat="45.9346470" lon="9.5442330">
	<ele>1554.00</ele>
	<time>2023-10-07T11:13:00.000Z</time>
</trkpt>
<trkpt lat="45.9346470" lon="9.5442320">
	<ele>1554.00</ele>
	<time>2023-10-07T11:13:01.000Z</time>
</trkpt>
<trkpt lat="45.9346460" lon="9.5442320">
	<ele>1554.00</ele>
	<time>2023-10-07T11:13:02.000Z</time>
</trkpt>
<trkpt lat="45.9346460" lon="9.5442310">
	<ele>1554.00</ele>
	<time>2023-10-07T11:13:03.000Z</time>
</trkpt>
<trkpt lat="45.9346460" lon="9.5442300">
	<ele>1554.00</ele>
	<time>2023-10-07T11:13:04.000Z</time>
</trkpt>
<trkpt lat="45.9346460" lon="9.5442290">
	<ele>1553.80</ele>
	<time>2023-10-07T11:13:05.000Z</time>
</trkpt>
<trkpt lat="45.9346460" lon="9.5442280">
	<ele>1553.80</ele>
	<time>2023-10-07T11:13:06.000Z</time>
</trkpt>
<trkpt lat="45.9346460" lon="9.5442270">
	<ele>1553.60</ele>
	<time>2023-10-07T11:13:07.000Z</time>
</trkpt>
<trkpt lat="45.9346460" lon="9.5442250">
	<ele>1553.60</ele>
	<time>2023-10-07T11:13:08.000Z</time>
</trkpt>
<trkpt lat="45.9346510" lon="9.5442230">
	<ele>1553.60</ele>
	<time>2023-10-07T11:13:09.000Z</time>
</trkpt>
<trkpt lat="45.9346590" lon="9.5442150">
	<ele>1553.60</ele>
	<time>2023-10-07T11:13:10.000Z</time>
</trkpt>
<trkpt lat="45.9346660" lon="9.5442110">
	<ele>1553.60</ele>
	<time>2023-10-07T11:13:11.000Z</time>
</trkpt>
<trkpt lat="45.9346770" lon="9.5442120">
	<ele>1553.60</ele>
	<time>2023-10-07T11:13:12.000Z</time>
</trkpt>
<trkpt lat="45.9346890" lon="9.5442200">
	<ele>1553.60</ele>
	<time>2023-10-07T11:13:13.000Z</time>
</trkpt>
<trkpt lat="45.9346970" lon="9.5442280">
	<ele>1553.60</ele>
	<time>2023-10-07T11:13:14.000Z</time>
</trkpt>
<trkpt lat="45.9347070" lon="9.5442410">
	<ele>1553.60</ele>
	<time>2023-10-07T11:13:15.000Z</time>
</trkpt>
<trkpt lat="45.9347200" lon="9.5442450">
	<ele>1553.60</ele>
	<time>2023-10-07T11:13:16.000Z</time>
</trkpt>
<trkpt lat="45.9347350" lon="9.5442460">
	<ele>1553.60</ele>
	<time>2023-10-07T11:13:17.000Z</time>
</trkpt>
<trkpt lat="45.9347540" lon="9.5442450">
	<ele>1553.60</ele>
	<time>2023-10-07T11:13:18.000Z</time>
</trkpt>
<trkpt lat="45.9347720" lon="9.5442470">
	<ele>1553.60</ele>
	<time>2023-10-07T11:13:19.000Z</time>
</trkpt>
<trkpt lat="45.9347920" lon="9.5442520">
	<ele>1553.60</ele>
	<time>2023-10-07T11:13:20.000Z</time>
</trkpt>
<trkpt lat="45.9348030" lon="9.5442650">
	<ele>1553.60</ele>
	<time>2023-10-07T11:13:21.000Z</time>
</trkpt>
<trkpt lat="45.9348130" lon="9.5442740">
	<ele>1553.80</ele>
	<time>2023-10-07T11:13:22.000Z</time>
</trkpt>
<trkpt lat="45.9348240" lon="9.5442880">
	<ele>1553.80</ele>
	<time>2023-10-07T11:13:23.000Z</time>
</trkpt>
<trkpt lat="45.9348360" lon="9.5442990">
	<ele>1553.80</ele>
	<time>2023-10-07T11:13:24.000Z</time>
</trkpt>
<trkpt lat="45.9348520" lon="9.5443120">
	<ele>1553.80</ele>
	<time>2023-10-07T11:13:25.000Z</time>
</trkpt>
<trkpt lat="45.9348600" lon="9.5443310">
	<ele>1553.80</ele>
	<time>2023-10-07T11:13:26.000Z</time>
</trkpt>
<trkpt lat="45.9348690" lon="9.5443340">
	<ele>1553.80</ele>
	<time>2023-10-07T11:13:27.000Z</time>
</trkpt>
<trkpt lat="45.9348780" lon="9.5443500">
	<ele>1553.60</ele>
	<time>2023-10-07T11:13:28.000Z</time>
</trkpt>
<trkpt lat="45.9348840" lon="9.5443650">
	<ele>1553.60</ele>
	<time>2023-10-07T11:13:29.000Z</time>
</trkpt>
<trkpt lat="45.9348900" lon="9.5443820">
	<ele>1553.60</ele>
	<time>2023-10-07T11:13:30.000Z</time>
</trkpt>
<trkpt lat="45.9348980" lon="9.5443970">
	<ele>1553.60</ele>
	<time>2023-10-07T11:13:31.000Z</time>
</trkpt>
<trkpt lat="45.9349040" lon="9.5444110">
	<ele>1553.60</ele>
	<time>2023-10-07T11:13:32.000Z</time>
</trkpt>
<trkpt lat="45.9349100" lon="9.5444230">
	<ele>1553.60</ele>
	<time>2023-10-07T11:13:33.000Z</time>
</trkpt>
<trkpt lat="45.9349140" lon="9.5444360">
	<ele>1553.80</ele>
	<time>2023-10-07T11:13:34.000Z</time>
</trkpt>
<trkpt lat="45.9349160" lon="9.5444440">
	<ele>1553.80</ele>
	<time>2023-10-07T11:13:35.000Z</time>
</trkpt>
<trkpt lat="45.9349220" lon="9.5444530">
	<ele>1554.00</ele>
	<time>2023-10-07T11:13:36.000Z</time>
</trkpt>
<trkpt lat="45.9349290" lon="9.5444590">
	<ele>1554.20</ele>
	<time>2023-10-07T11:13:37.000Z</time>
</trkpt>
<trkpt lat="45.9349350" lon="9.5444660">
	<ele>1554.20</ele>
	<time>2023-10-07T11:13:38.000Z</time>
</trkpt>
<trkpt lat="45.9349420" lon="9.5444770">
	<ele>1554.40</ele>
	<time>2023-10-07T11:13:39.000Z</time>
</trkpt>
<trkpt lat="45.9349500" lon="9.5444860">
	<ele>1554.40</ele>
	<time>2023-10-07T11:13:40.000Z</time>
</trkpt>
<trkpt lat="45.9349590" lon="9.5444930">
	<ele>1554.40</ele>
	<time>2023-10-07T11:13:41.000Z</time>
</trkpt>
<trkpt lat="45.9349700" lon="9.5445010">
	<ele>1554.60</ele>
	<time>2023-10-07T11:13:42.000Z</time>
</trkpt>
<trkpt lat="45.9349830" lon="9.5445080">
	<ele>1554.60</ele>
	<time>2023-10-07T11:13:43.000Z</time>
</trkpt>
<trkpt lat="45.9349920" lon="9.5445140">
	<ele>1554.80</ele>
	<time>2023-10-07T11:13:44.000Z</time>
</trkpt>
<trkpt lat="45.9350010" lon="9.5445220">
	<ele>1554.80</ele>
	<time>2023-10-07T11:13:45.000Z</time>
</trkpt>
<trkpt lat="45.9350110" lon="9.5445280">
	<ele>1555.00</ele>
	<time>2023-10-07T11:13:46.000Z</time>
</trkpt>
<trkpt lat="45.9350200" lon="9.5445330">
	<ele>1555.00</ele>
	<time>2023-10-07T11:13:47.000Z</time>
</trkpt>
<trkpt lat="45.9350330" lon="9.5445410">
	<ele>1555.00</ele>
	<time>2023-10-07T11:13:48.000Z</time>
</trkpt>
<trkpt lat="45.9350380" lon="9.5445530">
	<ele>1555.00</ele>
	<time>2023-10-07T11:13:49.000Z</time>
</trkpt>
<trkpt lat="45.9350460" lon="9.5445600">
	<ele>1554.80</ele>
	<time>2023-10-07T11:13:50.000Z</time>
</trkpt>
<trkpt lat="45.9350560" lon="9.5445730">
	<ele>1554.80</ele>
	<time>2023-10-07T11:13:51.000Z</time>
</trkpt>
<trkpt lat="45.9350680" lon="9.5445830">
	<ele>1554.80</ele>
	<time>2023-10-07T11:13:52.000Z</time>
</trkpt>
<trkpt lat="45.9350800" lon="9.5445930">
	<ele>1554.80</ele>
	<time>2023-10-07T11:13:53.000Z</time>
</trkpt>
<trkpt lat="45.9350940" lon="9.5446050">
	<ele>1554.80</ele>
	<time>2023-10-07T11:13:54.000Z</time>
</trkpt>
<trkpt lat="45.9351020" lon="9.5446210">
	<ele>1554.80</ele>
	<time>2023-10-07T11:13:55.000Z</time>
</trkpt>
<trkpt lat="45.9351090" lon="9.5446350">
	<ele>1554.80</ele>
	<time>2023-10-07T11:13:56.000Z</time>
</trkpt>
<trkpt lat="45.9351130" lon="9.5446480">
	<ele>1555.00</ele>
	<time>2023-10-07T11:13:57.000Z</time>
</trkpt>
<trkpt lat="45.9351200" lon="9.5446620">
	<ele>1555.00</ele>
	<time>2023-10-07T11:13:58.000Z</time>
</trkpt>
<trkpt lat="45.9351250" lon="9.5446800">
	<ele>1555.00</ele>
	<time>2023-10-07T11:13:59.000Z</time>
</trkpt>
<trkpt lat="45.9351250" lon="9.5446990">
	<ele>1555.00</ele>
	<time>2023-10-07T11:14:00.000Z</time>
</trkpt>
<trkpt lat="45.9351260" lon="9.5447190">
	<ele>1555.00</ele>
	<time>2023-10-07T11:14:01.000Z</time>
</trkpt>
<trkpt lat="45.9351240" lon="9.5447380">
	<ele>1555.00</ele>
	<time>2023-10-07T11:14:02.000Z</time>
</trkpt>
<trkpt lat="45.9351200" lon="9.5447540">
	<ele>1555.00</ele>
	<time>2023-10-07T11:14:03.000Z</time>
</trkpt>
<trkpt lat="45.9351170" lon="9.5447670">
	<ele>1555.00</ele>
	<time>2023-10-07T11:14:04.000Z</time>
</trkpt>
<trkpt lat="45.9351170" lon="9.5447820">
	<ele>1555.20</ele>
	<time>2023-10-07T11:14:05.000Z</time>
</trkpt>
<trkpt lat="45.9351170" lon="9.5447960">
	<ele>1555.20</ele>
	<time>2023-10-07T11:14:06.000Z</time>
</trkpt>
<trkpt lat="45.9351170" lon="9.5448120">
	<ele>1555.40</ele>
	<time>2023-10-07T11:14:07.000Z</time>
</trkpt>
<trkpt lat="45.9351170" lon="9.5448250">
	<ele>1555.40</ele>
	<time>2023-10-07T11:14:08.000Z</time>
</trkpt>
<trkpt lat="45.9351180" lon="9.5448380">
	<ele>1555.40</ele>
	<time>2023-10-07T11:14:09.000Z</time>
</trkpt>
<trkpt lat="45.9351180" lon="9.5448500">
	<ele>1555.60</ele>
	<time>2023-10-07T11:14:10.000Z</time>
</trkpt>
<trkpt lat="45.9351220" lon="9.5448620">
	<ele>1555.60</ele>
	<time>2023-10-07T11:14:11.000Z</time>
</trkpt>
<trkpt lat="45.9351270" lon="9.5448710">
	<ele>1555.80</ele>
	<time>2023-10-07T11:14:12.000Z</time>
</trkpt>
<trkpt lat="45.9351320" lon="9.5448810">
	<ele>1555.80</ele>
	<time>2023-10-07T11:14:13.000Z</time>
</trkpt>
<trkpt lat="45.9351390" lon="9.5448920">
	<ele>1556.00</ele>
	<time>2023-10-07T11:14:14.000Z</time>
</trkpt>
<trkpt lat="45.9351420" lon="9.5449020">
	<ele>1556.40</ele>
	<time>2023-10-07T11:14:15.000Z</time>
</trkpt>
<trkpt lat="45.9351440" lon="9.5449170">
	<ele>1556.40</ele>
	<time>2023-10-07T11:14:16.000Z</time>
</trkpt>
<trkpt lat="45.9351450" lon="9.5449310">
	<ele>1556.60</ele>
	<time>2023-10-07T11:14:17.000Z</time>
</trkpt>
<trkpt lat="45.9351470" lon="9.5449410">
	<ele>1556.80</ele>
	<time>2023-10-07T11:14:18.000Z</time>
</trkpt>
<trkpt lat="45.9351510" lon="9.5449500">
	<ele>1557.00</ele>
	<time>2023-10-07T11:14:19.000Z</time>
</trkpt>
<trkpt lat="45.9351550" lon="9.5449590">
	<ele>1557.00</ele>
	<time>2023-10-07T11:14:20.000Z</time>
</trkpt>
<trkpt lat="45.9351630" lon="9.5449680">
	<ele>1557.40</ele>
	<time>2023-10-07T11:14:21.000Z</time>
</trkpt>
<trkpt lat="45.9351700" lon="9.5449810">
	<ele>1557.60</ele>
	<time>2023-10-07T11:14:22.000Z</time>
</trkpt>
<trkpt lat="45.9351720" lon="9.5449930">
	<ele>1557.60</ele>
	<time>2023-10-07T11:14:23.000Z</time>
</trkpt>
<trkpt lat="45.9351740" lon="9.5450060">
	<ele>1557.80</ele>
	<time>2023-10-07T11:14:24.000Z</time>
</trkpt>
<trkpt lat="45.9351740" lon="9.5450220">
	<ele>1558.00</ele>
	<time>2023-10-07T11:14:25.000Z</time>
</trkpt>
<trkpt lat="45.9351750" lon="9.5450350">
	<ele>1558.00</ele>
	<time>2023-10-07T11:14:26.000Z</time>
</trkpt>
<trkpt lat="45.9351780" lon="9.5450450">
	<ele>1558.20</ele>
	<time>2023-10-07T11:14:27.000Z</time>
</trkpt>
<trkpt lat="45.9351820" lon="9.5450610">
	<ele>1558.20</ele>
	<time>2023-10-07T11:14:28.000Z</time>
</trkpt>
<trkpt lat="45.9351820" lon="9.5450760">
	<ele>1558.20</ele>
	<time>2023-10-07T11:14:29.000Z</time>
</trkpt>
<trkpt lat="45.9351840" lon="9.5450870">
	<ele>1558.20</ele>
	<time>2023-10-07T11:14:30.000Z</time>
</trkpt>
<trkpt lat="45.9351860" lon="9.5450980">
	<ele>1558.20</ele>
	<time>2023-10-07T11:14:31.000Z</time>
</trkpt>
<trkpt lat="45.9351890" lon="9.5451070">
	<ele>1558.20</ele>
	<time>2023-10-07T11:14:32.000Z</time>
</trkpt>
<trkpt lat="45.9351950" lon="9.5451170">
	<ele>1558.40</ele>
	<time>2023-10-07T11:14:33.000Z</time>
</trkpt>
<trkpt lat="45.9352010" lon="9.5451260">
	<ele>1558.60</ele>
	<time>2023-10-07T11:14:34.000Z</time>
</trkpt>
<trkpt lat="45.9352030" lon="9.5451390">
	<ele>1558.80</ele>
	<time>2023-10-07T11:14:35.000Z</time>
</trkpt>
<trkpt lat="45.9352070" lon="9.5451490">
	<ele>1558.80</ele>
	<time>2023-10-07T11:14:36.000Z</time>
</trkpt>
<trkpt lat="45.9352100" lon="9.5451570">
	<ele>1559.00</ele>
	<time>2023-10-07T11:14:37.000Z</time>
</trkpt>
<trkpt lat="45.9352160" lon="9.5451610">
	<ele>1559.20</ele>
	<time>2023-10-07T11:14:38.000Z</time>
</trkpt>
<trkpt lat="45.9352240" lon="9.5451610">
	<ele>1559.40</ele>
	<time>2023-10-07T11:14:39.000Z</time>
</trkpt>
<trkpt lat="45.9352280" lon="9.5451640">
	<ele>1559.60</ele>
	<time>2023-10-07T11:14:40.000Z</time>
</trkpt>
<trkpt lat="45.9352300" lon="9.5451710">
	<ele>1559.80</ele>
	<time>2023-10-07T11:14:41.000Z</time>
</trkpt>
<trkpt lat="45.9352330" lon="9.5451820">
	<ele>1560.00</ele>
	<time>2023-10-07T11:14:42.000Z</time>
</trkpt>
<trkpt lat="45.9352340" lon="9.5451910">
	<ele>1560.20</ele>
	<time>2023-10-07T11:14:43.000Z</time>
</trkpt>
<trkpt lat="45.9352370" lon="9.5452030">
	<ele>1560.20</ele>
	<time>2023-10-07T11:14:44.000Z</time>
</trkpt>
<trkpt lat="45.9352360" lon="9.5452130">
	<ele>1560.40</ele>
	<time>2023-10-07T11:14:45.000Z</time>
</trkpt>
<trkpt lat="45.9352390" lon="9.5452190">
	<ele>1560.40</ele>
	<time>2023-10-07T11:14:46.000Z</time>
</trkpt>
<trkpt lat="45.9352420" lon="9.5452290">
	<ele>1560.60</ele>
	<time>2023-10-07T11:14:47.000Z</time>
</trkpt>
<trkpt lat="45.9352450" lon="9.5452460">
	<ele>1560.60</ele>
	<time>2023-10-07T11:14:48.000Z</time>
</trkpt>
<trkpt lat="45.9352500" lon="9.5452620">
	<ele>1560.80</ele>
	<time>2023-10-07T11:14:49.000Z</time>
</trkpt>
<trkpt lat="45.9352570" lon="9.5452760">
	<ele>1560.80</ele>
	<time>2023-10-07T11:14:50.000Z</time>
</trkpt>
<trkpt lat="45.9352620" lon="9.5452880">
	<ele>1560.80</ele>
	<time>2023-10-07T11:14:51.000Z</time>
</trkpt>
<trkpt lat="45.9352640" lon="9.5452990">
	<ele>1560.80</ele>
	<time>2023-10-07T11:14:52.000Z</time>
</trkpt>
<trkpt lat="45.9352660" lon="9.5453090">
	<ele>1561.00</ele>
	<time>2023-10-07T11:14:53.000Z</time>
</trkpt>
<trkpt lat="45.9352690" lon="9.5453240">
	<ele>1561.00</ele>
	<time>2023-10-07T11:14:54.000Z</time>
</trkpt>
<trkpt lat="45.9352720" lon="9.5453420">
	<ele>1561.20</ele>
	<time>2023-10-07T11:14:55.000Z</time>
</trkpt>
<trkpt lat="45.9352740" lon="9.5453520">
	<ele>1561.20</ele>
	<time>2023-10-07T11:14:56.000Z</time>
</trkpt>
<trkpt lat="45.9352720" lon="9.5453650">
	<ele>1561.20</ele>
	<time>2023-10-07T11:14:57.000Z</time>
</trkpt>
<trkpt lat="45.9352640" lon="9.5453760">
	<ele>1561.40</ele>
	<time>2023-10-07T11:14:58.000Z</time>
</trkpt>
<trkpt lat="45.9352600" lon="9.5453910">
	<ele>1561.60</ele>
	<time>2023-10-07T11:14:59.000Z</time>
</trkpt>
<trkpt lat="45.9352560" lon="9.5454030">
	<ele>1561.80</ele>
	<time>2023-10-07T11:15:00.000Z</time>
</trkpt>
<trkpt lat="45.9352510" lon="9.5454130">
	<ele>1562.00</ele>
	<time>2023-10-07T11:15:01.000Z</time>
</trkpt>
<trkpt lat="45.9352450" lon="9.5454250">
	<ele>1562.20</ele>
	<time>2023-10-07T11:15:02.000Z</time>
</trkpt>
<trkpt lat="45.9352380" lon="9.5454380">
	<ele>1562.20</ele>
	<time>2023-10-07T11:15:03.000Z</time>
</trkpt>
<trkpt lat="45.9352340" lon="9.5454430">
	<ele>1562.20</ele>
	<time>2023-10-07T11:15:04.000Z</time>
</trkpt>
<trkpt lat="45.9352280" lon="9.5454570">
	<ele>1562.40</ele>
	<time>2023-10-07T11:15:05.000Z</time>
</trkpt>
<trkpt lat="45.9352240" lon="9.5454680">
	<ele>1562.40</ele>
	<time>2023-10-07T11:15:06.000Z</time>
</trkpt>
<trkpt lat="45.9352170" lon="9.5454890">
	<ele>1562.40</ele>
	<time>2023-10-07T11:15:07.000Z</time>
</trkpt>
<trkpt lat="45.9352150" lon="9.5454990">
	<ele>1562.40</ele>
	<time>2023-10-07T11:15:08.000Z</time>
</trkpt>
<trkpt lat="45.9352120" lon="9.5455090">
	<ele>1562.20</ele>
	<time>2023-10-07T11:15:09.000Z</time>
</trkpt>
<trkpt lat="45.9352040" lon="9.5455190">
	<ele>1562.20</ele>
	<time>2023-10-07T11:15:10.000Z</time>
</trkpt>
<trkpt lat="45.9351940" lon="9.5455280">
	<ele>1562.20</ele>
	<time>2023-10-07T11:15:11.000Z</time>
</trkpt>
<trkpt lat="45.9351840" lon="9.5455390">
	<ele>1562.20</ele>
	<time>2023-10-07T11:15:12.000Z</time>
</trkpt>
<trkpt lat="45.9351750" lon="9.5455510">
	<ele>1562.20</ele>
	<time>2023-10-07T11:15:13.000Z</time>
</trkpt>
<trkpt lat="45.9351670" lon="9.5455570">
	<ele>1562.40</ele>
	<time>2023-10-07T11:15:14.000Z</time>
</trkpt>
<trkpt lat="45.9351600" lon="9.5455660">
	<ele>1562.40</ele>
	<time>2023-10-07T11:15:15.000Z</time>
</trkpt>
<trkpt lat="45.9351540" lon="9.5455760">
	<ele>1562.60</ele>
	<time>2023-10-07T11:15:16.000Z</time>
</trkpt>
<trkpt lat="45.9351490" lon="9.5455820">
	<ele>1562.80</ele>
	<time>2023-10-07T11:15:17.000Z</time>
</trkpt>
<trkpt lat="45.9351420" lon="9.5455880">
	<ele>1562.80</ele>
	<time>2023-10-07T11:15:18.000Z</time>
</trkpt>
<trkpt lat="45.9351320" lon="9.5455950">
	<ele>1563.00</ele>
	<time>2023-10-07T11:15:19.000Z</time>
</trkpt>
<trkpt lat="45.9351200" lon="9.5456060">
	<ele>1563.00</ele>
	<time>2023-10-07T11:15:20.000Z</time>
</trkpt>
<trkpt lat="45.9351090" lon="9.5456150">
	<ele>1563.00</ele>
	<time>2023-10-07T11:15:21.000Z</time>
</trkpt>
<trkpt lat="45.9350980" lon="9.5456250">
	<ele>1563.00</ele>
	<time>2023-10-07T11:15:22.000Z</time>
</trkpt>
<trkpt lat="45.9350880" lon="9.5456330">
	<ele>1563.00</ele>
	<time>2023-10-07T11:15:23.000Z</time>
</trkpt>
<trkpt lat="45.9350770" lon="9.5456430">
	<ele>1562.80</ele>
	<time>2023-10-07T11:15:24.000Z</time>
</trkpt>
<trkpt lat="45.9350710" lon="9.5456510">
	<ele>1562.80</ele>
	<time>2023-10-07T11:15:25.000Z</time>
</trkpt>
<trkpt lat="45.9350670" lon="9.5456620">
	<ele>1562.80</ele>
	<time>2023-10-07T11:15:26.000Z</time>
</trkpt>
<trkpt lat="45.9350590" lon="9.5456770">
	<ele>1562.60</ele>
	<time>2023-10-07T11:15:27.000Z</time>
</trkpt>
<trkpt lat="45.9350510" lon="9.5456920">
	<ele>1562.60</ele>
	<time>2023-10-07T11:15:28.000Z</time>
</trkpt>
<trkpt lat="45.9350410" lon="9.5457090">
	<ele>1562.80</ele>
	<time>2023-10-07T11:15:29.000Z</time>
</trkpt>
<trkpt lat="45.9350330" lon="9.5457240">
	<ele>1562.80</ele>
	<time>2023-10-07T11:15:30.000Z</time>
</trkpt>
<trkpt lat="45.9350250" lon="9.5457400">
	<ele>1563.00</ele>
	<time>2023-10-07T11:15:31.000Z</time>
</trkpt>
<trkpt lat="45.9350170" lon="9.5457570">
	<ele>1563.00</ele>
	<time>2023-10-07T11:15:32.000Z</time>
</trkpt>
<trkpt lat="45.9350100" lon="9.5457690">
	<ele>1563.00</ele>
	<time>2023-10-07T11:15:33.000Z</time>
</trkpt>
<trkpt lat="45.9350050" lon="9.5457770">
	<ele>1563.00</ele>
	<time>2023-10-07T11:15:34.000Z</time>
</trkpt>
<trkpt lat="45.9350000" lon="9.5457860">
	<ele>1563.00</ele>
	<time>2023-10-07T11:15:35.000Z</time>
</trkpt>
<trkpt lat="45.9349950" lon="9.5457920">
	<ele>1562.80</ele>
	<time>2023-10-07T11:15:36.000Z</time>
</trkpt>
<trkpt lat="45.9349910" lon="9.5458040">
	<ele>1562.80</ele>
	<time>2023-10-07T11:15:37.000Z</time>
</trkpt>
<trkpt lat="45.9349830" lon="9.5458160">
	<ele>1562.60</ele>
	<time>2023-10-07T11:15:38.000Z</time>
</trkpt>
<trkpt lat="45.9349720" lon="9.5458250">
	<ele>1562.40</ele>
	<time>2023-10-07T11:15:39.000Z</time>
</trkpt>
<trkpt lat="45.9349610" lon="9.5458310">
	<ele>1562.20</ele>
	<time>2023-10-07T11:15:40.000Z</time>
</trkpt>
<trkpt lat="45.9349510" lon="9.5458380">
	<ele>1562.00</ele>
	<time>2023-10-07T11:15:41.000Z</time>
</trkpt>
<trkpt lat="45.9349410" lon="9.5458490">
	<ele>1561.60</ele>
	<time>2023-10-07T11:15:42.000Z</time>
</trkpt>
<trkpt lat="45.9349320" lon="9.5458590">
	<ele>1561.40</ele>
	<time>2023-10-07T11:15:43.000Z</time>
</trkpt>
<trkpt lat="45.9349230" lon="9.5458710">
	<ele>1561.40</ele>
	<time>2023-10-07T11:15:44.000Z</time>
</trkpt>
<trkpt lat="45.9349150" lon="9.5458850">
	<ele>1561.20</ele>
	<time>2023-10-07T11:15:45.000Z</time>
</trkpt>
<trkpt lat="45.9349080" lon="9.5459050">
	<ele>1561.20</ele>
	<time>2023-10-07T11:15:46.000Z</time>
</trkpt>
<trkpt lat="45.9349040" lon="9.5459170">
	<ele>1561.00</ele>
	<time>2023-10-07T11:15:47.000Z</time>
</trkpt>
<trkpt lat="45.9348980" lon="9.5459350">
	<ele>1561.00</ele>
	<time>2023-10-07T11:15:48.000Z</time>
</trkpt>
<trkpt lat="45.9348950" lon="9.5459510">
	<ele>1561.00</ele>
	<time>2023-10-07T11:15:49.000Z</time>
</trkpt>
<trkpt lat="45.9348900" lon="9.5459650">
	<ele>1561.00</ele>
	<time>2023-10-07T11:15:50.000Z</time>
</trkpt>
<trkpt lat="45.9348850" lon="9.5459800">
	<ele>1560.80</ele>
	<time>2023-10-07T11:15:51.000Z</time>
</trkpt>
<trkpt lat="45.9348780" lon="9.5460000">
	<ele>1561.00</ele>
	<time>2023-10-07T11:15:52.000Z</time>
</trkpt>
<trkpt lat="45.9348720" lon="9.5460250">
	<ele>1561.00</ele>
	<time>2023-10-07T11:15:53.000Z</time>
</trkpt>
<trkpt lat="45.9348690" lon="9.5460390">
	<ele>1561.00</ele>
	<time>2023-10-07T11:15:54.000Z</time>
</trkpt>
<trkpt lat="45.9348620" lon="9.5460570">
	<ele>1561.00</ele>
	<time>2023-10-07T11:15:55.000Z</time>
</trkpt>
<trkpt lat="45.9348600" lon="9.5460740">
	<ele>1561.00</ele>
	<time>2023-10-07T11:15:56.000Z</time>
</trkpt>
<trkpt lat="45.9348580" lon="9.5460900">
	<ele>1561.00</ele>
	<time>2023-10-07T11:15:57.000Z</time>
</trkpt>
<trkpt lat="45.9348570" lon="9.5461070">
	<ele>1561.00</ele>
	<time>2023-10-07T11:15:58.000Z</time>
</trkpt>
<trkpt lat="45.9348560" lon="9.5461220">
	<ele>1561.00</ele>
	<time>2023-10-07T11:15:59.000Z</time>
</trkpt>
<trkpt lat="45.9348530" lon="9.5461370">
	<ele>1561.20</ele>
	<time>2023-10-07T11:16:00.000Z</time>
</trkpt>
<trkpt lat="45.9348520" lon="9.5461500">
	<ele>1561.20</ele>
	<time>2023-10-07T11:16:01.000Z</time>
</trkpt>
<trkpt lat="45.9348550" lon="9.5461610">
	<ele>1561.00</ele>
	<time>2023-10-07T11:16:02.000Z</time>
</trkpt>
<trkpt lat="45.9348600" lon="9.5461800">
	<ele>1561.00</ele>
	<time>2023-10-07T11:16:03.000Z</time>
</trkpt>
<trkpt lat="45.9348630" lon="9.5461950">
	<ele>1561.00</ele>
	<time>2023-10-07T11:16:04.000Z</time>
</trkpt>
<trkpt lat="45.9348610" lon="9.5462070">
	<ele>1561.00</ele>
	<time>2023-10-07T11:16:05.000Z</time>
</trkpt>
<trkpt lat="45.9348610" lon="9.5462220">
	<ele>1561.00</ele>
	<time>2023-10-07T11:16:06.000Z</time>
</trkpt>
<trkpt lat="45.9348580" lon="9.5462410">
	<ele>1560.80</ele>
	<time>2023-10-07T11:16:07.000Z</time>
</trkpt>
<trkpt lat="45.9348480" lon="9.5462580">
	<ele>1560.80</ele>
	<time>2023-10-07T11:16:08.000Z</time>
</trkpt>
<trkpt lat="45.9348380" lon="9.5462760">
	<ele>1560.60</ele>
	<time>2023-10-07T11:16:09.000Z</time>
</trkpt>
<trkpt lat="45.9348260" lon="9.5462890">
	<ele>1560.60</ele>
	<time>2023-10-07T11:16:10.000Z</time>
</trkpt>
<trkpt lat="45.9348160" lon="9.5462960">
	<ele>1560.60</ele>
	<time>2023-10-07T11:16:11.000Z</time>
</trkpt>
<trkpt lat="45.9348080" lon="9.5463000">
	<ele>1560.60</ele>
	<time>2023-10-07T11:16:12.000Z</time>
</trkpt>
<trkpt lat="45.9347970" lon="9.5463130">
	<ele>1560.60</ele>
	<time>2023-10-07T11:16:13.000Z</time>
</trkpt>
<trkpt lat="45.9347860" lon="9.5463160">
	<ele>1561.00</ele>
	<time>2023-10-07T11:16:14.000Z</time>
</trkpt>
<trkpt lat="45.9347680" lon="9.5463280">
	<ele>1561.20</ele>
	<time>2023-10-07T11:16:15.000Z</time>
</trkpt>
<trkpt lat="45.9347570" lon="9.5463430">
	<ele>1561.20</ele>
	<time>2023-10-07T11:16:16.000Z</time>
</trkpt>
<trkpt lat="45.9347490" lon="9.5463510">
	<ele>1561.40</ele>
	<time>2023-10-07T11:16:17.000Z</time>
</trkpt>
<trkpt lat="45.9347450" lon="9.5463580">
	<ele>1561.40</ele>
	<time>2023-10-07T11:16:18.000Z</time>
</trkpt>
<trkpt lat="45.9347370" lon="9.5463640">
	<ele>1561.60</ele>
	<time>2023-10-07T11:16:19.000Z</time>
</trkpt>
<trkpt lat="45.9347270" lon="9.5463700">
	<ele>1561.60</ele>
	<time>2023-10-07T11:16:20.000Z</time>
</trkpt>
<trkpt lat="45.9347210" lon="9.5463770">
	<ele>1561.80</ele>
	<time>2023-10-07T11:16:21.000Z</time>
</trkpt>
<trkpt lat="45.9347120" lon="9.5463880">
	<ele>1562.00</ele>
	<time>2023-10-07T11:16:22.000Z</time>
</trkpt>
<trkpt lat="45.9347040" lon="9.5463970">
	<ele>1562.20</ele>
	<time>2023-10-07T11:16:23.000Z</time>
</trkpt>
<trkpt lat="45.9346970" lon="9.5464110">
	<ele>1562.20</ele>
	<time>2023-10-07T11:16:24.000Z</time>
</trkpt>
<trkpt lat="45.9346900" lon="9.5464250">
	<ele>1562.20</ele>
	<time>2023-10-07T11:16:25.000Z</time>
</trkpt>
<trkpt lat="45.9346870" lon="9.5464400">
	<ele>1562.20</ele>
	<time>2023-10-07T11:16:26.000Z</time>
</trkpt>
<trkpt lat="45.9346830" lon="9.5464530">
	<ele>1562.40</ele>
	<time>2023-10-07T11:16:27.000Z</time>
</trkpt>
<trkpt lat="45.9346780" lon="9.5464650">
	<ele>1562.20</ele>
	<time>2023-10-07T11:16:28.000Z</time>
</trkpt>
<trkpt lat="45.9346720" lon="9.5464800">
	<ele>1562.20</ele>
	<time>2023-10-07T11:16:29.000Z</time>
</trkpt>
<trkpt lat="45.9346630" lon="9.5464950">
	<ele>1562.20</ele>
	<time>2023-10-07T11:16:30.000Z</time>
</trkpt>
<trkpt lat="45.9346550" lon="9.5465030">
	<ele>1562.20</ele>
	<time>2023-10-07T11:16:31.000Z</time>
</trkpt>
<trkpt lat="45.9346470" lon="9.5465120">
	<ele>1562.00</ele>
	<time>2023-10-07T11:16:32.000Z</time>
</trkpt>
<trkpt lat="45.9346440" lon="9.5465240">
	<ele>1562.00</ele>
	<time>2023-10-07T11:16:33.000Z</time>
</trkpt>
<trkpt lat="45.9346390" lon="9.5465380">
	<ele>1561.80</ele>
	<time>2023-10-07T11:16:34.000Z</time>
</trkpt>
<trkpt lat="45.9346320" lon="9.5465480">
	<ele>1561.40</ele>
	<time>2023-10-07T11:16:35.000Z</time>
</trkpt>
<trkpt lat="45.9346250" lon="9.5465550">
	<ele>1561.20</ele>
	<time>2023-10-07T11:16:36.000Z</time>
</trkpt>
<trkpt lat="45.9346210" lon="9.5465640">
	<ele>1561.00</ele>
	<time>2023-10-07T11:16:37.000Z</time>
</trkpt>
<trkpt lat="45.9346150" lon="9.5465810">
	<ele>1561.00</ele>
	<time>2023-10-07T11:16:38.000Z</time>
</trkpt>
<trkpt lat="45.9346110" lon="9.5465940">
	<ele>1560.80</ele>
	<time>2023-10-07T11:16:39.000Z</time>
</trkpt>
<trkpt lat="45.9346050" lon="9.5466050">
	<ele>1560.80</ele>
	<time>2023-10-07T11:16:40.000Z</time>
</trkpt>
<trkpt lat="45.9346010" lon="9.5466210">
	<ele>1560.60</ele>
	<time>2023-10-07T11:16:41.000Z</time>
</trkpt>
<trkpt lat="45.9345930" lon="9.5466340">
	<ele>1560.60</ele>
	<time>2023-10-07T11:16:42.000Z</time>
</trkpt>
<trkpt lat="45.9345880" lon="9.5466490">
	<ele>1560.40</ele>
	<time>2023-10-07T11:16:43.000Z</time>
</trkpt>
<trkpt lat="45.9345830" lon="9.5466650">
	<ele>1560.20</ele>
	<time>2023-10-07T11:16:44.000Z</time>
</trkpt>
<trkpt lat="45.9345750" lon="9.5466790">
	<ele>1560.20</ele>
	<time>2023-10-07T11:16:45.000Z</time>
</trkpt>
<trkpt lat="45.9345700" lon="9.5466880">
	<ele>1560.00</ele>
	<time>2023-10-07T11:16:46.000Z</time>
</trkpt>
<trkpt lat="45.9345630" lon="9.5467030">
	<ele>1559.80</ele>
	<time>2023-10-07T11:16:47.000Z</time>
</trkpt>
<trkpt lat="45.9345580" lon="9.5467170">
	<ele>1559.80</ele>
	<time>2023-10-07T11:16:48.000Z</time>
</trkpt>
<trkpt lat="45.9345510" lon="9.5467330">
	<ele>1559.80</ele>
	<time>2023-10-07T11:16:49.000Z</time>
</trkpt>
<trkpt lat="45.9345470" lon="9.5467450">
	<ele>1559.80</ele>
	<time>2023-10-07T11:16:50.000Z</time>
</trkpt>
<trkpt lat="45.9345430" lon="9.5467600">
	<ele>1559.80</ele>
	<time>2023-10-07T11:16:51.000Z</time>
</trkpt>
<trkpt lat="45.9345340" lon="9.5467720">
	<ele>1559.60</ele>
	<time>2023-10-07T11:16:52.000Z</time>
</trkpt>
<trkpt lat="45.9345270" lon="9.5467860">
	<ele>1559.60</ele>
	<time>2023-10-07T11:16:53.000Z</time>
</trkpt>
<trkpt lat="45.9345190" lon="9.5468010">
	<ele>1559.60</ele>
	<time>2023-10-07T11:16:54.000Z</time>
</trkpt>
<trkpt lat="45.9345110" lon="9.5468150">
	<ele>1559.60</ele>
	<time>2023-10-07T11:16:55.000Z</time>
</trkpt>
<trkpt lat="45.9345050" lon="9.5468290">
	<ele>1559.60</ele>
	<time>2023-10-07T11:16:56.000Z</time>
</trkpt>
<trkpt lat="45.9344990" lon="9.5468400">
	<ele>1559.80</ele>
	<time>2023-10-07T11:16:57.000Z</time>
</trkpt>
<trkpt lat="45.9344920" lon="9.5468490">
	<ele>1560.00</ele>
	<time>2023-10-07T11:16:58.000Z</time>
</trkpt>
<trkpt lat="45.9344840" lon="9.5468610">
	<ele>1560.00</ele>
	<time>2023-10-07T11:16:59.000Z</time>
</trkpt>
<trkpt lat="45.9344770" lon="9.5468750">
	<ele>1560.00</ele>
	<time>2023-10-07T11:17:00.000Z</time>
</trkpt>
<trkpt lat="45.9344680" lon="9.5468890">
	<ele>1560.20</ele>
	<time>2023-10-07T11:17:01.000Z</time>
</trkpt>
<trkpt lat="45.9344580" lon="9.5469010">
	<ele>1560.20</ele>
	<time>2023-10-07T11:17:02.000Z</time>
</trkpt>
<trkpt lat="45.9344480" lon="9.5469150">
	<ele>1560.00</ele>
	<time>2023-10-07T11:17:03.000Z</time>
</trkpt>
<trkpt lat="45.9344370" lon="9.5469260">
	<ele>1560.00</ele>
	<time>2023-10-07T11:17:04.000Z</time>
</trkpt>
<trkpt lat="45.9344260" lon="9.5469360">
	<ele>1560.00</ele>
	<time>2023-10-07T11:17:05.000Z</time>
</trkpt>
<trkpt lat="45.9344170" lon="9.5469460">
	<ele>1560.00</ele>
	<time>2023-10-07T11:17:06.000Z</time>
</trkpt>
<trkpt lat="45.9344100" lon="9.5469570">
	<ele>1560.00</ele>
	<time>2023-10-07T11:17:07.000Z</time>
</trkpt>
<trkpt lat="45.9344010" lon="9.5469730">
	<ele>1560.00</ele>
	<time>2023-10-07T11:17:08.000Z</time>
</trkpt>
<trkpt lat="45.9343920" lon="9.5469870">
	<ele>1560.20</ele>
	<time>2023-10-07T11:17:09.000Z</time>
</trkpt>
<trkpt lat="45.9343880" lon="9.5469990">
	<ele>1560.20</ele>
	<time>2023-10-07T11:17:10.000Z</time>
</trkpt>
<trkpt lat="45.9343840" lon="9.5470100">
	<ele>1560.20</ele>
	<time>2023-10-07T11:17:11.000Z</time>
</trkpt>
<trkpt lat="45.9343780" lon="9.5470260">
	<ele>1560.40</ele>
	<time>2023-10-07T11:17:12.000Z</time>
</trkpt>
<trkpt lat="45.9343710" lon="9.5470430">
	<ele>1560.40</ele>
	<time>2023-10-07T11:17:13.000Z</time>
</trkpt>
<trkpt lat="45.9343660" lon="9.5470580">
	<ele>1560.60</ele>
	<time>2023-10-07T11:17:14.000Z</time>
</trkpt>
<trkpt lat="45.9343600" lon="9.5470710">
	<ele>1560.60</ele>
	<time>2023-10-07T11:17:15.000Z</time>
</trkpt>
<trkpt lat="45.9343530" lon="9.5470830">
	<ele>1560.80</ele>
	<time>2023-10-07T11:17:16.000Z</time>
</trkpt>
<trkpt lat="45.9343410" lon="9.5470980">
	<ele>1561.00</ele>
	<time>2023-10-07T11:17:17.000Z</time>
</trkpt>
<trkpt lat="45.9343300" lon="9.5471100">
	<ele>1561.00</ele>
	<time>2023-10-07T11:17:18.000Z</time>
</trkpt>
<trkpt lat="45.9343220" lon="9.5471210">
	<ele>1561.00</ele>
	<time>2023-10-07T11:17:19.000Z</time>
</trkpt>
<trkpt lat="45.9343170" lon="9.5471320">
	<ele>1561.20</ele>
	<time>2023-10-07T11:17:20.000Z</time>
</trkpt>
<trkpt lat="45.9343130" lon="9.5471460">
	<ele>1561.20</ele>
	<time>2023-10-07T11:17:21.000Z</time>
</trkpt>
<trkpt lat="45.9343100" lon="9.5471620">
	<ele>1561.20</ele>
	<time>2023-10-07T11:17:22.000Z</time>
</trkpt>
<trkpt lat="45.9343090" lon="9.5471780">
	<ele>1561.60</ele>
	<time>2023-10-07T11:17:23.000Z</time>
</trkpt>
<trkpt lat="45.9343060" lon="9.5471950">
	<ele>1561.80</ele>
	<time>2023-10-07T11:17:24.000Z</time>
</trkpt>
<trkpt lat="45.9343020" lon="9.5472100">
	<ele>1562.00</ele>
	<time>2023-10-07T11:17:25.000Z</time>
</trkpt>
<trkpt lat="45.9342980" lon="9.5472230">
	<ele>1562.20</ele>
	<time>2023-10-07T11:17:26.000Z</time>
</trkpt>
<trkpt lat="45.9342950" lon="9.5472320">
	<ele>1562.20</ele>
	<time>2023-10-07T11:17:27.000Z</time>
</trkpt>
<trkpt lat="45.9342940" lon="9.5472470">
	<ele>1562.40</ele>
	<time>2023-10-07T11:17:28.000Z</time>
</trkpt>
<trkpt lat="45.9342930" lon="9.5472620">
	<ele>1562.80</ele>
	<time>2023-10-07T11:17:29.000Z</time>
</trkpt>
<trkpt lat="45.9342920" lon="9.5472720">
	<ele>1562.80</ele>
	<time>2023-10-07T11:17:30.000Z</time>
</trkpt>
<trkpt lat="45.9342930" lon="9.5472870">
	<ele>1563.00</ele>
	<time>2023-10-07T11:17:31.000Z</time>
</trkpt>
<trkpt lat="45.9342970" lon="9.5473030">
	<ele>1563.00</ele>
	<time>2023-10-07T11:17:32.000Z</time>
</trkpt>
<trkpt lat="45.9342970" lon="9.5473200">
	<ele>1563.20</ele>
	<time>2023-10-07T11:17:33.000Z</time>
</trkpt>
<trkpt lat="45.9342930" lon="9.5473330">
	<ele>1563.20</ele>
	<time>2023-10-07T11:17:34.000Z</time>
</trkpt>
<trkpt lat="45.9342910" lon="9.5473470">
	<ele>1563.20</ele>
	<time>2023-10-07T11:17:35.000Z</time>
</trkpt>
<trkpt lat="45.9342890" lon="9.5473650">
	<ele>1563.40</ele>
	<time>2023-10-07T11:17:36.000Z</time>
</trkpt>
<trkpt lat="45.9342870" lon="9.5473790">
	<ele>1563.40</ele>
	<time>2023-10-07T11:17:37.000Z</time>
</trkpt>
<trkpt lat="45.9342860" lon="9.5473940">
	<ele>1563.60</ele>
	<time>2023-10-07T11:17:38.000Z</time>
</trkpt>
<trkpt lat="45.9342820" lon="9.5474050">
	<ele>1563.60</ele>
	<time>2023-10-07T11:17:39.000Z</time>
</trkpt>
<trkpt lat="45.9342810" lon="9.5474220">
	<ele>1563.80</ele>
	<time>2023-10-07T11:17:40.000Z</time>
</trkpt>
<trkpt lat="45.9342800" lon="9.5474380">
	<ele>1563.80</ele>
	<time>2023-10-07T11:17:41.000Z</time>
</trkpt>
<trkpt lat="45.9342800" lon="9.5474570">
	<ele>1564.00</ele>
	<time>2023-10-07T11:17:42.000Z</time>
</trkpt>
<trkpt lat="45.9342780" lon="9.5474790">
	<ele>1564.00</ele>
	<time>2023-10-07T11:17:43.000Z</time>
</trkpt>
<trkpt lat="45.9342730" lon="9.5474950">
	<ele>1564.20</ele>
	<time>2023-10-07T11:17:44.000Z</time>
</trkpt>
<trkpt lat="45.9342670" lon="9.5475120">
	<ele>1564.20</ele>
	<time>2023-10-07T11:17:45.000Z</time>
</trkpt>
<trkpt lat="45.9342640" lon="9.5475270">
	<ele>1564.40</ele>
	<time>2023-10-07T11:17:46.000Z</time>
</trkpt>
<trkpt lat="45.9342620" lon="9.5475400">
	<ele>1564.40</ele>
	<time>2023-10-07T11:17:47.000Z</time>
</trkpt>
<trkpt lat="45.9342580" lon="9.5475580">
	<ele>1564.60</ele>
	<time>2023-10-07T11:17:48.000Z</time>
</trkpt>
<trkpt lat="45.9342540" lon="9.5475730">
	<ele>1564.60</ele>
	<time>2023-10-07T11:17:49.000Z</time>
</trkpt>
<trkpt lat="45.9342490" lon="9.5475880">
	<ele>1564.60</ele>
	<time>2023-10-07T11:17:50.000Z</time>
</trkpt>
<trkpt lat="45.9342440" lon="9.5476050">
	<ele>1564.80</ele>
	<time>2023-10-07T11:17:51.000Z</time>
</trkpt>
<trkpt lat="45.9342390" lon="9.5476220">
	<ele>1564.80</ele>
	<time>2023-10-07T11:17:52.000Z</time>
</trkpt>
<trkpt lat="45.9342360" lon="9.5476400">
	<ele>1564.80</ele>
	<time>2023-10-07T11:17:53.000Z</time>
</trkpt>
<trkpt lat="45.9342350" lon="9.5476550">
	<ele>1564.80</ele>
	<time>2023-10-07T11:17:54.000Z</time>
</trkpt>
<trkpt lat="45.9342310" lon="9.5476690">
	<ele>1564.80</ele>
	<time>2023-10-07T11:17:55.000Z</time>
</trkpt>
<trkpt lat="45.9342260" lon="9.5476860">
	<ele>1564.80</ele>
	<time>2023-10-07T11:17:56.000Z</time>
</trkpt>
<trkpt lat="45.9342210" lon="9.5477050">
	<ele>1564.80</ele>
	<time>2023-10-07T11:17:57.000Z</time>
</trkpt>
<trkpt lat="45.9342150" lon="9.5477200">
	<ele>1564.80</ele>
	<time>2023-10-07T11:17:58.000Z</time>
</trkpt>
<trkpt lat="45.9342100" lon="9.5477310">
	<ele>1564.80</ele>
	<time>2023-10-07T11:17:59.000Z</time>
</trkpt>
<trkpt lat="45.9342030" lon="9.5477440">
	<ele>1565.00</ele>
	<time>2023-10-07T11:18:00.000Z</time>
</trkpt>
<trkpt lat="45.9341950" lon="9.5477580">
	<ele>1565.00</ele>
	<time>2023-10-07T11:18:01.000Z</time>
</trkpt>
<trkpt lat="45.9341870" lon="9.5477700">
	<ele>1565.00</ele>
	<time>2023-10-07T11:18:02.000Z</time>
</trkpt>
<trkpt lat="45.9341800" lon="9.5477810">
	<ele>1565.00</ele>
	<time>2023-10-07T11:18:03.000Z</time>
</trkpt>
<trkpt lat="45.9341730" lon="9.5477970">
	<ele>1565.00</ele>
	<time>2023-10-07T11:18:04.000Z</time>
</trkpt>
<trkpt lat="45.9341650" lon="9.5478130">
	<ele>1565.20</ele>
	<time>2023-10-07T11:18:05.000Z</time>
</trkpt>
<trkpt lat="45.9341580" lon="9.5478290">
	<ele>1565.20</ele>
	<time>2023-10-07T11:18:06.000Z</time>
</trkpt>
<trkpt lat="45.9341500" lon="9.5478460">
	<ele>1565.20</ele>
	<time>2023-10-07T11:18:07.000Z</time>
</trkpt>
<trkpt lat="45.9341470" lon="9.5478610">
	<ele>1565.20</ele>
	<time>2023-10-07T11:18:08.000Z</time>
</trkpt>
<trkpt lat="45.9341420" lon="9.5478820">
	<ele>1565.20</ele>
	<time>2023-10-07T11:18:09.000Z</time>
</trkpt>
<trkpt lat="45.9341390" lon="9.5479000">
	<ele>1565.20</ele>
	<time>2023-10-07T11:18:10.000Z</time>
</trkpt>
<trkpt lat="45.9341360" lon="9.5479100">
	<ele>1565.20</ele>
	<time>2023-10-07T11:18:11.000Z</time>
</trkpt>
<trkpt lat="45.9341270" lon="9.5479270">
	<ele>1565.40</ele>
	<time>2023-10-07T11:18:12.000Z</time>
</trkpt>
<trkpt lat="45.9341200" lon="9.5479410">
	<ele>1565.40</ele>
	<time>2023-10-07T11:18:13.000Z</time>
</trkpt>
<trkpt lat="45.9341130" lon="9.5479560">
	<ele>1565.40</ele>
	<time>2023-10-07T11:18:14.000Z</time>
</trkpt>
<trkpt lat="45.9341050" lon="9.5479710">
	<ele>1565.40</ele>
	<time>2023-10-07T11:18:15.000Z</time>
</trkpt>
<trkpt lat="45.9340990" lon="9.5479850">
	<ele>1565.60</ele>
	<time>2023-10-07T11:18:16.000Z</time>
</trkpt>
<trkpt lat="45.9340950" lon="9.5479960">
	<ele>1565.60</ele>
	<time>2023-10-07T11:18:17.000Z</time>
</trkpt>
<trkpt lat="45.9340910" lon="9.5480110">
	<ele>1565.60</ele>
	<time>2023-10-07T11:18:18.000Z</time>
</trkpt>
<trkpt lat="45.9340870" lon="9.5480250">
	<ele>1565.40</ele>
	<time>2023-10-07T11:18:19.000Z</time>
</trkpt>
<trkpt lat="45.9340820" lon="9.5480390">
	<ele>1565.60</ele>
	<time>2023-10-07T11:18:20.000Z</time>
</trkpt>
<trkpt lat="45.9340780" lon="9.5480520">
	<ele>1565.60</ele>
	<time>2023-10-07T11:18:21.000Z</time>
</trkpt>
<trkpt lat="45.9340750" lon="9.5480610">
	<ele>1566.00</ele>
	<time>2023-10-07T11:18:22.000Z</time>
</trkpt>
<trkpt lat="45.9340720" lon="9.5480720">
	<ele>1566.00</ele>
	<time>2023-10-07T11:18:23.000Z</time>
</trkpt>
<trkpt lat="45.9340710" lon="9.5480860">
	<ele>1566.20</ele>
	<time>2023-10-07T11:18:24.000Z</time>
</trkpt>
<trkpt lat="45.9340720" lon="9.5481000">
	<ele>1566.20</ele>
	<time>2023-10-07T11:18:25.000Z</time>
</trkpt>
<trkpt lat="45.9340740" lon="9.5481120">
	<ele>1566.20</ele>
	<time>2023-10-07T11:18:26.000Z</time>
</trkpt>
<trkpt lat="45.9340730" lon="9.5481200">
	<ele>1566.20</ele>
	<time>2023-10-07T11:18:27.000Z</time>
</trkpt>
<trkpt lat="45.9340730" lon="9.5481250">
	<ele>1566.20</ele>
	<time>2023-10-07T11:18:28.000Z</time>
</trkpt>
<trkpt lat="45.9340730" lon="9.5481260">
	<ele>1566.60</ele>
	<time>2023-10-07T11:18:29.000Z</time>
</trkpt>
<trkpt lat="45.9340740" lon="9.5481250">
	<ele>1566.60</ele>
	<time>2023-10-07T11:18:30.000Z</time>
</trkpt>
<trkpt lat="45.9340750" lon="9.5481230">
	<ele>1566.80</ele>
	<time>2023-10-07T11:18:31.000Z</time>
</trkpt>
<trkpt lat="45.9340750" lon="9.5481220">
	<ele>1566.80</ele>
	<time>2023-10-07T11:18:32.000Z</time>
</trkpt>
<trkpt lat="45.9340750" lon="9.5481220">
	<ele>1567.00</ele>
	<time>2023-10-07T11:18:33.000Z</time>
</trkpt>
<trkpt lat="45.9340750" lon="9.5481220">
	<ele>1567.20</ele>
	<time>2023-10-07T11:18:34.000Z</time>
</trkpt>
<trkpt lat="45.9340750" lon="9.5481220">
	<ele>1567.20</ele>
	<time>2023-10-07T11:18:35.000Z</time>
</trkpt>
<trkpt lat="45.9340740" lon="9.5481170">
	<ele>1567.20</ele>
	<time>2023-10-07T11:18:36.000Z</time>
</trkpt>
<trkpt lat="45.9340730" lon="9.5481150">
	<ele>1567.20</ele>
	<time>2023-10-07T11:18:37.000Z</time>
</trkpt>
<trkpt lat="45.9340740" lon="9.5481140">
	<ele>1567.20</ele>
	<time>2023-10-07T11:18:38.000Z</time>
</trkpt>
<trkpt lat="45.9340740" lon="9.5481140">
	<ele>1567.00</ele>
	<time>2023-10-07T11:18:39.000Z</time>
</trkpt>
<trkpt lat="45.9340740" lon="9.5481140">
	<ele>1567.00</ele>
	<time>2023-10-07T11:18:40.000Z</time>
</trkpt>
<trkpt lat="45.9340740" lon="9.5481140">
	<ele>1566.80</ele>
	<time>2023-10-07T11:18:41.000Z</time>
</trkpt>
<trkpt lat="45.9340740" lon="9.5481140">
	<ele>1566.80</ele>
	<time>2023-10-07T11:18:42.000Z</time>
</trkpt>
<trkpt lat="45.9340740" lon="9.5481140">
	<ele>1566.80</ele>
	<time>2023-10-07T11:18:43.000Z</time>
</trkpt>
<trkpt lat="45.9340740" lon="9.5481140">
	<ele>1566.80</ele>
	<time>2023-10-07T11:18:44.000Z</time>
</trkpt>
<trkpt lat="45.9340740" lon="9.5481140">
	<ele>1566.80</ele>
	<time>2023-10-07T11:18:45.000Z</time>
</trkpt>
<trkpt lat="45.9340740" lon="9.5481140">
	<ele>1566.80</ele>
	<time>2023-10-07T11:18:46.000Z</time>
</trkpt>
<trkpt lat="45.9340740" lon="9.5481140">
	<ele>1566.80</ele>
	<time>2023-10-07T11:18:47.000Z</time>
</trkpt>
<trkpt lat="45.9340740" lon="9.5481140">
	<ele>1566.80</ele>
	<time>2023-10-07T11:18:48.000Z</time>
</trkpt>
<trkpt lat="45.9340740" lon="9.5481140">
	<ele>1566.80</ele>
	<time>2023-10-07T11:18:49.000Z</time>
</trkpt>
<trkpt lat="45.9340740" lon="9.5481140">
	<ele>1566.60</ele>
	<time>2023-10-07T11:18:50.000Z</time>
</trkpt>
<trkpt lat="45.9340740" lon="9.5481140">
	<ele>1566.60</ele>
	<time>2023-10-07T11:18:51.000Z</time>
</trkpt>
<trkpt lat="45.9340740" lon="9.5481150">
	<ele>1566.40</ele>
	<time>2023-10-07T11:18:52.000Z</time>
</trkpt>
<trkpt lat="45.9340740" lon="9.5481160">
	<ele>1566.40</ele>
	<time>2023-10-07T11:18:53.000Z</time>
</trkpt>
<trkpt lat="45.9340740" lon="9.5481170">
	<ele>1566.20</ele>
	<time>2023-10-07T11:18:54.000Z</time>
</trkpt>
<trkpt lat="45.9340740" lon="9.5481170">
	<ele>1566.20</ele>
	<time>2023-10-07T11:18:55.000Z</time>
</trkpt>
<trkpt lat="45.9340740" lon="9.5481170">
	<ele>1566.20</ele>
	<time>2023-10-07T11:18:56.000Z</time>
</trkpt>
<trkpt lat="45.9340750" lon="9.5481230">
	<ele>1566.20</ele>
	<time>2023-10-07T11:18:57.000Z</time>
</trkpt>
<trkpt lat="45.9340770" lon="9.5481400">
	<ele>1566.20</ele>
	<time>2023-10-07T11:18:58.000Z</time>
</trkpt>
<trkpt lat="45.9340790" lon="9.5481530">
	<ele>1566.40</ele>
	<time>2023-10-07T11:18:59.000Z</time>
</trkpt>
<trkpt lat="45.9340830" lon="9.5481700">
	<ele>1566.40</ele>
	<time>2023-10-07T11:19:00.000Z</time>
</trkpt>
<trkpt lat="45.9340910" lon="9.5481850">
	<ele>1566.40</ele>
	<time>2023-10-07T11:19:01.000Z</time>
</trkpt>
<trkpt lat="45.9340970" lon="9.5482040">
	<ele>1566.40</ele>
	<time>2023-10-07T11:19:02.000Z</time>
</trkpt>
<trkpt lat="45.9341050" lon="9.5482230">
	<ele>1566.60</ele>
	<time>2023-10-07T11:19:03.000Z</time>
</trkpt>
<trkpt lat="45.9341120" lon="9.5482410">
	<ele>1566.60</ele>
	<time>2023-10-07T11:19:04.000Z</time>
</trkpt>
<trkpt lat="45.9341180" lon="9.5482590">
	<ele>1566.80</ele>
	<time>2023-10-07T11:19:05.000Z</time>
</trkpt>
<trkpt lat="45.9341250" lon="9.5482770">
	<ele>1567.00</ele>
	<time>2023-10-07T11:19:06.000Z</time>
</trkpt>
<trkpt lat="45.9341330" lon="9.5482890">
	<ele>1567.00</ele>
	<time>2023-10-07T11:19:07.000Z</time>
</trkpt>
<trkpt lat="45.9341410" lon="9.5483020">
	<ele>1567.20</ele>
	<time>2023-10-07T11:19:08.000Z</time>
</trkpt>
<trkpt lat="45.9341510" lon="9.5483150">
	<ele>1567.20</ele>
	<time>2023-10-07T11:19:09.000Z</time>
</trkpt>
<trkpt lat="45.9341620" lon="9.5483240">
	<ele>1567.20</ele>
	<time>2023-10-07T11:19:10.000Z</time>
</trkpt>
<trkpt lat="45.9341730" lon="9.5483300">
	<ele>1567.40</ele>
	<time>2023-10-07T11:19:11.000Z</time>
</trkpt>
<trkpt lat="45.9341850" lon="9.5483380">
	<ele>1567.40</ele>
	<time>2023-10-07T11:19:12.000Z</time>
</trkpt>
<trkpt lat="45.9341960" lon="9.5483460">
	<ele>1567.60</ele>
	<time>2023-10-07T11:19:13.000Z</time>
</trkpt>
<trkpt lat="45.9342090" lon="9.5483530">
	<ele>1567.60</ele>
	<time>2023-10-07T11:19:14.000Z</time>
</trkpt>
<trkpt lat="45.9342210" lon="9.5483580">
	<ele>1567.60</ele>
	<time>2023-10-07T11:19:15.000Z</time>
</trkpt>
<trkpt lat="45.9342330" lon="9.5483640">
	<ele>1567.60</ele>
	<time>2023-10-07T11:19:16.000Z</time>
</trkpt>
<trkpt lat="45.9342450" lon="9.5483660">
	<ele>1567.60</ele>
	<time>2023-10-07T11:19:17.000Z</time>
</trkpt>
<trkpt lat="45.9342570" lon="9.5483690">
	<ele>1567.60</ele>
	<time>2023-10-07T11:19:18.000Z</time>
</trkpt>
<trkpt lat="45.9342690" lon="9.5483690">
	<ele>1567.80</ele>
	<time>2023-10-07T11:19:19.000Z</time>
</trkpt>
<trkpt lat="45.9342820" lon="9.5483670">
	<ele>1567.80</ele>
	<time>2023-10-07T11:19:20.000Z</time>
</trkpt>
<trkpt lat="45.9342960" lon="9.5483670">
	<ele>1567.80</ele>
	<time>2023-10-07T11:19:21.000Z</time>
</trkpt>
<trkpt lat="45.9343090" lon="9.5483720">
	<ele>1567.80</ele>
	<time>2023-10-07T11:19:22.000Z</time>
</trkpt>
<trkpt lat="45.9343240" lon="9.5483770">
	<ele>1567.80</ele>
	<time>2023-10-07T11:19:23.000Z</time>
</trkpt>
<trkpt lat="45.9343370" lon="9.5483830">
	<ele>1567.80</ele>
	<time>2023-10-07T11:19:24.000Z</time>
</trkpt>
<trkpt lat="45.9343490" lon="9.5483870">
	<ele>1567.80</ele>
	<time>2023-10-07T11:19:25.000Z</time>
</trkpt>
<trkpt lat="45.9343630" lon="9.5483900">
	<ele>1567.80</ele>
	<time>2023-10-07T11:19:26.000Z</time>
</trkpt>
<trkpt lat="45.9343770" lon="9.5483940">
	<ele>1567.80</ele>
	<time>2023-10-07T11:19:27.000Z</time>
</trkpt>
<trkpt lat="45.9343920" lon="9.5483970">
	<ele>1567.80</ele>
	<time>2023-10-07T11:19:28.000Z</time>
</trkpt>
<trkpt lat="45.9344050" lon="9.5484010">
	<ele>1567.80</ele>
	<time>2023-10-07T11:19:29.000Z</time>
</trkpt>
<trkpt lat="45.9344160" lon="9.5484050">
	<ele>1567.80</ele>
	<time>2023-10-07T11:19:30.000Z</time>
</trkpt>
<trkpt lat="45.9344280" lon="9.5484090">
	<ele>1567.80</ele>
	<time>2023-10-07T11:19:31.000Z</time>
</trkpt>
<trkpt lat="45.9344410" lon="9.5484140">
	<ele>1567.80</ele>
	<time>2023-10-07T11:19:32.000Z</time>
</trkpt>
<trkpt lat="45.9344540" lon="9.5484150">
	<ele>1567.80</ele>
	<time>2023-10-07T11:19:33.000Z</time>
</trkpt>
<trkpt lat="45.9344630" lon="9.5484210">
	<ele>1567.80</ele>
	<time>2023-10-07T11:19:34.000Z</time>
</trkpt>
<trkpt lat="45.9344750" lon="9.5484280">
	<ele>1567.80</ele>
	<time>2023-10-07T11:19:35.000Z</time>
</trkpt>
<trkpt lat="45.9344900" lon="9.5484360">
	<ele>1567.80</ele>
	<time>2023-10-07T11:19:36.000Z</time>
</trkpt>
<trkpt lat="45.9345030" lon="9.5484400">
	<ele>1567.60</ele>
	<time>2023-10-07T11:19:37.000Z</time>
</trkpt>
<trkpt lat="45.9345130" lon="9.5484400">
	<ele>1567.60</ele>
	<time>2023-10-07T11:19:38.000Z</time>
</trkpt>
<trkpt lat="45.9345240" lon="9.5484380">
	<ele>1567.40</ele>
	<time>2023-10-07T11:19:39.000Z</time>
</trkpt>
<trkpt lat="45.9345350" lon="9.5484360">
	<ele>1567.20</ele>
	<time>2023-10-07T11:19:40.000Z</time>
</trkpt>
<trkpt lat="45.9345480" lon="9.5484330">
	<ele>1567.20</ele>
	<time>2023-10-07T11:19:41.000Z</time>
</trkpt>
<trkpt lat="45.9345590" lon="9.5484330">
	<ele>1567.20</ele>
	<time>2023-10-07T11:19:42.000Z</time>
</trkpt>
<trkpt lat="45.9345710" lon="9.5484310">
	<ele>1567.00</ele>
	<time>2023-10-07T11:19:43.000Z</time>
</trkpt>
<trkpt lat="45.9345810" lon="9.5484270">
	<ele>1566.80</ele>
	<time>2023-10-07T11:19:44.000Z</time>
</trkpt>
<trkpt lat="45.9345940" lon="9.5484210">
	<ele>1566.60</ele>
	<time>2023-10-07T11:19:45.000Z</time>
</trkpt>
<trkpt lat="45.9346040" lon="9.5484150">
	<ele>1566.60</ele>
	<time>2023-10-07T11:19:46.000Z</time>
</trkpt>
<trkpt lat="45.9346110" lon="9.5484120">
	<ele>1566.40</ele>
	<time>2023-10-07T11:19:47.000Z</time>
</trkpt>
<trkpt lat="45.9346210" lon="9.5484080">
	<ele>1566.40</ele>
	<time>2023-10-07T11:19:48.000Z</time>
</trkpt>
<trkpt lat="45.9346330" lon="9.5484030">
	<ele>1566.20</ele>
	<time>2023-10-07T11:19:49.000Z</time>
</trkpt>
<trkpt lat="45.9346430" lon="9.5484030">
	<ele>1566.20</ele>
	<time>2023-10-07T11:19:50.000Z</time>
</trkpt>
<trkpt lat="45.9346530" lon="9.5484090">
	<ele>1566.00</ele>
	<time>2023-10-07T11:19:51.000Z</time>
</trkpt>
<trkpt lat="45.9346650" lon="9.5484160">
	<ele>1565.60</ele>
	<time>2023-10-07T11:19:52.000Z</time>
</trkpt>
<trkpt lat="45.9346770" lon="9.5484200">
	<ele>1565.60</ele>
	<time>2023-10-07T11:19:53.000Z</time>
</trkpt>
<trkpt lat="45.9346870" lon="9.5484230">
	<ele>1565.40</ele>
	<time>2023-10-07T11:19:54.000Z</time>
</trkpt>
<trkpt lat="45.9346990" lon="9.5484330">
	<ele>1565.40</ele>
	<time>2023-10-07T11:19:55.000Z</time>
</trkpt>
<trkpt lat="45.9347090" lon="9.5484420">
	<ele>1565.40</ele>
	<time>2023-10-07T11:19:56.000Z</time>
</trkpt>
<trkpt lat="45.9347220" lon="9.5484540">
	<ele>1565.20</ele>
	<time>2023-10-07T11:19:57.000Z</time>
</trkpt>
<trkpt lat="45.9347350" lon="9.5484590">
	<ele>1565.20</ele>
	<time>2023-10-07T11:19:58.000Z</time>
</trkpt>
<trkpt lat="45.9347480" lon="9.5484580">
	<ele>1565.20</ele>
	<time>2023-10-07T11:19:59.000Z</time>
</trkpt>
<trkpt lat="45.9347560" lon="9.5484560">
	<ele>1565.00</ele>
	<time>2023-10-07T11:20:00.000Z</time>
</trkpt>
<trkpt lat="45.9347610" lon="9.5484530">
	<ele>1564.80</ele>
	<time>2023-10-07T11:20:01.000Z</time>
</trkpt>
<trkpt lat="45.9347610" lon="9.5484520">
	<ele>1564.80</ele>
	<time>2023-10-07T11:20:02.000Z</time>
</trkpt>
<trkpt lat="45.9347570" lon="9.5484510">
	<ele>1564.60</ele>
	<time>2023-10-07T11:20:03.000Z</time>
</trkpt>
<trkpt lat="45.9347520" lon="9.5484530">
	<ele>1564.60</ele>
	<time>2023-10-07T11:20:04.000Z</time>
</trkpt>
<trkpt lat="45.9347420" lon="9.5484590">
	<ele>1564.60</ele>
	<time>2023-10-07T11:20:05.000Z</time>
</trkpt>
<trkpt lat="45.9347360" lon="9.5484640">
	<ele>1564.60</ele>
	<time>2023-10-07T11:20:06.000Z</time>
</trkpt>
<trkpt lat="45.9347260" lon="9.5484660">
	<ele>1564.60</ele>
	<time>2023-10-07T11:20:07.000Z</time>
</trkpt>
<trkpt lat="45.9347160" lon="9.5484620">
	<ele>1564.60</ele>
	<time>2023-10-07T11:20:08.000Z</time>
</trkpt>
<trkpt lat="45.9347070" lon="9.5484540">
	<ele>1564.60</ele>
	<time>2023-10-07T11:20:09.000Z</time>
</trkpt>
<trkpt lat="45.9347010" lon="9.5484520">
	<ele>1564.80</ele>
	<time>2023-10-07T11:20:10.000Z</time>
</trkpt>
<trkpt lat="45.9346990" lon="9.5484530">
	<ele>1564.80</ele>
	<time>2023-10-07T11:20:11.000Z</time>
</trkpt>
<trkpt lat="45.9346970" lon="9.5484530">
	<ele>1564.80</ele>
	<time>2023-10-07T11:20:12.000Z</time>
</trkpt>
<trkpt lat="45.9346960" lon="9.5484520">
	<ele>1565.00</ele>
	<time>2023-10-07T11:20:13.000Z</time>
</trkpt>
<trkpt lat="45.9346960" lon="9.5484520">
	<ele>1565.20</ele>
	<time>2023-10-07T11:20:14.000Z</time>
</trkpt>
<trkpt lat="45.9346960" lon="9.5484520">
	<ele>1565.20</ele>
	<time>2023-10-07T11:20:15.000Z</time>
</trkpt>
<trkpt lat="45.9346960" lon="9.5484520">
	<ele>1565.40</ele>
	<time>2023-10-07T11:20:16.000Z</time>
</trkpt>
<trkpt lat="45.9346960" lon="9.5484520">
	<ele>1565.40</ele>
	<time>2023-10-07T11:20:17.000Z</time>
</trkpt>
<trkpt lat="45.9346960" lon="9.5484520">
	<ele>1565.40</ele>
	<time>2023-10-07T11:20:18.000Z</time>
</trkpt>
<trkpt lat="45.9346960" lon="9.5484520">
	<ele>1565.40</ele>
	<time>2023-10-07T11:20:19.000Z</time>
</trkpt>
<trkpt lat="45.9346960" lon="9.5484520">
	<ele>1565.40</ele>
	<time>2023-10-07T11:20:20.000Z</time>
</trkpt>
<trkpt lat="45.9346970" lon="9.5484520">
	<ele>1565.40</ele>
	<time>2023-10-07T11:20:21.000Z</time>
</trkpt>
<trkpt lat="45.9346980" lon="9.5484520">
	<ele>1565.40</ele>
	<time>2023-10-07T11:20:22.000Z</time>
</trkpt>
<trkpt lat="45.9346990" lon="9.5484520">
	<ele>1565.40</ele>
	<time>2023-10-07T11:20:23.000Z</time>
</trkpt>
<trkpt lat="45.9347000" lon="9.5484520">
	<ele>1565.40</ele>
	<time>2023-10-07T11:20:24.000Z</time>
</trkpt>
<trkpt lat="45.9347010" lon="9.5484520">
	<ele>1565.40</ele>
	<time>2023-10-07T11:20:25.000Z</time>
</trkpt>
<trkpt lat="45.9347020" lon="9.5484520">
	<ele>1565.20</ele>
	<time>2023-10-07T11:20:26.000Z</time>
</trkpt>
<trkpt lat="45.9347030" lon="9.5484520">
	<ele>1565.00</ele>
	<time>2023-10-07T11:20:27.000Z</time>
</trkpt>
<trkpt lat="45.9347040" lon="9.5484520">
	<ele>1564.80</ele>
	<time>2023-10-07T11:20:28.000Z</time>
</trkpt>
<trkpt lat="45.9347070" lon="9.5484510">
	<ele>1564.80</ele>
	<time>2023-10-07T11:20:29.000Z</time>
</trkpt>
<trkpt lat="45.9347160" lon="9.5484550">
	<ele>1564.80</ele>
	<time>2023-10-07T11:20:30.000Z</time>
</trkpt>
<trkpt lat="45.9347210" lon="9.5484590">
	<ele>1564.80</ele>
	<time>2023-10-07T11:20:31.000Z</time>
</trkpt>
<trkpt lat="45.9347260" lon="9.5484610">
	<ele>1564.60</ele>
	<time>2023-10-07T11:20:32.000Z</time>
</trkpt>
<trkpt lat="45.9347320" lon="9.5484580">
	<ele>1564.60</ele>
	<time>2023-10-07T11:20:33.000Z</time>
</trkpt>
<trkpt lat="45.9347360" lon="9.5484540">
	<ele>1564.60</ele>
	<time>2023-10-07T11:20:34.000Z</time>
</trkpt>
<trkpt lat="45.9347420" lon="9.5484510">
	<ele>1564.60</ele>
	<time>2023-10-07T11:20:35.000Z</time>
</trkpt>
<trkpt lat="45.9347510" lon="9.5484510">
	<ele>1564.60</ele>
	<time>2023-10-07T11:20:36.000Z</time>
</trkpt>
<trkpt lat="45.9347600" lon="9.5484510">
	<ele>1564.60</ele>
	<time>2023-10-07T11:20:37.000Z</time>
</trkpt>
<trkpt lat="45.9347700" lon="9.5484520">
	<ele>1564.60</ele>
	<time>2023-10-07T11:20:38.000Z</time>
</trkpt>
<trkpt lat="45.9347770" lon="9.5484550">
	<ele>1564.40</ele>
	<time>2023-10-07T11:20:39.000Z</time>
</trkpt>
<trkpt lat="45.9347820" lon="9.5484620">
	<ele>1564.40</ele>
	<time>2023-10-07T11:20:40.000Z</time>
</trkpt>
<trkpt lat="45.9347880" lon="9.5484690">
	<ele>1564.40</ele>
	<time>2023-10-07T11:20:41.000Z</time>
</trkpt>
<trkpt lat="45.9347930" lon="9.5484740">
	<ele>1564.40</ele>
	<time>2023-10-07T11:20:42.000Z</time>
</trkpt>
<trkpt lat="45.9347960" lon="9.5484760">
	<ele>1564.20</ele>
	<time>2023-10-07T11:20:43.000Z</time>
</trkpt>
<trkpt lat="45.9348020" lon="9.5484740">
	<ele>1564.20</ele>
	<time>2023-10-07T11:20:44.000Z</time>
</trkpt>
<trkpt lat="45.9348060" lon="9.5484740">
	<ele>1564.20</ele>
	<time>2023-10-07T11:20:45.000Z</time>
</trkpt>
<trkpt lat="45.9348160" lon="9.5484640">
	<ele>1564.00</ele>
	<time>2023-10-07T11:20:46.000Z</time>
</trkpt>
<trkpt lat="45.9348210" lon="9.5484590">
	<ele>1564.00</ele>
	<time>2023-10-07T11:20:47.000Z</time>
</trkpt>
<trkpt lat="45.9348270" lon="9.5484520">
	<ele>1563.80</ele>
	<time>2023-10-07T11:20:48.000Z</time>
</trkpt>
<trkpt lat="45.9348300" lon="9.5484460">
	<ele>1563.80</ele>
	<time>2023-10-07T11:20:49.000Z</time>
</trkpt>
<trkpt lat="45.9348350" lon="9.5484510">
	<ele>1563.80</ele>
	<time>2023-10-07T11:20:50.000Z</time>
</trkpt>
<trkpt lat="45.9348430" lon="9.5484520">
	<ele>1563.80</ele>
	<time>2023-10-07T11:20:51.000Z</time>
</trkpt>
<trkpt lat="45.9348480" lon="9.5484450">
	<ele>1563.60</ele>
	<time>2023-10-07T11:20:52.000Z</time>
</trkpt>
<trkpt lat="45.9348560" lon="9.5484430">
	<ele>1563.60</ele>
	<time>2023-10-07T11:20:53.000Z</time>
</trkpt>
<trkpt lat="45.9348690" lon="9.5484410">
	<ele>1563.60</ele>
	<time>2023-10-07T11:20:54.000Z</time>
</trkpt>
<trkpt lat="45.9348790" lon="9.5484380">
	<ele>1563.40</ele>
	<time>2023-10-07T11:20:55.000Z</time>
</trkpt>
<trkpt lat="45.9348900" lon="9.5484350">
	<ele>1563.40</ele>
	<time>2023-10-07T11:20:56.000Z</time>
</trkpt>
<trkpt lat="45.9349000" lon="9.5484370">
	<ele>1563.40</ele>
	<time>2023-10-07T11:20:57.000Z</time>
</trkpt>
<trkpt lat="45.9349110" lon="9.5484430">
	<ele>1563.20</ele>
	<time>2023-10-07T11:20:58.000Z</time>
</trkpt>
<trkpt lat="45.9349200" lon="9.5484470">
	<ele>1563.00</ele>
	<time>2023-10-07T11:20:59.000Z</time>
</trkpt>
<trkpt lat="45.9349320" lon="9.5484530">
	<ele>1563.00</ele>
	<time>2023-10-07T11:21:00.000Z</time>
</trkpt>
<trkpt lat="45.9349450" lon="9.5484600">
	<ele>1563.00</ele>
	<time>2023-10-07T11:21:01.000Z</time>
</trkpt>
<trkpt lat="45.9349550" lon="9.5484650">
	<ele>1563.00</ele>
	<time>2023-10-07T11:21:02.000Z</time>
</trkpt>
<trkpt lat="45.9349690" lon="9.5484710">
	<ele>1563.00</ele>
	<time>2023-10-07T11:21:03.000Z</time>
</trkpt>
<trkpt lat="45.9349810" lon="9.5484720">
	<ele>1563.00</ele>
	<time>2023-10-07T11:21:04.000Z</time>
</trkpt>
<trkpt lat="45.9349930" lon="9.5484750">
	<ele>1563.00</ele>
	<time>2023-10-07T11:21:05.000Z</time>
</trkpt>
<trkpt lat="45.9350000" lon="9.5484710">
	<ele>1563.00</ele>
	<time>2023-10-07T11:21:06.000Z</time>
</trkpt>
<trkpt lat="45.9350110" lon="9.5484660">
	<ele>1562.80</ele>
	<time>2023-10-07T11:21:07.000Z</time>
</trkpt>
<trkpt lat="45.9350170" lon="9.5484700">
	<ele>1562.60</ele>
	<time>2023-10-07T11:21:08.000Z</time>
</trkpt>
<trkpt lat="45.9350290" lon="9.5484730">
	<ele>1562.40</ele>
	<time>2023-10-07T11:21:09.000Z</time>
</trkpt>
<trkpt lat="45.9350430" lon="9.5484710">
	<ele>1562.40</ele>
	<time>2023-10-07T11:21:10.000Z</time>
</trkpt>
<trkpt lat="45.9350580" lon="9.5484690">
	<ele>1562.20</ele>
	<time>2023-10-07T11:21:11.000Z</time>
</trkpt>
<trkpt lat="45.9350870" lon="9.5484540">
	<ele>1562.20</ele>
	<time>2023-10-07T11:21:12.000Z</time>
</trkpt>
<trkpt lat="45.9351000" lon="9.5484510">
	<ele>1562.00</ele>
	<time>2023-10-07T11:21:13.000Z</time>
</trkpt>
<trkpt lat="45.9351110" lon="9.5484570">
	<ele>1562.00</ele>
	<time>2023-10-07T11:21:14.000Z</time>
</trkpt>
<trkpt lat="45.9351160" lon="9.5484630">
	<ele>1561.80</ele>
	<time>2023-10-07T11:21:15.000Z</time>
</trkpt>
<trkpt lat="45.9351250" lon="9.5484670">
	<ele>1561.80</ele>
	<time>2023-10-07T11:21:16.000Z</time>
</trkpt>
<trkpt lat="45.9351320" lon="9.5484730">
	<ele>1561.80</ele>
	<time>2023-10-07T11:21:17.000Z</time>
</trkpt>
<trkpt lat="45.9351360" lon="9.5484780">
	<ele>1561.80</ele>
	<time>2023-10-07T11:21:18.000Z</time>
</trkpt>
<trkpt lat="45.9351450" lon="9.5484820">
	<ele>1561.80</ele>
	<time>2023-10-07T11:21:19.000Z</time>
</trkpt>
<trkpt lat="45.9351620" lon="9.5484830">
	<ele>1561.80</ele>
	<time>2023-10-07T11:21:20.000Z</time>
</trkpt>
<trkpt lat="45.9351770" lon="9.5484850">
	<ele>1561.80</ele>
	<time>2023-10-07T11:21:21.000Z</time>
</trkpt>
<trkpt lat="45.9351890" lon="9.5484880">
	<ele>1561.80</ele>
	<time>2023-10-07T11:21:22.000Z</time>
</trkpt>
<trkpt lat="45.9352030" lon="9.5484970">
	<ele>1561.60</ele>
	<time>2023-10-07T11:21:23.000Z</time>
</trkpt>
<trkpt lat="45.9352130" lon="9.5485020">
	<ele>1561.60</ele>
	<time>2023-10-07T11:21:24.000Z</time>
</trkpt>
<trkpt lat="45.9352220" lon="9.5485160">
	<ele>1561.40</ele>
	<time>2023-10-07T11:21:25.000Z</time>
</trkpt>
<trkpt lat="45.9352270" lon="9.5485290">
	<ele>1561.40</ele>
	<time>2023-10-07T11:21:26.000Z</time>
</trkpt>
<trkpt lat="45.9352370" lon="9.5485420">
	<ele>1561.20</ele>
	<time>2023-10-07T11:21:27.000Z</time>
</trkpt>
<trkpt lat="45.9352400" lon="9.5485460">
	<ele>1561.00</ele>
	<time>2023-10-07T11:21:28.000Z</time>
</trkpt>
<trkpt lat="45.9352450" lon="9.5485580">
	<ele>1560.80</ele>
	<time>2023-10-07T11:21:29.000Z</time>
</trkpt>
<trkpt lat="45.9352550" lon="9.5485600">
	<ele>1560.60</ele>
	<time>2023-10-07T11:21:30.000Z</time>
</trkpt>
<trkpt lat="45.9352630" lon="9.5485640">
	<ele>1560.60</ele>
	<time>2023-10-07T11:21:31.000Z</time>
</trkpt>
<trkpt lat="45.9352730" lon="9.5485620">
	<ele>1560.40</ele>
	<time>2023-10-07T11:21:32.000Z</time>
</trkpt>
<trkpt lat="45.9352970" lon="9.5485640">
	<ele>1560.20</ele>
	<time>2023-10-07T11:21:33.000Z</time>
</trkpt>
<trkpt lat="45.9353200" lon="9.5485560">
	<ele>1560.00</ele>
	<time>2023-10-07T11:21:34.000Z</time>
</trkpt>
<trkpt lat="45.9353420" lon="9.5485520">
	<ele>1560.00</ele>
	<time>2023-10-07T11:21:35.000Z</time>
</trkpt>
<trkpt lat="45.9353470" lon="9.5485570">
	<ele>1559.80</ele>
	<time>2023-10-07T11:21:36.000Z</time>
</trkpt>
<trkpt lat="45.9353570" lon="9.5485580">
	<ele>1559.80</ele>
	<time>2023-10-07T11:21:37.000Z</time>
</trkpt>
<trkpt lat="45.9353680" lon="9.5485570">
	<ele>1559.80</ele>
	<time>2023-10-07T11:21:38.000Z</time>
</trkpt>
<trkpt lat="45.9353730" lon="9.5485490">
	<ele>1559.40</ele>
	<time>2023-10-07T11:21:39.000Z</time>
</trkpt>
<trkpt lat="45.9353790" lon="9.5485460">
	<ele>1559.20</ele>
	<time>2023-10-07T11:21:40.000Z</time>
</trkpt>
<trkpt lat="45.9353860" lon="9.5485410">
	<ele>1559.00</ele>
	<time>2023-10-07T11:21:41.000Z</time>
</trkpt>
<trkpt lat="45.9353920" lon="9.5485390">
	<ele>1559.00</ele>
	<time>2023-10-07T11:21:42.000Z</time>
</trkpt>
<trkpt lat="45.9353920" lon="9.5485390">
	<ele>1558.60</ele>
	<time>2023-10-07T11:21:43.000Z</time>
</trkpt>
<trkpt lat="45.9354010" lon="9.5485390">
	<ele>1558.40</ele>
	<time>2023-10-07T11:21:44.000Z</time>
</trkpt>
<trkpt lat="45.9354130" lon="9.5485280">
	<ele>1558.20</ele>
	<time>2023-10-07T11:21:45.000Z</time>
</trkpt>
<trkpt lat="45.9354250" lon="9.5485170">
	<ele>1558.00</ele>
	<time>2023-10-07T11:21:46.000Z</time>
</trkpt>
<trkpt lat="45.9354430" lon="9.5485140">
	<ele>1558.00</ele>
	<time>2023-10-07T11:21:47.000Z</time>
</trkpt>
<trkpt lat="45.9354560" lon="9.5485160">
	<ele>1557.80</ele>
	<time>2023-10-07T11:21:48.000Z</time>
</trkpt>
<trkpt lat="45.9354660" lon="9.5485160">
	<ele>1557.80</ele>
	<time>2023-10-07T11:21:49.000Z</time>
</trkpt>
<trkpt lat="45.9354740" lon="9.5485080">
	<ele>1557.80</ele>
	<time>2023-10-07T11:21:50.000Z</time>
</trkpt>
<trkpt lat="45.9354820" lon="9.5484980">
	<ele>1557.60</ele>
	<time>2023-10-07T11:21:51.000Z</time>
</trkpt>
<trkpt lat="45.9354920" lon="9.5484920">
	<ele>1557.60</ele>
	<time>2023-10-07T11:21:52.000Z</time>
</trkpt>
<trkpt lat="45.9355050" lon="9.5484860">
	<ele>1557.40</ele>
	<time>2023-10-07T11:21:53.000Z</time>
</trkpt>
<trkpt lat="45.9355190" lon="9.5484800">
	<ele>1557.40</ele>
	<time>2023-10-07T11:21:54.000Z</time>
</trkpt>
<trkpt lat="45.9355330" lon="9.5484770">
	<ele>1557.40</ele>
	<time>2023-10-07T11:21:55.000Z</time>
</trkpt>
<trkpt lat="45.9355500" lon="9.5484760">
	<ele>1557.20</ele>
	<time>2023-10-07T11:21:56.000Z</time>
</trkpt>
<trkpt lat="45.9355690" lon="9.5484640">
	<ele>1557.20</ele>
	<time>2023-10-07T11:21:57.000Z</time>
</trkpt>
<trkpt lat="45.9355820" lon="9.5484550">
	<ele>1557.20</ele>
	<time>2023-10-07T11:21:58.000Z</time>
</trkpt>
<trkpt lat="45.9355960" lon="9.5484490">
	<ele>1557.00</ele>
	<time>2023-10-07T11:21:59.000Z</time>
</trkpt>
<trkpt lat="45.9356030" lon="9.5484480">
	<ele>1557.00</ele>
	<time>2023-10-07T11:22:00.000Z</time>
</trkpt>
<trkpt lat="45.9356140" lon="9.5484480">
	<ele>1556.80</ele>
	<time>2023-10-07T11:22:01.000Z</time>
</trkpt>
<trkpt lat="45.9356260" lon="9.5484520">
	<ele>1556.80</ele>
	<time>2023-10-07T11:22:02.000Z</time>
</trkpt>
<trkpt lat="45.9356390" lon="9.5484520">
	<ele>1556.60</ele>
	<time>2023-10-07T11:22:03.000Z</time>
</trkpt>
<trkpt lat="45.9356510" lon="9.5484520">
	<ele>1556.40</ele>
	<time>2023-10-07T11:22:04.000Z</time>
</trkpt>
<trkpt lat="45.9356590" lon="9.5484550">
	<ele>1556.40</ele>
	<time>2023-10-07T11:22:05.000Z</time>
</trkpt>
<trkpt lat="45.9356690" lon="9.5484600">
	<ele>1556.40</ele>
	<time>2023-10-07T11:22:06.000Z</time>
</trkpt>
<trkpt lat="45.9356760" lon="9.5484660">
	<ele>1556.40</ele>
	<time>2023-10-07T11:22:07.000Z</time>
</trkpt>
<trkpt lat="45.9356840" lon="9.5484680">
	<ele>1556.40</ele>
	<time>2023-10-07T11:22:08.000Z</time>
</trkpt>
<trkpt lat="45.9356960" lon="9.5484730">
	<ele>1556.40</ele>
	<time>2023-10-07T11:22:09.000Z</time>
</trkpt>
<trkpt lat="45.9357100" lon="9.5484800">
	<ele>1556.40</ele>
	<time>2023-10-07T11:22:10.000Z</time>
</trkpt>
<trkpt lat="45.9357230" lon="9.5484840">
	<ele>1556.60</ele>
	<time>2023-10-07T11:22:11.000Z</time>
</trkpt>
<trkpt lat="45.9357390" lon="9.5484950">
	<ele>1556.60</ele>
	<time>2023-10-07T11:22:12.000Z</time>
</trkpt>
<trkpt lat="45.9357480" lon="9.5485100">
	<ele>1556.60</ele>
	<time>2023-10-07T11:22:13.000Z</time>
</trkpt>
<trkpt lat="45.9357570" lon="9.5485270">
	<ele>1556.80</ele>
	<time>2023-10-07T11:22:14.000Z</time>
</trkpt>
<trkpt lat="45.9357590" lon="9.5485430">
	<ele>1556.80</ele>
	<time>2023-10-07T11:22:15.000Z</time>
</trkpt>
<trkpt lat="45.9357630" lon="9.5485520">
	<ele>1557.00</ele>
	<time>2023-10-07T11:22:16.000Z</time>
</trkpt>
<trkpt lat="45.9357680" lon="9.5485610">
	<ele>1557.00</ele>
	<time>2023-10-07T11:22:17.000Z</time>
</trkpt>
<trkpt lat="45.9357700" lon="9.5485670">
	<ele>1557.00</ele>
	<time>2023-10-07T11:22:18.000Z</time>
</trkpt>
<trkpt lat="45.9357810" lon="9.5485770">
	<ele>1557.20</ele>
	<time>2023-10-07T11:22:19.000Z</time>
</trkpt>
<trkpt lat="45.9357940" lon="9.5485840">
	<ele>1557.40</ele>
	<time>2023-10-07T11:22:20.000Z</time>
</trkpt>
<trkpt lat="45.9358040" lon="9.5485860">
	<ele>1557.60</ele>
	<time>2023-10-07T11:22:21.000Z</time>
</trkpt>
<trkpt lat="45.9358150" lon="9.5485890">
	<ele>1557.80</ele>
	<time>2023-10-07T11:22:22.000Z</time>
</trkpt>
<trkpt lat="45.9358310" lon="9.5485940">
	<ele>1558.00</ele>
	<time>2023-10-07T11:22:23.000Z</time>
</trkpt>
<trkpt lat="45.9358450" lon="9.5485990">
	<ele>1558.20</ele>
	<time>2023-10-07T11:22:24.000Z</time>
</trkpt>
<trkpt lat="45.9358540" lon="9.5486000">
	<ele>1558.20</ele>
	<time>2023-10-07T11:22:25.000Z</time>
</trkpt>
<trkpt lat="45.9358640" lon="9.5486040">
	<ele>1558.40</ele>
	<time>2023-10-07T11:22:26.000Z</time>
</trkpt>
<trkpt lat="45.9358750" lon="9.5486100">
	<ele>1558.40</ele>
	<time>2023-10-07T11:22:27.000Z</time>
</trkpt>
<trkpt lat="45.9358850" lon="9.5486190">
	<ele>1558.40</ele>
	<time>2023-10-07T11:22:28.000Z</time>
</trkpt>
<trkpt lat="45.9358970" lon="9.5486280">
	<ele>1558.40</ele>
	<time>2023-10-07T11:22:29.000Z</time>
</trkpt>
<trkpt lat="45.9359090" lon="9.5486380">
	<ele>1558.40</ele>
	<time>2023-10-07T11:22:30.000Z</time>
</trkpt>
<trkpt lat="45.9359210" lon="9.5486500">
	<ele>1558.40</ele>
	<time>2023-10-07T11:22:31.000Z</time>
</trkpt>
<trkpt lat="45.9359330" lon="9.5486610">
	<ele>1558.40</ele>
	<time>2023-10-07T11:22:32.000Z</time>
</trkpt>
<trkpt lat="45.9359430" lon="9.5486690">
	<ele>1558.60</ele>
	<time>2023-10-07T11:22:33.000Z</time>
</trkpt>
<trkpt lat="45.9359550" lon="9.5486790">
	<ele>1558.60</ele>
	<time>2023-10-07T11:22:34.000Z</time>
</trkpt>
<trkpt lat="45.9359630" lon="9.5486920">
	<ele>1558.80</ele>
	<time>2023-10-07T11:22:35.000Z</time>
</trkpt>
<trkpt lat="45.9359700" lon="9.5487080">
	<ele>1558.80</ele>
	<time>2023-10-07T11:22:36.000Z</time>
</trkpt>
<trkpt lat="45.9359790" lon="9.5487260">
	<ele>1559.00</ele>
	<time>2023-10-07T11:22:37.000Z</time>
</trkpt>
<trkpt lat="45.9359870" lon="9.5487370">
	<ele>1559.00</ele>
	<time>2023-10-07T11:22:38.000Z</time>
</trkpt>
<trkpt lat="45.9359950" lon="9.5487490">
	<ele>1559.00</ele>
	<time>2023-10-07T11:22:39.000Z</time>
</trkpt>
<trkpt lat="45.9360010" lon="9.5487560">
	<ele>1559.20</ele>
	<time>2023-10-07T11:22:40.000Z</time>
</trkpt>
<trkpt lat="45.9360080" lon="9.5487640">
	<ele>1559.20</ele>
	<time>2023-10-07T11:22:41.000Z</time>
</trkpt>
<trkpt lat="45.9360150" lon="9.5487700">
	<ele>1559.40</ele>
	<time>2023-10-07T11:22:42.000Z</time>
</trkpt>
<trkpt lat="45.9360180" lon="9.5487730">
	<ele>1559.60</ele>
	<time>2023-10-07T11:22:43.000Z</time>
</trkpt>
<trkpt lat="45.9360240" lon="9.5487740">
	<ele>1559.80</ele>
	<time>2023-10-07T11:22:44.000Z</time>
</trkpt>
<trkpt lat="45.9360320" lon="9.5487760">
	<ele>1559.80</ele>
	<time>2023-10-07T11:22:45.000Z</time>
</trkpt>
<trkpt lat="45.9360380" lon="9.5487760">
	<ele>1560.00</ele>
	<time>2023-10-07T11:22:46.000Z</time>
</trkpt>
<trkpt lat="45.9360450" lon="9.5487770">
	<ele>1560.00</ele>
	<time>2023-10-07T11:22:47.000Z</time>
</trkpt>
<trkpt lat="45.9360530" lon="9.5487800">
	<ele>1560.20</ele>
	<time>2023-10-07T11:22:48.000Z</time>
</trkpt>
<trkpt lat="45.9360610" lon="9.5487780">
	<ele>1560.40</ele>
	<time>2023-10-07T11:22:49.000Z</time>
</trkpt>
<trkpt lat="45.9360650" lon="9.5487740">
	<ele>1560.60</ele>
	<time>2023-10-07T11:22:50.000Z</time>
</trkpt>
<trkpt lat="45.9360700" lon="9.5487620">
	<ele>1560.80</ele>
	<time>2023-10-07T11:22:51.000Z</time>
</trkpt>
<trkpt lat="45.9360690" lon="9.5487500">
	<ele>1561.00</ele>
	<time>2023-10-07T11:22:52.000Z</time>
</trkpt>
<trkpt lat="45.9360690" lon="9.5487430">
	<ele>1561.20</ele>
	<time>2023-10-07T11:22:53.000Z</time>
</trkpt>
<trkpt lat="45.9360680" lon="9.5487300">
	<ele>1561.20</ele>
	<time>2023-10-07T11:22:54.000Z</time>
</trkpt>
<trkpt lat="45.9360670" lon="9.5487160">
	<ele>1561.40</ele>
	<time>2023-10-07T11:22:55.000Z</time>
</trkpt>
<trkpt lat="45.9360660" lon="9.5487040">
	<ele>1561.40</ele>
	<time>2023-10-07T11:22:56.000Z</time>
</trkpt>
<trkpt lat="45.9360670" lon="9.5486930">
	<ele>1561.60</ele>
	<time>2023-10-07T11:22:57.000Z</time>
</trkpt>
<trkpt lat="45.9360690" lon="9.5486830">
	<ele>1561.80</ele>
	<time>2023-10-07T11:22:58.000Z</time>
</trkpt>
<trkpt lat="45.9360700" lon="9.5486720">
	<ele>1562.00</ele>
	<time>2023-10-07T11:22:59.000Z</time>
</trkpt>
<trkpt lat="45.9360670" lon="9.5486600">
	<ele>1562.20</ele>
	<time>2023-10-07T11:23:00.000Z</time>
</trkpt>
<trkpt lat="45.9360650" lon="9.5486490">
	<ele>1562.20</ele>
	<time>2023-10-07T11:23:01.000Z</time>
</trkpt>
<trkpt lat="45.9360640" lon="9.5486400">
	<ele>1562.40</ele>
	<time>2023-10-07T11:23:02.000Z</time>
</trkpt>
<trkpt lat="45.9360650" lon="9.5486290">
	<ele>1562.40</ele>
	<time>2023-10-07T11:23:03.000Z</time>
</trkpt>
<trkpt lat="45.9360660" lon="9.5486180">
	<ele>1562.80</ele>
	<time>2023-10-07T11:23:04.000Z</time>
</trkpt>
<trkpt lat="45.9360670" lon="9.5486060">
	<ele>1563.00</ele>
	<time>2023-10-07T11:23:05.000Z</time>
</trkpt>
<trkpt lat="45.9360670" lon="9.5485940">
	<ele>1563.00</ele>
	<time>2023-10-07T11:23:06.000Z</time>
</trkpt>
<trkpt lat="45.9360660" lon="9.5485840">
	<ele>1563.20</ele>
	<time>2023-10-07T11:23:07.000Z</time>
</trkpt>
<trkpt lat="45.9360670" lon="9.5485730">
	<ele>1563.40</ele>
	<time>2023-10-07T11:23:08.000Z</time>
</trkpt>
<trkpt lat="45.9360700" lon="9.5485610">
	<ele>1563.40</ele>
	<time>2023-10-07T11:23:09.000Z</time>
</trkpt>
<trkpt lat="45.9360700" lon="9.5485500">
	<ele>1563.60</ele>
	<time>2023-10-07T11:23:10.000Z</time>
</trkpt>
<trkpt lat="45.9360720" lon="9.5485370">
	<ele>1563.80</ele>
	<time>2023-10-07T11:23:11.000Z</time>
</trkpt>
<trkpt lat="45.9360740" lon="9.5485270">
	<ele>1564.00</ele>
	<time>2023-10-07T11:23:12.000Z</time>
</trkpt>
<trkpt lat="45.9360770" lon="9.5485180">
	<ele>1564.00</ele>
	<time>2023-10-07T11:23:13.000Z</time>
</trkpt>
<trkpt lat="45.9360800" lon="9.5485090">
	<ele>1564.40</ele>
	<time>2023-10-07T11:23:14.000Z</time>
</trkpt>
<trkpt lat="45.9360820" lon="9.5484990">
	<ele>1564.60</ele>
	<time>2023-10-07T11:23:15.000Z</time>
</trkpt>
<trkpt lat="45.9360830" lon="9.5484890">
	<ele>1564.80</ele>
	<time>2023-10-07T11:23:16.000Z</time>
</trkpt>
<trkpt lat="45.9360810" lon="9.5484790">
	<ele>1565.00</ele>
	<time>2023-10-07T11:23:17.000Z</time>
</trkpt>
<trkpt lat="45.9360820" lon="9.5484680">
	<ele>1565.20</ele>
	<time>2023-10-07T11:23:18.000Z</time>
</trkpt>
<trkpt lat="45.9360830" lon="9.5484590">
	<ele>1565.40</ele>
	<time>2023-10-07T11:23:19.000Z</time>
</trkpt>
<trkpt lat="45.9360840" lon="9.5484500">
	<ele>1565.60</ele>
	<time>2023-10-07T11:23:20.000Z</time>
</trkpt>
<trkpt lat="45.9360860" lon="9.5484410">
	<ele>1565.60</ele>
	<time>2023-10-07T11:23:21.000Z</time>
</trkpt>
<trkpt lat="45.9360860" lon="9.5484350">
	<ele>1565.60</ele>
	<time>2023-10-07T11:23:22.000Z</time>
</trkpt>
<trkpt lat="45.9360860" lon="9.5484240">
	<ele>1566.00</ele>
	<time>2023-10-07T11:23:23.000Z</time>
</trkpt>
<trkpt lat="45.9360870" lon="9.5484110">
	<ele>1566.20</ele>
	<time>2023-10-07T11:23:24.000Z</time>
</trkpt>
<trkpt lat="45.9360870" lon="9.5484010">
	<ele>1566.40</ele>
	<time>2023-10-07T11:23:25.000Z</time>
</trkpt>
<trkpt lat="45.9360870" lon="9.5483900">
	<ele>1566.60</ele>
	<time>2023-10-07T11:23:26.000Z</time>
</trkpt>
<trkpt lat="45.9360860" lon="9.5483810">
	<ele>1566.60</ele>
	<time>2023-10-07T11:23:27.000Z</time>
</trkpt>
<trkpt lat="45.9360860" lon="9.5483770">
	<ele>1566.80</ele>
	<time>2023-10-07T11:23:28.000Z</time>
</trkpt>
<trkpt lat="45.9360840" lon="9.5483710">
	<ele>1567.00</ele>
	<time>2023-10-07T11:23:29.000Z</time>
</trkpt>
<trkpt lat="45.9360830" lon="9.5483630">
	<ele>1567.00</ele>
	<time>2023-10-07T11:23:30.000Z</time>
</trkpt>
<trkpt lat="45.9360810" lon="9.5483560">
	<ele>1567.40</ele>
	<time>2023-10-07T11:23:31.000Z</time>
</trkpt>
<trkpt lat="45.9360770" lon="9.5483440">
	<ele>1567.80</ele>
	<time>2023-10-07T11:23:32.000Z</time>
</trkpt>
<trkpt lat="45.9360750" lon="9.5483360">
	<ele>1567.80</ele>
	<time>2023-10-07T11:23:33.000Z</time>
</trkpt>
<trkpt lat="45.9360770" lon="9.5483330">
	<ele>1568.00</ele>
	<time>2023-10-07T11:23:34.000Z</time>
</trkpt>
<trkpt lat="45.9360790" lon="9.5483290">
	<ele>1568.20</ele>
	<time>2023-10-07T11:23:35.000Z</time>
</trkpt>
<trkpt lat="45.9360800" lon="9.5483230">
	<ele>1568.20</ele>
	<time>2023-10-07T11:23:36.000Z</time>
</trkpt>
<trkpt lat="45.9360810" lon="9.5483160">
	<ele>1568.60</ele>
	<time>2023-10-07T11:23:37.000Z</time>
</trkpt>
<trkpt lat="45.9360810" lon="9.5483070">
	<ele>1568.80</ele>
	<time>2023-10-07T11:23:38.000Z</time>
</trkpt>
<trkpt lat="45.9360820" lon="9.5482970">
	<ele>1569.00</ele>
	<time>2023-10-07T11:23:39.000Z</time>
</trkpt>
<trkpt lat="45.9360810" lon="9.5482850">
	<ele>1569.20</ele>
	<time>2023-10-07T11:23:40.000Z</time>
</trkpt>
<trkpt lat="45.9360790" lon="9.5482740">
	<ele>1569.40</ele>
	<time>2023-10-07T11:23:41.000Z</time>
</trkpt>
<trkpt lat="45.9360760" lon="9.5482670">
	<ele>1569.40</ele>
	<time>2023-10-07T11:23:42.000Z</time>
</trkpt>
<trkpt lat="45.9360760" lon="9.5482640">
	<ele>1569.60</ele>
	<time>2023-10-07T11:23:43.000Z</time>
</trkpt>
<trkpt lat="45.9360750" lon="9.5482610">
	<ele>1569.60</ele>
	<time>2023-10-07T11:23:44.000Z</time>
</trkpt>
<trkpt lat="45.9360740" lon="9.5482570">
	<ele>1569.60</ele>
	<time>2023-10-07T11:23:45.000Z</time>
</trkpt>
<trkpt lat="45.9360730" lon="9.5482540">
	<ele>1569.60</ele>
	<time>2023-10-07T11:23:46.000Z</time>
</trkpt>
<trkpt lat="45.9360740" lon="9.5482530">
	<ele>1569.80</ele>
	<time>2023-10-07T11:23:47.000Z</time>
</trkpt>
<trkpt lat="45.9360730" lon="9.5482530">
	<ele>1569.80</ele>
	<time>2023-10-07T11:23:48.000Z</time>
</trkpt>
<trkpt lat="45.9360720" lon="9.5482520">
	<ele>1569.80</ele>
	<time>2023-10-07T11:23:49.000Z</time>
</trkpt>
<trkpt lat="45.9360710" lon="9.5482530">
	<ele>1569.80</ele>
	<time>2023-10-07T11:23:50.000Z</time>
</trkpt>
<trkpt lat="45.9360710" lon="9.5482540">
	<ele>1569.80</ele>
	<time>2023-10-07T11:23:51.000Z</time>
</trkpt>
<trkpt lat="45.9360710" lon="9.5482530">
	<ele>1569.80</ele>
	<time>2023-10-07T11:23:52.000Z</time>
</trkpt>
<trkpt lat="45.9360720" lon="9.5482500">
	<ele>1569.80</ele>
	<time>2023-10-07T11:23:53.000Z</time>
</trkpt>
<trkpt lat="45.9360720" lon="9.5482490">
	<ele>1569.80</ele>
	<time>2023-10-07T11:23:54.000Z</time>
</trkpt>
<trkpt lat="45.9360720" lon="9.5482490">
	<ele>1569.80</ele>
	<time>2023-10-07T11:23:55.000Z</time>
</trkpt>
<trkpt lat="45.9360720" lon="9.5482490">
	<ele>1569.80</ele>
	<time>2023-10-07T11:23:56.000Z</time>
</trkpt>
<trkpt lat="45.9360720" lon="9.5482490">
	<ele>1569.80</ele>
	<time>2023-10-07T11:23:57.000Z</time>
</trkpt>
<trkpt lat="45.9360720" lon="9.5482490">
	<ele>1569.80</ele>
	<time>2023-10-07T11:23:58.000Z</time>
</trkpt>
<trkpt lat="45.9360720" lon="9.5482490">
	<ele>1569.80</ele>
	<time>2023-10-07T11:23:59.000Z</time>
</trkpt>
<trkpt lat="45.9360720" lon="9.5482490">
	<ele>1569.80</ele>
	<time>2023-10-07T11:24:00.000Z</time>
</trkpt>
<trkpt lat="45.9360720" lon="9.5482490">
	<ele>1569.80</ele>
	<time>2023-10-07T11:24:01.000Z</time>
</trkpt>
<trkpt lat="45.9360720" lon="9.5482490">
	<ele>1569.60</ele>
	<time>2023-10-07T11:24:02.000Z</time>
</trkpt>
<trkpt lat="45.9360720" lon="9.5482490">
	<ele>1569.60</ele>
	<time>2023-10-07T11:24:03.000Z</time>
</trkpt>
<trkpt lat="45.9360720" lon="9.5482490">
	<ele>1569.60</ele>
	<time>2023-10-07T11:24:04.000Z</time>
</trkpt>
<trkpt lat="45.9360720" lon="9.5482490">
	<ele>1569.60</ele>
	<time>2023-10-07T11:24:05.000Z</time>
</trkpt>
<trkpt lat="45.9360720" lon="9.5482490">
	<ele>1569.60</ele>
	<time>2023-10-07T11:24:06.000Z</time>
</trkpt>
<trkpt lat="45.9360720" lon="9.5482490">
	<ele>1569.60</ele>
	<time>2023-10-07T11:24:07.000Z</time>
</trkpt>
<trkpt lat="45.9360720" lon="9.5482490">
	<ele>1569.60</ele>
	<time>2023-10-07T11:24:08.000Z</time>
</trkpt>
<trkpt lat="45.9360720" lon="9.5482490">
	<ele>1569.40</ele>
	<time>2023-10-07T11:24:09.000Z</time>
</trkpt>
<trkpt lat="45.9360720" lon="9.5482500">
	<ele>1569.40</ele>
	<time>2023-10-07T11:24:10.000Z</time>
</trkpt>
<trkpt lat="45.9360720" lon="9.5482520">
	<ele>1569.40</ele>
	<time>2023-10-07T11:24:11.000Z</time>
</trkpt>
<trkpt lat="45.9360720" lon="9.5482520">
	<ele>1569.40</ele>
	<time>2023-10-07T11:24:12.000Z</time>
</trkpt>
<trkpt lat="45.9360720" lon="9.5482520">
	<ele>1569.40</ele>
	<time>2023-10-07T11:24:13.000Z</time>
</trkpt>
<trkpt lat="45.9360720" lon="9.5482520">
	<ele>1569.40</ele>
	<time>2023-10-07T11:24:14.000Z</time>
</trkpt>
<trkpt lat="45.9360720" lon="9.5482520">
	<ele>1569.40</ele>
	<time>2023-10-07T11:24:15.000Z</time>
</trkpt>
<trkpt lat="45.9360720" lon="9.5482530">
	<ele>1569.40</ele>
	<time>2023-10-07T11:24:16.000Z</time>
</trkpt>
<trkpt lat="45.9360720" lon="9.5482530">
	<ele>1569.40</ele>
	<time>2023-10-07T11:24:17.000Z</time>
</trkpt>
<trkpt lat="45.9360710" lon="9.5482530">
	<ele>1569.40</ele>
	<time>2023-10-07T11:24:18.000Z</time>
</trkpt>
<trkpt lat="45.9360710" lon="9.5482530">
	<ele>1569.60</ele>
	<time>2023-10-07T11:24:19.000Z</time>
</trkpt>
<trkpt lat="45.9360710" lon="9.5482530">
	<ele>1569.60</ele>
	<time>2023-10-07T11:24:20.000Z</time>
</trkpt>
<trkpt lat="45.9360710" lon="9.5482530">
	<ele>1569.60</ele>
	<time>2023-10-07T11:24:21.000Z</time>
</trkpt>
<trkpt lat="45.9360720" lon="9.5482530">
	<ele>1569.80</ele>
	<time>2023-10-07T11:24:22.000Z</time>
</trkpt>
<trkpt lat="45.9360720" lon="9.5482530">
	<ele>1569.80</ele>
	<time>2023-10-07T11:24:23.000Z</time>
</trkpt>
<trkpt lat="45.9360720" lon="9.5482530">
	<ele>1569.80</ele>
	<time>2023-10-07T11:24:24.000Z</time>
</trkpt>
<trkpt lat="45.9360720" lon="9.5482530">
	<ele>1570.00</ele>
	<time>2023-10-07T11:24:25.000Z</time>
</trkpt>
<trkpt lat="45.9360720" lon="9.5482530">
	<ele>1570.00</ele>
	<time>2023-10-07T11:24:26.000Z</time>
</trkpt>
<trkpt lat="45.9360720" lon="9.5482530">
	<ele>1570.40</ele>
	<time>2023-10-07T11:24:27.000Z</time>
</trkpt>
<trkpt lat="45.9360720" lon="9.5482530">
	<ele>1570.60</ele>
	<time>2023-10-07T11:24:28.000Z</time>
</trkpt>
<trkpt lat="45.9360760" lon="9.5482470">
	<ele>1570.80</ele>
	<time>2023-10-07T11:24:29.000Z</time>
</trkpt>
<trkpt lat="45.9360840" lon="9.5482360">
	<ele>1571.00</ele>
	<time>2023-10-07T11:24:30.000Z</time>
</trkpt>
<trkpt lat="45.9360910" lon="9.5482240">
	<ele>1571.20</ele>
	<time>2023-10-07T11:24:31.000Z</time>
</trkpt>
<trkpt lat="45.9360980" lon="9.5482130">
	<ele>1571.20</ele>
	<time>2023-10-07T11:24:32.000Z</time>
</trkpt>
<trkpt lat="45.9361070" lon="9.5481960">
	<ele>1571.60</ele>
	<time>2023-10-07T11:24:33.000Z</time>
</trkpt>
<trkpt lat="45.9361150" lon="9.5481810">
	<ele>1571.80</ele>
	<time>2023-10-07T11:24:34.000Z</time>
</trkpt>
<trkpt lat="45.9361250" lon="9.5481680">
	<ele>1571.80</ele>
	<time>2023-10-07T11:24:35.000Z</time>
</trkpt>
<trkpt lat="45.9361340" lon="9.5481520">
	<ele>1572.20</ele>
	<time>2023-10-07T11:24:36.000Z</time>
</trkpt>
<trkpt lat="45.9361400" lon="9.5481360">
	<ele>1572.40</ele>
	<time>2023-10-07T11:24:37.000Z</time>
</trkpt>
<trkpt lat="45.9361500" lon="9.5481190">
	<ele>1572.60</ele>
	<time>2023-10-07T11:24:38.000Z</time>
</trkpt>
<trkpt lat="45.9361560" lon="9.5481100">
	<ele>1572.80</ele>
	<time>2023-10-07T11:24:39.000Z</time>
</trkpt>
<trkpt lat="45.9361590" lon="9.5481070">
	<ele>1573.00</ele>
	<time>2023-10-07T11:24:40.000Z</time>
</trkpt>
<trkpt lat="45.9361630" lon="9.5481000">
	<ele>1573.20</ele>
	<time>2023-10-07T11:24:41.000Z</time>
</trkpt>
<trkpt lat="45.9361690" lon="9.5480970">
	<ele>1573.40</ele>
	<time>2023-10-07T11:24:42.000Z</time>
</trkpt>
<trkpt lat="45.9361720" lon="9.5480970">
	<ele>1573.60</ele>
	<time>2023-10-07T11:24:43.000Z</time>
</trkpt>
<trkpt lat="45.9361780" lon="9.5480970">
	<ele>1573.80</ele>
	<time>2023-10-07T11:24:44.000Z</time>
</trkpt>
<trkpt lat="45.9361830" lon="9.5481000">
	<ele>1574.00</ele>
	<time>2023-10-07T11:24:45.000Z</time>
</trkpt>
<trkpt lat="45.9361930" lon="9.5481080">
	<ele>1574.20</ele>
	<time>2023-10-07T11:24:46.000Z</time>
</trkpt>
<trkpt lat="45.9361970" lon="9.5481210">
	<ele>1574.20</ele>
	<time>2023-10-07T11:24:47.000Z</time>
</trkpt>
<trkpt lat="45.9362020" lon="9.5481320">
	<ele>1574.40</ele>
	<time>2023-10-07T11:24:48.000Z</time>
</trkpt>
<trkpt lat="45.9362040" lon="9.5481360">
	<ele>1574.40</ele>
	<time>2023-10-07T11:24:49.000Z</time>
</trkpt>
<trkpt lat="45.9362040" lon="9.5481390">
	<ele>1574.20</ele>
	<time>2023-10-07T11:24:50.000Z</time>
</trkpt>
<trkpt lat="45.9362040" lon="9.5481430">
	<ele>1574.20</ele>
	<time>2023-10-07T11:24:51.000Z</time>
</trkpt>
<trkpt lat="45.9362030" lon="9.5481430">
	<ele>1574.20</ele>
	<time>2023-10-07T11:24:52.000Z</time>
</trkpt>
<trkpt lat="45.9362010" lon="9.5481420">
	<ele>1574.20</ele>
	<time>2023-10-07T11:24:53.000Z</time>
</trkpt>
<trkpt lat="45.9362000" lon="9.5481400">
	<ele>1574.20</ele>
	<time>2023-10-07T11:24:54.000Z</time>
</trkpt>
<trkpt lat="45.9362000" lon="9.5481400">
	<ele>1574.40</ele>
	<time>2023-10-07T11:24:55.000Z</time>
</trkpt>
<trkpt lat="45.9362000" lon="9.5481400">
	<ele>1574.80</ele>
	<time>2023-10-07T11:24:56.000Z</time>
</trkpt>
<trkpt lat="45.9362000" lon="9.5481400">
	<ele>1575.00</ele>
	<time>2023-10-07T11:24:57.000Z</time>
</trkpt>
<trkpt lat="45.9362000" lon="9.5481400">
	<ele>1575.00</ele>
	<time>2023-10-07T11:24:58.000Z</time>
</trkpt>
<trkpt lat="45.9362000" lon="9.5481400">
	<ele>1575.20</ele>
	<time>2023-10-07T11:24:59.000Z</time>
</trkpt>
<trkpt lat="45.9362000" lon="9.5481400">
	<ele>1575.20</ele>
	<time>2023-10-07T11:25:00.000Z</time>
</trkpt>
<trkpt lat="45.9362000" lon="9.5481400">
	<ele>1575.20</ele>
	<time>2023-10-07T11:25:01.000Z</time>
</trkpt>
<trkpt lat="45.9362000" lon="9.5481400">
	<ele>1575.20</ele>
	<time>2023-10-07T11:25:02.000Z</time>
</trkpt>
<trkpt lat="45.9362000" lon="9.5481400">
	<ele>1575.20</ele>
	<time>2023-10-07T11:25:03.000Z</time>
</trkpt>
<trkpt lat="45.9362000" lon="9.5481400">
	<ele>1575.20</ele>
	<time>2023-10-07T11:25:04.000Z</time>
</trkpt>
<trkpt lat="45.9362000" lon="9.5481400">
	<ele>1575.20</ele>
	<time>2023-10-07T11:25:05.000Z</time>
</trkpt>
<trkpt lat="45.9362000" lon="9.5481400">
	<ele>1575.20</ele>
	<time>2023-10-07T11:25:06.000Z</time>
</trkpt>
<trkpt lat="45.9362000" lon="9.5481400">
	<ele>1575.00</ele>
	<time>2023-10-07T11:25:07.000Z</time>
</trkpt>
<trkpt lat="45.9362010" lon="9.5481400">
	<ele>1575.00</ele>
	<time>2023-10-07T11:25:08.000Z</time>
</trkpt>
<trkpt lat="45.9362020" lon="9.5481400">
	<ele>1574.80</ele>
	<time>2023-10-07T11:25:09.000Z</time>
</trkpt>
<trkpt lat="45.9362040" lon="9.5481440">
	<ele>1574.80</ele>
	<time>2023-10-07T11:25:10.000Z</time>
</trkpt>
<trkpt lat="45.9362100" lon="9.5481630">
	<ele>1574.60</ele>
	<time>2023-10-07T11:25:11.000Z</time>
</trkpt>
<trkpt lat="45.9362180" lon="9.5481790">
	<ele>1574.80</ele>
	<time>2023-10-07T11:25:12.000Z</time>
</trkpt>
<trkpt lat="45.9362260" lon="9.5481940">
	<ele>1574.80</ele>
	<time>2023-10-07T11:25:13.000Z</time>
</trkpt>
<trkpt lat="45.9362320" lon="9.5482110">
	<ele>1574.80</ele>
	<time>2023-10-07T11:25:14.000Z</time>
</trkpt>
<trkpt lat="45.9362380" lon="9.5482260">
	<ele>1575.20</ele>
	<time>2023-10-07T11:25:15.000Z</time>
</trkpt>
<trkpt lat="45.9362420" lon="9.5482460">
	<ele>1575.40</ele>
	<time>2023-10-07T11:25:16.000Z</time>
</trkpt>
<trkpt lat="45.9362440" lon="9.5482660">
	<ele>1575.40</ele>
	<time>2023-10-07T11:25:17.000Z</time>
</trkpt>
<trkpt lat="45.9362470" lon="9.5482920">
	<ele>1575.60</ele>
	<time>2023-10-07T11:25:18.000Z</time>
</trkpt>
<trkpt lat="45.9362490" lon="9.5483120">
	<ele>1575.60</ele>
	<time>2023-10-07T11:25:19.000Z</time>
</trkpt>
<trkpt lat="45.9362500" lon="9.5483260">
	<ele>1575.60</ele>
	<time>2023-10-07T11:25:20.000Z</time>
</trkpt>
<trkpt lat="45.9362490" lon="9.5483410">
	<ele>1575.80</ele>
	<time>2023-10-07T11:25:21.000Z</time>
</trkpt>
<trkpt lat="45.9362500" lon="9.5483600">
	<ele>1575.80</ele>
	<time>2023-10-07T11:25:22.000Z</time>
</trkpt>
<trkpt lat="45.9362520" lon="9.5483770">
	<ele>1575.80</ele>
	<time>2023-10-07T11:25:23.000Z</time>
</trkpt>
<trkpt lat="45.9362550" lon="9.5483960">
	<ele>1576.00</ele>
	<time>2023-10-07T11:25:24.000Z</time>
</trkpt>
<trkpt lat="45.9362560" lon="9.5484160">
	<ele>1576.00</ele>
	<time>2023-10-07T11:25:25.000Z</time>
</trkpt>
<trkpt lat="45.9362600" lon="9.5484290">
	<ele>1576.20</ele>
	<time>2023-10-07T11:25:26.000Z</time>
</trkpt>
<trkpt lat="45.9362650" lon="9.5484460">
	<ele>1576.20</ele>
	<time>2023-10-07T11:25:27.000Z</time>
</trkpt>
<trkpt lat="45.9362720" lon="9.5484640">
	<ele>1576.20</ele>
	<time>2023-10-07T11:25:28.000Z</time>
</trkpt>
<trkpt lat="45.9362770" lon="9.5484840">
	<ele>1576.20</ele>
	<time>2023-10-07T11:25:29.000Z</time>
</trkpt>
<trkpt lat="45.9362800" lon="9.5485060">
	<ele>1576.20</ele>
	<time>2023-10-07T11:25:30.000Z</time>
</trkpt>
<trkpt lat="45.9362840" lon="9.5485250">
	<ele>1576.20</ele>
	<time>2023-10-07T11:25:31.000Z</time>
</trkpt>
<trkpt lat="45.9362850" lon="9.5485390">
	<ele>1576.20</ele>
	<time>2023-10-07T11:25:32.000Z</time>
</trkpt>
<trkpt lat="45.9362850" lon="9.5485580">
	<ele>1576.20</ele>
	<time>2023-10-07T11:25:33.000Z</time>
</trkpt>
<trkpt lat="45.9362880" lon="9.5485790">
	<ele>1576.20</ele>
	<time>2023-10-07T11:25:34.000Z</time>
</trkpt>
<trkpt lat="45.9362930" lon="9.5485960">
	<ele>1576.20</ele>
	<time>2023-10-07T11:25:35.000Z</time>
</trkpt>
<trkpt lat="45.9362960" lon="9.5486120">
	<ele>1576.20</ele>
	<time>2023-10-07T11:25:36.000Z</time>
</trkpt>
<trkpt lat="45.9363000" lon="9.5486250">
	<ele>1576.20</ele>
	<time>2023-10-07T11:25:37.000Z</time>
</trkpt>
<trkpt lat="45.9363070" lon="9.5486430">
	<ele>1576.00</ele>
	<time>2023-10-07T11:25:38.000Z</time>
</trkpt>
<trkpt lat="45.9363150" lon="9.5486600">
	<ele>1576.00</ele>
	<time>2023-10-07T11:25:39.000Z</time>
</trkpt>
<trkpt lat="45.9363210" lon="9.5486750">
	<ele>1576.00</ele>
	<time>2023-10-07T11:25:40.000Z</time>
</trkpt>
<trkpt lat="45.9363270" lon="9.5486870">
	<ele>1576.00</ele>
	<time>2023-10-07T11:25:41.000Z</time>
</trkpt>
<trkpt lat="45.9363340" lon="9.5486980">
	<ele>1576.20</ele>
	<time>2023-10-07T11:25:42.000Z</time>
</trkpt>
<trkpt lat="45.9363440" lon="9.5487060">
	<ele>1576.40</ele>
	<time>2023-10-07T11:25:43.000Z</time>
</trkpt>
<trkpt lat="45.9363500" lon="9.5487090">
	<ele>1576.60</ele>
	<time>2023-10-07T11:25:44.000Z</time>
</trkpt>
<trkpt lat="45.9363580" lon="9.5487170">
	<ele>1576.60</ele>
	<time>2023-10-07T11:25:45.000Z</time>
</trkpt>
<trkpt lat="45.9363680" lon="9.5487220">
	<ele>1576.80</ele>
	<time>2023-10-07T11:25:46.000Z</time>
</trkpt>
<trkpt lat="45.9363770" lon="9.5487260">
	<ele>1576.80</ele>
	<time>2023-10-07T11:25:47.000Z</time>
</trkpt>
<trkpt lat="45.9363860" lon="9.5487260">
	<ele>1576.80</ele>
	<time>2023-10-07T11:25:48.000Z</time>
</trkpt>
<trkpt lat="45.9363940" lon="9.5487310">
	<ele>1576.80</ele>
	<time>2023-10-07T11:25:49.000Z</time>
</trkpt>
<trkpt lat="45.9364050" lon="9.5487400">
	<ele>1576.80</ele>
	<time>2023-10-07T11:25:50.000Z</time>
</trkpt>
<trkpt lat="45.9364150" lon="9.5487420">
	<ele>1576.80</ele>
	<time>2023-10-07T11:25:51.000Z</time>
</trkpt>
<trkpt lat="45.9364240" lon="9.5487460">
	<ele>1576.60</ele>
	<time>2023-10-07T11:25:52.000Z</time>
</trkpt>
<trkpt lat="45.9364350" lon="9.5487480">
	<ele>1576.40</ele>
	<time>2023-10-07T11:25:53.000Z</time>
</trkpt>
<trkpt lat="45.9364440" lon="9.5487470">
	<ele>1576.20</ele>
	<time>2023-10-07T11:25:54.000Z</time>
</trkpt>
<trkpt lat="45.9364550" lon="9.5487410">
	<ele>1576.20</ele>
	<time>2023-10-07T11:25:55.000Z</time>
</trkpt>
<trkpt lat="45.9364640" lon="9.5487390">
	<ele>1576.00</ele>
	<time>2023-10-07T11:25:56.000Z</time>
</trkpt>
<trkpt lat="45.9364710" lon="9.5487390">
	<ele>1576.00</ele>
	<time>2023-10-07T11:25:57.000Z</time>
</trkpt>
<trkpt lat="45.9364790" lon="9.5487410">
	<ele>1575.80</ele>
	<time>2023-10-07T11:25:58.000Z</time>
</trkpt>
<trkpt lat="45.9364870" lon="9.5487440">
	<ele>1575.60</ele>
	<time>2023-10-07T11:25:59.000Z</time>
</trkpt>
<trkpt lat="45.9364980" lon="9.5487460">
	<ele>1575.40</ele>
	<time>2023-10-07T11:26:00.000Z</time>
</trkpt>
<trkpt lat="45.9365120" lon="9.5487420">
	<ele>1575.20</ele>
	<time>2023-10-07T11:26:01.000Z</time>
</trkpt>
<trkpt lat="45.9365350" lon="9.5487410">
	<ele>1574.80</ele>
	<time>2023-10-07T11:26:02.000Z</time>
</trkpt>
<trkpt lat="45.9365510" lon="9.5487450">
	<ele>1574.60</ele>
	<time>2023-10-07T11:26:03.000Z</time>
</trkpt>
<trkpt lat="45.9365680" lon="9.5487500">
	<ele>1574.20</ele>
	<time>2023-10-07T11:26:04.000Z</time>
</trkpt>
<trkpt lat="45.9365790" lon="9.5487530">
	<ele>1574.00</ele>
	<time>2023-10-07T11:26:05.000Z</time>
</trkpt>
<trkpt lat="45.9365850" lon="9.5487640">
	<ele>1574.00</ele>
	<time>2023-10-07T11:26:06.000Z</time>
</trkpt>
<trkpt lat="45.9365880" lon="9.5487790">
	<ele>1573.80</ele>
	<time>2023-10-07T11:26:07.000Z</time>
</trkpt>
<trkpt lat="45.9365940" lon="9.5487940">
	<ele>1573.80</ele>
	<time>2023-10-07T11:26:08.000Z</time>
</trkpt>
<trkpt lat="45.9366000" lon="9.5488020">
	<ele>1573.80</ele>
	<time>2023-10-07T11:26:09.000Z</time>
</trkpt>
<trkpt lat="45.9366060" lon="9.5488110">
	<ele>1573.60</ele>
	<time>2023-10-07T11:26:10.000Z</time>
</trkpt>
<trkpt lat="45.9366100" lon="9.5488210">
	<ele>1573.40</ele>
	<time>2023-10-07T11:26:11.000Z</time>
</trkpt>
<trkpt lat="45.9366140" lon="9.5488280">
	<ele>1573.40</ele>
	<time>2023-10-07T11:26:12.000Z</time>
</trkpt>
<trkpt lat="45.9366200" lon="9.5488330">
	<ele>1573.40</ele>
	<time>2023-10-07T11:26:13.000Z</time>
</trkpt>
<trkpt lat="45.9366270" lon="9.5488390">
	<ele>1573.40</ele>
	<time>2023-10-07T11:26:14.000Z</time>
</trkpt>
<trkpt lat="45.9366330" lon="9.5488440">
	<ele>1573.40</ele>
	<time>2023-10-07T11:26:15.000Z</time>
</trkpt>
<trkpt lat="45.9366410" lon="9.5488520">
	<ele>1573.60</ele>
	<time>2023-10-07T11:26:16.000Z</time>
</trkpt>
<trkpt lat="45.9366420" lon="9.5488620">
	<ele>1573.60</ele>
	<time>2023-10-07T11:26:17.000Z</time>
</trkpt>
<trkpt lat="45.9366480" lon="9.5488700">
	<ele>1573.60</ele>
	<time>2023-10-07T11:26:18.000Z</time>
</trkpt>
<trkpt lat="45.9366590" lon="9.5488710">
	<ele>1573.60</ele>
	<time>2023-10-07T11:26:19.000Z</time>
</trkpt>
<trkpt lat="45.9366650" lon="9.5488720">
	<ele>1573.60</ele>
	<time>2023-10-07T11:26:20.000Z</time>
</trkpt>
<trkpt lat="45.9366660" lon="9.5488800">
	<ele>1573.40</ele>
	<time>2023-10-07T11:26:21.000Z</time>
</trkpt>
<trkpt lat="45.9366640" lon="9.5488910">
	<ele>1573.40</ele>
	<time>2023-10-07T11:26:22.000Z</time>
</trkpt>
<trkpt lat="45.9366640" lon="9.5488940">
	<ele>1573.40</ele>
	<time>2023-10-07T11:26:23.000Z</time>
</trkpt>
<trkpt lat="45.9366640" lon="9.5489090">
	<ele>1573.40</ele>
	<time>2023-10-07T11:26:24.000Z</time>
</trkpt>
<trkpt lat="45.9366640" lon="9.5489170">
	<ele>1573.40</ele>
	<time>2023-10-07T11:26:25.000Z</time>
</trkpt>
<trkpt lat="45.9366640" lon="9.5489260">
	<ele>1573.40</ele>
	<time>2023-10-07T11:26:26.000Z</time>
</trkpt>
<trkpt lat="45.9366610" lon="9.5489390">
	<ele>1573.40</ele>
	<time>2023-10-07T11:26:27.000Z</time>
</trkpt>
<trkpt lat="45.9366550" lon="9.5489490">
	<ele>1573.40</ele>
	<time>2023-10-07T11:26:28.000Z</time>
</trkpt>
<trkpt lat="45.9366480" lon="9.5489550">
	<ele>1573.40</ele>
	<time>2023-10-07T11:26:29.000Z</time>
</trkpt>
<trkpt lat="45.9366450" lon="9.5489610">
	<ele>1573.20</ele>
	<time>2023-10-07T11:26:30.000Z</time>
</trkpt>
<trkpt lat="45.9366410" lon="9.5489690">
	<ele>1572.80</ele>
	<time>2023-10-07T11:26:31.000Z</time>
</trkpt>
<trkpt lat="45.9366360" lon="9.5489780">
	<ele>1572.80</ele>
	<time>2023-10-07T11:26:32.000Z</time>
</trkpt>
<trkpt lat="45.9366260" lon="9.5489890">
	<ele>1572.60</ele>
	<time>2023-10-07T11:26:33.000Z</time>
</trkpt>
<trkpt lat="45.9366180" lon="9.5490020">
	<ele>1572.40</ele>
	<time>2023-10-07T11:26:34.000Z</time>
</trkpt>
<trkpt lat="45.9366080" lon="9.5490140">
	<ele>1572.40</ele>
	<time>2023-10-07T11:26:35.000Z</time>
</trkpt>
<trkpt lat="45.9365980" lon="9.5490230">
	<ele>1572.20</ele>
	<time>2023-10-07T11:26:36.000Z</time>
</trkpt>
<trkpt lat="45.9365900" lon="9.5490380">
	<ele>1572.20</ele>
	<time>2023-10-07T11:26:37.000Z</time>
</trkpt>
<trkpt lat="45.9365860" lon="9.5490560">
	<ele>1572.20</ele>
	<time>2023-10-07T11:26:38.000Z</time>
</trkpt>
<trkpt lat="45.9365820" lon="9.5490700">
	<ele>1572.00</ele>
	<time>2023-10-07T11:26:39.000Z</time>
</trkpt>
<trkpt lat="45.9365790" lon="9.5490870">
	<ele>1572.00</ele>
	<time>2023-10-07T11:26:40.000Z</time>
</trkpt>
<trkpt lat="45.9365760" lon="9.5491030">
	<ele>1572.00</ele>
	<time>2023-10-07T11:26:41.000Z</time>
</trkpt>
<trkpt lat="45.9365730" lon="9.5491150">
	<ele>1572.00</ele>
	<time>2023-10-07T11:26:42.000Z</time>
</trkpt>
<trkpt lat="45.9365670" lon="9.5491260">
	<ele>1571.80</ele>
	<time>2023-10-07T11:26:43.000Z</time>
</trkpt>
<trkpt lat="45.9365610" lon="9.5491410">
	<ele>1571.80</ele>
	<time>2023-10-07T11:26:44.000Z</time>
</trkpt>
<trkpt lat="45.9365540" lon="9.5491510">
	<ele>1571.80</ele>
	<time>2023-10-07T11:26:45.000Z</time>
</trkpt>
<trkpt lat="45.9365480" lon="9.5491640">
	<ele>1571.80</ele>
	<time>2023-10-07T11:26:46.000Z</time>
</trkpt>
<trkpt lat="45.9365390" lon="9.5491790">
	<ele>1571.80</ele>
	<time>2023-10-07T11:26:47.000Z</time>
</trkpt>
<trkpt lat="45.9365380" lon="9.5491940">
	<ele>1571.80</ele>
	<time>2023-10-07T11:26:48.000Z</time>
</trkpt>
<trkpt lat="45.9365360" lon="9.5492050">
	<ele>1571.80</ele>
	<time>2023-10-07T11:26:49.000Z</time>
</trkpt>
<trkpt lat="45.9365330" lon="9.5492200">
	<ele>1571.80</ele>
	<time>2023-10-07T11:26:50.000Z</time>
</trkpt>
<trkpt lat="45.9365280" lon="9.5492350">
	<ele>1571.80</ele>
	<time>2023-10-07T11:26:51.000Z</time>
</trkpt>
<trkpt lat="45.9365250" lon="9.5492500">
	<ele>1571.80</ele>
	<time>2023-10-07T11:26:52.000Z</time>
</trkpt>
<trkpt lat="45.9365200" lon="9.5492680">
	<ele>1571.80</ele>
	<time>2023-10-07T11:26:53.000Z</time>
</trkpt>
<trkpt lat="45.9365150" lon="9.5492860">
	<ele>1571.80</ele>
	<time>2023-10-07T11:26:54.000Z</time>
</trkpt>
<trkpt lat="45.9365090" lon="9.5493010">
	<ele>1571.60</ele>
	<time>2023-10-07T11:26:55.000Z</time>
</trkpt>
<trkpt lat="45.9365020" lon="9.5493130">
	<ele>1571.60</ele>
	<time>2023-10-07T11:26:56.000Z</time>
</trkpt>
<trkpt lat="45.9364960" lon="9.5493250">
	<ele>1571.40</ele>
	<time>2023-10-07T11:26:57.000Z</time>
</trkpt>
<trkpt lat="45.9364920" lon="9.5493360">
	<ele>1571.40</ele>
	<time>2023-10-07T11:26:58.000Z</time>
</trkpt>
<trkpt lat="45.9364910" lon="9.5493500">
	<ele>1571.40</ele>
	<time>2023-10-07T11:26:59.000Z</time>
</trkpt>
<trkpt lat="45.9364920" lon="9.5493630">
	<ele>1571.20</ele>
	<time>2023-10-07T11:27:00.000Z</time>
</trkpt>
<trkpt lat="45.9364910" lon="9.5493770">
	<ele>1571.00</ele>
	<time>2023-10-07T11:27:01.000Z</time>
</trkpt>
<trkpt lat="45.9364900" lon="9.5493940">
	<ele>1570.80</ele>
	<time>2023-10-07T11:27:02.000Z</time>
</trkpt>
<trkpt lat="45.9364900" lon="9.5494120">
	<ele>1570.60</ele>
	<time>2023-10-07T11:27:03.000Z</time>
</trkpt>
<trkpt lat="45.9364890" lon="9.5494250">
	<ele>1570.40</ele>
	<time>2023-10-07T11:27:04.000Z</time>
</trkpt>
<trkpt lat="45.9364890" lon="9.5494390">
	<ele>1570.20</ele>
	<time>2023-10-07T11:27:05.000Z</time>
</trkpt>
<trkpt lat="45.9364890" lon="9.5494540">
	<ele>1570.00</ele>
	<time>2023-10-07T11:27:06.000Z</time>
</trkpt>
<trkpt lat="45.9364920" lon="9.5494670">
	<ele>1569.60</ele>
	<time>2023-10-07T11:27:07.000Z</time>
</trkpt>
<trkpt lat="45.9364960" lon="9.5494810">
	<ele>1569.40</ele>
	<time>2023-10-07T11:27:08.000Z</time>
</trkpt>
<trkpt lat="45.9364980" lon="9.5494920">
	<ele>1569.40</ele>
	<time>2023-10-07T11:27:09.000Z</time>
</trkpt>
<trkpt lat="45.9364990" lon="9.5495090">
	<ele>1569.20</ele>
	<time>2023-10-07T11:27:10.000Z</time>
</trkpt>
<trkpt lat="45.9364990" lon="9.5495270">
	<ele>1569.20</ele>
	<time>2023-10-07T11:27:11.000Z</time>
</trkpt>
<trkpt lat="45.9364980" lon="9.5495460">
	<ele>1569.00</ele>
	<time>2023-10-07T11:27:12.000Z</time>
</trkpt>
<trkpt lat="45.9364950" lon="9.5495630">
	<ele>1569.00</ele>
	<time>2023-10-07T11:27:13.000Z</time>
</trkpt>
<trkpt lat="45.9364880" lon="9.5495780">
	<ele>1569.00</ele>
	<time>2023-10-07T11:27:14.000Z</time>
</trkpt>
<trkpt lat="45.9364780" lon="9.5495930">
	<ele>1568.80</ele>
	<time>2023-10-07T11:27:15.000Z</time>
</trkpt>
<trkpt lat="45.9364690" lon="9.5496060">
	<ele>1568.60</ele>
	<time>2023-10-07T11:27:16.000Z</time>
</trkpt>
<trkpt lat="45.9364620" lon="9.5496210">
	<ele>1568.60</ele>
	<time>2023-10-07T11:27:17.000Z</time>
</trkpt>
<trkpt lat="45.9364590" lon="9.5496370">
	<ele>1568.40</ele>
	<time>2023-10-07T11:27:18.000Z</time>
</trkpt>
<trkpt lat="45.9364550" lon="9.5496520">
	<ele>1568.40</ele>
	<time>2023-10-07T11:27:19.000Z</time>
</trkpt>
<trkpt lat="45.9364500" lon="9.5496680">
	<ele>1568.20</ele>
	<time>2023-10-07T11:27:20.000Z</time>
</trkpt>
<trkpt lat="45.9364430" lon="9.5496820">
	<ele>1568.00</ele>
	<time>2023-10-07T11:27:21.000Z</time>
</trkpt>
<trkpt lat="45.9364400" lon="9.5497000">
	<ele>1568.00</ele>
	<time>2023-10-07T11:27:22.000Z</time>
</trkpt>
<trkpt lat="45.9364340" lon="9.5497150">
	<ele>1567.80</ele>
	<time>2023-10-07T11:27:23.000Z</time>
</trkpt>
<trkpt lat="45.9364270" lon="9.5497300">
	<ele>1567.80</ele>
	<time>2023-10-07T11:27:24.000Z</time>
</trkpt>
<trkpt lat="45.9364230" lon="9.5497500">
	<ele>1567.60</ele>
	<time>2023-10-07T11:27:25.000Z</time>
</trkpt>
<trkpt lat="45.9364200" lon="9.5497700">
	<ele>1567.40</ele>
	<time>2023-10-07T11:27:26.000Z</time>
</trkpt>
<trkpt lat="45.9364160" lon="9.5497890">
	<ele>1567.40</ele>
	<time>2023-10-07T11:27:27.000Z</time>
</trkpt>
<trkpt lat="45.9364100" lon="9.5498070">
	<ele>1567.20</ele>
	<time>2023-10-07T11:27:28.000Z</time>
</trkpt>
<trkpt lat="45.9364060" lon="9.5498230">
	<ele>1567.20</ele>
	<time>2023-10-07T11:27:29.000Z</time>
</trkpt>
<trkpt lat="45.9364000" lon="9.5498390">
	<ele>1567.20</ele>
	<time>2023-10-07T11:27:30.000Z</time>
</trkpt>
<trkpt lat="45.9363950" lon="9.5498530">
	<ele>1567.00</ele>
	<time>2023-10-07T11:27:31.000Z</time>
</trkpt>
<trkpt lat="45.9363880" lon="9.5498640">
	<ele>1567.00</ele>
	<time>2023-10-07T11:27:32.000Z</time>
</trkpt>
<trkpt lat="45.9363810" lon="9.5498680">
	<ele>1567.00</ele>
	<time>2023-10-07T11:27:33.000Z</time>
</trkpt>
<trkpt lat="45.9363700" lon="9.5498770">
	<ele>1566.60</ele>
	<time>2023-10-07T11:27:34.000Z</time>
</trkpt>
<trkpt lat="45.9363610" lon="9.5498820">
	<ele>1566.40</ele>
	<time>2023-10-07T11:27:35.000Z</time>
</trkpt>
<trkpt lat="45.9363480" lon="9.5498870">
	<ele>1566.40</ele>
	<time>2023-10-07T11:27:36.000Z</time>
</trkpt>
<trkpt lat="45.9363390" lon="9.5498950">
	<ele>1566.20</ele>
	<time>2023-10-07T11:27:37.000Z</time>
</trkpt>
<trkpt lat="45.9363310" lon="9.5499060">
	<ele>1566.20</ele>
	<time>2023-10-07T11:27:38.000Z</time>
</trkpt>
<trkpt lat="45.9363270" lon="9.5499180">
	<ele>1566.00</ele>
	<time>2023-10-07T11:27:39.000Z</time>
</trkpt>
<trkpt lat="45.9363200" lon="9.5499320">
	<ele>1565.80</ele>
	<time>2023-10-07T11:27:40.000Z</time>
</trkpt>
<trkpt lat="45.9363120" lon="9.5499450">
	<ele>1565.60</ele>
	<time>2023-10-07T11:27:41.000Z</time>
</trkpt>
<trkpt lat="45.9363040" lon="9.5499540">
	<ele>1565.60</ele>
	<time>2023-10-07T11:27:42.000Z</time>
</trkpt>
<trkpt lat="45.9362960" lon="9.5499660">
	<ele>1565.20</ele>
	<time>2023-10-07T11:27:43.000Z</time>
</trkpt>
<trkpt lat="45.9362890" lon="9.5499760">
	<ele>1565.00</ele>
	<time>2023-10-07T11:27:44.000Z</time>
</trkpt>
<trkpt lat="45.9362840" lon="9.5499890">
	<ele>1565.00</ele>
	<time>2023-10-07T11:27:45.000Z</time>
</trkpt>
<trkpt lat="45.9362790" lon="9.5500060">
	<ele>1564.80</ele>
	<time>2023-10-07T11:27:46.000Z</time>
</trkpt>
<trkpt lat="45.9362760" lon="9.5500190">
	<ele>1564.80</ele>
	<time>2023-10-07T11:27:47.000Z</time>
</trkpt>
<trkpt lat="45.9362740" lon="9.5500340">
	<ele>1564.60</ele>
	<time>2023-10-07T11:27:48.000Z</time>
</trkpt>
<trkpt lat="45.9362720" lon="9.5500500">
	<ele>1564.40</ele>
	<time>2023-10-07T11:27:49.000Z</time>
</trkpt>
<trkpt lat="45.9362690" lon="9.5500660">
	<ele>1564.20</ele>
	<time>2023-10-07T11:27:50.000Z</time>
</trkpt>
<trkpt lat="45.9362660" lon="9.5500780">
	<ele>1564.00</ele>
	<time>2023-10-07T11:27:51.000Z</time>
</trkpt>
<trkpt lat="45.9362630" lon="9.5500900">
	<ele>1563.60</ele>
	<time>2023-10-07T11:27:52.000Z</time>
</trkpt>
<trkpt lat="45.9362570" lon="9.5501040">
	<ele>1563.40</ele>
	<time>2023-10-07T11:27:53.000Z</time>
</trkpt>
<trkpt lat="45.9362540" lon="9.5501190">
	<ele>1563.40</ele>
	<time>2023-10-07T11:27:54.000Z</time>
</trkpt>
<trkpt lat="45.9362490" lon="9.5501330">
	<ele>1563.20</ele>
	<time>2023-10-07T11:27:55.000Z</time>
</trkpt>
<trkpt lat="45.9362470" lon="9.5501510">
	<ele>1563.20</ele>
	<time>2023-10-07T11:27:56.000Z</time>
</trkpt>
<trkpt lat="45.9362470" lon="9.5501650">
	<ele>1562.80</ele>
	<time>2023-10-07T11:27:57.000Z</time>
</trkpt>
<trkpt lat="45.9362480" lon="9.5501820">
	<ele>1562.60</ele>
	<time>2023-10-07T11:27:58.000Z</time>
</trkpt>
<trkpt lat="45.9362490" lon="9.5501960">
	<ele>1562.60</ele>
	<time>2023-10-07T11:27:59.000Z</time>
</trkpt>
<trkpt lat="45.9362470" lon="9.5502090">
	<ele>1562.40</ele>
	<time>2023-10-07T11:28:00.000Z</time>
</trkpt>
<trkpt lat="45.9362460" lon="9.5502210">
	<ele>1562.40</ele>
	<time>2023-10-07T11:28:01.000Z</time>
</trkpt>
<trkpt lat="45.9362470" lon="9.5502360">
	<ele>1562.00</ele>
	<time>2023-10-07T11:28:02.000Z</time>
</trkpt>
<trkpt lat="45.9362460" lon="9.5502480">
	<ele>1562.00</ele>
	<time>2023-10-07T11:28:03.000Z</time>
</trkpt>
<trkpt lat="45.9362460" lon="9.5502600">
	<ele>1561.80</ele>
	<time>2023-10-07T11:28:04.000Z</time>
</trkpt>
<trkpt lat="45.9362460" lon="9.5502720">
	<ele>1561.60</ele>
	<time>2023-10-07T11:28:05.000Z</time>
</trkpt>
<trkpt lat="45.9362460" lon="9.5502900">
	<ele>1561.40</ele>
	<time>2023-10-07T11:28:06.000Z</time>
</trkpt>
<trkpt lat="45.9362470" lon="9.5503020">
	<ele>1561.20</ele>
	<time>2023-10-07T11:28:07.000Z</time>
</trkpt>
<trkpt lat="45.9362470" lon="9.5503180">
	<ele>1561.00</ele>
	<time>2023-10-07T11:28:08.000Z</time>
</trkpt>
<trkpt lat="45.9362470" lon="9.5503310">
	<ele>1561.00</ele>
	<time>2023-10-07T11:28:09.000Z</time>
</trkpt>
<trkpt lat="45.9362480" lon="9.5503470">
	<ele>1560.80</ele>
	<time>2023-10-07T11:28:10.000Z</time>
</trkpt>
<trkpt lat="45.9362490" lon="9.5503630">
	<ele>1560.60</ele>
	<time>2023-10-07T11:28:11.000Z</time>
</trkpt>
<trkpt lat="45.9362500" lon="9.5503800">
	<ele>1560.20</ele>
	<time>2023-10-07T11:28:12.000Z</time>
</trkpt>
<trkpt lat="45.9362530" lon="9.5503980">
	<ele>1560.00</ele>
	<time>2023-10-07T11:28:13.000Z</time>
</trkpt>
<trkpt lat="45.9362550" lon="9.5504140">
	<ele>1559.80</ele>
	<time>2023-10-07T11:28:14.000Z</time>
</trkpt>
<trkpt lat="45.9362560" lon="9.5504300">
	<ele>1559.80</ele>
	<time>2023-10-07T11:28:15.000Z</time>
</trkpt>
<trkpt lat="45.9362550" lon="9.5504450">
	<ele>1559.80</ele>
	<time>2023-10-07T11:28:16.000Z</time>
</trkpt>
<trkpt lat="45.9362560" lon="9.5504610">
	<ele>1559.60</ele>
	<time>2023-10-07T11:28:17.000Z</time>
</trkpt>
<trkpt lat="45.9362560" lon="9.5504770">
	<ele>1559.40</ele>
	<time>2023-10-07T11:28:18.000Z</time>
</trkpt>
<trkpt lat="45.9362580" lon="9.5504880">
	<ele>1559.00</ele>
	<time>2023-10-07T11:28:19.000Z</time>
</trkpt>
<trkpt lat="45.9362620" lon="9.5505010">
	<ele>1558.80</ele>
	<time>2023-10-07T11:28:20.000Z</time>
</trkpt>
<trkpt lat="45.9362640" lon="9.5505130">
	<ele>1558.60</ele>
	<time>2023-10-07T11:28:21.000Z</time>
</trkpt>
<trkpt lat="45.9362630" lon="9.5505270">
	<ele>1558.40</ele>
	<time>2023-10-07T11:28:22.000Z</time>
</trkpt>
<trkpt lat="45.9362620" lon="9.5505390">
	<ele>1558.40</ele>
	<time>2023-10-07T11:28:23.000Z</time>
</trkpt>
<trkpt lat="45.9362610" lon="9.5505520">
	<ele>1558.20</ele>
	<time>2023-10-07T11:28:24.000Z</time>
</trkpt>
<trkpt lat="45.9362610" lon="9.5505670">
	<ele>1558.00</ele>
	<time>2023-10-07T11:28:25.000Z</time>
</trkpt>
<trkpt lat="45.9362630" lon="9.5505780">
	<ele>1557.80</ele>
	<time>2023-10-07T11:28:26.000Z</time>
</trkpt>
<trkpt lat="45.9362680" lon="9.5505970">
	<ele>1557.60</ele>
	<time>2023-10-07T11:28:27.000Z</time>
</trkpt>
<trkpt lat="45.9362730" lon="9.5506130">
	<ele>1557.40</ele>
	<time>2023-10-07T11:28:28.000Z</time>
</trkpt>
<trkpt lat="45.9362740" lon="9.5506270">
	<ele>1557.20</ele>
	<time>2023-10-07T11:28:29.000Z</time>
</trkpt>
<trkpt lat="45.9362760" lon="9.5506460">
	<ele>1557.00</ele>
	<time>2023-10-07T11:28:30.000Z</time>
</trkpt>
<trkpt lat="45.9362770" lon="9.5506610">
	<ele>1556.80</ele>
	<time>2023-10-07T11:28:31.000Z</time>
</trkpt>
<trkpt lat="45.9362810" lon="9.5506720">
	<ele>1556.80</ele>
	<time>2023-10-07T11:28:32.000Z</time>
</trkpt>
<trkpt lat="45.9362850" lon="9.5506820">
	<ele>1556.60</ele>
	<time>2023-10-07T11:28:33.000Z</time>
</trkpt>
<trkpt lat="45.9362920" lon="9.5506890">
	<ele>1556.60</ele>
	<time>2023-10-07T11:28:34.000Z</time>
</trkpt>
<trkpt lat="45.9362940" lon="9.5507020">
	<ele>1556.40</ele>
	<time>2023-10-07T11:28:35.000Z</time>
</trkpt>
<trkpt lat="45.9362970" lon="9.5507160">
	<ele>1556.40</ele>
	<time>2023-10-07T11:28:36.000Z</time>
</trkpt>
<trkpt lat="45.9363010" lon="9.5507320">
	<ele>1556.40</ele>
	<time>2023-10-07T11:28:37.000Z</time>
</trkpt>
<trkpt lat="45.9363040" lon="9.5507440">
	<ele>1556.20</ele>
	<time>2023-10-07T11:28:38.000Z</time>
</trkpt>
<trkpt lat="45.9363110" lon="9.5507650">
	<ele>1556.20</ele>
	<time>2023-10-07T11:28:39.000Z</time>
</trkpt>
<trkpt lat="45.9363160" lon="9.5507800">
	<ele>1556.20</ele>
	<time>2023-10-07T11:28:40.000Z</time>
</trkpt>
<trkpt lat="45.9363180" lon="9.5507920">
	<ele>1556.20</ele>
	<time>2023-10-07T11:28:41.000Z</time>
</trkpt>
<trkpt lat="45.9363240" lon="9.5508090">
	<ele>1556.00</ele>
	<time>2023-10-07T11:28:42.000Z</time>
</trkpt>
<trkpt lat="45.9363310" lon="9.5508200">
	<ele>1556.00</ele>
	<time>2023-10-07T11:28:43.000Z</time>
</trkpt>
<trkpt lat="45.9363400" lon="9.5508300">
	<ele>1555.80</ele>
	<time>2023-10-07T11:28:44.000Z</time>
</trkpt>
<trkpt lat="45.9363470" lon="9.5508390">
	<ele>1555.60</ele>
	<time>2023-10-07T11:28:45.000Z</time>
</trkpt>
<trkpt lat="45.9363530" lon="9.5508510">
	<ele>1555.40</ele>
	<time>2023-10-07T11:28:46.000Z</time>
</trkpt>
<trkpt lat="45.9363560" lon="9.5508650">
	<ele>1555.40</ele>
	<time>2023-10-07T11:28:47.000Z</time>
</trkpt>
<trkpt lat="45.9363590" lon="9.5508800">
	<ele>1555.40</ele>
	<time>2023-10-07T11:28:48.000Z</time>
</trkpt>
<trkpt lat="45.9363650" lon="9.5508970">
	<ele>1555.20</ele>
	<time>2023-10-07T11:28:49.000Z</time>
</trkpt>
<trkpt lat="45.9363690" lon="9.5509110">
	<ele>1555.00</ele>
	<time>2023-10-07T11:28:50.000Z</time>
</trkpt>
<trkpt lat="45.9363720" lon="9.5509300">
	<ele>1554.80</ele>
	<time>2023-10-07T11:28:51.000Z</time>
</trkpt>
<trkpt lat="45.9363740" lon="9.5509410">
	<ele>1554.60</ele>
	<time>2023-10-07T11:28:52.000Z</time>
</trkpt>
<trkpt lat="45.9363760" lon="9.5509520">
	<ele>1554.60</ele>
	<time>2023-10-07T11:28:53.000Z</time>
</trkpt>
<trkpt lat="45.9363780" lon="9.5509690">
	<ele>1554.40</ele>
	<time>2023-10-07T11:28:54.000Z</time>
</trkpt>
<trkpt lat="45.9363780" lon="9.5509830">
	<ele>1554.20</ele>
	<time>2023-10-07T11:28:55.000Z</time>
</trkpt>
<trkpt lat="45.9363800" lon="9.5509980">
	<ele>1554.20</ele>
	<time>2023-10-07T11:28:56.000Z</time>
</trkpt>
<trkpt lat="45.9363840" lon="9.5510100">
	<ele>1554.00</ele>
	<time>2023-10-07T11:28:57.000Z</time>
</trkpt>
<trkpt lat="45.9363850" lon="9.5510290">
	<ele>1554.00</ele>
	<time>2023-10-07T11:28:58.000Z</time>
</trkpt>
<trkpt lat="45.9363870" lon="9.5510450">
	<ele>1554.00</ele>
	<time>2023-10-07T11:28:59.000Z</time>
</trkpt>
<trkpt lat="45.9363910" lon="9.5510600">
	<ele>1553.80</ele>
	<time>2023-10-07T11:29:00.000Z</time>
</trkpt>
<trkpt lat="45.9363960" lon="9.5510780">
	<ele>1553.60</ele>
	<time>2023-10-07T11:29:01.000Z</time>
</trkpt>
<trkpt lat="45.9364020" lon="9.5510930">
	<ele>1553.60</ele>
	<time>2023-10-07T11:29:02.000Z</time>
</trkpt>
<trkpt lat="45.9364070" lon="9.5511100">
	<ele>1553.60</ele>
	<time>2023-10-07T11:29:03.000Z</time>
</trkpt>
<trkpt lat="45.9364120" lon="9.5511240">
	<ele>1553.40</ele>
	<time>2023-10-07T11:29:04.000Z</time>
</trkpt>
<trkpt lat="45.9364180" lon="9.5511380">
	<ele>1553.40</ele>
	<time>2023-10-07T11:29:05.000Z</time>
</trkpt>
<trkpt lat="45.9364240" lon="9.5511520">
	<ele>1553.40</ele>
	<time>2023-10-07T11:29:06.000Z</time>
</trkpt>
<trkpt lat="45.9364290" lon="9.5511600">
	<ele>1553.40</ele>
	<time>2023-10-07T11:29:07.000Z</time>
</trkpt>
<trkpt lat="45.9364360" lon="9.5511700">
	<ele>1553.40</ele>
	<time>2023-10-07T11:29:08.000Z</time>
</trkpt>
<trkpt lat="45.9364420" lon="9.5511840">
	<ele>1553.40</ele>
	<time>2023-10-07T11:29:09.000Z</time>
</trkpt>
<trkpt lat="45.9364450" lon="9.5511960">
	<ele>1553.20</ele>
	<time>2023-10-07T11:29:10.000Z</time>
</trkpt>
<trkpt lat="45.9364500" lon="9.5512090">
	<ele>1553.20</ele>
	<time>2023-10-07T11:29:11.000Z</time>
</trkpt>
<trkpt lat="45.9364580" lon="9.5512170">
	<ele>1553.20</ele>
	<time>2023-10-07T11:29:12.000Z</time>
</trkpt>
<trkpt lat="45.9364670" lon="9.5512250">
	<ele>1553.00</ele>
	<time>2023-10-07T11:29:13.000Z</time>
</trkpt>
<trkpt lat="45.9364760" lon="9.5512320">
	<ele>1553.00</ele>
	<time>2023-10-07T11:29:14.000Z</time>
</trkpt>
<trkpt lat="45.9364830" lon="9.5512340">
	<ele>1552.80</ele>
	<time>2023-10-07T11:29:15.000Z</time>
</trkpt>
<trkpt lat="45.9364970" lon="9.5512380">
	<ele>1552.80</ele>
	<time>2023-10-07T11:29:16.000Z</time>
</trkpt>
<trkpt lat="45.9365040" lon="9.5512450">
	<ele>1552.60</ele>
	<time>2023-10-07T11:29:17.000Z</time>
</trkpt>
<trkpt lat="45.9365120" lon="9.5512570">
	<ele>1552.40</ele>
	<time>2023-10-07T11:29:18.000Z</time>
</trkpt>
<trkpt lat="45.9365200" lon="9.5512700">
	<ele>1552.40</ele>
	<time>2023-10-07T11:29:19.000Z</time>
</trkpt>
<trkpt lat="45.9365280" lon="9.5512810">
	<ele>1552.20</ele>
	<time>2023-10-07T11:29:20.000Z</time>
</trkpt>
<trkpt lat="45.9365330" lon="9.5512910">
	<ele>1552.00</ele>
	<time>2023-10-07T11:29:21.000Z</time>
</trkpt>
<trkpt lat="45.9365400" lon="9.5513020">
	<ele>1551.80</ele>
	<time>2023-10-07T11:29:22.000Z</time>
</trkpt>
<trkpt lat="45.9365490" lon="9.5513100">
	<ele>1551.80</ele>
	<time>2023-10-07T11:29:23.000Z</time>
</trkpt>
<trkpt lat="45.9365560" lon="9.5513150">
	<ele>1551.60</ele>
	<time>2023-10-07T11:29:24.000Z</time>
</trkpt>
<trkpt lat="45.9365670" lon="9.5513190">
	<ele>1551.60</ele>
	<time>2023-10-07T11:29:25.000Z</time>
</trkpt>
<trkpt lat="45.9365760" lon="9.5513220">
	<ele>1551.40</ele>
	<time>2023-10-07T11:29:26.000Z</time>
</trkpt>
<trkpt lat="45.9365850" lon="9.5513250">
	<ele>1551.20</ele>
	<time>2023-10-07T11:29:27.000Z</time>
</trkpt>
<trkpt lat="45.9365920" lon="9.5513300">
	<ele>1551.00</ele>
	<time>2023-10-07T11:29:28.000Z</time>
</trkpt>
<trkpt lat="45.9365990" lon="9.5513350">
	<ele>1550.80</ele>
	<time>2023-10-07T11:29:29.000Z</time>
</trkpt>
<trkpt lat="45.9366040" lon="9.5513420">
	<ele>1550.60</ele>
	<time>2023-10-07T11:29:30.000Z</time>
</trkpt>
<trkpt lat="45.9366060" lon="9.5513470">
	<ele>1550.40</ele>
	<time>2023-10-07T11:29:31.000Z</time>
</trkpt>
<trkpt lat="45.9366070" lon="9.5513510">
	<ele>1550.20</ele>
	<time>2023-10-07T11:29:32.000Z</time>
</trkpt>
<trkpt lat="45.9366110" lon="9.5513540">
	<ele>1550.00</ele>
	<time>2023-10-07T11:29:33.000Z</time>
</trkpt>
<trkpt lat="45.9366140" lon="9.5513550">
	<ele>1549.80</ele>
	<time>2023-10-07T11:29:34.000Z</time>
</trkpt>
<trkpt lat="45.9366170" lon="9.5513600">
	<ele>1549.60</ele>
	<time>2023-10-07T11:29:35.000Z</time>
</trkpt>
<trkpt lat="45.9366200" lon="9.5513690">
	<ele>1549.40</ele>
	<time>2023-10-07T11:29:36.000Z</time>
</trkpt>
<trkpt lat="45.9366210" lon="9.5513820">
	<ele>1549.20</ele>
	<time>2023-10-07T11:29:37.000Z</time>
</trkpt>
<trkpt lat="45.9366270" lon="9.5513900">
	<ele>1548.80</ele>
	<time>2023-10-07T11:29:38.000Z</time>
</trkpt>
<trkpt lat="45.9366320" lon="9.5513950">
	<ele>1548.80</ele>
	<time>2023-10-07T11:29:39.000Z</time>
</trkpt>
<trkpt lat="45.9366400" lon="9.5514000">
	<ele>1548.40</ele>
	<time>2023-10-07T11:29:40.000Z</time>
</trkpt>
<trkpt lat="45.9366490" lon="9.5514050">
	<ele>1548.20</ele>
	<time>2023-10-07T11:29:41.000Z</time>
</trkpt>
<trkpt lat="45.9366580" lon="9.5514070">
	<ele>1548.00</ele>
	<time>2023-10-07T11:29:42.000Z</time>
</trkpt>
<trkpt lat="45.9366670" lon="9.5514110">
	<ele>1547.80</ele>
	<time>2023-10-07T11:29:43.000Z</time>
</trkpt>
<trkpt lat="45.9366760" lon="9.5514130">
	<ele>1547.60</ele>
	<time>2023-10-07T11:29:44.000Z</time>
</trkpt>
<trkpt lat="45.9366840" lon="9.5514140">
	<ele>1547.40</ele>
	<time>2023-10-07T11:29:45.000Z</time>
</trkpt>
<trkpt lat="45.9366910" lon="9.5514220">
	<ele>1547.20</ele>
	<time>2023-10-07T11:29:46.000Z</time>
</trkpt>
<trkpt lat="45.9366980" lon="9.5514290">
	<ele>1547.00</ele>
	<time>2023-10-07T11:29:47.000Z</time>
</trkpt>
<trkpt lat="45.9367040" lon="9.5514380">
	<ele>1546.80</ele>
	<time>2023-10-07T11:29:48.000Z</time>
</trkpt>
<trkpt lat="45.9367120" lon="9.5514470">
	<ele>1546.60</ele>
	<time>2023-10-07T11:29:49.000Z</time>
</trkpt>
<trkpt lat="45.9367170" lon="9.5514570">
	<ele>1546.40</ele>
	<time>2023-10-07T11:29:50.000Z</time>
</trkpt>
<trkpt lat="45.9367230" lon="9.5514700">
	<ele>1546.20</ele>
	<time>2023-10-07T11:29:51.000Z</time>
</trkpt>
<trkpt lat="45.9367320" lon="9.5514830">
	<ele>1546.00</ele>
	<time>2023-10-07T11:29:52.000Z</time>
</trkpt>
<trkpt lat="45.9367410" lon="9.5514990">
	<ele>1546.00</ele>
	<time>2023-10-07T11:29:53.000Z</time>
</trkpt>
<trkpt lat="45.9367440" lon="9.5515130">
	<ele>1545.80</ele>
	<time>2023-10-07T11:29:54.000Z</time>
</trkpt>
<trkpt lat="45.9367460" lon="9.5515290">
	<ele>1545.80</ele>
	<time>2023-10-07T11:29:55.000Z</time>
</trkpt>
<trkpt lat="45.9367490" lon="9.5515430">
	<ele>1545.60</ele>
	<time>2023-10-07T11:29:56.000Z</time>
</trkpt>
<trkpt lat="45.9367530" lon="9.5515640">
	<ele>1545.60</ele>
	<time>2023-10-07T11:29:57.000Z</time>
</trkpt>
<trkpt lat="45.9367520" lon="9.5515840">
	<ele>1545.40</ele>
	<time>2023-10-07T11:29:58.000Z</time>
</trkpt>
<trkpt lat="45.9367550" lon="9.5515970">
	<ele>1545.40</ele>
	<time>2023-10-07T11:29:59.000Z</time>
</trkpt>
<trkpt lat="45.9367540" lon="9.5516100">
	<ele>1545.20</ele>
	<time>2023-10-07T11:30:00.000Z</time>
</trkpt>
<trkpt lat="45.9367510" lon="9.5516270">
	<ele>1545.20</ele>
	<time>2023-10-07T11:30:01.000Z</time>
</trkpt>
<trkpt lat="45.9367470" lon="9.5516420">
	<ele>1545.20</ele>
	<time>2023-10-07T11:30:02.000Z</time>
</trkpt>
<trkpt lat="45.9367430" lon="9.5516610">
	<ele>1545.00</ele>
	<time>2023-10-07T11:30:03.000Z</time>
</trkpt>
<trkpt lat="45.9367390" lon="9.5516740">
	<ele>1545.00</ele>
	<time>2023-10-07T11:30:04.000Z</time>
</trkpt>
<trkpt lat="45.9367350" lon="9.5516860">
	<ele>1545.00</ele>
	<time>2023-10-07T11:30:05.000Z</time>
</trkpt>
<trkpt lat="45.9367280" lon="9.5516990">
	<ele>1545.00</ele>
	<time>2023-10-07T11:30:06.000Z</time>
</trkpt>
<trkpt lat="45.9367220" lon="9.5517190">
	<ele>1545.00</ele>
	<time>2023-10-07T11:30:07.000Z</time>
</trkpt>
<trkpt lat="45.9367230" lon="9.5517260">
	<ele>1545.00</ele>
	<time>2023-10-07T11:30:08.000Z</time>
</trkpt>
<trkpt lat="45.9367210" lon="9.5517330">
	<ele>1545.20</ele>
	<time>2023-10-07T11:30:09.000Z</time>
</trkpt>
<trkpt lat="45.9367150" lon="9.5517380">
	<ele>1545.20</ele>
	<time>2023-10-07T11:30:10.000Z</time>
</trkpt>
<trkpt lat="45.9367080" lon="9.5517540">
	<ele>1545.40</ele>
	<time>2023-10-07T11:30:11.000Z</time>
</trkpt>
<trkpt lat="45.9367040" lon="9.5517670">
	<ele>1545.60</ele>
	<time>2023-10-07T11:30:12.000Z</time>
</trkpt>
<trkpt lat="45.9367020" lon="9.5517800">
	<ele>1545.80</ele>
	<time>2023-10-07T11:30:13.000Z</time>
</trkpt>
<trkpt lat="45.9366990" lon="9.5517920">
	<ele>1545.80</ele>
	<time>2023-10-07T11:30:14.000Z</time>
</trkpt>
<trkpt lat="45.9366990" lon="9.5518030">
	<ele>1546.00</ele>
	<time>2023-10-07T11:30:15.000Z</time>
</trkpt>
<trkpt lat="45.9366980" lon="9.5518180">
	<ele>1546.20</ele>
	<time>2023-10-07T11:30:16.000Z</time>
</trkpt>
<trkpt lat="45.9366990" lon="9.5518280">
	<ele>1546.20</ele>
	<time>2023-10-07T11:30:17.000Z</time>
</trkpt>
<trkpt lat="45.9367000" lon="9.5518400">
	<ele>1546.20</ele>
	<time>2023-10-07T11:30:18.000Z</time>
</trkpt>
<trkpt lat="45.9367020" lon="9.5518500">
	<ele>1546.20</ele>
	<time>2023-10-07T11:30:19.000Z</time>
</trkpt>
<trkpt lat="45.9367010" lon="9.5518630">
	<ele>1546.00</ele>
	<time>2023-10-07T11:30:20.000Z</time>
</trkpt>
<trkpt lat="45.9367030" lon="9.5518710">
	<ele>1545.80</ele>
	<time>2023-10-07T11:30:21.000Z</time>
</trkpt>
<trkpt lat="45.9367060" lon="9.5518820">
	<ele>1545.80</ele>
	<time>2023-10-07T11:30:22.000Z</time>
</trkpt>
<trkpt lat="45.9367090" lon="9.5518940">
	<ele>1545.60</ele>
	<time>2023-10-07T11:30:23.000Z</time>
</trkpt>
<trkpt lat="45.9367160" lon="9.5519070">
	<ele>1545.60</ele>
	<time>2023-10-07T11:30:24.000Z</time>
</trkpt>
<trkpt lat="45.9367230" lon="9.5519190">
	<ele>1545.40</ele>
	<time>2023-10-07T11:30:25.000Z</time>
</trkpt>
<trkpt lat="45.9367310" lon="9.5519330">
	<ele>1545.20</ele>
	<time>2023-10-07T11:30:26.000Z</time>
</trkpt>
<trkpt lat="45.9367370" lon="9.5519510">
	<ele>1545.00</ele>
	<time>2023-10-07T11:30:27.000Z</time>
</trkpt>
<trkpt lat="45.9367380" lon="9.5519630">
	<ele>1544.80</ele>
	<time>2023-10-07T11:30:28.000Z</time>
</trkpt>
<trkpt lat="45.9367380" lon="9.5519790">
	<ele>1544.60</ele>
	<time>2023-10-07T11:30:29.000Z</time>
</trkpt>
<trkpt lat="45.9367390" lon="9.5519900">
	<ele>1544.40</ele>
	<time>2023-10-07T11:30:30.000Z</time>
</trkpt>
<trkpt lat="45.9367390" lon="9.5519990">
	<ele>1544.20</ele>
	<time>2023-10-07T11:30:31.000Z</time>
</trkpt>
<trkpt lat="45.9367330" lon="9.5520100">
	<ele>1544.00</ele>
	<time>2023-10-07T11:30:32.000Z</time>
</trkpt>
<trkpt lat="45.9367280" lon="9.5520180">
	<ele>1544.00</ele>
	<time>2023-10-07T11:30:33.000Z</time>
</trkpt>
<trkpt lat="45.9367190" lon="9.5520300">
	<ele>1543.80</ele>
	<time>2023-10-07T11:30:34.000Z</time>
</trkpt>
<trkpt lat="45.9367110" lon="9.5520400">
	<ele>1543.60</ele>
	<time>2023-10-07T11:30:35.000Z</time>
</trkpt>
<trkpt lat="45.9367040" lon="9.5520500">
	<ele>1543.60</ele>
	<time>2023-10-07T11:30:36.000Z</time>
</trkpt>
<trkpt lat="45.9366960" lon="9.5520630">
	<ele>1543.40</ele>
	<time>2023-10-07T11:30:37.000Z</time>
</trkpt>
<trkpt lat="45.9366910" lon="9.5520730">
	<ele>1543.40</ele>
	<time>2023-10-07T11:30:38.000Z</time>
</trkpt>
<trkpt lat="45.9366780" lon="9.5520890">
	<ele>1543.20</ele>
	<time>2023-10-07T11:30:39.000Z</time>
</trkpt>
<trkpt lat="45.9366650" lon="9.5521030">
	<ele>1543.20</ele>
	<time>2023-10-07T11:30:40.000Z</time>
</trkpt>
<trkpt lat="45.9366520" lon="9.5521120">
	<ele>1543.20</ele>
	<time>2023-10-07T11:30:41.000Z</time>
</trkpt>
<trkpt lat="45.9366410" lon="9.5521100">
	<ele>1543.20</ele>
	<time>2023-10-07T11:30:42.000Z</time>
</trkpt>
<trkpt lat="45.9366290" lon="9.5521050">
	<ele>1543.20</ele>
	<time>2023-10-07T11:30:43.000Z</time>
</trkpt>
<trkpt lat="45.9366200" lon="9.5521050">
	<ele>1543.20</ele>
	<time>2023-10-07T11:30:44.000Z</time>
</trkpt>
<trkpt lat="45.9366080" lon="9.5521120">
	<ele>1543.20</ele>
	<time>2023-10-07T11:30:45.000Z</time>
</trkpt>
<trkpt lat="45.9365970" lon="9.5521180">
	<ele>1543.40</ele>
	<time>2023-10-07T11:30:46.000Z</time>
</trkpt>
<trkpt lat="45.9365870" lon="9.5521220">
	<ele>1543.40</ele>
	<time>2023-10-07T11:30:47.000Z</time>
</trkpt>
<trkpt lat="45.9365760" lon="9.5521240">
	<ele>1543.40</ele>
	<time>2023-10-07T11:30:48.000Z</time>
</trkpt>
<trkpt lat="45.9365640" lon="9.5521280">
	<ele>1543.60</ele>
	<time>2023-10-07T11:30:49.000Z</time>
</trkpt>
<trkpt lat="45.9365540" lon="9.5521350">
	<ele>1543.60</ele>
	<time>2023-10-07T11:30:50.000Z</time>
</trkpt>
<trkpt lat="45.9365480" lon="9.5521440">
	<ele>1543.80</ele>
	<time>2023-10-07T11:30:51.000Z</time>
</trkpt>
<trkpt lat="45.9365420" lon="9.5521560">
	<ele>1543.80</ele>
	<time>2023-10-07T11:30:52.000Z</time>
</trkpt>
<trkpt lat="45.9365370" lon="9.5521690">
	<ele>1543.80</ele>
	<time>2023-10-07T11:30:53.000Z</time>
</trkpt>
<trkpt lat="45.9365330" lon="9.5521810">
	<ele>1543.80</ele>
	<time>2023-10-07T11:30:54.000Z</time>
</trkpt>
<trkpt lat="45.9365280" lon="9.5521920">
	<ele>1543.80</ele>
	<time>2023-10-07T11:30:55.000Z</time>
</trkpt>
<trkpt lat="45.9365240" lon="9.5522080">
	<ele>1543.80</ele>
	<time>2023-10-07T11:30:56.000Z</time>
</trkpt>
<trkpt lat="45.9365200" lon="9.5522250">
	<ele>1543.80</ele>
	<time>2023-10-07T11:30:57.000Z</time>
</trkpt>
<trkpt lat="45.9365180" lon="9.5522450">
	<ele>1543.80</ele>
	<time>2023-10-07T11:30:58.000Z</time>
</trkpt>
<trkpt lat="45.9365170" lon="9.5522640">
	<ele>1543.80</ele>
	<time>2023-10-07T11:30:59.000Z</time>
</trkpt>
<trkpt lat="45.9365170" lon="9.5522830">
	<ele>1543.80</ele>
	<time>2023-10-07T11:31:00.000Z</time>
</trkpt>
<trkpt lat="45.9365160" lon="9.5522970">
	<ele>1543.60</ele>
	<time>2023-10-07T11:31:01.000Z</time>
</trkpt>
<trkpt lat="45.9365140" lon="9.5523140">
	<ele>1543.60</ele>
	<time>2023-10-07T11:31:02.000Z</time>
</trkpt>
<trkpt lat="45.9365150" lon="9.5523330">
	<ele>1543.60</ele>
	<time>2023-10-07T11:31:03.000Z</time>
</trkpt>
<trkpt lat="45.9365180" lon="9.5523510">
	<ele>1543.60</ele>
	<time>2023-10-07T11:31:04.000Z</time>
</trkpt>
<trkpt lat="45.9365190" lon="9.5523670">
	<ele>1543.60</ele>
	<time>2023-10-07T11:31:05.000Z</time>
</trkpt>
<trkpt lat="45.9365210" lon="9.5523830">
	<ele>1543.60</ele>
	<time>2023-10-07T11:31:06.000Z</time>
</trkpt>
<trkpt lat="45.9365250" lon="9.5523980">
	<ele>1543.60</ele>
	<time>2023-10-07T11:31:07.000Z</time>
</trkpt>
<trkpt lat="45.9365310" lon="9.5524110">
	<ele>1543.60</ele>
	<time>2023-10-07T11:31:08.000Z</time>
</trkpt>
<trkpt lat="45.9365330" lon="9.5524280">
	<ele>1543.40</ele>
	<time>2023-10-07T11:31:09.000Z</time>
</trkpt>
<trkpt lat="45.9365390" lon="9.5524470">
	<ele>1543.40</ele>
	<time>2023-10-07T11:31:10.000Z</time>
</trkpt>
<trkpt lat="45.9365440" lon="9.5524610">
	<ele>1543.00</ele>
	<time>2023-10-07T11:31:11.000Z</time>
</trkpt>
<trkpt lat="45.9365470" lon="9.5524770">
	<ele>1543.00</ele>
	<time>2023-10-07T11:31:12.000Z</time>
</trkpt>
<trkpt lat="45.9365470" lon="9.5524880">
	<ele>1542.80</ele>
	<time>2023-10-07T11:31:13.000Z</time>
</trkpt>
<trkpt lat="45.9365480" lon="9.5525100">
	<ele>1542.80</ele>
	<time>2023-10-07T11:31:14.000Z</time>
</trkpt>
<trkpt lat="45.9365470" lon="9.5525250">
	<ele>1542.80</ele>
	<time>2023-10-07T11:31:15.000Z</time>
</trkpt>
<trkpt lat="45.9365410" lon="9.5525380">
	<ele>1542.80</ele>
	<time>2023-10-07T11:31:16.000Z</time>
</trkpt>
<trkpt lat="45.9365330" lon="9.5525470">
	<ele>1542.80</ele>
	<time>2023-10-07T11:31:17.000Z</time>
</trkpt>
<trkpt lat="45.9365280" lon="9.5525570">
	<ele>1542.80</ele>
	<time>2023-10-07T11:31:18.000Z</time>
</trkpt>
<trkpt lat="45.9365180" lon="9.5525660">
	<ele>1542.80</ele>
	<time>2023-10-07T11:31:19.000Z</time>
</trkpt>
<trkpt lat="45.9365080" lon="9.5525690">
	<ele>1542.80</ele>
	<time>2023-10-07T11:31:20.000Z</time>
</trkpt>
<trkpt lat="45.9364960" lon="9.5525700">
	<ele>1543.00</ele>
	<time>2023-10-07T11:31:21.000Z</time>
</trkpt>
<trkpt lat="45.9364830" lon="9.5525710">
	<ele>1543.20</ele>
	<time>2023-10-07T11:31:22.000Z</time>
</trkpt>
<trkpt lat="45.9364730" lon="9.5525780">
	<ele>1543.20</ele>
	<time>2023-10-07T11:31:23.000Z</time>
</trkpt>
<trkpt lat="45.9364660" lon="9.5525800">
	<ele>1543.20</ele>
	<time>2023-10-07T11:31:24.000Z</time>
</trkpt>
<trkpt lat="45.9364580" lon="9.5525790">
	<ele>1543.60</ele>
	<time>2023-10-07T11:31:25.000Z</time>
</trkpt>
<trkpt lat="45.9364500" lon="9.5525780">
	<ele>1543.60</ele>
	<time>2023-10-07T11:31:26.000Z</time>
</trkpt>
<trkpt lat="45.9364380" lon="9.5525810">
	<ele>1543.80</ele>
	<time>2023-10-07T11:31:27.000Z</time>
</trkpt>
<trkpt lat="45.9364270" lon="9.5525820">
	<ele>1544.00</ele>
	<time>2023-10-07T11:31:28.000Z</time>
</trkpt>
<trkpt lat="45.9364200" lon="9.5525830">
	<ele>1544.00</ele>
	<time>2023-10-07T11:31:29.000Z</time>
</trkpt>
<trkpt lat="45.9364110" lon="9.5525860">
	<ele>1544.20</ele>
	<time>2023-10-07T11:31:30.000Z</time>
</trkpt>
<trkpt lat="45.9364000" lon="9.5525860">
	<ele>1544.40</ele>
	<time>2023-10-07T11:31:31.000Z</time>
</trkpt>
<trkpt lat="45.9363930" lon="9.5525880">
	<ele>1544.60</ele>
	<time>2023-10-07T11:31:32.000Z</time>
</trkpt>
<trkpt lat="45.9363840" lon="9.5525890">
	<ele>1544.80</ele>
	<time>2023-10-07T11:31:33.000Z</time>
</trkpt>
<trkpt lat="45.9363760" lon="9.5525910">
	<ele>1544.80</ele>
	<time>2023-10-07T11:31:34.000Z</time>
</trkpt>
<trkpt lat="45.9363680" lon="9.5525970">
	<ele>1545.00</ele>
	<time>2023-10-07T11:31:35.000Z</time>
</trkpt>
<trkpt lat="45.9363580" lon="9.5526040">
	<ele>1545.20</ele>
	<time>2023-10-07T11:31:36.000Z</time>
</trkpt>
<trkpt lat="45.9363510" lon="9.5526070">
	<ele>1545.40</ele>
	<time>2023-10-07T11:31:37.000Z</time>
</trkpt>
<trkpt lat="45.9363410" lon="9.5526150">
	<ele>1545.40</ele>
	<time>2023-10-07T11:31:38.000Z</time>
</trkpt>
<trkpt lat="45.9363320" lon="9.5526240">
	<ele>1545.60</ele>
	<time>2023-10-07T11:31:39.000Z</time>
</trkpt>
<trkpt lat="45.9363260" lon="9.5526310">
	<ele>1545.60</ele>
	<time>2023-10-07T11:31:40.000Z</time>
</trkpt>
<trkpt lat="45.9363230" lon="9.5526460">
	<ele>1545.60</ele>
	<time>2023-10-07T11:31:41.000Z</time>
</trkpt>
<trkpt lat="45.9363210" lon="9.5526580">
	<ele>1545.60</ele>
	<time>2023-10-07T11:31:42.000Z</time>
</trkpt>
<trkpt lat="45.9363180" lon="9.5526720">
	<ele>1545.40</ele>
	<time>2023-10-07T11:31:43.000Z</time>
</trkpt>
<trkpt lat="45.9363190" lon="9.5526870">
	<ele>1545.40</ele>
	<time>2023-10-07T11:31:44.000Z</time>
</trkpt>
<trkpt lat="45.9363200" lon="9.5527040">
	<ele>1545.40</ele>
	<time>2023-10-07T11:31:45.000Z</time>
</trkpt>
<trkpt lat="45.9363220" lon="9.5527230">
	<ele>1545.20</ele>
	<time>2023-10-07T11:31:46.000Z</time>
</trkpt>
<trkpt lat="45.9363170" lon="9.5527400">
	<ele>1545.20</ele>
	<time>2023-10-07T11:31:47.000Z</time>
</trkpt>
<trkpt lat="45.9363130" lon="9.5527560">
	<ele>1545.00</ele>
	<time>2023-10-07T11:31:48.000Z</time>
</trkpt>
<trkpt lat="45.9363050" lon="9.5527680">
	<ele>1545.00</ele>
	<time>2023-10-07T11:31:49.000Z</time>
</trkpt>
<trkpt lat="45.9362950" lon="9.5527780">
	<ele>1544.80</ele>
	<time>2023-10-07T11:31:50.000Z</time>
</trkpt>
<trkpt lat="45.9362830" lon="9.5527820">
	<ele>1544.80</ele>
	<time>2023-10-07T11:31:51.000Z</time>
</trkpt>
<trkpt lat="45.9362690" lon="9.5527840">
	<ele>1544.80</ele>
	<time>2023-10-07T11:31:52.000Z</time>
</trkpt>
<trkpt lat="45.9362590" lon="9.5527820">
	<ele>1545.00</ele>
	<time>2023-10-07T11:31:53.000Z</time>
</trkpt>
<trkpt lat="45.9362450" lon="9.5527800">
	<ele>1545.20</ele>
	<time>2023-10-07T11:31:54.000Z</time>
</trkpt>
<trkpt lat="45.9362370" lon="9.5527720">
	<ele>1545.20</ele>
	<time>2023-10-07T11:31:55.000Z</time>
</trkpt>
<trkpt lat="45.9362280" lon="9.5527660">
	<ele>1545.40</ele>
	<time>2023-10-07T11:31:56.000Z</time>
</trkpt>
<trkpt lat="45.9362200" lon="9.5527600">
	<ele>1545.60</ele>
	<time>2023-10-07T11:31:57.000Z</time>
</trkpt>
<trkpt lat="45.9362130" lon="9.5527570">
	<ele>1545.80</ele>
	<time>2023-10-07T11:31:58.000Z</time>
</trkpt>
<trkpt lat="45.9362070" lon="9.5527590">
	<ele>1546.00</ele>
	<time>2023-10-07T11:31:59.000Z</time>
</trkpt>
<trkpt lat="45.9361990" lon="9.5527620">
	<ele>1546.00</ele>
	<time>2023-10-07T11:32:00.000Z</time>
</trkpt>
<trkpt lat="45.9361920" lon="9.5527660">
	<ele>1546.20</ele>
	<time>2023-10-07T11:32:01.000Z</time>
</trkpt>
<trkpt lat="45.9361840" lon="9.5527680">
	<ele>1546.40</ele>
	<time>2023-10-07T11:32:02.000Z</time>
</trkpt>
<trkpt lat="45.9361720" lon="9.5527720">
	<ele>1546.40</ele>
	<time>2023-10-07T11:32:03.000Z</time>
</trkpt>
<trkpt lat="45.9361640" lon="9.5527740">
	<ele>1546.60</ele>
	<time>2023-10-07T11:32:04.000Z</time>
</trkpt>
<trkpt lat="45.9361570" lon="9.5527810">
	<ele>1546.80</ele>
	<time>2023-10-07T11:32:05.000Z</time>
</trkpt>
<trkpt lat="45.9361520" lon="9.5527860">
	<ele>1547.00</ele>
	<time>2023-10-07T11:32:06.000Z</time>
</trkpt>
<trkpt lat="45.9361490" lon="9.5527950">
	<ele>1547.00</ele>
	<time>2023-10-07T11:32:07.000Z</time>
</trkpt>
<trkpt lat="45.9361450" lon="9.5528010">
	<ele>1547.20</ele>
	<time>2023-10-07T11:32:08.000Z</time>
</trkpt>
<trkpt lat="45.9361420" lon="9.5528110">
	<ele>1547.40</ele>
	<time>2023-10-07T11:32:09.000Z</time>
</trkpt>
<trkpt lat="45.9361380" lon="9.5528190">
	<ele>1547.40</ele>
	<time>2023-10-07T11:32:10.000Z</time>
</trkpt>
<trkpt lat="45.9361330" lon="9.5528240">
	<ele>1547.60</ele>
	<time>2023-10-07T11:32:11.000Z</time>
</trkpt>
<trkpt lat="45.9361290" lon="9.5528260">
	<ele>1547.80</ele>
	<time>2023-10-07T11:32:12.000Z</time>
</trkpt>
<trkpt lat="45.9361230" lon="9.5528390">
	<ele>1548.20</ele>
	<time>2023-10-07T11:32:13.000Z</time>
</trkpt>
<trkpt lat="45.9361200" lon="9.5528450">
	<ele>1548.40</ele>
	<time>2023-10-07T11:32:14.000Z</time>
</trkpt>
<trkpt lat="45.9361200" lon="9.5528550">
	<ele>1548.40</ele>
	<time>2023-10-07T11:32:15.000Z</time>
</trkpt>
<trkpt lat="45.9361180" lon="9.5528670">
	<ele>1548.60</ele>
	<time>2023-10-07T11:32:16.000Z</time>
</trkpt>
<trkpt lat="45.9361150" lon="9.5528810">
	<ele>1548.80</ele>
	<time>2023-10-07T11:32:17.000Z</time>
</trkpt>
<trkpt lat="45.9361130" lon="9.5528890">
	<ele>1548.80</ele>
	<time>2023-10-07T11:32:18.000Z</time>
</trkpt>
<trkpt lat="45.9361120" lon="9.5529010">
	<ele>1549.00</ele>
	<time>2023-10-07T11:32:19.000Z</time>
</trkpt>
<trkpt lat="45.9361100" lon="9.5529150">
	<ele>1549.20</ele>
	<time>2023-10-07T11:32:20.000Z</time>
</trkpt>
<trkpt lat="45.9361080" lon="9.5529300">
	<ele>1549.20</ele>
	<time>2023-10-07T11:32:21.000Z</time>
</trkpt>
<trkpt lat="45.9361060" lon="9.5529460">
	<ele>1549.40</ele>
	<time>2023-10-07T11:32:22.000Z</time>
</trkpt>
<trkpt lat="45.9361050" lon="9.5529590">
	<ele>1549.40</ele>
	<time>2023-10-07T11:32:23.000Z</time>
</trkpt>
<trkpt lat="45.9361060" lon="9.5529720">
	<ele>1549.60</ele>
	<time>2023-10-07T11:32:24.000Z</time>
</trkpt>
<trkpt lat="45.9361050" lon="9.5529850">
	<ele>1549.80</ele>
	<time>2023-10-07T11:32:25.000Z</time>
</trkpt>
<trkpt lat="45.9361020" lon="9.5529930">
	<ele>1550.00</ele>
	<time>2023-10-07T11:32:26.000Z</time>
</trkpt>
<trkpt lat="45.9361000" lon="9.5530050">
	<ele>1550.00</ele>
	<time>2023-10-07T11:32:27.000Z</time>
</trkpt>
<trkpt lat="45.9361000" lon="9.5530170">
	<ele>1550.20</ele>
	<time>2023-10-07T11:32:28.000Z</time>
</trkpt>
<trkpt lat="45.9361040" lon="9.5530260">
	<ele>1550.20</ele>
	<time>2023-10-07T11:32:29.000Z</time>
</trkpt>
<trkpt lat="45.9361050" lon="9.5530410">
	<ele>1550.40</ele>
	<time>2023-10-07T11:32:30.000Z</time>
</trkpt>
<trkpt lat="45.9361060" lon="9.5530530">
	<ele>1550.40</ele>
	<time>2023-10-07T11:32:31.000Z</time>
</trkpt>
<trkpt lat="45.9361060" lon="9.5530650">
	<ele>1550.60</ele>
	<time>2023-10-07T11:32:32.000Z</time>
</trkpt>
<trkpt lat="45.9361030" lon="9.5530780">
	<ele>1550.80</ele>
	<time>2023-10-07T11:32:33.000Z</time>
</trkpt>
<trkpt lat="45.9361010" lon="9.5530880">
	<ele>1551.00</ele>
	<time>2023-10-07T11:32:34.000Z</time>
</trkpt>
<trkpt lat="45.9360990" lon="9.5531010">
	<ele>1551.20</ele>
	<time>2023-10-07T11:32:35.000Z</time>
</trkpt>
<trkpt lat="45.9360940" lon="9.5531150">
	<ele>1551.40</ele>
	<time>2023-10-07T11:32:36.000Z</time>
</trkpt>
<trkpt lat="45.9360920" lon="9.5531320">
	<ele>1551.40</ele>
	<time>2023-10-07T11:32:37.000Z</time>
</trkpt>
<trkpt lat="45.9360870" lon="9.5531490">
	<ele>1551.60</ele>
	<time>2023-10-07T11:32:38.000Z</time>
</trkpt>
<trkpt lat="45.9360820" lon="9.5531630">
	<ele>1551.60</ele>
	<time>2023-10-07T11:32:39.000Z</time>
</trkpt>
<trkpt lat="45.9360780" lon="9.5531750">
	<ele>1551.80</ele>
	<time>2023-10-07T11:32:40.000Z</time>
</trkpt>
<trkpt lat="45.9360750" lon="9.5531880">
	<ele>1552.00</ele>
	<time>2023-10-07T11:32:41.000Z</time>
</trkpt>
<trkpt lat="45.9360710" lon="9.5531990">
	<ele>1552.20</ele>
	<time>2023-10-07T11:32:42.000Z</time>
</trkpt>
<trkpt lat="45.9360670" lon="9.5532080">
	<ele>1552.40</ele>
	<time>2023-10-07T11:32:43.000Z</time>
</trkpt>
<trkpt lat="45.9360630" lon="9.5532160">
	<ele>1552.40</ele>
	<time>2023-10-07T11:32:44.000Z</time>
</trkpt>
<trkpt lat="45.9360570" lon="9.5532220">
	<ele>1552.60</ele>
	<time>2023-10-07T11:32:45.000Z</time>
</trkpt>
<trkpt lat="45.9360520" lon="9.5532290">
	<ele>1552.60</ele>
	<time>2023-10-07T11:32:46.000Z</time>
</trkpt>
<trkpt lat="45.9360450" lon="9.5532370">
	<ele>1552.80</ele>
	<time>2023-10-07T11:32:47.000Z</time>
</trkpt>
<trkpt lat="45.9360410" lon="9.5532470">
	<ele>1553.00</ele>
	<time>2023-10-07T11:32:48.000Z</time>
</trkpt>
<trkpt lat="45.9360380" lon="9.5532550">
	<ele>1553.20</ele>
	<time>2023-10-07T11:32:49.000Z</time>
</trkpt>
<trkpt lat="45.9360330" lon="9.5532650">
	<ele>1553.40</ele>
	<time>2023-10-07T11:32:50.000Z</time>
</trkpt>
<trkpt lat="45.9360300" lon="9.5532720">
	<ele>1553.60</ele>
	<time>2023-10-07T11:32:51.000Z</time>
</trkpt>
<trkpt lat="45.9360270" lon="9.5532780">
	<ele>1553.60</ele>
	<time>2023-10-07T11:32:52.000Z</time>
</trkpt>
<trkpt lat="45.9360250" lon="9.5532820">
	<ele>1553.60</ele>
	<time>2023-10-07T11:32:53.000Z</time>
</trkpt>
<trkpt lat="45.9360220" lon="9.5532870">
	<ele>1553.80</ele>
	<time>2023-10-07T11:32:54.000Z</time>
</trkpt>
<trkpt lat="45.9360200" lon="9.5532960">
	<ele>1553.80</ele>
	<time>2023-10-07T11:32:55.000Z</time>
</trkpt>
<trkpt lat="45.9360210" lon="9.5533020">
	<ele>1553.80</ele>
	<time>2023-10-07T11:32:56.000Z</time>
</trkpt>
<trkpt lat="45.9360220" lon="9.5533050">
	<ele>1553.80</ele>
	<time>2023-10-07T11:32:57.000Z</time>
</trkpt>
<trkpt lat="45.9360180" lon="9.5533070">
	<ele>1553.80</ele>
	<time>2023-10-07T11:32:58.000Z</time>
</trkpt>
<trkpt lat="45.9360150" lon="9.5533080">
	<ele>1553.80</ele>
	<time>2023-10-07T11:32:59.000Z</time>
</trkpt>
<trkpt lat="45.9360130" lon="9.5533090">
	<ele>1553.80</ele>
	<time>2023-10-07T11:33:00.000Z</time>
</trkpt>
<trkpt lat="45.9360120" lon="9.5533110">
	<ele>1553.80</ele>
	<time>2023-10-07T11:33:01.000Z</time>
</trkpt>
<trkpt lat="45.9360120" lon="9.5533100">
	<ele>1554.00</ele>
	<time>2023-10-07T11:33:02.000Z</time>
</trkpt>
<trkpt lat="45.9360120" lon="9.5533100">
	<ele>1554.00</ele>
	<time>2023-10-07T11:33:03.000Z</time>
</trkpt>
<trkpt lat="45.9360140" lon="9.5533100">
	<ele>1554.00</ele>
	<time>2023-10-07T11:33:04.000Z</time>
</trkpt>
<trkpt lat="45.9360130" lon="9.5533110">
	<ele>1554.20</ele>
	<time>2023-10-07T11:33:05.000Z</time>
</trkpt>
<trkpt lat="45.9360150" lon="9.5533150">
	<ele>1554.20</ele>
	<time>2023-10-07T11:33:06.000Z</time>
</trkpt>
<trkpt lat="45.9360160" lon="9.5533170">
	<ele>1554.20</ele>
	<time>2023-10-07T11:33:07.000Z</time>
</trkpt>
<trkpt lat="45.9360150" lon="9.5533180">
	<ele>1554.40</ele>
	<time>2023-10-07T11:33:08.000Z</time>
</trkpt>
<trkpt lat="45.9360150" lon="9.5533180">
	<ele>1554.40</ele>
	<time>2023-10-07T11:33:09.000Z</time>
</trkpt>
<trkpt lat="45.9360160" lon="9.5533170">
	<ele>1554.40</ele>
	<time>2023-10-07T11:33:10.000Z</time>
</trkpt>
<trkpt lat="45.9360180" lon="9.5533160">
	<ele>1554.40</ele>
	<time>2023-10-07T11:33:11.000Z</time>
</trkpt>
<trkpt lat="45.9360180" lon="9.5533160">
	<ele>1554.40</ele>
	<time>2023-10-07T11:33:12.000Z</time>
</trkpt>
<trkpt lat="45.9360180" lon="9.5533160">
	<ele>1554.40</ele>
	<time>2023-10-07T11:33:13.000Z</time>
</trkpt>
<trkpt lat="45.9360180" lon="9.5533160">
	<ele>1554.40</ele>
	<time>2023-10-07T11:33:14.000Z</time>
</trkpt>
<trkpt lat="45.9360180" lon="9.5533160">
	<ele>1554.20</ele>
	<time>2023-10-07T11:33:15.000Z</time>
</trkpt>
<trkpt lat="45.9360180" lon="9.5533160">
	<ele>1554.20</ele>
	<time>2023-10-07T11:33:16.000Z</time>
</trkpt>
<trkpt lat="45.9360180" lon="9.5533160">
	<ele>1554.20</ele>
	<time>2023-10-07T11:33:17.000Z</time>
</trkpt>
<trkpt lat="45.9360180" lon="9.5533160">
	<ele>1554.20</ele>
	<time>2023-10-07T11:33:18.000Z</time>
</trkpt>
<trkpt lat="45.9360180" lon="9.5533160">
	<ele>1554.40</ele>
	<time>2023-10-07T11:33:19.000Z</time>
</trkpt>
<trkpt lat="45.9360180" lon="9.5533160">
	<ele>1554.40</ele>
	<time>2023-10-07T11:33:20.000Z</time>
</trkpt>
<trkpt lat="45.9360180" lon="9.5533160">
	<ele>1554.40</ele>
	<time>2023-10-07T11:33:21.000Z</time>
</trkpt>
<trkpt lat="45.9360180" lon="9.5533160">
	<ele>1554.40</ele>
	<time>2023-10-07T11:33:22.000Z</time>
</trkpt>
<trkpt lat="45.9360180" lon="9.5533160">
	<ele>1554.40</ele>
	<time>2023-10-07T11:33:23.000Z</time>
</trkpt>
<trkpt lat="45.9360180" lon="9.5533160">
	<ele>1554.40</ele>
	<time>2023-10-07T11:33:24.000Z</time>
</trkpt>
<trkpt lat="45.9360180" lon="9.5533160">
	<ele>1554.20</ele>
	<time>2023-10-07T11:33:25.000Z</time>
</trkpt>
<trkpt lat="45.9360180" lon="9.5533160">
	<ele>1554.20</ele>
	<time>2023-10-07T11:33:26.000Z</time>
</trkpt>
<trkpt lat="45.9360180" lon="9.5533160">
	<ele>1554.00</ele>
	<time>2023-10-07T11:33:27.000Z</time>
</trkpt>
<trkpt lat="45.9360190" lon="9.5533160">
	<ele>1554.00</ele>
	<time>2023-10-07T11:33:28.000Z</time>
</trkpt>
<trkpt lat="45.9360200" lon="9.5533150">
	<ele>1554.00</ele>
	<time>2023-10-07T11:33:29.000Z</time>
</trkpt>
<trkpt lat="45.9360230" lon="9.5533140">
	<ele>1554.00</ele>
	<time>2023-10-07T11:33:30.000Z</time>
</trkpt>
<trkpt lat="45.9360240" lon="9.5533140">
	<ele>1554.20</ele>
	<time>2023-10-07T11:33:31.000Z</time>
</trkpt>
<trkpt lat="45.9360250" lon="9.5533140">
	<ele>1554.20</ele>
	<time>2023-10-07T11:33:32.000Z</time>
</trkpt>
<trkpt lat="45.9360250" lon="9.5533140">
	<ele>1554.40</ele>
	<time>2023-10-07T11:33:33.000Z</time>
</trkpt>
<trkpt lat="45.9360250" lon="9.5533140">
	<ele>1554.40</ele>
	<time>2023-10-07T11:33:34.000Z</time>
</trkpt>
<trkpt lat="45.9360250" lon="9.5533140">
	<ele>1554.40</ele>
	<time>2023-10-07T11:33:35.000Z</time>
</trkpt>
<trkpt lat="45.9360260" lon="9.5533130">
	<ele>1554.60</ele>
	<time>2023-10-07T11:33:36.000Z</time>
</trkpt>
<trkpt lat="45.9360260" lon="9.5533130">
	<ele>1554.60</ele>
	<time>2023-10-07T11:33:37.000Z</time>
</trkpt>
<trkpt lat="45.9360260" lon="9.5533130">
	<ele>1554.60</ele>
	<time>2023-10-07T11:33:38.000Z</time>
</trkpt>
<trkpt lat="45.9360270" lon="9.5533130">
	<ele>1554.60</ele>
	<time>2023-10-07T11:33:39.000Z</time>
</trkpt>
<trkpt lat="45.9360270" lon="9.5533130">
	<ele>1554.60</ele>
	<time>2023-10-07T11:33:40.000Z</time>
</trkpt>
<trkpt lat="45.9360280" lon="9.5533130">
	<ele>1554.60</ele>
	<time>2023-10-07T11:33:41.000Z</time>
</trkpt>
<trkpt lat="45.9360280" lon="9.5533120">
	<ele>1554.60</ele>
	<time>2023-10-07T11:33:42.000Z</time>
</trkpt>
<trkpt lat="45.9360280" lon="9.5533120">
	<ele>1554.60</ele>
	<time>2023-10-07T11:33:43.000Z</time>
</trkpt>
<trkpt lat="45.9360290" lon="9.5533120">
	<ele>1554.60</ele>
	<time>2023-10-07T11:33:44.000Z</time>
</trkpt>
<trkpt lat="45.9360290" lon="9.5533120">
	<ele>1554.60</ele>
	<time>2023-10-07T11:33:45.000Z</time>
</trkpt>
<trkpt lat="45.9360300" lon="9.5533120">
	<ele>1554.40</ele>
	<time>2023-10-07T11:33:46.000Z</time>
</trkpt>
<trkpt lat="45.9360300" lon="9.5533120">
	<ele>1554.40</ele>
	<time>2023-10-07T11:33:47.000Z</time>
</trkpt>
<trkpt lat="45.9360300" lon="9.5533120">
	<ele>1554.40</ele>
	<time>2023-10-07T11:33:48.000Z</time>
</trkpt>
<trkpt lat="45.9360300" lon="9.5533120">
	<ele>1554.20</ele>
	<time>2023-10-07T11:33:49.000Z</time>
</trkpt>
<trkpt lat="45.9360300" lon="9.5533120">
	<ele>1554.20</ele>
	<time>2023-10-07T11:33:50.000Z</time>
</trkpt>
<trkpt lat="45.9360300" lon="9.5533120">
	<ele>1554.20</ele>
	<time>2023-10-07T11:33:51.000Z</time>
</trkpt>
<trkpt lat="45.9360280" lon="9.5533170">
	<ele>1554.20</ele>
	<time>2023-10-07T11:33:52.000Z</time>
</trkpt>
<trkpt lat="45.9360190" lon="9.5533310">
	<ele>1554.20</ele>
	<time>2023-10-07T11:33:53.000Z</time>
</trkpt>
<trkpt lat="45.9360090" lon="9.5533470">
	<ele>1554.40</ele>
	<time>2023-10-07T11:33:54.000Z</time>
</trkpt>
<trkpt lat="45.9360020" lon="9.5533580">
	<ele>1554.40</ele>
	<time>2023-10-07T11:33:55.000Z</time>
</trkpt>
<trkpt lat="45.9359940" lon="9.5533710">
	<ele>1554.60</ele>
	<time>2023-10-07T11:33:56.000Z</time>
</trkpt>
<trkpt lat="45.9359850" lon="9.5533860">
	<ele>1554.80</ele>
	<time>2023-10-07T11:33:57.000Z</time>
</trkpt>
<trkpt lat="45.9359750" lon="9.5534000">
	<ele>1554.80</ele>
	<time>2023-10-07T11:33:58.000Z</time>
</trkpt>
<trkpt lat="45.9359640" lon="9.5534130">
	<ele>1555.00</ele>
	<time>2023-10-07T11:33:59.000Z</time>
</trkpt>
<trkpt lat="45.9359530" lon="9.5534280">
	<ele>1555.20</ele>
	<time>2023-10-07T11:34:00.000Z</time>
</trkpt>
<trkpt lat="45.9359430" lon="9.5534440">
	<ele>1555.20</ele>
	<time>2023-10-07T11:34:01.000Z</time>
</trkpt>
<trkpt lat="45.9359350" lon="9.5534560">
	<ele>1555.40</ele>
	<time>2023-10-07T11:34:02.000Z</time>
</trkpt>
<trkpt lat="45.9359240" lon="9.5534700">
	<ele>1555.60</ele>
	<time>2023-10-07T11:34:03.000Z</time>
</trkpt>
<trkpt lat="45.9359130" lon="9.5534750">
	<ele>1555.60</ele>
	<time>2023-10-07T11:34:04.000Z</time>
</trkpt>
<trkpt lat="45.9359060" lon="9.5534780">
	<ele>1555.80</ele>
	<time>2023-10-07T11:34:05.000Z</time>
</trkpt>
<trkpt lat="45.9358970" lon="9.5534840">
	<ele>1555.80</ele>
	<time>2023-10-07T11:34:06.000Z</time>
</trkpt>
<trkpt lat="45.9358890" lon="9.5534920">
	<ele>1555.80</ele>
	<time>2023-10-07T11:34:07.000Z</time>
</trkpt>
<trkpt lat="45.9358790" lon="9.5535030">
	<ele>1556.00</ele>
	<time>2023-10-07T11:34:08.000Z</time>
</trkpt>
<trkpt lat="45.9358670" lon="9.5535130">
	<ele>1556.20</ele>
	<time>2023-10-07T11:34:09.000Z</time>
</trkpt>
<trkpt lat="45.9358560" lon="9.5535250">
	<ele>1556.40</ele>
	<time>2023-10-07T11:34:10.000Z</time>
</trkpt>
<trkpt lat="45.9358460" lon="9.5535360">
	<ele>1556.60</ele>
	<time>2023-10-07T11:34:11.000Z</time>
</trkpt>
<trkpt lat="45.9358360" lon="9.5535480">
	<ele>1556.80</ele>
	<time>2023-10-07T11:34:12.000Z</time>
</trkpt>
<trkpt lat="45.9358290" lon="9.5535580">
	<ele>1557.00</ele>
	<time>2023-10-07T11:34:13.000Z</time>
</trkpt>
<trkpt lat="45.9358230" lon="9.5535650">
	<ele>1557.00</ele>
	<time>2023-10-07T11:34:14.000Z</time>
</trkpt>
<trkpt lat="45.9358160" lon="9.5535730">
	<ele>1557.20</ele>
	<time>2023-10-07T11:34:15.000Z</time>
</trkpt>
<trkpt lat="45.9358080" lon="9.5535900">
	<ele>1557.20</ele>
	<time>2023-10-07T11:34:16.000Z</time>
</trkpt>
<trkpt lat="45.9358020" lon="9.5536040">
	<ele>1557.20</ele>
	<time>2023-10-07T11:34:17.000Z</time>
</trkpt>
<trkpt lat="45.9357930" lon="9.5536200">
	<ele>1557.20</ele>
	<time>2023-10-07T11:34:18.000Z</time>
</trkpt>
<trkpt lat="45.9357880" lon="9.5536380">
	<ele>1557.20</ele>
	<time>2023-10-07T11:34:19.000Z</time>
</trkpt>
<trkpt lat="45.9357820" lon="9.5536550">
	<ele>1557.20</ele>
	<time>2023-10-07T11:34:20.000Z</time>
</trkpt>
<trkpt lat="45.9357760" lon="9.5536700">
	<ele>1557.40</ele>
	<time>2023-10-07T11:34:21.000Z</time>
</trkpt>
<trkpt lat="45.9357700" lon="9.5536870">
	<ele>1557.40</ele>
	<time>2023-10-07T11:34:22.000Z</time>
</trkpt>
<trkpt lat="45.9357660" lon="9.5537000">
	<ele>1557.60</ele>
	<time>2023-10-07T11:34:23.000Z</time>
</trkpt>
<trkpt lat="45.9357610" lon="9.5537170">
	<ele>1557.60</ele>
	<time>2023-10-07T11:34:24.000Z</time>
</trkpt>
<trkpt lat="45.9357560" lon="9.5537320">
	<ele>1557.80</ele>
	<time>2023-10-07T11:34:25.000Z</time>
</trkpt>
<trkpt lat="45.9357510" lon="9.5537440">
	<ele>1557.80</ele>
	<time>2023-10-07T11:34:26.000Z</time>
</trkpt>
<trkpt lat="45.9357460" lon="9.5537560">
	<ele>1558.00</ele>
	<time>2023-10-07T11:34:27.000Z</time>
</trkpt>
<trkpt lat="45.9357380" lon="9.5537660">
	<ele>1558.20</ele>
	<time>2023-10-07T11:34:28.000Z</time>
</trkpt>
<trkpt lat="45.9357320" lon="9.5537760">
	<ele>1558.40</ele>
	<time>2023-10-07T11:34:29.000Z</time>
</trkpt>
<trkpt lat="45.9357230" lon="9.5537890">
	<ele>1558.60</ele>
	<time>2023-10-07T11:34:30.000Z</time>
</trkpt>
<trkpt lat="45.9357160" lon="9.5537980">
	<ele>1558.80</ele>
	<time>2023-10-07T11:34:31.000Z</time>
</trkpt>
<trkpt lat="45.9357080" lon="9.5538080">
	<ele>1559.00</ele>
	<time>2023-10-07T11:34:32.000Z</time>
</trkpt>
<trkpt lat="45.9357000" lon="9.5538200">
	<ele>1559.20</ele>
	<time>2023-10-07T11:34:33.000Z</time>
</trkpt>
<trkpt lat="45.9356930" lon="9.5538290">
	<ele>1559.20</ele>
	<time>2023-10-07T11:34:34.000Z</time>
</trkpt>
<trkpt lat="45.9356860" lon="9.5538380">
	<ele>1559.40</ele>
	<time>2023-10-07T11:34:35.000Z</time>
</trkpt>
<trkpt lat="45.9356780" lon="9.5538500">
	<ele>1559.40</ele>
	<time>2023-10-07T11:34:36.000Z</time>
</trkpt>
<trkpt lat="45.9356710" lon="9.5538630">
	<ele>1559.60</ele>
	<time>2023-10-07T11:34:37.000Z</time>
</trkpt>
<trkpt lat="45.9356630" lon="9.5538760">
	<ele>1560.00</ele>
	<time>2023-10-07T11:34:38.000Z</time>
</trkpt>
<trkpt lat="45.9356550" lon="9.5538920">
	<ele>1560.00</ele>
	<time>2023-10-07T11:34:39.000Z</time>
</trkpt>
<trkpt lat="45.9356500" lon="9.5539030">
	<ele>1560.20</ele>
	<time>2023-10-07T11:34:40.000Z</time>
</trkpt>
<trkpt lat="45.9356440" lon="9.5539120">
	<ele>1560.20</ele>
	<time>2023-10-07T11:34:41.000Z</time>
</trkpt>
<trkpt lat="45.9356400" lon="9.5539180">
	<ele>1560.40</ele>
	<time>2023-10-07T11:34:42.000Z</time>
</trkpt>
<trkpt lat="45.9356340" lon="9.5539290">
	<ele>1560.40</ele>
	<time>2023-10-07T11:34:43.000Z</time>
</trkpt>
<trkpt lat="45.9356270" lon="9.5539410">
	<ele>1560.60</ele>
	<time>2023-10-07T11:34:44.000Z</time>
</trkpt>
<trkpt lat="45.9356210" lon="9.5539520">
	<ele>1560.60</ele>
	<time>2023-10-07T11:34:45.000Z</time>
</trkpt>
<trkpt lat="45.9356170" lon="9.5539610">
	<ele>1560.80</ele>
	<time>2023-10-07T11:34:46.000Z</time>
</trkpt>
<trkpt lat="45.9356120" lon="9.5539750">
	<ele>1560.80</ele>
	<time>2023-10-07T11:34:47.000Z</time>
</trkpt>
<trkpt lat="45.9356080" lon="9.5539910">
	<ele>1561.00</ele>
	<time>2023-10-07T11:34:48.000Z</time>
</trkpt>
<trkpt lat="45.9356050" lon="9.5540090">
	<ele>1561.20</ele>
	<time>2023-10-07T11:34:49.000Z</time>
</trkpt>
<trkpt lat="45.9356020" lon="9.5540220">
	<ele>1561.20</ele>
	<time>2023-10-07T11:34:50.000Z</time>
</trkpt>
<trkpt lat="45.9356030" lon="9.5540370">
	<ele>1561.20</ele>
	<time>2023-10-07T11:34:51.000Z</time>
</trkpt>
<trkpt lat="45.9356030" lon="9.5540500">
	<ele>1561.40</ele>
	<time>2023-10-07T11:34:52.000Z</time>
</trkpt>
<trkpt lat="45.9356020" lon="9.5540620">
	<ele>1561.60</ele>
	<time>2023-10-07T11:34:53.000Z</time>
</trkpt>
<trkpt lat="45.9356070" lon="9.5540770">
	<ele>1561.80</ele>
	<time>2023-10-07T11:34:54.000Z</time>
</trkpt>
<trkpt lat="45.9356150" lon="9.5540890">
	<ele>1562.00</ele>
	<time>2023-10-07T11:34:55.000Z</time>
</trkpt>
<trkpt lat="45.9356210" lon="9.5540970">
	<ele>1562.20</ele>
	<time>2023-10-07T11:34:56.000Z</time>
</trkpt>
<trkpt lat="45.9356250" lon="9.5541080">
	<ele>1562.20</ele>
	<time>2023-10-07T11:34:57.000Z</time>
</trkpt>
<trkpt lat="45.9356310" lon="9.5541200">
	<ele>1562.40</ele>
	<time>2023-10-07T11:34:58.000Z</time>
</trkpt>
<trkpt lat="45.9356350" lon="9.5541340">
	<ele>1562.60</ele>
	<time>2023-10-07T11:34:59.000Z</time>
</trkpt>
<trkpt lat="45.9356420" lon="9.5541460">
	<ele>1562.60</ele>
	<time>2023-10-07T11:35:00.000Z</time>
</trkpt>
<trkpt lat="45.9356460" lon="9.5541550">
	<ele>1562.60</ele>
	<time>2023-10-07T11:35:01.000Z</time>
</trkpt>
<trkpt lat="45.9356560" lon="9.5541680">
	<ele>1562.80</ele>
	<time>2023-10-07T11:35:02.000Z</time>
</trkpt>
<trkpt lat="45.9356640" lon="9.5541790">
	<ele>1562.80</ele>
	<time>2023-10-07T11:35:03.000Z</time>
</trkpt>
<trkpt lat="45.9356730" lon="9.5541910">
	<ele>1562.80</ele>
	<time>2023-10-07T11:35:04.000Z</time>
</trkpt>
<trkpt lat="45.9356810" lon="9.5542070">
	<ele>1562.80</ele>
	<time>2023-10-07T11:35:05.000Z</time>
</trkpt>
<trkpt lat="45.9356850" lon="9.5542200">
	<ele>1563.00</ele>
	<time>2023-10-07T11:35:06.000Z</time>
</trkpt>
<trkpt lat="45.9356910" lon="9.5542320">
	<ele>1563.00</ele>
	<time>2023-10-07T11:35:07.000Z</time>
</trkpt>
<trkpt lat="45.9356990" lon="9.5542440">
	<ele>1563.20</ele>
	<time>2023-10-07T11:35:08.000Z</time>
</trkpt>
<trkpt lat="45.9357080" lon="9.5542580">
	<ele>1563.20</ele>
	<time>2023-10-07T11:35:09.000Z</time>
</trkpt>
<trkpt lat="45.9357140" lon="9.5542690">
	<ele>1563.40</ele>
	<time>2023-10-07T11:35:10.000Z</time>
</trkpt>
<trkpt lat="45.9357220" lon="9.5542800">
	<ele>1563.60</ele>
	<time>2023-10-07T11:35:11.000Z</time>
</trkpt>
<trkpt lat="45.9357270" lon="9.5542910">
	<ele>1563.80</ele>
	<time>2023-10-07T11:35:12.000Z</time>
</trkpt>
<trkpt lat="45.9357340" lon="9.5543000">
	<ele>1564.00</ele>
	<time>2023-10-07T11:35:13.000Z</time>
</trkpt>
<trkpt lat="45.9357390" lon="9.5543100">
	<ele>1564.20</ele>
	<time>2023-10-07T11:35:14.000Z</time>
</trkpt>
<trkpt lat="45.9357450" lon="9.5543230">
	<ele>1564.20</ele>
	<time>2023-10-07T11:35:15.000Z</time>
</trkpt>
<trkpt lat="45.9357520" lon="9.5543400">
	<ele>1564.20</ele>
	<time>2023-10-07T11:35:16.000Z</time>
</trkpt>
<trkpt lat="45.9357600" lon="9.5543530">
	<ele>1564.20</ele>
	<time>2023-10-07T11:35:17.000Z</time>
</trkpt>
<trkpt lat="45.9357710" lon="9.5543630">
	<ele>1564.40</ele>
	<time>2023-10-07T11:35:18.000Z</time>
</trkpt>
<trkpt lat="45.9357790" lon="9.5543730">
	<ele>1564.40</ele>
	<time>2023-10-07T11:35:19.000Z</time>
</trkpt>
<trkpt lat="45.9357840" lon="9.5543830">
	<ele>1564.60</ele>
	<time>2023-10-07T11:35:20.000Z</time>
</trkpt>
<trkpt lat="45.9357930" lon="9.5543950">
	<ele>1564.80</ele>
	<time>2023-10-07T11:35:21.000Z</time>
</trkpt>
<trkpt lat="45.9358020" lon="9.5544010">
	<ele>1565.00</ele>
	<time>2023-10-07T11:35:22.000Z</time>
</trkpt>
<trkpt lat="45.9358070" lon="9.5544110">
	<ele>1565.00</ele>
	<time>2023-10-07T11:35:23.000Z</time>
</trkpt>
<trkpt lat="45.9358170" lon="9.5544220">
	<ele>1565.00</ele>
	<time>2023-10-07T11:35:24.000Z</time>
</trkpt>
<trkpt lat="45.9358250" lon="9.5544330">
	<ele>1565.20</ele>
	<time>2023-10-07T11:35:25.000Z</time>
</trkpt>
<trkpt lat="45.9358340" lon="9.5544390">
	<ele>1565.40</ele>
	<time>2023-10-07T11:35:26.000Z</time>
</trkpt>
<trkpt lat="45.9358460" lon="9.5544440">
	<ele>1565.40</ele>
	<time>2023-10-07T11:35:27.000Z</time>
</trkpt>
<trkpt lat="45.9358570" lon="9.5544540">
	<ele>1565.40</ele>
	<time>2023-10-07T11:35:28.000Z</time>
</trkpt>
<trkpt lat="45.9358640" lon="9.5544630">
	<ele>1565.40</ele>
	<time>2023-10-07T11:35:29.000Z</time>
</trkpt>
<trkpt lat="45.9358730" lon="9.5544700">
	<ele>1565.40</ele>
	<time>2023-10-07T11:35:30.000Z</time>
</trkpt>
<trkpt lat="45.9358800" lon="9.5544750">
	<ele>1565.60</ele>
	<time>2023-10-07T11:35:31.000Z</time>
</trkpt>
<trkpt lat="45.9358850" lon="9.5544780">
	<ele>1565.60</ele>
	<time>2023-10-07T11:35:32.000Z</time>
</trkpt>
<trkpt lat="45.9358860" lon="9.5544780">
	<ele>1565.60</ele>
	<time>2023-10-07T11:35:33.000Z</time>
</trkpt>
<trkpt lat="45.9358870" lon="9.5544770">
	<ele>1565.80</ele>
	<time>2023-10-07T11:35:34.000Z</time>
</trkpt>
<trkpt lat="45.9358870" lon="9.5544770">
	<ele>1565.80</ele>
	<time>2023-10-07T11:35:35.000Z</time>
</trkpt>
<trkpt lat="45.9358870" lon="9.5544770">
	<ele>1565.80</ele>
	<time>2023-10-07T11:35:36.000Z</time>
</trkpt>
<trkpt lat="45.9358880" lon="9.5544780">
	<ele>1566.00</ele>
	<time>2023-10-07T11:35:37.000Z</time>
</trkpt>
<trkpt lat="45.9358890" lon="9.5544780">
	<ele>1566.00</ele>
	<time>2023-10-07T11:35:38.000Z</time>
</trkpt>
<trkpt lat="45.9358900" lon="9.5544830">
	<ele>1566.00</ele>
	<time>2023-10-07T11:35:39.000Z</time>
</trkpt>
<trkpt lat="45.9358960" lon="9.5544880">
	<ele>1566.00</ele>
	<time>2023-10-07T11:35:40.000Z</time>
</trkpt>
<trkpt lat="45.9359000" lon="9.5544950">
	<ele>1566.20</ele>
	<time>2023-10-07T11:35:41.000Z</time>
</trkpt>
<trkpt lat="45.9359040" lon="9.5544990">
	<ele>1566.20</ele>
	<time>2023-10-07T11:35:42.000Z</time>
</trkpt>
<trkpt lat="45.9359110" lon="9.5545030">
	<ele>1566.20</ele>
	<time>2023-10-07T11:35:43.000Z</time>
</trkpt>
<trkpt lat="45.9359170" lon="9.5545060">
	<ele>1566.20</ele>
	<time>2023-10-07T11:35:44.000Z</time>
</trkpt>
<trkpt lat="45.9359250" lon="9.5545110">
	<ele>1566.40</ele>
	<time>2023-10-07T11:35:45.000Z</time>
</trkpt>
<trkpt lat="45.9359300" lon="9.5545160">
	<ele>1566.60</ele>
	<time>2023-10-07T11:35:46.000Z</time>
</trkpt>
<trkpt lat="45.9359370" lon="9.5545200">
	<ele>1566.60</ele>
	<time>2023-10-07T11:35:47.000Z</time>
</trkpt>
<trkpt lat="45.9359470" lon="9.5545210">
	<ele>1567.00</ele>
	<time>2023-10-07T11:35:48.000Z</time>
</trkpt>
<trkpt lat="45.9359560" lon="9.5545250">
	<ele>1567.20</ele>
	<time>2023-10-07T11:35:49.000Z</time>
</trkpt>
<trkpt lat="45.9359630" lon="9.5545330">
	<ele>1567.20</ele>
	<time>2023-10-07T11:35:50.000Z</time>
</trkpt>
<trkpt lat="45.9359720" lon="9.5545420">
	<ele>1567.40</ele>
	<time>2023-10-07T11:35:51.000Z</time>
</trkpt>
<trkpt lat="45.9359810" lon="9.5545470">
	<ele>1567.40</ele>
	<time>2023-10-07T11:35:52.000Z</time>
</trkpt>
<trkpt lat="45.9359890" lon="9.5545540">
	<ele>1567.60</ele>
	<time>2023-10-07T11:35:53.000Z</time>
</trkpt>
<trkpt lat="45.9359950" lon="9.5545580">
	<ele>1567.80</ele>
	<time>2023-10-07T11:35:54.000Z</time>
</trkpt>
<trkpt lat="45.9360020" lon="9.5545630">
	<ele>1568.00</ele>
	<time>2023-10-07T11:35:55.000Z</time>
</trkpt>
<trkpt lat="45.9360090" lon="9.5545660">
	<ele>1568.20</ele>
	<time>2023-10-07T11:35:56.000Z</time>
</trkpt>
<trkpt lat="45.9360170" lon="9.5545700">
	<ele>1568.20</ele>
	<time>2023-10-07T11:35:57.000Z</time>
</trkpt>
<trkpt lat="45.9360240" lon="9.5545740">
	<ele>1568.40</ele>
	<time>2023-10-07T11:35:58.000Z</time>
</trkpt>
<trkpt lat="45.9360330" lon="9.5545800">
	<ele>1568.40</ele>
	<time>2023-10-07T11:35:59.000Z</time>
</trkpt>
<trkpt lat="45.9360410" lon="9.5545870">
	<ele>1568.60</ele>
	<time>2023-10-07T11:36:00.000Z</time>
</trkpt>
<trkpt lat="45.9360470" lon="9.5545940">
	<ele>1568.80</ele>
	<time>2023-10-07T11:36:01.000Z</time>
</trkpt>
<trkpt lat="45.9360580" lon="9.5545980">
	<ele>1568.80</ele>
	<time>2023-10-07T11:36:02.000Z</time>
</trkpt>
<trkpt lat="45.9360680" lon="9.5546040">
	<ele>1569.20</ele>
	<time>2023-10-07T11:36:03.000Z</time>
</trkpt>
<trkpt lat="45.9360770" lon="9.5546090">
	<ele>1569.20</ele>
	<time>2023-10-07T11:36:04.000Z</time>
</trkpt>
<trkpt lat="45.9360830" lon="9.5546150">
	<ele>1569.40</ele>
	<time>2023-10-07T11:36:05.000Z</time>
</trkpt>
<trkpt lat="45.9360900" lon="9.5546230">
	<ele>1569.60</ele>
	<time>2023-10-07T11:36:06.000Z</time>
</trkpt>
<trkpt lat="45.9360960" lon="9.5546320">
	<ele>1569.80</ele>
	<time>2023-10-07T11:36:07.000Z</time>
</trkpt>
<trkpt lat="45.9361040" lon="9.5546390">
	<ele>1570.00</ele>
	<time>2023-10-07T11:36:08.000Z</time>
</trkpt>
<trkpt lat="45.9361100" lon="9.5546440">
	<ele>1570.20</ele>
	<time>2023-10-07T11:36:09.000Z</time>
</trkpt>
<trkpt lat="45.9361200" lon="9.5546520">
	<ele>1570.40</ele>
	<time>2023-10-07T11:36:10.000Z</time>
</trkpt>
<trkpt lat="45.9361280" lon="9.5546600">
	<ele>1570.40</ele>
	<time>2023-10-07T11:36:11.000Z</time>
</trkpt>
<trkpt lat="45.9361340" lon="9.5546690">
	<ele>1570.60</ele>
	<time>2023-10-07T11:36:12.000Z</time>
</trkpt>
<trkpt lat="45.9361390" lon="9.5546750">
	<ele>1570.80</ele>
	<time>2023-10-07T11:36:13.000Z</time>
</trkpt>
<trkpt lat="45.9361450" lon="9.5546850">
	<ele>1571.00</ele>
	<time>2023-10-07T11:36:14.000Z</time>
</trkpt>
<trkpt lat="45.9361510" lon="9.5546900">
	<ele>1571.00</ele>
	<time>2023-10-07T11:36:15.000Z</time>
</trkpt>
<trkpt lat="45.9361610" lon="9.5547010">
	<ele>1571.20</ele>
	<time>2023-10-07T11:36:16.000Z</time>
</trkpt>
<trkpt lat="45.9361710" lon="9.5547140">
	<ele>1571.20</ele>
	<time>2023-10-07T11:36:17.000Z</time>
</trkpt>
<trkpt lat="45.9361790" lon="9.5547250">
	<ele>1571.40</ele>
	<time>2023-10-07T11:36:18.000Z</time>
</trkpt>
<trkpt lat="45.9361880" lon="9.5547360">
	<ele>1571.60</ele>
	<time>2023-10-07T11:36:19.000Z</time>
</trkpt>
<trkpt lat="45.9361970" lon="9.5547430">
	<ele>1571.80</ele>
	<time>2023-10-07T11:36:20.000Z</time>
</trkpt>
<trkpt lat="45.9362020" lon="9.5547540">
	<ele>1572.00</ele>
	<time>2023-10-07T11:36:21.000Z</time>
</trkpt>
<trkpt lat="45.9362050" lon="9.5547680">
	<ele>1572.20</ele>
	<time>2023-10-07T11:36:22.000Z</time>
</trkpt>
<trkpt lat="45.9362110" lon="9.5547820">
	<ele>1572.20</ele>
	<time>2023-10-07T11:36:23.000Z</time>
</trkpt>
<trkpt lat="45.9362190" lon="9.5547940">
	<ele>1572.20</ele>
	<time>2023-10-07T11:36:24.000Z</time>
</trkpt>
<trkpt lat="45.9362260" lon="9.5548050">
	<ele>1572.20</ele>
	<time>2023-10-07T11:36:25.000Z</time>
</trkpt>
<trkpt lat="45.9362320" lon="9.5548140">
	<ele>1572.40</ele>
	<time>2023-10-07T11:36:26.000Z</time>
</trkpt>
<trkpt lat="45.9362430" lon="9.5548270">
	<ele>1572.60</ele>
	<time>2023-10-07T11:36:27.000Z</time>
</trkpt>
<trkpt lat="45.9362530" lon="9.5548420">
	<ele>1572.60</ele>
	<time>2023-10-07T11:36:28.000Z</time>
</trkpt>
<trkpt lat="45.9362620" lon="9.5548530">
	<ele>1572.60</ele>
	<time>2023-10-07T11:36:29.000Z</time>
</trkpt>
<trkpt lat="45.9362690" lon="9.5548600">
	<ele>1572.80</ele>
	<time>2023-10-07T11:36:30.000Z</time>
</trkpt>
<trkpt lat="45.9362800" lon="9.5548680">
	<ele>1572.80</ele>
	<time>2023-10-07T11:36:31.000Z</time>
</trkpt>
<trkpt lat="45.9362890" lon="9.5548840">
	<ele>1572.80</ele>
	<time>2023-10-07T11:36:32.000Z</time>
</trkpt>
<trkpt lat="45.9362940" lon="9.5548930">
	<ele>1572.80</ele>
	<time>2023-10-07T11:36:33.000Z</time>
</trkpt>
<trkpt lat="45.9363010" lon="9.5549030">
	<ele>1573.00</ele>
	<time>2023-10-07T11:36:34.000Z</time>
</trkpt>
<trkpt lat="45.9363050" lon="9.5549200">
	<ele>1573.00</ele>
	<time>2023-10-07T11:36:35.000Z</time>
</trkpt>
<trkpt lat="45.9363080" lon="9.5549300">
	<ele>1573.00</ele>
	<time>2023-10-07T11:36:36.000Z</time>
</trkpt>
<trkpt lat="45.9363150" lon="9.5549430">
	<ele>1573.20</ele>
	<time>2023-10-07T11:36:37.000Z</time>
</trkpt>
<trkpt lat="45.9363240" lon="9.5549520">
	<ele>1573.40</ele>
	<time>2023-10-07T11:36:38.000Z</time>
</trkpt>
<trkpt lat="45.9363300" lon="9.5549580">
	<ele>1573.60</ele>
	<time>2023-10-07T11:36:39.000Z</time>
</trkpt>
<trkpt lat="45.9363360" lon="9.5549710">
	<ele>1573.60</ele>
	<time>2023-10-07T11:36:40.000Z</time>
</trkpt>
<trkpt lat="45.9363410" lon="9.5549850">
	<ele>1574.00</ele>
	<time>2023-10-07T11:36:41.000Z</time>
</trkpt>
<trkpt lat="45.9363470" lon="9.5549980">
	<ele>1574.20</ele>
	<time>2023-10-07T11:36:42.000Z</time>
</trkpt>
<trkpt lat="45.9363490" lon="9.5550110">
	<ele>1574.20</ele>
	<time>2023-10-07T11:36:43.000Z</time>
</trkpt>
<trkpt lat="45.9363520" lon="9.5550240">
	<ele>1574.40</ele>
	<time>2023-10-07T11:36:44.000Z</time>
</trkpt>
<trkpt lat="45.9363550" lon="9.5550370">
	<ele>1574.40</ele>
	<time>2023-10-07T11:36:45.000Z</time>
</trkpt>
<trkpt lat="45.9363580" lon="9.5550480">
	<ele>1574.60</ele>
	<time>2023-10-07T11:36:46.000Z</time>
</trkpt>
<trkpt lat="45.9363660" lon="9.5550590">
	<ele>1574.80</ele>
	<time>2023-10-07T11:36:47.000Z</time>
</trkpt>
<trkpt lat="45.9363740" lon="9.5550730">
	<ele>1574.80</ele>
	<time>2023-10-07T11:36:48.000Z</time>
</trkpt>
<trkpt lat="45.9363820" lon="9.5550870">
	<ele>1575.00</ele>
	<time>2023-10-07T11:36:49.000Z</time>
</trkpt>
<trkpt lat="45.9363930" lon="9.5550980">
	<ele>1575.20</ele>
	<time>2023-10-07T11:36:50.000Z</time>
</trkpt>
<trkpt lat="45.9364000" lon="9.5551060">
	<ele>1575.40</ele>
	<time>2023-10-07T11:36:51.000Z</time>
</trkpt>
<trkpt lat="45.9364090" lon="9.5551140">
	<ele>1575.40</ele>
	<time>2023-10-07T11:36:52.000Z</time>
</trkpt>
<trkpt lat="45.9364190" lon="9.5551300">
	<ele>1575.60</ele>
	<time>2023-10-07T11:36:53.000Z</time>
</trkpt>
<trkpt lat="45.9364270" lon="9.5551440">
	<ele>1575.60</ele>
	<time>2023-10-07T11:36:54.000Z</time>
</trkpt>
<trkpt lat="45.9364340" lon="9.5551560">
	<ele>1575.60</ele>
	<time>2023-10-07T11:36:55.000Z</time>
</trkpt>
<trkpt lat="45.9364360" lon="9.5551670">
	<ele>1575.80</ele>
	<time>2023-10-07T11:36:56.000Z</time>
</trkpt>
<trkpt lat="45.9364380" lon="9.5551840">
	<ele>1575.80</ele>
	<time>2023-10-07T11:36:57.000Z</time>
</trkpt>
<trkpt lat="45.9364370" lon="9.5551940">
	<ele>1576.00</ele>
	<time>2023-10-07T11:36:58.000Z</time>
</trkpt>
<trkpt lat="45.9364340" lon="9.5552100">
	<ele>1576.20</ele>
	<time>2023-10-07T11:36:59.000Z</time>
</trkpt>
<trkpt lat="45.9364320" lon="9.5552240">
	<ele>1576.40</ele>
	<time>2023-10-07T11:37:00.000Z</time>
</trkpt>
<trkpt lat="45.9364260" lon="9.5552380">
	<ele>1576.40</ele>
	<time>2023-10-07T11:37:01.000Z</time>
</trkpt>
<trkpt lat="45.9364200" lon="9.5552510">
	<ele>1576.60</ele>
	<time>2023-10-07T11:37:02.000Z</time>
</trkpt>
<trkpt lat="45.9364150" lon="9.5552630">
	<ele>1576.80</ele>
	<time>2023-10-07T11:37:03.000Z</time>
</trkpt>
<trkpt lat="45.9364080" lon="9.5552750">
	<ele>1577.00</ele>
	<time>2023-10-07T11:37:04.000Z</time>
</trkpt>
<trkpt lat="45.9364050" lon="9.5552800">
	<ele>1577.00</ele>
	<time>2023-10-07T11:37:05.000Z</time>
</trkpt>
<trkpt lat="45.9363990" lon="9.5552910">
	<ele>1577.00</ele>
	<time>2023-10-07T11:37:06.000Z</time>
</trkpt>
<trkpt lat="45.9363930" lon="9.5553040">
	<ele>1577.20</ele>
	<time>2023-10-07T11:37:07.000Z</time>
</trkpt>
<trkpt lat="45.9363920" lon="9.5553140">
	<ele>1577.40</ele>
	<time>2023-10-07T11:37:08.000Z</time>
</trkpt>
<trkpt lat="45.9363910" lon="9.5553220">
	<ele>1577.60</ele>
	<time>2023-10-07T11:37:09.000Z</time>
</trkpt>
<trkpt lat="45.9363880" lon="9.5553350">
	<ele>1577.80</ele>
	<time>2023-10-07T11:37:10.000Z</time>
</trkpt>
<trkpt lat="45.9363840" lon="9.5553450">
	<ele>1578.00</ele>
	<time>2023-10-07T11:37:11.000Z</time>
</trkpt>
<trkpt lat="45.9363800" lon="9.5553560">
	<ele>1578.20</ele>
	<time>2023-10-07T11:37:12.000Z</time>
</trkpt>
<trkpt lat="45.9363770" lon="9.5553650">
	<ele>1578.40</ele>
	<time>2023-10-07T11:37:13.000Z</time>
</trkpt>
<trkpt lat="45.9363710" lon="9.5553740">
	<ele>1578.60</ele>
	<time>2023-10-07T11:37:14.000Z</time>
</trkpt>
<trkpt lat="45.9363670" lon="9.5553820">
	<ele>1578.80</ele>
	<time>2023-10-07T11:37:15.000Z</time>
</trkpt>
<trkpt lat="45.9363620" lon="9.5553920">
	<ele>1579.00</ele>
	<time>2023-10-07T11:37:16.000Z</time>
</trkpt>
<trkpt lat="45.9363570" lon="9.5553990">
	<ele>1579.20</ele>
	<time>2023-10-07T11:37:17.000Z</time>
</trkpt>
<trkpt lat="45.9363530" lon="9.5554080">
	<ele>1579.40</ele>
	<time>2023-10-07T11:37:18.000Z</time>
</trkpt>
<trkpt lat="45.9363530" lon="9.5554160">
	<ele>1579.60</ele>
	<time>2023-10-07T11:37:19.000Z</time>
</trkpt>
<trkpt lat="45.9363550" lon="9.5554250">
	<ele>1579.60</ele>
	<time>2023-10-07T11:37:20.000Z</time>
</trkpt>
<trkpt lat="45.9363560" lon="9.5554400">
	<ele>1579.80</ele>
	<time>2023-10-07T11:37:21.000Z</time>
</trkpt>
<trkpt lat="45.9363570" lon="9.5554560">
	<ele>1579.80</ele>
	<time>2023-10-07T11:37:22.000Z</time>
</trkpt>
<trkpt lat="45.9363560" lon="9.5554720">
	<ele>1580.00</ele>
	<time>2023-10-07T11:37:23.000Z</time>
</trkpt>
<trkpt lat="45.9363550" lon="9.5554830">
	<ele>1580.20</ele>
	<time>2023-10-07T11:37:24.000Z</time>
</trkpt>
<trkpt lat="45.9363570" lon="9.5554960">
	<ele>1580.40</ele>
	<time>2023-10-07T11:37:25.000Z</time>
</trkpt>
<trkpt lat="45.9363570" lon="9.5555120">
	<ele>1580.40</ele>
	<time>2023-10-07T11:37:26.000Z</time>
</trkpt>
<trkpt lat="45.9363570" lon="9.5555220">
	<ele>1580.60</ele>
	<time>2023-10-07T11:37:27.000Z</time>
</trkpt>
<trkpt lat="45.9363590" lon="9.5555370">
	<ele>1580.60</ele>
	<time>2023-10-07T11:37:28.000Z</time>
</trkpt>
<trkpt lat="45.9363610" lon="9.5555540">
	<ele>1580.60</ele>
	<time>2023-10-07T11:37:29.000Z</time>
</trkpt>
<trkpt lat="45.9363620" lon="9.5555680">
	<ele>1580.80</ele>
	<time>2023-10-07T11:37:30.000Z</time>
</trkpt>
<trkpt lat="45.9363620" lon="9.5555870">
	<ele>1581.00</ele>
	<time>2023-10-07T11:37:31.000Z</time>
</trkpt>
<trkpt lat="45.9363630" lon="9.5556020">
	<ele>1581.20</ele>
	<time>2023-10-07T11:37:32.000Z</time>
</trkpt>
<trkpt lat="45.9363610" lon="9.5556190">
	<ele>1581.40</ele>
	<time>2023-10-07T11:37:33.000Z</time>
</trkpt>
<trkpt lat="45.9363600" lon="9.5556340">
	<ele>1581.40</ele>
	<time>2023-10-07T11:37:34.000Z</time>
</trkpt>
<trkpt lat="45.9363610" lon="9.5556480">
	<ele>1581.60</ele>
	<time>2023-10-07T11:37:35.000Z</time>
</trkpt>
<trkpt lat="45.9363610" lon="9.5556640">
	<ele>1581.60</ele>
	<time>2023-10-07T11:37:36.000Z</time>
</trkpt>
<trkpt lat="45.9363610" lon="9.5556790">
	<ele>1581.80</ele>
	<time>2023-10-07T11:37:37.000Z</time>
</trkpt>
<trkpt lat="45.9363620" lon="9.5556950">
	<ele>1582.00</ele>
	<time>2023-10-07T11:37:38.000Z</time>
</trkpt>
<trkpt lat="45.9363630" lon="9.5557110">
	<ele>1582.20</ele>
	<time>2023-10-07T11:37:39.000Z</time>
</trkpt>
<trkpt lat="45.9363640" lon="9.5557230">
	<ele>1582.20</ele>
	<time>2023-10-07T11:37:40.000Z</time>
</trkpt>
<trkpt lat="45.9363650" lon="9.5557400">
	<ele>1582.20</ele>
	<time>2023-10-07T11:37:41.000Z</time>
</trkpt>
<trkpt lat="45.9363650" lon="9.5557530">
	<ele>1582.40</ele>
	<time>2023-10-07T11:37:42.000Z</time>
</trkpt>
<trkpt lat="45.9363650" lon="9.5557690">
	<ele>1582.40</ele>
	<time>2023-10-07T11:37:43.000Z</time>
</trkpt>
<trkpt lat="45.9363660" lon="9.5557860">
	<ele>1582.40</ele>
	<time>2023-10-07T11:37:44.000Z</time>
</trkpt>
<trkpt lat="45.9363650" lon="9.5558000">
	<ele>1582.60</ele>
	<time>2023-10-07T11:37:45.000Z</time>
</trkpt>
<trkpt lat="45.9363640" lon="9.5558140">
	<ele>1582.80</ele>
	<time>2023-10-07T11:37:46.000Z</time>
</trkpt>
<trkpt lat="45.9363620" lon="9.5558310">
	<ele>1582.80</ele>
	<time>2023-10-07T11:37:47.000Z</time>
</trkpt>
<trkpt lat="45.9363600" lon="9.5558500">
	<ele>1583.00</ele>
	<time>2023-10-07T11:37:48.000Z</time>
</trkpt>
<trkpt lat="45.9363590" lon="9.5558640">
	<ele>1583.20</ele>
	<time>2023-10-07T11:37:49.000Z</time>
</trkpt>
<trkpt lat="45.9363590" lon="9.5558720">
	<ele>1583.40</ele>
	<time>2023-10-07T11:37:50.000Z</time>
</trkpt>
<trkpt lat="45.9363590" lon="9.5558810">
	<ele>1583.60</ele>
	<time>2023-10-07T11:37:51.000Z</time>
</trkpt>
<trkpt lat="45.9363600" lon="9.5558920">
	<ele>1583.60</ele>
	<time>2023-10-07T11:37:52.000Z</time>
</trkpt>
<trkpt lat="45.9363590" lon="9.5559040">
	<ele>1584.00</ele>
	<time>2023-10-07T11:37:53.000Z</time>
</trkpt>
<trkpt lat="45.9363560" lon="9.5559130">
	<ele>1584.00</ele>
	<time>2023-10-07T11:37:54.000Z</time>
</trkpt>
<trkpt lat="45.9363590" lon="9.5559280">
	<ele>1584.20</ele>
	<time>2023-10-07T11:37:55.000Z</time>
</trkpt>
<trkpt lat="45.9363620" lon="9.5559380">
	<ele>1584.20</ele>
	<time>2023-10-07T11:37:56.000Z</time>
</trkpt>
<trkpt lat="45.9363670" lon="9.5559510">
	<ele>1584.40</ele>
	<time>2023-10-07T11:37:57.000Z</time>
</trkpt>
<trkpt lat="45.9363660" lon="9.5559660">
	<ele>1584.40</ele>
	<time>2023-10-07T11:37:58.000Z</time>
</trkpt>
<trkpt lat="45.9363640" lon="9.5559780">
	<ele>1584.60</ele>
	<time>2023-10-07T11:37:59.000Z</time>
</trkpt>
<trkpt lat="45.9363630" lon="9.5559940">
	<ele>1584.60</ele>
	<time>2023-10-07T11:38:00.000Z</time>
</trkpt>
<trkpt lat="45.9363640" lon="9.5560040">
	<ele>1584.80</ele>
	<time>2023-10-07T11:38:01.000Z</time>
</trkpt>
<trkpt lat="45.9363640" lon="9.5560050">
	<ele>1584.80</ele>
	<time>2023-10-07T11:38:02.000Z</time>
</trkpt>
<trkpt lat="45.9363650" lon="9.5560050">
	<ele>1584.80</ele>
	<time>2023-10-07T11:38:03.000Z</time>
</trkpt>
<trkpt lat="45.9363660" lon="9.5560050">
	<ele>1585.00</ele>
	<time>2023-10-07T11:38:04.000Z</time>
</trkpt>
<trkpt lat="45.9363670" lon="9.5560040">
	<ele>1585.00</ele>
	<time>2023-10-07T11:38:05.000Z</time>
</trkpt>
<trkpt lat="45.9363680" lon="9.5560040">
	<ele>1585.00</ele>
	<time>2023-10-07T11:38:06.000Z</time>
</trkpt>
<trkpt lat="45.9363680" lon="9.5560030">
	<ele>1585.00</ele>
	<time>2023-10-07T11:38:07.000Z</time>
</trkpt>
<trkpt lat="45.9363690" lon="9.5560030">
	<ele>1585.00</ele>
	<time>2023-10-07T11:38:08.000Z</time>
</trkpt>
<trkpt lat="45.9363690" lon="9.5560030">
	<ele>1585.20</ele>
	<time>2023-10-07T11:38:09.000Z</time>
</trkpt>
<trkpt lat="45.9363690" lon="9.5560030">
	<ele>1585.20</ele>
	<time>2023-10-07T11:38:10.000Z</time>
</trkpt>
<trkpt lat="45.9363690" lon="9.5560000">
	<ele>1585.20</ele>
	<time>2023-10-07T11:38:11.000Z</time>
</trkpt>
<trkpt lat="45.9363690" lon="9.5559980">
	<ele>1585.00</ele>
	<time>2023-10-07T11:38:12.000Z</time>
</trkpt>
<trkpt lat="45.9363710" lon="9.5559980">
	<ele>1585.00</ele>
	<time>2023-10-07T11:38:13.000Z</time>
</trkpt>
<trkpt lat="45.9363730" lon="9.5560000">
	<ele>1585.00</ele>
	<time>2023-10-07T11:38:14.000Z</time>
</trkpt>
<trkpt lat="45.9363760" lon="9.5560090">
	<ele>1585.20</ele>
	<time>2023-10-07T11:38:15.000Z</time>
</trkpt>
<trkpt lat="45.9363740" lon="9.5560190">
	<ele>1585.20</ele>
	<time>2023-10-07T11:38:16.000Z</time>
</trkpt>
<trkpt lat="45.9363720" lon="9.5560310">
	<ele>1585.20</ele>
	<time>2023-10-07T11:38:17.000Z</time>
</trkpt>
<trkpt lat="45.9363730" lon="9.5560440">
	<ele>1585.20</ele>
	<time>2023-10-07T11:38:18.000Z</time>
</trkpt>
<trkpt lat="45.9363750" lon="9.5560630">
	<ele>1585.20</ele>
	<time>2023-10-07T11:38:19.000Z</time>
</trkpt>
<trkpt lat="45.9363760" lon="9.5560800">
	<ele>1585.40</ele>
	<time>2023-10-07T11:38:20.000Z</time>
</trkpt>
<trkpt lat="45.9363750" lon="9.5560950">
	<ele>1585.40</ele>
	<time>2023-10-07T11:38:21.000Z</time>
</trkpt>
<trkpt lat="45.9363750" lon="9.5561120">
	<ele>1585.40</ele>
	<time>2023-10-07T11:38:22.000Z</time>
</trkpt>
<trkpt lat="45.9363760" lon="9.5561270">
	<ele>1585.40</ele>
	<time>2023-10-07T11:38:23.000Z</time>
</trkpt>
<trkpt lat="45.9363800" lon="9.5561450">
	<ele>1585.60</ele>
	<time>2023-10-07T11:38:24.000Z</time>
</trkpt>
<trkpt lat="45.9363840" lon="9.5561620">
	<ele>1585.60</ele>
	<time>2023-10-07T11:38:25.000Z</time>
</trkpt>
<trkpt lat="45.9363850" lon="9.5561730">
	<ele>1585.80</ele>
	<time>2023-10-07T11:38:26.000Z</time>
</trkpt>
<trkpt lat="45.9363870" lon="9.5561880">
	<ele>1585.80</ele>
	<time>2023-10-07T11:38:27.000Z</time>
</trkpt>
<trkpt lat="45.9363880" lon="9.5562080">
	<ele>1586.00</ele>
	<time>2023-10-07T11:38:28.000Z</time>
</trkpt>
<trkpt lat="45.9363890" lon="9.5562260">
	<ele>1586.00</ele>
	<time>2023-10-07T11:38:29.000Z</time>
</trkpt>
<trkpt lat="45.9363910" lon="9.5562440">
	<ele>1586.00</ele>
	<time>2023-10-07T11:38:30.000Z</time>
</trkpt>
<trkpt lat="45.9363910" lon="9.5562640">
	<ele>1586.20</ele>
	<time>2023-10-07T11:38:31.000Z</time>
</trkpt>
<trkpt lat="45.9363890" lon="9.5562780">
	<ele>1586.20</ele>
	<time>2023-10-07T11:38:32.000Z</time>
</trkpt>
<trkpt lat="45.9363860" lon="9.5562980">
	<ele>1586.20</ele>
	<time>2023-10-07T11:38:33.000Z</time>
</trkpt>
<trkpt lat="45.9363800" lon="9.5563130">
	<ele>1586.20</ele>
	<time>2023-10-07T11:38:34.000Z</time>
</trkpt>
<trkpt lat="45.9363750" lon="9.5563310">
	<ele>1586.40</ele>
	<time>2023-10-07T11:38:35.000Z</time>
</trkpt>
<trkpt lat="45.9363720" lon="9.5563450">
	<ele>1586.40</ele>
	<time>2023-10-07T11:38:36.000Z</time>
</trkpt>
<trkpt lat="45.9363710" lon="9.5563610">
	<ele>1586.40</ele>
	<time>2023-10-07T11:38:37.000Z</time>
</trkpt>
<trkpt lat="45.9363690" lon="9.5563850">
	<ele>1586.40</ele>
	<time>2023-10-07T11:38:38.000Z</time>
</trkpt>
<trkpt lat="45.9363660" lon="9.5563990">
	<ele>1586.60</ele>
	<time>2023-10-07T11:38:39.000Z</time>
</trkpt>
<trkpt lat="45.9363610" lon="9.5564230">
	<ele>1586.60</ele>
	<time>2023-10-07T11:38:40.000Z</time>
</trkpt>
<trkpt lat="45.9363580" lon="9.5564380">
	<ele>1586.60</ele>
	<time>2023-10-07T11:38:41.000Z</time>
</trkpt>
<trkpt lat="45.9363520" lon="9.5564530">
	<ele>1586.60</ele>
	<time>2023-10-07T11:38:42.000Z</time>
</trkpt>
<trkpt lat="45.9363470" lon="9.5564630">
	<ele>1586.60</ele>
	<time>2023-10-07T11:38:43.000Z</time>
</trkpt>
<trkpt lat="45.9363400" lon="9.5564790">
	<ele>1586.80</ele>
	<time>2023-10-07T11:38:44.000Z</time>
</trkpt>
<trkpt lat="45.9363350" lon="9.5564940">
	<ele>1587.00</ele>
	<time>2023-10-07T11:38:45.000Z</time>
</trkpt>
<trkpt lat="45.9363300" lon="9.5565190">
	<ele>1587.20</ele>
	<time>2023-10-07T11:38:46.000Z</time>
</trkpt>
<trkpt lat="45.9363280" lon="9.5565360">
	<ele>1587.40</ele>
	<time>2023-10-07T11:38:47.000Z</time>
</trkpt>
<trkpt lat="45.9363250" lon="9.5565520">
	<ele>1587.60</ele>
	<time>2023-10-07T11:38:48.000Z</time>
</trkpt>
<trkpt lat="45.9363220" lon="9.5565680">
	<ele>1587.60</ele>
	<time>2023-10-07T11:38:49.000Z</time>
</trkpt>
<trkpt lat="45.9363190" lon="9.5565830">
	<ele>1587.80</ele>
	<time>2023-10-07T11:38:50.000Z</time>
</trkpt>
<trkpt lat="45.9363150" lon="9.5565980">
	<ele>1587.80</ele>
	<time>2023-10-07T11:38:51.000Z</time>
</trkpt>
<trkpt lat="45.9363110" lon="9.5566100">
	<ele>1588.20</ele>
	<time>2023-10-07T11:38:52.000Z</time>
</trkpt>
<trkpt lat="45.9363030" lon="9.5566260">
	<ele>1588.40</ele>
	<time>2023-10-07T11:38:53.000Z</time>
</trkpt>
<trkpt lat="45.9362990" lon="9.5566440">
	<ele>1588.40</ele>
	<time>2023-10-07T11:38:54.000Z</time>
</trkpt>
<trkpt lat="45.9362970" lon="9.5566630">
	<ele>1588.40</ele>
	<time>2023-10-07T11:38:55.000Z</time>
</trkpt>
<trkpt lat="45.9362990" lon="9.5566780">
	<ele>1588.60</ele>
	<time>2023-10-07T11:38:56.000Z</time>
</trkpt>
<trkpt lat="45.9362990" lon="9.5566970">
	<ele>1588.40</ele>
	<time>2023-10-07T11:38:57.000Z</time>
</trkpt>
<trkpt lat="45.9363030" lon="9.5567150">
	<ele>1588.40</ele>
	<time>2023-10-07T11:38:58.000Z</time>
</trkpt>
<trkpt lat="45.9363060" lon="9.5567310">
	<ele>1588.40</ele>
	<time>2023-10-07T11:38:59.000Z</time>
</trkpt>
<trkpt lat="45.9363060" lon="9.5567480">
	<ele>1588.40</ele>
	<time>2023-10-07T11:39:00.000Z</time>
</trkpt>
<trkpt lat="45.9363040" lon="9.5567680">
	<ele>1588.60</ele>
	<time>2023-10-07T11:39:01.000Z</time>
</trkpt>
<trkpt lat="45.9363010" lon="9.5567860">
	<ele>1588.60</ele>
	<time>2023-10-07T11:39:02.000Z</time>
</trkpt>
<trkpt lat="45.9363010" lon="9.5568040">
	<ele>1588.60</ele>
	<time>2023-10-07T11:39:03.000Z</time>
</trkpt>
<trkpt lat="45.9363020" lon="9.5568240">
	<ele>1588.80</ele>
	<time>2023-10-07T11:39:04.000Z</time>
</trkpt>
<trkpt lat="45.9363020" lon="9.5568420">
	<ele>1588.80</ele>
	<time>2023-10-07T11:39:05.000Z</time>
</trkpt>
<trkpt lat="45.9362990" lon="9.5568600">
	<ele>1589.00</ele>
	<time>2023-10-07T11:39:06.000Z</time>
</trkpt>
<trkpt lat="45.9362980" lon="9.5568730">
	<ele>1589.00</ele>
	<time>2023-10-07T11:39:07.000Z</time>
</trkpt>
<trkpt lat="45.9362970" lon="9.5568890">
	<ele>1589.00</ele>
	<time>2023-10-07T11:39:08.000Z</time>
</trkpt>
<trkpt lat="45.9362990" lon="9.5569050">
	<ele>1589.00</ele>
	<time>2023-10-07T11:39:09.000Z</time>
</trkpt>
<trkpt lat="45.9362980" lon="9.5569160">
	<ele>1589.40</ele>
	<time>2023-10-07T11:39:10.000Z</time>
</trkpt>
<trkpt lat="45.9362980" lon="9.5569300">
	<ele>1589.60</ele>
	<time>2023-10-07T11:39:11.000Z</time>
</trkpt>
<trkpt lat="45.9362980" lon="9.5569480">
	<ele>1589.80</ele>
	<time>2023-10-07T11:39:12.000Z</time>
</trkpt>
<trkpt lat="45.9362960" lon="9.5569620">
	<ele>1589.80</ele>
	<time>2023-10-07T11:39:13.000Z</time>
</trkpt>
<trkpt lat="45.9362960" lon="9.5569740">
	<ele>1590.00</ele>
	<time>2023-10-07T11:39:14.000Z</time>
</trkpt>
<trkpt lat="45.9362980" lon="9.5569880">
	<ele>1590.00</ele>
	<time>2023-10-07T11:39:15.000Z</time>
</trkpt>
<trkpt lat="45.9362990" lon="9.5570040">
	<ele>1590.20</ele>
	<time>2023-10-07T11:39:16.000Z</time>
</trkpt>
<trkpt lat="45.9362970" lon="9.5570240">
	<ele>1590.20</ele>
	<time>2023-10-07T11:39:17.000Z</time>
</trkpt>
<trkpt lat="45.9362940" lon="9.5570420">
	<ele>1590.20</ele>
	<time>2023-10-07T11:39:18.000Z</time>
</trkpt>
<trkpt lat="45.9362920" lon="9.5570610">
	<ele>1590.40</ele>
	<time>2023-10-07T11:39:19.000Z</time>
</trkpt>
<trkpt lat="45.9362900" lon="9.5570790">
	<ele>1590.40</ele>
	<time>2023-10-07T11:39:20.000Z</time>
</trkpt>
<trkpt lat="45.9362900" lon="9.5570970">
	<ele>1590.40</ele>
	<time>2023-10-07T11:39:21.000Z</time>
</trkpt>
<trkpt lat="45.9362900" lon="9.5571070">
	<ele>1590.60</ele>
	<time>2023-10-07T11:39:22.000Z</time>
</trkpt>
<trkpt lat="45.9362910" lon="9.5571230">
	<ele>1590.60</ele>
	<time>2023-10-07T11:39:23.000Z</time>
</trkpt>
<trkpt lat="45.9362890" lon="9.5571410">
	<ele>1590.60</ele>
	<time>2023-10-07T11:39:24.000Z</time>
</trkpt>
<trkpt lat="45.9362880" lon="9.5571610">
	<ele>1590.60</ele>
	<time>2023-10-07T11:39:25.000Z</time>
</trkpt>
<trkpt lat="45.9362880" lon="9.5571790">
	<ele>1590.80</ele>
	<time>2023-10-07T11:39:26.000Z</time>
</trkpt>
<trkpt lat="45.9362910" lon="9.5571940">
	<ele>1590.80</ele>
	<time>2023-10-07T11:39:27.000Z</time>
</trkpt>
<trkpt lat="45.9362940" lon="9.5572090">
	<ele>1590.80</ele>
	<time>2023-10-07T11:39:28.000Z</time>
</trkpt>
<trkpt lat="45.9362890" lon="9.5572220">
	<ele>1590.80</ele>
	<time>2023-10-07T11:39:29.000Z</time>
</trkpt>
<trkpt lat="45.9362860" lon="9.5572380">
	<ele>1591.00</ele>
	<time>2023-10-07T11:39:30.000Z</time>
</trkpt>
<trkpt lat="45.9362850" lon="9.5572550">
	<ele>1591.20</ele>
	<time>2023-10-07T11:39:31.000Z</time>
</trkpt>
<trkpt lat="45.9362850" lon="9.5572680">
	<ele>1591.20</ele>
	<time>2023-10-07T11:39:32.000Z</time>
</trkpt>
<trkpt lat="45.9362810" lon="9.5572870">
	<ele>1591.40</ele>
	<time>2023-10-07T11:39:33.000Z</time>
</trkpt>
<trkpt lat="45.9362780" lon="9.5573030">
	<ele>1591.60</ele>
	<time>2023-10-07T11:39:34.000Z</time>
</trkpt>
<trkpt lat="45.9362770" lon="9.5573180">
	<ele>1591.60</ele>
	<time>2023-10-07T11:39:35.000Z</time>
</trkpt>
<trkpt lat="45.9362750" lon="9.5573320">
	<ele>1591.60</ele>
	<time>2023-10-07T11:39:36.000Z</time>
</trkpt>
<trkpt lat="45.9362790" lon="9.5573410">
	<ele>1591.80</ele>
	<time>2023-10-07T11:39:37.000Z</time>
</trkpt>
<trkpt lat="45.9362810" lon="9.5573590">
	<ele>1592.00</ele>
	<time>2023-10-07T11:39:38.000Z</time>
</trkpt>
<trkpt lat="45.9362810" lon="9.5573730">
	<ele>1592.00</ele>
	<time>2023-10-07T11:39:39.000Z</time>
</trkpt>
<trkpt lat="45.9362770" lon="9.5573890">
	<ele>1592.20</ele>
	<time>2023-10-07T11:39:40.000Z</time>
</trkpt>
<trkpt lat="45.9362730" lon="9.5574020">
	<ele>1592.40</ele>
	<time>2023-10-07T11:39:41.000Z</time>
</trkpt>
<trkpt lat="45.9362700" lon="9.5574140">
	<ele>1592.60</ele>
	<time>2023-10-07T11:39:42.000Z</time>
</trkpt>
<trkpt lat="45.9362650" lon="9.5574260">
	<ele>1592.80</ele>
	<time>2023-10-07T11:39:43.000Z</time>
</trkpt>
<trkpt lat="45.9362600" lon="9.5574350">
	<ele>1593.20</ele>
	<time>2023-10-07T11:39:44.000Z</time>
</trkpt>
<trkpt lat="45.9362540" lon="9.5574430">
	<ele>1593.40</ele>
	<time>2023-10-07T11:39:45.000Z</time>
</trkpt>
<trkpt lat="45.9362500" lon="9.5574480">
	<ele>1593.40</ele>
	<time>2023-10-07T11:39:46.000Z</time>
</trkpt>
<trkpt lat="45.9362470" lon="9.5574550">
	<ele>1593.40</ele>
	<time>2023-10-07T11:39:47.000Z</time>
</trkpt>
<trkpt lat="45.9362430" lon="9.5574680">
	<ele>1593.60</ele>
	<time>2023-10-07T11:39:48.000Z</time>
</trkpt>
<trkpt lat="45.9362400" lon="9.5574800">
	<ele>1593.80</ele>
	<time>2023-10-07T11:39:49.000Z</time>
</trkpt>
<trkpt lat="45.9362350" lon="9.5574920">
	<ele>1594.00</ele>
	<time>2023-10-07T11:39:50.000Z</time>
</trkpt>
<trkpt lat="45.9362310" lon="9.5575050">
	<ele>1594.00</ele>
	<time>2023-10-07T11:39:51.000Z</time>
</trkpt>
<trkpt lat="45.9362290" lon="9.5575170">
	<ele>1594.20</ele>
	<time>2023-10-07T11:39:52.000Z</time>
</trkpt>
<trkpt lat="45.9362260" lon="9.5575310">
	<ele>1594.20</ele>
	<time>2023-10-07T11:39:53.000Z</time>
</trkpt>
<trkpt lat="45.9362240" lon="9.5575460">
	<ele>1594.40</ele>
	<time>2023-10-07T11:39:54.000Z</time>
</trkpt>
<trkpt lat="45.9362240" lon="9.5575580">
	<ele>1594.60</ele>
	<time>2023-10-07T11:39:55.000Z</time>
</trkpt>
<trkpt lat="45.9362260" lon="9.5575730">
	<ele>1594.60</ele>
	<time>2023-10-07T11:39:56.000Z</time>
</trkpt>
<trkpt lat="45.9362250" lon="9.5575870">
	<ele>1594.80</ele>
	<time>2023-10-07T11:39:57.000Z</time>
</trkpt>
<trkpt lat="45.9362240" lon="9.5575990">
	<ele>1594.80</ele>
	<time>2023-10-07T11:39:58.000Z</time>
</trkpt>
<trkpt lat="45.9362210" lon="9.5576120">
	<ele>1595.00</ele>
	<time>2023-10-07T11:39:59.000Z</time>
</trkpt>
<trkpt lat="45.9362230" lon="9.5576240">
	<ele>1595.00</ele>
	<time>2023-10-07T11:40:00.000Z</time>
</trkpt>
<trkpt lat="45.9362250" lon="9.5576330">
	<ele>1595.00</ele>
	<time>2023-10-07T11:40:01.000Z</time>
</trkpt>
<trkpt lat="45.9362250" lon="9.5576390">
	<ele>1595.00</ele>
	<time>2023-10-07T11:40:02.000Z</time>
</trkpt>
<trkpt lat="45.9362230" lon="9.5576440">
	<ele>1595.00</ele>
	<time>2023-10-07T11:40:03.000Z</time>
</trkpt>
<trkpt lat="45.9362190" lon="9.5576480">
	<ele>1595.00</ele>
	<time>2023-10-07T11:40:04.000Z</time>
</trkpt>
<trkpt lat="45.9362180" lon="9.5576490">
	<ele>1595.00</ele>
	<time>2023-10-07T11:40:05.000Z</time>
</trkpt>
<trkpt lat="45.9362190" lon="9.5576490">
	<ele>1595.00</ele>
	<time>2023-10-07T11:40:06.000Z</time>
</trkpt>
<trkpt lat="45.9362190" lon="9.5576480">
	<ele>1595.20</ele>
	<time>2023-10-07T11:40:07.000Z</time>
</trkpt>
<trkpt lat="45.9362180" lon="9.5576480">
	<ele>1595.20</ele>
	<time>2023-10-07T11:40:08.000Z</time>
</trkpt>
<trkpt lat="45.9362180" lon="9.5576480">
	<ele>1595.20</ele>
	<time>2023-10-07T11:40:09.000Z</time>
</trkpt>
<trkpt lat="45.9362180" lon="9.5576480">
	<ele>1595.20</ele>
	<time>2023-10-07T11:40:10.000Z</time>
</trkpt>
<trkpt lat="45.9362190" lon="9.5576490">
	<ele>1595.40</ele>
	<time>2023-10-07T11:40:11.000Z</time>
</trkpt>
<trkpt lat="45.9362190" lon="9.5576490">
	<ele>1595.40</ele>
	<time>2023-10-07T11:40:12.000Z</time>
</trkpt>
<trkpt lat="45.9362190" lon="9.5576470">
	<ele>1595.20</ele>
	<time>2023-10-07T11:40:13.000Z</time>
</trkpt>
<trkpt lat="45.9362210" lon="9.5576480">
	<ele>1595.20</ele>
	<time>2023-10-07T11:40:14.000Z</time>
</trkpt>
<trkpt lat="45.9362220" lon="9.5576490">
	<ele>1595.20</ele>
	<time>2023-10-07T11:40:15.000Z</time>
</trkpt>
<trkpt lat="45.9362260" lon="9.5576520">
	<ele>1595.20</ele>
	<time>2023-10-07T11:40:16.000Z</time>
</trkpt>
<trkpt lat="45.9362250" lon="9.5576560">
	<ele>1595.20</ele>
	<time>2023-10-07T11:40:17.000Z</time>
</trkpt>
<trkpt lat="45.9362260" lon="9.5576630">
	<ele>1595.00</ele>
	<time>2023-10-07T11:40:18.000Z</time>
</trkpt>
<trkpt lat="45.9362250" lon="9.5576710">
	<ele>1595.00</ele>
	<time>2023-10-07T11:40:19.000Z</time>
</trkpt>
<trkpt lat="45.9362230" lon="9.5576790">
	<ele>1594.60</ele>
	<time>2023-10-07T11:40:20.000Z</time>
</trkpt>
<trkpt lat="45.9362200" lon="9.5576880">
	<ele>1594.60</ele>
	<time>2023-10-07T11:40:21.000Z</time>
</trkpt>
<trkpt lat="45.9362210" lon="9.5576970">
	<ele>1594.40</ele>
	<time>2023-10-07T11:40:22.000Z</time>
</trkpt>
<trkpt lat="45.9362230" lon="9.5577060">
	<ele>1594.20</ele>
	<time>2023-10-07T11:40:23.000Z</time>
</trkpt>
<trkpt lat="45.9362260" lon="9.5577210">
	<ele>1594.00</ele>
	<time>2023-10-07T11:40:24.000Z</time>
</trkpt>
<trkpt lat="45.9362250" lon="9.5577390">
	<ele>1593.80</ele>
	<time>2023-10-07T11:40:25.000Z</time>
</trkpt>
<trkpt lat="45.9362240" lon="9.5577590">
	<ele>1593.60</ele>
	<time>2023-10-07T11:40:26.000Z</time>
</trkpt>
<trkpt lat="45.9362210" lon="9.5577790">
	<ele>1593.60</ele>
	<time>2023-10-07T11:40:27.000Z</time>
</trkpt>
<trkpt lat="45.9362180" lon="9.5577940">
	<ele>1593.40</ele>
	<time>2023-10-07T11:40:28.000Z</time>
</trkpt>
<trkpt lat="45.9362150" lon="9.5578060">
	<ele>1593.20</ele>
	<time>2023-10-07T11:40:29.000Z</time>
</trkpt>
<trkpt lat="45.9362120" lon="9.5578160">
	<ele>1593.20</ele>
	<time>2023-10-07T11:40:30.000Z</time>
</trkpt>
<trkpt lat="45.9362050" lon="9.5578270">
	<ele>1593.20</ele>
	<time>2023-10-07T11:40:31.000Z</time>
</trkpt>
<trkpt lat="45.9361930" lon="9.5578320">
	<ele>1593.00</ele>
	<time>2023-10-07T11:40:32.000Z</time>
</trkpt>
<trkpt lat="45.9361870" lon="9.5578350">
	<ele>1592.80</ele>
	<time>2023-10-07T11:40:33.000Z</time>
</trkpt>
<trkpt lat="45.9361770" lon="9.5578430">
	<ele>1592.40</ele>
	<time>2023-10-07T11:40:34.000Z</time>
</trkpt>
<trkpt lat="45.9361640" lon="9.5578510">
	<ele>1592.20</ele>
	<time>2023-10-07T11:40:35.000Z</time>
</trkpt>
<trkpt lat="45.9361560" lon="9.5578590">
	<ele>1592.00</ele>
	<time>2023-10-07T11:40:36.000Z</time>
</trkpt>
<trkpt lat="45.9361470" lon="9.5578650">
	<ele>1591.80</ele>
	<time>2023-10-07T11:40:37.000Z</time>
</trkpt>
<trkpt lat="45.9361410" lon="9.5578690">
	<ele>1591.60</ele>
	<time>2023-10-07T11:40:38.000Z</time>
</trkpt>
<trkpt lat="45.9361360" lon="9.5578730">
	<ele>1591.40</ele>
	<time>2023-10-07T11:40:39.000Z</time>
</trkpt>
<trkpt lat="45.9361290" lon="9.5578820">
	<ele>1591.20</ele>
	<time>2023-10-07T11:40:40.000Z</time>
</trkpt>
<trkpt lat="45.9361210" lon="9.5578880">
	<ele>1591.20</ele>
	<time>2023-10-07T11:40:41.000Z</time>
</trkpt>
<trkpt lat="45.9361170" lon="9.5578960">
	<ele>1591.00</ele>
	<time>2023-10-07T11:40:42.000Z</time>
</trkpt>
<trkpt lat="45.9361100" lon="9.5579080">
	<ele>1590.80</ele>
	<time>2023-10-07T11:40:43.000Z</time>
</trkpt>
<trkpt lat="45.9361020" lon="9.5579180">
	<ele>1590.60</ele>
	<time>2023-10-07T11:40:44.000Z</time>
</trkpt>
<trkpt lat="45.9360940" lon="9.5579300">
	<ele>1590.60</ele>
	<time>2023-10-07T11:40:45.000Z</time>
</trkpt>
<trkpt lat="45.9360870" lon="9.5579400">
	<ele>1590.40</ele>
	<time>2023-10-07T11:40:46.000Z</time>
</trkpt>
<trkpt lat="45.9360780" lon="9.5579530">
	<ele>1590.20</ele>
	<time>2023-10-07T11:40:47.000Z</time>
</trkpt>
<trkpt lat="45.9360680" lon="9.5579610">
	<ele>1590.00</ele>
	<time>2023-10-07T11:40:48.000Z</time>
</trkpt>
<trkpt lat="45.9360540" lon="9.5579650">
	<ele>1589.80</ele>
	<time>2023-10-07T11:40:49.000Z</time>
</trkpt>
<trkpt lat="45.9360420" lon="9.5579700">
	<ele>1589.80</ele>
	<time>2023-10-07T11:40:50.000Z</time>
</trkpt>
<trkpt lat="45.9360300" lon="9.5579700">
	<ele>1589.80</ele>
	<time>2023-10-07T11:40:51.000Z</time>
</trkpt>
<trkpt lat="45.9360160" lon="9.5579650">
	<ele>1589.80</ele>
	<time>2023-10-07T11:40:52.000Z</time>
</trkpt>
<trkpt lat="45.9360080" lon="9.5579580">
	<ele>1589.80</ele>
	<time>2023-10-07T11:40:53.000Z</time>
</trkpt>
<trkpt lat="45.9359990" lon="9.5579520">
	<ele>1590.00</ele>
	<time>2023-10-07T11:40:54.000Z</time>
</trkpt>
<trkpt lat="45.9359900" lon="9.5579450">
	<ele>1590.00</ele>
	<time>2023-10-07T11:40:55.000Z</time>
</trkpt>
<trkpt lat="45.9359810" lon="9.5579410">
	<ele>1590.00</ele>
	<time>2023-10-07T11:40:56.000Z</time>
</trkpt>
<trkpt lat="45.9359710" lon="9.5579390">
	<ele>1590.20</ele>
	<time>2023-10-07T11:40:57.000Z</time>
</trkpt>
<trkpt lat="45.9359600" lon="9.5579390">
	<ele>1590.40</ele>
	<time>2023-10-07T11:40:58.000Z</time>
</trkpt>
<trkpt lat="45.9359490" lon="9.5579400">
	<ele>1590.40</ele>
	<time>2023-10-07T11:40:59.000Z</time>
</trkpt>
<trkpt lat="45.9359380" lon="9.5579460">
	<ele>1590.60</ele>
	<time>2023-10-07T11:41:00.000Z</time>
</trkpt>
<trkpt lat="45.9359280" lon="9.5579530">
	<ele>1590.80</ele>
	<time>2023-10-07T11:41:01.000Z</time>
</trkpt>
<trkpt lat="45.9359170" lon="9.5579640">
	<ele>1590.80</ele>
	<time>2023-10-07T11:41:02.000Z</time>
</trkpt>
<trkpt lat="45.9359090" lon="9.5579760">
	<ele>1591.00</ele>
	<time>2023-10-07T11:41:03.000Z</time>
</trkpt>
<trkpt lat="45.9358990" lon="9.5579890">
	<ele>1591.00</ele>
	<time>2023-10-07T11:41:04.000Z</time>
</trkpt>
<trkpt lat="45.9358920" lon="9.5580060">
	<ele>1591.20</ele>
	<time>2023-10-07T11:41:05.000Z</time>
</trkpt>
<trkpt lat="45.9358810" lon="9.5580200">
	<ele>1591.20</ele>
	<time>2023-10-07T11:41:06.000Z</time>
</trkpt>
<trkpt lat="45.9358690" lon="9.5580350">
	<ele>1591.20</ele>
	<time>2023-10-07T11:41:07.000Z</time>
</trkpt>
<trkpt lat="45.9358600" lon="9.5580420">
	<ele>1591.40</ele>
	<time>2023-10-07T11:41:08.000Z</time>
</trkpt>
<trkpt lat="45.9358500" lon="9.5580490">
	<ele>1591.40</ele>
	<time>2023-10-07T11:41:09.000Z</time>
</trkpt>
<trkpt lat="45.9358360" lon="9.5580600">
	<ele>1591.20</ele>
	<time>2023-10-07T11:41:10.000Z</time>
</trkpt>
<trkpt lat="45.9358250" lon="9.5580640">
	<ele>1591.20</ele>
	<time>2023-10-07T11:41:11.000Z</time>
</trkpt>
<trkpt lat="45.9358110" lon="9.5580710">
	<ele>1591.20</ele>
	<time>2023-10-07T11:41:12.000Z</time>
</trkpt>
<trkpt lat="45.9357970" lon="9.5580780">
	<ele>1591.00</ele>
	<time>2023-10-07T11:41:13.000Z</time>
</trkpt>
<trkpt lat="45.9357830" lon="9.5580920">
	<ele>1591.00</ele>
	<time>2023-10-07T11:41:14.000Z</time>
</trkpt>
<trkpt lat="45.9357750" lon="9.5581030">
	<ele>1591.00</ele>
	<time>2023-10-07T11:41:15.000Z</time>
</trkpt>
<trkpt lat="45.9357670" lon="9.5581140">
	<ele>1591.00</ele>
	<time>2023-10-07T11:41:16.000Z</time>
</trkpt>
<trkpt lat="45.9357600" lon="9.5581240">
	<ele>1591.00</ele>
	<time>2023-10-07T11:41:17.000Z</time>
</trkpt>
<trkpt lat="45.9357560" lon="9.5581350">
	<ele>1591.20</ele>
	<time>2023-10-07T11:41:18.000Z</time>
</trkpt>
<trkpt lat="45.9357490" lon="9.5581450">
	<ele>1591.20</ele>
	<time>2023-10-07T11:41:19.000Z</time>
</trkpt>
<trkpt lat="45.9357390" lon="9.5581540">
	<ele>1591.20</ele>
	<time>2023-10-07T11:41:20.000Z</time>
</trkpt>
<trkpt lat="45.9357310" lon="9.5581660">
	<ele>1591.40</ele>
	<time>2023-10-07T11:41:21.000Z</time>
</trkpt>
<trkpt lat="45.9357240" lon="9.5581800">
	<ele>1591.40</ele>
	<time>2023-10-07T11:41:22.000Z</time>
</trkpt>
<trkpt lat="45.9357160" lon="9.5581940">
	<ele>1591.40</ele>
	<time>2023-10-07T11:41:23.000Z</time>
</trkpt>
<trkpt lat="45.9357060" lon="9.5582080">
	<ele>1591.60</ele>
	<time>2023-10-07T11:41:24.000Z</time>
</trkpt>
<trkpt lat="45.9356970" lon="9.5582230">
	<ele>1591.60</ele>
	<time>2023-10-07T11:41:25.000Z</time>
</trkpt>
<trkpt lat="45.9356860" lon="9.5582360">
	<ele>1591.80</ele>
	<time>2023-10-07T11:41:26.000Z</time>
</trkpt>
<trkpt lat="45.9356750" lon="9.5582490">
	<ele>1591.80</ele>
	<time>2023-10-07T11:41:27.000Z</time>
</trkpt>
<trkpt lat="45.9356670" lon="9.5582600">
	<ele>1591.80</ele>
	<time>2023-10-07T11:41:28.000Z</time>
</trkpt>
<trkpt lat="45.9356590" lon="9.5582730">
	<ele>1592.00</ele>
	<time>2023-10-07T11:41:29.000Z</time>
</trkpt>
<trkpt lat="45.9356520" lon="9.5582870">
	<ele>1592.00</ele>
	<time>2023-10-07T11:41:30.000Z</time>
</trkpt>
<trkpt lat="45.9356470" lon="9.5582990">
	<ele>1592.00</ele>
	<time>2023-10-07T11:41:31.000Z</time>
</trkpt>
<trkpt lat="45.9356420" lon="9.5583050">
	<ele>1592.00</ele>
	<time>2023-10-07T11:41:32.000Z</time>
</trkpt>
<trkpt lat="45.9356320" lon="9.5583160">
	<ele>1592.00</ele>
	<time>2023-10-07T11:41:33.000Z</time>
</trkpt>
<trkpt lat="45.9356240" lon="9.5583320">
	<ele>1592.20</ele>
	<time>2023-10-07T11:41:34.000Z</time>
</trkpt>
<trkpt lat="45.9356170" lon="9.5583450">
	<ele>1592.20</ele>
	<time>2023-10-07T11:41:35.000Z</time>
</trkpt>
<trkpt lat="45.9356080" lon="9.5583610">
	<ele>1592.20</ele>
	<time>2023-10-07T11:41:36.000Z</time>
</trkpt>
<trkpt lat="45.9356020" lon="9.5583760">
	<ele>1592.40</ele>
	<time>2023-10-07T11:41:37.000Z</time>
</trkpt>
<trkpt lat="45.9355960" lon="9.5583910">
	<ele>1592.40</ele>
	<time>2023-10-07T11:41:38.000Z</time>
</trkpt>
<trkpt lat="45.9355900" lon="9.5584040">
	<ele>1592.60</ele>
	<time>2023-10-07T11:41:39.000Z</time>
</trkpt>
<trkpt lat="45.9355860" lon="9.5584180">
	<ele>1592.80</ele>
	<time>2023-10-07T11:41:40.000Z</time>
</trkpt>
<trkpt lat="45.9355830" lon="9.5584290">
	<ele>1592.80</ele>
	<time>2023-10-07T11:41:41.000Z</time>
</trkpt>
<trkpt lat="45.9355780" lon="9.5584410">
	<ele>1592.80</ele>
	<time>2023-10-07T11:41:42.000Z</time>
</trkpt>
<trkpt lat="45.9355720" lon="9.5584570">
	<ele>1593.00</ele>
	<time>2023-10-07T11:41:43.000Z</time>
</trkpt>
<trkpt lat="45.9355680" lon="9.5584740">
	<ele>1593.00</ele>
	<time>2023-10-07T11:41:44.000Z</time>
</trkpt>
<trkpt lat="45.9355650" lon="9.5584890">
	<ele>1593.00</ele>
	<time>2023-10-07T11:41:45.000Z</time>
</trkpt>
<trkpt lat="45.9355650" lon="9.5585030">
	<ele>1593.20</ele>
	<time>2023-10-07T11:41:46.000Z</time>
</trkpt>
<trkpt lat="45.9355640" lon="9.5585140">
	<ele>1593.20</ele>
	<time>2023-10-07T11:41:47.000Z</time>
</trkpt>
<trkpt lat="45.9355610" lon="9.5585190">
	<ele>1593.20</ele>
	<time>2023-10-07T11:41:48.000Z</time>
</trkpt>
<trkpt lat="45.9355580" lon="9.5585210">
	<ele>1593.20</ele>
	<time>2023-10-07T11:41:49.000Z</time>
</trkpt>
<trkpt lat="45.9355550" lon="9.5585210">
	<ele>1593.40</ele>
	<time>2023-10-07T11:41:50.000Z</time>
</trkpt>
<trkpt lat="45.9355540" lon="9.5585220">
	<ele>1593.60</ele>
	<time>2023-10-07T11:41:51.000Z</time>
</trkpt>
<trkpt lat="45.9355520" lon="9.5585220">
	<ele>1593.80</ele>
	<time>2023-10-07T11:41:52.000Z</time>
</trkpt>
<trkpt lat="45.9355510" lon="9.5585230">
	<ele>1594.00</ele>
	<time>2023-10-07T11:41:53.000Z</time>
</trkpt>
<trkpt lat="45.9355510" lon="9.5585230">
	<ele>1594.00</ele>
	<time>2023-10-07T11:41:54.000Z</time>
</trkpt>
<trkpt lat="45.9355500" lon="9.5585230">
	<ele>1594.00</ele>
	<time>2023-10-07T11:41:55.000Z</time>
</trkpt>
<trkpt lat="45.9355550" lon="9.5585150">
	<ele>1593.80</ele>
	<time>2023-10-07T11:41:56.000Z</time>
</trkpt>
<trkpt lat="45.9355580" lon="9.5585120">
	<ele>1593.80</ele>
	<time>2023-10-07T11:41:57.000Z</time>
</trkpt>
<trkpt lat="45.9355610" lon="9.5585130">
	<ele>1593.60</ele>
	<time>2023-10-07T11:41:58.000Z</time>
</trkpt>
<trkpt lat="45.9355630" lon="9.5585140">
	<ele>1593.40</ele>
	<time>2023-10-07T11:41:59.000Z</time>
</trkpt>
<trkpt lat="45.9355630" lon="9.5585140">
	<ele>1593.40</ele>
	<time>2023-10-07T11:42:00.000Z</time>
</trkpt>
<trkpt lat="45.9355610" lon="9.5585180">
	<ele>1593.40</ele>
	<time>2023-10-07T11:42:01.000Z</time>
</trkpt>
<trkpt lat="45.9355600" lon="9.5585210">
	<ele>1593.40</ele>
	<time>2023-10-07T11:42:02.000Z</time>
</trkpt>
<trkpt lat="45.9355580" lon="9.5585200">
	<ele>1593.40</ele>
	<time>2023-10-07T11:42:03.000Z</time>
</trkpt>
<trkpt lat="45.9355580" lon="9.5585210">
	<ele>1593.60</ele>
	<time>2023-10-07T11:42:04.000Z</time>
</trkpt>
<trkpt lat="45.9355580" lon="9.5585210">
	<ele>1593.60</ele>
	<time>2023-10-07T11:42:05.000Z</time>
</trkpt>
<trkpt lat="45.9355580" lon="9.5585210">
	<ele>1593.60</ele>
	<time>2023-10-07T11:42:06.000Z</time>
</trkpt>
<trkpt lat="45.9355580" lon="9.5585210">
	<ele>1593.60</ele>
	<time>2023-10-07T11:42:07.000Z</time>
</trkpt>
<trkpt lat="45.9355580" lon="9.5585210">
	<ele>1593.60</ele>
	<time>2023-10-07T11:42:08.000Z</time>
</trkpt>
<trkpt lat="45.9355580" lon="9.5585210">
	<ele>1593.60</ele>
	<time>2023-10-07T11:42:09.000Z</time>
</trkpt>
<trkpt lat="45.9355580" lon="9.5585210">
	<ele>1593.60</ele>
	<time>2023-10-07T11:42:10.000Z</time>
</trkpt>
<trkpt lat="45.9355580" lon="9.5585210">
	<ele>1593.60</ele>
	<time>2023-10-07T11:42:11.000Z</time>
</trkpt>
<trkpt lat="45.9355570" lon="9.5585270">
	<ele>1593.60</ele>
	<time>2023-10-07T11:42:12.000Z</time>
</trkpt>
<trkpt lat="45.9355530" lon="9.5585500">
	<ele>1593.80</ele>
	<time>2023-10-07T11:42:13.000Z</time>
</trkpt>
<trkpt lat="45.9355480" lon="9.5585750">
	<ele>1593.80</ele>
	<time>2023-10-07T11:42:14.000Z</time>
</trkpt>
<trkpt lat="45.9355480" lon="9.5585950">
	<ele>1594.00</ele>
	<time>2023-10-07T11:42:15.000Z</time>
</trkpt>
<trkpt lat="45.9355480" lon="9.5586170">
	<ele>1594.00</ele>
	<time>2023-10-07T11:42:16.000Z</time>
</trkpt>
<trkpt lat="45.9355480" lon="9.5586370">
	<ele>1594.20</ele>
	<time>2023-10-07T11:42:17.000Z</time>
</trkpt>
<trkpt lat="45.9355490" lon="9.5586560">
	<ele>1594.20</ele>
	<time>2023-10-07T11:42:18.000Z</time>
</trkpt>
<trkpt lat="45.9355500" lon="9.5586740">
	<ele>1594.20</ele>
	<time>2023-10-07T11:42:19.000Z</time>
</trkpt>
<trkpt lat="45.9355520" lon="9.5586940">
	<ele>1594.20</ele>
	<time>2023-10-07T11:42:20.000Z</time>
</trkpt>
<trkpt lat="45.9355500" lon="9.5587230">
	<ele>1594.40</ele>
	<time>2023-10-07T11:42:21.000Z</time>
</trkpt>
<trkpt lat="45.9355510" lon="9.5587380">
	<ele>1594.40</ele>
	<time>2023-10-07T11:42:22.000Z</time>
</trkpt>
<trkpt lat="45.9355530" lon="9.5587560">
	<ele>1594.40</ele>
	<time>2023-10-07T11:42:23.000Z</time>
</trkpt>
<trkpt lat="45.9355550" lon="9.5587760">
	<ele>1594.40</ele>
	<time>2023-10-07T11:42:24.000Z</time>
</trkpt>
<trkpt lat="45.9355570" lon="9.5587960">
	<ele>1594.40</ele>
	<time>2023-10-07T11:42:25.000Z</time>
</trkpt>
<trkpt lat="45.9355570" lon="9.5588170">
	<ele>1594.40</ele>
	<time>2023-10-07T11:42:26.000Z</time>
</trkpt>
<trkpt lat="45.9355560" lon="9.5588400">
	<ele>1594.40</ele>
	<time>2023-10-07T11:42:27.000Z</time>
</trkpt>
<trkpt lat="45.9355590" lon="9.5588560">
	<ele>1594.40</ele>
	<time>2023-10-07T11:42:28.000Z</time>
</trkpt>
<trkpt lat="45.9355620" lon="9.5588710">
	<ele>1594.40</ele>
	<time>2023-10-07T11:42:29.000Z</time>
</trkpt>
<trkpt lat="45.9355620" lon="9.5588880">
	<ele>1594.40</ele>
	<time>2023-10-07T11:42:30.000Z</time>
</trkpt>
<trkpt lat="45.9355630" lon="9.5589060">
	<ele>1594.40</ele>
	<time>2023-10-07T11:42:31.000Z</time>
</trkpt>
<trkpt lat="45.9355660" lon="9.5589240">
	<ele>1594.40</ele>
	<time>2023-10-07T11:42:32.000Z</time>
</trkpt>
<trkpt lat="45.9355690" lon="9.5589440">
	<ele>1594.40</ele>
	<time>2023-10-07T11:42:33.000Z</time>
</trkpt>
<trkpt lat="45.9355730" lon="9.5589600">
	<ele>1594.40</ele>
	<time>2023-10-07T11:42:34.000Z</time>
</trkpt>
<trkpt lat="45.9355760" lon="9.5589720">
	<ele>1594.40</ele>
	<time>2023-10-07T11:42:35.000Z</time>
</trkpt>
<trkpt lat="45.9355800" lon="9.5589880">
	<ele>1594.40</ele>
	<time>2023-10-07T11:42:36.000Z</time>
</trkpt>
<trkpt lat="45.9355820" lon="9.5590070">
	<ele>1594.40</ele>
	<time>2023-10-07T11:42:37.000Z</time>
</trkpt>
<trkpt lat="45.9355820" lon="9.5590240">
	<ele>1594.40</ele>
	<time>2023-10-07T11:42:38.000Z</time>
</trkpt>
<trkpt lat="45.9355830" lon="9.5590420">
	<ele>1594.40</ele>
	<time>2023-10-07T11:42:39.000Z</time>
</trkpt>
<trkpt lat="45.9355870" lon="9.5590610">
	<ele>1594.20</ele>
	<time>2023-10-07T11:42:40.000Z</time>
</trkpt>
<trkpt lat="45.9355920" lon="9.5590800">
	<ele>1594.20</ele>
	<time>2023-10-07T11:42:41.000Z</time>
</trkpt>
<trkpt lat="45.9355980" lon="9.5591000">
	<ele>1594.00</ele>
	<time>2023-10-07T11:42:42.000Z</time>
</trkpt>
<trkpt lat="45.9356040" lon="9.5591190">
	<ele>1593.80</ele>
	<time>2023-10-07T11:42:43.000Z</time>
</trkpt>
<trkpt lat="45.9356110" lon="9.5591420">
	<ele>1593.80</ele>
	<time>2023-10-07T11:42:44.000Z</time>
</trkpt>
<trkpt lat="45.9356190" lon="9.5591620">
	<ele>1593.60</ele>
	<time>2023-10-07T11:42:45.000Z</time>
</trkpt>
<trkpt lat="45.9356250" lon="9.5591810">
	<ele>1593.60</ele>
	<time>2023-10-07T11:42:46.000Z</time>
</trkpt>
<trkpt lat="45.9356280" lon="9.5591940">
	<ele>1593.60</ele>
	<time>2023-10-07T11:42:47.000Z</time>
</trkpt>
<trkpt lat="45.9356310" lon="9.5592150">
	<ele>1593.60</ele>
	<time>2023-10-07T11:42:48.000Z</time>
</trkpt>
<trkpt lat="45.9356330" lon="9.5592360">
	<ele>1593.60</ele>
	<time>2023-10-07T11:42:49.000Z</time>
</trkpt>
<trkpt lat="45.9356370" lon="9.5592550">
	<ele>1593.60</ele>
	<time>2023-10-07T11:42:50.000Z</time>
</trkpt>
<trkpt lat="45.9356400" lon="9.5592700">
	<ele>1593.80</ele>
	<time>2023-10-07T11:42:51.000Z</time>
</trkpt>
<trkpt lat="45.9356460" lon="9.5592850">
	<ele>1593.80</ele>
	<time>2023-10-07T11:42:52.000Z</time>
</trkpt>
<trkpt lat="45.9356550" lon="9.5592950">
	<ele>1593.80</ele>
	<time>2023-10-07T11:42:53.000Z</time>
</trkpt>
<trkpt lat="45.9356620" lon="9.5593090">
	<ele>1593.60</ele>
	<time>2023-10-07T11:42:54.000Z</time>
</trkpt>
<trkpt lat="45.9356680" lon="9.5593240">
	<ele>1593.40</ele>
	<time>2023-10-07T11:42:55.000Z</time>
</trkpt>
<trkpt lat="45.9356700" lon="9.5593390">
	<ele>1593.40</ele>
	<time>2023-10-07T11:42:56.000Z</time>
</trkpt>
<trkpt lat="45.9356740" lon="9.5593560">
	<ele>1593.20</ele>
	<time>2023-10-07T11:42:57.000Z</time>
</trkpt>
<trkpt lat="45.9356760" lon="9.5593780">
	<ele>1593.20</ele>
	<time>2023-10-07T11:42:58.000Z</time>
</trkpt>
<trkpt lat="45.9356730" lon="9.5593970">
	<ele>1593.20</ele>
	<time>2023-10-07T11:42:59.000Z</time>
</trkpt>
<trkpt lat="45.9356720" lon="9.5594170">
	<ele>1593.00</ele>
	<time>2023-10-07T11:43:00.000Z</time>
</trkpt>
<trkpt lat="45.9356650" lon="9.5594360">
	<ele>1593.00</ele>
	<time>2023-10-07T11:43:01.000Z</time>
</trkpt>
<trkpt lat="45.9356540" lon="9.5594520">
	<ele>1592.80</ele>
	<time>2023-10-07T11:43:02.000Z</time>
</trkpt>
<trkpt lat="45.9356410" lon="9.5594680">
	<ele>1592.80</ele>
	<time>2023-10-07T11:43:03.000Z</time>
</trkpt>
<trkpt lat="45.9356290" lon="9.5594830">
	<ele>1592.80</ele>
	<time>2023-10-07T11:43:04.000Z</time>
</trkpt>
<trkpt lat="45.9356170" lon="9.5594990">
	<ele>1592.80</ele>
	<time>2023-10-07T11:43:05.000Z</time>
</trkpt>
<trkpt lat="45.9356070" lon="9.5595150">
	<ele>1592.80</ele>
	<time>2023-10-07T11:43:06.000Z</time>
</trkpt>
<trkpt lat="45.9355990" lon="9.5595300">
	<ele>1592.80</ele>
	<time>2023-10-07T11:43:07.000Z</time>
</trkpt>
<trkpt lat="45.9355860" lon="9.5595440">
	<ele>1592.80</ele>
	<time>2023-10-07T11:43:08.000Z</time>
</trkpt>
<trkpt lat="45.9355730" lon="9.5595570">
	<ele>1592.60</ele>
	<time>2023-10-07T11:43:09.000Z</time>
</trkpt>
<trkpt lat="45.9355610" lon="9.5595770">
	<ele>1592.60</ele>
	<time>2023-10-07T11:43:10.000Z</time>
</trkpt>
<trkpt lat="45.9355550" lon="9.5595850">
	<ele>1592.40</ele>
	<time>2023-10-07T11:43:11.000Z</time>
</trkpt>
<trkpt lat="45.9355460" lon="9.5595970">
	<ele>1592.00</ele>
	<time>2023-10-07T11:43:12.000Z</time>
</trkpt>
<trkpt lat="45.9355350" lon="9.5596100">
	<ele>1592.00</ele>
	<time>2023-10-07T11:43:13.000Z</time>
</trkpt>
<trkpt lat="45.9355230" lon="9.5596190">
	<ele>1591.60</ele>
	<time>2023-10-07T11:43:14.000Z</time>
</trkpt>
<trkpt lat="45.9355160" lon="9.5596300">
	<ele>1591.40</ele>
	<time>2023-10-07T11:43:15.000Z</time>
</trkpt>
<trkpt lat="45.9355080" lon="9.5596450">
	<ele>1591.40</ele>
	<time>2023-10-07T11:43:16.000Z</time>
</trkpt>
<trkpt lat="45.9354990" lon="9.5596590">
	<ele>1591.20</ele>
	<time>2023-10-07T11:43:17.000Z</time>
</trkpt>
<trkpt lat="45.9354930" lon="9.5596700">
	<ele>1591.20</ele>
	<time>2023-10-07T11:43:18.000Z</time>
</trkpt>
<trkpt lat="45.9354880" lon="9.5596800">
	<ele>1591.00</ele>
	<time>2023-10-07T11:43:19.000Z</time>
</trkpt>
<trkpt lat="45.9354820" lon="9.5596890">
	<ele>1591.00</ele>
	<time>2023-10-07T11:43:20.000Z</time>
</trkpt>
<trkpt lat="45.9354780" lon="9.5597000">
	<ele>1591.00</ele>
	<time>2023-10-07T11:43:21.000Z</time>
</trkpt>
<trkpt lat="45.9354730" lon="9.5597110">
	<ele>1590.80</ele>
	<time>2023-10-07T11:43:22.000Z</time>
</trkpt>
<trkpt lat="45.9354670" lon="9.5597250">
	<ele>1590.60</ele>
	<time>2023-10-07T11:43:23.000Z</time>
</trkpt>
<trkpt lat="45.9354620" lon="9.5597440">
	<ele>1590.40</ele>
	<time>2023-10-07T11:43:24.000Z</time>
</trkpt>
<trkpt lat="45.9354600" lon="9.5597550">
	<ele>1590.40</ele>
	<time>2023-10-07T11:43:25.000Z</time>
</trkpt>
<trkpt lat="45.9354580" lon="9.5597690">
	<ele>1590.20</ele>
	<time>2023-10-07T11:43:26.000Z</time>
</trkpt>
<trkpt lat="45.9354580" lon="9.5597770">
	<ele>1589.80</ele>
	<time>2023-10-07T11:43:27.000Z</time>
</trkpt>
<trkpt lat="45.9354610" lon="9.5597860">
	<ele>1589.60</ele>
	<time>2023-10-07T11:43:28.000Z</time>
</trkpt>
<trkpt lat="45.9354640" lon="9.5597970">
	<ele>1589.40</ele>
	<time>2023-10-07T11:43:29.000Z</time>
</trkpt>
<trkpt lat="45.9354670" lon="9.5598100">
	<ele>1589.20</ele>
	<time>2023-10-07T11:43:30.000Z</time>
</trkpt>
<trkpt lat="45.9354700" lon="9.5598170">
	<ele>1589.00</ele>
	<time>2023-10-07T11:43:31.000Z</time>
</trkpt>
<trkpt lat="45.9354750" lon="9.5598250">
	<ele>1588.80</ele>
	<time>2023-10-07T11:43:32.000Z</time>
</trkpt>
<trkpt lat="45.9354800" lon="9.5598320">
	<ele>1588.60</ele>
	<time>2023-10-07T11:43:33.000Z</time>
</trkpt>
<trkpt lat="45.9354870" lon="9.5598470">
	<ele>1588.40</ele>
	<time>2023-10-07T11:43:34.000Z</time>
</trkpt>
<trkpt lat="45.9354910" lon="9.5598620">
	<ele>1588.20</ele>
	<time>2023-10-07T11:43:35.000Z</time>
</trkpt>
<trkpt lat="45.9354920" lon="9.5598690">
	<ele>1588.20</ele>
	<time>2023-10-07T11:43:36.000Z</time>
</trkpt>
<trkpt lat="45.9354950" lon="9.5598780">
	<ele>1587.80</ele>
	<time>2023-10-07T11:43:37.000Z</time>
</trkpt>
<trkpt lat="45.9354990" lon="9.5598910">
	<ele>1587.80</ele>
	<time>2023-10-07T11:43:38.000Z</time>
</trkpt>
<trkpt lat="45.9355030" lon="9.5598980">
	<ele>1587.60</ele>
	<time>2023-10-07T11:43:39.000Z</time>
</trkpt>
<trkpt lat="45.9355080" lon="9.5599140">
	<ele>1587.40</ele>
	<time>2023-10-07T11:43:40.000Z</time>
</trkpt>
<trkpt lat="45.9355070" lon="9.5599260">
	<ele>1587.20</ele>
	<time>2023-10-07T11:43:41.000Z</time>
</trkpt>
<trkpt lat="45.9355020" lon="9.5599390">
	<ele>1587.00</ele>
	<time>2023-10-07T11:43:42.000Z</time>
</trkpt>
<trkpt lat="45.9354950" lon="9.5599540">
	<ele>1586.80</ele>
	<time>2023-10-07T11:43:43.000Z</time>
</trkpt>
<trkpt lat="45.9354880" lon="9.5599650">
	<ele>1586.80</ele>
	<time>2023-10-07T11:43:44.000Z</time>
</trkpt>
<trkpt lat="45.9354790" lon="9.5599830">
	<ele>1586.60</ele>
	<time>2023-10-07T11:43:45.000Z</time>
</trkpt>
<trkpt lat="45.9354710" lon="9.5600040">
	<ele>1586.20</ele>
	<time>2023-10-07T11:43:46.000Z</time>
</trkpt>
<trkpt lat="45.9354570" lon="9.5600230">
	<ele>1586.00</ele>
	<time>2023-10-07T11:43:47.000Z</time>
</trkpt>
<trkpt lat="45.9354490" lon="9.5600360">
	<ele>1586.00</ele>
	<time>2023-10-07T11:43:48.000Z</time>
</trkpt>
<trkpt lat="45.9354340" lon="9.5600500">
	<ele>1585.80</ele>
	<time>2023-10-07T11:43:49.000Z</time>
</trkpt>
<trkpt lat="45.9354200" lon="9.5600670">
	<ele>1585.80</ele>
	<time>2023-10-07T11:43:50.000Z</time>
</trkpt>
<trkpt lat="45.9354110" lon="9.5600810">
	<ele>1585.80</ele>
	<time>2023-10-07T11:43:51.000Z</time>
</trkpt>
<trkpt lat="45.9354000" lon="9.5601050">
	<ele>1585.60</ele>
	<time>2023-10-07T11:43:52.000Z</time>
</trkpt>
<trkpt lat="45.9353920" lon="9.5601240">
	<ele>1585.60</ele>
	<time>2023-10-07T11:43:53.000Z</time>
</trkpt>
<trkpt lat="45.9353890" lon="9.5601370">
	<ele>1585.60</ele>
	<time>2023-10-07T11:43:54.000Z</time>
</trkpt>
<trkpt lat="45.9353860" lon="9.5601440">
	<ele>1585.40</ele>
	<time>2023-10-07T11:43:55.000Z</time>
</trkpt>
<trkpt lat="45.9353860" lon="9.5601610">
	<ele>1585.20</ele>
	<time>2023-10-07T11:43:56.000Z</time>
</trkpt>
<trkpt lat="45.9353890" lon="9.5601730">
	<ele>1585.20</ele>
	<time>2023-10-07T11:43:57.000Z</time>
</trkpt>
<trkpt lat="45.9353900" lon="9.5601860">
	<ele>1585.00</ele>
	<time>2023-10-07T11:43:58.000Z</time>
</trkpt>
<trkpt lat="45.9353890" lon="9.5601980">
	<ele>1585.00</ele>
	<time>2023-10-07T11:43:59.000Z</time>
</trkpt>
<trkpt lat="45.9353900" lon="9.5602100">
	<ele>1584.80</ele>
	<time>2023-10-07T11:44:00.000Z</time>
</trkpt>
<trkpt lat="45.9353930" lon="9.5602230">
	<ele>1584.60</ele>
	<time>2023-10-07T11:44:01.000Z</time>
</trkpt>
<trkpt lat="45.9353970" lon="9.5602390">
	<ele>1584.60</ele>
	<time>2023-10-07T11:44:02.000Z</time>
</trkpt>
<trkpt lat="45.9354040" lon="9.5602570">
	<ele>1584.40</ele>
	<time>2023-10-07T11:44:03.000Z</time>
</trkpt>
<trkpt lat="45.9354100" lon="9.5602750">
	<ele>1584.40</ele>
	<time>2023-10-07T11:44:04.000Z</time>
</trkpt>
<trkpt lat="45.9354160" lon="9.5602890">
	<ele>1584.20</ele>
	<time>2023-10-07T11:44:05.000Z</time>
</trkpt>
<trkpt lat="45.9354210" lon="9.5603070">
	<ele>1584.00</ele>
	<time>2023-10-07T11:44:06.000Z</time>
</trkpt>
<trkpt lat="45.9354250" lon="9.5603280">
	<ele>1583.80</ele>
	<time>2023-10-07T11:44:07.000Z</time>
</trkpt>
<trkpt lat="45.9354260" lon="9.5603460">
	<ele>1583.80</ele>
	<time>2023-10-07T11:44:08.000Z</time>
</trkpt>
<trkpt lat="45.9354280" lon="9.5603730">
	<ele>1583.60</ele>
	<time>2023-10-07T11:44:09.000Z</time>
</trkpt>
<trkpt lat="45.9354340" lon="9.5603870">
	<ele>1583.60</ele>
	<time>2023-10-07T11:44:10.000Z</time>
</trkpt>
<trkpt lat="45.9354450" lon="9.5604010">
	<ele>1583.60</ele>
	<time>2023-10-07T11:44:11.000Z</time>
</trkpt>
<trkpt lat="45.9354560" lon="9.5604150">
	<ele>1583.40</ele>
	<time>2023-10-07T11:44:12.000Z</time>
</trkpt>
<trkpt lat="45.9354660" lon="9.5604290">
	<ele>1583.40</ele>
	<time>2023-10-07T11:44:13.000Z</time>
</trkpt>
<trkpt lat="45.9354750" lon="9.5604430">
	<ele>1583.20</ele>
	<time>2023-10-07T11:44:14.000Z</time>
</trkpt>
<trkpt lat="45.9354790" lon="9.5604540">
	<ele>1583.20</ele>
	<time>2023-10-07T11:44:15.000Z</time>
</trkpt>
<trkpt lat="45.9354860" lon="9.5604670">
	<ele>1583.00</ele>
	<time>2023-10-07T11:44:16.000Z</time>
</trkpt>
<trkpt lat="45.9354930" lon="9.5604760">
	<ele>1583.00</ele>
	<time>2023-10-07T11:44:17.000Z</time>
</trkpt>
<trkpt lat="45.9354970" lon="9.5604850">
	<ele>1582.80</ele>
	<time>2023-10-07T11:44:18.000Z</time>
</trkpt>
<trkpt lat="45.9355040" lon="9.5604980">
	<ele>1582.80</ele>
	<time>2023-10-07T11:44:19.000Z</time>
</trkpt>
<trkpt lat="45.9355140" lon="9.5605110">
	<ele>1582.80</ele>
	<time>2023-10-07T11:44:20.000Z</time>
</trkpt>
<trkpt lat="45.9355170" lon="9.5605220">
	<ele>1582.60</ele>
	<time>2023-10-07T11:44:21.000Z</time>
</trkpt>
<trkpt lat="45.9355180" lon="9.5605450">
	<ele>1582.60</ele>
	<time>2023-10-07T11:44:22.000Z</time>
</trkpt>
<trkpt lat="45.9355210" lon="9.5605590">
	<ele>1582.60</ele>
	<time>2023-10-07T11:44:23.000Z</time>
</trkpt>
<trkpt lat="45.9355230" lon="9.5605860">
	<ele>1582.60</ele>
	<time>2023-10-07T11:44:24.000Z</time>
</trkpt>
<trkpt lat="45.9355240" lon="9.5606050">
	<ele>1582.60</ele>
	<time>2023-10-07T11:44:25.000Z</time>
</trkpt>
<trkpt lat="45.9355230" lon="9.5606290">
	<ele>1582.40</ele>
	<time>2023-10-07T11:44:26.000Z</time>
</trkpt>
<trkpt lat="45.9355160" lon="9.5606490">
	<ele>1582.40</ele>
	<time>2023-10-07T11:44:27.000Z</time>
</trkpt>
<trkpt lat="45.9355040" lon="9.5606670">
	<ele>1582.40</ele>
	<time>2023-10-07T11:44:28.000Z</time>
</trkpt>
<trkpt lat="45.9354910" lon="9.5606820">
	<ele>1582.40</ele>
	<time>2023-10-07T11:44:29.000Z</time>
</trkpt>
<trkpt lat="45.9354790" lon="9.5606890">
	<ele>1582.40</ele>
	<time>2023-10-07T11:44:30.000Z</time>
</trkpt>
<trkpt lat="45.9354680" lon="9.5607000">
	<ele>1582.40</ele>
	<time>2023-10-07T11:44:31.000Z</time>
</trkpt>
<trkpt lat="45.9354510" lon="9.5607120">
	<ele>1582.40</ele>
	<time>2023-10-07T11:44:32.000Z</time>
</trkpt>
<trkpt lat="45.9354400" lon="9.5607200">
	<ele>1582.40</ele>
	<time>2023-10-07T11:44:33.000Z</time>
</trkpt>
<trkpt lat="45.9354310" lon="9.5607260">
	<ele>1581.80</ele>
	<time>2023-10-07T11:44:34.000Z</time>
</trkpt>
<trkpt lat="45.9354240" lon="9.5607310">
	<ele>1581.60</ele>
	<time>2023-10-07T11:44:35.000Z</time>
</trkpt>
<trkpt lat="45.9354150" lon="9.5607350">
	<ele>1581.40</ele>
	<time>2023-10-07T11:44:36.000Z</time>
</trkpt>
<trkpt lat="45.9354050" lon="9.5607390">
	<ele>1581.20</ele>
	<time>2023-10-07T11:44:37.000Z</time>
</trkpt>
<trkpt lat="45.9353990" lon="9.5607400">
	<ele>1581.00</ele>
	<time>2023-10-07T11:44:38.000Z</time>
</trkpt>
<trkpt lat="45.9353920" lon="9.5607410">
	<ele>1580.80</ele>
	<time>2023-10-07T11:44:39.000Z</time>
</trkpt>
<trkpt lat="45.9353840" lon="9.5607410">
	<ele>1580.60</ele>
	<time>2023-10-07T11:44:40.000Z</time>
</trkpt>
<trkpt lat="45.9353720" lon="9.5607390">
	<ele>1580.60</ele>
	<time>2023-10-07T11:44:41.000Z</time>
</trkpt>
<trkpt lat="45.9353610" lon="9.5607380">
	<ele>1580.20</ele>
	<time>2023-10-07T11:44:42.000Z</time>
</trkpt>
<trkpt lat="45.9353490" lon="9.5607330">
	<ele>1580.00</ele>
	<time>2023-10-07T11:44:43.000Z</time>
</trkpt>
<trkpt lat="45.9353390" lon="9.5607280">
	<ele>1579.60</ele>
	<time>2023-10-07T11:44:44.000Z</time>
</trkpt>
<trkpt lat="45.9353280" lon="9.5607260">
	<ele>1579.40</ele>
	<time>2023-10-07T11:44:45.000Z</time>
</trkpt>
<trkpt lat="45.9353170" lon="9.5607250">
	<ele>1579.20</ele>
	<time>2023-10-07T11:44:46.000Z</time>
</trkpt>
<trkpt lat="45.9353060" lon="9.5607210">
	<ele>1579.00</ele>
	<time>2023-10-07T11:44:47.000Z</time>
</trkpt>
<trkpt lat="45.9352950" lon="9.5607170">
	<ele>1578.80</ele>
	<time>2023-10-07T11:44:48.000Z</time>
</trkpt>
<trkpt lat="45.9352850" lon="9.5607170">
	<ele>1578.60</ele>
	<time>2023-10-07T11:44:49.000Z</time>
</trkpt>
<trkpt lat="45.9352780" lon="9.5607190">
	<ele>1578.40</ele>
	<time>2023-10-07T11:44:50.000Z</time>
</trkpt>
<trkpt lat="45.9352710" lon="9.5607210">
	<ele>1578.20</ele>
	<time>2023-10-07T11:44:51.000Z</time>
</trkpt>
<trkpt lat="45.9352630" lon="9.5607200">
	<ele>1578.00</ele>
	<time>2023-10-07T11:44:52.000Z</time>
</trkpt>
<trkpt lat="45.9352550" lon="9.5607180">
	<ele>1577.80</ele>
	<time>2023-10-07T11:44:53.000Z</time>
</trkpt>
<trkpt lat="45.9352440" lon="9.5607220">
	<ele>1577.60</ele>
	<time>2023-10-07T11:44:54.000Z</time>
</trkpt>
<trkpt lat="45.9352320" lon="9.5607230">
	<ele>1577.40</ele>
	<time>2023-10-07T11:44:55.000Z</time>
</trkpt>
<trkpt lat="45.9352170" lon="9.5607280">
	<ele>1577.40</ele>
	<time>2023-10-07T11:44:56.000Z</time>
</trkpt>
<trkpt lat="45.9352050" lon="9.5607280">
	<ele>1577.20</ele>
	<time>2023-10-07T11:44:57.000Z</time>
</trkpt>
<trkpt lat="45.9351940" lon="9.5607280">
	<ele>1577.20</ele>
	<time>2023-10-07T11:44:58.000Z</time>
</trkpt>
<trkpt lat="45.9351820" lon="9.5607330">
	<ele>1577.20</ele>
	<time>2023-10-07T11:44:59.000Z</time>
</trkpt>
<trkpt lat="45.9351750" lon="9.5607370">
	<ele>1577.20</ele>
	<time>2023-10-07T11:45:00.000Z</time>
</trkpt>
<trkpt lat="45.9351650" lon="9.5607460">
	<ele>1577.20</ele>
	<time>2023-10-07T11:45:01.000Z</time>
</trkpt>
<trkpt lat="45.9351550" lon="9.5607500">
	<ele>1577.20</ele>
	<time>2023-10-07T11:45:02.000Z</time>
</trkpt>
<trkpt lat="45.9351450" lon="9.5607490">
	<ele>1577.00</ele>
	<time>2023-10-07T11:45:03.000Z</time>
</trkpt>
<trkpt lat="45.9351340" lon="9.5607510">
	<ele>1576.80</ele>
	<time>2023-10-07T11:45:04.000Z</time>
</trkpt>
<trkpt lat="45.9351230" lon="9.5607580">
	<ele>1576.60</ele>
	<time>2023-10-07T11:45:05.000Z</time>
</trkpt>
<trkpt lat="45.9351140" lon="9.5607650">
	<ele>1576.40</ele>
	<time>2023-10-07T11:45:06.000Z</time>
</trkpt>
<trkpt lat="45.9351030" lon="9.5607700">
	<ele>1576.20</ele>
	<time>2023-10-07T11:45:07.000Z</time>
</trkpt>
<trkpt lat="45.9350990" lon="9.5607740">
	<ele>1576.00</ele>
	<time>2023-10-07T11:45:08.000Z</time>
</trkpt>
<trkpt lat="45.9350980" lon="9.5607750">
	<ele>1575.80</ele>
	<time>2023-10-07T11:45:09.000Z</time>
</trkpt>
<trkpt lat="45.9350930" lon="9.5607800">
	<ele>1575.60</ele>
	<time>2023-10-07T11:45:10.000Z</time>
</trkpt>
<trkpt lat="45.9350870" lon="9.5607850">
	<ele>1575.40</ele>
	<time>2023-10-07T11:45:11.000Z</time>
</trkpt>
<trkpt lat="45.9350820" lon="9.5607860">
	<ele>1575.20</ele>
	<time>2023-10-07T11:45:12.000Z</time>
</trkpt>
<trkpt lat="45.9350780" lon="9.5607960">
	<ele>1575.00</ele>
	<time>2023-10-07T11:45:13.000Z</time>
</trkpt>
<trkpt lat="45.9350700" lon="9.5608090">
	<ele>1575.00</ele>
	<time>2023-10-07T11:45:14.000Z</time>
</trkpt>
<trkpt lat="45.9350620" lon="9.5608220">
	<ele>1574.60</ele>
	<time>2023-10-07T11:45:15.000Z</time>
</trkpt>
<trkpt lat="45.9350570" lon="9.5608390">
	<ele>1574.40</ele>
	<time>2023-10-07T11:45:16.000Z</time>
</trkpt>
<trkpt lat="45.9350550" lon="9.5608510">
	<ele>1574.40</ele>
	<time>2023-10-07T11:45:17.000Z</time>
</trkpt>
<trkpt lat="45.9350470" lon="9.5608700">
	<ele>1574.20</ele>
	<time>2023-10-07T11:45:18.000Z</time>
</trkpt>
<trkpt lat="45.9350360" lon="9.5608860">
	<ele>1574.00</ele>
	<time>2023-10-07T11:45:19.000Z</time>
</trkpt>
<trkpt lat="45.9350240" lon="9.5609000">
	<ele>1574.00</ele>
	<time>2023-10-07T11:45:20.000Z</time>
</trkpt>
<trkpt lat="45.9350180" lon="9.5609170">
	<ele>1574.00</ele>
	<time>2023-10-07T11:45:21.000Z</time>
</trkpt>
<trkpt lat="45.9350120" lon="9.5609320">
	<ele>1573.80</ele>
	<time>2023-10-07T11:45:22.000Z</time>
</trkpt>
<trkpt lat="45.9350060" lon="9.5609440">
	<ele>1573.80</ele>
	<time>2023-10-07T11:45:23.000Z</time>
</trkpt>
<trkpt lat="45.9349970" lon="9.5609550">
	<ele>1573.60</ele>
	<time>2023-10-07T11:45:24.000Z</time>
</trkpt>
<trkpt lat="45.9349900" lon="9.5609680">
	<ele>1573.60</ele>
	<time>2023-10-07T11:45:25.000Z</time>
</trkpt>
<trkpt lat="45.9349830" lon="9.5609810">
	<ele>1573.40</ele>
	<time>2023-10-07T11:45:26.000Z</time>
</trkpt>
<trkpt lat="45.9349750" lon="9.5609930">
	<ele>1573.40</ele>
	<time>2023-10-07T11:45:27.000Z</time>
</trkpt>
<trkpt lat="45.9349710" lon="9.5610060">
	<ele>1573.00</ele>
	<time>2023-10-07T11:45:28.000Z</time>
</trkpt>
<trkpt lat="45.9349680" lon="9.5610220">
	<ele>1572.80</ele>
	<time>2023-10-07T11:45:29.000Z</time>
</trkpt>
<trkpt lat="45.9349610" lon="9.5610380">
	<ele>1572.60</ele>
	<time>2023-10-07T11:45:30.000Z</time>
</trkpt>
<trkpt lat="45.9349550" lon="9.5610550">
	<ele>1572.40</ele>
	<time>2023-10-07T11:45:31.000Z</time>
</trkpt>
<trkpt lat="45.9349490" lon="9.5610680">
	<ele>1572.00</ele>
	<time>2023-10-07T11:45:32.000Z</time>
</trkpt>
<trkpt lat="45.9349430" lon="9.5610830">
	<ele>1572.00</ele>
	<time>2023-10-07T11:45:33.000Z</time>
</trkpt>
<trkpt lat="45.9349380" lon="9.5610970">
	<ele>1571.80</ele>
	<time>2023-10-07T11:45:34.000Z</time>
</trkpt>
<trkpt lat="45.9349310" lon="9.5611100">
	<ele>1571.80</ele>
	<time>2023-10-07T11:45:35.000Z</time>
</trkpt>
<trkpt lat="45.9349230" lon="9.5611210">
	<ele>1571.80</ele>
	<time>2023-10-07T11:45:36.000Z</time>
</trkpt>
<trkpt lat="45.9349190" lon="9.5611340">
	<ele>1571.80</ele>
	<time>2023-10-07T11:45:37.000Z</time>
</trkpt>
<trkpt lat="45.9349170" lon="9.5611490">
	<ele>1571.80</ele>
	<time>2023-10-07T11:45:38.000Z</time>
</trkpt>
<trkpt lat="45.9349140" lon="9.5611670">
	<ele>1571.80</ele>
	<time>2023-10-07T11:45:39.000Z</time>
</trkpt>
<trkpt lat="45.9349110" lon="9.5611810">
	<ele>1572.00</ele>
	<time>2023-10-07T11:45:40.000Z</time>
</trkpt>
<trkpt lat="45.9349090" lon="9.5611910">
	<ele>1572.20</ele>
	<time>2023-10-07T11:45:41.000Z</time>
</trkpt>
<trkpt lat="45.9349020" lon="9.5612060">
	<ele>1572.40</ele>
	<time>2023-10-07T11:45:42.000Z</time>
</trkpt>
<trkpt lat="45.9348910" lon="9.5612170">
	<ele>1572.40</ele>
	<time>2023-10-07T11:45:43.000Z</time>
</trkpt>
<trkpt lat="45.9348810" lon="9.5612300">
	<ele>1572.40</ele>
	<time>2023-10-07T11:45:44.000Z</time>
</trkpt>
<trkpt lat="45.9348700" lon="9.5612400">
	<ele>1572.40</ele>
	<time>2023-10-07T11:45:45.000Z</time>
</trkpt>
<trkpt lat="45.9348570" lon="9.5612470">
	<ele>1572.40</ele>
	<time>2023-10-07T11:45:46.000Z</time>
</trkpt>
<trkpt lat="45.9348450" lon="9.5612540">
	<ele>1572.40</ele>
	<time>2023-10-07T11:45:47.000Z</time>
</trkpt>
<trkpt lat="45.9348340" lon="9.5612580">
	<ele>1572.40</ele>
	<time>2023-10-07T11:45:48.000Z</time>
</trkpt>
<trkpt lat="45.9348250" lon="9.5612610">
	<ele>1572.40</ele>
	<time>2023-10-07T11:45:49.000Z</time>
</trkpt>
<trkpt lat="45.9348130" lon="9.5612680">
	<ele>1572.40</ele>
	<time>2023-10-07T11:45:50.000Z</time>
</trkpt>
<trkpt lat="45.9348020" lon="9.5612780">
	<ele>1572.40</ele>
	<time>2023-10-07T11:45:51.000Z</time>
</trkpt>
<trkpt lat="45.9347890" lon="9.5612820">
	<ele>1572.40</ele>
	<time>2023-10-07T11:45:52.000Z</time>
</trkpt>
<trkpt lat="45.9347790" lon="9.5612850">
	<ele>1572.20</ele>
	<time>2023-10-07T11:45:53.000Z</time>
</trkpt>
<trkpt lat="45.9347700" lon="9.5612850">
	<ele>1571.80</ele>
	<time>2023-10-07T11:45:54.000Z</time>
</trkpt>
<trkpt lat="45.9347620" lon="9.5612830">
	<ele>1571.60</ele>
	<time>2023-10-07T11:45:55.000Z</time>
</trkpt>
<trkpt lat="45.9347520" lon="9.5612840">
	<ele>1571.40</ele>
	<time>2023-10-07T11:45:56.000Z</time>
</trkpt>
<trkpt lat="45.9347450" lon="9.5612890">
	<ele>1571.40</ele>
	<time>2023-10-07T11:45:57.000Z</time>
</trkpt>
<trkpt lat="45.9347410" lon="9.5612930">
	<ele>1571.20</ele>
	<time>2023-10-07T11:45:58.000Z</time>
</trkpt>
<trkpt lat="45.9347380" lon="9.5612930">
	<ele>1570.80</ele>
	<time>2023-10-07T11:45:59.000Z</time>
</trkpt>
<trkpt lat="45.9347300" lon="9.5613000">
	<ele>1570.60</ele>
	<time>2023-10-07T11:46:00.000Z</time>
</trkpt>
<trkpt lat="45.9347210" lon="9.5613040">
	<ele>1570.60</ele>
	<time>2023-10-07T11:46:01.000Z</time>
</trkpt>
<trkpt lat="45.9347130" lon="9.5613060">
	<ele>1570.20</ele>
	<time>2023-10-07T11:46:02.000Z</time>
</trkpt>
<trkpt lat="45.9347010" lon="9.5613080">
	<ele>1570.00</ele>
	<time>2023-10-07T11:46:03.000Z</time>
</trkpt>
<trkpt lat="45.9346910" lon="9.5613070">
	<ele>1569.80</ele>
	<time>2023-10-07T11:46:04.000Z</time>
</trkpt>
<trkpt lat="45.9346810" lon="9.5613010">
	<ele>1569.60</ele>
	<time>2023-10-07T11:46:05.000Z</time>
</trkpt>
<trkpt lat="45.9346680" lon="9.5612890">
	<ele>1569.40</ele>
	<time>2023-10-07T11:46:06.000Z</time>
</trkpt>
<trkpt lat="45.9346550" lon="9.5612750">
	<ele>1569.40</ele>
	<time>2023-10-07T11:46:07.000Z</time>
</trkpt>
<trkpt lat="45.9346430" lon="9.5612670">
	<ele>1569.20</ele>
	<time>2023-10-07T11:46:08.000Z</time>
</trkpt>
<trkpt lat="45.9346310" lon="9.5612530">
	<ele>1569.20</ele>
	<time>2023-10-07T11:46:09.000Z</time>
</trkpt>
<trkpt lat="45.9346260" lon="9.5612440">
	<ele>1569.00</ele>
	<time>2023-10-07T11:46:10.000Z</time>
</trkpt>
<trkpt lat="45.9346230" lon="9.5612370">
	<ele>1569.00</ele>
	<time>2023-10-07T11:46:11.000Z</time>
</trkpt>
<trkpt lat="45.9346160" lon="9.5612300">
	<ele>1568.80</ele>
	<time>2023-10-07T11:46:12.000Z</time>
</trkpt>
<trkpt lat="45.9346090" lon="9.5612250">
	<ele>1568.60</ele>
	<time>2023-10-07T11:46:13.000Z</time>
</trkpt>
<trkpt lat="45.9346010" lon="9.5612240">
	<ele>1568.40</ele>
	<time>2023-10-07T11:46:14.000Z</time>
</trkpt>
<trkpt lat="45.9345910" lon="9.5612270">
	<ele>1568.20</ele>
	<time>2023-10-07T11:46:15.000Z</time>
</trkpt>
<trkpt lat="45.9345800" lon="9.5612270">
	<ele>1568.00</ele>
	<time>2023-10-07T11:46:16.000Z</time>
</trkpt>
<trkpt lat="45.9345670" lon="9.5612150">
	<ele>1568.00</ele>
	<time>2023-10-07T11:46:17.000Z</time>
</trkpt>
<trkpt lat="45.9345570" lon="9.5612070">
	<ele>1567.80</ele>
	<time>2023-10-07T11:46:18.000Z</time>
</trkpt>
<trkpt lat="45.9345440" lon="9.5612010">
	<ele>1567.60</ele>
	<time>2023-10-07T11:46:19.000Z</time>
</trkpt>
<trkpt lat="45.9345310" lon="9.5611980">
	<ele>1567.40</ele>
	<time>2023-10-07T11:46:20.000Z</time>
</trkpt>
<trkpt lat="45.9345190" lon="9.5612020">
	<ele>1567.20</ele>
	<time>2023-10-07T11:46:21.000Z</time>
</trkpt>
<trkpt lat="45.9345020" lon="9.5611920">
	<ele>1566.80</ele>
	<time>2023-10-07T11:46:22.000Z</time>
</trkpt>
<trkpt lat="45.9344900" lon="9.5611850">
	<ele>1566.80</ele>
	<time>2023-10-07T11:46:23.000Z</time>
</trkpt>
<trkpt lat="45.9344810" lon="9.5611800">
	<ele>1566.60</ele>
	<time>2023-10-07T11:46:24.000Z</time>
</trkpt>
<trkpt lat="45.9344720" lon="9.5611760">
	<ele>1566.40</ele>
	<time>2023-10-07T11:46:25.000Z</time>
</trkpt>
<trkpt lat="45.9344620" lon="9.5611760">
	<ele>1566.40</ele>
	<time>2023-10-07T11:46:26.000Z</time>
</trkpt>
<trkpt lat="45.9344510" lon="9.5611790">
	<ele>1566.20</ele>
	<time>2023-10-07T11:46:27.000Z</time>
</trkpt>
<trkpt lat="45.9344420" lon="9.5611830">
	<ele>1565.80</ele>
	<time>2023-10-07T11:46:28.000Z</time>
</trkpt>
<trkpt lat="45.9344340" lon="9.5611880">
	<ele>1565.80</ele>
	<time>2023-10-07T11:46:29.000Z</time>
</trkpt>
<trkpt lat="45.9344270" lon="9.5611930">
	<ele>1565.60</ele>
	<time>2023-10-07T11:46:30.000Z</time>
</trkpt>
<trkpt lat="45.9344210" lon="9.5611980">
	<ele>1565.40</ele>
	<time>2023-10-07T11:46:31.000Z</time>
</trkpt>
<trkpt lat="45.9344140" lon="9.5611990">
	<ele>1565.20</ele>
	<time>2023-10-07T11:46:32.000Z</time>
</trkpt>
<trkpt lat="45.9344060" lon="9.5612000">
	<ele>1565.00</ele>
	<time>2023-10-07T11:46:33.000Z</time>
</trkpt>
<trkpt lat="45.9343950" lon="9.5612020">
	<ele>1564.80</ele>
	<time>2023-10-07T11:46:34.000Z</time>
</trkpt>
<trkpt lat="45.9343840" lon="9.5611990">
	<ele>1564.80</ele>
	<time>2023-10-07T11:46:35.000Z</time>
</trkpt>
<trkpt lat="45.9343720" lon="9.5611950">
	<ele>1564.60</ele>
	<time>2023-10-07T11:46:36.000Z</time>
</trkpt>
<trkpt lat="45.9343600" lon="9.5611920">
	<ele>1564.40</ele>
	<time>2023-10-07T11:46:37.000Z</time>
</trkpt>
<trkpt lat="45.9343480" lon="9.5611900">
	<ele>1564.20</ele>
	<time>2023-10-07T11:46:38.000Z</time>
</trkpt>
<trkpt lat="45.9343370" lon="9.5611850">
	<ele>1564.00</ele>
	<time>2023-10-07T11:46:39.000Z</time>
</trkpt>
<trkpt lat="45.9343270" lon="9.5611850">
	<ele>1563.80</ele>
	<time>2023-10-07T11:46:40.000Z</time>
</trkpt>
<trkpt lat="45.9343170" lon="9.5611820">
	<ele>1563.60</ele>
	<time>2023-10-07T11:46:41.000Z</time>
</trkpt>
<trkpt lat="45.9343110" lon="9.5611820">
	<ele>1563.20</ele>
	<time>2023-10-07T11:46:42.000Z</time>
</trkpt>
<trkpt lat="45.9343020" lon="9.5611850">
	<ele>1563.20</ele>
	<time>2023-10-07T11:46:43.000Z</time>
</trkpt>
<trkpt lat="45.9342930" lon="9.5611890">
	<ele>1563.00</ele>
	<time>2023-10-07T11:46:44.000Z</time>
</trkpt>
<trkpt lat="45.9342850" lon="9.5611940">
	<ele>1562.80</ele>
	<time>2023-10-07T11:46:45.000Z</time>
</trkpt>
<trkpt lat="45.9342760" lon="9.5611950">
	<ele>1562.20</ele>
	<time>2023-10-07T11:46:46.000Z</time>
</trkpt>
<trkpt lat="45.9342700" lon="9.5611990">
	<ele>1562.00</ele>
	<time>2023-10-07T11:46:47.000Z</time>
</trkpt>
<trkpt lat="45.9342630" lon="9.5612000">
	<ele>1561.80</ele>
	<time>2023-10-07T11:46:48.000Z</time>
</trkpt>
<trkpt lat="45.9342560" lon="9.5612010">
	<ele>1561.60</ele>
	<time>2023-10-07T11:46:49.000Z</time>
</trkpt>
<trkpt lat="45.9342480" lon="9.5612020">
	<ele>1561.60</ele>
	<time>2023-10-07T11:46:50.000Z</time>
</trkpt>
<trkpt lat="45.9342410" lon="9.5612020">
	<ele>1561.40</ele>
	<time>2023-10-07T11:46:51.000Z</time>
</trkpt>
<trkpt lat="45.9342330" lon="9.5611990">
	<ele>1561.20</ele>
	<time>2023-10-07T11:46:52.000Z</time>
</trkpt>
<trkpt lat="45.9342240" lon="9.5611950">
	<ele>1561.00</ele>
	<time>2023-10-07T11:46:53.000Z</time>
</trkpt>
<trkpt lat="45.9342130" lon="9.5611910">
	<ele>1561.00</ele>
	<time>2023-10-07T11:46:54.000Z</time>
</trkpt>
<trkpt lat="45.9342040" lon="9.5611830">
	<ele>1560.80</ele>
	<time>2023-10-07T11:46:55.000Z</time>
</trkpt>
<trkpt lat="45.9341960" lon="9.5611790">
	<ele>1560.60</ele>
	<time>2023-10-07T11:46:56.000Z</time>
</trkpt>
<trkpt lat="45.9341870" lon="9.5611750">
	<ele>1560.60</ele>
	<time>2023-10-07T11:46:57.000Z</time>
</trkpt>
<trkpt lat="45.9341790" lon="9.5611650">
	<ele>1560.40</ele>
	<time>2023-10-07T11:46:58.000Z</time>
</trkpt>
<trkpt lat="45.9341710" lon="9.5611530">
	<ele>1560.40</ele>
	<time>2023-10-07T11:46:59.000Z</time>
</trkpt>
<trkpt lat="45.9341670" lon="9.5611440">
	<ele>1560.20</ele>
	<time>2023-10-07T11:47:00.000Z</time>
</trkpt>
<trkpt lat="45.9341590" lon="9.5611330">
	<ele>1560.20</ele>
	<time>2023-10-07T11:47:01.000Z</time>
</trkpt>
<trkpt lat="45.9341500" lon="9.5611200">
	<ele>1560.00</ele>
	<time>2023-10-07T11:47:02.000Z</time>
</trkpt>
<trkpt lat="45.9341400" lon="9.5611040">
	<ele>1560.00</ele>
	<time>2023-10-07T11:47:03.000Z</time>
</trkpt>
<trkpt lat="45.9341290" lon="9.5610880">
	<ele>1560.00</ele>
	<time>2023-10-07T11:47:04.000Z</time>
</trkpt>
<trkpt lat="45.9341180" lon="9.5610760">
	<ele>1560.00</ele>
	<time>2023-10-07T11:47:05.000Z</time>
</trkpt>
<trkpt lat="45.9341090" lon="9.5610640">
	<ele>1560.00</ele>
	<time>2023-10-07T11:47:06.000Z</time>
</trkpt>
<trkpt lat="45.9341020" lon="9.5610580">
	<ele>1559.80</ele>
	<time>2023-10-07T11:47:07.000Z</time>
</trkpt>
<trkpt lat="45.9340950" lon="9.5610500">
	<ele>1559.60</ele>
	<time>2023-10-07T11:47:08.000Z</time>
</trkpt>
<trkpt lat="45.9340900" lon="9.5610400">
	<ele>1559.40</ele>
	<time>2023-10-07T11:47:09.000Z</time>
</trkpt>
<trkpt lat="45.9340850" lon="9.5610290">
	<ele>1559.20</ele>
	<time>2023-10-07T11:47:10.000Z</time>
</trkpt>
<trkpt lat="45.9340790" lon="9.5610170">
	<ele>1559.00</ele>
	<time>2023-10-07T11:47:11.000Z</time>
</trkpt>
<trkpt lat="45.9340750" lon="9.5610070">
	<ele>1559.00</ele>
	<time>2023-10-07T11:47:12.000Z</time>
</trkpt>
<trkpt lat="45.9340680" lon="9.5609950">
	<ele>1558.80</ele>
	<time>2023-10-07T11:47:13.000Z</time>
</trkpt>
<trkpt lat="45.9340580" lon="9.5609800">
	<ele>1558.60</ele>
	<time>2023-10-07T11:47:14.000Z</time>
</trkpt>
<trkpt lat="45.9340510" lon="9.5609680">
	<ele>1558.40</ele>
	<time>2023-10-07T11:47:15.000Z</time>
</trkpt>
<trkpt lat="45.9340430" lon="9.5609530">
	<ele>1558.40</ele>
	<time>2023-10-07T11:47:16.000Z</time>
</trkpt>
<trkpt lat="45.9340400" lon="9.5609340">
	<ele>1558.20</ele>
	<time>2023-10-07T11:47:17.000Z</time>
</trkpt>
<trkpt lat="45.9340360" lon="9.5609110">
	<ele>1558.20</ele>
	<time>2023-10-07T11:47:18.000Z</time>
</trkpt>
<trkpt lat="45.9340320" lon="9.5608900">
	<ele>1558.20</ele>
	<time>2023-10-07T11:47:19.000Z</time>
</trkpt>
<trkpt lat="45.9340310" lon="9.5608660">
	<ele>1558.20</ele>
	<time>2023-10-07T11:47:20.000Z</time>
</trkpt>
<trkpt lat="45.9340300" lon="9.5608510">
	<ele>1558.20</ele>
	<time>2023-10-07T11:47:21.000Z</time>
</trkpt>
<trkpt lat="45.9340270" lon="9.5608370">
	<ele>1558.20</ele>
	<time>2023-10-07T11:47:22.000Z</time>
</trkpt>
<trkpt lat="45.9340220" lon="9.5608180">
	<ele>1558.20</ele>
	<time>2023-10-07T11:47:23.000Z</time>
</trkpt>
<trkpt lat="45.9340200" lon="9.5608060">
	<ele>1558.20</ele>
	<time>2023-10-07T11:47:24.000Z</time>
</trkpt>
<trkpt lat="45.9340180" lon="9.5607960">
	<ele>1558.20</ele>
	<time>2023-10-07T11:47:25.000Z</time>
</trkpt>
<trkpt lat="45.9340160" lon="9.5607860">
	<ele>1558.20</ele>
	<time>2023-10-07T11:47:26.000Z</time>
</trkpt>
<trkpt lat="45.9340130" lon="9.5607770">
	<ele>1558.20</ele>
	<time>2023-10-07T11:47:27.000Z</time>
</trkpt>
<trkpt lat="45.9340120" lon="9.5607650">
	<ele>1558.00</ele>
	<time>2023-10-07T11:47:28.000Z</time>
</trkpt>
<trkpt lat="45.9340060" lon="9.5607490">
	<ele>1557.80</ele>
	<time>2023-10-07T11:47:29.000Z</time>
</trkpt>
<trkpt lat="45.9340000" lon="9.5607310">
	<ele>1557.40</ele>
	<time>2023-10-07T11:47:30.000Z</time>
</trkpt>
<trkpt lat="45.9339940" lon="9.5607210">
	<ele>1557.20</ele>
	<time>2023-10-07T11:47:31.000Z</time>
</trkpt>
<trkpt lat="45.9339870" lon="9.5607090">
	<ele>1556.80</ele>
	<time>2023-10-07T11:47:32.000Z</time>
</trkpt>
<trkpt lat="45.9339800" lon="9.5607000">
	<ele>1556.60</ele>
	<time>2023-10-07T11:47:33.000Z</time>
</trkpt>
<trkpt lat="45.9339750" lon="9.5606880">
	<ele>1556.40</ele>
	<time>2023-10-07T11:47:34.000Z</time>
</trkpt>
<trkpt lat="45.9339640" lon="9.5606780">
	<ele>1556.20</ele>
	<time>2023-10-07T11:47:35.000Z</time>
</trkpt>
<trkpt lat="45.9339550" lon="9.5606720">
	<ele>1556.00</ele>
	<time>2023-10-07T11:47:36.000Z</time>
</trkpt>
<trkpt lat="45.9339440" lon="9.5606570">
	<ele>1556.00</ele>
	<time>2023-10-07T11:47:37.000Z</time>
</trkpt>
<trkpt lat="45.9339350" lon="9.5606440">
	<ele>1555.80</ele>
	<time>2023-10-07T11:47:38.000Z</time>
</trkpt>
<trkpt lat="45.9339250" lon="9.5606270">
	<ele>1555.80</ele>
	<time>2023-10-07T11:47:39.000Z</time>
</trkpt>
<trkpt lat="45.9339170" lon="9.5606200">
	<ele>1555.80</ele>
	<time>2023-10-07T11:47:40.000Z</time>
</trkpt>
<trkpt lat="45.9339060" lon="9.5606140">
	<ele>1555.80</ele>
	<time>2023-10-07T11:47:41.000Z</time>
</trkpt>
<trkpt lat="45.9338930" lon="9.5606090">
	<ele>1555.60</ele>
	<time>2023-10-07T11:47:42.000Z</time>
</trkpt>
<trkpt lat="45.9338820" lon="9.5606050">
	<ele>1555.20</ele>
	<time>2023-10-07T11:47:43.000Z</time>
</trkpt>
<trkpt lat="45.9338760" lon="9.5606050">
	<ele>1554.80</ele>
	<time>2023-10-07T11:47:44.000Z</time>
</trkpt>
<trkpt lat="45.9338680" lon="9.5606010">
	<ele>1554.40</ele>
	<time>2023-10-07T11:47:45.000Z</time>
</trkpt>
<trkpt lat="45.9338610" lon="9.5605970">
	<ele>1554.40</ele>
	<time>2023-10-07T11:47:46.000Z</time>
</trkpt>
<trkpt lat="45.9338520" lon="9.5605970">
	<ele>1554.20</ele>
	<time>2023-10-07T11:47:47.000Z</time>
</trkpt>
<trkpt lat="45.9338430" lon="9.5605960">
	<ele>1554.00</ele>
	<time>2023-10-07T11:47:48.000Z</time>
</trkpt>
<trkpt lat="45.9338330" lon="9.5605940">
	<ele>1554.00</ele>
	<time>2023-10-07T11:47:49.000Z</time>
</trkpt>
<trkpt lat="45.9338200" lon="9.5605920">
	<ele>1554.00</ele>
	<time>2023-10-07T11:47:50.000Z</time>
</trkpt>
<trkpt lat="45.9338080" lon="9.5605950">
	<ele>1554.00</ele>
	<time>2023-10-07T11:47:51.000Z</time>
</trkpt>
<trkpt lat="45.9337970" lon="9.5605980">
	<ele>1554.00</ele>
	<time>2023-10-07T11:47:52.000Z</time>
</trkpt>
<trkpt lat="45.9337850" lon="9.5605960">
	<ele>1554.00</ele>
	<time>2023-10-07T11:47:53.000Z</time>
</trkpt>
<trkpt lat="45.9337740" lon="9.5605980">
	<ele>1553.80</ele>
	<time>2023-10-07T11:47:54.000Z</time>
</trkpt>
<trkpt lat="45.9337630" lon="9.5605960">
	<ele>1553.60</ele>
	<time>2023-10-07T11:47:55.000Z</time>
</trkpt>
<trkpt lat="45.9337540" lon="9.5605940">
	<ele>1553.60</ele>
	<time>2023-10-07T11:47:56.000Z</time>
</trkpt>
<trkpt lat="45.9337450" lon="9.5605950">
	<ele>1553.60</ele>
	<time>2023-10-07T11:47:57.000Z</time>
</trkpt>
<trkpt lat="45.9337370" lon="9.5605950">
	<ele>1553.40</ele>
	<time>2023-10-07T11:47:58.000Z</time>
</trkpt>
<trkpt lat="45.9337270" lon="9.5605970">
	<ele>1553.00</ele>
	<time>2023-10-07T11:47:59.000Z</time>
</trkpt>
<trkpt lat="45.9337180" lon="9.5605970">
	<ele>1552.80</ele>
	<time>2023-10-07T11:48:00.000Z</time>
</trkpt>
<trkpt lat="45.9337100" lon="9.5606000">
	<ele>1552.80</ele>
	<time>2023-10-07T11:48:01.000Z</time>
</trkpt>
<trkpt lat="45.9337050" lon="9.5606010">
	<ele>1552.60</ele>
	<time>2023-10-07T11:48:02.000Z</time>
</trkpt>
<trkpt lat="45.9337030" lon="9.5606020">
	<ele>1552.60</ele>
	<time>2023-10-07T11:48:03.000Z</time>
</trkpt>
<trkpt lat="45.9337010" lon="9.5606010">
	<ele>1552.60</ele>
	<time>2023-10-07T11:48:04.000Z</time>
</trkpt>
<trkpt lat="45.9337010" lon="9.5606010">
	<ele>1552.60</ele>
	<time>2023-10-07T11:48:05.000Z</time>
</trkpt>
<trkpt lat="45.9337020" lon="9.5606000">
	<ele>1552.60</ele>
	<time>2023-10-07T11:48:06.000Z</time>
</trkpt>
<trkpt lat="45.9337020" lon="9.5605990">
	<ele>1552.60</ele>
	<time>2023-10-07T11:48:07.000Z</time>
</trkpt>
<trkpt lat="45.9337020" lon="9.5605990">
	<ele>1552.60</ele>
	<time>2023-10-07T11:48:08.000Z</time>
</trkpt>
<trkpt lat="45.9337030" lon="9.5605990">
	<ele>1552.60</ele>
	<time>2023-10-07T11:48:09.000Z</time>
</trkpt>
<trkpt lat="45.9337020" lon="9.5606000">
	<ele>1552.60</ele>
	<time>2023-10-07T11:48:10.000Z</time>
</trkpt>
<trkpt lat="45.9337020" lon="9.5605990">
	<ele>1552.60</ele>
	<time>2023-10-07T11:48:11.000Z</time>
</trkpt>
<trkpt lat="45.9337000" lon="9.5605960">
	<ele>1552.60</ele>
	<time>2023-10-07T11:48:12.000Z</time>
</trkpt>
<trkpt lat="45.9337000" lon="9.5605950">
	<ele>1552.40</ele>
	<time>2023-10-07T11:48:13.000Z</time>
</trkpt>
<trkpt lat="45.9337020" lon="9.5605920">
	<ele>1552.40</ele>
	<time>2023-10-07T11:48:14.000Z</time>
</trkpt>
<trkpt lat="45.9337030" lon="9.5605910">
	<ele>1552.40</ele>
	<time>2023-10-07T11:48:15.000Z</time>
</trkpt>
<trkpt lat="45.9337040" lon="9.5605890">
	<ele>1552.40</ele>
	<time>2023-10-07T11:48:16.000Z</time>
</trkpt>
<trkpt lat="45.9337040" lon="9.5605900">
	<ele>1552.40</ele>
	<time>2023-10-07T11:48:17.000Z</time>
</trkpt>
<trkpt lat="45.9337040" lon="9.5605900">
	<ele>1552.40</ele>
	<time>2023-10-07T11:48:18.000Z</time>
</trkpt>
<trkpt lat="45.9337040" lon="9.5605900">
	<ele>1552.40</ele>
	<time>2023-10-07T11:48:19.000Z</time>
</trkpt>
<trkpt lat="45.9337040" lon="9.5605900">
	<ele>1552.40</ele>
	<time>2023-10-07T11:48:20.000Z</time>
</trkpt>
<trkpt lat="45.9337040" lon="9.5605900">
	<ele>1552.40</ele>
	<time>2023-10-07T11:48:21.000Z</time>
</trkpt>
<trkpt lat="45.9337040" lon="9.5605900">
	<ele>1552.40</ele>
	<time>2023-10-07T11:48:22.000Z</time>
</trkpt>
<trkpt lat="45.9337040" lon="9.5605900">
	<ele>1552.40</ele>
	<time>2023-10-07T11:48:23.000Z</time>
</trkpt>
<trkpt lat="45.9337040" lon="9.5605900">
	<ele>1552.40</ele>
	<time>2023-10-07T11:48:24.000Z</time>
</trkpt>
<trkpt lat="45.9337040" lon="9.5605900">
	<ele>1552.40</ele>
	<time>2023-10-07T11:48:25.000Z</time>
</trkpt>
<trkpt lat="45.9337040" lon="9.5605900">
	<ele>1552.40</ele>
	<time>2023-10-07T11:48:26.000Z</time>
</trkpt>
<trkpt lat="45.9337040" lon="9.5605900">
	<ele>1552.40</ele>
	<time>2023-10-07T11:48:27.000Z</time>
</trkpt>
<trkpt lat="45.9337040" lon="9.5605900">
	<ele>1552.40</ele>
	<time>2023-10-07T11:48:28.000Z</time>
</trkpt>
<trkpt lat="45.9337030" lon="9.5605900">
	<ele>1552.40</ele>
	<time>2023-10-07T11:48:29.000Z</time>
</trkpt>
<trkpt lat="45.9337030" lon="9.5605900">
	<ele>1552.40</ele>
	<time>2023-10-07T11:48:30.000Z</time>
</trkpt>
<trkpt lat="45.9337030" lon="9.5605900">
	<ele>1552.40</ele>
	<time>2023-10-07T11:48:31.000Z</time>
</trkpt>
<trkpt lat="45.9337030" lon="9.5605900">
	<ele>1552.20</ele>
	<time>2023-10-07T11:48:32.000Z</time>
</trkpt>
<trkpt lat="45.9337030" lon="9.5605900">
	<ele>1552.20</ele>
	<time>2023-10-07T11:48:33.000Z</time>
</trkpt>
<trkpt lat="45.9337030" lon="9.5605900">
	<ele>1552.20</ele>
	<time>2023-10-07T11:48:34.000Z</time>
</trkpt>
<trkpt lat="45.9337020" lon="9.5605900">
	<ele>1552.20</ele>
	<time>2023-10-07T11:48:35.000Z</time>
</trkpt>
<trkpt lat="45.9337020" lon="9.5605890">
	<ele>1552.00</ele>
	<time>2023-10-07T11:48:36.000Z</time>
</trkpt>
<trkpt lat="45.9337020" lon="9.5605890">
	<ele>1552.00</ele>
	<time>2023-10-07T11:48:37.000Z</time>
</trkpt>
<trkpt lat="45.9337020" lon="9.5605890">
	<ele>1551.80</ele>
	<time>2023-10-07T11:48:38.000Z</time>
</trkpt>
<trkpt lat="45.9337020" lon="9.5605890">
	<ele>1551.60</ele>
	<time>2023-10-07T11:48:39.000Z</time>
</trkpt>
<trkpt lat="45.9337020" lon="9.5605890">
	<ele>1551.40</ele>
	<time>2023-10-07T11:48:40.000Z</time>
</trkpt>
<trkpt lat="45.9336970" lon="9.5605880">
	<ele>1551.40</ele>
	<time>2023-10-07T11:48:41.000Z</time>
</trkpt>
<trkpt lat="45.9336830" lon="9.5605870">
	<ele>1551.40</ele>
	<time>2023-10-07T11:48:42.000Z</time>
</trkpt>
<trkpt lat="45.9336690" lon="9.5605820">
	<ele>1551.20</ele>
	<time>2023-10-07T11:48:43.000Z</time>
</trkpt>
<trkpt lat="45.9336530" lon="9.5605730">
	<ele>1551.00</ele>
	<time>2023-10-07T11:48:44.000Z</time>
</trkpt>
<trkpt lat="45.9336340" lon="9.5605640">
	<ele>1550.80</ele>
	<time>2023-10-07T11:48:45.000Z</time>
</trkpt>
<trkpt lat="45.9336160" lon="9.5605590">
	<ele>1550.60</ele>
	<time>2023-10-07T11:48:46.000Z</time>
</trkpt>
<trkpt lat="45.9335980" lon="9.5605510">
	<ele>1550.40</ele>
	<time>2023-10-07T11:48:47.000Z</time>
</trkpt>
<trkpt lat="45.9335840" lon="9.5605420">
	<ele>1550.20</ele>
	<time>2023-10-07T11:48:48.000Z</time>
</trkpt>
<trkpt lat="45.9335680" lon="9.5605330">
	<ele>1550.00</ele>
	<time>2023-10-07T11:48:49.000Z</time>
</trkpt>
<trkpt lat="45.9335520" lon="9.5605230">
	<ele>1550.00</ele>
	<time>2023-10-07T11:48:50.000Z</time>
</trkpt>
<trkpt lat="45.9335430" lon="9.5605180">
	<ele>1549.60</ele>
	<time>2023-10-07T11:48:51.000Z</time>
</trkpt>
<trkpt lat="45.9335330" lon="9.5605170">
	<ele>1549.40</ele>
	<time>2023-10-07T11:48:52.000Z</time>
</trkpt>
<trkpt lat="45.9335250" lon="9.5605160">
	<ele>1549.20</ele>
	<time>2023-10-07T11:48:53.000Z</time>
</trkpt>
<trkpt lat="45.9335230" lon="9.5605100">
	<ele>1549.20</ele>
	<time>2023-10-07T11:48:54.000Z</time>
</trkpt>
<trkpt lat="45.9335230" lon="9.5605070">
	<ele>1549.20</ele>
	<time>2023-10-07T11:48:55.000Z</time>
</trkpt>
<trkpt lat="45.9335230" lon="9.5605050">
	<ele>1549.20</ele>
	<time>2023-10-07T11:48:56.000Z</time>
</trkpt>
<trkpt lat="45.9335230" lon="9.5605040">
	<ele>1549.20</ele>
	<time>2023-10-07T11:48:57.000Z</time>
</trkpt>
<trkpt lat="45.9335230" lon="9.5605030">
	<ele>1549.20</ele>
	<time>2023-10-07T11:48:58.000Z</time>
</trkpt>
<trkpt lat="45.9335230" lon="9.5604990">
	<ele>1549.20</ele>
	<time>2023-10-07T11:48:59.000Z</time>
</trkpt>
<trkpt lat="45.9335230" lon="9.5604990">
	<ele>1549.20</ele>
	<time>2023-10-07T11:49:00.000Z</time>
</trkpt>
<trkpt lat="45.9335230" lon="9.5604990">
	<ele>1549.20</ele>
	<time>2023-10-07T11:49:01.000Z</time>
</trkpt>
<trkpt lat="45.9335270" lon="9.5604910">
	<ele>1549.20</ele>
	<time>2023-10-07T11:49:02.000Z</time>
</trkpt>
<trkpt lat="45.9335320" lon="9.5604890">
	<ele>1549.20</ele>
	<time>2023-10-07T11:49:03.000Z</time>
</trkpt>
<trkpt lat="45.9335330" lon="9.5604860">
	<ele>1549.00</ele>
	<time>2023-10-07T11:49:04.000Z</time>
</trkpt>
<trkpt lat="45.9335300" lon="9.5604840">
	<ele>1548.60</ele>
	<time>2023-10-07T11:49:05.000Z</time>
</trkpt>
<trkpt lat="45.9335260" lon="9.5604840">
	<ele>1548.60</ele>
	<time>2023-10-07T11:49:06.000Z</time>
</trkpt>
<trkpt lat="45.9335240" lon="9.5604890">
	<ele>1548.40</ele>
	<time>2023-10-07T11:49:07.000Z</time>
</trkpt>
<trkpt lat="45.9335230" lon="9.5604880">
	<ele>1548.40</ele>
	<time>2023-10-07T11:49:08.000Z</time>
</trkpt>
<trkpt lat="45.9335230" lon="9.5604860">
	<ele>1548.40</ele>
	<time>2023-10-07T11:49:09.000Z</time>
</trkpt>
<trkpt lat="45.9335230" lon="9.5604850">
	<ele>1548.80</ele>
	<time>2023-10-07T11:49:10.000Z</time>
</trkpt>
<trkpt lat="45.9335230" lon="9.5604850">
	<ele>1549.00</ele>
	<time>2023-10-07T11:49:11.000Z</time>
</trkpt>
<trkpt lat="45.9335230" lon="9.5604850">
	<ele>1549.00</ele>
	<time>2023-10-07T11:49:12.000Z</time>
</trkpt>
<trkpt lat="45.9335230" lon="9.5604850">
	<ele>1549.00</ele>
	<time>2023-10-07T11:49:13.000Z</time>
</trkpt>
<trkpt lat="45.9335230" lon="9.5604850">
	<ele>1549.00</ele>
	<time>2023-10-07T11:49:14.000Z</time>
</trkpt>
<trkpt lat="45.9335230" lon="9.5604850">
	<ele>1549.20</ele>
	<time>2023-10-07T11:49:15.000Z</time>
</trkpt>
<trkpt lat="45.9335230" lon="9.5604850">
	<ele>1549.20</ele>
	<time>2023-10-07T11:49:16.000Z</time>
</trkpt>
<trkpt lat="45.9335230" lon="9.5604850">
	<ele>1549.00</ele>
	<time>2023-10-07T11:49:17.000Z</time>
</trkpt>
<trkpt lat="45.9335230" lon="9.5604850">
	<ele>1549.00</ele>
	<time>2023-10-07T11:49:18.000Z</time>
</trkpt>
<trkpt lat="45.9335230" lon="9.5604850">
	<ele>1549.00</ele>
	<time>2023-10-07T11:49:19.000Z</time>
</trkpt>
<trkpt lat="45.9335230" lon="9.5604850">
	<ele>1549.00</ele>
	<time>2023-10-07T11:49:20.000Z</time>
</trkpt>
<trkpt lat="45.9335230" lon="9.5604850">
	<ele>1549.00</ele>
	<time>2023-10-07T11:49:21.000Z</time>
</trkpt>
<trkpt lat="45.9335230" lon="9.5604850">
	<ele>1549.00</ele>
	<time>2023-10-07T11:49:22.000Z</time>
</trkpt>
<trkpt lat="45.9335230" lon="9.5604860">
	<ele>1549.00</ele>
	<time>2023-10-07T11:49:23.000Z</time>
</trkpt>
<trkpt lat="45.9335230" lon="9.5604860">
	<ele>1549.00</ele>
	<time>2023-10-07T11:49:24.000Z</time>
</trkpt>
<trkpt lat="45.9335230" lon="9.5604880">
	<ele>1549.00</ele>
	<time>2023-10-07T11:49:25.000Z</time>
</trkpt>
<trkpt lat="45.9335220" lon="9.5604880">
	<ele>1549.20</ele>
	<time>2023-10-07T11:49:26.000Z</time>
</trkpt>
<trkpt lat="45.9335210" lon="9.5604880">
	<ele>1549.20</ele>
	<time>2023-10-07T11:49:27.000Z</time>
</trkpt>
<trkpt lat="45.9335200" lon="9.5604880">
	<ele>1549.20</ele>
	<time>2023-10-07T11:49:28.000Z</time>
</trkpt>
<trkpt lat="45.9335190" lon="9.5604890">
	<ele>1549.20</ele>
	<time>2023-10-07T11:49:29.000Z</time>
</trkpt>
<trkpt lat="45.9335190" lon="9.5604890">
	<ele>1549.20</ele>
	<time>2023-10-07T11:49:30.000Z</time>
</trkpt>
<trkpt lat="45.9335180" lon="9.5604890">
	<ele>1549.20</ele>
	<time>2023-10-07T11:49:31.000Z</time>
</trkpt>
<trkpt lat="45.9335180" lon="9.5604890">
	<ele>1549.00</ele>
	<time>2023-10-07T11:49:32.000Z</time>
</trkpt>
<trkpt lat="45.9335180" lon="9.5604890">
	<ele>1549.00</ele>
	<time>2023-10-07T11:49:33.000Z</time>
</trkpt>
<trkpt lat="45.9335170" lon="9.5604890">
	<ele>1549.00</ele>
	<time>2023-10-07T11:49:34.000Z</time>
</trkpt>
<trkpt lat="45.9335170" lon="9.5604890">
	<ele>1548.80</ele>
	<time>2023-10-07T11:49:35.000Z</time>
</trkpt>
<trkpt lat="45.9335170" lon="9.5604890">
	<ele>1548.80</ele>
	<time>2023-10-07T11:49:36.000Z</time>
</trkpt>
<trkpt lat="45.9335170" lon="9.5604890">
	<ele>1548.60</ele>
	<time>2023-10-07T11:49:37.000Z</time>
</trkpt>
<trkpt lat="45.9335170" lon="9.5604890">
	<ele>1548.60</ele>
	<time>2023-10-07T11:49:38.000Z</time>
</trkpt>
<trkpt lat="45.9335130" lon="9.5604900">
	<ele>1548.40</ele>
	<time>2023-10-07T11:49:39.000Z</time>
</trkpt>
<trkpt lat="45.9335000" lon="9.5604970">
	<ele>1548.40</ele>
	<time>2023-10-07T11:49:40.000Z</time>
</trkpt>
<trkpt lat="45.9334900" lon="9.5605030">
	<ele>1548.20</ele>
	<time>2023-10-07T11:49:41.000Z</time>
</trkpt>
<trkpt lat="45.9334750" lon="9.5605110">
	<ele>1548.20</ele>
	<time>2023-10-07T11:49:42.000Z</time>
</trkpt>
<trkpt lat="45.9334620" lon="9.5605170">
	<ele>1548.00</ele>
	<time>2023-10-07T11:49:43.000Z</time>
</trkpt>
<trkpt lat="45.9334480" lon="9.5605240">
	<ele>1547.80</ele>
	<time>2023-10-07T11:49:44.000Z</time>
</trkpt>
<trkpt lat="45.9334370" lon="9.5605290">
	<ele>1547.60</ele>
	<time>2023-10-07T11:49:45.000Z</time>
</trkpt>
<trkpt lat="45.9334240" lon="9.5605360">
	<ele>1547.40</ele>
	<time>2023-10-07T11:49:46.000Z</time>
</trkpt>
<trkpt lat="45.9334130" lon="9.5605440">
	<ele>1547.20</ele>
	<time>2023-10-07T11:49:47.000Z</time>
</trkpt>
<trkpt lat="45.9334010" lon="9.5605540">
	<ele>1546.80</ele>
	<time>2023-10-07T11:49:48.000Z</time>
</trkpt>
<trkpt lat="45.9333910" lon="9.5605600">
	<ele>1546.60</ele>
	<time>2023-10-07T11:49:49.000Z</time>
</trkpt>
<trkpt lat="45.9333790" lon="9.5605700">
	<ele>1546.40</ele>
	<time>2023-10-07T11:49:50.000Z</time>
</trkpt>
<trkpt lat="45.9333710" lon="9.5605760">
	<ele>1546.20</ele>
	<time>2023-10-07T11:49:51.000Z</time>
</trkpt>
<trkpt lat="45.9333600" lon="9.5605800">
	<ele>1546.00</ele>
	<time>2023-10-07T11:49:52.000Z</time>
</trkpt>
<trkpt lat="45.9333470" lon="9.5605790">
	<ele>1545.80</ele>
	<time>2023-10-07T11:49:53.000Z</time>
</trkpt>
<trkpt lat="45.9333360" lon="9.5605810">
	<ele>1545.60</ele>
	<time>2023-10-07T11:49:54.000Z</time>
</trkpt>
<trkpt lat="45.9333240" lon="9.5605860">
	<ele>1545.40</ele>
	<time>2023-10-07T11:49:55.000Z</time>
</trkpt>
<trkpt lat="45.9333150" lon="9.5605890">
	<ele>1545.20</ele>
	<time>2023-10-07T11:49:56.000Z</time>
</trkpt>
<trkpt lat="45.9333060" lon="9.5605890">
	<ele>1545.00</ele>
	<time>2023-10-07T11:49:57.000Z</time>
</trkpt>
<trkpt lat="45.9332970" lon="9.5605860">
	<ele>1544.80</ele>
	<time>2023-10-07T11:49:58.000Z</time>
</trkpt>
<trkpt lat="45.9332870" lon="9.5605810">
	<ele>1544.80</ele>
	<time>2023-10-07T11:49:59.000Z</time>
</trkpt>
<trkpt lat="45.9332740" lon="9.5605740">
	<ele>1544.40</ele>
	<time>2023-10-07T11:50:00.000Z</time>
</trkpt>
<trkpt lat="45.9332640" lon="9.5605650">
	<ele>1544.20</ele>
	<time>2023-10-07T11:50:01.000Z</time>
</trkpt>
<trkpt lat="45.9332540" lon="9.5605560">
	<ele>1544.20</ele>
	<time>2023-10-07T11:50:02.000Z</time>
</trkpt>
<trkpt lat="45.9332440" lon="9.5605450">
	<ele>1544.00</ele>
	<time>2023-10-07T11:50:03.000Z</time>
</trkpt>
<trkpt lat="45.9332340" lon="9.5605370">
	<ele>1544.00</ele>
	<time>2023-10-07T11:50:04.000Z</time>
</trkpt>
<trkpt lat="45.9332220" lon="9.5605250">
	<ele>1543.80</ele>
	<time>2023-10-07T11:50:05.000Z</time>
</trkpt>
<trkpt lat="45.9332140" lon="9.5605140">
	<ele>1543.40</ele>
	<time>2023-10-07T11:50:06.000Z</time>
</trkpt>
<trkpt lat="45.9332030" lon="9.5605050">
	<ele>1543.20</ele>
	<time>2023-10-07T11:50:07.000Z</time>
</trkpt>
<trkpt lat="45.9331930" lon="9.5604950">
	<ele>1543.00</ele>
	<time>2023-10-07T11:50:08.000Z</time>
</trkpt>
<trkpt lat="45.9331820" lon="9.5604900">
	<ele>1542.80</ele>
	<time>2023-10-07T11:50:09.000Z</time>
</trkpt>
<trkpt lat="45.9331680" lon="9.5604850">
	<ele>1542.40</ele>
	<time>2023-10-07T11:50:10.000Z</time>
</trkpt>
<trkpt lat="45.9331580" lon="9.5604860">
	<ele>1542.20</ele>
	<time>2023-10-07T11:50:11.000Z</time>
</trkpt>
<trkpt lat="45.9331470" lon="9.5604860">
	<ele>1542.00</ele>
	<time>2023-10-07T11:50:12.000Z</time>
</trkpt>
<trkpt lat="45.9331400" lon="9.5604860">
	<ele>1541.80</ele>
	<time>2023-10-07T11:50:13.000Z</time>
</trkpt>
<trkpt lat="45.9331330" lon="9.5604840">
	<ele>1541.60</ele>
	<time>2023-10-07T11:50:14.000Z</time>
</trkpt>
<trkpt lat="45.9331190" lon="9.5604820">
	<ele>1541.20</ele>
	<time>2023-10-07T11:50:15.000Z</time>
</trkpt>
<trkpt lat="45.9331080" lon="9.5604770">
	<ele>1541.00</ele>
	<time>2023-10-07T11:50:16.000Z</time>
</trkpt>
<trkpt lat="45.9330990" lon="9.5604690">
	<ele>1540.80</ele>
	<time>2023-10-07T11:50:17.000Z</time>
</trkpt>
<trkpt lat="45.9330900" lon="9.5604690">
	<ele>1540.60</ele>
	<time>2023-10-07T11:50:18.000Z</time>
</trkpt>
<trkpt lat="45.9330800" lon="9.5604730">
	<ele>1540.40</ele>
	<time>2023-10-07T11:50:19.000Z</time>
</trkpt>
<trkpt lat="45.9330670" lon="9.5604750">
	<ele>1540.40</ele>
	<time>2023-10-07T11:50:20.000Z</time>
</trkpt>
<trkpt lat="45.9330580" lon="9.5604740">
	<ele>1540.20</ele>
	<time>2023-10-07T11:50:21.000Z</time>
</trkpt>
<trkpt lat="45.9330430" lon="9.5604740">
	<ele>1539.80</ele>
	<time>2023-10-07T11:50:22.000Z</time>
</trkpt>
<trkpt lat="45.9330310" lon="9.5604670">
	<ele>1539.60</ele>
	<time>2023-10-07T11:50:23.000Z</time>
</trkpt>
<trkpt lat="45.9330210" lon="9.5604630">
	<ele>1539.40</ele>
	<time>2023-10-07T11:50:24.000Z</time>
</trkpt>
<trkpt lat="45.9330090" lon="9.5604690">
	<ele>1539.20</ele>
	<time>2023-10-07T11:50:25.000Z</time>
</trkpt>
<trkpt lat="45.9329990" lon="9.5604760">
	<ele>1539.00</ele>
	<time>2023-10-07T11:50:26.000Z</time>
</trkpt>
<trkpt lat="45.9329840" lon="9.5604820">
	<ele>1539.00</ele>
	<time>2023-10-07T11:50:27.000Z</time>
</trkpt>
<trkpt lat="45.9329700" lon="9.5604840">
	<ele>1538.80</ele>
	<time>2023-10-07T11:50:28.000Z</time>
</trkpt>
<trkpt lat="45.9329560" lon="9.5604870">
	<ele>1538.40</ele>
	<time>2023-10-07T11:50:29.000Z</time>
</trkpt>
<trkpt lat="45.9329430" lon="9.5604930">
	<ele>1538.20</ele>
	<time>2023-10-07T11:50:30.000Z</time>
</trkpt>
<trkpt lat="45.9329320" lon="9.5604970">
	<ele>1538.00</ele>
	<time>2023-10-07T11:50:31.000Z</time>
</trkpt>
<trkpt lat="45.9329230" lon="9.5605030">
	<ele>1537.80</ele>
	<time>2023-10-07T11:50:32.000Z</time>
</trkpt>
<trkpt lat="45.9329150" lon="9.5605050">
	<ele>1537.60</ele>
	<time>2023-10-07T11:50:33.000Z</time>
</trkpt>
<trkpt lat="45.9329070" lon="9.5605070">
	<ele>1537.40</ele>
	<time>2023-10-07T11:50:34.000Z</time>
</trkpt>
<trkpt lat="45.9328980" lon="9.5605100">
	<ele>1537.20</ele>
	<time>2023-10-07T11:50:35.000Z</time>
</trkpt>
<trkpt lat="45.9328910" lon="9.5605180">
	<ele>1537.00</ele>
	<time>2023-10-07T11:50:36.000Z</time>
</trkpt>
<trkpt lat="45.9328830" lon="9.5605230">
	<ele>1536.80</ele>
	<time>2023-10-07T11:50:37.000Z</time>
</trkpt>
<trkpt lat="45.9328720" lon="9.5605270">
	<ele>1536.40</ele>
	<time>2023-10-07T11:50:38.000Z</time>
</trkpt>
<trkpt lat="45.9328560" lon="9.5605250">
	<ele>1536.40</ele>
	<time>2023-10-07T11:50:39.000Z</time>
</trkpt>
<trkpt lat="45.9328480" lon="9.5605150">
	<ele>1536.20</ele>
	<time>2023-10-07T11:50:40.000Z</time>
</trkpt>
<trkpt lat="45.9328470" lon="9.5605030">
	<ele>1535.80</ele>
	<time>2023-10-07T11:50:41.000Z</time>
</trkpt>
<trkpt lat="45.9328500" lon="9.5604940">
	<ele>1535.60</ele>
	<time>2023-10-07T11:50:42.000Z</time>
</trkpt>
<trkpt lat="45.9328530" lon="9.5604820">
	<ele>1535.40</ele>
	<time>2023-10-07T11:50:43.000Z</time>
</trkpt>
<trkpt lat="45.9328570" lon="9.5604720">
	<ele>1535.00</ele>
	<time>2023-10-07T11:50:44.000Z</time>
</trkpt>
<trkpt lat="45.9328600" lon="9.5604580">
	<ele>1534.80</ele>
	<time>2023-10-07T11:50:45.000Z</time>
</trkpt>
<trkpt lat="45.9328630" lon="9.5604450">
	<ele>1534.60</ele>
	<time>2023-10-07T11:50:46.000Z</time>
</trkpt>
<trkpt lat="45.9328660" lon="9.5604290">
	<ele>1534.20</ele>
	<time>2023-10-07T11:50:47.000Z</time>
</trkpt>
<trkpt lat="45.9328640" lon="9.5604160">
	<ele>1534.00</ele>
	<time>2023-10-07T11:50:48.000Z</time>
</trkpt>
<trkpt lat="45.9328620" lon="9.5604030">
	<ele>1533.80</ele>
	<time>2023-10-07T11:50:49.000Z</time>
</trkpt>
<trkpt lat="45.9328620" lon="9.5603870">
	<ele>1533.60</ele>
	<time>2023-10-07T11:50:50.000Z</time>
</trkpt>
<trkpt lat="45.9328630" lon="9.5603730">
	<ele>1533.20</ele>
	<time>2023-10-07T11:50:51.000Z</time>
</trkpt>
<trkpt lat="45.9328590" lon="9.5603610">
	<ele>1533.00</ele>
	<time>2023-10-07T11:50:52.000Z</time>
</trkpt>
<trkpt lat="45.9328510" lon="9.5603530">
	<ele>1532.80</ele>
	<time>2023-10-07T11:50:53.000Z</time>
</trkpt>
<trkpt lat="45.9328420" lon="9.5603550">
	<ele>1532.60</ele>
	<time>2023-10-07T11:50:54.000Z</time>
</trkpt>
<trkpt lat="45.9328270" lon="9.5603590">
	<ele>1532.60</ele>
	<time>2023-10-07T11:50:55.000Z</time>
</trkpt>
<trkpt lat="45.9328150" lon="9.5603610">
	<ele>1532.40</ele>
	<time>2023-10-07T11:50:56.000Z</time>
</trkpt>
<trkpt lat="45.9328050" lon="9.5603650">
	<ele>1532.20</ele>
	<time>2023-10-07T11:50:57.000Z</time>
</trkpt>
<trkpt lat="45.9327970" lon="9.5603690">
	<ele>1532.00</ele>
	<time>2023-10-07T11:50:58.000Z</time>
</trkpt>
<trkpt lat="45.9327880" lon="9.5603750">
	<ele>1531.80</ele>
	<time>2023-10-07T11:50:59.000Z</time>
</trkpt>
<trkpt lat="45.9327810" lon="9.5603810">
	<ele>1531.60</ele>
	<time>2023-10-07T11:51:00.000Z</time>
</trkpt>
<trkpt lat="45.9327720" lon="9.5603870">
	<ele>1531.20</ele>
	<time>2023-10-07T11:51:01.000Z</time>
</trkpt>
<trkpt lat="45.9327650" lon="9.5603950">
	<ele>1530.80</ele>
	<time>2023-10-07T11:51:02.000Z</time>
</trkpt>
<trkpt lat="45.9327570" lon="9.5604040">
	<ele>1530.60</ele>
	<time>2023-10-07T11:51:03.000Z</time>
</trkpt>
<trkpt lat="45.9327490" lon="9.5604100">
	<ele>1530.40</ele>
	<time>2023-10-07T11:51:04.000Z</time>
</trkpt>
<trkpt lat="45.9327390" lon="9.5604120">
	<ele>1530.00</ele>
	<time>2023-10-07T11:51:05.000Z</time>
</trkpt>
<trkpt lat="45.9327270" lon="9.5604170">
	<ele>1529.80</ele>
	<time>2023-10-07T11:51:06.000Z</time>
</trkpt>
<trkpt lat="45.9327150" lon="9.5604250">
	<ele>1529.60</ele>
	<time>2023-10-07T11:51:07.000Z</time>
</trkpt>
<trkpt lat="45.9327060" lon="9.5604360">
	<ele>1529.40</ele>
	<time>2023-10-07T11:51:08.000Z</time>
</trkpt>
<trkpt lat="45.9326970" lon="9.5604450">
	<ele>1529.20</ele>
	<time>2023-10-07T11:51:09.000Z</time>
</trkpt>
<trkpt lat="45.9326850" lon="9.5604500">
	<ele>1528.80</ele>
	<time>2023-10-07T11:51:10.000Z</time>
</trkpt>
<trkpt lat="45.9326730" lon="9.5604590">
	<ele>1528.40</ele>
	<time>2023-10-07T11:51:11.000Z</time>
</trkpt>
<trkpt lat="45.9326610" lon="9.5604640">
	<ele>1528.20</ele>
	<time>2023-10-07T11:51:12.000Z</time>
</trkpt>
<trkpt lat="45.9326530" lon="9.5604690">
	<ele>1527.80</ele>
	<time>2023-10-07T11:51:13.000Z</time>
</trkpt>
<trkpt lat="45.9326460" lon="9.5604790">
	<ele>1527.60</ele>
	<time>2023-10-07T11:51:14.000Z</time>
</trkpt>
<trkpt lat="45.9326350" lon="9.5604870">
	<ele>1527.60</ele>
	<time>2023-10-07T11:51:15.000Z</time>
</trkpt>
<trkpt lat="45.9326240" lon="9.5604910">
	<ele>1527.40</ele>
	<time>2023-10-07T11:51:16.000Z</time>
</trkpt>
<trkpt lat="45.9326160" lon="9.5604900">
	<ele>1527.40</ele>
	<time>2023-10-07T11:51:17.000Z</time>
</trkpt>
<trkpt lat="45.9326080" lon="9.5604910">
	<ele>1527.20</ele>
	<time>2023-10-07T11:51:18.000Z</time>
</trkpt>
<trkpt lat="45.9325950" lon="9.5604960">
	<ele>1526.80</ele>
	<time>2023-10-07T11:51:19.000Z</time>
</trkpt>
<trkpt lat="45.9325840" lon="9.5604990">
	<ele>1526.60</ele>
	<time>2023-10-07T11:51:20.000Z</time>
</trkpt>
<trkpt lat="45.9325740" lon="9.5605010">
	<ele>1526.20</ele>
	<time>2023-10-07T11:51:21.000Z</time>
</trkpt>
<trkpt lat="45.9325610" lon="9.5605090">
	<ele>1525.80</ele>
	<time>2023-10-07T11:51:22.000Z</time>
</trkpt>
<trkpt lat="45.9325520" lon="9.5605140">
	<ele>1525.60</ele>
	<time>2023-10-07T11:51:23.000Z</time>
</trkpt>
<trkpt lat="45.9325420" lon="9.5605200">
	<ele>1525.40</ele>
	<time>2023-10-07T11:51:24.000Z</time>
</trkpt>
<trkpt lat="45.9325300" lon="9.5605280">
	<ele>1525.20</ele>
	<time>2023-10-07T11:51:25.000Z</time>
</trkpt>
<trkpt lat="45.9325180" lon="9.5605320">
	<ele>1525.20</ele>
	<time>2023-10-07T11:51:26.000Z</time>
</trkpt>
<trkpt lat="45.9325070" lon="9.5605350">
	<ele>1525.00</ele>
	<time>2023-10-07T11:51:27.000Z</time>
</trkpt>
<trkpt lat="45.9324940" lon="9.5605390">
	<ele>1524.80</ele>
	<time>2023-10-07T11:51:28.000Z</time>
</trkpt>
<trkpt lat="45.9324830" lon="9.5605440">
	<ele>1524.80</ele>
	<time>2023-10-07T11:51:29.000Z</time>
</trkpt>
<trkpt lat="45.9324740" lon="9.5605500">
	<ele>1524.60</ele>
	<time>2023-10-07T11:51:30.000Z</time>
</trkpt>
<trkpt lat="45.9324670" lon="9.5605530">
	<ele>1524.40</ele>
	<time>2023-10-07T11:51:31.000Z</time>
</trkpt>
<trkpt lat="45.9324570" lon="9.5605550">
	<ele>1524.00</ele>
	<time>2023-10-07T11:51:32.000Z</time>
</trkpt>
<trkpt lat="45.9324460" lon="9.5605640">
	<ele>1523.80</ele>
	<time>2023-10-07T11:51:33.000Z</time>
</trkpt>
<trkpt lat="45.9324360" lon="9.5605730">
	<ele>1523.40</ele>
	<time>2023-10-07T11:51:34.000Z</time>
</trkpt>
<trkpt lat="45.9324270" lon="9.5605810">
	<ele>1523.20</ele>
	<time>2023-10-07T11:51:35.000Z</time>
</trkpt>
<trkpt lat="45.9324190" lon="9.5605890">
	<ele>1523.00</ele>
	<time>2023-10-07T11:51:36.000Z</time>
</trkpt>
<trkpt lat="45.9324100" lon="9.5605960">
	<ele>1522.80</ele>
	<time>2023-10-07T11:51:37.000Z</time>
</trkpt>
<trkpt lat="45.9324000" lon="9.5606060">
	<ele>1522.60</ele>
	<time>2023-10-07T11:51:38.000Z</time>
</trkpt>
<trkpt lat="45.9323940" lon="9.5606130">
	<ele>1522.40</ele>
	<time>2023-10-07T11:51:39.000Z</time>
</trkpt>
<trkpt lat="45.9323870" lon="9.5606230">
	<ele>1522.20</ele>
	<time>2023-10-07T11:51:40.000Z</time>
</trkpt>
<trkpt lat="45.9323820" lon="9.5606310">
	<ele>1521.80</ele>
	<time>2023-10-07T11:51:41.000Z</time>
</trkpt>
<trkpt lat="45.9323770" lon="9.5606360">
	<ele>1521.60</ele>
	<time>2023-10-07T11:51:42.000Z</time>
</trkpt>
<trkpt lat="45.9323670" lon="9.5606420">
	<ele>1521.40</ele>
	<time>2023-10-07T11:51:43.000Z</time>
</trkpt>
<trkpt lat="45.9323550" lon="9.5606510">
	<ele>1521.20</ele>
	<time>2023-10-07T11:51:44.000Z</time>
</trkpt>
<trkpt lat="45.9323430" lon="9.5606560">
	<ele>1521.20</ele>
	<time>2023-10-07T11:51:45.000Z</time>
</trkpt>
<trkpt lat="45.9323360" lon="9.5606610">
	<ele>1521.00</ele>
	<time>2023-10-07T11:51:46.000Z</time>
</trkpt>
<trkpt lat="45.9323300" lon="9.5606730">
	<ele>1520.80</ele>
	<time>2023-10-07T11:51:47.000Z</time>
</trkpt>
<trkpt lat="45.9323260" lon="9.5606860">
	<ele>1520.20</ele>
	<time>2023-10-07T11:51:48.000Z</time>
</trkpt>
<trkpt lat="45.9323270" lon="9.5606960">
	<ele>1519.80</ele>
	<time>2023-10-07T11:51:49.000Z</time>
</trkpt>
<trkpt lat="45.9323290" lon="9.5607100">
	<ele>1519.40</ele>
	<time>2023-10-07T11:51:50.000Z</time>
</trkpt>
<trkpt lat="45.9323320" lon="9.5607230">
	<ele>1519.20</ele>
	<time>2023-10-07T11:51:51.000Z</time>
</trkpt>
<trkpt lat="45.9323330" lon="9.5607360">
	<ele>1518.80</ele>
	<time>2023-10-07T11:51:52.000Z</time>
</trkpt>
<trkpt lat="45.9323350" lon="9.5607500">
	<ele>1518.60</ele>
	<time>2023-10-07T11:51:53.000Z</time>
</trkpt>
<trkpt lat="45.9323340" lon="9.5607640">
	<ele>1518.20</ele>
	<time>2023-10-07T11:51:54.000Z</time>
</trkpt>
<trkpt lat="45.9323300" lon="9.5607780">
	<ele>1518.00</ele>
	<time>2023-10-07T11:51:55.000Z</time>
</trkpt>
<trkpt lat="45.9323240" lon="9.5607910">
	<ele>1517.60</ele>
	<time>2023-10-07T11:51:56.000Z</time>
</trkpt>
<trkpt lat="45.9323200" lon="9.5607980">
	<ele>1517.40</ele>
	<time>2023-10-07T11:51:57.000Z</time>
</trkpt>
<trkpt lat="45.9323140" lon="9.5608100">
	<ele>1517.20</ele>
	<time>2023-10-07T11:51:58.000Z</time>
</trkpt>
<trkpt lat="45.9323080" lon="9.5608180">
	<ele>1517.00</ele>
	<time>2023-10-07T11:51:59.000Z</time>
</trkpt>
<trkpt lat="45.9323020" lon="9.5608300">
	<ele>1516.80</ele>
	<time>2023-10-07T11:52:00.000Z</time>
</trkpt>
<trkpt lat="45.9322910" lon="9.5608430">
	<ele>1516.80</ele>
	<time>2023-10-07T11:52:01.000Z</time>
</trkpt>
<trkpt lat="45.9322810" lon="9.5608580">
	<ele>1516.80</ele>
	<time>2023-10-07T11:52:02.000Z</time>
</trkpt>
<trkpt lat="45.9322720" lon="9.5608680">
	<ele>1516.40</ele>
	<time>2023-10-07T11:52:03.000Z</time>
</trkpt>
<trkpt lat="45.9322630" lon="9.5608790">
	<ele>1516.20</ele>
	<time>2023-10-07T11:52:04.000Z</time>
</trkpt>
<trkpt lat="45.9322530" lon="9.5608850">
	<ele>1516.00</ele>
	<time>2023-10-07T11:52:05.000Z</time>
</trkpt>
<trkpt lat="45.9322430" lon="9.5608930">
	<ele>1515.60</ele>
	<time>2023-10-07T11:52:06.000Z</time>
</trkpt>
<trkpt lat="45.9322330" lon="9.5609040">
	<ele>1515.20</ele>
	<time>2023-10-07T11:52:07.000Z</time>
</trkpt>
<trkpt lat="45.9322260" lon="9.5609160">
	<ele>1514.80</ele>
	<time>2023-10-07T11:52:08.000Z</time>
</trkpt>
<trkpt lat="45.9322200" lon="9.5609250">
	<ele>1514.60</ele>
	<time>2023-10-07T11:52:09.000Z</time>
</trkpt>
<trkpt lat="45.9322160" lon="9.5609340">
	<ele>1514.40</ele>
	<time>2023-10-07T11:52:10.000Z</time>
</trkpt>
<trkpt lat="45.9322120" lon="9.5609460">
	<ele>1514.20</ele>
	<time>2023-10-07T11:52:11.000Z</time>
</trkpt>
<trkpt lat="45.9322090" lon="9.5609570">
	<ele>1514.00</ele>
	<time>2023-10-07T11:52:12.000Z</time>
</trkpt>
<trkpt lat="45.9322070" lon="9.5609650">
	<ele>1513.80</ele>
	<time>2023-10-07T11:52:13.000Z</time>
</trkpt>
<trkpt lat="45.9322040" lon="9.5609680">
	<ele>1513.60</ele>
	<time>2023-10-07T11:52:14.000Z</time>
</trkpt>
<trkpt lat="45.9321990" lon="9.5609750">
	<ele>1513.40</ele>
	<time>2023-10-07T11:52:15.000Z</time>
</trkpt>
<trkpt lat="45.9321940" lon="9.5609790">
	<ele>1513.40</ele>
	<time>2023-10-07T11:52:16.000Z</time>
</trkpt>
<trkpt lat="45.9321900" lon="9.5609860">
	<ele>1513.20</ele>
	<time>2023-10-07T11:52:17.000Z</time>
</trkpt>
<trkpt lat="45.9321860" lon="9.5609940">
	<ele>1513.20</ele>
	<time>2023-10-07T11:52:18.000Z</time>
</trkpt>
<trkpt lat="45.9321820" lon="9.5610010">
	<ele>1513.00</ele>
	<time>2023-10-07T11:52:19.000Z</time>
</trkpt>
<trkpt lat="45.9321770" lon="9.5610130">
	<ele>1513.00</ele>
	<time>2023-10-07T11:52:20.000Z</time>
</trkpt>
<trkpt lat="45.9321750" lon="9.5610170">
	<ele>1512.80</ele>
	<time>2023-10-07T11:52:21.000Z</time>
</trkpt>
<trkpt lat="45.9321730" lon="9.5610220">
	<ele>1512.60</ele>
	<time>2023-10-07T11:52:22.000Z</time>
</trkpt>
<trkpt lat="45.9321690" lon="9.5610250">
	<ele>1512.40</ele>
	<time>2023-10-07T11:52:23.000Z</time>
</trkpt>
<trkpt lat="45.9321630" lon="9.5610290">
	<ele>1512.00</ele>
	<time>2023-10-07T11:52:24.000Z</time>
</trkpt>
<trkpt lat="45.9321560" lon="9.5610320">
	<ele>1511.80</ele>
	<time>2023-10-07T11:52:25.000Z</time>
</trkpt>
<trkpt lat="45.9321500" lon="9.5610390">
	<ele>1511.60</ele>
	<time>2023-10-07T11:52:26.000Z</time>
</trkpt>
<trkpt lat="45.9321410" lon="9.5610410">
	<ele>1511.40</ele>
	<time>2023-10-07T11:52:27.000Z</time>
</trkpt>
<trkpt lat="45.9321340" lon="9.5610440">
	<ele>1511.00</ele>
	<time>2023-10-07T11:52:28.000Z</time>
</trkpt>
<trkpt lat="45.9321240" lon="9.5610520">
	<ele>1510.60</ele>
	<time>2023-10-07T11:52:29.000Z</time>
</trkpt>
<trkpt lat="45.9321150" lon="9.5610580">
	<ele>1510.40</ele>
	<time>2023-10-07T11:52:30.000Z</time>
</trkpt>
<trkpt lat="45.9321050" lon="9.5610640">
	<ele>1510.20</ele>
	<time>2023-10-07T11:52:31.000Z</time>
</trkpt>
<trkpt lat="45.9320860" lon="9.5610750">
	<ele>1510.00</ele>
	<time>2023-10-07T11:52:32.000Z</time>
</trkpt>
<trkpt lat="45.9320760" lon="9.5610790">
	<ele>1509.80</ele>
	<time>2023-10-07T11:52:33.000Z</time>
</trkpt>
<trkpt lat="45.9320680" lon="9.5610760">
	<ele>1509.80</ele>
	<time>2023-10-07T11:52:34.000Z</time>
</trkpt>
<trkpt lat="45.9320610" lon="9.5610700">
	<ele>1509.60</ele>
	<time>2023-10-07T11:52:35.000Z</time>
</trkpt>
<trkpt lat="45.9320550" lon="9.5610640">
	<ele>1509.40</ele>
	<time>2023-10-07T11:52:36.000Z</time>
</trkpt>
<trkpt lat="45.9320490" lon="9.5610620">
	<ele>1509.20</ele>
	<time>2023-10-07T11:52:37.000Z</time>
</trkpt>
<trkpt lat="45.9320430" lon="9.5610610">
	<ele>1509.20</ele>
	<time>2023-10-07T11:52:38.000Z</time>
</trkpt>
<trkpt lat="45.9320400" lon="9.5610630">
	<ele>1509.00</ele>
	<time>2023-10-07T11:52:39.000Z</time>
</trkpt>
<trkpt lat="45.9320330" lon="9.5610630">
	<ele>1508.80</ele>
	<time>2023-10-07T11:52:40.000Z</time>
</trkpt>
<trkpt lat="45.9320230" lon="9.5610610">
	<ele>1508.60</ele>
	<time>2023-10-07T11:52:41.000Z</time>
</trkpt>
<trkpt lat="45.9320080" lon="9.5610620">
	<ele>1508.40</ele>
	<time>2023-10-07T11:52:42.000Z</time>
</trkpt>
<trkpt lat="45.9319980" lon="9.5610570">
	<ele>1508.00</ele>
	<time>2023-10-07T11:52:43.000Z</time>
</trkpt>
<trkpt lat="45.9319840" lon="9.5610530">
	<ele>1507.80</ele>
	<time>2023-10-07T11:52:44.000Z</time>
</trkpt>
<trkpt lat="45.9319740" lon="9.5610510">
	<ele>1507.60</ele>
	<time>2023-10-07T11:52:45.000Z</time>
</trkpt>
<trkpt lat="45.9319660" lon="9.5610500">
	<ele>1507.40</ele>
	<time>2023-10-07T11:52:46.000Z</time>
</trkpt>
<trkpt lat="45.9319560" lon="9.5610490">
	<ele>1507.40</ele>
	<time>2023-10-07T11:52:47.000Z</time>
</trkpt>
<trkpt lat="45.9319430" lon="9.5610460">
	<ele>1507.20</ele>
	<time>2023-10-07T11:52:48.000Z</time>
</trkpt>
<trkpt lat="45.9319300" lon="9.5610440">
	<ele>1507.00</ele>
	<time>2023-10-07T11:52:49.000Z</time>
</trkpt>
<trkpt lat="45.9319210" lon="9.5610410">
	<ele>1506.80</ele>
	<time>2023-10-07T11:52:50.000Z</time>
</trkpt>
<trkpt lat="45.9319100" lon="9.5610360">
	<ele>1506.40</ele>
	<time>2023-10-07T11:52:51.000Z</time>
</trkpt>
<trkpt lat="45.9319010" lon="9.5610310">
	<ele>1506.00</ele>
	<time>2023-10-07T11:52:52.000Z</time>
</trkpt>
<trkpt lat="45.9318930" lon="9.5610280">
	<ele>1505.80</ele>
	<time>2023-10-07T11:52:53.000Z</time>
</trkpt>
<trkpt lat="45.9318820" lon="9.5610210">
	<ele>1505.40</ele>
	<time>2023-10-07T11:52:54.000Z</time>
</trkpt>
<trkpt lat="45.9318710" lon="9.5610130">
	<ele>1505.20</ele>
	<time>2023-10-07T11:52:55.000Z</time>
</trkpt>
<trkpt lat="45.9318610" lon="9.5610080">
	<ele>1505.00</ele>
	<time>2023-10-07T11:52:56.000Z</time>
</trkpt>
<trkpt lat="45.9318550" lon="9.5610050">
	<ele>1504.80</ele>
	<time>2023-10-07T11:52:57.000Z</time>
</trkpt>
<trkpt lat="45.9318540" lon="9.5610040">
	<ele>1504.60</ele>
	<time>2023-10-07T11:52:58.000Z</time>
</trkpt>
<trkpt lat="45.9318550" lon="9.5610050">
	<ele>1504.60</ele>
	<time>2023-10-07T11:52:59.000Z</time>
</trkpt>
<trkpt lat="45.9318540" lon="9.5610060">
	<ele>1504.60</ele>
	<time>2023-10-07T11:53:00.000Z</time>
</trkpt>
<trkpt lat="45.9318550" lon="9.5610070">
	<ele>1504.60</ele>
	<time>2023-10-07T11:53:01.000Z</time>
</trkpt>
<trkpt lat="45.9318560" lon="9.5610060">
	<ele>1504.60</ele>
	<time>2023-10-07T11:53:02.000Z</time>
</trkpt>
<trkpt lat="45.9318560" lon="9.5610060">
	<ele>1504.60</ele>
	<time>2023-10-07T11:53:03.000Z</time>
</trkpt>
<trkpt lat="45.9318560" lon="9.5610040">
	<ele>1504.80</ele>
	<time>2023-10-07T11:53:04.000Z</time>
</trkpt>
<trkpt lat="45.9318560" lon="9.5610060">
	<ele>1504.80</ele>
	<time>2023-10-07T11:53:05.000Z</time>
</trkpt>
<trkpt lat="45.9318550" lon="9.5610090">
	<ele>1504.60</ele>
	<time>2023-10-07T11:53:06.000Z</time>
</trkpt>
<trkpt lat="45.9318530" lon="9.5610130">
	<ele>1504.40</ele>
	<time>2023-10-07T11:53:07.000Z</time>
</trkpt>
<trkpt lat="45.9318450" lon="9.5610130">
	<ele>1504.20</ele>
	<time>2023-10-07T11:53:08.000Z</time>
</trkpt>
<trkpt lat="45.9318360" lon="9.5610130">
	<ele>1504.20</ele>
	<time>2023-10-07T11:53:09.000Z</time>
</trkpt>
<trkpt lat="45.9318280" lon="9.5610090">
	<ele>1504.00</ele>
	<time>2023-10-07T11:53:10.000Z</time>
</trkpt>
<trkpt lat="45.9318200" lon="9.5610020">
	<ele>1503.80</ele>
	<time>2023-10-07T11:53:11.000Z</time>
</trkpt>
<trkpt lat="45.9318110" lon="9.5609920">
	<ele>1503.80</ele>
	<time>2023-10-07T11:53:12.000Z</time>
</trkpt>
<trkpt lat="45.9318040" lon="9.5609840">
	<ele>1503.60</ele>
	<time>2023-10-07T11:53:13.000Z</time>
</trkpt>
<trkpt lat="45.9317960" lon="9.5609720">
	<ele>1503.40</ele>
	<time>2023-10-07T11:53:14.000Z</time>
</trkpt>
<trkpt lat="45.9317880" lon="9.5609600">
	<ele>1503.20</ele>
	<time>2023-10-07T11:53:15.000Z</time>
</trkpt>
<trkpt lat="45.9317780" lon="9.5609480">
	<ele>1502.80</ele>
	<time>2023-10-07T11:53:16.000Z</time>
</trkpt>
<trkpt lat="45.9317660" lon="9.5609380">
	<ele>1502.60</ele>
	<time>2023-10-07T11:53:17.000Z</time>
</trkpt>
<trkpt lat="45.9317550" lon="9.5609290">
	<ele>1502.40</ele>
	<time>2023-10-07T11:53:18.000Z</time>
</trkpt>
<trkpt lat="45.9317440" lon="9.5609210">
	<ele>1502.20</ele>
	<time>2023-10-07T11:53:19.000Z</time>
</trkpt>
<trkpt lat="45.9317360" lon="9.5609100">
	<ele>1501.80</ele>
	<time>2023-10-07T11:53:20.000Z</time>
</trkpt>
<trkpt lat="45.9317270" lon="9.5608980">
	<ele>1501.60</ele>
	<time>2023-10-07T11:53:21.000Z</time>
</trkpt>
<trkpt lat="45.9317180" lon="9.5608870">
	<ele>1501.20</ele>
	<time>2023-10-07T11:53:22.000Z</time>
</trkpt>
<trkpt lat="45.9317080" lon="9.5608750">
	<ele>1501.00</ele>
	<time>2023-10-07T11:53:23.000Z</time>
</trkpt>
<trkpt lat="45.9317030" lon="9.5608610">
	<ele>1500.80</ele>
	<time>2023-10-07T11:53:24.000Z</time>
</trkpt>
<trkpt lat="45.9316950" lon="9.5608450">
	<ele>1500.60</ele>
	<time>2023-10-07T11:53:25.000Z</time>
</trkpt>
<trkpt lat="45.9316840" lon="9.5608320">
	<ele>1500.60</ele>
	<time>2023-10-07T11:53:26.000Z</time>
</trkpt>
<trkpt lat="45.9316750" lon="9.5608200">
	<ele>1500.40</ele>
	<time>2023-10-07T11:53:27.000Z</time>
</trkpt>
<trkpt lat="45.9316660" lon="9.5608070">
	<ele>1500.40</ele>
	<time>2023-10-07T11:53:28.000Z</time>
</trkpt>
<trkpt lat="45.9316540" lon="9.5607970">
	<ele>1500.20</ele>
	<time>2023-10-07T11:53:29.000Z</time>
</trkpt>
<trkpt lat="45.9316440" lon="9.5607870">
	<ele>1500.00</ele>
	<time>2023-10-07T11:53:30.000Z</time>
</trkpt>
<trkpt lat="45.9316360" lon="9.5607790">
	<ele>1499.80</ele>
	<time>2023-10-07T11:53:31.000Z</time>
</trkpt>
<trkpt lat="45.9316260" lon="9.5607780">
	<ele>1499.60</ele>
	<time>2023-10-07T11:53:32.000Z</time>
</trkpt>
<trkpt lat="45.9316150" lon="9.5607780">
	<ele>1499.40</ele>
	<time>2023-10-07T11:53:33.000Z</time>
</trkpt>
<trkpt lat="45.9316020" lon="9.5607830">
	<ele>1499.40</ele>
	<time>2023-10-07T11:53:34.000Z</time>
</trkpt>
<trkpt lat="45.9315910" lon="9.5607930">
	<ele>1499.00</ele>
	<time>2023-10-07T11:53:35.000Z</time>
</trkpt>
<trkpt lat="45.9315820" lon="9.5608000">
	<ele>1498.60</ele>
	<time>2023-10-07T11:53:36.000Z</time>
</trkpt>
<trkpt lat="45.9315780" lon="9.5608030">
	<ele>1498.40</ele>
	<time>2023-10-07T11:53:37.000Z</time>
</trkpt>
<trkpt lat="45.9315740" lon="9.5608060">
	<ele>1498.00</ele>
	<time>2023-10-07T11:53:38.000Z</time>
</trkpt>
<trkpt lat="45.9315710" lon="9.5608140">
	<ele>1497.80</ele>
	<time>2023-10-07T11:53:39.000Z</time>
</trkpt>
<trkpt lat="45.9315690" lon="9.5608230">
	<ele>1497.40</ele>
	<time>2023-10-07T11:53:40.000Z</time>
</trkpt>
<trkpt lat="45.9315690" lon="9.5608310">
	<ele>1497.20</ele>
	<time>2023-10-07T11:53:41.000Z</time>
</trkpt>
<trkpt lat="45.9315660" lon="9.5608420">
	<ele>1496.80</ele>
	<time>2023-10-07T11:53:42.000Z</time>
</trkpt>
<trkpt lat="45.9315640" lon="9.5608550">
	<ele>1496.60</ele>
	<time>2023-10-07T11:53:43.000Z</time>
</trkpt>
<trkpt lat="45.9315610" lon="9.5608690">
	<ele>1496.40</ele>
	<time>2023-10-07T11:53:44.000Z</time>
</trkpt>
<trkpt lat="45.9315590" lon="9.5608830">
	<ele>1496.00</ele>
	<time>2023-10-07T11:53:45.000Z</time>
</trkpt>
<trkpt lat="45.9315580" lon="9.5608950">
	<ele>1495.60</ele>
	<time>2023-10-07T11:53:46.000Z</time>
</trkpt>
<trkpt lat="45.9315550" lon="9.5609080">
	<ele>1495.20</ele>
	<time>2023-10-07T11:53:47.000Z</time>
</trkpt>
<trkpt lat="45.9315530" lon="9.5609180">
	<ele>1495.00</ele>
	<time>2023-10-07T11:53:48.000Z</time>
</trkpt>
<trkpt lat="45.9315510" lon="9.5609280">
	<ele>1494.80</ele>
	<time>2023-10-07T11:53:49.000Z</time>
</trkpt>
<trkpt lat="45.9315450" lon="9.5609410">
	<ele>1494.60</ele>
	<time>2023-10-07T11:53:50.000Z</time>
</trkpt>
<trkpt lat="45.9315380" lon="9.5609540">
	<ele>1494.40</ele>
	<time>2023-10-07T11:53:51.000Z</time>
</trkpt>
<trkpt lat="45.9315300" lon="9.5609690">
	<ele>1494.40</ele>
	<time>2023-10-07T11:53:52.000Z</time>
</trkpt>
<trkpt lat="45.9315240" lon="9.5609840">
	<ele>1494.20</ele>
	<time>2023-10-07T11:53:53.000Z</time>
</trkpt>
<trkpt lat="45.9315180" lon="9.5609990">
	<ele>1494.00</ele>
	<time>2023-10-07T11:53:54.000Z</time>
</trkpt>
<trkpt lat="45.9315160" lon="9.5610090">
	<ele>1493.60</ele>
	<time>2023-10-07T11:53:55.000Z</time>
</trkpt>
<trkpt lat="45.9315130" lon="9.5610240">
	<ele>1493.40</ele>
	<time>2023-10-07T11:53:56.000Z</time>
</trkpt>
<trkpt lat="45.9315100" lon="9.5610390">
	<ele>1493.20</ele>
	<time>2023-10-07T11:53:57.000Z</time>
</trkpt>
<trkpt lat="45.9315080" lon="9.5610540">
	<ele>1493.20</ele>
	<time>2023-10-07T11:53:58.000Z</time>
</trkpt>
<trkpt lat="45.9315070" lon="9.5610720">
	<ele>1492.80</ele>
	<time>2023-10-07T11:53:59.000Z</time>
</trkpt>
<trkpt lat="45.9315060" lon="9.5610880">
	<ele>1492.40</ele>
	<time>2023-10-07T11:54:00.000Z</time>
</trkpt>
<trkpt lat="45.9315010" lon="9.5611030">
	<ele>1492.20</ele>
	<time>2023-10-07T11:54:01.000Z</time>
</trkpt>
<trkpt lat="45.9314980" lon="9.5611160">
	<ele>1492.00</ele>
	<time>2023-10-07T11:54:02.000Z</time>
</trkpt>
<trkpt lat="45.9314960" lon="9.5611330">
	<ele>1491.60</ele>
	<time>2023-10-07T11:54:03.000Z</time>
</trkpt>
<trkpt lat="45.9314950" lon="9.5611520">
	<ele>1491.60</ele>
	<time>2023-10-07T11:54:04.000Z</time>
</trkpt>
<trkpt lat="45.9314930" lon="9.5611680">
	<ele>1491.40</ele>
	<time>2023-10-07T11:54:05.000Z</time>
</trkpt>
<trkpt lat="45.9314890" lon="9.5611830">
	<ele>1491.00</ele>
	<time>2023-10-07T11:54:06.000Z</time>
</trkpt>
<trkpt lat="45.9314860" lon="9.5611990">
	<ele>1490.80</ele>
	<time>2023-10-07T11:54:07.000Z</time>
</trkpt>
<trkpt lat="45.9314840" lon="9.5612140">
	<ele>1490.80</ele>
	<time>2023-10-07T11:54:08.000Z</time>
</trkpt>
<trkpt lat="45.9314830" lon="9.5612260">
	<ele>1490.60</ele>
	<time>2023-10-07T11:54:09.000Z</time>
</trkpt>
<trkpt lat="45.9314860" lon="9.5612360">
	<ele>1490.40</ele>
	<time>2023-10-07T11:54:10.000Z</time>
</trkpt>
<trkpt lat="45.9314870" lon="9.5612480">
	<ele>1490.00</ele>
	<time>2023-10-07T11:54:11.000Z</time>
</trkpt>
<trkpt lat="45.9314830" lon="9.5612650">
	<ele>1489.80</ele>
	<time>2023-10-07T11:54:12.000Z</time>
</trkpt>
<trkpt lat="45.9314790" lon="9.5612810">
	<ele>1489.60</ele>
	<time>2023-10-07T11:54:13.000Z</time>
</trkpt>
<trkpt lat="45.9314770" lon="9.5613010">
	<ele>1489.40</ele>
	<time>2023-10-07T11:54:14.000Z</time>
</trkpt>
<trkpt lat="45.9314730" lon="9.5613210">
	<ele>1489.20</ele>
	<time>2023-10-07T11:54:15.000Z</time>
</trkpt>
<trkpt lat="45.9314680" lon="9.5613380">
	<ele>1489.00</ele>
	<time>2023-10-07T11:54:16.000Z</time>
</trkpt>
<trkpt lat="45.9314610" lon="9.5613550">
	<ele>1489.00</ele>
	<time>2023-10-07T11:54:17.000Z</time>
</trkpt>
<trkpt lat="45.9314580" lon="9.5613690">
	<ele>1488.80</ele>
	<time>2023-10-07T11:54:18.000Z</time>
</trkpt>
<trkpt lat="45.9314540" lon="9.5613820">
	<ele>1488.60</ele>
	<time>2023-10-07T11:54:19.000Z</time>
</trkpt>
<trkpt lat="45.9314500" lon="9.5613910">
	<ele>1488.60</ele>
	<time>2023-10-07T11:54:20.000Z</time>
</trkpt>
<trkpt lat="45.9314430" lon="9.5614080">
	<ele>1488.40</ele>
	<time>2023-10-07T11:54:21.000Z</time>
</trkpt>
<trkpt lat="45.9314380" lon="9.5614240">
	<ele>1488.20</ele>
	<time>2023-10-07T11:54:22.000Z</time>
</trkpt>
<trkpt lat="45.9314330" lon="9.5614390">
	<ele>1488.20</ele>
	<time>2023-10-07T11:54:23.000Z</time>
</trkpt>
<trkpt lat="45.9314260" lon="9.5614510">
	<ele>1487.80</ele>
	<time>2023-10-07T11:54:24.000Z</time>
</trkpt>
<trkpt lat="45.9314210" lon="9.5614620">
	<ele>1487.80</ele>
	<time>2023-10-07T11:54:25.000Z</time>
</trkpt>
<trkpt lat="45.9314190" lon="9.5614750">
	<ele>1487.60</ele>
	<time>2023-10-07T11:54:26.000Z</time>
</trkpt>
<trkpt lat="45.9314190" lon="9.5614870">
	<ele>1487.40</ele>
	<time>2023-10-07T11:54:27.000Z</time>
</trkpt>
<trkpt lat="45.9314190" lon="9.5615020">
	<ele>1487.40</ele>
	<time>2023-10-07T11:54:28.000Z</time>
</trkpt>
<trkpt lat="45.9314150" lon="9.5615190">
	<ele>1487.20</ele>
	<time>2023-10-07T11:54:29.000Z</time>
</trkpt>
<trkpt lat="45.9314130" lon="9.5615370">
	<ele>1487.20</ele>
	<time>2023-10-07T11:54:30.000Z</time>
</trkpt>
<trkpt lat="45.9314130" lon="9.5615560">
	<ele>1487.20</ele>
	<time>2023-10-07T11:54:31.000Z</time>
</trkpt>
<trkpt lat="45.9314170" lon="9.5615760">
	<ele>1487.20</ele>
	<time>2023-10-07T11:54:32.000Z</time>
</trkpt>
<trkpt lat="45.9314220" lon="9.5615960">
	<ele>1487.20</ele>
	<time>2023-10-07T11:54:33.000Z</time>
</trkpt>
<trkpt lat="45.9314260" lon="9.5616120">
	<ele>1487.20</ele>
	<time>2023-10-07T11:54:34.000Z</time>
</trkpt>
<trkpt lat="45.9314280" lon="9.5616290">
	<ele>1487.40</ele>
	<time>2023-10-07T11:54:35.000Z</time>
</trkpt>
<trkpt lat="45.9314300" lon="9.5616490">
	<ele>1487.40</ele>
	<time>2023-10-07T11:54:36.000Z</time>
</trkpt>
<trkpt lat="45.9314290" lon="9.5616710">
	<ele>1487.40</ele>
	<time>2023-10-07T11:54:37.000Z</time>
</trkpt>
<trkpt lat="45.9314270" lon="9.5616880">
	<ele>1487.40</ele>
	<time>2023-10-07T11:54:38.000Z</time>
</trkpt>
<trkpt lat="45.9314260" lon="9.5617020">
	<ele>1487.60</ele>
	<time>2023-10-07T11:54:39.000Z</time>
</trkpt>
<trkpt lat="45.9314270" lon="9.5617160">
	<ele>1487.40</ele>
	<time>2023-10-07T11:54:40.000Z</time>
</trkpt>
<trkpt lat="45.9314290" lon="9.5617340">
	<ele>1487.40</ele>
	<time>2023-10-07T11:54:41.000Z</time>
</trkpt>
<trkpt lat="45.9314280" lon="9.5617470">
	<ele>1487.20</ele>
	<time>2023-10-07T11:54:42.000Z</time>
</trkpt>
<trkpt lat="45.9314290" lon="9.5617530">
	<ele>1487.20</ele>
	<time>2023-10-07T11:54:43.000Z</time>
</trkpt>
<trkpt lat="45.9314300" lon="9.5617580">
	<ele>1487.00</ele>
	<time>2023-10-07T11:54:44.000Z</time>
</trkpt>
<trkpt lat="45.9314300" lon="9.5617580">
	<ele>1487.00</ele>
	<time>2023-10-07T11:54:45.000Z</time>
</trkpt>
<trkpt lat="45.9314290" lon="9.5617590">
	<ele>1486.80</ele>
	<time>2023-10-07T11:54:46.000Z</time>
</trkpt>
<trkpt lat="45.9314300" lon="9.5617600">
	<ele>1486.80</ele>
	<time>2023-10-07T11:54:47.000Z</time>
</trkpt>
<trkpt lat="45.9314310" lon="9.5617640">
	<ele>1486.80</ele>
	<time>2023-10-07T11:54:48.000Z</time>
</trkpt>
<trkpt lat="45.9314310" lon="9.5617730">
	<ele>1486.80</ele>
	<time>2023-10-07T11:54:49.000Z</time>
</trkpt>
<trkpt lat="45.9314330" lon="9.5617910">
	<ele>1486.80</ele>
	<time>2023-10-07T11:54:50.000Z</time>
</trkpt>
<trkpt lat="45.9314360" lon="9.5618150">
	<ele>1486.80</ele>
	<time>2023-10-07T11:54:51.000Z</time>
</trkpt>
<trkpt lat="45.9314390" lon="9.5618340">
	<ele>1486.80</ele>
	<time>2023-10-07T11:54:52.000Z</time>
</trkpt>
<trkpt lat="45.9314400" lon="9.5618480">
	<ele>1486.80</ele>
	<time>2023-10-07T11:54:53.000Z</time>
</trkpt>
<trkpt lat="45.9314440" lon="9.5618670">
	<ele>1486.80</ele>
	<time>2023-10-07T11:54:54.000Z</time>
</trkpt>
<trkpt lat="45.9314500" lon="9.5618830">
	<ele>1486.60</ele>
	<time>2023-10-07T11:54:55.000Z</time>
</trkpt>
<trkpt lat="45.9314530" lon="9.5619010">
	<ele>1486.60</ele>
	<time>2023-10-07T11:54:56.000Z</time>
</trkpt>
<trkpt lat="45.9314530" lon="9.5619230">
	<ele>1486.80</ele>
	<time>2023-10-07T11:54:57.000Z</time>
</trkpt>
<trkpt lat="45.9314490" lon="9.5619460">
	<ele>1486.60</ele>
	<time>2023-10-07T11:54:58.000Z</time>
</trkpt>
<trkpt lat="45.9314410" lon="9.5619630">
	<ele>1486.60</ele>
	<time>2023-10-07T11:54:59.000Z</time>
</trkpt>
<trkpt lat="45.9314330" lon="9.5619780">
	<ele>1486.60</ele>
	<time>2023-10-07T11:55:00.000Z</time>
</trkpt>
<trkpt lat="45.9314240" lon="9.5619930">
	<ele>1486.60</ele>
	<time>2023-10-07T11:55:01.000Z</time>
</trkpt>
<trkpt lat="45.9314160" lon="9.5620020">
	<ele>1486.60</ele>
	<time>2023-10-07T11:55:02.000Z</time>
</trkpt>
<trkpt lat="45.9314080" lon="9.5620110">
	<ele>1486.60</ele>
	<time>2023-10-07T11:55:03.000Z</time>
</trkpt>
<trkpt lat="45.9313990" lon="9.5620220">
	<ele>1486.60</ele>
	<time>2023-10-07T11:55:04.000Z</time>
</trkpt>
<trkpt lat="45.9313880" lon="9.5620320">
	<ele>1486.60</ele>
	<time>2023-10-07T11:55:05.000Z</time>
</trkpt>
<trkpt lat="45.9313740" lon="9.5620460">
	<ele>1486.60</ele>
	<time>2023-10-07T11:55:06.000Z</time>
</trkpt>
<trkpt lat="45.9313640" lon="9.5620590">
	<ele>1486.60</ele>
	<time>2023-10-07T11:55:07.000Z</time>
</trkpt>
<trkpt lat="45.9313530" lon="9.5620720">
	<ele>1486.60</ele>
	<time>2023-10-07T11:55:08.000Z</time>
</trkpt>
<trkpt lat="45.9313440" lon="9.5620810">
	<ele>1486.60</ele>
	<time>2023-10-07T11:55:09.000Z</time>
</trkpt>
<trkpt lat="45.9313350" lon="9.5620910">
	<ele>1486.80</ele>
	<time>2023-10-07T11:55:10.000Z</time>
</trkpt>
<trkpt lat="45.9313240" lon="9.5620980">
	<ele>1486.80</ele>
	<time>2023-10-07T11:55:11.000Z</time>
</trkpt>
<trkpt lat="45.9313140" lon="9.5621030">
	<ele>1486.80</ele>
	<time>2023-10-07T11:55:12.000Z</time>
</trkpt>
<trkpt lat="45.9313020" lon="9.5621060">
	<ele>1487.00</ele>
	<time>2023-10-07T11:55:13.000Z</time>
</trkpt>
<trkpt lat="45.9312890" lon="9.5621110">
	<ele>1487.00</ele>
	<time>2023-10-07T11:55:14.000Z</time>
</trkpt>
<trkpt lat="45.9312790" lon="9.5621150">
	<ele>1487.20</ele>
	<time>2023-10-07T11:55:15.000Z</time>
</trkpt>
<trkpt lat="45.9312670" lon="9.5621140">
	<ele>1487.20</ele>
	<time>2023-10-07T11:55:16.000Z</time>
</trkpt>
<trkpt lat="45.9312540" lon="9.5621080">
	<ele>1487.40</ele>
	<time>2023-10-07T11:55:17.000Z</time>
</trkpt>
<trkpt lat="45.9312430" lon="9.5621050">
	<ele>1487.40</ele>
	<time>2023-10-07T11:55:18.000Z</time>
</trkpt>
<trkpt lat="45.9312340" lon="9.5621030">
	<ele>1487.60</ele>
	<time>2023-10-07T11:55:19.000Z</time>
</trkpt>
<trkpt lat="45.9312270" lon="9.5621020">
	<ele>1487.80</ele>
	<time>2023-10-07T11:55:20.000Z</time>
</trkpt>
<trkpt lat="45.9312150" lon="9.5621000">
	<ele>1487.80</ele>
	<time>2023-10-07T11:55:21.000Z</time>
</trkpt>
<trkpt lat="45.9312020" lon="9.5620960">
	<ele>1488.00</ele>
	<time>2023-10-07T11:55:22.000Z</time>
</trkpt>
<trkpt lat="45.9311890" lon="9.5620960">
	<ele>1488.00</ele>
	<time>2023-10-07T11:55:23.000Z</time>
</trkpt>
<trkpt lat="45.9311780" lon="9.5620980">
	<ele>1488.20</ele>
	<time>2023-10-07T11:55:24.000Z</time>
</trkpt>
<trkpt lat="45.9311720" lon="9.5620990">
	<ele>1488.60</ele>
	<time>2023-10-07T11:55:25.000Z</time>
</trkpt>
<trkpt lat="45.9311650" lon="9.5620990">
	<ele>1488.80</ele>
	<time>2023-10-07T11:55:26.000Z</time>
</trkpt>
<trkpt lat="45.9311560" lon="9.5620980">
	<ele>1489.20</ele>
	<time>2023-10-07T11:55:27.000Z</time>
</trkpt>
<trkpt lat="45.9311530" lon="9.5620960">
	<ele>1489.60</ele>
	<time>2023-10-07T11:55:28.000Z</time>
</trkpt>
<trkpt lat="45.9311430" lon="9.5620940">
	<ele>1489.80</ele>
	<time>2023-10-07T11:55:29.000Z</time>
</trkpt>
<trkpt lat="45.9311360" lon="9.5620920">
	<ele>1490.00</ele>
	<time>2023-10-07T11:55:30.000Z</time>
</trkpt>
<trkpt lat="45.9311290" lon="9.5620840">
	<ele>1490.40</ele>
	<time>2023-10-07T11:55:31.000Z</time>
</trkpt>
<trkpt lat="45.9311220" lon="9.5620750">
	<ele>1490.60</ele>
	<time>2023-10-07T11:55:32.000Z</time>
</trkpt>
<trkpt lat="45.9311140" lon="9.5620670">
	<ele>1490.80</ele>
	<time>2023-10-07T11:55:33.000Z</time>
</trkpt>
<trkpt lat="45.9311020" lon="9.5620620">
	<ele>1491.00</ele>
	<time>2023-10-07T11:55:34.000Z</time>
</trkpt>
<trkpt lat="45.9310920" lon="9.5620540">
	<ele>1491.20</ele>
	<time>2023-10-07T11:55:35.000Z</time>
</trkpt>
<trkpt lat="45.9310830" lon="9.5620490">
	<ele>1491.40</ele>
	<time>2023-10-07T11:55:36.000Z</time>
</trkpt>
<trkpt lat="45.9310750" lon="9.5620460">
	<ele>1491.60</ele>
	<time>2023-10-07T11:55:37.000Z</time>
</trkpt>
<trkpt lat="45.9310680" lon="9.5620480">
	<ele>1491.60</ele>
	<time>2023-10-07T11:55:38.000Z</time>
</trkpt>
<trkpt lat="45.9310610" lon="9.5620480">
	<ele>1492.00</ele>
	<time>2023-10-07T11:55:39.000Z</time>
</trkpt>
<trkpt lat="45.9310550" lon="9.5620440">
	<ele>1492.20</ele>
	<time>2023-10-07T11:55:40.000Z</time>
</trkpt>
<trkpt lat="45.9310500" lon="9.5620460">
	<ele>1492.60</ele>
	<time>2023-10-07T11:55:41.000Z</time>
</trkpt>
<trkpt lat="45.9310430" lon="9.5620480">
	<ele>1492.80</ele>
	<time>2023-10-07T11:55:42.000Z</time>
</trkpt>
<trkpt lat="45.9310360" lon="9.5620500">
	<ele>1493.00</ele>
	<time>2023-10-07T11:55:43.000Z</time>
</trkpt>
<trkpt lat="45.9310310" lon="9.5620520">
	<ele>1493.20</ele>
	<time>2023-10-07T11:55:44.000Z</time>
</trkpt>
<trkpt lat="45.9310240" lon="9.5620510">
	<ele>1493.40</ele>
	<time>2023-10-07T11:55:45.000Z</time>
</trkpt>
<trkpt lat="45.9310170" lon="9.5620500">
	<ele>1493.60</ele>
	<time>2023-10-07T11:55:46.000Z</time>
</trkpt>
<trkpt lat="45.9310080" lon="9.5620510">
	<ele>1494.00</ele>
	<time>2023-10-07T11:55:47.000Z</time>
</trkpt>
<trkpt lat="45.9309990" lon="9.5620490">
	<ele>1494.20</ele>
	<time>2023-10-07T11:55:48.000Z</time>
</trkpt>
<trkpt lat="45.9309960" lon="9.5620470">
	<ele>1494.40</ele>
	<time>2023-10-07T11:55:49.000Z</time>
</trkpt>
<trkpt lat="45.9309910" lon="9.5620400">
	<ele>1494.40</ele>
	<time>2023-10-07T11:55:50.000Z</time>
</trkpt>
<trkpt lat="45.9309870" lon="9.5620330">
	<ele>1494.80</ele>
	<time>2023-10-07T11:55:51.000Z</time>
</trkpt>
<trkpt lat="45.9309820" lon="9.5620220">
	<ele>1495.00</ele>
	<time>2023-10-07T11:55:52.000Z</time>
</trkpt>
<trkpt lat="45.9309750" lon="9.5620140">
	<ele>1495.40</ele>
	<time>2023-10-07T11:55:53.000Z</time>
</trkpt>
<trkpt lat="45.9309700" lon="9.5620060">
	<ele>1495.60</ele>
	<time>2023-10-07T11:55:54.000Z</time>
</trkpt>
<trkpt lat="45.9309670" lon="9.5619980">
	<ele>1495.80</ele>
	<time>2023-10-07T11:55:55.000Z</time>
</trkpt>
<trkpt lat="45.9309640" lon="9.5619930">
	<ele>1496.00</ele>
	<time>2023-10-07T11:55:56.000Z</time>
</trkpt>
<trkpt lat="45.9309620" lon="9.5619900">
	<ele>1496.20</ele>
	<time>2023-10-07T11:55:57.000Z</time>
</trkpt>
<trkpt lat="45.9309620" lon="9.5619880">
	<ele>1496.40</ele>
	<time>2023-10-07T11:55:58.000Z</time>
</trkpt>
<trkpt lat="45.9309620" lon="9.5619870">
	<ele>1496.40</ele>
	<time>2023-10-07T11:55:59.000Z</time>
</trkpt>
<trkpt lat="45.9309630" lon="9.5619840">
	<ele>1496.60</ele>
	<time>2023-10-07T11:56:00.000Z</time>
</trkpt>
<trkpt lat="45.9309620" lon="9.5619840">
	<ele>1496.60</ele>
	<time>2023-10-07T11:56:01.000Z</time>
</trkpt>
<trkpt lat="45.9309620" lon="9.5619830">
	<ele>1496.80</ele>
	<time>2023-10-07T11:56:02.000Z</time>
</trkpt>
<trkpt lat="45.9309620" lon="9.5619820">
	<ele>1496.80</ele>
	<time>2023-10-07T11:56:03.000Z</time>
</trkpt>
<trkpt lat="45.9309630" lon="9.5619820">
	<ele>1496.80</ele>
	<time>2023-10-07T11:56:04.000Z</time>
</trkpt>
<trkpt lat="45.9309630" lon="9.5619830">
	<ele>1496.80</ele>
	<time>2023-10-07T11:56:05.000Z</time>
</trkpt>
<trkpt lat="45.9309620" lon="9.5619840">
	<ele>1496.80</ele>
	<time>2023-10-07T11:56:06.000Z</time>
</trkpt>
<trkpt lat="45.9309600" lon="9.5619850">
	<ele>1496.80</ele>
	<time>2023-10-07T11:56:07.000Z</time>
</trkpt>
<trkpt lat="45.9309590" lon="9.5619850">
	<ele>1496.80</ele>
	<time>2023-10-07T11:56:08.000Z</time>
</trkpt>
<trkpt lat="45.9309590" lon="9.5619850">
	<ele>1496.60</ele>
	<time>2023-10-07T11:56:09.000Z</time>
</trkpt>
<trkpt lat="45.9309580" lon="9.5619840">
	<ele>1496.60</ele>
	<time>2023-10-07T11:56:10.000Z</time>
</trkpt>
<trkpt lat="45.9309570" lon="9.5619810">
	<ele>1496.60</ele>
	<time>2023-10-07T11:56:11.000Z</time>
</trkpt>
<trkpt lat="45.9309560" lon="9.5619710">
	<ele>1496.60</ele>
	<time>2023-10-07T11:56:12.000Z</time>
</trkpt>
<trkpt lat="45.9309530" lon="9.5619580">
	<ele>1496.60</ele>
	<time>2023-10-07T11:56:13.000Z</time>
</trkpt>
<trkpt lat="45.9309530" lon="9.5619430">
	<ele>1496.60</ele>
	<time>2023-10-07T11:56:14.000Z</time>
</trkpt>
<trkpt lat="45.9309520" lon="9.5619280">
	<ele>1496.80</ele>
	<time>2023-10-07T11:56:15.000Z</time>
</trkpt>
<trkpt lat="45.9309500" lon="9.5619130">
	<ele>1497.00</ele>
	<time>2023-10-07T11:56:16.000Z</time>
</trkpt>
<trkpt lat="45.9309460" lon="9.5619040">
	<ele>1497.00</ele>
	<time>2023-10-07T11:56:17.000Z</time>
</trkpt>
<trkpt lat="45.9309390" lon="9.5618970">
	<ele>1497.20</ele>
	<time>2023-10-07T11:56:18.000Z</time>
</trkpt>
<trkpt lat="45.9309310" lon="9.5618860">
	<ele>1497.20</ele>
	<time>2023-10-07T11:56:19.000Z</time>
</trkpt>
<trkpt lat="45.9309220" lon="9.5618760">
	<ele>1497.20</ele>
	<time>2023-10-07T11:56:20.000Z</time>
</trkpt>
<trkpt lat="45.9309110" lon="9.5618710">
	<ele>1497.20</ele>
	<time>2023-10-07T11:56:21.000Z</time>
</trkpt>
<trkpt lat="45.9308990" lon="9.5618630">
	<ele>1497.20</ele>
	<time>2023-10-07T11:56:22.000Z</time>
</trkpt>
<trkpt lat="45.9308860" lon="9.5618570">
	<ele>1497.20</ele>
	<time>2023-10-07T11:56:23.000Z</time>
</trkpt>
<trkpt lat="45.9308740" lon="9.5618490">
	<ele>1497.20</ele>
	<time>2023-10-07T11:56:24.000Z</time>
</trkpt>
<trkpt lat="45.9308620" lon="9.5618420">
	<ele>1497.20</ele>
	<time>2023-10-07T11:56:25.000Z</time>
</trkpt>
<trkpt lat="45.9308510" lon="9.5618360">
	<ele>1497.40</ele>
	<time>2023-10-07T11:56:26.000Z</time>
</trkpt>
<trkpt lat="45.9308400" lon="9.5618300">
	<ele>1497.40</ele>
	<time>2023-10-07T11:56:27.000Z</time>
</trkpt>
<trkpt lat="45.9308290" lon="9.5618240">
	<ele>1497.40</ele>
	<time>2023-10-07T11:56:28.000Z</time>
</trkpt>
<trkpt lat="45.9308180" lon="9.5618160">
	<ele>1497.40</ele>
	<time>2023-10-07T11:56:29.000Z</time>
</trkpt>
<trkpt lat="45.9308060" lon="9.5618060">
	<ele>1497.40</ele>
	<time>2023-10-07T11:56:30.000Z</time>
</trkpt>
<trkpt lat="45.9307920" lon="9.5617940">
	<ele>1497.20</ele>
	<time>2023-10-07T11:56:31.000Z</time>
</trkpt>
<trkpt lat="45.9307790" lon="9.5617870">
	<ele>1497.20</ele>
	<time>2023-10-07T11:56:32.000Z</time>
</trkpt>
<trkpt lat="45.9307670" lon="9.5617820">
	<ele>1497.00</ele>
	<time>2023-10-07T11:56:33.000Z</time>
</trkpt>
<trkpt lat="45.9307510" lon="9.5617790">
	<ele>1497.00</ele>
	<time>2023-10-07T11:56:34.000Z</time>
</trkpt>
<trkpt lat="45.9307400" lon="9.5617750">
	<ele>1497.00</ele>
	<time>2023-10-07T11:56:35.000Z</time>
</trkpt>
<trkpt lat="45.9307280" lon="9.5617760">
	<ele>1496.80</ele>
	<time>2023-10-07T11:56:36.000Z</time>
</trkpt>
<trkpt lat="45.9307140" lon="9.5617760">
	<ele>1496.80</ele>
	<time>2023-10-07T11:56:37.000Z</time>
</trkpt>
<trkpt lat="45.9307020" lon="9.5617740">
	<ele>1496.80</ele>
	<time>2023-10-07T11:56:38.000Z</time>
</trkpt>
<trkpt lat="45.9306890" lon="9.5617700">
	<ele>1496.80</ele>
	<time>2023-10-07T11:56:39.000Z</time>
</trkpt>
<trkpt lat="45.9306810" lon="9.5617640">
	<ele>1496.80</ele>
	<time>2023-10-07T11:56:40.000Z</time>
</trkpt>
<trkpt lat="45.9306720" lon="9.5617590">
	<ele>1496.80</ele>
	<time>2023-10-07T11:56:41.000Z</time>
</trkpt>
<trkpt lat="45.9306640" lon="9.5617570">
	<ele>1496.80</ele>
	<time>2023-10-07T11:56:42.000Z</time>
</trkpt>
<trkpt lat="45.9306540" lon="9.5617550">
	<ele>1496.80</ele>
	<time>2023-10-07T11:56:43.000Z</time>
</trkpt>
<trkpt lat="45.9306430" lon="9.5617570">
	<ele>1496.80</ele>
	<time>2023-10-07T11:56:44.000Z</time>
</trkpt>
<trkpt lat="45.9306330" lon="9.5617610">
	<ele>1497.00</ele>
	<time>2023-10-07T11:56:45.000Z</time>
</trkpt>
<trkpt lat="45.9306210" lon="9.5617660">
	<ele>1497.00</ele>
	<time>2023-10-07T11:56:46.000Z</time>
</trkpt>
<trkpt lat="45.9306110" lon="9.5617720">
	<ele>1497.20</ele>
	<time>2023-10-07T11:56:47.000Z</time>
</trkpt>
<trkpt lat="45.9306010" lon="9.5617760">
	<ele>1497.40</ele>
	<time>2023-10-07T11:56:48.000Z</time>
</trkpt>
<trkpt lat="45.9305920" lon="9.5617840">
	<ele>1497.60</ele>
	<time>2023-10-07T11:56:49.000Z</time>
</trkpt>
<trkpt lat="45.9305860" lon="9.5617940">
	<ele>1497.60</ele>
	<time>2023-10-07T11:56:50.000Z</time>
</trkpt>
<trkpt lat="45.9305830" lon="9.5618050">
	<ele>1497.80</ele>
	<time>2023-10-07T11:56:51.000Z</time>
</trkpt>
<trkpt lat="45.9305840" lon="9.5618170">
	<ele>1497.80</ele>
	<time>2023-10-07T11:56:52.000Z</time>
</trkpt>
<trkpt lat="45.9305790" lon="9.5618330">
	<ele>1498.00</ele>
	<time>2023-10-07T11:56:53.000Z</time>
</trkpt>
<trkpt lat="45.9305730" lon="9.5618450">
	<ele>1498.40</ele>
	<time>2023-10-07T11:56:54.000Z</time>
</trkpt>
<trkpt lat="45.9305650" lon="9.5618530">
	<ele>1498.60</ele>
	<time>2023-10-07T11:56:55.000Z</time>
</trkpt>
<trkpt lat="45.9305610" lon="9.5618650">
	<ele>1498.80</ele>
	<time>2023-10-07T11:56:56.000Z</time>
</trkpt>
<trkpt lat="45.9305560" lon="9.5618780">
	<ele>1499.20</ele>
	<time>2023-10-07T11:56:57.000Z</time>
</trkpt>
<trkpt lat="45.9305510" lon="9.5618850">
	<ele>1499.60</ele>
	<time>2023-10-07T11:56:58.000Z</time>
</trkpt>
<trkpt lat="45.9305420" lon="9.5618890">
	<ele>1499.80</ele>
	<time>2023-10-07T11:56:59.000Z</time>
</trkpt>
<trkpt lat="45.9305340" lon="9.5618970">
	<ele>1500.00</ele>
	<time>2023-10-07T11:57:00.000Z</time>
</trkpt>
<trkpt lat="45.9305240" lon="9.5619140">
	<ele>1500.20</ele>
	<time>2023-10-07T11:57:01.000Z</time>
</trkpt>
<trkpt lat="45.9305180" lon="9.5619260">
	<ele>1500.20</ele>
	<time>2023-10-07T11:57:02.000Z</time>
</trkpt>
<trkpt lat="45.9305070" lon="9.5619300">
	<ele>1500.40</ele>
	<time>2023-10-07T11:57:03.000Z</time>
</trkpt>
<trkpt lat="45.9304960" lon="9.5619340">
	<ele>1500.60</ele>
	<time>2023-10-07T11:57:04.000Z</time>
</trkpt>
<trkpt lat="45.9304870" lon="9.5619390">
	<ele>1500.80</ele>
	<time>2023-10-07T11:57:05.000Z</time>
</trkpt>
<trkpt lat="45.9304770" lon="9.5619460">
	<ele>1501.00</ele>
	<time>2023-10-07T11:57:06.000Z</time>
</trkpt>
<trkpt lat="45.9304680" lon="9.5619550">
	<ele>1501.00</ele>
	<time>2023-10-07T11:57:07.000Z</time>
</trkpt>
<trkpt lat="45.9304610" lon="9.5619590">
	<ele>1501.00</ele>
	<time>2023-10-07T11:57:08.000Z</time>
</trkpt>
<trkpt lat="45.9304570" lon="9.5619610">
	<ele>1501.00</ele>
	<time>2023-10-07T11:57:09.000Z</time>
</trkpt>
<trkpt lat="45.9304540" lon="9.5619680">
	<ele>1501.00</ele>
	<time>2023-10-07T11:57:10.000Z</time>
</trkpt>
<trkpt lat="45.9304490" lon="9.5619770">
	<ele>1500.80</ele>
	<time>2023-10-07T11:57:11.000Z</time>
</trkpt>
<trkpt lat="45.9304420" lon="9.5619860">
	<ele>1500.60</ele>
	<time>2023-10-07T11:57:12.000Z</time>
</trkpt>
<trkpt lat="45.9304370" lon="9.5619960">
	<ele>1500.40</ele>
	<time>2023-10-07T11:57:13.000Z</time>
</trkpt>
<trkpt lat="45.9304340" lon="9.5620100">
	<ele>1500.40</ele>
	<time>2023-10-07T11:57:14.000Z</time>
</trkpt>
<trkpt lat="45.9304310" lon="9.5620210">
	<ele>1500.20</ele>
	<time>2023-10-07T11:57:15.000Z</time>
</trkpt>
<trkpt lat="45.9304270" lon="9.5620270">
	<ele>1499.80</ele>
	<time>2023-10-07T11:57:16.000Z</time>
</trkpt>
<trkpt lat="45.9304220" lon="9.5620340">
	<ele>1499.80</ele>
	<time>2023-10-07T11:57:17.000Z</time>
</trkpt>
<trkpt lat="45.9304170" lon="9.5620470">
	<ele>1499.60</ele>
	<time>2023-10-07T11:57:18.000Z</time>
</trkpt>
<trkpt lat="45.9304150" lon="9.5620660">
	<ele>1499.40</ele>
	<time>2023-10-07T11:57:19.000Z</time>
</trkpt>
<trkpt lat="45.9304150" lon="9.5620820">
	<ele>1499.40</ele>
	<time>2023-10-07T11:57:20.000Z</time>
</trkpt>
<trkpt lat="45.9304140" lon="9.5620950">
	<ele>1499.20</ele>
	<time>2023-10-07T11:57:21.000Z</time>
</trkpt>
<trkpt lat="45.9304130" lon="9.5621080">
	<ele>1499.00</ele>
	<time>2023-10-07T11:57:22.000Z</time>
</trkpt>
<trkpt lat="45.9304110" lon="9.5621270">
	<ele>1498.60</ele>
	<time>2023-10-07T11:57:23.000Z</time>
</trkpt>
<trkpt lat="45.9304130" lon="9.5621470">
	<ele>1498.20</ele>
	<time>2023-10-07T11:57:24.000Z</time>
</trkpt>
<trkpt lat="45.9304150" lon="9.5621620">
	<ele>1498.00</ele>
	<time>2023-10-07T11:57:25.000Z</time>
</trkpt>
<trkpt lat="45.9304150" lon="9.5621710">
	<ele>1497.80</ele>
	<time>2023-10-07T11:57:26.000Z</time>
</trkpt>
<trkpt lat="45.9304170" lon="9.5621820">
	<ele>1497.80</ele>
	<time>2023-10-07T11:57:27.000Z</time>
</trkpt>
<trkpt lat="45.9304180" lon="9.5621940">
	<ele>1497.60</ele>
	<time>2023-10-07T11:57:28.000Z</time>
</trkpt>
<trkpt lat="45.9304210" lon="9.5622090">
	<ele>1497.60</ele>
	<time>2023-10-07T11:57:29.000Z</time>
</trkpt>
<trkpt lat="45.9304200" lon="9.5622300">
	<ele>1497.60</ele>
	<time>2023-10-07T11:57:30.000Z</time>
</trkpt>
<trkpt lat="45.9304170" lon="9.5622490">
	<ele>1497.60</ele>
	<time>2023-10-07T11:57:31.000Z</time>
</trkpt>
<trkpt lat="45.9304180" lon="9.5622690">
	<ele>1497.60</ele>
	<time>2023-10-07T11:57:32.000Z</time>
</trkpt>
<trkpt lat="45.9304200" lon="9.5622860">
	<ele>1497.80</ele>
	<time>2023-10-07T11:57:33.000Z</time>
</trkpt>
<trkpt lat="45.9304220" lon="9.5623000">
	<ele>1498.00</ele>
	<time>2023-10-07T11:57:34.000Z</time>
</trkpt>
<trkpt lat="45.9304280" lon="9.5623140">
	<ele>1498.20</ele>
	<time>2023-10-07T11:57:35.000Z</time>
</trkpt>
<trkpt lat="45.9304360" lon="9.5623260">
	<ele>1498.20</ele>
	<time>2023-10-07T11:57:36.000Z</time>
</trkpt>
<trkpt lat="45.9304400" lon="9.5623420">
	<ele>1498.20</ele>
	<time>2023-10-07T11:57:37.000Z</time>
</trkpt>
<trkpt lat="45.9304460" lon="9.5623560">
	<ele>1498.40</ele>
	<time>2023-10-07T11:57:38.000Z</time>
</trkpt>
<trkpt lat="45.9304560" lon="9.5623680">
	<ele>1498.40</ele>
	<time>2023-10-07T11:57:39.000Z</time>
</trkpt>
<trkpt lat="45.9304610" lon="9.5623790">
	<ele>1498.60</ele>
	<time>2023-10-07T11:57:40.000Z</time>
</trkpt>
<trkpt lat="45.9304610" lon="9.5623890">
	<ele>1498.60</ele>
	<time>2023-10-07T11:57:41.000Z</time>
</trkpt>
<trkpt lat="45.9304640" lon="9.5623950">
	<ele>1498.60</ele>
	<time>2023-10-07T11:57:42.000Z</time>
</trkpt>
<trkpt lat="45.9304660" lon="9.5623950">
	<ele>1498.60</ele>
	<time>2023-10-07T11:57:43.000Z</time>
</trkpt>
<trkpt lat="45.9304690" lon="9.5623980">
	<ele>1498.60</ele>
	<time>2023-10-07T11:57:44.000Z</time>
</trkpt>
<trkpt lat="45.9304710" lon="9.5624090">
	<ele>1498.60</ele>
	<time>2023-10-07T11:57:45.000Z</time>
</trkpt>
<trkpt lat="45.9304760" lon="9.5624240">
	<ele>1498.60</ele>
	<time>2023-10-07T11:57:46.000Z</time>
</trkpt>
<trkpt lat="45.9304820" lon="9.5624410">
	<ele>1498.60</ele>
	<time>2023-10-07T11:57:47.000Z</time>
</trkpt>
<trkpt lat="45.9304870" lon="9.5624610">
	<ele>1498.60</ele>
	<time>2023-10-07T11:57:48.000Z</time>
</trkpt>
<trkpt lat="45.9304880" lon="9.5624930">
	<ele>1498.60</ele>
	<time>2023-10-07T11:57:49.000Z</time>
</trkpt>
<trkpt lat="45.9304880" lon="9.5625110">
	<ele>1498.60</ele>
	<time>2023-10-07T11:57:50.000Z</time>
</trkpt>
<trkpt lat="45.9304960" lon="9.5625310">
	<ele>1498.60</ele>
	<time>2023-10-07T11:57:51.000Z</time>
</trkpt>
<trkpt lat="45.9304990" lon="9.5625470">
	<ele>1498.80</ele>
	<time>2023-10-07T11:57:52.000Z</time>
</trkpt>
<trkpt lat="45.9304930" lon="9.5625630">
	<ele>1499.00</ele>
	<time>2023-10-07T11:57:53.000Z</time>
</trkpt>
<trkpt lat="45.9304860" lon="9.5625790">
	<ele>1499.20</ele>
	<time>2023-10-07T11:57:54.000Z</time>
</trkpt>
<trkpt lat="45.9304780" lon="9.5626020">
	<ele>1499.20</ele>
	<time>2023-10-07T11:57:55.000Z</time>
</trkpt>
<trkpt lat="45.9304840" lon="9.5626230">
	<ele>1499.40</ele>
	<time>2023-10-07T11:57:56.000Z</time>
</trkpt>
<trkpt lat="45.9304870" lon="9.5626330">
	<ele>1499.40</ele>
	<time>2023-10-07T11:57:57.000Z</time>
</trkpt>
<trkpt lat="45.9304900" lon="9.5626520">
	<ele>1499.60</ele>
	<time>2023-10-07T11:57:58.000Z</time>
</trkpt>
<trkpt lat="45.9304920" lon="9.5626650">
	<ele>1499.60</ele>
	<time>2023-10-07T11:57:59.000Z</time>
</trkpt>
<trkpt lat="45.9304920" lon="9.5626820">
	<ele>1499.80</ele>
	<time>2023-10-07T11:58:00.000Z</time>
</trkpt>
<trkpt lat="45.9304950" lon="9.5626950">
	<ele>1499.80</ele>
	<time>2023-10-07T11:58:01.000Z</time>
</trkpt>
<trkpt lat="45.9305040" lon="9.5627080">
	<ele>1500.00</ele>
	<time>2023-10-07T11:58:02.000Z</time>
</trkpt>
<trkpt lat="45.9305140" lon="9.5627230">
	<ele>1500.00</ele>
	<time>2023-10-07T11:58:03.000Z</time>
</trkpt>
<trkpt lat="45.9305210" lon="9.5627330">
	<ele>1500.20</ele>
	<time>2023-10-07T11:58:04.000Z</time>
</trkpt>
<trkpt lat="45.9305250" lon="9.5627540">
	<ele>1500.20</ele>
	<time>2023-10-07T11:58:05.000Z</time>
</trkpt>
<trkpt lat="45.9305260" lon="9.5627730">
	<ele>1500.20</ele>
	<time>2023-10-07T11:58:06.000Z</time>
</trkpt>
<trkpt lat="45.9305290" lon="9.5627890">
	<ele>1500.20</ele>
	<time>2023-10-07T11:58:07.000Z</time>
</trkpt>
<trkpt lat="45.9305370" lon="9.5628060">
	<ele>1500.20</ele>
	<time>2023-10-07T11:58:08.000Z</time>
</trkpt>
<trkpt lat="45.9305470" lon="9.5628170">
	<ele>1500.20</ele>
	<time>2023-10-07T11:58:09.000Z</time>
</trkpt>
<trkpt lat="45.9305540" lon="9.5628320">
	<ele>1500.20</ele>
	<time>2023-10-07T11:58:10.000Z</time>
</trkpt>
<trkpt lat="45.9305570" lon="9.5628480">
	<ele>1500.20</ele>
	<time>2023-10-07T11:58:11.000Z</time>
</trkpt>
<trkpt lat="45.9305600" lon="9.5628650">
	<ele>1500.20</ele>
	<time>2023-10-07T11:58:12.000Z</time>
</trkpt>
<trkpt lat="45.9305640" lon="9.5628820">
	<ele>1500.20</ele>
	<time>2023-10-07T11:58:13.000Z</time>
</trkpt>
<trkpt lat="45.9305690" lon="9.5629010">
	<ele>1500.20</ele>
	<time>2023-10-07T11:58:14.000Z</time>
</trkpt>
<trkpt lat="45.9305760" lon="9.5629170">
	<ele>1500.20</ele>
	<time>2023-10-07T11:58:15.000Z</time>
</trkpt>
<trkpt lat="45.9305840" lon="9.5629340">
	<ele>1500.20</ele>
	<time>2023-10-07T11:58:16.000Z</time>
</trkpt>
<trkpt lat="45.9305910" lon="9.5629530">
	<ele>1500.20</ele>
	<time>2023-10-07T11:58:17.000Z</time>
</trkpt>
<trkpt lat="45.9305890" lon="9.5629710">
	<ele>1500.20</ele>
	<time>2023-10-07T11:58:18.000Z</time>
</trkpt>
<trkpt lat="45.9305880" lon="9.5629880">
	<ele>1500.40</ele>
	<time>2023-10-07T11:58:19.000Z</time>
</trkpt>
<trkpt lat="45.9305840" lon="9.5630040">
	<ele>1500.40</ele>
	<time>2023-10-07T11:58:20.000Z</time>
</trkpt>
<trkpt lat="45.9305860" lon="9.5630140">
	<ele>1500.60</ele>
	<time>2023-10-07T11:58:21.000Z</time>
</trkpt>
<trkpt lat="45.9305890" lon="9.5630300">
	<ele>1500.80</ele>
	<time>2023-10-07T11:58:22.000Z</time>
</trkpt>
<trkpt lat="45.9305910" lon="9.5630450">
	<ele>1500.80</ele>
	<time>2023-10-07T11:58:23.000Z</time>
</trkpt>
<trkpt lat="45.9305940" lon="9.5630640">
	<ele>1501.00</ele>
	<time>2023-10-07T11:58:24.000Z</time>
</trkpt>
<trkpt lat="45.9305930" lon="9.5630850">
	<ele>1501.20</ele>
	<time>2023-10-07T11:58:25.000Z</time>
</trkpt>
<trkpt lat="45.9305970" lon="9.5630980">
	<ele>1501.40</ele>
	<time>2023-10-07T11:58:26.000Z</time>
</trkpt>
<trkpt lat="45.9306050" lon="9.5631060">
	<ele>1501.60</ele>
	<time>2023-10-07T11:58:27.000Z</time>
</trkpt>
<trkpt lat="45.9306170" lon="9.5631170">
	<ele>1501.60</ele>
	<time>2023-10-07T11:58:28.000Z</time>
</trkpt>
<trkpt lat="45.9306280" lon="9.5631310">
	<ele>1501.80</ele>
	<time>2023-10-07T11:58:29.000Z</time>
</trkpt>
<trkpt lat="45.9306410" lon="9.5631460">
	<ele>1502.00</ele>
	<time>2023-10-07T11:58:30.000Z</time>
</trkpt>
<trkpt lat="45.9306480" lon="9.5631590">
	<ele>1502.00</ele>
	<time>2023-10-07T11:58:31.000Z</time>
</trkpt>
<trkpt lat="45.9306550" lon="9.5631740">
	<ele>1502.20</ele>
	<time>2023-10-07T11:58:32.000Z</time>
</trkpt>
<trkpt lat="45.9306590" lon="9.5631910">
	<ele>1502.20</ele>
	<time>2023-10-07T11:58:33.000Z</time>
</trkpt>
<trkpt lat="45.9306660" lon="9.5632030">
	<ele>1502.40</ele>
	<time>2023-10-07T11:58:34.000Z</time>
</trkpt>
<trkpt lat="45.9306690" lon="9.5632160">
	<ele>1502.60</ele>
	<time>2023-10-07T11:58:35.000Z</time>
</trkpt>
<trkpt lat="45.9306710" lon="9.5632250">
	<ele>1502.60</ele>
	<time>2023-10-07T11:58:36.000Z</time>
</trkpt>
<trkpt lat="45.9306810" lon="9.5632410">
	<ele>1502.80</ele>
	<time>2023-10-07T11:58:37.000Z</time>
</trkpt>
<trkpt lat="45.9306900" lon="9.5632570">
	<ele>1503.00</ele>
	<time>2023-10-07T11:58:38.000Z</time>
</trkpt>
<trkpt lat="45.9306920" lon="9.5632670">
	<ele>1503.20</ele>
	<time>2023-10-07T11:58:39.000Z</time>
</trkpt>
<trkpt lat="45.9306880" lon="9.5632810">
	<ele>1503.40</ele>
	<time>2023-10-07T11:58:40.000Z</time>
</trkpt>
<trkpt lat="45.9306850" lon="9.5632900">
	<ele>1503.80</ele>
	<time>2023-10-07T11:58:41.000Z</time>
</trkpt>
<trkpt lat="45.9306850" lon="9.5633060">
	<ele>1504.00</ele>
	<time>2023-10-07T11:58:42.000Z</time>
</trkpt>
<trkpt lat="45.9306760" lon="9.5633230">
	<ele>1504.20</ele>
	<time>2023-10-07T11:58:43.000Z</time>
</trkpt>
<trkpt lat="45.9306780" lon="9.5633330">
	<ele>1504.20</ele>
	<time>2023-10-07T11:58:44.000Z</time>
</trkpt>
<trkpt lat="45.9306670" lon="9.5633460">
	<ele>1504.40</ele>
	<time>2023-10-07T11:58:45.000Z</time>
</trkpt>
<trkpt lat="45.9306630" lon="9.5633520">
	<ele>1504.60</ele>
	<time>2023-10-07T11:58:46.000Z</time>
</trkpt>
<trkpt lat="45.9306560" lon="9.5633520">
	<ele>1504.80</ele>
	<time>2023-10-07T11:58:47.000Z</time>
</trkpt>
<trkpt lat="45.9306460" lon="9.5633570">
	<ele>1505.20</ele>
	<time>2023-10-07T11:58:48.000Z</time>
</trkpt>
<trkpt lat="45.9306400" lon="9.5633650">
	<ele>1505.40</ele>
	<time>2023-10-07T11:58:49.000Z</time>
</trkpt>
<trkpt lat="45.9306320" lon="9.5633720">
	<ele>1505.80</ele>
	<time>2023-10-07T11:58:50.000Z</time>
</trkpt>
<trkpt lat="45.9306220" lon="9.5633760">
	<ele>1506.00</ele>
	<time>2023-10-07T11:58:51.000Z</time>
</trkpt>
<trkpt lat="45.9306150" lon="9.5633770">
	<ele>1506.20</ele>
	<time>2023-10-07T11:58:52.000Z</time>
</trkpt>
<trkpt lat="45.9306060" lon="9.5633790">
	<ele>1506.40</ele>
	<time>2023-10-07T11:58:53.000Z</time>
</trkpt>
<trkpt lat="45.9306000" lon="9.5633820">
	<ele>1506.80</ele>
	<time>2023-10-07T11:58:54.000Z</time>
</trkpt>
<trkpt lat="45.9305920" lon="9.5633780">
	<ele>1507.00</ele>
	<time>2023-10-07T11:58:55.000Z</time>
</trkpt>
<trkpt lat="45.9305820" lon="9.5633790">
	<ele>1507.20</ele>
	<time>2023-10-07T11:58:56.000Z</time>
</trkpt>
<trkpt lat="45.9305700" lon="9.5633790">
	<ele>1507.40</ele>
	<time>2023-10-07T11:58:57.000Z</time>
</trkpt>
<trkpt lat="45.9305600" lon="9.5633750">
	<ele>1507.60</ele>
	<time>2023-10-07T11:58:58.000Z</time>
</trkpt>
<trkpt lat="45.9305540" lon="9.5633710">
	<ele>1507.60</ele>
	<time>2023-10-07T11:58:59.000Z</time>
</trkpt>
<trkpt lat="45.9305430" lon="9.5633630">
	<ele>1507.80</ele>
	<time>2023-10-07T11:59:00.000Z</time>
</trkpt>
<trkpt lat="45.9305370" lon="9.5633590">
	<ele>1508.00</ele>
	<time>2023-10-07T11:59:01.000Z</time>
</trkpt>
<trkpt lat="45.9305290" lon="9.5633520">
	<ele>1508.20</ele>
	<time>2023-10-07T11:59:02.000Z</time>
</trkpt>
<trkpt lat="45.9305220" lon="9.5633430">
	<ele>1508.20</ele>
	<time>2023-10-07T11:59:03.000Z</time>
</trkpt>
<trkpt lat="45.9305140" lon="9.5633390">
	<ele>1508.40</ele>
	<time>2023-10-07T11:59:04.000Z</time>
</trkpt>
<trkpt lat="45.9305030" lon="9.5633330">
	<ele>1508.40</ele>
	<time>2023-10-07T11:59:05.000Z</time>
</trkpt>
<trkpt lat="45.9304880" lon="9.5633290">
	<ele>1508.60</ele>
	<time>2023-10-07T11:59:06.000Z</time>
</trkpt>
<trkpt lat="45.9304680" lon="9.5633370">
	<ele>1508.80</ele>
	<time>2023-10-07T11:59:07.000Z</time>
</trkpt>
<trkpt lat="45.9304590" lon="9.5633410">
	<ele>1508.80</ele>
	<time>2023-10-07T11:59:08.000Z</time>
</trkpt>
<trkpt lat="45.9304470" lon="9.5633490">
	<ele>1509.00</ele>
	<time>2023-10-07T11:59:09.000Z</time>
</trkpt>
<trkpt lat="45.9304340" lon="9.5633550">
	<ele>1509.00</ele>
	<time>2023-10-07T11:59:10.000Z</time>
</trkpt>
<trkpt lat="45.9304230" lon="9.5633610">
	<ele>1509.20</ele>
	<time>2023-10-07T11:59:11.000Z</time>
</trkpt>
<trkpt lat="45.9304110" lon="9.5633630">
	<ele>1509.40</ele>
	<time>2023-10-07T11:59:12.000Z</time>
</trkpt>
<trkpt lat="45.9304050" lon="9.5633610">
	<ele>1509.40</ele>
	<time>2023-10-07T11:59:13.000Z</time>
</trkpt>
<trkpt lat="45.9303950" lon="9.5633660">
	<ele>1509.60</ele>
	<time>2023-10-07T11:59:14.000Z</time>
</trkpt>
<trkpt lat="45.9303830" lon="9.5633650">
	<ele>1510.00</ele>
	<time>2023-10-07T11:59:15.000Z</time>
</trkpt>
<trkpt lat="45.9303720" lon="9.5633640">
	<ele>1510.20</ele>
	<time>2023-10-07T11:59:16.000Z</time>
</trkpt>
<trkpt lat="45.9303620" lon="9.5633660">
	<ele>1510.40</ele>
	<time>2023-10-07T11:59:17.000Z</time>
</trkpt>
<trkpt lat="45.9303520" lon="9.5633790">
	<ele>1510.60</ele>
	<time>2023-10-07T11:59:18.000Z</time>
</trkpt>
<trkpt lat="45.9303430" lon="9.5633840">
	<ele>1510.80</ele>
	<time>2023-10-07T11:59:19.000Z</time>
</trkpt>
<trkpt lat="45.9303330" lon="9.5633870">
	<ele>1511.00</ele>
	<time>2023-10-07T11:59:20.000Z</time>
</trkpt>
<trkpt lat="45.9303220" lon="9.5633890">
	<ele>1511.20</ele>
	<time>2023-10-07T11:59:21.000Z</time>
</trkpt>
<trkpt lat="45.9303120" lon="9.5633940">
	<ele>1511.40</ele>
	<time>2023-10-07T11:59:22.000Z</time>
</trkpt>
<trkpt lat="45.9303070" lon="9.5633940">
	<ele>1511.60</ele>
	<time>2023-10-07T11:59:23.000Z</time>
</trkpt>
<trkpt lat="45.9303010" lon="9.5633900">
	<ele>1511.80</ele>
	<time>2023-10-07T11:59:24.000Z</time>
</trkpt>
<trkpt lat="45.9302930" lon="9.5633840">
	<ele>1512.00</ele>
	<time>2023-10-07T11:59:25.000Z</time>
</trkpt>
<trkpt lat="45.9302840" lon="9.5633810">
	<ele>1512.40</ele>
	<time>2023-10-07T11:59:26.000Z</time>
</trkpt>
<trkpt lat="45.9302740" lon="9.5633760">
	<ele>1512.60</ele>
	<time>2023-10-07T11:59:27.000Z</time>
</trkpt>
<trkpt lat="45.9302680" lon="9.5633750">
	<ele>1512.60</ele>
	<time>2023-10-07T11:59:28.000Z</time>
</trkpt>
<trkpt lat="45.9302570" lon="9.5633720">
	<ele>1512.80</ele>
	<time>2023-10-07T11:59:29.000Z</time>
</trkpt>
<trkpt lat="45.9302480" lon="9.5633660">
	<ele>1513.00</ele>
	<time>2023-10-07T11:59:30.000Z</time>
</trkpt>
<trkpt lat="45.9302420" lon="9.5633640">
	<ele>1513.40</ele>
	<time>2023-10-07T11:59:31.000Z</time>
</trkpt>
<trkpt lat="45.9302310" lon="9.5633660">
	<ele>1513.60</ele>
	<time>2023-10-07T11:59:32.000Z</time>
</trkpt>
<trkpt lat="45.9302220" lon="9.5633660">
	<ele>1513.60</ele>
	<time>2023-10-07T11:59:33.000Z</time>
</trkpt>
<trkpt lat="45.9302140" lon="9.5633620">
	<ele>1513.80</ele>
	<time>2023-10-07T11:59:34.000Z</time>
</trkpt>
<trkpt lat="45.9302020" lon="9.5633570">
	<ele>1514.20</ele>
	<time>2023-10-07T11:59:35.000Z</time>
</trkpt>
<trkpt lat="45.9301940" lon="9.5633530">
	<ele>1514.40</ele>
	<time>2023-10-07T11:59:36.000Z</time>
</trkpt>
<trkpt lat="45.9301830" lon="9.5633560">
	<ele>1514.60</ele>
	<time>2023-10-07T11:59:37.000Z</time>
</trkpt>
<trkpt lat="45.9301750" lon="9.5633560">
	<ele>1514.80</ele>
	<time>2023-10-07T11:59:38.000Z</time>
</trkpt>
<trkpt lat="45.9301710" lon="9.5633520">
	<ele>1515.00</ele>
	<time>2023-10-07T11:59:39.000Z</time>
</trkpt>
<trkpt lat="45.9301590" lon="9.5633520">
	<ele>1515.00</ele>
	<time>2023-10-07T11:59:40.000Z</time>
</trkpt>
<trkpt lat="45.9301460" lon="9.5633540">
	<ele>1515.20</ele>
	<time>2023-10-07T11:59:41.000Z</time>
</trkpt>
<trkpt lat="45.9301360" lon="9.5633520">
	<ele>1515.20</ele>
	<time>2023-10-07T11:59:42.000Z</time>
</trkpt>
<trkpt lat="45.9301280" lon="9.5633510">
	<ele>1515.20</ele>
	<time>2023-10-07T11:59:43.000Z</time>
</trkpt>
<trkpt lat="45.9301270" lon="9.5633500">
	<ele>1515.40</ele>
	<time>2023-10-07T11:59:44.000Z</time>
</trkpt>
<trkpt lat="45.9301310" lon="9.5633540">
	<ele>1515.40</ele>
	<time>2023-10-07T11:59:45.000Z</time>
</trkpt>
<trkpt lat="45.9301300" lon="9.5633560">
	<ele>1515.60</ele>
	<time>2023-10-07T11:59:46.000Z</time>
</trkpt>
<trkpt lat="45.9301290" lon="9.5633590">
	<ele>1515.60</ele>
	<time>2023-10-07T11:59:47.000Z</time>
</trkpt>
<trkpt lat="45.9301270" lon="9.5633610">
	<ele>1515.60</ele>
	<time>2023-10-07T11:59:48.000Z</time>
</trkpt>
<trkpt lat="45.9301260" lon="9.5633640">
	<ele>1515.80</ele>
	<time>2023-10-07T11:59:49.000Z</time>
</trkpt>
<trkpt lat="45.9301240" lon="9.5633660">
	<ele>1516.00</ele>
	<time>2023-10-07T11:59:50.000Z</time>
</trkpt>
<trkpt lat="45.9301220" lon="9.5633660">
	<ele>1516.20</ele>
	<time>2023-10-07T11:59:51.000Z</time>
</trkpt>
<trkpt lat="45.9301220" lon="9.5633660">
	<ele>1516.20</ele>
	<time>2023-10-07T11:59:52.000Z</time>
</trkpt>
<trkpt lat="45.9301220" lon="9.5633680">
	<ele>1516.20</ele>
	<time>2023-10-07T11:59:53.000Z</time>
</trkpt>
<trkpt lat="45.9301220" lon="9.5633670">
	<ele>1516.20</ele>
	<time>2023-10-07T11:59:54.000Z</time>
</trkpt>
<trkpt lat="45.9301220" lon="9.5633670">
	<ele>1516.40</ele>
	<time>2023-10-07T11:59:55.000Z</time>
</trkpt>
<trkpt lat="45.9301220" lon="9.5633670">
	<ele>1516.40</ele>
	<time>2023-10-07T11:59:56.000Z</time>
</trkpt>
<trkpt lat="45.9301220" lon="9.5633670">
	<ele>1516.20</ele>
	<time>2023-10-07T11:59:57.000Z</time>
</trkpt>
<trkpt lat="45.9301220" lon="9.5633670">
	<ele>1516.20</ele>
	<time>2023-10-07T11:59:58.000Z</time>
</trkpt>
<trkpt lat="45.9301220" lon="9.5633670">
	<ele>1516.00</ele>
	<time>2023-10-07T11:59:59.000Z</time>
</trkpt>
<trkpt lat="45.9301220" lon="9.5633670">
	<ele>1515.80</ele>
	<time>2023-10-07T12:00:00.000Z</time>
</trkpt>
<trkpt lat="45.9301220" lon="9.5633670">
	<ele>1515.60</ele>
	<time>2023-10-07T12:00:01.000Z</time>
</trkpt>
<trkpt lat="45.9301220" lon="9.5633670">
	<ele>1515.60</ele>
	<time>2023-10-07T12:00:02.000Z</time>
</trkpt>
<trkpt lat="45.9301220" lon="9.5633670">
	<ele>1515.60</ele>
	<time>2023-10-07T12:00:03.000Z</time>
</trkpt>
<trkpt lat="45.9301220" lon="9.5633670">
	<ele>1515.60</ele>
	<time>2023-10-07T12:00:04.000Z</time>
</trkpt>
<trkpt lat="45.9301220" lon="9.5633670">
	<ele>1515.80</ele>
	<time>2023-10-07T12:00:05.000Z</time>
</trkpt>
<trkpt lat="45.9301220" lon="9.5633670">
	<ele>1515.80</ele>
	<time>2023-10-07T12:00:06.000Z</time>
</trkpt>
<trkpt lat="45.9301220" lon="9.5633670">
	<ele>1516.00</ele>
	<time>2023-10-07T12:00:07.000Z</time>
</trkpt>
<trkpt lat="45.9301220" lon="9.5633670">
	<ele>1516.20</ele>
	<time>2023-10-07T12:00:08.000Z</time>
</trkpt>
<trkpt lat="45.9301170" lon="9.5633680">
	<ele>1516.40</ele>
	<time>2023-10-07T12:00:09.000Z</time>
</trkpt>
<trkpt lat="45.9301080" lon="9.5633680">
	<ele>1516.40</ele>
	<time>2023-10-07T12:00:10.000Z</time>
</trkpt>
<trkpt lat="45.9300920" lon="9.5633710">
	<ele>1516.60</ele>
	<time>2023-10-07T12:00:11.000Z</time>
</trkpt>
<trkpt lat="45.9300740" lon="9.5633750">
	<ele>1516.80</ele>
	<time>2023-10-07T12:00:12.000Z</time>
</trkpt>
<trkpt lat="45.9300600" lon="9.5633750">
	<ele>1516.80</ele>
	<time>2023-10-07T12:00:13.000Z</time>
</trkpt>
<trkpt lat="45.9300440" lon="9.5633720">
	<ele>1517.00</ele>
	<time>2023-10-07T12:00:14.000Z</time>
</trkpt>
<trkpt lat="45.9300260" lon="9.5633680">
	<ele>1517.00</ele>
	<time>2023-10-07T12:00:15.000Z</time>
</trkpt>
<trkpt lat="45.9300090" lon="9.5633640">
	<ele>1517.00</ele>
	<time>2023-10-07T12:00:16.000Z</time>
</trkpt>
<trkpt lat="45.9299930" lon="9.5633610">
	<ele>1516.80</ele>
	<time>2023-10-07T12:00:17.000Z</time>
</trkpt>
<trkpt lat="45.9299810" lon="9.5633520">
	<ele>1517.00</ele>
	<time>2023-10-07T12:00:18.000Z</time>
</trkpt>
<trkpt lat="45.9299690" lon="9.5633390">
	<ele>1517.00</ele>
	<time>2023-10-07T12:00:19.000Z</time>
</trkpt>
<trkpt lat="45.9299610" lon="9.5633300">
	<ele>1517.00</ele>
	<time>2023-10-07T12:00:20.000Z</time>
</trkpt>
<trkpt lat="45.9299490" lon="9.5633220">
	<ele>1517.00</ele>
	<time>2023-10-07T12:00:21.000Z</time>
</trkpt>
<trkpt lat="45.9299380" lon="9.5633120">
	<ele>1517.00</ele>
	<time>2023-10-07T12:00:22.000Z</time>
</trkpt>
<trkpt lat="45.9299240" lon="9.5633030">
	<ele>1517.20</ele>
	<time>2023-10-07T12:00:23.000Z</time>
</trkpt>
<trkpt lat="45.9299180" lon="9.5632970">
	<ele>1517.20</ele>
	<time>2023-10-07T12:00:24.000Z</time>
</trkpt>
<trkpt lat="45.9299110" lon="9.5632870">
	<ele>1517.40</ele>
	<time>2023-10-07T12:00:25.000Z</time>
</trkpt>
<trkpt lat="45.9298990" lon="9.5632840">
	<ele>1517.40</ele>
	<time>2023-10-07T12:00:26.000Z</time>
</trkpt>
<trkpt lat="45.9298930" lon="9.5632790">
	<ele>1517.40</ele>
	<time>2023-10-07T12:00:27.000Z</time>
</trkpt>
<trkpt lat="45.9298820" lon="9.5632760">
	<ele>1517.80</ele>
	<time>2023-10-07T12:00:28.000Z</time>
</trkpt>
<trkpt lat="45.9298650" lon="9.5632780">
	<ele>1517.80</ele>
	<time>2023-10-07T12:00:29.000Z</time>
</trkpt>
<trkpt lat="45.9298580" lon="9.5632670">
	<ele>1518.20</ele>
	<time>2023-10-07T12:00:30.000Z</time>
</trkpt>
<trkpt lat="45.9298520" lon="9.5632520">
	<ele>1518.40</ele>
	<time>2023-10-07T12:00:31.000Z</time>
</trkpt>
<trkpt lat="45.9298350" lon="9.5632470">
	<ele>1518.40</ele>
	<time>2023-10-07T12:00:32.000Z</time>
</trkpt>
<trkpt lat="45.9298240" lon="9.5632440">
	<ele>1518.60</ele>
	<time>2023-10-07T12:00:33.000Z</time>
</trkpt>
<trkpt lat="45.9298170" lon="9.5632430">
	<ele>1518.80</ele>
	<time>2023-10-07T12:00:34.000Z</time>
</trkpt>
<trkpt lat="45.9298090" lon="9.5632400">
	<ele>1519.00</ele>
	<time>2023-10-07T12:00:35.000Z</time>
</trkpt>
<trkpt lat="45.9298020" lon="9.5632350">
	<ele>1519.00</ele>
	<time>2023-10-07T12:00:36.000Z</time>
</trkpt>
<trkpt lat="45.9297920" lon="9.5632240">
	<ele>1519.00</ele>
	<time>2023-10-07T12:00:37.000Z</time>
</trkpt>
<trkpt lat="45.9297830" lon="9.5632260">
	<ele>1519.20</ele>
	<time>2023-10-07T12:00:38.000Z</time>
</trkpt>
<trkpt lat="45.9297770" lon="9.5632180">
	<ele>1519.20</ele>
	<time>2023-10-07T12:00:39.000Z</time>
</trkpt>
<trkpt lat="45.9297630" lon="9.5632100">
	<ele>1519.20</ele>
	<time>2023-10-07T12:00:40.000Z</time>
</trkpt>
<trkpt lat="45.9297490" lon="9.5632050">
	<ele>1519.20</ele>
	<time>2023-10-07T12:00:41.000Z</time>
</trkpt>
<trkpt lat="45.9297310" lon="9.5632000">
	<ele>1519.00</ele>
	<time>2023-10-07T12:00:42.000Z</time>
</trkpt>
<trkpt lat="45.9297170" lon="9.5631980">
	<ele>1518.80</ele>
	<time>2023-10-07T12:00:43.000Z</time>
</trkpt>
<trkpt lat="45.9297090" lon="9.5631900">
	<ele>1518.80</ele>
	<time>2023-10-07T12:00:44.000Z</time>
</trkpt>
<trkpt lat="45.9296970" lon="9.5631830">
	<ele>1518.80</ele>
	<time>2023-10-07T12:00:45.000Z</time>
</trkpt>
<trkpt lat="45.9296820" lon="9.5631750">
	<ele>1518.80</ele>
	<time>2023-10-07T12:00:46.000Z</time>
</trkpt>
<trkpt lat="45.9296700" lon="9.5631710">
	<ele>1518.80</ele>
	<time>2023-10-07T12:00:47.000Z</time>
</trkpt>
<trkpt lat="45.9296560" lon="9.5631760">
	<ele>1519.00</ele>
	<time>2023-10-07T12:00:48.000Z</time>
</trkpt>
<trkpt lat="45.9296490" lon="9.5631720">
	<ele>1519.00</ele>
	<time>2023-10-07T12:00:49.000Z</time>
</trkpt>
<trkpt lat="45.9296400" lon="9.5631770">
	<ele>1519.20</ele>
	<time>2023-10-07T12:00:50.000Z</time>
</trkpt>
<trkpt lat="45.9296260" lon="9.5631770">
	<ele>1519.40</ele>
	<time>2023-10-07T12:00:51.000Z</time>
</trkpt>
<trkpt lat="45.9296160" lon="9.5631750">
	<ele>1519.60</ele>
	<time>2023-10-07T12:00:52.000Z</time>
</trkpt>
<trkpt lat="45.9296060" lon="9.5631710">
	<ele>1519.60</ele>
	<time>2023-10-07T12:00:53.000Z</time>
</trkpt>
<trkpt lat="45.9295960" lon="9.5631710">
	<ele>1519.80</ele>
	<time>2023-10-07T12:00:54.000Z</time>
</trkpt>
<trkpt lat="45.9295820" lon="9.5631690">
	<ele>1520.00</ele>
	<time>2023-10-07T12:00:55.000Z</time>
</trkpt>
<trkpt lat="45.9295730" lon="9.5631680">
	<ele>1520.20</ele>
	<time>2023-10-07T12:00:56.000Z</time>
</trkpt>
<trkpt lat="45.9295690" lon="9.5631690">
	<ele>1520.40</ele>
	<time>2023-10-07T12:00:57.000Z</time>
</trkpt>
<trkpt lat="45.9295630" lon="9.5631790">
	<ele>1520.80</ele>
	<time>2023-10-07T12:00:58.000Z</time>
</trkpt>
<trkpt lat="45.9295590" lon="9.5631900">
	<ele>1521.00</ele>
	<time>2023-10-07T12:00:59.000Z</time>
</trkpt>
<trkpt lat="45.9295530" lon="9.5632000">
	<ele>1521.20</ele>
	<time>2023-10-07T12:01:00.000Z</time>
</trkpt>
<trkpt lat="45.9295440" lon="9.5632100">
	<ele>1521.20</ele>
	<time>2023-10-07T12:01:01.000Z</time>
</trkpt>
<trkpt lat="45.9295400" lon="9.5632230">
	<ele>1521.40</ele>
	<time>2023-10-07T12:01:02.000Z</time>
</trkpt>
<trkpt lat="45.9295330" lon="9.5632300">
	<ele>1521.40</ele>
	<time>2023-10-07T12:01:03.000Z</time>
</trkpt>
<trkpt lat="45.9295280" lon="9.5632340">
	<ele>1521.40</ele>
	<time>2023-10-07T12:01:04.000Z</time>
</trkpt>
<trkpt lat="45.9295160" lon="9.5632420">
	<ele>1521.40</ele>
	<time>2023-10-07T12:01:05.000Z</time>
</trkpt>
<trkpt lat="45.9295040" lon="9.5632500">
	<ele>1521.60</ele>
	<time>2023-10-07T12:01:06.000Z</time>
</trkpt>
<trkpt lat="45.9294970" lon="9.5632520">
	<ele>1521.60</ele>
	<time>2023-10-07T12:01:07.000Z</time>
</trkpt>
<trkpt lat="45.9294940" lon="9.5632520">
	<ele>1521.80</ele>
	<time>2023-10-07T12:01:08.000Z</time>
</trkpt>
<trkpt lat="45.9294930" lon="9.5632520">
	<ele>1522.00</ele>
	<time>2023-10-07T12:01:09.000Z</time>
</trkpt>
<trkpt lat="45.9294930" lon="9.5632510">
	<ele>1522.00</ele>
	<time>2023-10-07T12:01:10.000Z</time>
</trkpt>
<trkpt lat="45.9294940" lon="9.5632510">
	<ele>1522.20</ele>
	<time>2023-10-07T12:01:11.000Z</time>
</trkpt>
<trkpt lat="45.9294940" lon="9.5632510">
	<ele>1522.20</ele>
	<time>2023-10-07T12:01:12.000Z</time>
</trkpt>
<trkpt lat="45.9294940" lon="9.5632490">
	<ele>1522.40</ele>
	<time>2023-10-07T12:01:13.000Z</time>
</trkpt>
<trkpt lat="45.9294930" lon="9.5632480">
	<ele>1522.40</ele>
	<time>2023-10-07T12:01:14.000Z</time>
</trkpt>
<trkpt lat="45.9294920" lon="9.5632470">
	<ele>1522.40</ele>
	<time>2023-10-07T12:01:15.000Z</time>
</trkpt>
<trkpt lat="45.9294920" lon="9.5632470">
	<ele>1522.60</ele>
	<time>2023-10-07T12:01:16.000Z</time>
</trkpt>
<trkpt lat="45.9294920" lon="9.5632460">
	<ele>1522.60</ele>
	<time>2023-10-07T12:01:17.000Z</time>
</trkpt>
<trkpt lat="45.9294930" lon="9.5632460">
	<ele>1522.60</ele>
	<time>2023-10-07T12:01:18.000Z</time>
</trkpt>
<trkpt lat="45.9294920" lon="9.5632460">
	<ele>1522.40</ele>
	<time>2023-10-07T12:01:19.000Z</time>
</trkpt>
<trkpt lat="45.9294920" lon="9.5632460">
	<ele>1522.20</ele>
	<time>2023-10-07T12:01:20.000Z</time>
</trkpt>
<trkpt lat="45.9294920" lon="9.5632460">
	<ele>1522.00</ele>
	<time>2023-10-07T12:01:21.000Z</time>
</trkpt>
<trkpt lat="45.9294900" lon="9.5632470">
	<ele>1521.80</ele>
	<time>2023-10-07T12:01:22.000Z</time>
</trkpt>
<trkpt lat="45.9294750" lon="9.5632560">
	<ele>1521.80</ele>
	<time>2023-10-07T12:01:23.000Z</time>
</trkpt>
<trkpt lat="45.9294660" lon="9.5632580">
	<ele>1521.80</ele>
	<time>2023-10-07T12:01:24.000Z</time>
</trkpt>
<trkpt lat="45.9294560" lon="9.5632600">
	<ele>1521.80</ele>
	<time>2023-10-07T12:01:25.000Z</time>
</trkpt>
<trkpt lat="45.9294470" lon="9.5632630">
	<ele>1522.00</ele>
	<time>2023-10-07T12:01:26.000Z</time>
</trkpt>
<trkpt lat="45.9294360" lon="9.5632640">
	<ele>1522.00</ele>
	<time>2023-10-07T12:01:27.000Z</time>
</trkpt>
<trkpt lat="45.9294240" lon="9.5632680">
	<ele>1522.00</ele>
	<time>2023-10-07T12:01:28.000Z</time>
</trkpt>
<trkpt lat="45.9294090" lon="9.5632730">
	<ele>1522.00</ele>
	<time>2023-10-07T12:01:29.000Z</time>
</trkpt>
<trkpt lat="45.9293980" lon="9.5632780">
	<ele>1522.00</ele>
	<time>2023-10-07T12:01:30.000Z</time>
</trkpt>
<trkpt lat="45.9293860" lon="9.5632850">
	<ele>1522.20</ele>
	<time>2023-10-07T12:01:31.000Z</time>
</trkpt>
<trkpt lat="45.9293760" lon="9.5632870">
	<ele>1522.20</ele>
	<time>2023-10-07T12:01:32.000Z</time>
</trkpt>
<trkpt lat="45.9293650" lon="9.5632820">
	<ele>1522.20</ele>
	<time>2023-10-07T12:01:33.000Z</time>
</trkpt>
<trkpt lat="45.9293550" lon="9.5632710">
	<ele>1522.20</ele>
	<time>2023-10-07T12:01:34.000Z</time>
</trkpt>
<trkpt lat="45.9293420" lon="9.5632620">
	<ele>1522.20</ele>
	<time>2023-10-07T12:01:35.000Z</time>
</trkpt>
<trkpt lat="45.9293300" lon="9.5632520">
	<ele>1522.20</ele>
	<time>2023-10-07T12:01:36.000Z</time>
</trkpt>
<trkpt lat="45.9293170" lon="9.5632420">
	<ele>1522.00</ele>
	<time>2023-10-07T12:01:37.000Z</time>
</trkpt>
<trkpt lat="45.9293060" lon="9.5632380">
	<ele>1522.00</ele>
	<time>2023-10-07T12:01:38.000Z</time>
</trkpt>
<trkpt lat="45.9292930" lon="9.5632370">
	<ele>1522.00</ele>
	<time>2023-10-07T12:01:39.000Z</time>
</trkpt>
<trkpt lat="45.9292770" lon="9.5632340">
	<ele>1522.00</ele>
	<time>2023-10-07T12:01:40.000Z</time>
</trkpt>
<trkpt lat="45.9292640" lon="9.5632320">
	<ele>1522.00</ele>
	<time>2023-10-07T12:01:41.000Z</time>
</trkpt>
<trkpt lat="45.9292530" lon="9.5632360">
	<ele>1522.00</ele>
	<time>2023-10-07T12:01:42.000Z</time>
</trkpt>
<trkpt lat="45.9292420" lon="9.5632380">
	<ele>1522.00</ele>
	<time>2023-10-07T12:01:43.000Z</time>
</trkpt>
<trkpt lat="45.9292320" lon="9.5632390">
	<ele>1522.00</ele>
	<time>2023-10-07T12:01:44.000Z</time>
</trkpt>
<trkpt lat="45.9292210" lon="9.5632370">
	<ele>1521.60</ele>
	<time>2023-10-07T12:01:45.000Z</time>
</trkpt>
<trkpt lat="45.9292070" lon="9.5632390">
	<ele>1521.40</ele>
	<time>2023-10-07T12:01:46.000Z</time>
</trkpt>
<trkpt lat="45.9291960" lon="9.5632450">
	<ele>1521.40</ele>
	<time>2023-10-07T12:01:47.000Z</time>
</trkpt>
<trkpt lat="45.9291860" lon="9.5632510">
	<ele>1521.20</ele>
	<time>2023-10-07T12:01:48.000Z</time>
</trkpt>
<trkpt lat="45.9291730" lon="9.5632570">
	<ele>1521.20</ele>
	<time>2023-10-07T12:01:49.000Z</time>
</trkpt>
<trkpt lat="45.9291570" lon="9.5632680">
	<ele>1521.00</ele>
	<time>2023-10-07T12:01:50.000Z</time>
</trkpt>
<trkpt lat="45.9291450" lon="9.5632750">
	<ele>1521.00</ele>
	<time>2023-10-07T12:01:51.000Z</time>
</trkpt>
<trkpt lat="45.9291350" lon="9.5632820">
	<ele>1521.00</ele>
	<time>2023-10-07T12:01:52.000Z</time>
</trkpt>
<trkpt lat="45.9291250" lon="9.5632870">
	<ele>1521.00</ele>
	<time>2023-10-07T12:01:53.000Z</time>
</trkpt>
<trkpt lat="45.9291180" lon="9.5632890">
	<ele>1521.00</ele>
	<time>2023-10-07T12:01:54.000Z</time>
</trkpt>
<trkpt lat="45.9291090" lon="9.5632900">
	<ele>1521.00</ele>
	<time>2023-10-07T12:01:55.000Z</time>
</trkpt>
<trkpt lat="45.9290950" lon="9.5632930">
	<ele>1521.00</ele>
	<time>2023-10-07T12:01:56.000Z</time>
</trkpt>
<trkpt lat="45.9290810" lon="9.5632950">
	<ele>1521.00</ele>
	<time>2023-10-07T12:01:57.000Z</time>
</trkpt>
<trkpt lat="45.9290690" lon="9.5632980">
	<ele>1521.00</ele>
	<time>2023-10-07T12:01:58.000Z</time>
</trkpt>
<trkpt lat="45.9290570" lon="9.5633020">
	<ele>1521.00</ele>
	<time>2023-10-07T12:01:59.000Z</time>
</trkpt>
<trkpt lat="45.9290450" lon="9.5633070">
	<ele>1521.00</ele>
	<time>2023-10-07T12:02:00.000Z</time>
</trkpt>
<trkpt lat="45.9290320" lon="9.5633100">
	<ele>1521.00</ele>
	<time>2023-10-07T12:02:01.000Z</time>
</trkpt>
<trkpt lat="45.9290210" lon="9.5633130">
	<ele>1521.20</ele>
	<time>2023-10-07T12:02:02.000Z</time>
</trkpt>
<trkpt lat="45.9290080" lon="9.5633160">
	<ele>1521.20</ele>
	<time>2023-10-07T12:02:03.000Z</time>
</trkpt>
<trkpt lat="45.9289970" lon="9.5633170">
	<ele>1521.20</ele>
	<time>2023-10-07T12:02:04.000Z</time>
</trkpt>
<trkpt lat="45.9289840" lon="9.5633200">
	<ele>1521.20</ele>
	<time>2023-10-07T12:02:05.000Z</time>
</trkpt>
<trkpt lat="45.9289720" lon="9.5633240">
	<ele>1521.00</ele>
	<time>2023-10-07T12:02:06.000Z</time>
</trkpt>
<trkpt lat="45.9289600" lon="9.5633250">
	<ele>1520.80</ele>
	<time>2023-10-07T12:02:07.000Z</time>
</trkpt>
<trkpt lat="45.9289490" lon="9.5633230">
	<ele>1520.60</ele>
	<time>2023-10-07T12:02:08.000Z</time>
</trkpt>
<trkpt lat="45.9289380" lon="9.5633190">
	<ele>1520.40</ele>
	<time>2023-10-07T12:02:09.000Z</time>
</trkpt>
<trkpt lat="45.9289240" lon="9.5633190">
	<ele>1520.40</ele>
	<time>2023-10-07T12:02:10.000Z</time>
</trkpt>
<trkpt lat="45.9289130" lon="9.5633200">
	<ele>1520.40</ele>
	<time>2023-10-07T12:02:11.000Z</time>
</trkpt>
<trkpt lat="45.9289000" lon="9.5633220">
	<ele>1520.40</ele>
	<time>2023-10-07T12:02:12.000Z</time>
</trkpt>
<trkpt lat="45.9288880" lon="9.5633250">
	<ele>1520.40</ele>
	<time>2023-10-07T12:02:13.000Z</time>
</trkpt>
<trkpt lat="45.9288750" lon="9.5633260">
	<ele>1520.40</ele>
	<time>2023-10-07T12:02:14.000Z</time>
</trkpt>
<trkpt lat="45.9288640" lon="9.5633280">
	<ele>1520.40</ele>
	<time>2023-10-07T12:02:15.000Z</time>
</trkpt>
<trkpt lat="45.9288550" lon="9.5633340">
	<ele>1520.40</ele>
	<time>2023-10-07T12:02:16.000Z</time>
</trkpt>
<trkpt lat="45.9288420" lon="9.5633390">
	<ele>1520.40</ele>
	<time>2023-10-07T12:02:17.000Z</time>
</trkpt>
<trkpt lat="45.9288330" lon="9.5633410">
	<ele>1520.40</ele>
	<time>2023-10-07T12:02:18.000Z</time>
</trkpt>
<trkpt lat="45.9288230" lon="9.5633440">
	<ele>1520.40</ele>
	<time>2023-10-07T12:02:19.000Z</time>
</trkpt>
<trkpt lat="45.9288110" lon="9.5633460">
	<ele>1520.40</ele>
	<time>2023-10-07T12:02:20.000Z</time>
</trkpt>
<trkpt lat="45.9288040" lon="9.5633450">
	<ele>1520.60</ele>
	<time>2023-10-07T12:02:21.000Z</time>
</trkpt>
<trkpt lat="45.9287880" lon="9.5633470">
	<ele>1520.60</ele>
	<time>2023-10-07T12:02:22.000Z</time>
</trkpt>
<trkpt lat="45.9287770" lon="9.5633510">
	<ele>1520.80</ele>
	<time>2023-10-07T12:02:23.000Z</time>
</trkpt>
<trkpt lat="45.9287680" lon="9.5633550">
	<ele>1520.80</ele>
	<time>2023-10-07T12:02:24.000Z</time>
</trkpt>
<trkpt lat="45.9287570" lon="9.5633560">
	<ele>1521.00</ele>
	<time>2023-10-07T12:02:25.000Z</time>
</trkpt>
<trkpt lat="45.9287420" lon="9.5633620">
	<ele>1521.00</ele>
	<time>2023-10-07T12:02:26.000Z</time>
</trkpt>
<trkpt lat="45.9287280" lon="9.5633680">
	<ele>1521.20</ele>
	<time>2023-10-07T12:02:27.000Z</time>
</trkpt>
<trkpt lat="45.9287140" lon="9.5633710">
	<ele>1521.20</ele>
	<time>2023-10-07T12:02:28.000Z</time>
</trkpt>
<trkpt lat="45.9287020" lon="9.5633730">
	<ele>1521.20</ele>
	<time>2023-10-07T12:02:29.000Z</time>
</trkpt>
<trkpt lat="45.9286900" lon="9.5633750">
	<ele>1521.20</ele>
	<time>2023-10-07T12:02:30.000Z</time>
</trkpt>
<trkpt lat="45.9286810" lon="9.5633730">
	<ele>1521.20</ele>
	<time>2023-10-07T12:02:31.000Z</time>
</trkpt>
<trkpt lat="45.9286710" lon="9.5633770">
	<ele>1521.20</ele>
	<time>2023-10-07T12:02:32.000Z</time>
</trkpt>
<trkpt lat="45.9286600" lon="9.5633800">
	<ele>1521.40</ele>
	<time>2023-10-07T12:02:33.000Z</time>
</trkpt>
<trkpt lat="45.9286470" lon="9.5633820">
	<ele>1521.40</ele>
	<time>2023-10-07T12:02:34.000Z</time>
</trkpt>
<trkpt lat="45.9286360" lon="9.5633870">
	<ele>1521.20</ele>
	<time>2023-10-07T12:02:35.000Z</time>
</trkpt>
<trkpt lat="45.9286240" lon="9.5633860">
	<ele>1521.20</ele>
	<time>2023-10-07T12:02:36.000Z</time>
</trkpt>
<trkpt lat="45.9286150" lon="9.5633890">
	<ele>1521.20</ele>
	<time>2023-10-07T12:02:37.000Z</time>
</trkpt>
<trkpt lat="45.9286040" lon="9.5633980">
	<ele>1521.20</ele>
	<time>2023-10-07T12:02:38.000Z</time>
</trkpt>
<trkpt lat="45.9285940" lon="9.5634070">
	<ele>1521.20</ele>
	<time>2023-10-07T12:02:39.000Z</time>
</trkpt>
<trkpt lat="45.9285810" lon="9.5634160">
	<ele>1521.20</ele>
	<time>2023-10-07T12:02:40.000Z</time>
</trkpt>
<trkpt lat="45.9285670" lon="9.5634220">
	<ele>1521.20</ele>
	<time>2023-10-07T12:02:41.000Z</time>
</trkpt>
<trkpt lat="45.9285550" lon="9.5634260">
	<ele>1521.20</ele>
	<time>2023-10-07T12:02:42.000Z</time>
</trkpt>
<trkpt lat="45.9285470" lon="9.5634250">
	<ele>1521.00</ele>
	<time>2023-10-07T12:02:43.000Z</time>
</trkpt>
<trkpt lat="45.9285370" lon="9.5634240">
	<ele>1521.00</ele>
	<time>2023-10-07T12:02:44.000Z</time>
</trkpt>
<trkpt lat="45.9285270" lon="9.5634270">
	<ele>1521.00</ele>
	<time>2023-10-07T12:02:45.000Z</time>
</trkpt>
<trkpt lat="45.9285150" lon="9.5634300">
	<ele>1521.00</ele>
	<time>2023-10-07T12:02:46.000Z</time>
</trkpt>
<trkpt lat="45.9285020" lon="9.5634340">
	<ele>1521.00</ele>
	<time>2023-10-07T12:02:47.000Z</time>
</trkpt>
<trkpt lat="45.9284880" lon="9.5634350">
	<ele>1521.00</ele>
	<time>2023-10-07T12:02:48.000Z</time>
</trkpt>
<trkpt lat="45.9284720" lon="9.5634370">
	<ele>1520.80</ele>
	<time>2023-10-07T12:02:49.000Z</time>
</trkpt>
<trkpt lat="45.9284590" lon="9.5634340">
	<ele>1520.80</ele>
	<time>2023-10-07T12:02:50.000Z</time>
</trkpt>
<trkpt lat="45.9284470" lon="9.5634350">
	<ele>1520.80</ele>
	<time>2023-10-07T12:02:51.000Z</time>
</trkpt>
<trkpt lat="45.9284330" lon="9.5634420">
	<ele>1520.80</ele>
	<time>2023-10-07T12:02:52.000Z</time>
</trkpt>
<trkpt lat="45.9284240" lon="9.5634500">
	<ele>1520.80</ele>
	<time>2023-10-07T12:02:53.000Z</time>
</trkpt>
<trkpt lat="45.9284150" lon="9.5634600">
	<ele>1520.80</ele>
	<time>2023-10-07T12:02:54.000Z</time>
</trkpt>
<trkpt lat="45.9284070" lon="9.5634720">
	<ele>1520.80</ele>
	<time>2023-10-07T12:02:55.000Z</time>
</trkpt>
<trkpt lat="45.9283970" lon="9.5634810">
	<ele>1520.80</ele>
	<time>2023-10-07T12:02:56.000Z</time>
</trkpt>
<trkpt lat="45.9283860" lon="9.5634860">
	<ele>1520.60</ele>
	<time>2023-10-07T12:02:57.000Z</time>
</trkpt>
<trkpt lat="45.9283750" lon="9.5634890">
	<ele>1520.60</ele>
	<time>2023-10-07T12:02:58.000Z</time>
</trkpt>
<trkpt lat="45.9283640" lon="9.5634940">
	<ele>1520.40</ele>
	<time>2023-10-07T12:02:59.000Z</time>
</trkpt>
<trkpt lat="45.9283540" lon="9.5634970">
	<ele>1520.40</ele>
	<time>2023-10-07T12:03:00.000Z</time>
</trkpt>
<trkpt lat="45.9283390" lon="9.5635030">
	<ele>1520.20</ele>
	<time>2023-10-07T12:03:01.000Z</time>
</trkpt>
<trkpt lat="45.9283290" lon="9.5635060">
	<ele>1520.20</ele>
	<time>2023-10-07T12:03:02.000Z</time>
</trkpt>
<trkpt lat="45.9283190" lon="9.5635120">
	<ele>1520.00</ele>
	<time>2023-10-07T12:03:03.000Z</time>
</trkpt>
<trkpt lat="45.9283070" lon="9.5635220">
	<ele>1520.00</ele>
	<time>2023-10-07T12:03:04.000Z</time>
</trkpt>
<trkpt lat="45.9282940" lon="9.5635250">
	<ele>1520.00</ele>
	<time>2023-10-07T12:03:05.000Z</time>
</trkpt>
<trkpt lat="45.9282800" lon="9.5635270">
	<ele>1519.80</ele>
	<time>2023-10-07T12:03:06.000Z</time>
</trkpt>
<trkpt lat="45.9282680" lon="9.5635290">
	<ele>1519.60</ele>
	<time>2023-10-07T12:03:07.000Z</time>
</trkpt>
<trkpt lat="45.9282580" lon="9.5635290">
	<ele>1519.60</ele>
	<time>2023-10-07T12:03:08.000Z</time>
</trkpt>
<trkpt lat="45.9282470" lon="9.5635350">
	<ele>1519.60</ele>
	<time>2023-10-07T12:03:09.000Z</time>
</trkpt>
<trkpt lat="45.9282300" lon="9.5635460">
	<ele>1519.40</ele>
	<time>2023-10-07T12:03:10.000Z</time>
</trkpt>
<trkpt lat="45.9282190" lon="9.5635550">
	<ele>1519.20</ele>
	<time>2023-10-07T12:03:11.000Z</time>
</trkpt>
<trkpt lat="45.9282070" lon="9.5635600">
	<ele>1519.20</ele>
	<time>2023-10-07T12:03:12.000Z</time>
</trkpt>
<trkpt lat="45.9281940" lon="9.5635680">
	<ele>1519.00</ele>
	<time>2023-10-07T12:03:13.000Z</time>
</trkpt>
<trkpt lat="45.9281820" lon="9.5635740">
	<ele>1519.00</ele>
	<time>2023-10-07T12:03:14.000Z</time>
</trkpt>
<trkpt lat="45.9281700" lon="9.5635830">
	<ele>1519.00</ele>
	<time>2023-10-07T12:03:15.000Z</time>
</trkpt>
<trkpt lat="45.9281610" lon="9.5635930">
	<ele>1519.00</ele>
	<time>2023-10-07T12:03:16.000Z</time>
</trkpt>
<trkpt lat="45.9281490" lon="9.5636070">
	<ele>1518.80</ele>
	<time>2023-10-07T12:03:17.000Z</time>
</trkpt>
<trkpt lat="45.9281360" lon="9.5636200">
	<ele>1518.80</ele>
	<time>2023-10-07T12:03:18.000Z</time>
</trkpt>
<trkpt lat="45.9281240" lon="9.5636310">
	<ele>1518.80</ele>
	<time>2023-10-07T12:03:19.000Z</time>
</trkpt>
<trkpt lat="45.9281110" lon="9.5636420">
	<ele>1518.80</ele>
	<time>2023-10-07T12:03:20.000Z</time>
</trkpt>
<trkpt lat="45.9281000" lon="9.5636500">
	<ele>1518.80</ele>
	<time>2023-10-07T12:03:21.000Z</time>
</trkpt>
<trkpt lat="45.9280890" lon="9.5636600">
	<ele>1518.80</ele>
	<time>2023-10-07T12:03:22.000Z</time>
</trkpt>
<trkpt lat="45.9280800" lon="9.5636720">
	<ele>1518.80</ele>
	<time>2023-10-07T12:03:23.000Z</time>
</trkpt>
<trkpt lat="45.9280730" lon="9.5636850">
	<ele>1518.80</ele>
	<time>2023-10-07T12:03:24.000Z</time>
</trkpt>
<trkpt lat="45.9280630" lon="9.5636980">
	<ele>1518.80</ele>
	<time>2023-10-07T12:03:25.000Z</time>
</trkpt>
<trkpt lat="45.9280550" lon="9.5637070">
	<ele>1518.80</ele>
	<time>2023-10-07T12:03:26.000Z</time>
</trkpt>
<trkpt lat="45.9280450" lon="9.5637180">
	<ele>1518.80</ele>
	<time>2023-10-07T12:03:27.000Z</time>
</trkpt>
<trkpt lat="45.9280320" lon="9.5637280">
	<ele>1519.00</ele>
	<time>2023-10-07T12:03:28.000Z</time>
</trkpt>
<trkpt lat="45.9280210" lon="9.5637400">
	<ele>1519.00</ele>
	<time>2023-10-07T12:03:29.000Z</time>
</trkpt>
<trkpt lat="45.9280100" lon="9.5637530">
	<ele>1519.00</ele>
	<time>2023-10-07T12:03:30.000Z</time>
</trkpt>
<trkpt lat="45.9280030" lon="9.5637690">
	<ele>1519.00</ele>
	<time>2023-10-07T12:03:31.000Z</time>
</trkpt>
<trkpt lat="45.9279940" lon="9.5637860">
	<ele>1519.00</ele>
	<time>2023-10-07T12:03:32.000Z</time>
</trkpt>
<trkpt lat="45.9279850" lon="9.5638040">
	<ele>1519.00</ele>
	<time>2023-10-07T12:03:33.000Z</time>
</trkpt>
<trkpt lat="45.9279790" lon="9.5638190">
	<ele>1519.20</ele>
	<time>2023-10-07T12:03:34.000Z</time>
</trkpt>
<trkpt lat="45.9279710" lon="9.5638330">
	<ele>1519.20</ele>
	<time>2023-10-07T12:03:35.000Z</time>
</trkpt>
<trkpt lat="45.9279640" lon="9.5638470">
	<ele>1519.20</ele>
	<time>2023-10-07T12:03:36.000Z</time>
</trkpt>
<trkpt lat="45.9279570" lon="9.5638610">
	<ele>1519.40</ele>
	<time>2023-10-07T12:03:37.000Z</time>
</trkpt>
<trkpt lat="45.9279520" lon="9.5638730">
	<ele>1519.40</ele>
	<time>2023-10-07T12:03:38.000Z</time>
</trkpt>
<trkpt lat="45.9279420" lon="9.5638810">
	<ele>1519.40</ele>
	<time>2023-10-07T12:03:39.000Z</time>
</trkpt>
<trkpt lat="45.9279350" lon="9.5638950">
	<ele>1519.40</ele>
	<time>2023-10-07T12:03:40.000Z</time>
</trkpt>
<trkpt lat="45.9279250" lon="9.5639090">
	<ele>1519.60</ele>
	<time>2023-10-07T12:03:41.000Z</time>
</trkpt>
<trkpt lat="45.9279120" lon="9.5639250">
	<ele>1519.60</ele>
	<time>2023-10-07T12:03:42.000Z</time>
</trkpt>
<trkpt lat="45.9279010" lon="9.5639410">
	<ele>1519.60</ele>
	<time>2023-10-07T12:03:43.000Z</time>
</trkpt>
<trkpt lat="45.9278910" lon="9.5639520">
	<ele>1519.60</ele>
	<time>2023-10-07T12:03:44.000Z</time>
</trkpt>
<trkpt lat="45.9278810" lon="9.5639610">
	<ele>1519.60</ele>
	<time>2023-10-07T12:03:45.000Z</time>
</trkpt>
<trkpt lat="45.9278710" lon="9.5639700">
	<ele>1519.60</ele>
	<time>2023-10-07T12:03:46.000Z</time>
</trkpt>
<trkpt lat="45.9278600" lon="9.5639770">
	<ele>1519.60</ele>
	<time>2023-10-07T12:03:47.000Z</time>
</trkpt>
<trkpt lat="45.9278480" lon="9.5639850">
	<ele>1519.60</ele>
	<time>2023-10-07T12:03:48.000Z</time>
</trkpt>
<trkpt lat="45.9278380" lon="9.5639940">
	<ele>1519.60</ele>
	<time>2023-10-07T12:03:49.000Z</time>
</trkpt>
<trkpt lat="45.9278250" lon="9.5640050">
	<ele>1519.60</ele>
	<time>2023-10-07T12:03:50.000Z</time>
</trkpt>
<trkpt lat="45.9278130" lon="9.5640170">
	<ele>1519.60</ele>
	<time>2023-10-07T12:03:51.000Z</time>
</trkpt>
<trkpt lat="45.9278000" lon="9.5640290">
	<ele>1519.60</ele>
	<time>2023-10-07T12:03:52.000Z</time>
</trkpt>
<trkpt lat="45.9277870" lon="9.5640380">
	<ele>1519.60</ele>
	<time>2023-10-07T12:03:53.000Z</time>
</trkpt>
<trkpt lat="45.9277720" lon="9.5640400">
	<ele>1519.60</ele>
	<time>2023-10-07T12:03:54.000Z</time>
</trkpt>
<trkpt lat="45.9277610" lon="9.5640390">
	<ele>1519.60</ele>
	<time>2023-10-07T12:03:55.000Z</time>
</trkpt>
<trkpt lat="45.9277520" lon="9.5640380">
	<ele>1519.80</ele>
	<time>2023-10-07T12:03:56.000Z</time>
</trkpt>
<trkpt lat="45.9277380" lon="9.5640400">
	<ele>1519.80</ele>
	<time>2023-10-07T12:03:57.000Z</time>
</trkpt>
<trkpt lat="45.9277260" lon="9.5640390">
	<ele>1520.00</ele>
	<time>2023-10-07T12:03:58.000Z</time>
</trkpt>
<trkpt lat="45.9277150" lon="9.5640380">
	<ele>1520.20</ele>
	<time>2023-10-07T12:03:59.000Z</time>
</trkpt>
<trkpt lat="45.9277040" lon="9.5640390">
	<ele>1520.20</ele>
	<time>2023-10-07T12:04:00.000Z</time>
</trkpt>
<trkpt lat="45.9276940" lon="9.5640370">
	<ele>1520.40</ele>
	<time>2023-10-07T12:04:01.000Z</time>
</trkpt>
<trkpt lat="45.9276820" lon="9.5640390">
	<ele>1520.40</ele>
	<time>2023-10-07T12:04:02.000Z</time>
</trkpt>
<trkpt lat="45.9276670" lon="9.5640410">
	<ele>1520.60</ele>
	<time>2023-10-07T12:04:03.000Z</time>
</trkpt>
<trkpt lat="45.9276560" lon="9.5640430">
	<ele>1520.60</ele>
	<time>2023-10-07T12:04:04.000Z</time>
</trkpt>
<trkpt lat="45.9276460" lon="9.5640450">
	<ele>1520.80</ele>
	<time>2023-10-07T12:04:05.000Z</time>
</trkpt>
<trkpt lat="45.9276340" lon="9.5640480">
	<ele>1520.80</ele>
	<time>2023-10-07T12:04:06.000Z</time>
</trkpt>
<trkpt lat="45.9276180" lon="9.5640540">
	<ele>1520.80</ele>
	<time>2023-10-07T12:04:07.000Z</time>
</trkpt>
<trkpt lat="45.9276030" lon="9.5640590">
	<ele>1520.60</ele>
	<time>2023-10-07T12:04:08.000Z</time>
</trkpt>
<trkpt lat="45.9275950" lon="9.5640590">
	<ele>1520.80</ele>
	<time>2023-10-07T12:04:09.000Z</time>
</trkpt>
<trkpt lat="45.9275830" lon="9.5640600">
	<ele>1520.80</ele>
	<time>2023-10-07T12:04:10.000Z</time>
</trkpt>
<trkpt lat="45.9275700" lon="9.5640580">
	<ele>1520.80</ele>
	<time>2023-10-07T12:04:11.000Z</time>
</trkpt>
<trkpt lat="45.9275600" lon="9.5640550">
	<ele>1520.60</ele>
	<time>2023-10-07T12:04:12.000Z</time>
</trkpt>
<trkpt lat="45.9275490" lon="9.5640520">
	<ele>1520.60</ele>
	<time>2023-10-07T12:04:13.000Z</time>
</trkpt>
<trkpt lat="45.9275390" lon="9.5640530">
	<ele>1520.60</ele>
	<time>2023-10-07T12:04:14.000Z</time>
</trkpt>
<trkpt lat="45.9275240" lon="9.5640540">
	<ele>1520.60</ele>
	<time>2023-10-07T12:04:15.000Z</time>
</trkpt>
<trkpt lat="45.9275080" lon="9.5640570">
	<ele>1520.60</ele>
	<time>2023-10-07T12:04:16.000Z</time>
</trkpt>
<trkpt lat="45.9274990" lon="9.5640580">
	<ele>1520.60</ele>
	<time>2023-10-07T12:04:17.000Z</time>
</trkpt>
<trkpt lat="45.9274890" lon="9.5640570">
	<ele>1520.60</ele>
	<time>2023-10-07T12:04:18.000Z</time>
</trkpt>
<trkpt lat="45.9274790" lon="9.5640570">
	<ele>1520.60</ele>
	<time>2023-10-07T12:04:19.000Z</time>
</trkpt>
<trkpt lat="45.9274650" lon="9.5640600">
	<ele>1520.40</ele>
	<time>2023-10-07T12:04:20.000Z</time>
</trkpt>
<trkpt lat="45.9274550" lon="9.5640620">
	<ele>1520.40</ele>
	<time>2023-10-07T12:04:21.000Z</time>
</trkpt>
<trkpt lat="45.9274460" lon="9.5640600">
	<ele>1520.40</ele>
	<time>2023-10-07T12:04:22.000Z</time>
</trkpt>
<trkpt lat="45.9274370" lon="9.5640590">
	<ele>1520.40</ele>
	<time>2023-10-07T12:04:23.000Z</time>
</trkpt>
<trkpt lat="45.9274210" lon="9.5640590">
	<ele>1520.20</ele>
	<time>2023-10-07T12:04:24.000Z</time>
</trkpt>
<trkpt lat="45.9274090" lon="9.5640610">
	<ele>1520.00</ele>
	<time>2023-10-07T12:04:25.000Z</time>
</trkpt>
<trkpt lat="45.9273980" lon="9.5640550">
	<ele>1519.80</ele>
	<time>2023-10-07T12:04:26.000Z</time>
</trkpt>
<trkpt lat="45.9273870" lon="9.5640430">
	<ele>1519.60</ele>
	<time>2023-10-07T12:04:27.000Z</time>
</trkpt>
<trkpt lat="45.9273840" lon="9.5640240">
	<ele>1519.20</ele>
	<time>2023-10-07T12:04:28.000Z</time>
</trkpt>
<trkpt lat="45.9273790" lon="9.5640120">
	<ele>1518.80</ele>
	<time>2023-10-07T12:04:29.000Z</time>
</trkpt>
<trkpt lat="45.9273720" lon="9.5640090">
	<ele>1518.60</ele>
	<time>2023-10-07T12:04:30.000Z</time>
</trkpt>
<trkpt lat="45.9273620" lon="9.5640040">
	<ele>1518.40</ele>
	<time>2023-10-07T12:04:31.000Z</time>
</trkpt>
<trkpt lat="45.9273460" lon="9.5640010">
	<ele>1518.20</ele>
	<time>2023-10-07T12:04:32.000Z</time>
</trkpt>
<trkpt lat="45.9273330" lon="9.5640020">
	<ele>1517.80</ele>
	<time>2023-10-07T12:04:33.000Z</time>
</trkpt>
<trkpt lat="45.9273200" lon="9.5640060">
	<ele>1517.60</ele>
	<time>2023-10-07T12:04:34.000Z</time>
</trkpt>
<trkpt lat="45.9273070" lon="9.5640100">
	<ele>1517.40</ele>
	<time>2023-10-07T12:04:35.000Z</time>
</trkpt>
<trkpt lat="45.9272940" lon="9.5640120">
	<ele>1517.20</ele>
	<time>2023-10-07T12:04:36.000Z</time>
</trkpt>
<trkpt lat="45.9272820" lon="9.5640100">
	<ele>1517.00</ele>
	<time>2023-10-07T12:04:37.000Z</time>
</trkpt>
<trkpt lat="45.9272710" lon="9.5640040">
	<ele>1517.00</ele>
	<time>2023-10-07T12:04:38.000Z</time>
</trkpt>
<trkpt lat="45.9272630" lon="9.5640000">
	<ele>1516.80</ele>
	<time>2023-10-07T12:04:39.000Z</time>
</trkpt>
<trkpt lat="45.9272520" lon="9.5639980">
	<ele>1516.60</ele>
	<time>2023-10-07T12:04:40.000Z</time>
</trkpt>
<trkpt lat="45.9272420" lon="9.5639950">
	<ele>1516.40</ele>
	<time>2023-10-07T12:04:41.000Z</time>
</trkpt>
<trkpt lat="45.9272310" lon="9.5639950">
	<ele>1516.40</ele>
	<time>2023-10-07T12:04:42.000Z</time>
</trkpt>
<trkpt lat="45.9272170" lon="9.5639990">
	<ele>1516.40</ele>
	<time>2023-10-07T12:04:43.000Z</time>
</trkpt>
<trkpt lat="45.9272070" lon="9.5640020">
	<ele>1516.20</ele>
	<time>2023-10-07T12:04:44.000Z</time>
</trkpt>
<trkpt lat="45.9271940" lon="9.5640040">
	<ele>1516.20</ele>
	<time>2023-10-07T12:04:45.000Z</time>
</trkpt>
<trkpt lat="45.9271790" lon="9.5640080">
	<ele>1516.20</ele>
	<time>2023-10-07T12:04:46.000Z</time>
</trkpt>
<trkpt lat="45.9271660" lon="9.5640110">
	<ele>1516.20</ele>
	<time>2023-10-07T12:04:47.000Z</time>
</trkpt>
<trkpt lat="45.9271560" lon="9.5640130">
	<ele>1516.20</ele>
	<time>2023-10-07T12:04:48.000Z</time>
</trkpt>
<trkpt lat="45.9271390" lon="9.5640150">
	<ele>1516.20</ele>
	<time>2023-10-07T12:04:49.000Z</time>
</trkpt>
<trkpt lat="45.9271290" lon="9.5640160">
	<ele>1516.20</ele>
	<time>2023-10-07T12:04:50.000Z</time>
</trkpt>
<trkpt lat="45.9271100" lon="9.5640170">
	<ele>1516.20</ele>
	<time>2023-10-07T12:04:51.000Z</time>
</trkpt>
<trkpt lat="45.9270940" lon="9.5640180">
	<ele>1516.40</ele>
	<time>2023-10-07T12:04:52.000Z</time>
</trkpt>
<trkpt lat="45.9270810" lon="9.5640170">
	<ele>1516.40</ele>
	<time>2023-10-07T12:04:53.000Z</time>
</trkpt>
<trkpt lat="45.9270740" lon="9.5640130">
	<ele>1516.40</ele>
	<time>2023-10-07T12:04:54.000Z</time>
</trkpt>
<trkpt lat="45.9270630" lon="9.5640050">
	<ele>1516.40</ele>
	<time>2023-10-07T12:04:55.000Z</time>
</trkpt>
<trkpt lat="45.9270510" lon="9.5639960">
	<ele>1516.40</ele>
	<time>2023-10-07T12:04:56.000Z</time>
</trkpt>
<trkpt lat="45.9270400" lon="9.5639840">
	<ele>1516.40</ele>
	<time>2023-10-07T12:04:57.000Z</time>
</trkpt>
<trkpt lat="45.9270320" lon="9.5639720">
	<ele>1516.40</ele>
	<time>2023-10-07T12:04:58.000Z</time>
</trkpt>
<trkpt lat="45.9270230" lon="9.5639580">
	<ele>1516.20</ele>
	<time>2023-10-07T12:04:59.000Z</time>
</trkpt>
<trkpt lat="45.9270110" lon="9.5639430">
	<ele>1516.20</ele>
	<time>2023-10-07T12:05:00.000Z</time>
</trkpt>
<trkpt lat="45.9270040" lon="9.5639340">
	<ele>1516.20</ele>
	<time>2023-10-07T12:05:01.000Z</time>
</trkpt>
<trkpt lat="45.9269910" lon="9.5639300">
	<ele>1516.20</ele>
	<time>2023-10-07T12:05:02.000Z</time>
</trkpt>
<trkpt lat="45.9269840" lon="9.5639280">
	<ele>1516.00</ele>
	<time>2023-10-07T12:05:03.000Z</time>
</trkpt>
<trkpt lat="45.9269740" lon="9.5639250">
	<ele>1515.80</ele>
	<time>2023-10-07T12:05:04.000Z</time>
</trkpt>
<trkpt lat="45.9269640" lon="9.5639220">
	<ele>1515.80</ele>
	<time>2023-10-07T12:05:05.000Z</time>
</trkpt>
<trkpt lat="45.9269550" lon="9.5639190">
	<ele>1515.60</ele>
	<time>2023-10-07T12:05:06.000Z</time>
</trkpt>
<trkpt lat="45.9269440" lon="9.5639160">
	<ele>1515.60</ele>
	<time>2023-10-07T12:05:07.000Z</time>
</trkpt>
<trkpt lat="45.9269280" lon="9.5639200">
	<ele>1515.60</ele>
	<time>2023-10-07T12:05:08.000Z</time>
</trkpt>
<trkpt lat="45.9269160" lon="9.5639140">
	<ele>1515.60</ele>
	<time>2023-10-07T12:05:09.000Z</time>
</trkpt>
<trkpt lat="45.9269030" lon="9.5639070">
	<ele>1515.60</ele>
	<time>2023-10-07T12:05:10.000Z</time>
</trkpt>
<trkpt lat="45.9268890" lon="9.5639040">
	<ele>1515.60</ele>
	<time>2023-10-07T12:05:11.000Z</time>
</trkpt>
<trkpt lat="45.9268760" lon="9.5639020">
	<ele>1515.60</ele>
	<time>2023-10-07T12:05:12.000Z</time>
</trkpt>
<trkpt lat="45.9268640" lon="9.5638930">
	<ele>1515.60</ele>
	<time>2023-10-07T12:05:13.000Z</time>
</trkpt>
<trkpt lat="45.9268560" lon="9.5638870">
	<ele>1515.60</ele>
	<time>2023-10-07T12:05:14.000Z</time>
</trkpt>
<trkpt lat="45.9268430" lon="9.5638850">
	<ele>1515.60</ele>
	<time>2023-10-07T12:05:15.000Z</time>
</trkpt>
<trkpt lat="45.9268340" lon="9.5638880">
	<ele>1515.60</ele>
	<time>2023-10-07T12:05:16.000Z</time>
</trkpt>
<trkpt lat="45.9268290" lon="9.5638880">
	<ele>1515.60</ele>
	<time>2023-10-07T12:05:17.000Z</time>
</trkpt>
<trkpt lat="45.9268200" lon="9.5638910">
	<ele>1515.40</ele>
	<time>2023-10-07T12:05:18.000Z</time>
</trkpt>
<trkpt lat="45.9268120" lon="9.5638940">
	<ele>1515.40</ele>
	<time>2023-10-07T12:05:19.000Z</time>
</trkpt>
<trkpt lat="45.9267980" lon="9.5638950">
	<ele>1515.40</ele>
	<time>2023-10-07T12:05:20.000Z</time>
</trkpt>
<trkpt lat="45.9267820" lon="9.5638970">
	<ele>1515.20</ele>
	<time>2023-10-07T12:05:21.000Z</time>
</trkpt>
<trkpt lat="45.9267720" lon="9.5638970">
	<ele>1515.00</ele>
	<time>2023-10-07T12:05:22.000Z</time>
</trkpt>
<trkpt lat="45.9267590" lon="9.5638990">
	<ele>1514.80</ele>
	<time>2023-10-07T12:05:23.000Z</time>
</trkpt>
<trkpt lat="45.9267470" lon="9.5638990">
	<ele>1514.60</ele>
	<time>2023-10-07T12:05:24.000Z</time>
</trkpt>
<trkpt lat="45.9267370" lon="9.5638980">
	<ele>1514.60</ele>
	<time>2023-10-07T12:05:25.000Z</time>
</trkpt>
<trkpt lat="45.9267270" lon="9.5638970">
	<ele>1514.20</ele>
	<time>2023-10-07T12:05:26.000Z</time>
</trkpt>
<trkpt lat="45.9267180" lon="9.5638960">
	<ele>1514.00</ele>
	<time>2023-10-07T12:05:27.000Z</time>
</trkpt>
<trkpt lat="45.9267060" lon="9.5638930">
	<ele>1513.80</ele>
	<time>2023-10-07T12:05:28.000Z</time>
</trkpt>
<trkpt lat="45.9266940" lon="9.5638890">
	<ele>1513.60</ele>
	<time>2023-10-07T12:05:29.000Z</time>
</trkpt>
<trkpt lat="45.9266840" lon="9.5638870">
	<ele>1513.60</ele>
	<time>2023-10-07T12:05:30.000Z</time>
</trkpt>
<trkpt lat="45.9266750" lon="9.5638850">
	<ele>1513.40</ele>
	<time>2023-10-07T12:05:31.000Z</time>
</trkpt>
<trkpt lat="45.9266660" lon="9.5638850">
	<ele>1513.20</ele>
	<time>2023-10-07T12:05:32.000Z</time>
</trkpt>
<trkpt lat="45.9266550" lon="9.5638870">
	<ele>1513.00</ele>
	<time>2023-10-07T12:05:33.000Z</time>
</trkpt>
<trkpt lat="45.9266420" lon="9.5638880">
	<ele>1512.60</ele>
	<time>2023-10-07T12:05:34.000Z</time>
</trkpt>
<trkpt lat="45.9266300" lon="9.5638910">
	<ele>1512.40</ele>
	<time>2023-10-07T12:05:35.000Z</time>
</trkpt>
<trkpt lat="45.9266190" lon="9.5638950">
	<ele>1512.20</ele>
	<time>2023-10-07T12:05:36.000Z</time>
</trkpt>
<trkpt lat="45.9266100" lon="9.5639010">
	<ele>1512.00</ele>
	<time>2023-10-07T12:05:37.000Z</time>
</trkpt>
<trkpt lat="45.9265990" lon="9.5639080">
	<ele>1511.80</ele>
	<time>2023-10-07T12:05:38.000Z</time>
</trkpt>
<trkpt lat="45.9265890" lon="9.5639160">
	<ele>1511.80</ele>
	<time>2023-10-07T12:05:39.000Z</time>
</trkpt>
<trkpt lat="45.9265850" lon="9.5639220">
	<ele>1511.40</ele>
	<time>2023-10-07T12:05:40.000Z</time>
</trkpt>
<trkpt lat="45.9265800" lon="9.5639280">
	<ele>1511.20</ele>
	<time>2023-10-07T12:05:41.000Z</time>
</trkpt>
<trkpt lat="45.9265730" lon="9.5639350">
	<ele>1511.00</ele>
	<time>2023-10-07T12:05:42.000Z</time>
</trkpt>
<trkpt lat="45.9265670" lon="9.5639440">
	<ele>1510.80</ele>
	<time>2023-10-07T12:05:43.000Z</time>
</trkpt>
<trkpt lat="45.9265620" lon="9.5639590">
	<ele>1510.40</ele>
	<time>2023-10-07T12:05:44.000Z</time>
</trkpt>
<trkpt lat="45.9265520" lon="9.5639780">
	<ele>1510.20</ele>
	<time>2023-10-07T12:05:45.000Z</time>
</trkpt>
<trkpt lat="45.9265450" lon="9.5639910">
	<ele>1509.80</ele>
	<time>2023-10-07T12:05:46.000Z</time>
</trkpt>
<trkpt lat="45.9265350" lon="9.5640100">
	<ele>1509.40</ele>
	<time>2023-10-07T12:05:47.000Z</time>
</trkpt>
<trkpt lat="45.9265250" lon="9.5640240">
	<ele>1509.20</ele>
	<time>2023-10-07T12:05:48.000Z</time>
</trkpt>
<trkpt lat="45.9265140" lon="9.5640360">
	<ele>1509.00</ele>
	<time>2023-10-07T12:05:49.000Z</time>
</trkpt>
<trkpt lat="45.9265080" lon="9.5640410">
	<ele>1509.00</ele>
	<time>2023-10-07T12:05:50.000Z</time>
</trkpt>
<trkpt lat="45.9264970" lon="9.5640480">
	<ele>1508.80</ele>
	<time>2023-10-07T12:05:51.000Z</time>
</trkpt>
<trkpt lat="45.9264860" lon="9.5640520">
	<ele>1508.80</ele>
	<time>2023-10-07T12:05:52.000Z</time>
</trkpt>
<trkpt lat="45.9264770" lon="9.5640530">
	<ele>1508.60</ele>
	<time>2023-10-07T12:05:53.000Z</time>
</trkpt>
<trkpt lat="45.9264690" lon="9.5640520">
	<ele>1508.60</ele>
	<time>2023-10-07T12:05:54.000Z</time>
</trkpt>
<trkpt lat="45.9264570" lon="9.5640500">
	<ele>1508.60</ele>
	<time>2023-10-07T12:05:55.000Z</time>
</trkpt>
<trkpt lat="45.9264470" lon="9.5640510">
	<ele>1508.20</ele>
	<time>2023-10-07T12:05:56.000Z</time>
</trkpt>
<trkpt lat="45.9264370" lon="9.5640560">
	<ele>1508.20</ele>
	<time>2023-10-07T12:05:57.000Z</time>
</trkpt>
<trkpt lat="45.9264240" lon="9.5640620">
	<ele>1508.00</ele>
	<time>2023-10-07T12:05:58.000Z</time>
</trkpt>
<trkpt lat="45.9264140" lon="9.5640700">
	<ele>1508.00</ele>
	<time>2023-10-07T12:05:59.000Z</time>
</trkpt>
<trkpt lat="45.9264030" lon="9.5640780">
	<ele>1507.80</ele>
	<time>2023-10-07T12:06:00.000Z</time>
</trkpt>
<trkpt lat="45.9263960" lon="9.5640910">
	<ele>1507.80</ele>
	<time>2023-10-07T12:06:01.000Z</time>
</trkpt>
<trkpt lat="45.9263920" lon="9.5641020">
	<ele>1507.60</ele>
	<time>2023-10-07T12:06:02.000Z</time>
</trkpt>
<trkpt lat="45.9263820" lon="9.5641160">
	<ele>1507.60</ele>
	<time>2023-10-07T12:06:03.000Z</time>
</trkpt>
<trkpt lat="45.9263740" lon="9.5641250">
	<ele>1507.40</ele>
	<time>2023-10-07T12:06:04.000Z</time>
</trkpt>
<trkpt lat="45.9263680" lon="9.5641350">
	<ele>1507.40</ele>
	<time>2023-10-07T12:06:05.000Z</time>
</trkpt>
<trkpt lat="45.9263630" lon="9.5641450">
	<ele>1507.20</ele>
	<time>2023-10-07T12:06:06.000Z</time>
</trkpt>
<trkpt lat="45.9263580" lon="9.5641600">
	<ele>1507.00</ele>
	<time>2023-10-07T12:06:07.000Z</time>
</trkpt>
<trkpt lat="45.9263590" lon="9.5641650">
	<ele>1506.80</ele>
	<time>2023-10-07T12:06:08.000Z</time>
</trkpt>
<trkpt lat="45.9263580" lon="9.5641730">
	<ele>1506.80</ele>
	<time>2023-10-07T12:06:09.000Z</time>
</trkpt>
<trkpt lat="45.9263580" lon="9.5641760">
	<ele>1506.80</ele>
	<time>2023-10-07T12:06:10.000Z</time>
</trkpt>
<trkpt lat="45.9263570" lon="9.5641790">
	<ele>1506.60</ele>
	<time>2023-10-07T12:06:11.000Z</time>
</trkpt>
<trkpt lat="45.9263580" lon="9.5641830">
	<ele>1506.60</ele>
	<time>2023-10-07T12:06:12.000Z</time>
</trkpt>
<trkpt lat="45.9263570" lon="9.5641870">
	<ele>1506.60</ele>
	<time>2023-10-07T12:06:13.000Z</time>
</trkpt>
<trkpt lat="45.9263560" lon="9.5641910">
	<ele>1506.60</ele>
	<time>2023-10-07T12:06:14.000Z</time>
</trkpt>
<trkpt lat="45.9263560" lon="9.5641930">
	<ele>1506.60</ele>
	<time>2023-10-07T12:06:15.000Z</time>
</trkpt>
<trkpt lat="45.9263570" lon="9.5641940">
	<ele>1506.60</ele>
	<time>2023-10-07T12:06:16.000Z</time>
</trkpt>
<trkpt lat="45.9263580" lon="9.5641930">
	<ele>1506.60</ele>
	<time>2023-10-07T12:06:17.000Z</time>
</trkpt>
<trkpt lat="45.9263590" lon="9.5641920">
	<ele>1506.40</ele>
	<time>2023-10-07T12:06:18.000Z</time>
</trkpt>
<trkpt lat="45.9263620" lon="9.5641960">
	<ele>1506.60</ele>
	<time>2023-10-07T12:06:19.000Z</time>
</trkpt>
<trkpt lat="45.9263630" lon="9.5641970">
	<ele>1506.60</ele>
	<time>2023-10-07T12:06:20.000Z</time>
</trkpt>
<trkpt lat="45.9263650" lon="9.5641950">
	<ele>1506.60</ele>
	<time>2023-10-07T12:06:21.000Z</time>
</trkpt>
<trkpt lat="45.9263660" lon="9.5641940">
	<ele>1506.60</ele>
	<time>2023-10-07T12:06:22.000Z</time>
</trkpt>
<trkpt lat="45.9263670" lon="9.5641930">
	<ele>1507.00</ele>
	<time>2023-10-07T12:06:23.000Z</time>
</trkpt>
<trkpt lat="45.9263670" lon="9.5641930">
	<ele>1507.00</ele>
	<time>2023-10-07T12:06:24.000Z</time>
</trkpt>
<trkpt lat="45.9263670" lon="9.5641930">
	<ele>1507.20</ele>
	<time>2023-10-07T12:06:25.000Z</time>
</trkpt>
<trkpt lat="45.9263670" lon="9.5641930">
	<ele>1507.20</ele>
	<time>2023-10-07T12:06:26.000Z</time>
</trkpt>
<trkpt lat="45.9263670" lon="9.5641930">
	<ele>1507.20</ele>
	<time>2023-10-07T12:06:27.000Z</time>
</trkpt>
<trkpt lat="45.9263670" lon="9.5641930">
	<ele>1507.00</ele>
	<time>2023-10-07T12:06:28.000Z</time>
</trkpt>
<trkpt lat="45.9263670" lon="9.5641930">
	<ele>1506.60</ele>
	<time>2023-10-07T12:06:29.000Z</time>
</trkpt>
<trkpt lat="45.9263670" lon="9.5641930">
	<ele>1506.60</ele>
	<time>2023-10-07T12:06:30.000Z</time>
</trkpt>
<trkpt lat="45.9263670" lon="9.5641930">
	<ele>1506.40</ele>
	<time>2023-10-07T12:06:31.000Z</time>
</trkpt>
<trkpt lat="45.9263670" lon="9.5641930">
	<ele>1506.40</ele>
	<time>2023-10-07T12:06:32.000Z</time>
</trkpt>
<trkpt lat="45.9263660" lon="9.5641930">
	<ele>1506.40</ele>
	<time>2023-10-07T12:06:33.000Z</time>
</trkpt>
<trkpt lat="45.9263660" lon="9.5641930">
	<ele>1506.40</ele>
	<time>2023-10-07T12:06:34.000Z</time>
</trkpt>
<trkpt lat="45.9263660" lon="9.5641930">
	<ele>1506.40</ele>
	<time>2023-10-07T12:06:35.000Z</time>
</trkpt>
<trkpt lat="45.9263650" lon="9.5641930">
	<ele>1506.40</ele>
	<time>2023-10-07T12:06:36.000Z</time>
</trkpt>
<trkpt lat="45.9263650" lon="9.5641930">
	<ele>1506.60</ele>
	<time>2023-10-07T12:06:37.000Z</time>
</trkpt>
<trkpt lat="45.9263640" lon="9.5641930">
	<ele>1506.60</ele>
	<time>2023-10-07T12:06:38.000Z</time>
</trkpt>
<trkpt lat="45.9263640" lon="9.5641930">
	<ele>1506.60</ele>
	<time>2023-10-07T12:06:39.000Z</time>
</trkpt>
<trkpt lat="45.9263640" lon="9.5641930">
	<ele>1506.60</ele>
	<time>2023-10-07T12:06:40.000Z</time>
</trkpt>
<trkpt lat="45.9263640" lon="9.5641930">
	<ele>1506.60</ele>
	<time>2023-10-07T12:06:41.000Z</time>
</trkpt>
<trkpt lat="45.9263640" lon="9.5641920">
	<ele>1506.60</ele>
	<time>2023-10-07T12:06:42.000Z</time>
</trkpt>
<trkpt lat="45.9263640" lon="9.5641920">
	<ele>1506.60</ele>
	<time>2023-10-07T12:06:43.000Z</time>
</trkpt>
<trkpt lat="45.9263630" lon="9.5641920">
	<ele>1506.60</ele>
	<time>2023-10-07T12:06:44.000Z</time>
</trkpt>
<trkpt lat="45.9263630" lon="9.5641920">
	<ele>1506.40</ele>
	<time>2023-10-07T12:06:45.000Z</time>
</trkpt>
<trkpt lat="45.9263630" lon="9.5641920">
	<ele>1506.40</ele>
	<time>2023-10-07T12:06:46.000Z</time>
</trkpt>
<trkpt lat="45.9263630" lon="9.5641910">
	<ele>1506.40</ele>
	<time>2023-10-07T12:06:47.000Z</time>
</trkpt>
<trkpt lat="45.9263630" lon="9.5641910">
	<ele>1506.40</ele>
	<time>2023-10-07T12:06:48.000Z</time>
</trkpt>
<trkpt lat="45.9263630" lon="9.5641900">
	<ele>1506.40</ele>
	<time>2023-10-07T12:06:49.000Z</time>
</trkpt>
<trkpt lat="45.9263630" lon="9.5641900">
	<ele>1506.20</ele>
	<time>2023-10-07T12:06:50.000Z</time>
</trkpt>
<trkpt lat="45.9263630" lon="9.5641890">
	<ele>1506.20</ele>
	<time>2023-10-07T12:06:51.000Z</time>
</trkpt>
<trkpt lat="45.9263630" lon="9.5641890">
	<ele>1506.40</ele>
	<time>2023-10-07T12:06:52.000Z</time>
</trkpt>
<trkpt lat="45.9263630" lon="9.5641890">
	<ele>1506.20</ele>
	<time>2023-10-07T12:06:53.000Z</time>
</trkpt>
<trkpt lat="45.9263630" lon="9.5641890">
	<ele>1506.40</ele>
	<time>2023-10-07T12:06:54.000Z</time>
</trkpt>
<trkpt lat="45.9263620" lon="9.5641890">
	<ele>1506.40</ele>
	<time>2023-10-07T12:06:55.000Z</time>
</trkpt>
<trkpt lat="45.9263620" lon="9.5641890">
	<ele>1506.40</ele>
	<time>2023-10-07T12:06:56.000Z</time>
</trkpt>
<trkpt lat="45.9263620" lon="9.5641890">
	<ele>1506.40</ele>
	<time>2023-10-07T12:06:57.000Z</time>
</trkpt>
<trkpt lat="45.9263620" lon="9.5641890">
	<ele>1506.20</ele>
	<time>2023-10-07T12:06:58.000Z</time>
</trkpt>
<trkpt lat="45.9263620" lon="9.5641890">
	<ele>1506.20</ele>
	<time>2023-10-07T12:06:59.000Z</time>
</trkpt>
<trkpt lat="45.9263620" lon="9.5641890">
	<ele>1506.20</ele>
	<time>2023-10-07T12:07:00.000Z</time>
</trkpt>
<trkpt lat="45.9263560" lon="9.5641910">
	<ele>1506.20</ele>
	<time>2023-10-07T12:07:01.000Z</time>
</trkpt>
<trkpt lat="45.9263420" lon="9.5641910">
	<ele>1506.00</ele>
	<time>2023-10-07T12:07:02.000Z</time>
</trkpt>
<trkpt lat="45.9263290" lon="9.5641940">
	<ele>1505.80</ele>
	<time>2023-10-07T12:07:03.000Z</time>
</trkpt>
<trkpt lat="45.9263130" lon="9.5642010">
	<ele>1505.80</ele>
	<time>2023-10-07T12:07:04.000Z</time>
</trkpt>
<trkpt lat="45.9262980" lon="9.5642090">
	<ele>1505.60</ele>
	<time>2023-10-07T12:07:05.000Z</time>
</trkpt>
<trkpt lat="45.9262840" lon="9.5642150">
	<ele>1505.60</ele>
	<time>2023-10-07T12:07:06.000Z</time>
</trkpt>
<trkpt lat="45.9262680" lon="9.5642230">
	<ele>1505.40</ele>
	<time>2023-10-07T12:07:07.000Z</time>
</trkpt>
<trkpt lat="45.9262530" lon="9.5642330">
	<ele>1505.40</ele>
	<time>2023-10-07T12:07:08.000Z</time>
</trkpt>
<trkpt lat="45.9262400" lon="9.5642430">
	<ele>1505.20</ele>
	<time>2023-10-07T12:07:09.000Z</time>
</trkpt>
<trkpt lat="45.9262250" lon="9.5642510">
	<ele>1505.20</ele>
	<time>2023-10-07T12:07:10.000Z</time>
</trkpt>
<trkpt lat="45.9262150" lon="9.5642540">
	<ele>1505.20</ele>
	<time>2023-10-07T12:07:11.000Z</time>
</trkpt>
<trkpt lat="45.9262020" lon="9.5642600">
	<ele>1505.20</ele>
	<time>2023-10-07T12:07:12.000Z</time>
</trkpt>
<trkpt lat="45.9261890" lon="9.5642620">
	<ele>1505.00</ele>
	<time>2023-10-07T12:07:13.000Z</time>
</trkpt>
<trkpt lat="45.9261810" lon="9.5642600">
	<ele>1505.00</ele>
	<time>2023-10-07T12:07:14.000Z</time>
</trkpt>
<trkpt lat="45.9261750" lon="9.5642520">
	<ele>1504.80</ele>
	<time>2023-10-07T12:07:15.000Z</time>
</trkpt>
<trkpt lat="45.9261700" lon="9.5642470">
	<ele>1504.60</ele>
	<time>2023-10-07T12:07:16.000Z</time>
</trkpt>
<trkpt lat="45.9261630" lon="9.5642440">
	<ele>1504.40</ele>
	<time>2023-10-07T12:07:17.000Z</time>
</trkpt>
<trkpt lat="45.9261540" lon="9.5642440">
	<ele>1504.40</ele>
	<time>2023-10-07T12:07:18.000Z</time>
</trkpt>
<trkpt lat="45.9261440" lon="9.5642470">
	<ele>1504.20</ele>
	<time>2023-10-07T12:07:19.000Z</time>
</trkpt>
<trkpt lat="45.9261310" lon="9.5642540">
	<ele>1504.20</ele>
	<time>2023-10-07T12:07:20.000Z</time>
</trkpt>
<trkpt lat="45.9261200" lon="9.5642600">
	<ele>1504.00</ele>
	<time>2023-10-07T12:07:21.000Z</time>
</trkpt>
<trkpt lat="45.9261110" lon="9.5642650">
	<ele>1504.00</ele>
	<time>2023-10-07T12:07:22.000Z</time>
</trkpt>
<trkpt lat="45.9261020" lon="9.5642690">
	<ele>1503.60</ele>
	<time>2023-10-07T12:07:23.000Z</time>
</trkpt>
<trkpt lat="45.9260920" lon="9.5642730">
	<ele>1503.60</ele>
	<time>2023-10-07T12:07:24.000Z</time>
</trkpt>
<trkpt lat="45.9260790" lon="9.5642730">
	<ele>1503.60</ele>
	<time>2023-10-07T12:07:25.000Z</time>
</trkpt>
<trkpt lat="45.9260650" lon="9.5642760">
	<ele>1503.40</ele>
	<time>2023-10-07T12:07:26.000Z</time>
</trkpt>
<trkpt lat="45.9260530" lon="9.5642750">
	<ele>1503.40</ele>
	<time>2023-10-07T12:07:27.000Z</time>
</trkpt>
<trkpt lat="45.9260410" lon="9.5642810">
	<ele>1503.40</ele>
	<time>2023-10-07T12:07:28.000Z</time>
</trkpt>
<trkpt lat="45.9260270" lon="9.5642950">
	<ele>1503.20</ele>
	<time>2023-10-07T12:07:29.000Z</time>
</trkpt>
<trkpt lat="45.9260180" lon="9.5643070">
	<ele>1503.00</ele>
	<time>2023-10-07T12:07:30.000Z</time>
</trkpt>
<trkpt lat="45.9260110" lon="9.5643170">
	<ele>1502.80</ele>
	<time>2023-10-07T12:07:31.000Z</time>
</trkpt>
<trkpt lat="45.9260050" lon="9.5643290">
	<ele>1502.60</ele>
	<time>2023-10-07T12:07:32.000Z</time>
</trkpt>
<trkpt lat="45.9259990" lon="9.5643370">
	<ele>1502.40</ele>
	<time>2023-10-07T12:07:33.000Z</time>
</trkpt>
<trkpt lat="45.9259880" lon="9.5643460">
	<ele>1502.40</ele>
	<time>2023-10-07T12:07:34.000Z</time>
</trkpt>
<trkpt lat="45.9259770" lon="9.5643540">
	<ele>1502.40</ele>
	<time>2023-10-07T12:07:35.000Z</time>
</trkpt>
<trkpt lat="45.9259680" lon="9.5643560">
	<ele>1501.80</ele>
	<time>2023-10-07T12:07:36.000Z</time>
</trkpt>
<trkpt lat="45.9259600" lon="9.5643600">
	<ele>1501.60</ele>
	<time>2023-10-07T12:07:37.000Z</time>
</trkpt>
<trkpt lat="45.9259530" lon="9.5643730">
	<ele>1501.40</ele>
	<time>2023-10-07T12:07:38.000Z</time>
</trkpt>
<trkpt lat="45.9259460" lon="9.5643870">
	<ele>1501.20</ele>
	<time>2023-10-07T12:07:39.000Z</time>
</trkpt>
<trkpt lat="45.9259390" lon="9.5644000">
	<ele>1501.20</ele>
	<time>2023-10-07T12:07:40.000Z</time>
</trkpt>
<trkpt lat="45.9259340" lon="9.5644130">
	<ele>1501.00</ele>
	<time>2023-10-07T12:07:41.000Z</time>
</trkpt>
<trkpt lat="45.9259280" lon="9.5644300">
	<ele>1501.00</ele>
	<time>2023-10-07T12:07:42.000Z</time>
</trkpt>
<trkpt lat="45.9259220" lon="9.5644430">
	<ele>1501.00</ele>
	<time>2023-10-07T12:07:43.000Z</time>
</trkpt>
<trkpt lat="45.9259150" lon="9.5644540">
	<ele>1501.00</ele>
	<time>2023-10-07T12:07:44.000Z</time>
</trkpt>
<trkpt lat="45.9259070" lon="9.5644630">
	<ele>1501.00</ele>
	<time>2023-10-07T12:07:45.000Z</time>
</trkpt>
<trkpt lat="45.9258970" lon="9.5644700">
	<ele>1501.00</ele>
	<time>2023-10-07T12:07:46.000Z</time>
</trkpt>
<trkpt lat="45.9258890" lon="9.5644800">
	<ele>1501.00</ele>
	<time>2023-10-07T12:07:47.000Z</time>
</trkpt>
<trkpt lat="45.9258800" lon="9.5644880">
	<ele>1501.00</ele>
	<time>2023-10-07T12:07:48.000Z</time>
</trkpt>
<trkpt lat="45.9258700" lon="9.5644930">
	<ele>1501.00</ele>
	<time>2023-10-07T12:07:49.000Z</time>
</trkpt>
<trkpt lat="45.9258590" lon="9.5644970">
	<ele>1501.00</ele>
	<time>2023-10-07T12:07:50.000Z</time>
</trkpt>
<trkpt lat="45.9258470" lon="9.5645010">
	<ele>1501.00</ele>
	<time>2023-10-07T12:07:51.000Z</time>
</trkpt>
<trkpt lat="45.9258350" lon="9.5645030">
	<ele>1501.00</ele>
	<time>2023-10-07T12:07:52.000Z</time>
</trkpt>
<trkpt lat="45.9258220" lon="9.5645060">
	<ele>1501.00</ele>
	<time>2023-10-07T12:07:53.000Z</time>
</trkpt>
<trkpt lat="45.9258100" lon="9.5645080">
	<ele>1501.00</ele>
	<time>2023-10-07T12:07:54.000Z</time>
</trkpt>
<trkpt lat="45.9257990" lon="9.5645180">
	<ele>1501.00</ele>
	<time>2023-10-07T12:07:55.000Z</time>
</trkpt>
<trkpt lat="45.9257900" lon="9.5645300">
	<ele>1501.00</ele>
	<time>2023-10-07T12:07:56.000Z</time>
</trkpt>
<trkpt lat="45.9257810" lon="9.5645390">
	<ele>1501.00</ele>
	<time>2023-10-07T12:07:57.000Z</time>
</trkpt>
<trkpt lat="45.9257750" lon="9.5645490">
	<ele>1501.00</ele>
	<time>2023-10-07T12:07:58.000Z</time>
</trkpt>
<trkpt lat="45.9257720" lon="9.5645540">
	<ele>1501.00</ele>
	<time>2023-10-07T12:07:59.000Z</time>
</trkpt>
<trkpt lat="45.9257670" lon="9.5645570">
	<ele>1501.00</ele>
	<time>2023-10-07T12:08:00.000Z</time>
</trkpt>
<trkpt lat="45.9257620" lon="9.5645600">
	<ele>1500.80</ele>
	<time>2023-10-07T12:08:01.000Z</time>
</trkpt>
<trkpt lat="45.9257560" lon="9.5645670">
	<ele>1500.60</ele>
	<time>2023-10-07T12:08:02.000Z</time>
</trkpt>
<trkpt lat="45.9257490" lon="9.5645780">
	<ele>1500.40</ele>
	<time>2023-10-07T12:08:03.000Z</time>
</trkpt>
<trkpt lat="45.9257470" lon="9.5645890">
	<ele>1500.20</ele>
	<time>2023-10-07T12:08:04.000Z</time>
</trkpt>
<trkpt lat="45.9257480" lon="9.5646020">
	<ele>1500.20</ele>
	<time>2023-10-07T12:08:05.000Z</time>
</trkpt>
<trkpt lat="45.9257500" lon="9.5646140">
	<ele>1500.00</ele>
	<time>2023-10-07T12:08:06.000Z</time>
</trkpt>
<trkpt lat="45.9257500" lon="9.5646280">
	<ele>1500.00</ele>
	<time>2023-10-07T12:08:07.000Z</time>
</trkpt>
<trkpt lat="45.9257470" lon="9.5646420">
	<ele>1499.80</ele>
	<time>2023-10-07T12:08:08.000Z</time>
</trkpt>
<trkpt lat="45.9257440" lon="9.5646570">
	<ele>1499.60</ele>
	<time>2023-10-07T12:08:09.000Z</time>
</trkpt>
<trkpt lat="45.9257390" lon="9.5646700">
	<ele>1499.40</ele>
	<time>2023-10-07T12:08:10.000Z</time>
</trkpt>
<trkpt lat="45.9257370" lon="9.5646810">
	<ele>1499.20</ele>
	<time>2023-10-07T12:08:11.000Z</time>
</trkpt>
<trkpt lat="45.9257350" lon="9.5646950">
	<ele>1499.00</ele>
	<time>2023-10-07T12:08:12.000Z</time>
</trkpt>
<trkpt lat="45.9257320" lon="9.5647040">
	<ele>1499.00</ele>
	<time>2023-10-07T12:08:13.000Z</time>
</trkpt>
<trkpt lat="45.9257280" lon="9.5647160">
	<ele>1498.80</ele>
	<time>2023-10-07T12:08:14.000Z</time>
</trkpt>
<trkpt lat="45.9257260" lon="9.5647330">
	<ele>1498.80</ele>
	<time>2023-10-07T12:08:15.000Z</time>
</trkpt>
<trkpt lat="45.9257220" lon="9.5647510">
	<ele>1498.80</ele>
	<time>2023-10-07T12:08:16.000Z</time>
</trkpt>
<trkpt lat="45.9257180" lon="9.5647640">
	<ele>1498.60</ele>
	<time>2023-10-07T12:08:17.000Z</time>
</trkpt>
<trkpt lat="45.9257120" lon="9.5647680">
	<ele>1498.40</ele>
	<time>2023-10-07T12:08:18.000Z</time>
</trkpt>
<trkpt lat="45.9257060" lon="9.5647760">
	<ele>1498.40</ele>
	<time>2023-10-07T12:08:19.000Z</time>
</trkpt>
<trkpt lat="45.9256960" lon="9.5647770">
	<ele>1498.20</ele>
	<time>2023-10-07T12:08:20.000Z</time>
</trkpt>
<trkpt lat="45.9256910" lon="9.5647840">
	<ele>1498.20</ele>
	<time>2023-10-07T12:08:21.000Z</time>
</trkpt>
<trkpt lat="45.9256820" lon="9.5647910">
	<ele>1498.00</ele>
	<time>2023-10-07T12:08:22.000Z</time>
</trkpt>
<trkpt lat="45.9256770" lon="9.5647970">
	<ele>1497.80</ele>
	<time>2023-10-07T12:08:23.000Z</time>
</trkpt>
<trkpt lat="45.9256670" lon="9.5648040">
	<ele>1497.80</ele>
	<time>2023-10-07T12:08:24.000Z</time>
</trkpt>
<trkpt lat="45.9256600" lon="9.5648080">
	<ele>1497.80</ele>
	<time>2023-10-07T12:08:25.000Z</time>
</trkpt>
<trkpt lat="45.9256560" lon="9.5648160">
	<ele>1497.80</ele>
	<time>2023-10-07T12:08:26.000Z</time>
</trkpt>
<trkpt lat="45.9256570" lon="9.5648270">
	<ele>1497.60</ele>
	<time>2023-10-07T12:08:27.000Z</time>
</trkpt>
<trkpt lat="45.9256550" lon="9.5648330">
	<ele>1497.40</ele>
	<time>2023-10-07T12:08:28.000Z</time>
</trkpt>
<trkpt lat="45.9256520" lon="9.5648450">
	<ele>1497.40</ele>
	<time>2023-10-07T12:08:29.000Z</time>
</trkpt>
<trkpt lat="45.9256480" lon="9.5648600">
	<ele>1497.40</ele>
	<time>2023-10-07T12:08:30.000Z</time>
</trkpt>
<trkpt lat="45.9256460" lon="9.5648720">
	<ele>1497.20</ele>
	<time>2023-10-07T12:08:31.000Z</time>
</trkpt>
<trkpt lat="45.9256520" lon="9.5648760">
	<ele>1497.20</ele>
	<time>2023-10-07T12:08:32.000Z</time>
</trkpt>
<trkpt lat="45.9256610" lon="9.5648760">
	<ele>1497.20</ele>
	<time>2023-10-07T12:08:33.000Z</time>
</trkpt>
<trkpt lat="45.9256630" lon="9.5648870">
	<ele>1497.00</ele>
	<time>2023-10-07T12:08:34.000Z</time>
</trkpt>
<trkpt lat="45.9256630" lon="9.5648960">
	<ele>1497.00</ele>
	<time>2023-10-07T12:08:35.000Z</time>
</trkpt>
<trkpt lat="45.9256690" lon="9.5649040">
	<ele>1497.00</ele>
	<time>2023-10-07T12:08:36.000Z</time>
</trkpt>
<trkpt lat="45.9256740" lon="9.5649120">
	<ele>1497.00</ele>
	<time>2023-10-07T12:08:37.000Z</time>
</trkpt>
<trkpt lat="45.9256820" lon="9.5649150">
	<ele>1497.00</ele>
	<time>2023-10-07T12:08:38.000Z</time>
</trkpt>
<trkpt lat="45.9256880" lon="9.5649230">
	<ele>1497.00</ele>
	<time>2023-10-07T12:08:39.000Z</time>
</trkpt>
<trkpt lat="45.9256870" lon="9.5649320">
	<ele>1497.00</ele>
	<time>2023-10-07T12:08:40.000Z</time>
</trkpt>
<trkpt lat="45.9256850" lon="9.5649360">
	<ele>1497.20</ele>
	<time>2023-10-07T12:08:41.000Z</time>
</trkpt>
<trkpt lat="45.9256820" lon="9.5649390">
	<ele>1497.20</ele>
	<time>2023-10-07T12:08:42.000Z</time>
</trkpt>
<trkpt lat="45.9256790" lon="9.5649430">
	<ele>1497.00</ele>
	<time>2023-10-07T12:08:43.000Z</time>
</trkpt>
<trkpt lat="45.9256820" lon="9.5649460">
	<ele>1497.00</ele>
	<time>2023-10-07T12:08:44.000Z</time>
</trkpt>
<trkpt lat="45.9256830" lon="9.5649530">
	<ele>1497.00</ele>
	<time>2023-10-07T12:08:45.000Z</time>
</trkpt>
<trkpt lat="45.9256830" lon="9.5649600">
	<ele>1497.00</ele>
	<time>2023-10-07T12:08:46.000Z</time>
</trkpt>
<trkpt lat="45.9256820" lon="9.5649640">
	<ele>1497.00</ele>
	<time>2023-10-07T12:08:47.000Z</time>
</trkpt>
<trkpt lat="45.9256830" lon="9.5649680">
	<ele>1497.20</ele>
	<time>2023-10-07T12:08:48.000Z</time>
</trkpt>
<trkpt lat="45.9256810" lon="9.5649730">
	<ele>1497.40</ele>
	<time>2023-10-07T12:08:49.000Z</time>
</trkpt>
<trkpt lat="45.9256790" lon="9.5649800">
	<ele>1497.60</ele>
	<time>2023-10-07T12:08:50.000Z</time>
</trkpt>
<trkpt lat="45.9256820" lon="9.5649860">
	<ele>1497.60</ele>
	<time>2023-10-07T12:08:51.000Z</time>
</trkpt>
<trkpt lat="45.9256810" lon="9.5649900">
	<ele>1497.60</ele>
	<time>2023-10-07T12:08:52.000Z</time>
</trkpt>
<trkpt lat="45.9256730" lon="9.5649930">
	<ele>1497.60</ele>
	<time>2023-10-07T12:08:53.000Z</time>
</trkpt>
<trkpt lat="45.9256700" lon="9.5649960">
	<ele>1497.60</ele>
	<time>2023-10-07T12:08:54.000Z</time>
</trkpt>
<trkpt lat="45.9256670" lon="9.5649890">
	<ele>1497.60</ele>
	<time>2023-10-07T12:08:55.000Z</time>
</trkpt>
<trkpt lat="45.9256620" lon="9.5649790">
	<ele>1497.60</ele>
	<time>2023-10-07T12:08:56.000Z</time>
</trkpt>
<trkpt lat="45.9256510" lon="9.5649780">
	<ele>1497.60</ele>
	<time>2023-10-07T12:08:57.000Z</time>
</trkpt>
<trkpt lat="45.9256490" lon="9.5649850">
	<ele>1497.60</ele>
	<time>2023-10-07T12:08:58.000Z</time>
</trkpt>
<trkpt lat="45.9256410" lon="9.5649980">
	<ele>1497.60</ele>
	<time>2023-10-07T12:08:59.000Z</time>
</trkpt>
<trkpt lat="45.9256290" lon="9.5650160">
	<ele>1497.60</ele>
	<time>2023-10-07T12:09:00.000Z</time>
</trkpt>
<trkpt lat="45.9256320" lon="9.5650250">
	<ele>1497.60</ele>
	<time>2023-10-07T12:09:01.000Z</time>
</trkpt>
<trkpt lat="45.9256220" lon="9.5650320">
	<ele>1497.60</ele>
	<time>2023-10-07T12:09:02.000Z</time>
</trkpt>
<trkpt lat="45.9256270" lon="9.5650430">
	<ele>1497.60</ele>
	<time>2023-10-07T12:09:03.000Z</time>
</trkpt>
<trkpt lat="45.9256300" lon="9.5650470">
	<ele>1497.60</ele>
	<time>2023-10-07T12:09:04.000Z</time>
</trkpt>
<trkpt lat="45.9256280" lon="9.5650530">
	<ele>1497.60</ele>
	<time>2023-10-07T12:09:05.000Z</time>
</trkpt>
<trkpt lat="45.9256290" lon="9.5650540">
	<ele>1497.60</ele>
	<time>2023-10-07T12:09:06.000Z</time>
</trkpt>
<trkpt lat="45.9256230" lon="9.5650630">
	<ele>1497.60</ele>
	<time>2023-10-07T12:09:07.000Z</time>
</trkpt>
<trkpt lat="45.9256200" lon="9.5650700">
	<ele>1497.60</ele>
	<time>2023-10-07T12:09:08.000Z</time>
</trkpt>
<trkpt lat="45.9256200" lon="9.5650690">
	<ele>1497.60</ele>
	<time>2023-10-07T12:09:09.000Z</time>
</trkpt>
<trkpt lat="45.9256270" lon="9.5650570">
	<ele>1497.60</ele>
	<time>2023-10-07T12:09:10.000Z</time>
</trkpt>
<trkpt lat="45.9256350" lon="9.5650420">
	<ele>1497.40</ele>
	<time>2023-10-07T12:09:11.000Z</time>
</trkpt>
<trkpt lat="45.9256280" lon="9.5650490">
	<ele>1497.40</ele>
	<time>2023-10-07T12:09:12.000Z</time>
</trkpt>
<trkpt lat="45.9256210" lon="9.5650630">
	<ele>1497.20</ele>
	<time>2023-10-07T12:09:13.000Z</time>
</trkpt>
<trkpt lat="45.9256320" lon="9.5650460">
	<ele>1497.00</ele>
	<time>2023-10-07T12:09:14.000Z</time>
</trkpt>
<trkpt lat="45.9256410" lon="9.5650290">
	<ele>1497.00</ele>
	<time>2023-10-07T12:09:15.000Z</time>
</trkpt>
<trkpt lat="45.9256570" lon="9.5650040">
	<ele>1497.00</ele>
	<time>2023-10-07T12:09:16.000Z</time>
</trkpt>
<trkpt lat="45.9256710" lon="9.5649870">
	<ele>1497.00</ele>
	<time>2023-10-07T12:09:17.000Z</time>
</trkpt>
<trkpt lat="45.9256820" lon="9.5649730">
	<ele>1497.00</ele>
	<time>2023-10-07T12:09:18.000Z</time>
</trkpt>
<trkpt lat="45.9256930" lon="9.5649550">
	<ele>1497.00</ele>
	<time>2023-10-07T12:09:19.000Z</time>
</trkpt>
<trkpt lat="45.9257050" lon="9.5649290">
	<ele>1496.80</ele>
	<time>2023-10-07T12:09:20.000Z</time>
</trkpt>
<trkpt lat="45.9257060" lon="9.5649150">
	<ele>1496.80</ele>
	<time>2023-10-07T12:09:21.000Z</time>
</trkpt>
<trkpt lat="45.9257180" lon="9.5648820">
	<ele>1496.80</ele>
	<time>2023-10-07T12:09:22.000Z</time>
</trkpt>
<trkpt lat="45.9257220" lon="9.5648600">
	<ele>1496.80</ele>
	<time>2023-10-07T12:09:23.000Z</time>
</trkpt>
<trkpt lat="45.9257040" lon="9.5648580">
	<ele>1496.80</ele>
	<time>2023-10-07T12:09:24.000Z</time>
</trkpt>
<trkpt lat="45.9256860" lon="9.5648530">
	<ele>1496.80</ele>
	<time>2023-10-07T12:09:25.000Z</time>
</trkpt>
<trkpt lat="45.9256790" lon="9.5648490">
	<ele>1496.80</ele>
	<time>2023-10-07T12:09:26.000Z</time>
</trkpt>
<trkpt lat="45.9256770" lon="9.5648520">
	<ele>1496.80</ele>
	<time>2023-10-07T12:09:27.000Z</time>
</trkpt>
<trkpt lat="45.9256750" lon="9.5648570">
	<ele>1496.80</ele>
	<time>2023-10-07T12:09:28.000Z</time>
</trkpt>
<trkpt lat="45.9256800" lon="9.5648600">
	<ele>1496.80</ele>
	<time>2023-10-07T12:09:29.000Z</time>
</trkpt>
<trkpt lat="45.9256880" lon="9.5648560">
	<ele>1496.80</ele>
	<time>2023-10-07T12:09:30.000Z</time>
</trkpt>
<trkpt lat="45.9256970" lon="9.5648510">
	<ele>1496.80</ele>
	<time>2023-10-07T12:09:31.000Z</time>
</trkpt>
<trkpt lat="45.9257000" lon="9.5648540">
	<ele>1496.80</ele>
	<time>2023-10-07T12:09:32.000Z</time>
</trkpt>
<trkpt lat="45.9256920" lon="9.5648500">
	<ele>1496.60</ele>
	<time>2023-10-07T12:09:33.000Z</time>
</trkpt>
<trkpt lat="45.9256910" lon="9.5648440">
	<ele>1496.60</ele>
	<time>2023-10-07T12:09:34.000Z</time>
</trkpt>
<trkpt lat="45.9256910" lon="9.5648410">
	<ele>1496.40</ele>
	<time>2023-10-07T12:09:35.000Z</time>
</trkpt>
<trkpt lat="45.9256920" lon="9.5648370">
	<ele>1496.40</ele>
	<time>2023-10-07T12:09:36.000Z</time>
</trkpt>
<trkpt lat="45.9256930" lon="9.5648320">
	<ele>1496.40</ele>
	<time>2023-10-07T12:09:37.000Z</time>
</trkpt>
<trkpt lat="45.9256940" lon="9.5648280">
	<ele>1496.40</ele>
	<time>2023-10-07T12:09:38.000Z</time>
</trkpt>
<trkpt lat="45.9257000" lon="9.5648200">
	<ele>1496.40</ele>
	<time>2023-10-07T12:09:39.000Z</time>
</trkpt>
<trkpt lat="45.9257030" lon="9.5648120">
	<ele>1496.40</ele>
	<time>2023-10-07T12:09:40.000Z</time>
</trkpt>
<trkpt lat="45.9257010" lon="9.5648080">
	<ele>1496.40</ele>
	<time>2023-10-07T12:09:41.000Z</time>
</trkpt>
<trkpt lat="45.9257000" lon="9.5648030">
	<ele>1496.40</ele>
	<time>2023-10-07T12:09:42.000Z</time>
</trkpt>
<trkpt lat="45.9256980" lon="9.5648020">
	<ele>1496.40</ele>
	<time>2023-10-07T12:09:43.000Z</time>
</trkpt>
<trkpt lat="45.9256960" lon="9.5648020">
	<ele>1496.40</ele>
	<time>2023-10-07T12:09:44.000Z</time>
</trkpt>
<trkpt lat="45.9256960" lon="9.5648000">
	<ele>1496.40</ele>
	<time>2023-10-07T12:09:45.000Z</time>
</trkpt>
<trkpt lat="45.9256980" lon="9.5647940">
	<ele>1496.40</ele>
	<time>2023-10-07T12:09:46.000Z</time>
</trkpt>
<trkpt lat="45.9256970" lon="9.5647950">
	<ele>1496.40</ele>
	<time>2023-10-07T12:09:47.000Z</time>
</trkpt>
<trkpt lat="45.9256980" lon="9.5647910">
	<ele>1496.40</ele>
	<time>2023-10-07T12:09:48.000Z</time>
</trkpt>
<trkpt lat="45.9256990" lon="9.5647870">
	<ele>1496.40</ele>
	<time>2023-10-07T12:09:49.000Z</time>
</trkpt>
<trkpt lat="45.9257100" lon="9.5647700">
	<ele>1496.40</ele>
	<time>2023-10-07T12:09:50.000Z</time>
</trkpt>
<trkpt lat="45.9257270" lon="9.5647410">
	<ele>1496.40</ele>
	<time>2023-10-07T12:09:51.000Z</time>
</trkpt>
<trkpt lat="45.9257380" lon="9.5647240">
	<ele>1496.40</ele>
	<time>2023-10-07T12:09:52.000Z</time>
</trkpt>
<trkpt lat="45.9257380" lon="9.5647210">
	<ele>1496.40</ele>
	<time>2023-10-07T12:09:53.000Z</time>
</trkpt>
<trkpt lat="45.9257400" lon="9.5647160">
	<ele>1496.20</ele>
	<time>2023-10-07T12:09:54.000Z</time>
</trkpt>
<trkpt lat="45.9257370" lon="9.5647170">
	<ele>1496.20</ele>
	<time>2023-10-07T12:09:55.000Z</time>
</trkpt>
<trkpt lat="45.9257330" lon="9.5647210">
	<ele>1496.20</ele>
	<time>2023-10-07T12:09:56.000Z</time>
</trkpt>
<trkpt lat="45.9257290" lon="9.5647260">
	<ele>1496.20</ele>
	<time>2023-10-07T12:09:57.000Z</time>
</trkpt>
<trkpt lat="45.9257310" lon="9.5647240">
	<ele>1496.00</ele>
	<time>2023-10-07T12:09:58.000Z</time>
</trkpt>
<trkpt lat="45.9257360" lon="9.5647170">
	<ele>1496.00</ele>
	<time>2023-10-07T12:09:59.000Z</time>
</trkpt>
<trkpt lat="45.9257410" lon="9.5647100">
	<ele>1496.00</ele>
	<time>2023-10-07T12:10:01.000Z</time>
</trkpt>
<trkpt lat="45.9257400" lon="9.5647080">
	<ele>1496.00</ele>
	<time>2023-10-07T12:10:04.000Z</time>
</trkpt>
<trkpt lat="45.9257360" lon="9.5647140">
	<ele>1496.00</ele>
	<time>2023-10-07T12:10:05.000Z</time>
</trkpt>
<trkpt lat="45.9257500" lon="9.5646880">
	<ele>1496.20</ele>
	<time>2023-10-07T12:10:07.000Z</time>
</trkpt>
<trkpt lat="45.9257600" lon="9.5646740">
	<ele>1496.20</ele>
	<time>2023-10-07T12:10:08.000Z</time>
</trkpt>
<trkpt lat="45.9257570" lon="9.5646770">
	<ele>1496.40</ele>
	<time>2023-10-07T12:10:09.000Z</time>
</trkpt>
<trkpt lat="45.9257580" lon="9.5646750">
	<ele>1496.40</ele>
	<time>2023-10-07T12:10:10.000Z</time>
</trkpt>
<trkpt lat="45.9257580" lon="9.5646730">
	<ele>1496.40</ele>
	<time>2023-10-07T12:10:11.000Z</time>
</trkpt>
<trkpt lat="45.9258580" lon="9.5644670">
	<ele>1496.80</ele>
	<time>2023-10-07T12:16:43.000Z</time>
</trkpt>
<trkpt lat="45.9259380" lon="9.5643910">
	<ele>1496.80</ele>
	<time>2023-10-07T12:16:44.000Z</time>
</trkpt>
<trkpt lat="45.9256060" lon="9.5649550">
	<ele>1496.80</ele>
	<time>2023-10-07T12:16:45.000Z</time>
</trkpt>
<trkpt lat="45.9258490" lon="9.5646700">
	<ele>1496.80</ele>
	<time>2023-10-07T12:16:46.000Z</time>
</trkpt>
<trkpt lat="45.9258790" lon="9.5646700">
	<ele>1497.00</ele>
	<time>2023-10-07T12:16:47.000Z</time>
</trkpt>
<trkpt lat="45.9258900" lon="9.5646770">
	<ele>1496.80</ele>
	<time>2023-10-07T12:16:48.000Z</time>
</trkpt>
<trkpt lat="45.9258160" lon="9.5647840">
	<ele>1496.80</ele>
	<time>2023-10-07T12:16:49.000Z</time>
</trkpt>
<trkpt lat="45.9256980" lon="9.5649420">
	<ele>1496.80</ele>
	<time>2023-10-07T12:16:50.000Z</time>
</trkpt>
<trkpt lat="45.9255110" lon="9.5651740">
	<ele>1496.60</ele>
	<time>2023-10-07T12:16:51.000Z</time>
</trkpt>
<trkpt lat="45.9254620" lon="9.5652300">
	<ele>1496.60</ele>
	<time>2023-10-07T12:16:52.000Z</time>
</trkpt>
<trkpt lat="45.9254640" lon="9.5652000">
	<ele>1496.40</ele>
	<time>2023-10-07T12:16:53.000Z</time>
</trkpt>
<trkpt lat="45.9254870" lon="9.5651250">
	<ele>1496.40</ele>
	<time>2023-10-07T12:16:54.000Z</time>
</trkpt>
<trkpt lat="45.9255240" lon="9.5650710">
	<ele>1496.40</ele>
	<time>2023-10-07T12:16:55.000Z</time>
</trkpt>
<trkpt lat="45.9255300" lon="9.5650580">
	<ele>1496.40</ele>
	<time>2023-10-07T12:16:56.000Z</time>
</trkpt>
<trkpt lat="45.9255110" lon="9.5650730">
	<ele>1496.40</ele>
	<time>2023-10-07T12:16:57.000Z</time>
</trkpt>
<trkpt lat="45.9254980" lon="9.5650900">
	<ele>1496.60</ele>
	<time>2023-10-07T12:16:58.000Z</time>
</trkpt>
<trkpt lat="45.9256130" lon="9.5649370">
	<ele>1496.60</ele>
	<time>2023-10-07T12:16:59.000Z</time>
</trkpt>
<trkpt lat="45.9258090" lon="9.5646660">
	<ele>1496.60</ele>
	<time>2023-10-07T12:17:00.000Z</time>
</trkpt>
<trkpt lat="45.9259300" lon="9.5644930">
	<ele>1496.60</ele>
	<time>2023-10-07T12:17:01.000Z</time>
</trkpt>
<trkpt lat="45.9259510" lon="9.5644580">
	<ele>1496.40</ele>
	<time>2023-10-07T12:17:02.000Z</time>
</trkpt>
<trkpt lat="45.9259470" lon="9.5644560">
	<ele>1496.40</ele>
	<time>2023-10-07T12:17:03.000Z</time>
</trkpt>
<trkpt lat="45.9259630" lon="9.5644290">
	<ele>1496.20</ele>
	<time>2023-10-07T12:17:04.000Z</time>
</trkpt>
<trkpt lat="45.9259720" lon="9.5644100">
	<ele>1496.20</ele>
	<time>2023-10-07T12:17:05.000Z</time>
</trkpt>
<trkpt lat="45.9260040" lon="9.5643660">
	<ele>1496.20</ele>
	<time>2023-10-07T12:17:06.000Z</time>
</trkpt>
<trkpt lat="45.9260360" lon="9.5643220">
	<ele>1496.00</ele>
	<time>2023-10-07T12:17:07.000Z</time>
</trkpt>
<trkpt lat="45.9260590" lon="9.5642910">
	<ele>1496.00</ele>
	<time>2023-10-07T12:17:08.000Z</time>
</trkpt>
<trkpt lat="45.9260730" lon="9.5642710">
	<ele>1496.20</ele>
	<time>2023-10-07T12:17:09.000Z</time>
</trkpt>
<trkpt lat="45.9260690" lon="9.5642700">
	<ele>1496.00</ele>
	<time>2023-10-07T12:17:10.000Z</time>
</trkpt>
<trkpt lat="45.9261010" lon="9.5642220">
	<ele>1496.20</ele>
	<time>2023-10-07T12:17:12.000Z</time>
</trkpt>
<trkpt lat="45.9261420" lon="9.5641680">
	<ele>1496.20</ele>
	<time>2023-10-07T12:17:13.000Z</time>
</trkpt>
<trkpt lat="45.9261650" lon="9.5641330">
	<ele>1496.20</ele>
	<time>2023-10-07T12:17:14.000Z</time>
</trkpt>
<trkpt lat="45.9261770" lon="9.5641070">
	<ele>1496.20</ele>
	<time>2023-10-07T12:17:15.000Z</time>
</trkpt>
<trkpt lat="45.9262150" lon="9.5640460">
	<ele>1496.20</ele>
	<time>2023-10-07T12:17:16.000Z</time>
</trkpt>
<trkpt lat="45.9262450" lon="9.5640100">
	<ele>1496.20</ele>
	<time>2023-10-07T12:17:17.000Z</time>
</trkpt>
<trkpt lat="45.9262540" lon="9.5640030">
	<ele>1496.20</ele>
	<time>2023-10-07T12:17:18.000Z</time>
</trkpt>
<trkpt lat="45.9262010" lon="9.5640700">
	<ele>1496.00</ele>
	<time>2023-10-07T12:17:20.000Z</time>
</trkpt>
<trkpt lat="45.9261700" lon="9.5641100">
	<ele>1496.00</ele>
	<time>2023-10-07T12:17:22.000Z</time>
</trkpt>
<trkpt lat="45.9261200" lon="9.5641750">
	<ele>1496.00</ele>
	<time>2023-10-07T12:17:23.000Z</time>
</trkpt>
<trkpt lat="45.9261290" lon="9.5641630">
	<ele>1496.20</ele>
	<time>2023-10-07T12:17:24.000Z</time>
</trkpt>
<trkpt lat="45.9261550" lon="9.5641350">
	<ele>1496.20</ele>
	<time>2023-10-07T12:17:25.000Z</time>
</trkpt>
<trkpt lat="45.9261560" lon="9.5641320">
	<ele>1496.40</ele>
	<time>2023-10-07T12:17:26.000Z</time>
</trkpt>
<trkpt lat="45.9261570" lon="9.5641150">
	<ele>1496.60</ele>
	<time>2023-10-07T12:17:28.000Z</time>
</trkpt>
<trkpt lat="45.9261550" lon="9.5641190">
	<ele>1496.60</ele>
	<time>2023-10-07T12:17:30.000Z</time>
</trkpt>
<trkpt lat="45.9261310" lon="9.5641600">
	<ele>1496.60</ele>
	<time>2023-10-07T12:17:31.000Z</time>
</trkpt>
<trkpt lat="45.9261100" lon="9.5641970">
	<ele>1496.40</ele>
	<time>2023-10-07T12:17:32.000Z</time>
</trkpt>
<trkpt lat="45.9261580" lon="9.5641410">
	<ele>1496.00</ele>
	<time>2023-10-07T12:17:33.000Z</time>
</trkpt>
<trkpt lat="45.9261520" lon="9.5641660">
	<ele>1496.00</ele>
	<time>2023-10-07T12:17:34.000Z</time>
</trkpt>
<trkpt lat="45.9261340" lon="9.5641990">
	<ele>1495.80</ele>
	<time>2023-10-07T12:17:35.000Z</time>
</trkpt>
<trkpt lat="45.9261210" lon="9.5642190">
	<ele>1495.80</ele>
	<time>2023-10-07T12:17:36.000Z</time>
</trkpt>
<trkpt lat="45.9260860" lon="9.5642670">
	<ele>1496.00</ele>
	<time>2023-10-07T12:17:37.000Z</time>
</trkpt>
<trkpt lat="45.9260700" lon="9.5642850">
	<ele>1496.00</ele>
	<time>2023-10-07T12:17:38.000Z</time>
</trkpt>
<trkpt lat="45.9260460" lon="9.5643140">
	<ele>1496.00</ele>
	<time>2023-10-07T12:17:39.000Z</time>
</trkpt>
<trkpt lat="45.9260570" lon="9.5642990">
	<ele>1496.00</ele>
	<time>2023-10-07T12:17:40.000Z</time>
</trkpt>
<trkpt lat="45.9260830" lon="9.5642660">
	<ele>1496.00</ele>
	<time>2023-10-07T12:17:41.000Z</time>
</trkpt>
<trkpt lat="45.9260990" lon="9.5642460">
	<ele>1496.00</ele>
	<time>2023-10-07T12:17:42.000Z</time>
</trkpt>
<trkpt lat="45.9260980" lon="9.5642470">
	<ele>1496.00</ele>
	<time>2023-10-07T12:17:43.000Z</time>
</trkpt>
<trkpt lat="45.9260750" lon="9.5642900">
	<ele>1496.00</ele>
	<time>2023-10-07T12:17:44.000Z</time>
</trkpt>
<trkpt lat="45.9260540" lon="9.5643270">
	<ele>1496.00</ele>
	<time>2023-10-07T12:17:45.000Z</time>
</trkpt>
<trkpt lat="45.9260300" lon="9.5643650">
	<ele>1495.80</ele>
	<time>2023-10-07T12:17:46.000Z</time>
</trkpt>
<trkpt lat="45.9260130" lon="9.5643910">
	<ele>1495.80</ele>
	<time>2023-10-07T12:17:47.000Z</time>
</trkpt>
<trkpt lat="45.9259930" lon="9.5644170">
	<ele>1495.80</ele>
	<time>2023-10-07T12:17:48.000Z</time>
</trkpt>
<trkpt lat="45.9259640" lon="9.5644650">
	<ele>1495.80</ele>
	<time>2023-10-07T12:17:49.000Z</time>
</trkpt>
<trkpt lat="45.9259580" lon="9.5644870">
	<ele>1495.80</ele>
	<time>2023-10-07T12:17:50.000Z</time>
</trkpt>
<trkpt lat="45.9259350" lon="9.5645440">
	<ele>1495.80</ele>
	<time>2023-10-07T12:17:51.000Z</time>
</trkpt>
<trkpt lat="45.9258990" lon="9.5646100">
	<ele>1495.80</ele>
	<time>2023-10-07T12:17:52.000Z</time>
</trkpt>
<trkpt lat="45.9259270" lon="9.5645710">
	<ele>1495.80</ele>
	<time>2023-10-07T12:17:53.000Z</time>
</trkpt>
<trkpt lat="45.9259480" lon="9.5645440">
	<ele>1495.80</ele>
	<time>2023-10-07T12:17:54.000Z</time>
</trkpt>
<trkpt lat="45.9259520" lon="9.5645380">
	<ele>1495.80</ele>
	<time>2023-10-07T12:17:55.000Z</time>
</trkpt>
<trkpt lat="45.9259550" lon="9.5645370">
	<ele>1495.80</ele>
	<time>2023-10-07T12:17:56.000Z</time>
</trkpt>
<trkpt lat="45.9259460" lon="9.5645500">
	<ele>1495.60</ele>
	<time>2023-10-07T12:17:57.000Z</time>
</trkpt>
<trkpt lat="45.9259490" lon="9.5645510">
	<ele>1495.40</ele>
	<time>2023-10-07T12:17:58.000Z</time>
</trkpt>
<trkpt lat="45.9259390" lon="9.5645620">
	<ele>1495.20</ele>
	<time>2023-10-07T12:17:59.000Z</time>
</trkpt>
<trkpt lat="45.9259160" lon="9.5645850">
	<ele>1495.00</ele>
	<time>2023-10-07T12:18:00.000Z</time>
</trkpt>
<trkpt lat="45.9258920" lon="9.5646230">
	<ele>1495.00</ele>
	<time>2023-10-07T12:18:01.000Z</time>
</trkpt>
<trkpt lat="45.9258490" lon="9.5646820">
	<ele>1494.80</ele>
	<time>2023-10-07T12:18:02.000Z</time>
</trkpt>
<trkpt lat="45.9258210" lon="9.5647180">
	<ele>1494.60</ele>
	<time>2023-10-07T12:18:03.000Z</time>
</trkpt>
<trkpt lat="45.9257930" lon="9.5647490">
	<ele>1494.60</ele>
	<time>2023-10-07T12:18:04.000Z</time>
</trkpt>
<trkpt lat="45.9257740" lon="9.5647670">
	<ele>1494.60</ele>
	<time>2023-10-07T12:18:05.000Z</time>
</trkpt>
<trkpt lat="45.9257610" lon="9.5647780">
	<ele>1494.40</ele>
	<time>2023-10-07T12:18:06.000Z</time>
</trkpt>
<trkpt lat="45.9257260" lon="9.5648110">
	<ele>1494.40</ele>
	<time>2023-10-07T12:18:07.000Z</time>
</trkpt>
<trkpt lat="45.9256950" lon="9.5648090">
	<ele>1494.40</ele>
	<time>2023-10-07T12:18:08.000Z</time>
</trkpt>
<trkpt lat="45.9256750" lon="9.5647970">
	<ele>1494.40</ele>
	<time>2023-10-07T12:18:09.000Z</time>
</trkpt>
<trkpt lat="45.9256500" lon="9.5648040">
	<ele>1494.40</ele>
	<time>2023-10-07T12:18:10.000Z</time>
</trkpt>
<trkpt lat="45.9256370" lon="9.5648010">
	<ele>1494.40</ele>
	<time>2023-10-07T12:18:11.000Z</time>
</trkpt>
<trkpt lat="45.9256340" lon="9.5647950">
	<ele>1494.40</ele>
	<time>2023-10-07T12:18:12.000Z</time>
</trkpt>
<trkpt lat="45.9256460" lon="9.5647780">
	<ele>1494.40</ele>
	<time>2023-10-07T12:18:13.000Z</time>
</trkpt>
<trkpt lat="45.9255770" lon="9.5648590">
	<ele>1494.60</ele>
	<time>2023-10-07T12:18:14.000Z</time>
</trkpt>
<trkpt lat="45.9254570" lon="9.5650180">
	<ele>1494.60</ele>
	<time>2023-10-07T12:18:15.000Z</time>
</trkpt>
<trkpt lat="45.9254410" lon="9.5650690">
	<ele>1494.60</ele>
	<time>2023-10-07T12:18:16.000Z</time>
</trkpt>
<trkpt lat="45.9254590" lon="9.5650500">
	<ele>1494.60</ele>
	<time>2023-10-07T12:18:17.000Z</time>
</trkpt>
<trkpt lat="45.9254960" lon="9.5650090">
	<ele>1494.60</ele>
	<time>2023-10-07T12:18:18.000Z</time>
</trkpt>
<trkpt lat="45.9255140" lon="9.5649660">
	<ele>1494.60</ele>
	<time>2023-10-07T12:18:19.000Z</time>
</trkpt>
<trkpt lat="45.9255320" lon="9.5649240">
	<ele>1494.80</ele>
	<time>2023-10-07T12:18:20.000Z</time>
</trkpt>
<trkpt lat="45.9255420" lon="9.5649050">
	<ele>1494.80</ele>
	<time>2023-10-07T12:18:21.000Z</time>
</trkpt>
<trkpt lat="45.9255450" lon="9.5648960">
	<ele>1494.80</ele>
	<time>2023-10-07T12:18:22.000Z</time>
</trkpt>
<trkpt lat="45.9255480" lon="9.5648870">
	<ele>1494.80</ele>
	<time>2023-10-07T12:18:23.000Z</time>
</trkpt>
<trkpt lat="45.9255510" lon="9.5648810">
	<ele>1494.80</ele>
	<time>2023-10-07T12:18:24.000Z</time>
</trkpt>
<trkpt lat="45.9255550" lon="9.5648810">
	<ele>1494.80</ele>
	<time>2023-10-07T12:18:25.000Z</time>
</trkpt>
<trkpt lat="45.9255550" lon="9.5648810">
	<ele>1495.00</ele>
	<time>2023-10-07T12:18:26.000Z</time>
</trkpt>
<trkpt lat="45.9255570" lon="9.5648820">
	<ele>1495.00</ele>
	<time>2023-10-07T12:18:27.000Z</time>
</trkpt>
<trkpt lat="45.9255570" lon="9.5648800">
	<ele>1495.00</ele>
	<time>2023-10-07T12:18:28.000Z</time>
</trkpt>
<trkpt lat="45.9255610" lon="9.5648850">
	<ele>1495.00</ele>
	<time>2023-10-07T12:18:29.000Z</time>
</trkpt>
<trkpt lat="45.9255620" lon="9.5648850">
	<ele>1495.00</ele>
	<time>2023-10-07T12:18:30.000Z</time>
</trkpt>
<trkpt lat="45.9255630" lon="9.5648870">
	<ele>1495.00</ele>
	<time>2023-10-07T12:18:31.000Z</time>
</trkpt>
<trkpt lat="45.9255680" lon="9.5648880">
	<ele>1495.00</ele>
	<time>2023-10-07T12:18:32.000Z</time>
</trkpt>
<trkpt lat="45.9255840" lon="9.5648870">
	<ele>1495.00</ele>
	<time>2023-10-07T12:18:33.000Z</time>
</trkpt>
<trkpt lat="45.9255940" lon="9.5648740">
	<ele>1494.80</ele>
	<time>2023-10-07T12:18:34.000Z</time>
</trkpt>
<trkpt lat="45.9256000" lon="9.5648450">
	<ele>1494.80</ele>
	<time>2023-10-07T12:18:35.000Z</time>
</trkpt>
<trkpt lat="45.9256050" lon="9.5648180">
	<ele>1494.80</ele>
	<time>2023-10-07T12:18:36.000Z</time>
</trkpt>
<trkpt lat="45.9256050" lon="9.5647890">
	<ele>1494.80</ele>
	<time>2023-10-07T12:18:37.000Z</time>
</trkpt>
<trkpt lat="45.9256060" lon="9.5647740">
	<ele>1494.80</ele>
	<time>2023-10-07T12:18:38.000Z</time>
</trkpt>
<trkpt lat="45.9256090" lon="9.5647580">
	<ele>1495.00</ele>
	<time>2023-10-07T12:18:39.000Z</time>
</trkpt>
<trkpt lat="45.9256070" lon="9.5647500">
	<ele>1495.20</ele>
	<time>2023-10-07T12:18:40.000Z</time>
</trkpt>
<trkpt lat="45.9256050" lon="9.5647520">
	<ele>1495.40</ele>
	<time>2023-10-07T12:18:41.000Z</time>
</trkpt>
<trkpt lat="45.9256030" lon="9.5647480">
	<ele>1495.60</ele>
	<time>2023-10-07T12:18:42.000Z</time>
</trkpt>
<trkpt lat="45.9255980" lon="9.5647490">
	<ele>1495.60</ele>
	<time>2023-10-07T12:18:43.000Z</time>
</trkpt>
<trkpt lat="45.9255940" lon="9.5647530">
	<ele>1495.60</ele>
	<time>2023-10-07T12:18:44.000Z</time>
</trkpt>
<trkpt lat="45.9255910" lon="9.5647560">
	<ele>1495.80</ele>
	<time>2023-10-07T12:18:45.000Z</time>
</trkpt>
<trkpt lat="45.9255930" lon="9.5647560">
	<ele>1495.80</ele>
	<time>2023-10-07T12:18:46.000Z</time>
</trkpt>
<trkpt lat="45.9255980" lon="9.5647610">
	<ele>1495.80</ele>
	<time>2023-10-07T12:18:47.000Z</time>
</trkpt>
<trkpt lat="45.9256010" lon="9.5647670">
	<ele>1495.80</ele>
	<time>2023-10-07T12:18:48.000Z</time>
</trkpt>
<trkpt lat="45.9256100" lon="9.5647700">
	<ele>1495.40</ele>
	<time>2023-10-07T12:18:49.000Z</time>
</trkpt>
<trkpt lat="45.9256180" lon="9.5647710">
	<ele>1495.20</ele>
	<time>2023-10-07T12:18:50.000Z</time>
</trkpt>
<trkpt lat="45.9256220" lon="9.5647780">
	<ele>1495.20</ele>
	<time>2023-10-07T12:18:51.000Z</time>
</trkpt>
<trkpt lat="45.9256220" lon="9.5647900">
	<ele>1495.00</ele>
	<time>2023-10-07T12:18:52.000Z</time>
</trkpt>
<trkpt lat="45.9256190" lon="9.5648030">
	<ele>1494.80</ele>
	<time>2023-10-07T12:18:53.000Z</time>
</trkpt>
<trkpt lat="45.9256180" lon="9.5648140">
	<ele>1494.80</ele>
	<time>2023-10-07T12:18:54.000Z</time>
</trkpt>
<trkpt lat="45.9256160" lon="9.5648240">
	<ele>1494.80</ele>
	<time>2023-10-07T12:18:55.000Z</time>
</trkpt>
<trkpt lat="45.9256120" lon="9.5648340">
	<ele>1494.80</ele>
	<time>2023-10-07T12:18:56.000Z</time>
</trkpt>
<trkpt lat="45.9256080" lon="9.5648410">
	<ele>1494.80</ele>
	<time>2023-10-07T12:18:57.000Z</time>
</trkpt>
<trkpt lat="45.9256050" lon="9.5648480">
	<ele>1494.60</ele>
	<time>2023-10-07T12:18:58.000Z</time>
</trkpt>
<trkpt lat="45.9256010" lon="9.5648530">
	<ele>1494.60</ele>
	<time>2023-10-07T12:18:59.000Z</time>
</trkpt>
<trkpt lat="45.9255970" lon="9.5648580">
	<ele>1494.60</ele>
	<time>2023-10-07T12:19:00.000Z</time>
</trkpt>
<trkpt lat="45.9255930" lon="9.5648630">
	<ele>1494.40</ele>
	<time>2023-10-07T12:19:01.000Z</time>
</trkpt>
<trkpt lat="45.9255900" lon="9.5648670">
	<ele>1494.40</ele>
	<time>2023-10-07T12:19:02.000Z</time>
</trkpt>
<trkpt lat="45.9255880" lon="9.5648710">
	<ele>1494.40</ele>
	<time>2023-10-07T12:19:03.000Z</time>
</trkpt>
<trkpt lat="45.9255870" lon="9.5648740">
	<ele>1494.40</ele>
	<time>2023-10-07T12:19:04.000Z</time>
</trkpt>
<trkpt lat="45.9255850" lon="9.5648800">
	<ele>1494.20</ele>
	<time>2023-10-07T12:19:05.000Z</time>
</trkpt>
<trkpt lat="45.9255830" lon="9.5648830">
	<ele>1494.00</ele>
	<time>2023-10-07T12:19:06.000Z</time>
</trkpt>
<trkpt lat="45.9255840" lon="9.5648860">
	<ele>1494.00</ele>
	<time>2023-10-07T12:19:07.000Z</time>
</trkpt>
<trkpt lat="45.9255830" lon="9.5648920">
	<ele>1493.80</ele>
	<time>2023-10-07T12:19:08.000Z</time>
</trkpt>
<trkpt lat="45.9255780" lon="9.5648980">
	<ele>1493.60</ele>
	<time>2023-10-07T12:19:09.000Z</time>
</trkpt>
<trkpt lat="45.9255740" lon="9.5649040">
	<ele>1493.60</ele>
	<time>2023-10-07T12:19:10.000Z</time>
</trkpt>
<trkpt lat="45.9255680" lon="9.5649100">
	<ele>1493.60</ele>
	<time>2023-10-07T12:19:11.000Z</time>
</trkpt>
<trkpt lat="45.9255610" lon="9.5649160">
	<ele>1493.40</ele>
	<time>2023-10-07T12:19:12.000Z</time>
</trkpt>
<trkpt lat="45.9255550" lon="9.5649200">
	<ele>1493.20</ele>
	<time>2023-10-07T12:19:13.000Z</time>
</trkpt>
<trkpt lat="45.9255510" lon="9.5649250">
	<ele>1493.20</ele>
	<time>2023-10-07T12:19:14.000Z</time>
</trkpt>
<trkpt lat="45.9255460" lon="9.5649330">
	<ele>1493.20</ele>
	<time>2023-10-07T12:19:15.000Z</time>
</trkpt>
<trkpt lat="45.9255410" lon="9.5649400">
	<ele>1493.00</ele>
	<time>2023-10-07T12:19:16.000Z</time>
</trkpt>
<trkpt lat="45.9255360" lon="9.5649490">
	<ele>1492.60</ele>
	<time>2023-10-07T12:19:17.000Z</time>
</trkpt>
<trkpt lat="45.9255300" lon="9.5649590">
	<ele>1492.40</ele>
	<time>2023-10-07T12:19:18.000Z</time>
</trkpt>
<trkpt lat="45.9255230" lon="9.5649660">
	<ele>1492.20</ele>
	<time>2023-10-07T12:19:19.000Z</time>
</trkpt>
<trkpt lat="45.9255190" lon="9.5649710">
	<ele>1492.20</ele>
	<time>2023-10-07T12:19:20.000Z</time>
</trkpt>
<trkpt lat="45.9255140" lon="9.5649730">
	<ele>1492.00</ele>
	<time>2023-10-07T12:19:21.000Z</time>
</trkpt>
<trkpt lat="45.9255100" lon="9.5649760">
	<ele>1492.00</ele>
	<time>2023-10-07T12:19:22.000Z</time>
</trkpt>
<trkpt lat="45.9255030" lon="9.5649810">
	<ele>1491.80</ele>
	<time>2023-10-07T12:19:23.000Z</time>
</trkpt>
<trkpt lat="45.9254940" lon="9.5649920">
	<ele>1491.60</ele>
	<time>2023-10-07T12:19:24.000Z</time>
</trkpt>
<trkpt lat="45.9254840" lon="9.5650000">
	<ele>1491.40</ele>
	<time>2023-10-07T12:19:25.000Z</time>
</trkpt>
<trkpt lat="45.9254760" lon="9.5650070">
	<ele>1491.20</ele>
	<time>2023-10-07T12:19:26.000Z</time>
</trkpt>
<trkpt lat="45.9254650" lon="9.5650160">
	<ele>1491.00</ele>
	<time>2023-10-07T12:19:27.000Z</time>
</trkpt>
<trkpt lat="45.9254520" lon="9.5650230">
	<ele>1490.80</ele>
	<time>2023-10-07T12:19:28.000Z</time>
</trkpt>
<trkpt lat="45.9254410" lon="9.5650290">
	<ele>1490.80</ele>
	<time>2023-10-07T12:19:29.000Z</time>
</trkpt>
<trkpt lat="45.9254320" lon="9.5650360">
	<ele>1490.60</ele>
	<time>2023-10-07T12:19:30.000Z</time>
</trkpt>
<trkpt lat="45.9254200" lon="9.5650390">
	<ele>1490.40</ele>
	<time>2023-10-07T12:19:31.000Z</time>
</trkpt>
<trkpt lat="45.9254100" lon="9.5650440">
	<ele>1490.20</ele>
	<time>2023-10-07T12:19:32.000Z</time>
</trkpt>
<trkpt lat="45.9253980" lon="9.5650490">
	<ele>1490.20</ele>
	<time>2023-10-07T12:19:33.000Z</time>
</trkpt>
<trkpt lat="45.9253840" lon="9.5650510">
	<ele>1490.20</ele>
	<time>2023-10-07T12:19:34.000Z</time>
</trkpt>
<trkpt lat="45.9253720" lon="9.5650560">
	<ele>1490.00</ele>
	<time>2023-10-07T12:19:35.000Z</time>
</trkpt>
<trkpt lat="45.9253610" lon="9.5650620">
	<ele>1489.80</ele>
	<time>2023-10-07T12:19:36.000Z</time>
</trkpt>
<trkpt lat="45.9253490" lon="9.5650670">
	<ele>1489.60</ele>
	<time>2023-10-07T12:19:37.000Z</time>
</trkpt>
<trkpt lat="45.9253360" lon="9.5650720">
	<ele>1489.40</ele>
	<time>2023-10-07T12:19:38.000Z</time>
</trkpt>
<trkpt lat="45.9253230" lon="9.5650750">
	<ele>1489.20</ele>
	<time>2023-10-07T12:19:39.000Z</time>
</trkpt>
<trkpt lat="45.9253120" lon="9.5650790">
	<ele>1489.00</ele>
	<time>2023-10-07T12:19:40.000Z</time>
</trkpt>
<trkpt lat="45.9253010" lon="9.5650880">
	<ele>1488.80</ele>
	<time>2023-10-07T12:19:41.000Z</time>
</trkpt>
<trkpt lat="45.9252910" lon="9.5650950">
	<ele>1488.60</ele>
	<time>2023-10-07T12:19:42.000Z</time>
</trkpt>
<trkpt lat="45.9252790" lon="9.5651000">
	<ele>1488.40</ele>
	<time>2023-10-07T12:19:43.000Z</time>
</trkpt>
<trkpt lat="45.9252720" lon="9.5651050">
	<ele>1488.40</ele>
	<time>2023-10-07T12:19:44.000Z</time>
</trkpt>
<trkpt lat="45.9252660" lon="9.5651130">
	<ele>1488.20</ele>
	<time>2023-10-07T12:19:45.000Z</time>
</trkpt>
<trkpt lat="45.9252600" lon="9.5651140">
	<ele>1488.00</ele>
	<time>2023-10-07T12:19:46.000Z</time>
</trkpt>
<trkpt lat="45.9252510" lon="9.5651190">
	<ele>1488.00</ele>
	<time>2023-10-07T12:19:47.000Z</time>
</trkpt>
<trkpt lat="45.9252420" lon="9.5651240">
	<ele>1487.80</ele>
	<time>2023-10-07T12:19:48.000Z</time>
</trkpt>
<trkpt lat="45.9252300" lon="9.5651290">
	<ele>1487.60</ele>
	<time>2023-10-07T12:19:49.000Z</time>
</trkpt>
<trkpt lat="45.9252150" lon="9.5651330">
	<ele>1487.40</ele>
	<time>2023-10-07T12:19:50.000Z</time>
</trkpt>
<trkpt lat="45.9252000" lon="9.5651410">
	<ele>1487.40</ele>
	<time>2023-10-07T12:19:51.000Z</time>
</trkpt>
<trkpt lat="45.9251860" lon="9.5651380">
	<ele>1487.40</ele>
	<time>2023-10-07T12:19:52.000Z</time>
</trkpt>
<trkpt lat="45.9251760" lon="9.5651410">
	<ele>1487.20</ele>
	<time>2023-10-07T12:19:53.000Z</time>
</trkpt>
<trkpt lat="45.9251650" lon="9.5651310">
	<ele>1487.20</ele>
	<time>2023-10-07T12:19:54.000Z</time>
</trkpt>
<trkpt lat="45.9251600" lon="9.5651300">
	<ele>1487.20</ele>
	<time>2023-10-07T12:19:55.000Z</time>
</trkpt>
<trkpt lat="45.9251440" lon="9.5651310">
	<ele>1486.80</ele>
	<time>2023-10-07T12:19:56.000Z</time>
</trkpt>
<trkpt lat="45.9251300" lon="9.5651340">
	<ele>1486.60</ele>
	<time>2023-10-07T12:19:57.000Z</time>
</trkpt>
<trkpt lat="45.9251170" lon="9.5651380">
	<ele>1486.60</ele>
	<time>2023-10-07T12:19:58.000Z</time>
</trkpt>
<trkpt lat="45.9251040" lon="9.5651400">
	<ele>1486.40</ele>
	<time>2023-10-07T12:19:59.000Z</time>
</trkpt>
<trkpt lat="45.9250910" lon="9.5651400">
	<ele>1486.00</ele>
	<time>2023-10-07T12:20:00.000Z</time>
</trkpt>
<trkpt lat="45.9250790" lon="9.5651380">
	<ele>1485.80</ele>
	<time>2023-10-07T12:20:01.000Z</time>
</trkpt>
<trkpt lat="45.9250690" lon="9.5651370">
	<ele>1485.60</ele>
	<time>2023-10-07T12:20:02.000Z</time>
</trkpt>
<trkpt lat="45.9250580" lon="9.5651370">
	<ele>1485.40</ele>
	<time>2023-10-07T12:20:03.000Z</time>
</trkpt>
<trkpt lat="45.9250430" lon="9.5651410">
	<ele>1485.40</ele>
	<time>2023-10-07T12:20:04.000Z</time>
</trkpt>
<trkpt lat="45.9250320" lon="9.5651430">
	<ele>1485.40</ele>
	<time>2023-10-07T12:20:05.000Z</time>
</trkpt>
<trkpt lat="45.9250220" lon="9.5651450">
	<ele>1485.40</ele>
	<time>2023-10-07T12:20:06.000Z</time>
</trkpt>
<trkpt lat="45.9250110" lon="9.5651430">
	<ele>1485.40</ele>
	<time>2023-10-07T12:20:07.000Z</time>
</trkpt>
<trkpt lat="45.9249990" lon="9.5651400">
	<ele>1485.40</ele>
	<time>2023-10-07T12:20:08.000Z</time>
</trkpt>
<trkpt lat="45.9249900" lon="9.5651390">
	<ele>1485.60</ele>
	<time>2023-10-07T12:20:09.000Z</time>
</trkpt>
<trkpt lat="45.9249750" lon="9.5651410">
	<ele>1485.60</ele>
	<time>2023-10-07T12:20:10.000Z</time>
</trkpt>
<trkpt lat="45.9249600" lon="9.5651410">
	<ele>1485.80</ele>
	<time>2023-10-07T12:20:11.000Z</time>
</trkpt>
<trkpt lat="45.9249500" lon="9.5651400">
	<ele>1485.80</ele>
	<time>2023-10-07T12:20:12.000Z</time>
</trkpt>
<trkpt lat="45.9249410" lon="9.5651390">
	<ele>1485.80</ele>
	<time>2023-10-07T12:20:13.000Z</time>
</trkpt>
<trkpt lat="45.9249340" lon="9.5651380">
	<ele>1486.00</ele>
	<time>2023-10-07T12:20:14.000Z</time>
</trkpt>
<trkpt lat="45.9249260" lon="9.5651360">
	<ele>1486.00</ele>
	<time>2023-10-07T12:20:15.000Z</time>
</trkpt>
<trkpt lat="45.9249170" lon="9.5651370">
	<ele>1486.00</ele>
	<time>2023-10-07T12:20:16.000Z</time>
</trkpt>
<trkpt lat="45.9249090" lon="9.5651390">
	<ele>1486.00</ele>
	<time>2023-10-07T12:20:17.000Z</time>
</trkpt>
<trkpt lat="45.9249020" lon="9.5651410">
	<ele>1486.20</ele>
	<time>2023-10-07T12:20:18.000Z</time>
</trkpt>
<trkpt lat="45.9248950" lon="9.5651410">
	<ele>1486.20</ele>
	<time>2023-10-07T12:20:19.000Z</time>
</trkpt>
<trkpt lat="45.9248870" lon="9.5651450">
	<ele>1486.20</ele>
	<time>2023-10-07T12:20:20.000Z</time>
</trkpt>
<trkpt lat="45.9248780" lon="9.5651480">
	<ele>1486.00</ele>
	<time>2023-10-07T12:20:21.000Z</time>
</trkpt>
<trkpt lat="45.9248710" lon="9.5651440">
	<ele>1486.00</ele>
	<time>2023-10-07T12:20:22.000Z</time>
</trkpt>
<trkpt lat="45.9248640" lon="9.5651440">
	<ele>1485.80</ele>
	<time>2023-10-07T12:20:23.000Z</time>
</trkpt>
<trkpt lat="45.9248580" lon="9.5651420">
	<ele>1485.60</ele>
	<time>2023-10-07T12:20:24.000Z</time>
</trkpt>
<trkpt lat="45.9248470" lon="9.5651440">
	<ele>1485.40</ele>
	<time>2023-10-07T12:20:25.000Z</time>
</trkpt>
<trkpt lat="45.9248350" lon="9.5651460">
	<ele>1485.20</ele>
	<time>2023-10-07T12:20:26.000Z</time>
</trkpt>
<trkpt lat="45.9248230" lon="9.5651480">
	<ele>1485.00</ele>
	<time>2023-10-07T12:20:27.000Z</time>
</trkpt>
<trkpt lat="45.9248120" lon="9.5651480">
	<ele>1485.00</ele>
	<time>2023-10-07T12:20:28.000Z</time>
</trkpt>
<trkpt lat="45.9247980" lon="9.5651490">
	<ele>1485.00</ele>
	<time>2023-10-07T12:20:29.000Z</time>
</trkpt>
<trkpt lat="45.9247850" lon="9.5651510">
	<ele>1484.80</ele>
	<time>2023-10-07T12:20:30.000Z</time>
</trkpt>
<trkpt lat="45.9247740" lon="9.5651510">
	<ele>1484.80</ele>
	<time>2023-10-07T12:20:31.000Z</time>
</trkpt>
<trkpt lat="45.9247640" lon="9.5651500">
	<ele>1484.40</ele>
	<time>2023-10-07T12:20:32.000Z</time>
</trkpt>
<trkpt lat="45.9247610" lon="9.5651500">
	<ele>1484.40</ele>
	<time>2023-10-07T12:20:33.000Z</time>
</trkpt>
<trkpt lat="45.9247580" lon="9.5651510">
	<ele>1484.20</ele>
	<time>2023-10-07T12:20:34.000Z</time>
</trkpt>
<trkpt lat="45.9247610" lon="9.5651600">
	<ele>1484.20</ele>
	<time>2023-10-07T12:20:35.000Z</time>
</trkpt>
<trkpt lat="45.9247650" lon="9.5651640">
	<ele>1484.00</ele>
	<time>2023-10-07T12:20:36.000Z</time>
</trkpt>
<trkpt lat="45.9247690" lon="9.5651640">
	<ele>1484.00</ele>
	<time>2023-10-07T12:20:37.000Z</time>
</trkpt>
<trkpt lat="45.9247690" lon="9.5651660">
	<ele>1484.20</ele>
	<time>2023-10-07T12:20:38.000Z</time>
</trkpt>
<trkpt lat="45.9247680" lon="9.5651660">
	<ele>1484.20</ele>
	<time>2023-10-07T12:20:39.000Z</time>
</trkpt>
<trkpt lat="45.9247680" lon="9.5651650">
	<ele>1484.20</ele>
	<time>2023-10-07T12:20:40.000Z</time>
</trkpt>
<trkpt lat="45.9247670" lon="9.5651640">
	<ele>1484.20</ele>
	<time>2023-10-07T12:20:41.000Z</time>
</trkpt>
<trkpt lat="45.9247660" lon="9.5651640">
	<ele>1484.40</ele>
	<time>2023-10-07T12:20:42.000Z</time>
</trkpt>
<trkpt lat="45.9247640" lon="9.5651640">
	<ele>1484.40</ele>
	<time>2023-10-07T12:20:43.000Z</time>
</trkpt>
<trkpt lat="45.9247640" lon="9.5651630">
	<ele>1484.40</ele>
	<time>2023-10-07T12:20:44.000Z</time>
</trkpt>
<trkpt lat="45.9247620" lon="9.5651640">
	<ele>1484.40</ele>
	<time>2023-10-07T12:20:45.000Z</time>
</trkpt>
<trkpt lat="45.9247580" lon="9.5651650">
	<ele>1484.40</ele>
	<time>2023-10-07T12:20:46.000Z</time>
</trkpt>
<trkpt lat="45.9247570" lon="9.5651670">
	<ele>1484.60</ele>
	<time>2023-10-07T12:20:47.000Z</time>
</trkpt>
<trkpt lat="45.9247550" lon="9.5651680">
	<ele>1484.40</ele>
	<time>2023-10-07T12:20:48.000Z</time>
</trkpt>
<trkpt lat="45.9247430" lon="9.5651750">
	<ele>1484.40</ele>
	<time>2023-10-07T12:20:49.000Z</time>
</trkpt>
<trkpt lat="45.9247350" lon="9.5651770">
	<ele>1484.20</ele>
	<time>2023-10-07T12:20:50.000Z</time>
</trkpt>
<trkpt lat="45.9247270" lon="9.5651770">
	<ele>1483.80</ele>
	<time>2023-10-07T12:20:51.000Z</time>
</trkpt>
<trkpt lat="45.9247180" lon="9.5651760">
	<ele>1483.60</ele>
	<time>2023-10-07T12:20:52.000Z</time>
</trkpt>
<trkpt lat="45.9247100" lon="9.5651730">
	<ele>1483.40</ele>
	<time>2023-10-07T12:20:53.000Z</time>
</trkpt>
<trkpt lat="45.9247070" lon="9.5651710">
	<ele>1483.40</ele>
	<time>2023-10-07T12:20:54.000Z</time>
</trkpt>
<trkpt lat="45.9247010" lon="9.5651650">
	<ele>1483.20</ele>
	<time>2023-10-07T12:20:55.000Z</time>
</trkpt>
<trkpt lat="45.9246920" lon="9.5651650">
	<ele>1483.20</ele>
	<time>2023-10-07T12:20:56.000Z</time>
</trkpt>
<trkpt lat="45.9246850" lon="9.5651650">
	<ele>1483.00</ele>
	<time>2023-10-07T12:20:57.000Z</time>
</trkpt>
<trkpt lat="45.9246780" lon="9.5651640">
	<ele>1483.00</ele>
	<time>2023-10-07T12:20:58.000Z</time>
</trkpt>
<trkpt lat="45.9246700" lon="9.5651570">
	<ele>1483.00</ele>
	<time>2023-10-07T12:20:59.000Z</time>
</trkpt>
<trkpt lat="45.9246600" lon="9.5651510">
	<ele>1483.00</ele>
	<time>2023-10-07T12:21:00.000Z</time>
</trkpt>
<trkpt lat="45.9246520" lon="9.5651470">
	<ele>1482.80</ele>
	<time>2023-10-07T12:21:01.000Z</time>
</trkpt>
<trkpt lat="45.9246410" lon="9.5651430">
	<ele>1482.80</ele>
	<time>2023-10-07T12:21:02.000Z</time>
</trkpt>
<trkpt lat="45.9246270" lon="9.5651430">
	<ele>1482.80</ele>
	<time>2023-10-07T12:21:03.000Z</time>
</trkpt>
<trkpt lat="45.9246100" lon="9.5651420">
	<ele>1482.80</ele>
	<time>2023-10-07T12:21:04.000Z</time>
</trkpt>
<trkpt lat="45.9245940" lon="9.5651400">
	<ele>1482.60</ele>
	<time>2023-10-07T12:21:05.000Z</time>
</trkpt>
<trkpt lat="45.9245800" lon="9.5651390">
	<ele>1482.60</ele>
	<time>2023-10-07T12:21:06.000Z</time>
</trkpt>
<trkpt lat="45.9245670" lon="9.5651330">
	<ele>1482.40</ele>
	<time>2023-10-07T12:21:07.000Z</time>
</trkpt>
<trkpt lat="45.9245560" lon="9.5651270">
	<ele>1482.40</ele>
	<time>2023-10-07T12:21:08.000Z</time>
</trkpt>
<trkpt lat="45.9245450" lon="9.5651220">
	<ele>1482.40</ele>
	<time>2023-10-07T12:21:09.000Z</time>
</trkpt>
<trkpt lat="45.9245350" lon="9.5651190">
	<ele>1482.40</ele>
	<time>2023-10-07T12:21:10.000Z</time>
</trkpt>
<trkpt lat="45.9245270" lon="9.5651180">
	<ele>1482.40</ele>
	<time>2023-10-07T12:21:11.000Z</time>
</trkpt>
<trkpt lat="45.9245150" lon="9.5651210">
	<ele>1482.40</ele>
	<time>2023-10-07T12:21:12.000Z</time>
</trkpt>
<trkpt lat="45.9245030" lon="9.5651210">
	<ele>1482.40</ele>
	<time>2023-10-07T12:21:13.000Z</time>
</trkpt>
<trkpt lat="45.9244940" lon="9.5651190">
	<ele>1482.20</ele>
	<time>2023-10-07T12:21:14.000Z</time>
</trkpt>
<trkpt lat="45.9244830" lon="9.5651220">
	<ele>1482.20</ele>
	<time>2023-10-07T12:21:15.000Z</time>
</trkpt>
<trkpt lat="45.9244710" lon="9.5651270">
	<ele>1482.00</ele>
	<time>2023-10-07T12:21:16.000Z</time>
</trkpt>
<trkpt lat="45.9244590" lon="9.5651280">
	<ele>1481.80</ele>
	<time>2023-10-07T12:21:17.000Z</time>
</trkpt>
<trkpt lat="45.9244490" lon="9.5651300">
	<ele>1481.80</ele>
	<time>2023-10-07T12:21:18.000Z</time>
</trkpt>
<trkpt lat="45.9244370" lon="9.5651310">
	<ele>1481.20</ele>
	<time>2023-10-07T12:21:19.000Z</time>
</trkpt>
<trkpt lat="45.9244230" lon="9.5651300">
	<ele>1481.00</ele>
	<time>2023-10-07T12:21:20.000Z</time>
</trkpt>
<trkpt lat="45.9244100" lon="9.5651320">
	<ele>1480.80</ele>
	<time>2023-10-07T12:21:21.000Z</time>
</trkpt>
<trkpt lat="45.9243970" lon="9.5651370">
	<ele>1480.60</ele>
	<time>2023-10-07T12:21:22.000Z</time>
</trkpt>
<trkpt lat="45.9243870" lon="9.5651390">
	<ele>1480.40</ele>
	<time>2023-10-07T12:21:23.000Z</time>
</trkpt>
<trkpt lat="45.9243770" lon="9.5651400">
	<ele>1480.20</ele>
	<time>2023-10-07T12:21:24.000Z</time>
</trkpt>
<trkpt lat="45.9243670" lon="9.5651430">
	<ele>1480.20</ele>
	<time>2023-10-07T12:21:25.000Z</time>
</trkpt>
<trkpt lat="45.9243570" lon="9.5651400">
	<ele>1480.00</ele>
	<time>2023-10-07T12:21:26.000Z</time>
</trkpt>
<trkpt lat="45.9243490" lon="9.5651380">
	<ele>1479.60</ele>
	<time>2023-10-07T12:21:27.000Z</time>
</trkpt>
<trkpt lat="45.9243430" lon="9.5651370">
	<ele>1479.60</ele>
	<time>2023-10-07T12:21:28.000Z</time>
</trkpt>
<trkpt lat="45.9243340" lon="9.5651380">
	<ele>1479.40</ele>
	<time>2023-10-07T12:21:29.000Z</time>
</trkpt>
<trkpt lat="45.9243260" lon="9.5651420">
	<ele>1479.20</ele>
	<time>2023-10-07T12:21:30.000Z</time>
</trkpt>
<trkpt lat="45.9243180" lon="9.5651450">
	<ele>1479.20</ele>
	<time>2023-10-07T12:21:31.000Z</time>
</trkpt>
<trkpt lat="45.9243090" lon="9.5651430">
	<ele>1479.00</ele>
	<time>2023-10-07T12:21:32.000Z</time>
</trkpt>
<trkpt lat="45.9243010" lon="9.5651380">
	<ele>1478.60</ele>
	<time>2023-10-07T12:21:33.000Z</time>
</trkpt>
<trkpt lat="45.9242940" lon="9.5651350">
	<ele>1478.40</ele>
	<time>2023-10-07T12:21:34.000Z</time>
</trkpt>
<trkpt lat="45.9242870" lon="9.5651310">
	<ele>1478.20</ele>
	<time>2023-10-07T12:21:35.000Z</time>
</trkpt>
<trkpt lat="45.9242770" lon="9.5651270">
	<ele>1477.80</ele>
	<time>2023-10-07T12:21:36.000Z</time>
</trkpt>
<trkpt lat="45.9242640" lon="9.5651280">
	<ele>1477.60</ele>
	<time>2023-10-07T12:21:37.000Z</time>
</trkpt>
<trkpt lat="45.9242510" lon="9.5651360">
	<ele>1477.20</ele>
	<time>2023-10-07T12:21:38.000Z</time>
</trkpt>
<trkpt lat="45.9242390" lon="9.5651480">
	<ele>1477.00</ele>
	<time>2023-10-07T12:21:39.000Z</time>
</trkpt>
<trkpt lat="45.9242260" lon="9.5651580">
	<ele>1476.80</ele>
	<time>2023-10-07T12:21:40.000Z</time>
</trkpt>
<trkpt lat="45.9242150" lon="9.5651650">
	<ele>1476.60</ele>
	<time>2023-10-07T12:21:41.000Z</time>
</trkpt>
<trkpt lat="45.9242070" lon="9.5651780">
	<ele>1476.40</ele>
	<time>2023-10-07T12:21:42.000Z</time>
</trkpt>
<trkpt lat="45.9241980" lon="9.5651910">
	<ele>1476.20</ele>
	<time>2023-10-07T12:21:43.000Z</time>
</trkpt>
<trkpt lat="45.9241920" lon="9.5652020">
	<ele>1475.80</ele>
	<time>2023-10-07T12:21:44.000Z</time>
</trkpt>
<trkpt lat="45.9241800" lon="9.5652080">
	<ele>1475.60</ele>
	<time>2023-10-07T12:21:45.000Z</time>
</trkpt>
<trkpt lat="45.9241680" lon="9.5652140">
	<ele>1475.40</ele>
	<time>2023-10-07T12:21:46.000Z</time>
</trkpt>
<trkpt lat="45.9241550" lon="9.5652170">
	<ele>1475.20</ele>
	<time>2023-10-07T12:21:47.000Z</time>
</trkpt>
<trkpt lat="45.9241440" lon="9.5652230">
	<ele>1475.00</ele>
	<time>2023-10-07T12:21:48.000Z</time>
</trkpt>
<trkpt lat="45.9241400" lon="9.5652290">
	<ele>1474.80</ele>
	<time>2023-10-07T12:21:49.000Z</time>
</trkpt>
<trkpt lat="45.9241350" lon="9.5652460">
	<ele>1474.60</ele>
	<time>2023-10-07T12:21:50.000Z</time>
</trkpt>
<trkpt lat="45.9241300" lon="9.5652640">
	<ele>1474.40</ele>
	<time>2023-10-07T12:21:51.000Z</time>
</trkpt>
<trkpt lat="45.9241230" lon="9.5652790">
	<ele>1474.20</ele>
	<time>2023-10-07T12:21:52.000Z</time>
</trkpt>
<trkpt lat="45.9241130" lon="9.5652890">
	<ele>1474.20</ele>
	<time>2023-10-07T12:21:53.000Z</time>
</trkpt>
<trkpt lat="45.9241040" lon="9.5652970">
	<ele>1473.80</ele>
	<time>2023-10-07T12:21:54.000Z</time>
</trkpt>
<trkpt lat="45.9240980" lon="9.5653030">
	<ele>1473.60</ele>
	<time>2023-10-07T12:21:55.000Z</time>
</trkpt>
<trkpt lat="45.9240900" lon="9.5653130">
	<ele>1473.40</ele>
	<time>2023-10-07T12:21:56.000Z</time>
</trkpt>
<trkpt lat="45.9240860" lon="9.5653240">
	<ele>1473.20</ele>
	<time>2023-10-07T12:21:57.000Z</time>
</trkpt>
<trkpt lat="45.9240840" lon="9.5653390">
	<ele>1473.00</ele>
	<time>2023-10-07T12:21:58.000Z</time>
</trkpt>
<trkpt lat="45.9240830" lon="9.5653480">
	<ele>1472.80</ele>
	<time>2023-10-07T12:21:59.000Z</time>
</trkpt>
<trkpt lat="45.9240820" lon="9.5653600">
	<ele>1472.60</ele>
	<time>2023-10-07T12:22:00.000Z</time>
</trkpt>
<trkpt lat="45.9240800" lon="9.5653740">
	<ele>1472.40</ele>
	<time>2023-10-07T12:22:01.000Z</time>
</trkpt>
<trkpt lat="45.9240790" lon="9.5653870">
	<ele>1472.20</ele>
	<time>2023-10-07T12:22:02.000Z</time>
</trkpt>
<trkpt lat="45.9240810" lon="9.5654010">
	<ele>1472.20</ele>
	<time>2023-10-07T12:22:03.000Z</time>
</trkpt>
<trkpt lat="45.9240820" lon="9.5654180">
	<ele>1471.80</ele>
	<time>2023-10-07T12:22:04.000Z</time>
</trkpt>
<trkpt lat="45.9240820" lon="9.5654300">
	<ele>1471.60</ele>
	<time>2023-10-07T12:22:05.000Z</time>
</trkpt>
<trkpt lat="45.9240810" lon="9.5654380">
	<ele>1471.40</ele>
	<time>2023-10-07T12:22:06.000Z</time>
</trkpt>
<trkpt lat="45.9240780" lon="9.5654490">
	<ele>1471.20</ele>
	<time>2023-10-07T12:22:07.000Z</time>
</trkpt>
<trkpt lat="45.9240730" lon="9.5654640">
	<ele>1471.00</ele>
	<time>2023-10-07T12:22:08.000Z</time>
</trkpt>
<trkpt lat="45.9240680" lon="9.5654790">
	<ele>1470.80</ele>
	<time>2023-10-07T12:22:09.000Z</time>
</trkpt>
<trkpt lat="45.9240650" lon="9.5654910">
	<ele>1470.60</ele>
	<time>2023-10-07T12:22:10.000Z</time>
</trkpt>
<trkpt lat="45.9240630" lon="9.5655010">
	<ele>1470.40</ele>
	<time>2023-10-07T12:22:11.000Z</time>
</trkpt>
<trkpt lat="45.9240640" lon="9.5655100">
	<ele>1470.00</ele>
	<time>2023-10-07T12:22:12.000Z</time>
</trkpt>
<trkpt lat="45.9240670" lon="9.5655230">
	<ele>1469.80</ele>
	<time>2023-10-07T12:22:13.000Z</time>
</trkpt>
<trkpt lat="45.9240630" lon="9.5655340">
	<ele>1469.60</ele>
	<time>2023-10-07T12:22:14.000Z</time>
</trkpt>
<trkpt lat="45.9240610" lon="9.5655480">
	<ele>1469.20</ele>
	<time>2023-10-07T12:22:15.000Z</time>
</trkpt>
<trkpt lat="45.9240590" lon="9.5655610">
	<ele>1469.00</ele>
	<time>2023-10-07T12:22:16.000Z</time>
</trkpt>
<trkpt lat="45.9240570" lon="9.5655760">
	<ele>1468.60</ele>
	<time>2023-10-07T12:22:17.000Z</time>
</trkpt>
<trkpt lat="45.9240490" lon="9.5655900">
	<ele>1468.20</ele>
	<time>2023-10-07T12:22:18.000Z</time>
</trkpt>
<trkpt lat="45.9240430" lon="9.5656070">
	<ele>1468.00</ele>
	<time>2023-10-07T12:22:19.000Z</time>
</trkpt>
<trkpt lat="45.9240370" lon="9.5656200">
	<ele>1467.60</ele>
	<time>2023-10-07T12:22:20.000Z</time>
</trkpt>
<trkpt lat="45.9240300" lon="9.5656340">
	<ele>1467.40</ele>
	<time>2023-10-07T12:22:21.000Z</time>
</trkpt>
<trkpt lat="45.9240240" lon="9.5656460">
	<ele>1467.00</ele>
	<time>2023-10-07T12:22:22.000Z</time>
</trkpt>
<trkpt lat="45.9240150" lon="9.5656570">
	<ele>1466.80</ele>
	<time>2023-10-07T12:22:23.000Z</time>
</trkpt>
<trkpt lat="45.9240100" lon="9.5656740">
	<ele>1466.60</ele>
	<time>2023-10-07T12:22:24.000Z</time>
</trkpt>
<trkpt lat="45.9240080" lon="9.5656930">
	<ele>1466.60</ele>
	<time>2023-10-07T12:22:25.000Z</time>
</trkpt>
<trkpt lat="45.9240050" lon="9.5657170">
	<ele>1466.60</ele>
	<time>2023-10-07T12:22:26.000Z</time>
</trkpt>
<trkpt lat="45.9240000" lon="9.5657360">
	<ele>1466.40</ele>
	<time>2023-10-07T12:22:27.000Z</time>
</trkpt>
<trkpt lat="45.9239920" lon="9.5657530">
	<ele>1466.40</ele>
	<time>2023-10-07T12:22:28.000Z</time>
</trkpt>
<trkpt lat="45.9239810" lon="9.5657690">
	<ele>1466.20</ele>
	<time>2023-10-07T12:22:29.000Z</time>
</trkpt>
<trkpt lat="45.9239720" lon="9.5657760">
	<ele>1466.00</ele>
	<time>2023-10-07T12:22:30.000Z</time>
</trkpt>
<trkpt lat="45.9239640" lon="9.5657780">
	<ele>1465.80</ele>
	<time>2023-10-07T12:22:31.000Z</time>
</trkpt>
<trkpt lat="45.9239610" lon="9.5657710">
	<ele>1465.60</ele>
	<time>2023-10-07T12:22:32.000Z</time>
</trkpt>
<trkpt lat="45.9239560" lon="9.5657650">
	<ele>1465.60</ele>
	<time>2023-10-07T12:22:33.000Z</time>
</trkpt>
<trkpt lat="45.9239470" lon="9.5657630">
	<ele>1465.40</ele>
	<time>2023-10-07T12:22:34.000Z</time>
</trkpt>
<trkpt lat="45.9239360" lon="9.5657630">
	<ele>1465.40</ele>
	<time>2023-10-07T12:22:35.000Z</time>
</trkpt>
<trkpt lat="45.9239270" lon="9.5657660">
	<ele>1465.20</ele>
	<time>2023-10-07T12:22:36.000Z</time>
</trkpt>
<trkpt lat="45.9239170" lon="9.5657740">
	<ele>1465.20</ele>
	<time>2023-10-07T12:22:37.000Z</time>
</trkpt>
<trkpt lat="45.9239060" lon="9.5657860">
	<ele>1465.00</ele>
	<time>2023-10-07T12:22:38.000Z</time>
</trkpt>
<trkpt lat="45.9238920" lon="9.5658020">
	<ele>1464.80</ele>
	<time>2023-10-07T12:22:39.000Z</time>
</trkpt>
<trkpt lat="45.9238800" lon="9.5658180">
	<ele>1464.80</ele>
	<time>2023-10-07T12:22:40.000Z</time>
</trkpt>
<trkpt lat="45.9238700" lon="9.5658310">
	<ele>1464.60</ele>
	<time>2023-10-07T12:22:41.000Z</time>
</trkpt>
<trkpt lat="45.9238620" lon="9.5658470">
	<ele>1464.60</ele>
	<time>2023-10-07T12:22:42.000Z</time>
</trkpt>
<trkpt lat="45.9238540" lon="9.5658600">
	<ele>1464.60</ele>
	<time>2023-10-07T12:22:43.000Z</time>
</trkpt>
<trkpt lat="45.9238440" lon="9.5658660">
	<ele>1464.60</ele>
	<time>2023-10-07T12:22:44.000Z</time>
</trkpt>
<trkpt lat="45.9238230" lon="9.5658790">
	<ele>1464.60</ele>
	<time>2023-10-07T12:22:45.000Z</time>
</trkpt>
<trkpt lat="45.9238120" lon="9.5658820">
	<ele>1464.60</ele>
	<time>2023-10-07T12:22:46.000Z</time>
</trkpt>
<trkpt lat="45.9238020" lon="9.5658900">
	<ele>1464.80</ele>
	<time>2023-10-07T12:22:47.000Z</time>
</trkpt>
<trkpt lat="45.9238000" lon="9.5659180">
	<ele>1464.80</ele>
	<time>2023-10-07T12:22:48.000Z</time>
</trkpt>
<trkpt lat="45.9238050" lon="9.5659400">
	<ele>1465.00</ele>
	<time>2023-10-07T12:22:49.000Z</time>
</trkpt>
<trkpt lat="45.9238080" lon="9.5659590">
	<ele>1465.00</ele>
	<time>2023-10-07T12:22:50.000Z</time>
</trkpt>
<trkpt lat="45.9237940" lon="9.5659630">
	<ele>1465.00</ele>
	<time>2023-10-07T12:22:51.000Z</time>
</trkpt>
<trkpt lat="45.9237880" lon="9.5659650">
	<ele>1465.20</ele>
	<time>2023-10-07T12:22:52.000Z</time>
</trkpt>
<trkpt lat="45.9237760" lon="9.5659690">
	<ele>1465.20</ele>
	<time>2023-10-07T12:22:53.000Z</time>
</trkpt>
<trkpt lat="45.9237650" lon="9.5659760">
	<ele>1465.40</ele>
	<time>2023-10-07T12:22:54.000Z</time>
</trkpt>
<trkpt lat="45.9237520" lon="9.5659890">
	<ele>1465.60</ele>
	<time>2023-10-07T12:22:55.000Z</time>
</trkpt>
<trkpt lat="45.9237430" lon="9.5660000">
	<ele>1465.60</ele>
	<time>2023-10-07T12:22:56.000Z</time>
</trkpt>
<trkpt lat="45.9237420" lon="9.5660060">
	<ele>1465.80</ele>
	<time>2023-10-07T12:22:57.000Z</time>
</trkpt>
<trkpt lat="45.9237420" lon="9.5660100">
	<ele>1466.00</ele>
	<time>2023-10-07T12:22:58.000Z</time>
</trkpt>
<trkpt lat="45.9237390" lon="9.5660150">
	<ele>1466.20</ele>
	<time>2023-10-07T12:22:59.000Z</time>
</trkpt>
<trkpt lat="45.9237360" lon="9.5660230">
	<ele>1466.40</ele>
	<time>2023-10-07T12:23:00.000Z</time>
</trkpt>
<trkpt lat="45.9237360" lon="9.5660330">
	<ele>1466.40</ele>
	<time>2023-10-07T12:23:01.000Z</time>
</trkpt>
<trkpt lat="45.9237310" lon="9.5660390">
	<ele>1466.60</ele>
	<time>2023-10-07T12:23:02.000Z</time>
</trkpt>
<trkpt lat="45.9237250" lon="9.5660460">
	<ele>1466.80</ele>
	<time>2023-10-07T12:23:03.000Z</time>
</trkpt>
<trkpt lat="45.9237200" lon="9.5660510">
	<ele>1466.80</ele>
	<time>2023-10-07T12:23:04.000Z</time>
</trkpt>
<trkpt lat="45.9237120" lon="9.5660600">
	<ele>1466.80</ele>
	<time>2023-10-07T12:23:05.000Z</time>
</trkpt>
<trkpt lat="45.9237040" lon="9.5660650">
	<ele>1466.80</ele>
	<time>2023-10-07T12:23:06.000Z</time>
</trkpt>
<trkpt lat="45.9236960" lon="9.5660750">
	<ele>1466.80</ele>
	<time>2023-10-07T12:23:07.000Z</time>
</trkpt>
<trkpt lat="45.9236880" lon="9.5660810">
	<ele>1467.00</ele>
	<time>2023-10-07T12:23:08.000Z</time>
</trkpt>
<trkpt lat="45.9236820" lon="9.5660860">
	<ele>1466.80</ele>
	<time>2023-10-07T12:23:09.000Z</time>
</trkpt>
<trkpt lat="45.9236730" lon="9.5660960">
	<ele>1466.60</ele>
	<time>2023-10-07T12:23:10.000Z</time>
</trkpt>
<trkpt lat="45.9236660" lon="9.5661040">
	<ele>1466.60</ele>
	<time>2023-10-07T12:23:11.000Z</time>
</trkpt>
<trkpt lat="45.9236590" lon="9.5661110">
	<ele>1466.60</ele>
	<time>2023-10-07T12:23:12.000Z</time>
</trkpt>
<trkpt lat="45.9236480" lon="9.5661180">
	<ele>1466.60</ele>
	<time>2023-10-07T12:23:13.000Z</time>
</trkpt>
<trkpt lat="45.9236380" lon="9.5661260">
	<ele>1466.60</ele>
	<time>2023-10-07T12:23:14.000Z</time>
</trkpt>
<trkpt lat="45.9236260" lon="9.5661360">
	<ele>1466.40</ele>
	<time>2023-10-07T12:23:15.000Z</time>
</trkpt>
<trkpt lat="45.9236150" lon="9.5661460">
	<ele>1466.20</ele>
	<time>2023-10-07T12:23:16.000Z</time>
</trkpt>
<trkpt lat="45.9236110" lon="9.5661590">
	<ele>1466.20</ele>
	<time>2023-10-07T12:23:17.000Z</time>
</trkpt>
<trkpt lat="45.9236050" lon="9.5661690">
	<ele>1466.20</ele>
	<time>2023-10-07T12:23:18.000Z</time>
</trkpt>
<trkpt lat="45.9236020" lon="9.5661760">
	<ele>1466.20</ele>
	<time>2023-10-07T12:23:19.000Z</time>
</trkpt>
<trkpt lat="45.9235970" lon="9.5661850">
	<ele>1466.20</ele>
	<time>2023-10-07T12:23:20.000Z</time>
</trkpt>
<trkpt lat="45.9235890" lon="9.5661900">
	<ele>1466.20</ele>
	<time>2023-10-07T12:23:21.000Z</time>
</trkpt>
<trkpt lat="45.9235810" lon="9.5662030">
	<ele>1466.20</ele>
	<time>2023-10-07T12:23:22.000Z</time>
</trkpt>
<trkpt lat="45.9235780" lon="9.5662130">
	<ele>1466.20</ele>
	<time>2023-10-07T12:23:23.000Z</time>
</trkpt>
<trkpt lat="45.9235770" lon="9.5662270">
	<ele>1466.20</ele>
	<time>2023-10-07T12:23:24.000Z</time>
</trkpt>
<trkpt lat="45.9235760" lon="9.5662380">
	<ele>1466.20</ele>
	<time>2023-10-07T12:23:25.000Z</time>
</trkpt>
<trkpt lat="45.9235760" lon="9.5662500">
	<ele>1466.20</ele>
	<time>2023-10-07T12:23:26.000Z</time>
</trkpt>
<trkpt lat="45.9235740" lon="9.5662610">
	<ele>1466.00</ele>
	<time>2023-10-07T12:23:27.000Z</time>
</trkpt>
<trkpt lat="45.9235720" lon="9.5662690">
	<ele>1466.00</ele>
	<time>2023-10-07T12:23:28.000Z</time>
</trkpt>
<trkpt lat="45.9235650" lon="9.5662750">
	<ele>1465.80</ele>
	<time>2023-10-07T12:23:29.000Z</time>
</trkpt>
<trkpt lat="45.9235570" lon="9.5662800">
	<ele>1465.80</ele>
	<time>2023-10-07T12:23:30.000Z</time>
</trkpt>
<trkpt lat="45.9235470" lon="9.5662880">
	<ele>1465.80</ele>
	<time>2023-10-07T12:23:31.000Z</time>
</trkpt>
<trkpt lat="45.9235350" lon="9.5662970">
	<ele>1465.60</ele>
	<time>2023-10-07T12:23:32.000Z</time>
</trkpt>
<trkpt lat="45.9235240" lon="9.5663040">
	<ele>1465.40</ele>
	<time>2023-10-07T12:23:33.000Z</time>
</trkpt>
<trkpt lat="45.9235120" lon="9.5663060">
	<ele>1465.20</ele>
	<time>2023-10-07T12:23:34.000Z</time>
</trkpt>
<trkpt lat="45.9235020" lon="9.5663080">
	<ele>1465.00</ele>
	<time>2023-10-07T12:23:35.000Z</time>
</trkpt>
<trkpt lat="45.9234940" lon="9.5663150">
	<ele>1465.00</ele>
	<time>2023-10-07T12:23:36.000Z</time>
</trkpt>
<trkpt lat="45.9234860" lon="9.5663230">
	<ele>1464.80</ele>
	<time>2023-10-07T12:23:37.000Z</time>
</trkpt>
<trkpt lat="45.9234760" lon="9.5663290">
	<ele>1464.60</ele>
	<time>2023-10-07T12:23:38.000Z</time>
</trkpt>
<trkpt lat="45.9234680" lon="9.5663310">
	<ele>1464.40</ele>
	<time>2023-10-07T12:23:39.000Z</time>
</trkpt>
<trkpt lat="45.9234610" lon="9.5663320">
	<ele>1464.20</ele>
	<time>2023-10-07T12:23:40.000Z</time>
</trkpt>
<trkpt lat="45.9234530" lon="9.5663300">
	<ele>1464.00</ele>
	<time>2023-10-07T12:23:41.000Z</time>
</trkpt>
<trkpt lat="45.9234450" lon="9.5663310">
	<ele>1463.80</ele>
	<time>2023-10-07T12:23:42.000Z</time>
</trkpt>
<trkpt lat="45.9234340" lon="9.5663330">
	<ele>1463.80</ele>
	<time>2023-10-07T12:23:43.000Z</time>
</trkpt>
<trkpt lat="45.9234220" lon="9.5663410">
	<ele>1463.40</ele>
	<time>2023-10-07T12:23:44.000Z</time>
</trkpt>
<trkpt lat="45.9234080" lon="9.5663500">
	<ele>1463.20</ele>
	<time>2023-10-07T12:23:45.000Z</time>
</trkpt>
<trkpt lat="45.9233990" lon="9.5663610">
	<ele>1462.60</ele>
	<time>2023-10-07T12:23:46.000Z</time>
</trkpt>
<trkpt lat="45.9233940" lon="9.5663790">
	<ele>1462.40</ele>
	<time>2023-10-07T12:23:47.000Z</time>
</trkpt>
<trkpt lat="45.9233910" lon="9.5663970">
	<ele>1462.20</ele>
	<time>2023-10-07T12:23:48.000Z</time>
</trkpt>
<trkpt lat="45.9233820" lon="9.5664050">
	<ele>1462.20</ele>
	<time>2023-10-07T12:23:49.000Z</time>
</trkpt>
<trkpt lat="45.9233720" lon="9.5664080">
	<ele>1462.00</ele>
	<time>2023-10-07T12:23:50.000Z</time>
</trkpt>
<trkpt lat="45.9233600" lon="9.5664040">
	<ele>1461.80</ele>
	<time>2023-10-07T12:23:51.000Z</time>
</trkpt>
<trkpt lat="45.9233470" lon="9.5663950">
	<ele>1461.60</ele>
	<time>2023-10-07T12:23:52.000Z</time>
</trkpt>
<trkpt lat="45.9233340" lon="9.5663880">
	<ele>1461.20</ele>
	<time>2023-10-07T12:23:53.000Z</time>
</trkpt>
<trkpt lat="45.9233210" lon="9.5663920">
	<ele>1461.00</ele>
	<time>2023-10-07T12:23:54.000Z</time>
</trkpt>
<trkpt lat="45.9233130" lon="9.5663990">
	<ele>1460.80</ele>
	<time>2023-10-07T12:23:55.000Z</time>
</trkpt>
<trkpt lat="45.9233030" lon="9.5664070">
	<ele>1460.60</ele>
	<time>2023-10-07T12:23:56.000Z</time>
</trkpt>
<trkpt lat="45.9232950" lon="9.5664040">
	<ele>1460.20</ele>
	<time>2023-10-07T12:23:57.000Z</time>
</trkpt>
<trkpt lat="45.9232920" lon="9.5663940">
	<ele>1460.00</ele>
	<time>2023-10-07T12:23:58.000Z</time>
</trkpt>
<trkpt lat="45.9232870" lon="9.5663850">
	<ele>1459.80</ele>
	<time>2023-10-07T12:23:59.000Z</time>
</trkpt>
<trkpt lat="45.9232820" lon="9.5663730">
	<ele>1459.60</ele>
	<time>2023-10-07T12:24:00.000Z</time>
</trkpt>
<trkpt lat="45.9232800" lon="9.5663620">
	<ele>1459.40</ele>
	<time>2023-10-07T12:24:01.000Z</time>
</trkpt>
<trkpt lat="45.9232760" lon="9.5663560">
	<ele>1459.40</ele>
	<time>2023-10-07T12:24:02.000Z</time>
</trkpt>
<trkpt lat="45.9232690" lon="9.5663480">
	<ele>1459.20</ele>
	<time>2023-10-07T12:24:03.000Z</time>
</trkpt>
<trkpt lat="45.9232630" lon="9.5663510">
	<ele>1459.20</ele>
	<time>2023-10-07T12:24:04.000Z</time>
</trkpt>
<trkpt lat="45.9232540" lon="9.5663520">
	<ele>1458.80</ele>
	<time>2023-10-07T12:24:05.000Z</time>
</trkpt>
<trkpt lat="45.9232460" lon="9.5663520">
	<ele>1458.80</ele>
	<time>2023-10-07T12:24:06.000Z</time>
</trkpt>
<trkpt lat="45.9232380" lon="9.5663570">
	<ele>1458.60</ele>
	<time>2023-10-07T12:24:07.000Z</time>
</trkpt>
<trkpt lat="45.9232310" lon="9.5663630">
	<ele>1458.40</ele>
	<time>2023-10-07T12:24:08.000Z</time>
</trkpt>
<trkpt lat="45.9232240" lon="9.5663680">
	<ele>1458.20</ele>
	<time>2023-10-07T12:24:09.000Z</time>
</trkpt>
<trkpt lat="45.9232160" lon="9.5663720">
	<ele>1458.00</ele>
	<time>2023-10-07T12:24:10.000Z</time>
</trkpt>
<trkpt lat="45.9232070" lon="9.5663770">
	<ele>1457.80</ele>
	<time>2023-10-07T12:24:11.000Z</time>
</trkpt>
<trkpt lat="45.9231950" lon="9.5663820">
	<ele>1457.60</ele>
	<time>2023-10-07T12:24:12.000Z</time>
</trkpt>
<trkpt lat="45.9231860" lon="9.5663820">
	<ele>1457.40</ele>
	<time>2023-10-07T12:24:13.000Z</time>
</trkpt>
<trkpt lat="45.9231740" lon="9.5663810">
	<ele>1457.40</ele>
	<time>2023-10-07T12:24:14.000Z</time>
</trkpt>
<trkpt lat="45.9231640" lon="9.5663830">
	<ele>1457.20</ele>
	<time>2023-10-07T12:24:15.000Z</time>
</trkpt>
<trkpt lat="45.9231510" lon="9.5663890">
	<ele>1457.00</ele>
	<time>2023-10-07T12:24:16.000Z</time>
</trkpt>
<trkpt lat="45.9231390" lon="9.5663890">
	<ele>1457.00</ele>
	<time>2023-10-07T12:24:17.000Z</time>
</trkpt>
<trkpt lat="45.9231270" lon="9.5663920">
	<ele>1456.80</ele>
	<time>2023-10-07T12:24:18.000Z</time>
</trkpt>
<trkpt lat="45.9231180" lon="9.5663920">
	<ele>1456.60</ele>
	<time>2023-10-07T12:24:19.000Z</time>
</trkpt>
<trkpt lat="45.9231080" lon="9.5663920">
	<ele>1456.40</ele>
	<time>2023-10-07T12:24:20.000Z</time>
</trkpt>
<trkpt lat="45.9230980" lon="9.5663930">
	<ele>1456.20</ele>
	<time>2023-10-07T12:24:21.000Z</time>
</trkpt>
<trkpt lat="45.9230850" lon="9.5663950">
	<ele>1456.00</ele>
	<time>2023-10-07T12:24:22.000Z</time>
</trkpt>
<trkpt lat="45.9230720" lon="9.5664000">
	<ele>1455.80</ele>
	<time>2023-10-07T12:24:23.000Z</time>
</trkpt>
<trkpt lat="45.9230600" lon="9.5664020">
	<ele>1455.60</ele>
	<time>2023-10-07T12:24:24.000Z</time>
</trkpt>
<trkpt lat="45.9230480" lon="9.5664010">
	<ele>1455.40</ele>
	<time>2023-10-07T12:24:25.000Z</time>
</trkpt>
<trkpt lat="45.9230370" lon="9.5664010">
	<ele>1455.20</ele>
	<time>2023-10-07T12:24:26.000Z</time>
</trkpt>
<trkpt lat="45.9230250" lon="9.5664030">
	<ele>1455.00</ele>
	<time>2023-10-07T12:24:27.000Z</time>
</trkpt>
<trkpt lat="45.9230090" lon="9.5664020">
	<ele>1454.80</ele>
	<time>2023-10-07T12:24:28.000Z</time>
</trkpt>
<trkpt lat="45.9229980" lon="9.5664100">
	<ele>1454.60</ele>
	<time>2023-10-07T12:24:29.000Z</time>
</trkpt>
<trkpt lat="45.9229870" lon="9.5664140">
	<ele>1454.40</ele>
	<time>2023-10-07T12:24:30.000Z</time>
</trkpt>
<trkpt lat="45.9229750" lon="9.5664170">
	<ele>1454.20</ele>
	<time>2023-10-07T12:24:31.000Z</time>
</trkpt>
<trkpt lat="45.9229660" lon="9.5664130">
	<ele>1454.00</ele>
	<time>2023-10-07T12:24:32.000Z</time>
</trkpt>
<trkpt lat="45.9229620" lon="9.5664080">
	<ele>1453.80</ele>
	<time>2023-10-07T12:24:33.000Z</time>
</trkpt>
<trkpt lat="45.9229560" lon="9.5664020">
	<ele>1453.60</ele>
	<time>2023-10-07T12:24:34.000Z</time>
</trkpt>
<trkpt lat="45.9229470" lon="9.5664040">
	<ele>1453.20</ele>
	<time>2023-10-07T12:24:35.000Z</time>
</trkpt>
<trkpt lat="45.9229350" lon="9.5664080">
	<ele>1453.00</ele>
	<time>2023-10-07T12:24:36.000Z</time>
</trkpt>
<trkpt lat="45.9229250" lon="9.5664100">
	<ele>1452.80</ele>
	<time>2023-10-07T12:24:37.000Z</time>
</trkpt>
<trkpt lat="45.9229130" lon="9.5664080">
	<ele>1452.80</ele>
	<time>2023-10-07T12:24:38.000Z</time>
</trkpt>
<trkpt lat="45.9229000" lon="9.5664070">
	<ele>1452.60</ele>
	<time>2023-10-07T12:24:39.000Z</time>
</trkpt>
<trkpt lat="45.9228880" lon="9.5664050">
	<ele>1452.40</ele>
	<time>2023-10-07T12:24:40.000Z</time>
</trkpt>
<trkpt lat="45.9228710" lon="9.5664040">
	<ele>1452.20</ele>
	<time>2023-10-07T12:24:41.000Z</time>
</trkpt>
<trkpt lat="45.9228600" lon="9.5664020">
	<ele>1452.00</ele>
	<time>2023-10-07T12:24:42.000Z</time>
</trkpt>
<trkpt lat="45.9228500" lon="9.5663970">
	<ele>1451.60</ele>
	<time>2023-10-07T12:24:43.000Z</time>
</trkpt>
<trkpt lat="45.9228410" lon="9.5663880">
	<ele>1451.40</ele>
	<time>2023-10-07T12:24:44.000Z</time>
</trkpt>
<trkpt lat="45.9228330" lon="9.5663770">
	<ele>1451.00</ele>
	<time>2023-10-07T12:24:45.000Z</time>
</trkpt>
<trkpt lat="45.9228280" lon="9.5663610">
	<ele>1450.60</ele>
	<time>2023-10-07T12:24:46.000Z</time>
</trkpt>
<trkpt lat="45.9228240" lon="9.5663440">
	<ele>1450.40</ele>
	<time>2023-10-07T12:24:47.000Z</time>
</trkpt>
<trkpt lat="45.9228190" lon="9.5663290">
	<ele>1450.00</ele>
	<time>2023-10-07T12:24:48.000Z</time>
</trkpt>
<trkpt lat="45.9228140" lon="9.5663170">
	<ele>1449.80</ele>
	<time>2023-10-07T12:24:49.000Z</time>
</trkpt>
<trkpt lat="45.9228060" lon="9.5663100">
	<ele>1449.80</ele>
	<time>2023-10-07T12:24:50.000Z</time>
</trkpt>
<trkpt lat="45.9227990" lon="9.5663090">
	<ele>1449.60</ele>
	<time>2023-10-07T12:24:51.000Z</time>
</trkpt>
<trkpt lat="45.9227920" lon="9.5663040">
	<ele>1449.40</ele>
	<time>2023-10-07T12:24:52.000Z</time>
</trkpt>
<trkpt lat="45.9227870" lon="9.5662980">
	<ele>1449.20</ele>
	<time>2023-10-07T12:24:53.000Z</time>
</trkpt>
<trkpt lat="45.9227810" lon="9.5662940">
	<ele>1449.00</ele>
	<time>2023-10-07T12:24:54.000Z</time>
</trkpt>
<trkpt lat="45.9227770" lon="9.5662950">
	<ele>1449.00</ele>
	<time>2023-10-07T12:24:55.000Z</time>
</trkpt>
<trkpt lat="45.9227700" lon="9.5662980">
	<ele>1448.80</ele>
	<time>2023-10-07T12:24:56.000Z</time>
</trkpt>
<trkpt lat="45.9227610" lon="9.5663010">
	<ele>1448.60</ele>
	<time>2023-10-07T12:24:57.000Z</time>
</trkpt>
<trkpt lat="45.9227520" lon="9.5662970">
	<ele>1448.20</ele>
	<time>2023-10-07T12:24:58.000Z</time>
</trkpt>
<trkpt lat="45.9227430" lon="9.5662910">
	<ele>1448.00</ele>
	<time>2023-10-07T12:24:59.000Z</time>
</trkpt>
<trkpt lat="45.9227350" lon="9.5662860">
	<ele>1447.80</ele>
	<time>2023-10-07T12:25:00.000Z</time>
</trkpt>
<trkpt lat="45.9227260" lon="9.5662850">
	<ele>1447.60</ele>
	<time>2023-10-07T12:25:01.000Z</time>
</trkpt>
<trkpt lat="45.9227170" lon="9.5662880">
	<ele>1447.40</ele>
	<time>2023-10-07T12:25:02.000Z</time>
</trkpt>
<trkpt lat="45.9227080" lon="9.5662850">
	<ele>1447.20</ele>
	<time>2023-10-07T12:25:03.000Z</time>
</trkpt>
<trkpt lat="45.9226970" lon="9.5662860">
	<ele>1447.00</ele>
	<time>2023-10-07T12:25:04.000Z</time>
</trkpt>
<trkpt lat="45.9226870" lon="9.5662900">
	<ele>1447.00</ele>
	<time>2023-10-07T12:25:05.000Z</time>
</trkpt>
<trkpt lat="45.9226740" lon="9.5662930">
	<ele>1446.60</ele>
	<time>2023-10-07T12:25:06.000Z</time>
</trkpt>
<trkpt lat="45.9226630" lon="9.5662900">
	<ele>1446.20</ele>
	<time>2023-10-07T12:25:07.000Z</time>
</trkpt>
<trkpt lat="45.9226530" lon="9.5662920">
	<ele>1445.80</ele>
	<time>2023-10-07T12:25:08.000Z</time>
</trkpt>
<trkpt lat="45.9226430" lon="9.5662930">
	<ele>1445.60</ele>
	<time>2023-10-07T12:25:09.000Z</time>
</trkpt>
<trkpt lat="45.9226370" lon="9.5662930">
	<ele>1445.40</ele>
	<time>2023-10-07T12:25:10.000Z</time>
</trkpt>
<trkpt lat="45.9226330" lon="9.5663000">
	<ele>1445.20</ele>
	<time>2023-10-07T12:25:11.000Z</time>
</trkpt>
<trkpt lat="45.9226280" lon="9.5663010">
	<ele>1445.00</ele>
	<time>2023-10-07T12:25:12.000Z</time>
</trkpt>
<trkpt lat="45.9226250" lon="9.5663000">
	<ele>1445.00</ele>
	<time>2023-10-07T12:25:13.000Z</time>
</trkpt>
<trkpt lat="45.9226230" lon="9.5663050">
	<ele>1444.80</ele>
	<time>2023-10-07T12:25:14.000Z</time>
</trkpt>
<trkpt lat="45.9226150" lon="9.5663130">
	<ele>1444.60</ele>
	<time>2023-10-07T12:25:15.000Z</time>
</trkpt>
<trkpt lat="45.9226110" lon="9.5663170">
	<ele>1444.40</ele>
	<time>2023-10-07T12:25:16.000Z</time>
</trkpt>
<trkpt lat="45.9226060" lon="9.5663140">
	<ele>1444.20</ele>
	<time>2023-10-07T12:25:17.000Z</time>
</trkpt>
<trkpt lat="45.9226000" lon="9.5663150">
	<ele>1444.00</ele>
	<time>2023-10-07T12:25:18.000Z</time>
</trkpt>
<trkpt lat="45.9225940" lon="9.5663210">
	<ele>1443.80</ele>
	<time>2023-10-07T12:25:19.000Z</time>
</trkpt>
<trkpt lat="45.9225940" lon="9.5663310">
	<ele>1443.40</ele>
	<time>2023-10-07T12:25:20.000Z</time>
</trkpt>
<trkpt lat="45.9225870" lon="9.5663410">
	<ele>1443.00</ele>
	<time>2023-10-07T12:25:21.000Z</time>
</trkpt>
<trkpt lat="45.9225800" lon="9.5663450">
	<ele>1442.80</ele>
	<time>2023-10-07T12:25:22.000Z</time>
</trkpt>
<trkpt lat="45.9225740" lon="9.5663470">
	<ele>1442.80</ele>
	<time>2023-10-07T12:25:23.000Z</time>
</trkpt>
<trkpt lat="45.9225730" lon="9.5663470">
	<ele>1442.40</ele>
	<time>2023-10-07T12:25:24.000Z</time>
</trkpt>
<trkpt lat="45.9225710" lon="9.5663540">
	<ele>1442.20</ele>
	<time>2023-10-07T12:25:25.000Z</time>
</trkpt>
<trkpt lat="45.9225650" lon="9.5663630">
	<ele>1442.00</ele>
	<time>2023-10-07T12:25:26.000Z</time>
</trkpt>
<trkpt lat="45.9225620" lon="9.5663660">
	<ele>1441.60</ele>
	<time>2023-10-07T12:25:27.000Z</time>
</trkpt>
<trkpt lat="45.9225550" lon="9.5663690">
	<ele>1441.40</ele>
	<time>2023-10-07T12:25:28.000Z</time>
</trkpt>
<trkpt lat="45.9225470" lon="9.5663760">
	<ele>1441.20</ele>
	<time>2023-10-07T12:25:29.000Z</time>
</trkpt>
<trkpt lat="45.9225370" lon="9.5663790">
	<ele>1440.80</ele>
	<time>2023-10-07T12:25:30.000Z</time>
</trkpt>
<trkpt lat="45.9225300" lon="9.5663820">
	<ele>1440.60</ele>
	<time>2023-10-07T12:25:31.000Z</time>
</trkpt>
<trkpt lat="45.9225250" lon="9.5663860">
	<ele>1440.60</ele>
	<time>2023-10-07T12:25:32.000Z</time>
</trkpt>
<trkpt lat="45.9225200" lon="9.5663920">
	<ele>1440.20</ele>
	<time>2023-10-07T12:25:33.000Z</time>
</trkpt>
<trkpt lat="45.9225140" lon="9.5664060">
	<ele>1440.00</ele>
	<time>2023-10-07T12:25:34.000Z</time>
</trkpt>
<trkpt lat="45.9225060" lon="9.5664150">
	<ele>1439.60</ele>
	<time>2023-10-07T12:25:35.000Z</time>
</trkpt>
<trkpt lat="45.9224980" lon="9.5664250">
	<ele>1439.20</ele>
	<time>2023-10-07T12:25:36.000Z</time>
</trkpt>
<trkpt lat="45.9224890" lon="9.5664370">
	<ele>1439.00</ele>
	<time>2023-10-07T12:25:37.000Z</time>
</trkpt>
<trkpt lat="45.9224830" lon="9.5664470">
	<ele>1438.80</ele>
	<time>2023-10-07T12:25:38.000Z</time>
</trkpt>
<trkpt lat="45.9224750" lon="9.5664600">
	<ele>1438.40</ele>
	<time>2023-10-07T12:25:39.000Z</time>
</trkpt>
<trkpt lat="45.9224720" lon="9.5664720">
	<ele>1438.20</ele>
	<time>2023-10-07T12:25:40.000Z</time>
</trkpt>
<trkpt lat="45.9224660" lon="9.5664850">
	<ele>1437.80</ele>
	<time>2023-10-07T12:25:41.000Z</time>
</trkpt>
<trkpt lat="45.9224600" lon="9.5664950">
	<ele>1437.40</ele>
	<time>2023-10-07T12:25:42.000Z</time>
</trkpt>
<trkpt lat="45.9224530" lon="9.5665040">
	<ele>1437.20</ele>
	<time>2023-10-07T12:25:43.000Z</time>
</trkpt>
<trkpt lat="45.9224460" lon="9.5665150">
	<ele>1437.00</ele>
	<time>2023-10-07T12:25:44.000Z</time>
</trkpt>
<trkpt lat="45.9224350" lon="9.5665200">
	<ele>1436.60</ele>
	<time>2023-10-07T12:25:45.000Z</time>
</trkpt>
<trkpt lat="45.9224220" lon="9.5665260">
	<ele>1436.00</ele>
	<time>2023-10-07T12:25:46.000Z</time>
</trkpt>
<trkpt lat="45.9224120" lon="9.5665330">
	<ele>1435.80</ele>
	<time>2023-10-07T12:25:47.000Z</time>
</trkpt>
<trkpt lat="45.9224040" lon="9.5665370">
	<ele>1435.60</ele>
	<time>2023-10-07T12:25:48.000Z</time>
</trkpt>
<trkpt lat="45.9223950" lon="9.5665380">
	<ele>1435.40</ele>
	<time>2023-10-07T12:25:49.000Z</time>
</trkpt>
<trkpt lat="45.9223860" lon="9.5665390">
	<ele>1434.80</ele>
	<time>2023-10-07T12:25:50.000Z</time>
</trkpt>
<trkpt lat="45.9223780" lon="9.5665450">
	<ele>1434.60</ele>
	<time>2023-10-07T12:25:51.000Z</time>
</trkpt>
<trkpt lat="45.9223710" lon="9.5665540">
	<ele>1434.20</ele>
	<time>2023-10-07T12:25:52.000Z</time>
</trkpt>
<trkpt lat="45.9223620" lon="9.5665590">
	<ele>1434.00</ele>
	<time>2023-10-07T12:25:53.000Z</time>
</trkpt>
<trkpt lat="45.9223510" lon="9.5665640">
	<ele>1433.80</ele>
	<time>2023-10-07T12:25:54.000Z</time>
</trkpt>
<trkpt lat="45.9223430" lon="9.5665710">
	<ele>1433.40</ele>
	<time>2023-10-07T12:25:55.000Z</time>
</trkpt>
<trkpt lat="45.9223340" lon="9.5665760">
	<ele>1433.00</ele>
	<time>2023-10-07T12:25:56.000Z</time>
</trkpt>
<trkpt lat="45.9223250" lon="9.5665810">
	<ele>1432.80</ele>
	<time>2023-10-07T12:25:57.000Z</time>
</trkpt>
<trkpt lat="45.9223200" lon="9.5665850">
	<ele>1432.60</ele>
	<time>2023-10-07T12:25:58.000Z</time>
</trkpt>
<trkpt lat="45.9223110" lon="9.5665860">
	<ele>1432.40</ele>
	<time>2023-10-07T12:25:59.000Z</time>
</trkpt>
<trkpt lat="45.9223000" lon="9.5665930">
	<ele>1432.00</ele>
	<time>2023-10-07T12:26:00.000Z</time>
</trkpt>
<trkpt lat="45.9222890" lon="9.5665910">
	<ele>1431.80</ele>
	<time>2023-10-07T12:26:01.000Z</time>
</trkpt>
<trkpt lat="45.9222800" lon="9.5665930">
	<ele>1431.60</ele>
	<time>2023-10-07T12:26:02.000Z</time>
</trkpt>
<trkpt lat="45.9222680" lon="9.5665970">
	<ele>1431.20</ele>
	<time>2023-10-07T12:26:03.000Z</time>
</trkpt>
<trkpt lat="45.9222590" lon="9.5665990">
	<ele>1431.00</ele>
	<time>2023-10-07T12:26:04.000Z</time>
</trkpt>
<trkpt lat="45.9222520" lon="9.5665970">
	<ele>1430.80</ele>
	<time>2023-10-07T12:26:05.000Z</time>
</trkpt>
<trkpt lat="45.9222450" lon="9.5666000">
	<ele>1430.60</ele>
	<time>2023-10-07T12:26:06.000Z</time>
</trkpt>
<trkpt lat="45.9222380" lon="9.5666050">
	<ele>1430.40</ele>
	<time>2023-10-07T12:26:07.000Z</time>
</trkpt>
<trkpt lat="45.9222280" lon="9.5666090">
	<ele>1430.20</ele>
	<time>2023-10-07T12:26:08.000Z</time>
</trkpt>
<trkpt lat="45.9222180" lon="9.5666150">
	<ele>1430.00</ele>
	<time>2023-10-07T12:26:09.000Z</time>
</trkpt>
<trkpt lat="45.9222120" lon="9.5666130">
	<ele>1429.80</ele>
	<time>2023-10-07T12:26:10.000Z</time>
</trkpt>
<trkpt lat="45.9222040" lon="9.5666100">
	<ele>1429.60</ele>
	<time>2023-10-07T12:26:11.000Z</time>
</trkpt>
<trkpt lat="45.9221970" lon="9.5666070">
	<ele>1429.40</ele>
	<time>2023-10-07T12:26:12.000Z</time>
</trkpt>
<trkpt lat="45.9221900" lon="9.5666010">
	<ele>1429.40</ele>
	<time>2023-10-07T12:26:13.000Z</time>
</trkpt>
<trkpt lat="45.9221880" lon="9.5665940">
	<ele>1429.20</ele>
	<time>2023-10-07T12:26:14.000Z</time>
</trkpt>
<trkpt lat="45.9221870" lon="9.5665870">
	<ele>1429.00</ele>
	<time>2023-10-07T12:26:15.000Z</time>
</trkpt>
<trkpt lat="45.9221850" lon="9.5665830">
	<ele>1428.80</ele>
	<time>2023-10-07T12:26:16.000Z</time>
</trkpt>
<trkpt lat="45.9221790" lon="9.5665810">
	<ele>1428.60</ele>
	<time>2023-10-07T12:26:17.000Z</time>
</trkpt>
<trkpt lat="45.9221700" lon="9.5665820">
	<ele>1428.40</ele>
	<time>2023-10-07T12:26:18.000Z</time>
</trkpt>
<trkpt lat="45.9221630" lon="9.5665800">
	<ele>1428.20</ele>
	<time>2023-10-07T12:26:19.000Z</time>
</trkpt>
<trkpt lat="45.9221570" lon="9.5665800">
	<ele>1428.00</ele>
	<time>2023-10-07T12:26:20.000Z</time>
</trkpt>
<trkpt lat="45.9221490" lon="9.5665760">
	<ele>1427.80</ele>
	<time>2023-10-07T12:26:21.000Z</time>
</trkpt>
<trkpt lat="45.9221380" lon="9.5665710">
	<ele>1427.60</ele>
	<time>2023-10-07T12:26:22.000Z</time>
</trkpt>
<trkpt lat="45.9221300" lon="9.5665680">
	<ele>1427.40</ele>
	<time>2023-10-07T12:26:23.000Z</time>
</trkpt>
<trkpt lat="45.9221210" lon="9.5665580">
	<ele>1427.20</ele>
	<time>2023-10-07T12:26:24.000Z</time>
</trkpt>
<trkpt lat="45.9221150" lon="9.5665500">
	<ele>1427.00</ele>
	<time>2023-10-07T12:26:25.000Z</time>
</trkpt>
<trkpt lat="45.9221130" lon="9.5665440">
	<ele>1426.80</ele>
	<time>2023-10-07T12:26:26.000Z</time>
</trkpt>
<trkpt lat="45.9221020" lon="9.5665380">
	<ele>1426.60</ele>
	<time>2023-10-07T12:26:27.000Z</time>
</trkpt>
<trkpt lat="45.9220950" lon="9.5665370">
	<ele>1426.40</ele>
	<time>2023-10-07T12:26:28.000Z</time>
</trkpt>
<trkpt lat="45.9220870" lon="9.5665350">
	<ele>1426.40</ele>
	<time>2023-10-07T12:26:29.000Z</time>
</trkpt>
<trkpt lat="45.9220750" lon="9.5665300">
	<ele>1426.20</ele>
	<time>2023-10-07T12:26:30.000Z</time>
</trkpt>
<trkpt lat="45.9220670" lon="9.5665250">
	<ele>1426.00</ele>
	<time>2023-10-07T12:26:31.000Z</time>
</trkpt>
<trkpt lat="45.9220590" lon="9.5665210">
	<ele>1425.80</ele>
	<time>2023-10-07T12:26:32.000Z</time>
</trkpt>
<trkpt lat="45.9220520" lon="9.5665150">
	<ele>1425.80</ele>
	<time>2023-10-07T12:26:33.000Z</time>
</trkpt>
<trkpt lat="45.9220440" lon="9.5665090">
	<ele>1425.60</ele>
	<time>2023-10-07T12:26:34.000Z</time>
</trkpt>
<trkpt lat="45.9220330" lon="9.5665010">
	<ele>1425.40</ele>
	<time>2023-10-07T12:26:35.000Z</time>
</trkpt>
<trkpt lat="45.9220210" lon="9.5664940">
	<ele>1425.20</ele>
	<time>2023-10-07T12:26:36.000Z</time>
</trkpt>
<trkpt lat="45.9220140" lon="9.5664880">
	<ele>1425.20</ele>
	<time>2023-10-07T12:26:37.000Z</time>
</trkpt>
<trkpt lat="45.9220030" lon="9.5664820">
	<ele>1425.00</ele>
	<time>2023-10-07T12:26:38.000Z</time>
</trkpt>
<trkpt lat="45.9219960" lon="9.5664730">
	<ele>1424.60</ele>
	<time>2023-10-07T12:26:39.000Z</time>
</trkpt>
<trkpt lat="45.9219890" lon="9.5664610">
	<ele>1424.20</ele>
	<time>2023-10-07T12:26:40.000Z</time>
</trkpt>
<trkpt lat="45.9219800" lon="9.5664480">
	<ele>1424.00</ele>
	<time>2023-10-07T12:26:41.000Z</time>
</trkpt>
<trkpt lat="45.9219720" lon="9.5664360">
	<ele>1423.80</ele>
	<time>2023-10-07T12:26:42.000Z</time>
</trkpt>
<trkpt lat="45.9219610" lon="9.5664250">
	<ele>1423.60</ele>
	<time>2023-10-07T12:26:43.000Z</time>
</trkpt>
<trkpt lat="45.9219520" lon="9.5664160">
	<ele>1423.40</ele>
	<time>2023-10-07T12:26:44.000Z</time>
</trkpt>
<trkpt lat="45.9219420" lon="9.5664060">
	<ele>1423.40</ele>
	<time>2023-10-07T12:26:45.000Z</time>
</trkpt>
<trkpt lat="45.9219330" lon="9.5663970">
	<ele>1423.20</ele>
	<time>2023-10-07T12:26:46.000Z</time>
</trkpt>
<trkpt lat="45.9219260" lon="9.5663920">
	<ele>1423.00</ele>
	<time>2023-10-07T12:26:47.000Z</time>
</trkpt>
<trkpt lat="45.9219180" lon="9.5663840">
	<ele>1422.60</ele>
	<time>2023-10-07T12:26:48.000Z</time>
</trkpt>
<trkpt lat="45.9219100" lon="9.5663770">
	<ele>1422.40</ele>
	<time>2023-10-07T12:26:49.000Z</time>
</trkpt>
<trkpt lat="45.9219000" lon="9.5663700">
	<ele>1422.20</ele>
	<time>2023-10-07T12:26:50.000Z</time>
</trkpt>
<trkpt lat="45.9218900" lon="9.5663610">
	<ele>1422.00</ele>
	<time>2023-10-07T12:26:51.000Z</time>
</trkpt>
<trkpt lat="45.9218810" lon="9.5663530">
	<ele>1421.60</ele>
	<time>2023-10-07T12:26:52.000Z</time>
</trkpt>
<trkpt lat="45.9218720" lon="9.5663450">
	<ele>1421.40</ele>
	<time>2023-10-07T12:26:53.000Z</time>
</trkpt>
<trkpt lat="45.9218630" lon="9.5663370">
	<ele>1421.20</ele>
	<time>2023-10-07T12:26:54.000Z</time>
</trkpt>
<trkpt lat="45.9218540" lon="9.5663270">
	<ele>1421.00</ele>
	<time>2023-10-07T12:26:55.000Z</time>
</trkpt>
<trkpt lat="45.9218470" lon="9.5663170">
	<ele>1420.80</ele>
	<time>2023-10-07T12:26:56.000Z</time>
</trkpt>
<trkpt lat="45.9218400" lon="9.5663080">
	<ele>1420.40</ele>
	<time>2023-10-07T12:26:57.000Z</time>
</trkpt>
<trkpt lat="45.9218330" lon="9.5663010">
	<ele>1420.20</ele>
	<time>2023-10-07T12:26:58.000Z</time>
</trkpt>
<trkpt lat="45.9218240" lon="9.5662930">
	<ele>1420.20</ele>
	<time>2023-10-07T12:26:59.000Z</time>
</trkpt>
<trkpt lat="45.9218130" lon="9.5662830">
	<ele>1420.00</ele>
	<time>2023-10-07T12:27:00.000Z</time>
</trkpt>
<trkpt lat="45.9218080" lon="9.5662690">
	<ele>1419.60</ele>
	<time>2023-10-07T12:27:01.000Z</time>
</trkpt>
<trkpt lat="45.9218010" lon="9.5662580">
	<ele>1419.20</ele>
	<time>2023-10-07T12:27:02.000Z</time>
</trkpt>
<trkpt lat="45.9217950" lon="9.5662430">
	<ele>1419.00</ele>
	<time>2023-10-07T12:27:03.000Z</time>
</trkpt>
<trkpt lat="45.9217890" lon="9.5662270">
	<ele>1418.80</ele>
	<time>2023-10-07T12:27:04.000Z</time>
</trkpt>
<trkpt lat="45.9217830" lon="9.5662120">
	<ele>1418.60</ele>
	<time>2023-10-07T12:27:05.000Z</time>
</trkpt>
<trkpt lat="45.9217780" lon="9.5662030">
	<ele>1418.60</ele>
	<time>2023-10-07T12:27:06.000Z</time>
</trkpt>
<trkpt lat="45.9217750" lon="9.5661940">
	<ele>1418.40</ele>
	<time>2023-10-07T12:27:07.000Z</time>
</trkpt>
<trkpt lat="45.9217710" lon="9.5661840">
	<ele>1418.20</ele>
	<time>2023-10-07T12:27:08.000Z</time>
</trkpt>
<trkpt lat="45.9217640" lon="9.5661770">
	<ele>1418.00</ele>
	<time>2023-10-07T12:27:09.000Z</time>
</trkpt>
<trkpt lat="45.9217590" lon="9.5661660">
	<ele>1417.80</ele>
	<time>2023-10-07T12:27:10.000Z</time>
</trkpt>
<trkpt lat="45.9217530" lon="9.5661540">
	<ele>1417.60</ele>
	<time>2023-10-07T12:27:11.000Z</time>
</trkpt>
<trkpt lat="45.9217510" lon="9.5661430">
	<ele>1417.40</ele>
	<time>2023-10-07T12:27:12.000Z</time>
</trkpt>
<trkpt lat="45.9217490" lon="9.5661320">
	<ele>1417.20</ele>
	<time>2023-10-07T12:27:13.000Z</time>
</trkpt>
<trkpt lat="45.9217450" lon="9.5661220">
	<ele>1417.00</ele>
	<time>2023-10-07T12:27:14.000Z</time>
</trkpt>
<trkpt lat="45.9217420" lon="9.5661120">
	<ele>1416.60</ele>
	<time>2023-10-07T12:27:15.000Z</time>
</trkpt>
<trkpt lat="45.9217370" lon="9.5660990">
	<ele>1416.40</ele>
	<time>2023-10-07T12:27:16.000Z</time>
</trkpt>
<trkpt lat="45.9217310" lon="9.5660850">
	<ele>1416.20</ele>
	<time>2023-10-07T12:27:17.000Z</time>
</trkpt>
<trkpt lat="45.9217240" lon="9.5660710">
	<ele>1416.00</ele>
	<time>2023-10-07T12:27:18.000Z</time>
</trkpt>
<trkpt lat="45.9217180" lon="9.5660610">
	<ele>1415.80</ele>
	<time>2023-10-07T12:27:19.000Z</time>
</trkpt>
<trkpt lat="45.9217120" lon="9.5660460">
	<ele>1415.80</ele>
	<time>2023-10-07T12:27:20.000Z</time>
</trkpt>
<trkpt lat="45.9217070" lon="9.5660370">
	<ele>1415.80</ele>
	<time>2023-10-07T12:27:21.000Z</time>
</trkpt>
<trkpt lat="45.9217010" lon="9.5660260">
	<ele>1415.60</ele>
	<time>2023-10-07T12:27:22.000Z</time>
</trkpt>
<trkpt lat="45.9216940" lon="9.5660160">
	<ele>1415.40</ele>
	<time>2023-10-07T12:27:23.000Z</time>
</trkpt>
<trkpt lat="45.9216850" lon="9.5660090">
	<ele>1415.20</ele>
	<time>2023-10-07T12:27:24.000Z</time>
</trkpt>
<trkpt lat="45.9216740" lon="9.5659970">
	<ele>1415.00</ele>
	<time>2023-10-07T12:27:25.000Z</time>
</trkpt>
<trkpt lat="45.9216640" lon="9.5659870">
	<ele>1414.60</ele>
	<time>2023-10-07T12:27:26.000Z</time>
</trkpt>
<trkpt lat="45.9216560" lon="9.5659800">
	<ele>1414.40</ele>
	<time>2023-10-07T12:27:27.000Z</time>
</trkpt>
<trkpt lat="45.9216450" lon="9.5659740">
	<ele>1414.20</ele>
	<time>2023-10-07T12:27:28.000Z</time>
</trkpt>
<trkpt lat="45.9216340" lon="9.5659650">
	<ele>1414.00</ele>
	<time>2023-10-07T12:27:29.000Z</time>
</trkpt>
<trkpt lat="45.9216240" lon="9.5659550">
	<ele>1413.80</ele>
	<time>2023-10-07T12:27:30.000Z</time>
</trkpt>
<trkpt lat="45.9216140" lon="9.5659440">
	<ele>1413.80</ele>
	<time>2023-10-07T12:27:31.000Z</time>
</trkpt>
<trkpt lat="45.9216120" lon="9.5659240">
	<ele>1413.40</ele>
	<time>2023-10-07T12:27:32.000Z</time>
</trkpt>
<trkpt lat="45.9216060" lon="9.5659070">
	<ele>1413.20</ele>
	<time>2023-10-07T12:27:33.000Z</time>
</trkpt>
<trkpt lat="45.9215970" lon="9.5658970">
	<ele>1413.00</ele>
	<time>2023-10-07T12:27:34.000Z</time>
</trkpt>
<trkpt lat="45.9215890" lon="9.5658900">
	<ele>1412.80</ele>
	<time>2023-10-07T12:27:35.000Z</time>
</trkpt>
<trkpt lat="45.9215730" lon="9.5658840">
	<ele>1412.60</ele>
	<time>2023-10-07T12:27:36.000Z</time>
</trkpt>
<trkpt lat="45.9215580" lon="9.5658850">
	<ele>1412.60</ele>
	<time>2023-10-07T12:27:37.000Z</time>
</trkpt>
<trkpt lat="45.9215470" lon="9.5658790">
	<ele>1412.20</ele>
	<time>2023-10-07T12:27:38.000Z</time>
</trkpt>
<trkpt lat="45.9215400" lon="9.5658680">
	<ele>1412.20</ele>
	<time>2023-10-07T12:27:39.000Z</time>
</trkpt>
<trkpt lat="45.9215300" lon="9.5658540">
	<ele>1412.00</ele>
	<time>2023-10-07T12:27:40.000Z</time>
</trkpt>
<trkpt lat="45.9215130" lon="9.5658440">
	<ele>1411.80</ele>
	<time>2023-10-07T12:27:41.000Z</time>
</trkpt>
<trkpt lat="45.9214990" lon="9.5658390">
	<ele>1411.80</ele>
	<time>2023-10-07T12:27:42.000Z</time>
</trkpt>
<trkpt lat="45.9214870" lon="9.5658350">
	<ele>1411.80</ele>
	<time>2023-10-07T12:27:43.000Z</time>
</trkpt>
<trkpt lat="45.9214770" lon="9.5658260">
	<ele>1411.60</ele>
	<time>2023-10-07T12:27:44.000Z</time>
</trkpt>
<trkpt lat="45.9214740" lon="9.5658200">
	<ele>1411.60</ele>
	<time>2023-10-07T12:27:45.000Z</time>
</trkpt>
<trkpt lat="45.9214750" lon="9.5658130">
	<ele>1411.60</ele>
	<time>2023-10-07T12:27:46.000Z</time>
</trkpt>
<trkpt lat="45.9214770" lon="9.5658060">
	<ele>1411.40</ele>
	<time>2023-10-07T12:27:47.000Z</time>
</trkpt>
<trkpt lat="45.9214830" lon="9.5657970">
	<ele>1411.20</ele>
	<time>2023-10-07T12:27:48.000Z</time>
</trkpt>
<trkpt lat="45.9214870" lon="9.5657890">
	<ele>1411.20</ele>
	<time>2023-10-07T12:27:49.000Z</time>
</trkpt>
<trkpt lat="45.9214900" lon="9.5657850">
	<ele>1411.40</ele>
	<time>2023-10-07T12:27:50.000Z</time>
</trkpt>
<trkpt lat="45.9214910" lon="9.5657840">
	<ele>1411.60</ele>
	<time>2023-10-07T12:27:51.000Z</time>
</trkpt>
<trkpt lat="45.9214910" lon="9.5657840">
	<ele>1411.60</ele>
	<time>2023-10-07T12:27:52.000Z</time>
</trkpt>
<trkpt lat="45.9214900" lon="9.5657850">
	<ele>1411.80</ele>
	<time>2023-10-07T12:27:53.000Z</time>
</trkpt>
<trkpt lat="45.9214890" lon="9.5657840">
	<ele>1412.00</ele>
	<time>2023-10-07T12:27:54.000Z</time>
</trkpt>
<trkpt lat="45.9214910" lon="9.5657890">
	<ele>1412.00</ele>
	<time>2023-10-07T12:27:55.000Z</time>
</trkpt>
<trkpt lat="45.9214940" lon="9.5657990">
	<ele>1412.00</ele>
	<time>2023-10-07T12:27:56.000Z</time>
</trkpt>
<trkpt lat="45.9214930" lon="9.5658000">
	<ele>1412.00</ele>
	<time>2023-10-07T12:27:57.000Z</time>
</trkpt>
<trkpt lat="45.9214870" lon="9.5657970">
	<ele>1412.20</ele>
	<time>2023-10-07T12:27:58.000Z</time>
</trkpt>
<trkpt lat="45.9214790" lon="9.5657940">
	<ele>1412.00</ele>
	<time>2023-10-07T12:27:59.000Z</time>
</trkpt>
<trkpt lat="45.9214710" lon="9.5657950">
	<ele>1411.80</ele>
	<time>2023-10-07T12:28:00.000Z</time>
</trkpt>
<trkpt lat="45.9214650" lon="9.5657950">
	<ele>1411.60</ele>
	<time>2023-10-07T12:28:01.000Z</time>
</trkpt>
<trkpt lat="45.9214560" lon="9.5657970">
	<ele>1411.40</ele>
	<time>2023-10-07T12:28:02.000Z</time>
</trkpt>
<trkpt lat="45.9214450" lon="9.5657950">
	<ele>1411.20</ele>
	<time>2023-10-07T12:28:03.000Z</time>
</trkpt>
<trkpt lat="45.9214330" lon="9.5657970">
	<ele>1411.00</ele>
	<time>2023-10-07T12:28:04.000Z</time>
</trkpt>
<trkpt lat="45.9214180" lon="9.5657980">
	<ele>1410.80</ele>
	<time>2023-10-07T12:28:05.000Z</time>
</trkpt>
<trkpt lat="45.9214090" lon="9.5657940">
	<ele>1410.80</ele>
	<time>2023-10-07T12:28:06.000Z</time>
</trkpt>
<trkpt lat="45.9213990" lon="9.5657890">
	<ele>1410.60</ele>
	<time>2023-10-07T12:28:07.000Z</time>
</trkpt>
<trkpt lat="45.9213870" lon="9.5657830">
	<ele>1410.40</ele>
	<time>2023-10-07T12:28:08.000Z</time>
</trkpt>
<trkpt lat="45.9213730" lon="9.5657710">
	<ele>1410.20</ele>
	<time>2023-10-07T12:28:09.000Z</time>
</trkpt>
<trkpt lat="45.9213640" lon="9.5657620">
	<ele>1410.20</ele>
	<time>2023-10-07T12:28:10.000Z</time>
</trkpt>
<trkpt lat="45.9213540" lon="9.5657520">
	<ele>1410.00</ele>
	<time>2023-10-07T12:28:11.000Z</time>
</trkpt>
<trkpt lat="45.9213400" lon="9.5657410">
	<ele>1410.00</ele>
	<time>2023-10-07T12:28:12.000Z</time>
</trkpt>
<trkpt lat="45.9213260" lon="9.5657340">
	<ele>1410.00</ele>
	<time>2023-10-07T12:28:13.000Z</time>
</trkpt>
<trkpt lat="45.9213130" lon="9.5657280">
	<ele>1409.60</ele>
	<time>2023-10-07T12:28:14.000Z</time>
</trkpt>
<trkpt lat="45.9212960" lon="9.5657220">
	<ele>1409.40</ele>
	<time>2023-10-07T12:28:15.000Z</time>
</trkpt>
<trkpt lat="45.9212810" lon="9.5657100">
	<ele>1409.40</ele>
	<time>2023-10-07T12:28:16.000Z</time>
</trkpt>
<trkpt lat="45.9212680" lon="9.5656990">
	<ele>1409.00</ele>
	<time>2023-10-07T12:28:17.000Z</time>
</trkpt>
<trkpt lat="45.9212560" lon="9.5656890">
	<ele>1408.80</ele>
	<time>2023-10-07T12:28:18.000Z</time>
</trkpt>
<trkpt lat="45.9212460" lon="9.5656820">
	<ele>1408.60</ele>
	<time>2023-10-07T12:28:19.000Z</time>
</trkpt>
<trkpt lat="45.9212390" lon="9.5656770">
	<ele>1408.60</ele>
	<time>2023-10-07T12:28:20.000Z</time>
</trkpt>
<trkpt lat="45.9212300" lon="9.5656690">
	<ele>1408.60</ele>
	<time>2023-10-07T12:28:21.000Z</time>
</trkpt>
<trkpt lat="45.9212230" lon="9.5656680">
	<ele>1408.60</ele>
	<time>2023-10-07T12:28:22.000Z</time>
</trkpt>
<trkpt lat="45.9212140" lon="9.5656640">
	<ele>1408.40</ele>
	<time>2023-10-07T12:28:23.000Z</time>
</trkpt>
<trkpt lat="45.9212090" lon="9.5656590">
	<ele>1408.20</ele>
	<time>2023-10-07T12:28:24.000Z</time>
</trkpt>
<trkpt lat="45.9212030" lon="9.5656530">
	<ele>1408.20</ele>
	<time>2023-10-07T12:28:25.000Z</time>
</trkpt>
<trkpt lat="45.9212010" lon="9.5656470">
	<ele>1408.00</ele>
	<time>2023-10-07T12:28:26.000Z</time>
</trkpt>
<trkpt lat="45.9211910" lon="9.5656380">
	<ele>1407.80</ele>
	<time>2023-10-07T12:28:27.000Z</time>
</trkpt>
<trkpt lat="45.9211840" lon="9.5656280">
	<ele>1407.60</ele>
	<time>2023-10-07T12:28:28.000Z</time>
</trkpt>
<trkpt lat="45.9211790" lon="9.5656120">
	<ele>1407.60</ele>
	<time>2023-10-07T12:28:29.000Z</time>
</trkpt>
<trkpt lat="45.9211690" lon="9.5656030">
	<ele>1407.40</ele>
	<time>2023-10-07T12:28:30.000Z</time>
</trkpt>
<trkpt lat="45.9211560" lon="9.5655950">
	<ele>1407.00</ele>
	<time>2023-10-07T12:28:31.000Z</time>
</trkpt>
<trkpt lat="45.9211460" lon="9.5655900">
	<ele>1406.80</ele>
	<time>2023-10-07T12:28:32.000Z</time>
</trkpt>
<trkpt lat="45.9211330" lon="9.5655890">
	<ele>1406.60</ele>
	<time>2023-10-07T12:28:33.000Z</time>
</trkpt>
<trkpt lat="45.9211240" lon="9.5655870">
	<ele>1406.40</ele>
	<time>2023-10-07T12:28:34.000Z</time>
</trkpt>
<trkpt lat="45.9211060" lon="9.5655900">
	<ele>1406.00</ele>
	<time>2023-10-07T12:28:35.000Z</time>
</trkpt>
<trkpt lat="45.9210940" lon="9.5655960">
	<ele>1405.80</ele>
	<time>2023-10-07T12:28:36.000Z</time>
</trkpt>
<trkpt lat="45.9210800" lon="9.5656010">
	<ele>1405.60</ele>
	<time>2023-10-07T12:28:37.000Z</time>
</trkpt>
<trkpt lat="45.9210620" lon="9.5656020">
	<ele>1405.40</ele>
	<time>2023-10-07T12:28:38.000Z</time>
</trkpt>
<trkpt lat="45.9210460" lon="9.5656020">
	<ele>1405.20</ele>
	<time>2023-10-07T12:28:39.000Z</time>
</trkpt>
<trkpt lat="45.9210320" lon="9.5656010">
	<ele>1405.00</ele>
	<time>2023-10-07T12:28:40.000Z</time>
</trkpt>
<trkpt lat="45.9210170" lon="9.5655970">
	<ele>1404.60</ele>
	<time>2023-10-07T12:28:41.000Z</time>
</trkpt>
<trkpt lat="45.9210030" lon="9.5655890">
	<ele>1404.40</ele>
	<time>2023-10-07T12:28:42.000Z</time>
</trkpt>
<trkpt lat="45.9209890" lon="9.5655820">
	<ele>1404.20</ele>
	<time>2023-10-07T12:28:43.000Z</time>
</trkpt>
<trkpt lat="45.9209770" lon="9.5655800">
	<ele>1404.20</ele>
	<time>2023-10-07T12:28:44.000Z</time>
</trkpt>
<trkpt lat="45.9209650" lon="9.5655840">
	<ele>1404.00</ele>
	<time>2023-10-07T12:28:45.000Z</time>
</trkpt>
<trkpt lat="45.9209550" lon="9.5655840">
	<ele>1403.60</ele>
	<time>2023-10-07T12:28:46.000Z</time>
</trkpt>
<trkpt lat="45.9209430" lon="9.5655870">
	<ele>1403.40</ele>
	<time>2023-10-07T12:28:47.000Z</time>
</trkpt>
<trkpt lat="45.9209330" lon="9.5655890">
	<ele>1403.20</ele>
	<time>2023-10-07T12:28:48.000Z</time>
</trkpt>
<trkpt lat="45.9209170" lon="9.5655900">
	<ele>1403.00</ele>
	<time>2023-10-07T12:28:49.000Z</time>
</trkpt>
<trkpt lat="45.9209010" lon="9.5655910">
	<ele>1403.00</ele>
	<time>2023-10-07T12:28:50.000Z</time>
</trkpt>
<trkpt lat="45.9208860" lon="9.5655890">
	<ele>1402.80</ele>
	<time>2023-10-07T12:28:51.000Z</time>
</trkpt>
<trkpt lat="45.9208760" lon="9.5655850">
	<ele>1402.60</ele>
	<time>2023-10-07T12:28:52.000Z</time>
</trkpt>
<trkpt lat="45.9208760" lon="9.5655740">
	<ele>1402.20</ele>
	<time>2023-10-07T12:28:53.000Z</time>
</trkpt>
<trkpt lat="45.9208690" lon="9.5655740">
	<ele>1401.80</ele>
	<time>2023-10-07T12:28:54.000Z</time>
</trkpt>
<trkpt lat="45.9208560" lon="9.5655680">
	<ele>1401.60</ele>
	<time>2023-10-07T12:28:55.000Z</time>
</trkpt>
<trkpt lat="45.9208490" lon="9.5655560">
	<ele>1401.40</ele>
	<time>2023-10-07T12:28:56.000Z</time>
</trkpt>
<trkpt lat="45.9208370" lon="9.5655420">
	<ele>1401.20</ele>
	<time>2023-10-07T12:28:57.000Z</time>
</trkpt>
<trkpt lat="45.9208220" lon="9.5655390">
	<ele>1401.00</ele>
	<time>2023-10-07T12:28:58.000Z</time>
</trkpt>
<trkpt lat="45.9208090" lon="9.5655340">
	<ele>1401.00</ele>
	<time>2023-10-07T12:28:59.000Z</time>
</trkpt>
<trkpt lat="45.9208040" lon="9.5655280">
	<ele>1400.80</ele>
	<time>2023-10-07T12:29:00.000Z</time>
</trkpt>
<trkpt lat="45.9207990" lon="9.5655250">
	<ele>1400.60</ele>
	<time>2023-10-07T12:29:01.000Z</time>
</trkpt>
<trkpt lat="45.9207980" lon="9.5655140">
	<ele>1400.60</ele>
	<time>2023-10-07T12:29:02.000Z</time>
</trkpt>
<trkpt lat="45.9207920" lon="9.5655050">
	<ele>1400.20</ele>
	<time>2023-10-07T12:29:03.000Z</time>
</trkpt>
<trkpt lat="45.9207860" lon="9.5654980">
	<ele>1400.00</ele>
	<time>2023-10-07T12:29:04.000Z</time>
</trkpt>
<trkpt lat="45.9207820" lon="9.5654900">
	<ele>1399.80</ele>
	<time>2023-10-07T12:29:05.000Z</time>
</trkpt>
<trkpt lat="45.9207790" lon="9.5654830">
	<ele>1399.40</ele>
	<time>2023-10-07T12:29:06.000Z</time>
</trkpt>
<trkpt lat="45.9207750" lon="9.5654770">
	<ele>1399.20</ele>
	<time>2023-10-07T12:29:07.000Z</time>
</trkpt>
<trkpt lat="45.9207710" lon="9.5654750">
	<ele>1399.00</ele>
	<time>2023-10-07T12:29:08.000Z</time>
</trkpt>
<trkpt lat="45.9207670" lon="9.5654690">
	<ele>1398.80</ele>
	<time>2023-10-07T12:29:09.000Z</time>
</trkpt>
<trkpt lat="45.9207620" lon="9.5654570">
	<ele>1398.60</ele>
	<time>2023-10-07T12:29:10.000Z</time>
</trkpt>
<trkpt lat="45.9207580" lon="9.5654420">
	<ele>1398.40</ele>
	<time>2023-10-07T12:29:11.000Z</time>
</trkpt>
<trkpt lat="45.9207540" lon="9.5654300">
	<ele>1397.80</ele>
	<time>2023-10-07T12:29:12.000Z</time>
</trkpt>
<trkpt lat="45.9207500" lon="9.5654200">
	<ele>1397.40</ele>
	<time>2023-10-07T12:29:13.000Z</time>
</trkpt>
<trkpt lat="45.9207450" lon="9.5654090">
	<ele>1397.20</ele>
	<time>2023-10-07T12:29:14.000Z</time>
</trkpt>
<trkpt lat="45.9207410" lon="9.5654000">
	<ele>1397.00</ele>
	<time>2023-10-07T12:29:15.000Z</time>
</trkpt>
<trkpt lat="45.9207360" lon="9.5653900">
	<ele>1396.80</ele>
	<time>2023-10-07T12:29:16.000Z</time>
</trkpt>
<trkpt lat="45.9207260" lon="9.5653790">
	<ele>1396.40</ele>
	<time>2023-10-07T12:29:17.000Z</time>
</trkpt>
<trkpt lat="45.9207210" lon="9.5653680">
	<ele>1396.00</ele>
	<time>2023-10-07T12:29:18.000Z</time>
</trkpt>
<trkpt lat="45.9207170" lon="9.5653560">
	<ele>1396.00</ele>
	<time>2023-10-07T12:29:19.000Z</time>
</trkpt>
<trkpt lat="45.9207080" lon="9.5653490">
	<ele>1395.60</ele>
	<time>2023-10-07T12:29:20.000Z</time>
</trkpt>
<trkpt lat="45.9207040" lon="9.5653360">
	<ele>1395.20</ele>
	<time>2023-10-07T12:29:21.000Z</time>
</trkpt>
<trkpt lat="45.9206960" lon="9.5653270">
	<ele>1395.00</ele>
	<time>2023-10-07T12:29:22.000Z</time>
</trkpt>
<trkpt lat="45.9206900" lon="9.5653140">
	<ele>1394.60</ele>
	<time>2023-10-07T12:29:23.000Z</time>
</trkpt>
<trkpt lat="45.9206830" lon="9.5653050">
	<ele>1394.40</ele>
	<time>2023-10-07T12:29:24.000Z</time>
</trkpt>
<trkpt lat="45.9206760" lon="9.5652990">
	<ele>1394.20</ele>
	<time>2023-10-07T12:29:25.000Z</time>
</trkpt>
<trkpt lat="45.9206690" lon="9.5652920">
	<ele>1394.00</ele>
	<time>2023-10-07T12:29:26.000Z</time>
</trkpt>
<trkpt lat="45.9206610" lon="9.5652860">
	<ele>1393.80</ele>
	<time>2023-10-07T12:29:27.000Z</time>
</trkpt>
<trkpt lat="45.9206470" lon="9.5652830">
	<ele>1393.60</ele>
	<time>2023-10-07T12:29:28.000Z</time>
</trkpt>
<trkpt lat="45.9206320" lon="9.5652740">
	<ele>1393.20</ele>
	<time>2023-10-07T12:29:29.000Z</time>
</trkpt>
<trkpt lat="45.9206260" lon="9.5652650">
	<ele>1392.80</ele>
	<time>2023-10-07T12:29:30.000Z</time>
</trkpt>
<trkpt lat="45.9206180" lon="9.5652570">
	<ele>1392.80</ele>
	<time>2023-10-07T12:29:31.000Z</time>
</trkpt>
<trkpt lat="45.9206090" lon="9.5652490">
	<ele>1392.60</ele>
	<time>2023-10-07T12:29:32.000Z</time>
</trkpt>
<trkpt lat="45.9206010" lon="9.5652420">
	<ele>1392.40</ele>
	<time>2023-10-07T12:29:33.000Z</time>
</trkpt>
<trkpt lat="45.9205920" lon="9.5652360">
	<ele>1392.20</ele>
	<time>2023-10-07T12:29:34.000Z</time>
</trkpt>
<trkpt lat="45.9205860" lon="9.5652300">
	<ele>1391.80</ele>
	<time>2023-10-07T12:29:35.000Z</time>
</trkpt>
<trkpt lat="45.9205800" lon="9.5652190">
	<ele>1391.40</ele>
	<time>2023-10-07T12:29:36.000Z</time>
</trkpt>
<trkpt lat="45.9205730" lon="9.5652100">
	<ele>1391.20</ele>
	<time>2023-10-07T12:29:37.000Z</time>
</trkpt>
<trkpt lat="45.9205670" lon="9.5651970">
	<ele>1391.00</ele>
	<time>2023-10-07T12:29:38.000Z</time>
</trkpt>
<trkpt lat="45.9205590" lon="9.5651890">
	<ele>1390.60</ele>
	<time>2023-10-07T12:29:39.000Z</time>
</trkpt>
<trkpt lat="45.9205500" lon="9.5651810">
	<ele>1390.40</ele>
	<time>2023-10-07T12:29:40.000Z</time>
</trkpt>
<trkpt lat="45.9205380" lon="9.5651780">
	<ele>1390.20</ele>
	<time>2023-10-07T12:29:41.000Z</time>
</trkpt>
<trkpt lat="45.9205300" lon="9.5651790">
	<ele>1390.00</ele>
	<time>2023-10-07T12:29:42.000Z</time>
</trkpt>
<trkpt lat="45.9205210" lon="9.5651720">
	<ele>1389.80</ele>
	<time>2023-10-07T12:29:43.000Z</time>
</trkpt>
<trkpt lat="45.9205200" lon="9.5651720">
	<ele>1389.60</ele>
	<time>2023-10-07T12:29:44.000Z</time>
</trkpt>
<trkpt lat="45.9205160" lon="9.5651740">
	<ele>1389.40</ele>
	<time>2023-10-07T12:29:45.000Z</time>
</trkpt>
<trkpt lat="45.9205080" lon="9.5651700">
	<ele>1389.20</ele>
	<time>2023-10-07T12:29:46.000Z</time>
</trkpt>
<trkpt lat="45.9204970" lon="9.5651690">
	<ele>1389.00</ele>
	<time>2023-10-07T12:29:47.000Z</time>
</trkpt>
<trkpt lat="45.9204840" lon="9.5651670">
	<ele>1388.80</ele>
	<time>2023-10-07T12:29:48.000Z</time>
</trkpt>
<trkpt lat="45.9204770" lon="9.5651610">
	<ele>1388.20</ele>
	<time>2023-10-07T12:29:49.000Z</time>
</trkpt>
<trkpt lat="45.9204650" lon="9.5651520">
	<ele>1387.80</ele>
	<time>2023-10-07T12:29:50.000Z</time>
</trkpt>
<trkpt lat="45.9204540" lon="9.5651440">
	<ele>1387.60</ele>
	<time>2023-10-07T12:29:51.000Z</time>
</trkpt>
<trkpt lat="45.9204420" lon="9.5651380">
	<ele>1387.20</ele>
	<time>2023-10-07T12:29:52.000Z</time>
</trkpt>
<trkpt lat="45.9204350" lon="9.5651340">
	<ele>1386.80</ele>
	<time>2023-10-07T12:29:53.000Z</time>
</trkpt>
<trkpt lat="45.9204240" lon="9.5651320">
	<ele>1386.60</ele>
	<time>2023-10-07T12:29:54.000Z</time>
</trkpt>
<trkpt lat="45.9204110" lon="9.5651320">
	<ele>1386.40</ele>
	<time>2023-10-07T12:29:55.000Z</time>
</trkpt>
<trkpt lat="45.9204050" lon="9.5651350">
	<ele>1386.40</ele>
	<time>2023-10-07T12:29:56.000Z</time>
</trkpt>
<trkpt lat="45.9204020" lon="9.5651360">
	<ele>1386.20</ele>
	<time>2023-10-07T12:29:57.000Z</time>
</trkpt>
<trkpt lat="45.9203920" lon="9.5651460">
	<ele>1386.00</ele>
	<time>2023-10-07T12:29:58.000Z</time>
</trkpt>
<trkpt lat="45.9203880" lon="9.5651470">
	<ele>1386.00</ele>
	<time>2023-10-07T12:29:59.000Z</time>
</trkpt>
<trkpt lat="45.9203850" lon="9.5651500">
	<ele>1385.60</ele>
	<time>2023-10-07T12:30:00.000Z</time>
</trkpt>
<trkpt lat="45.9203790" lon="9.5651520">
	<ele>1385.20</ele>
	<time>2023-10-07T12:30:01.000Z</time>
</trkpt>
<trkpt lat="45.9203740" lon="9.5651490">
	<ele>1385.00</ele>
	<time>2023-10-07T12:30:02.000Z</time>
</trkpt>
<trkpt lat="45.9203670" lon="9.5651510">
	<ele>1384.60</ele>
	<time>2023-10-07T12:30:03.000Z</time>
</trkpt>
<trkpt lat="45.9203570" lon="9.5651530">
	<ele>1384.40</ele>
	<time>2023-10-07T12:30:04.000Z</time>
</trkpt>
<trkpt lat="45.9203490" lon="9.5651490">
	<ele>1384.40</ele>
	<time>2023-10-07T12:30:05.000Z</time>
</trkpt>
<trkpt lat="45.9203440" lon="9.5651430">
	<ele>1384.20</ele>
	<time>2023-10-07T12:30:06.000Z</time>
</trkpt>
<trkpt lat="45.9203390" lon="9.5651390">
	<ele>1384.00</ele>
	<time>2023-10-07T12:30:07.000Z</time>
</trkpt>
<trkpt lat="45.9203320" lon="9.5651350">
	<ele>1383.80</ele>
	<time>2023-10-07T12:30:08.000Z</time>
</trkpt>
<trkpt lat="45.9203240" lon="9.5651350">
	<ele>1383.60</ele>
	<time>2023-10-07T12:30:09.000Z</time>
</trkpt>
<trkpt lat="45.9203180" lon="9.5651360">
	<ele>1383.40</ele>
	<time>2023-10-07T12:30:10.000Z</time>
</trkpt>
<trkpt lat="45.9203050" lon="9.5651350">
	<ele>1382.80</ele>
	<time>2023-10-07T12:30:11.000Z</time>
</trkpt>
<trkpt lat="45.9202970" lon="9.5651280">
	<ele>1382.60</ele>
	<time>2023-10-07T12:30:12.000Z</time>
</trkpt>
<trkpt lat="45.9202890" lon="9.5651260">
	<ele>1382.40</ele>
	<time>2023-10-07T12:30:13.000Z</time>
</trkpt>
<trkpt lat="45.9202770" lon="9.5651270">
	<ele>1382.20</ele>
	<time>2023-10-07T12:30:14.000Z</time>
</trkpt>
<trkpt lat="45.9202650" lon="9.5651240">
	<ele>1382.00</ele>
	<time>2023-10-07T12:30:15.000Z</time>
</trkpt>
<trkpt lat="45.9202560" lon="9.5651150">
	<ele>1381.80</ele>
	<time>2023-10-07T12:30:16.000Z</time>
</trkpt>
<trkpt lat="45.9202470" lon="9.5651040">
	<ele>1381.60</ele>
	<time>2023-10-07T12:30:17.000Z</time>
</trkpt>
<trkpt lat="45.9202390" lon="9.5650900">
	<ele>1381.40</ele>
	<time>2023-10-07T12:30:18.000Z</time>
</trkpt>
<trkpt lat="45.9202340" lon="9.5650820">
	<ele>1380.80</ele>
	<time>2023-10-07T12:30:19.000Z</time>
</trkpt>
<trkpt lat="45.9202240" lon="9.5650750">
	<ele>1380.60</ele>
	<time>2023-10-07T12:30:20.000Z</time>
</trkpt>
<trkpt lat="45.9202160" lon="9.5650700">
	<ele>1380.40</ele>
	<time>2023-10-07T12:30:21.000Z</time>
</trkpt>
<trkpt lat="45.9202050" lon="9.5650620">
	<ele>1380.20</ele>
	<time>2023-10-07T12:30:22.000Z</time>
</trkpt>
<trkpt lat="45.9201970" lon="9.5650540">
	<ele>1380.00</ele>
	<time>2023-10-07T12:30:23.000Z</time>
</trkpt>
<trkpt lat="45.9201860" lon="9.5650450">
	<ele>1379.60</ele>
	<time>2023-10-07T12:30:24.000Z</time>
</trkpt>
<trkpt lat="45.9201720" lon="9.5650380">
	<ele>1379.40</ele>
	<time>2023-10-07T12:30:25.000Z</time>
</trkpt>
<trkpt lat="45.9201630" lon="9.5650300">
	<ele>1379.20</ele>
	<time>2023-10-07T12:30:26.000Z</time>
</trkpt>
<trkpt lat="45.9201550" lon="9.5650180">
	<ele>1379.00</ele>
	<time>2023-10-07T12:30:27.000Z</time>
</trkpt>
<trkpt lat="45.9201460" lon="9.5650060">
	<ele>1379.00</ele>
	<time>2023-10-07T12:30:28.000Z</time>
</trkpt>
<trkpt lat="45.9201400" lon="9.5649890">
	<ele>1378.80</ele>
	<time>2023-10-07T12:30:29.000Z</time>
</trkpt>
<trkpt lat="45.9201330" lon="9.5649750">
	<ele>1378.60</ele>
	<time>2023-10-07T12:30:30.000Z</time>
</trkpt>
<trkpt lat="45.9201260" lon="9.5649600">
	<ele>1378.40</ele>
	<time>2023-10-07T12:30:31.000Z</time>
</trkpt>
<trkpt lat="45.9201200" lon="9.5649460">
	<ele>1378.40</ele>
	<time>2023-10-07T12:30:32.000Z</time>
</trkpt>
<trkpt lat="45.9201130" lon="9.5649410">
	<ele>1378.20</ele>
	<time>2023-10-07T12:30:33.000Z</time>
</trkpt>
<trkpt lat="45.9201080" lon="9.5649360">
	<ele>1378.20</ele>
	<time>2023-10-07T12:30:34.000Z</time>
</trkpt>
<trkpt lat="45.9201050" lon="9.5649340">
	<ele>1377.80</ele>
	<time>2023-10-07T12:30:35.000Z</time>
</trkpt>
<trkpt lat="45.9201020" lon="9.5649300">
	<ele>1377.60</ele>
	<time>2023-10-07T12:30:36.000Z</time>
</trkpt>
<trkpt lat="45.9200960" lon="9.5649260">
	<ele>1377.40</ele>
	<time>2023-10-07T12:30:37.000Z</time>
</trkpt>
<trkpt lat="45.9200870" lon="9.5649240">
	<ele>1377.40</ele>
	<time>2023-10-07T12:30:38.000Z</time>
</trkpt>
<trkpt lat="45.9200800" lon="9.5649230">
	<ele>1377.20</ele>
	<time>2023-10-07T12:30:39.000Z</time>
</trkpt>
<trkpt lat="45.9200690" lon="9.5649250">
	<ele>1376.80</ele>
	<time>2023-10-07T12:30:40.000Z</time>
</trkpt>
<trkpt lat="45.9200610" lon="9.5649200">
	<ele>1376.80</ele>
	<time>2023-10-07T12:30:41.000Z</time>
</trkpt>
<trkpt lat="45.9200560" lon="9.5649100">
	<ele>1376.40</ele>
	<time>2023-10-07T12:30:42.000Z</time>
</trkpt>
<trkpt lat="45.9200480" lon="9.5649030">
	<ele>1376.20</ele>
	<time>2023-10-07T12:30:43.000Z</time>
</trkpt>
<trkpt lat="45.9200360" lon="9.5649010">
	<ele>1376.00</ele>
	<time>2023-10-07T12:30:44.000Z</time>
</trkpt>
<trkpt lat="45.9200250" lon="9.5648970">
	<ele>1376.00</ele>
	<time>2023-10-07T12:30:45.000Z</time>
</trkpt>
<trkpt lat="45.9200130" lon="9.5648910">
	<ele>1375.80</ele>
	<time>2023-10-07T12:30:46.000Z</time>
</trkpt>
<trkpt lat="45.9200040" lon="9.5648850">
	<ele>1375.60</ele>
	<time>2023-10-07T12:30:47.000Z</time>
</trkpt>
<trkpt lat="45.9199910" lon="9.5648800">
	<ele>1375.40</ele>
	<time>2023-10-07T12:30:48.000Z</time>
</trkpt>
<trkpt lat="45.9199860" lon="9.5648710">
	<ele>1375.20</ele>
	<time>2023-10-07T12:30:49.000Z</time>
</trkpt>
<trkpt lat="45.9199850" lon="9.5648590">
	<ele>1374.80</ele>
	<time>2023-10-07T12:30:50.000Z</time>
</trkpt>
<trkpt lat="45.9199830" lon="9.5648450">
	<ele>1374.40</ele>
	<time>2023-10-07T12:30:51.000Z</time>
</trkpt>
<trkpt lat="45.9199770" lon="9.5648380">
	<ele>1374.40</ele>
	<time>2023-10-07T12:30:52.000Z</time>
</trkpt>
<trkpt lat="45.9199710" lon="9.5648310">
	<ele>1374.00</ele>
	<time>2023-10-07T12:30:53.000Z</time>
</trkpt>
<trkpt lat="45.9199670" lon="9.5648250">
	<ele>1373.80</ele>
	<time>2023-10-07T12:30:54.000Z</time>
</trkpt>
<trkpt lat="45.9199620" lon="9.5648220">
	<ele>1373.60</ele>
	<time>2023-10-07T12:30:55.000Z</time>
</trkpt>
<trkpt lat="45.9199570" lon="9.5648220">
	<ele>1373.40</ele>
	<time>2023-10-07T12:30:56.000Z</time>
</trkpt>
<trkpt lat="45.9199540" lon="9.5648180">
	<ele>1373.20</ele>
	<time>2023-10-07T12:30:57.000Z</time>
</trkpt>
<trkpt lat="45.9199500" lon="9.5648100">
	<ele>1372.80</ele>
	<time>2023-10-07T12:30:58.000Z</time>
</trkpt>
<trkpt lat="45.9199480" lon="9.5648060">
	<ele>1372.60</ele>
	<time>2023-10-07T12:30:59.000Z</time>
</trkpt>
<trkpt lat="45.9199450" lon="9.5647940">
	<ele>1372.60</ele>
	<time>2023-10-07T12:31:00.000Z</time>
</trkpt>
<trkpt lat="45.9199400" lon="9.5647860">
	<ele>1372.40</ele>
	<time>2023-10-07T12:31:01.000Z</time>
</trkpt>
<trkpt lat="45.9199360" lon="9.5647780">
	<ele>1372.20</ele>
	<time>2023-10-07T12:31:02.000Z</time>
</trkpt>
<trkpt lat="45.9199330" lon="9.5647720">
	<ele>1372.20</ele>
	<time>2023-10-07T12:31:03.000Z</time>
</trkpt>
<trkpt lat="45.9199270" lon="9.5647680">
	<ele>1372.00</ele>
	<time>2023-10-07T12:31:04.000Z</time>
</trkpt>
<trkpt lat="45.9199200" lon="9.5647660">
	<ele>1372.00</ele>
	<time>2023-10-07T12:31:05.000Z</time>
</trkpt>
<trkpt lat="45.9199120" lon="9.5647630">
	<ele>1371.80</ele>
	<time>2023-10-07T12:31:06.000Z</time>
</trkpt>
<trkpt lat="45.9199010" lon="9.5647600">
	<ele>1371.60</ele>
	<time>2023-10-07T12:31:07.000Z</time>
</trkpt>
<trkpt lat="45.9198880" lon="9.5647580">
	<ele>1371.40</ele>
	<time>2023-10-07T12:31:08.000Z</time>
</trkpt>
<trkpt lat="45.9198800" lon="9.5647520">
	<ele>1371.20</ele>
	<time>2023-10-07T12:31:09.000Z</time>
</trkpt>
<trkpt lat="45.9198740" lon="9.5647440">
	<ele>1370.80</ele>
	<time>2023-10-07T12:31:10.000Z</time>
</trkpt>
<trkpt lat="45.9198660" lon="9.5647330">
	<ele>1370.40</ele>
	<time>2023-10-07T12:31:11.000Z</time>
</trkpt>
<trkpt lat="45.9198570" lon="9.5647290">
	<ele>1370.20</ele>
	<time>2023-10-07T12:31:12.000Z</time>
</trkpt>
<trkpt lat="45.9198500" lon="9.5647200">
	<ele>1370.00</ele>
	<time>2023-10-07T12:31:13.000Z</time>
</trkpt>
<trkpt lat="45.9198420" lon="9.5647120">
	<ele>1369.80</ele>
	<time>2023-10-07T12:31:14.000Z</time>
</trkpt>
<trkpt lat="45.9198320" lon="9.5647040">
	<ele>1369.40</ele>
	<time>2023-10-07T12:31:15.000Z</time>
</trkpt>
<trkpt lat="45.9198250" lon="9.5646940">
	<ele>1369.40</ele>
	<time>2023-10-07T12:31:16.000Z</time>
</trkpt>
<trkpt lat="45.9198160" lon="9.5646900">
	<ele>1369.20</ele>
	<time>2023-10-07T12:31:17.000Z</time>
</trkpt>
<trkpt lat="45.9198050" lon="9.5646830">
	<ele>1368.80</ele>
	<time>2023-10-07T12:31:18.000Z</time>
</trkpt>
<trkpt lat="45.9197950" lon="9.5646810">
	<ele>1368.60</ele>
	<time>2023-10-07T12:31:19.000Z</time>
</trkpt>
<trkpt lat="45.9197890" lon="9.5646790">
	<ele>1368.20</ele>
	<time>2023-10-07T12:31:20.000Z</time>
</trkpt>
<trkpt lat="45.9197800" lon="9.5646780">
	<ele>1368.00</ele>
	<time>2023-10-07T12:31:21.000Z</time>
</trkpt>
<trkpt lat="45.9197710" lon="9.5646720">
	<ele>1367.80</ele>
	<time>2023-10-07T12:31:22.000Z</time>
</trkpt>
<trkpt lat="45.9197640" lon="9.5646670">
	<ele>1367.40</ele>
	<time>2023-10-07T12:31:23.000Z</time>
</trkpt>
<trkpt lat="45.9197630" lon="9.5646630">
	<ele>1367.00</ele>
	<time>2023-10-07T12:31:24.000Z</time>
</trkpt>
<trkpt lat="45.9197590" lon="9.5646600">
	<ele>1366.40</ele>
	<time>2023-10-07T12:31:25.000Z</time>
</trkpt>
<trkpt lat="45.9197440" lon="9.5646620">
	<ele>1366.20</ele>
	<time>2023-10-07T12:31:26.000Z</time>
</trkpt>
<trkpt lat="45.9197290" lon="9.5646580">
	<ele>1366.00</ele>
	<time>2023-10-07T12:31:27.000Z</time>
</trkpt>
<trkpt lat="45.9197200" lon="9.5646500">
	<ele>1365.80</ele>
	<time>2023-10-07T12:31:28.000Z</time>
</trkpt>
<trkpt lat="45.9197110" lon="9.5646430">
	<ele>1365.40</ele>
	<time>2023-10-07T12:31:29.000Z</time>
</trkpt>
<trkpt lat="45.9196980" lon="9.5646390">
	<ele>1365.00</ele>
	<time>2023-10-07T12:31:30.000Z</time>
</trkpt>
<trkpt lat="45.9196850" lon="9.5646280">
	<ele>1364.60</ele>
	<time>2023-10-07T12:31:31.000Z</time>
</trkpt>
<trkpt lat="45.9196780" lon="9.5646170">
	<ele>1364.20</ele>
	<time>2023-10-07T12:31:32.000Z</time>
</trkpt>
<trkpt lat="45.9196710" lon="9.5646080">
	<ele>1363.80</ele>
	<time>2023-10-07T12:31:33.000Z</time>
</trkpt>
<trkpt lat="45.9196680" lon="9.5646020">
	<ele>1363.60</ele>
	<time>2023-10-07T12:31:34.000Z</time>
</trkpt>
<trkpt lat="45.9196640" lon="9.5645990">
	<ele>1363.40</ele>
	<time>2023-10-07T12:31:35.000Z</time>
</trkpt>
<trkpt lat="45.9196560" lon="9.5645940">
	<ele>1363.40</ele>
	<time>2023-10-07T12:31:36.000Z</time>
</trkpt>
<trkpt lat="45.9196500" lon="9.5645880">
	<ele>1363.40</ele>
	<time>2023-10-07T12:31:37.000Z</time>
</trkpt>
<trkpt lat="45.9196370" lon="9.5645840">
	<ele>1363.00</ele>
	<time>2023-10-07T12:31:38.000Z</time>
</trkpt>
<trkpt lat="45.9196220" lon="9.5645810">
	<ele>1362.60</ele>
	<time>2023-10-07T12:31:39.000Z</time>
</trkpt>
<trkpt lat="45.9196080" lon="9.5645780">
	<ele>1362.20</ele>
	<time>2023-10-07T12:31:40.000Z</time>
</trkpt>
<trkpt lat="45.9195920" lon="9.5645790">
	<ele>1362.00</ele>
	<time>2023-10-07T12:31:41.000Z</time>
</trkpt>
<trkpt lat="45.9195800" lon="9.5645790">
	<ele>1361.80</ele>
	<time>2023-10-07T12:31:42.000Z</time>
</trkpt>
<trkpt lat="45.9195670" lon="9.5645750">
	<ele>1361.80</ele>
	<time>2023-10-07T12:31:43.000Z</time>
</trkpt>
<trkpt lat="45.9195600" lon="9.5645710">
	<ele>1361.60</ele>
	<time>2023-10-07T12:31:44.000Z</time>
</trkpt>
<trkpt lat="45.9195530" lon="9.5645720">
	<ele>1361.60</ele>
	<time>2023-10-07T12:31:45.000Z</time>
</trkpt>
<trkpt lat="45.9195430" lon="9.5645760">
	<ele>1361.40</ele>
	<time>2023-10-07T12:31:46.000Z</time>
</trkpt>
<trkpt lat="45.9195320" lon="9.5645780">
	<ele>1361.20</ele>
	<time>2023-10-07T12:31:47.000Z</time>
</trkpt>
<trkpt lat="45.9195230" lon="9.5645720">
	<ele>1360.60</ele>
	<time>2023-10-07T12:31:48.000Z</time>
</trkpt>
<trkpt lat="45.9195110" lon="9.5645680">
	<ele>1360.40</ele>
	<time>2023-10-07T12:31:49.000Z</time>
</trkpt>
<trkpt lat="45.9194990" lon="9.5645680">
	<ele>1360.00</ele>
	<time>2023-10-07T12:31:50.000Z</time>
</trkpt>
<trkpt lat="45.9194920" lon="9.5645670">
	<ele>1359.80</ele>
	<time>2023-10-07T12:31:51.000Z</time>
</trkpt>
<trkpt lat="45.9194830" lon="9.5645680">
	<ele>1359.40</ele>
	<time>2023-10-07T12:31:52.000Z</time>
</trkpt>
<trkpt lat="45.9194730" lon="9.5645740">
	<ele>1359.00</ele>
	<time>2023-10-07T12:31:53.000Z</time>
</trkpt>
<trkpt lat="45.9194660" lon="9.5645740">
	<ele>1359.00</ele>
	<time>2023-10-07T12:31:54.000Z</time>
</trkpt>
<trkpt lat="45.9194540" lon="9.5645750">
	<ele>1358.80</ele>
	<time>2023-10-07T12:31:55.000Z</time>
</trkpt>
<trkpt lat="45.9194430" lon="9.5645850">
	<ele>1358.60</ele>
	<time>2023-10-07T12:31:56.000Z</time>
</trkpt>
<trkpt lat="45.9194380" lon="9.5645960">
	<ele>1358.40</ele>
	<time>2023-10-07T12:31:57.000Z</time>
</trkpt>
<trkpt lat="45.9194300" lon="9.5646060">
	<ele>1358.20</ele>
	<time>2023-10-07T12:31:58.000Z</time>
</trkpt>
<trkpt lat="45.9194200" lon="9.5646130">
	<ele>1357.60</ele>
	<time>2023-10-07T12:31:59.000Z</time>
</trkpt>
<trkpt lat="45.9194120" lon="9.5646230">
	<ele>1357.40</ele>
	<time>2023-10-07T12:32:00.000Z</time>
</trkpt>
<trkpt lat="45.9194030" lon="9.5646370">
	<ele>1357.20</ele>
	<time>2023-10-07T12:32:01.000Z</time>
</trkpt>
<trkpt lat="45.9193950" lon="9.5646500">
	<ele>1357.00</ele>
	<time>2023-10-07T12:32:02.000Z</time>
</trkpt>
<trkpt lat="45.9193840" lon="9.5646600">
	<ele>1356.80</ele>
	<time>2023-10-07T12:32:03.000Z</time>
</trkpt>
<trkpt lat="45.9193660" lon="9.5646700">
	<ele>1356.60</ele>
	<time>2023-10-07T12:32:04.000Z</time>
</trkpt>
<trkpt lat="45.9193530" lon="9.5646720">
	<ele>1356.60</ele>
	<time>2023-10-07T12:32:05.000Z</time>
</trkpt>
<trkpt lat="45.9193380" lon="9.5646810">
	<ele>1356.40</ele>
	<time>2023-10-07T12:32:06.000Z</time>
</trkpt>
<trkpt lat="45.9193270" lon="9.5646890">
	<ele>1356.40</ele>
	<time>2023-10-07T12:32:07.000Z</time>
</trkpt>
<trkpt lat="45.9193170" lon="9.5646960">
	<ele>1356.20</ele>
	<time>2023-10-07T12:32:08.000Z</time>
</trkpt>
<trkpt lat="45.9193090" lon="9.5647030">
	<ele>1356.00</ele>
	<time>2023-10-07T12:32:09.000Z</time>
</trkpt>
<trkpt lat="45.9192970" lon="9.5647050">
	<ele>1355.80</ele>
	<time>2023-10-07T12:32:10.000Z</time>
</trkpt>
<trkpt lat="45.9192860" lon="9.5647060">
	<ele>1355.60</ele>
	<time>2023-10-07T12:32:11.000Z</time>
</trkpt>
<trkpt lat="45.9192770" lon="9.5647100">
	<ele>1355.40</ele>
	<time>2023-10-07T12:32:12.000Z</time>
</trkpt>
<trkpt lat="45.9192680" lon="9.5647220">
	<ele>1355.20</ele>
	<time>2023-10-07T12:32:13.000Z</time>
</trkpt>
<trkpt lat="45.9192610" lon="9.5647350">
	<ele>1355.00</ele>
	<time>2023-10-07T12:32:14.000Z</time>
</trkpt>
<trkpt lat="45.9192480" lon="9.5647470">
	<ele>1355.00</ele>
	<time>2023-10-07T12:32:15.000Z</time>
</trkpt>
<trkpt lat="45.9192390" lon="9.5647610">
	<ele>1355.00</ele>
	<time>2023-10-07T12:32:16.000Z</time>
</trkpt>
<trkpt lat="45.9192300" lon="9.5647770">
	<ele>1354.80</ele>
	<time>2023-10-07T12:32:17.000Z</time>
</trkpt>
<trkpt lat="45.9192220" lon="9.5647930">
	<ele>1354.60</ele>
	<time>2023-10-07T12:32:18.000Z</time>
</trkpt>
<trkpt lat="45.9192060" lon="9.5647960">
	<ele>1354.60</ele>
	<time>2023-10-07T12:32:19.000Z</time>
</trkpt>
<trkpt lat="45.9191910" lon="9.5648030">
	<ele>1354.40</ele>
	<time>2023-10-07T12:32:20.000Z</time>
</trkpt>
<trkpt lat="45.9191800" lon="9.5648110">
	<ele>1354.40</ele>
	<time>2023-10-07T12:32:21.000Z</time>
</trkpt>
<trkpt lat="45.9191720" lon="9.5648200">
	<ele>1354.40</ele>
	<time>2023-10-07T12:32:22.000Z</time>
</trkpt>
<trkpt lat="45.9191640" lon="9.5648270">
	<ele>1354.40</ele>
	<time>2023-10-07T12:32:23.000Z</time>
</trkpt>
<trkpt lat="45.9191570" lon="9.5648380">
	<ele>1354.40</ele>
	<time>2023-10-07T12:32:24.000Z</time>
</trkpt>
<trkpt lat="45.9191500" lon="9.5648500">
	<ele>1354.40</ele>
	<time>2023-10-07T12:32:25.000Z</time>
</trkpt>
<trkpt lat="45.9191430" lon="9.5648610">
	<ele>1354.20</ele>
	<time>2023-10-07T12:32:26.000Z</time>
</trkpt>
<trkpt lat="45.9191350" lon="9.5648690">
	<ele>1354.00</ele>
	<time>2023-10-07T12:32:27.000Z</time>
</trkpt>
<trkpt lat="45.9191310" lon="9.5648820">
	<ele>1353.80</ele>
	<time>2023-10-07T12:32:28.000Z</time>
</trkpt>
<trkpt lat="45.9191250" lon="9.5648960">
	<ele>1353.60</ele>
	<time>2023-10-07T12:32:29.000Z</time>
</trkpt>
<trkpt lat="45.9191170" lon="9.5649110">
	<ele>1353.20</ele>
	<time>2023-10-07T12:32:30.000Z</time>
</trkpt>
<trkpt lat="45.9191100" lon="9.5649280">
	<ele>1353.00</ele>
	<time>2023-10-07T12:32:31.000Z</time>
</trkpt>
<trkpt lat="45.9191020" lon="9.5649440">
	<ele>1352.80</ele>
	<time>2023-10-07T12:32:32.000Z</time>
</trkpt>
<trkpt lat="45.9190930" lon="9.5649590">
	<ele>1352.60</ele>
	<time>2023-10-07T12:32:33.000Z</time>
</trkpt>
<trkpt lat="45.9190780" lon="9.5649740">
	<ele>1352.40</ele>
	<time>2023-10-07T12:32:34.000Z</time>
</trkpt>
<trkpt lat="45.9190640" lon="9.5649910">
	<ele>1352.20</ele>
	<time>2023-10-07T12:32:35.000Z</time>
</trkpt>
<trkpt lat="45.9190550" lon="9.5650060">
	<ele>1352.20</ele>
	<time>2023-10-07T12:32:36.000Z</time>
</trkpt>
<trkpt lat="45.9190460" lon="9.5650160">
	<ele>1352.00</ele>
	<time>2023-10-07T12:32:37.000Z</time>
</trkpt>
<trkpt lat="45.9190360" lon="9.5650260">
	<ele>1352.00</ele>
	<time>2023-10-07T12:32:38.000Z</time>
</trkpt>
<trkpt lat="45.9190250" lon="9.5650360">
	<ele>1351.80</ele>
	<time>2023-10-07T12:32:39.000Z</time>
</trkpt>
<trkpt lat="45.9190140" lon="9.5650440">
	<ele>1351.60</ele>
	<time>2023-10-07T12:32:40.000Z</time>
</trkpt>
<trkpt lat="45.9190030" lon="9.5650480">
	<ele>1351.40</ele>
	<time>2023-10-07T12:32:41.000Z</time>
</trkpt>
<trkpt lat="45.9189930" lon="9.5650490">
	<ele>1351.20</ele>
	<time>2023-10-07T12:32:42.000Z</time>
</trkpt>
<trkpt lat="45.9189830" lon="9.5650520">
	<ele>1351.00</ele>
	<time>2023-10-07T12:32:43.000Z</time>
</trkpt>
<trkpt lat="45.9189720" lon="9.5650600">
	<ele>1351.00</ele>
	<time>2023-10-07T12:32:44.000Z</time>
</trkpt>
<trkpt lat="45.9189620" lon="9.5650720">
	<ele>1350.80</ele>
	<time>2023-10-07T12:32:45.000Z</time>
</trkpt>
<trkpt lat="45.9189540" lon="9.5650810">
	<ele>1350.60</ele>
	<time>2023-10-07T12:32:46.000Z</time>
</trkpt>
<trkpt lat="45.9189490" lon="9.5650920">
	<ele>1350.40</ele>
	<time>2023-10-07T12:32:47.000Z</time>
</trkpt>
<trkpt lat="45.9189430" lon="9.5651030">
	<ele>1350.20</ele>
	<time>2023-10-07T12:32:48.000Z</time>
</trkpt>
<trkpt lat="45.9189360" lon="9.5651190">
	<ele>1350.20</ele>
	<time>2023-10-07T12:32:49.000Z</time>
</trkpt>
<trkpt lat="45.9189270" lon="9.5651340">
	<ele>1350.20</ele>
	<time>2023-10-07T12:32:50.000Z</time>
</trkpt>
<trkpt lat="45.9189140" lon="9.5651450">
	<ele>1350.00</ele>
	<time>2023-10-07T12:32:51.000Z</time>
</trkpt>
<trkpt lat="45.9189040" lon="9.5651530">
	<ele>1349.80</ele>
	<time>2023-10-07T12:32:52.000Z</time>
</trkpt>
<trkpt lat="45.9188950" lon="9.5651620">
	<ele>1349.60</ele>
	<time>2023-10-07T12:32:53.000Z</time>
</trkpt>
<trkpt lat="45.9188870" lon="9.5651730">
	<ele>1349.40</ele>
	<time>2023-10-07T12:32:54.000Z</time>
</trkpt>
<trkpt lat="45.9188740" lon="9.5651900">
	<ele>1349.40</ele>
	<time>2023-10-07T12:32:55.000Z</time>
</trkpt>
<trkpt lat="45.9188640" lon="9.5652060">
	<ele>1349.20</ele>
	<time>2023-10-07T12:32:56.000Z</time>
</trkpt>
<trkpt lat="45.9188550" lon="9.5652220">
	<ele>1349.00</ele>
	<time>2023-10-07T12:32:57.000Z</time>
</trkpt>
<trkpt lat="45.9188500" lon="9.5652380">
	<ele>1348.80</ele>
	<time>2023-10-07T12:32:58.000Z</time>
</trkpt>
<trkpt lat="45.9188410" lon="9.5652540">
	<ele>1348.60</ele>
	<time>2023-10-07T12:32:59.000Z</time>
</trkpt>
<trkpt lat="45.9188290" lon="9.5652700">
	<ele>1348.20</ele>
	<time>2023-10-07T12:33:00.000Z</time>
</trkpt>
<trkpt lat="45.9188170" lon="9.5652810">
	<ele>1347.80</ele>
	<time>2023-10-07T12:33:01.000Z</time>
</trkpt>
<trkpt lat="45.9188020" lon="9.5652890">
	<ele>1347.60</ele>
	<time>2023-10-07T12:33:02.000Z</time>
</trkpt>
<trkpt lat="45.9187890" lon="9.5652990">
	<ele>1347.40</ele>
	<time>2023-10-07T12:33:03.000Z</time>
</trkpt>
<trkpt lat="45.9187790" lon="9.5653140">
	<ele>1347.20</ele>
	<time>2023-10-07T12:33:04.000Z</time>
</trkpt>
<trkpt lat="45.9187680" lon="9.5653270">
	<ele>1346.80</ele>
	<time>2023-10-07T12:33:05.000Z</time>
</trkpt>
<trkpt lat="45.9187560" lon="9.5653390">
	<ele>1346.60</ele>
	<time>2023-10-07T12:33:06.000Z</time>
</trkpt>
<trkpt lat="45.9187440" lon="9.5653500">
	<ele>1346.40</ele>
	<time>2023-10-07T12:33:07.000Z</time>
</trkpt>
<trkpt lat="45.9187320" lon="9.5653630">
	<ele>1346.00</ele>
	<time>2023-10-07T12:33:08.000Z</time>
</trkpt>
<trkpt lat="45.9187220" lon="9.5653790">
	<ele>1345.80</ele>
	<time>2023-10-07T12:33:09.000Z</time>
</trkpt>
<trkpt lat="45.9187090" lon="9.5653920">
	<ele>1345.60</ele>
	<time>2023-10-07T12:33:10.000Z</time>
</trkpt>
<trkpt lat="45.9186990" lon="9.5654040">
	<ele>1345.40</ele>
	<time>2023-10-07T12:33:11.000Z</time>
</trkpt>
<trkpt lat="45.9186870" lon="9.5654120">
	<ele>1345.20</ele>
	<time>2023-10-07T12:33:12.000Z</time>
</trkpt>
<trkpt lat="45.9186750" lon="9.5654310">
	<ele>1345.20</ele>
	<time>2023-10-07T12:33:13.000Z</time>
</trkpt>
<trkpt lat="45.9186630" lon="9.5654450">
	<ele>1345.20</ele>
	<time>2023-10-07T12:33:14.000Z</time>
</trkpt>
<trkpt lat="45.9186540" lon="9.5654590">
	<ele>1345.00</ele>
	<time>2023-10-07T12:33:15.000Z</time>
</trkpt>
<trkpt lat="45.9186470" lon="9.5654750">
	<ele>1345.00</ele>
	<time>2023-10-07T12:33:16.000Z</time>
</trkpt>
<trkpt lat="45.9186330" lon="9.5654930">
	<ele>1344.80</ele>
	<time>2023-10-07T12:33:17.000Z</time>
</trkpt>
<trkpt lat="45.9186180" lon="9.5654990">
	<ele>1344.80</ele>
	<time>2023-10-07T12:33:18.000Z</time>
</trkpt>
<trkpt lat="45.9186050" lon="9.5655040">
	<ele>1344.60</ele>
	<time>2023-10-07T12:33:19.000Z</time>
</trkpt>
<trkpt lat="45.9185950" lon="9.5655130">
	<ele>1344.60</ele>
	<time>2023-10-07T12:33:20.000Z</time>
</trkpt>
<trkpt lat="45.9185850" lon="9.5655240">
	<ele>1344.60</ele>
	<time>2023-10-07T12:33:21.000Z</time>
</trkpt>
<trkpt lat="45.9185740" lon="9.5655340">
	<ele>1344.40</ele>
	<time>2023-10-07T12:33:22.000Z</time>
</trkpt>
<trkpt lat="45.9185660" lon="9.5655450">
	<ele>1344.00</ele>
	<time>2023-10-07T12:33:23.000Z</time>
</trkpt>
<trkpt lat="45.9185600" lon="9.5655540">
	<ele>1343.60</ele>
	<time>2023-10-07T12:33:24.000Z</time>
</trkpt>
<trkpt lat="45.9185560" lon="9.5655670">
	<ele>1343.40</ele>
	<time>2023-10-07T12:33:25.000Z</time>
</trkpt>
<trkpt lat="45.9185520" lon="9.5655770">
	<ele>1343.40</ele>
	<time>2023-10-07T12:33:26.000Z</time>
</trkpt>
<trkpt lat="45.9185460" lon="9.5655870">
	<ele>1343.00</ele>
	<time>2023-10-07T12:33:27.000Z</time>
</trkpt>
<trkpt lat="45.9185410" lon="9.5656000">
	<ele>1342.60</ele>
	<time>2023-10-07T12:33:28.000Z</time>
</trkpt>
<trkpt lat="45.9185330" lon="9.5656120">
	<ele>1342.60</ele>
	<time>2023-10-07T12:33:29.000Z</time>
</trkpt>
<trkpt lat="45.9185250" lon="9.5656240">
	<ele>1342.20</ele>
	<time>2023-10-07T12:33:30.000Z</time>
</trkpt>
<trkpt lat="45.9185150" lon="9.5656390">
	<ele>1342.00</ele>
	<time>2023-10-07T12:33:31.000Z</time>
</trkpt>
<trkpt lat="45.9185040" lon="9.5656530">
	<ele>1341.80</ele>
	<time>2023-10-07T12:33:32.000Z</time>
</trkpt>
<trkpt lat="45.9184940" lon="9.5656650">
	<ele>1341.60</ele>
	<time>2023-10-07T12:33:33.000Z</time>
</trkpt>
<trkpt lat="45.9184870" lon="9.5656780">
	<ele>1341.40</ele>
	<time>2023-10-07T12:33:34.000Z</time>
</trkpt>
<trkpt lat="45.9184800" lon="9.5656980">
	<ele>1341.20</ele>
	<time>2023-10-07T12:33:35.000Z</time>
</trkpt>
<trkpt lat="45.9184740" lon="9.5657200">
	<ele>1341.20</ele>
	<time>2023-10-07T12:33:36.000Z</time>
</trkpt>
<trkpt lat="45.9184670" lon="9.5657340">
	<ele>1340.80</ele>
	<time>2023-10-07T12:33:37.000Z</time>
</trkpt>
<trkpt lat="45.9184560" lon="9.5657500">
	<ele>1340.60</ele>
	<time>2023-10-07T12:33:38.000Z</time>
</trkpt>
<trkpt lat="45.9184490" lon="9.5657620">
	<ele>1340.40</ele>
	<time>2023-10-07T12:33:39.000Z</time>
</trkpt>
<trkpt lat="45.9184400" lon="9.5657740">
	<ele>1340.20</ele>
	<time>2023-10-07T12:33:40.000Z</time>
</trkpt>
<trkpt lat="45.9184320" lon="9.5657890">
	<ele>1339.80</ele>
	<time>2023-10-07T12:33:41.000Z</time>
</trkpt>
<trkpt lat="45.9184230" lon="9.5658080">
	<ele>1339.60</ele>
	<time>2023-10-07T12:33:42.000Z</time>
</trkpt>
<trkpt lat="45.9184190" lon="9.5658230">
	<ele>1339.40</ele>
	<time>2023-10-07T12:33:43.000Z</time>
</trkpt>
<trkpt lat="45.9184110" lon="9.5658370">
	<ele>1339.20</ele>
	<time>2023-10-07T12:33:44.000Z</time>
</trkpt>
<trkpt lat="45.9184070" lon="9.5658460">
	<ele>1339.20</ele>
	<time>2023-10-07T12:33:45.000Z</time>
</trkpt>
<trkpt lat="45.9183990" lon="9.5658630">
	<ele>1338.80</ele>
	<time>2023-10-07T12:33:46.000Z</time>
</trkpt>
<trkpt lat="45.9183930" lon="9.5658760">
	<ele>1338.80</ele>
	<time>2023-10-07T12:33:47.000Z</time>
</trkpt>
<trkpt lat="45.9183860" lon="9.5658940">
	<ele>1338.40</ele>
	<time>2023-10-07T12:33:48.000Z</time>
</trkpt>
<trkpt lat="45.9183770" lon="9.5659080">
	<ele>1338.20</ele>
	<time>2023-10-07T12:33:49.000Z</time>
</trkpt>
<trkpt lat="45.9183740" lon="9.5659220">
	<ele>1338.00</ele>
	<time>2023-10-07T12:33:50.000Z</time>
</trkpt>
<trkpt lat="45.9183720" lon="9.5659340">
	<ele>1337.80</ele>
	<time>2023-10-07T12:33:51.000Z</time>
</trkpt>
<trkpt lat="45.9183660" lon="9.5659460">
	<ele>1337.80</ele>
	<time>2023-10-07T12:33:52.000Z</time>
</trkpt>
<trkpt lat="45.9183530" lon="9.5659510">
	<ele>1337.60</ele>
	<time>2023-10-07T12:33:53.000Z</time>
</trkpt>
<trkpt lat="45.9183380" lon="9.5659560">
	<ele>1337.40</ele>
	<time>2023-10-07T12:33:54.000Z</time>
</trkpt>
<trkpt lat="45.9183270" lon="9.5659620">
	<ele>1337.40</ele>
	<time>2023-10-07T12:33:55.000Z</time>
</trkpt>
<trkpt lat="45.9183190" lon="9.5659680">
	<ele>1337.20</ele>
	<time>2023-10-07T12:33:56.000Z</time>
</trkpt>
<trkpt lat="45.9183090" lon="9.5659780">
	<ele>1337.00</ele>
	<time>2023-10-07T12:33:57.000Z</time>
</trkpt>
<trkpt lat="45.9183020" lon="9.5659880">
	<ele>1336.60</ele>
	<time>2023-10-07T12:33:58.000Z</time>
</trkpt>
<trkpt lat="45.9182920" lon="9.5659980">
	<ele>1336.20</ele>
	<time>2023-10-07T12:33:59.000Z</time>
</trkpt>
<trkpt lat="45.9182810" lon="9.5660080">
	<ele>1336.00</ele>
	<time>2023-10-07T12:34:00.000Z</time>
</trkpt>
<trkpt lat="45.9182700" lon="9.5660230">
	<ele>1335.60</ele>
	<time>2023-10-07T12:34:01.000Z</time>
</trkpt>
<trkpt lat="45.9182630" lon="9.5660410">
	<ele>1335.40</ele>
	<time>2023-10-07T12:34:02.000Z</time>
</trkpt>
<trkpt lat="45.9182550" lon="9.5660620">
	<ele>1335.20</ele>
	<time>2023-10-07T12:34:03.000Z</time>
</trkpt>
<trkpt lat="45.9182480" lon="9.5660800">
	<ele>1335.00</ele>
	<time>2023-10-07T12:34:04.000Z</time>
</trkpt>
<trkpt lat="45.9182420" lon="9.5660970">
	<ele>1334.80</ele>
	<time>2023-10-07T12:34:05.000Z</time>
</trkpt>
<trkpt lat="45.9182320" lon="9.5661130">
	<ele>1334.80</ele>
	<time>2023-10-07T12:34:06.000Z</time>
</trkpt>
<trkpt lat="45.9182230" lon="9.5661250">
	<ele>1334.60</ele>
	<time>2023-10-07T12:34:07.000Z</time>
</trkpt>
<trkpt lat="45.9182100" lon="9.5661350">
	<ele>1334.20</ele>
	<time>2023-10-07T12:34:08.000Z</time>
</trkpt>
<trkpt lat="45.9181940" lon="9.5661450">
	<ele>1334.00</ele>
	<time>2023-10-07T12:34:09.000Z</time>
</trkpt>
<trkpt lat="45.9181800" lon="9.5661530">
	<ele>1333.80</ele>
	<time>2023-10-07T12:34:10.000Z</time>
</trkpt>
<trkpt lat="45.9181660" lon="9.5661630">
	<ele>1333.60</ele>
	<time>2023-10-07T12:34:11.000Z</time>
</trkpt>
<trkpt lat="45.9181510" lon="9.5661710">
	<ele>1333.60</ele>
	<time>2023-10-07T12:34:12.000Z</time>
</trkpt>
<trkpt lat="45.9181390" lon="9.5661860">
	<ele>1333.40</ele>
	<time>2023-10-07T12:34:13.000Z</time>
</trkpt>
<trkpt lat="45.9181260" lon="9.5662000">
	<ele>1333.40</ele>
	<time>2023-10-07T12:34:14.000Z</time>
</trkpt>
<trkpt lat="45.9181150" lon="9.5662160">
	<ele>1333.40</ele>
	<time>2023-10-07T12:34:15.000Z</time>
</trkpt>
<trkpt lat="45.9181060" lon="9.5662310">
	<ele>1333.20</ele>
	<time>2023-10-07T12:34:16.000Z</time>
</trkpt>
<trkpt lat="45.9180990" lon="9.5662440">
	<ele>1333.20</ele>
	<time>2023-10-07T12:34:17.000Z</time>
</trkpt>
<trkpt lat="45.9180900" lon="9.5662550">
	<ele>1333.20</ele>
	<time>2023-10-07T12:34:18.000Z</time>
</trkpt>
<trkpt lat="45.9180820" lon="9.5662650">
	<ele>1333.20</ele>
	<time>2023-10-07T12:34:19.000Z</time>
</trkpt>
<trkpt lat="45.9180710" lon="9.5662760">
	<ele>1333.20</ele>
	<time>2023-10-07T12:34:20.000Z</time>
</trkpt>
<trkpt lat="45.9180610" lon="9.5662840">
	<ele>1333.00</ele>
	<time>2023-10-07T12:34:21.000Z</time>
</trkpt>
<trkpt lat="45.9180520" lon="9.5662920">
	<ele>1333.00</ele>
	<time>2023-10-07T12:34:22.000Z</time>
</trkpt>
<trkpt lat="45.9180400" lon="9.5663050">
	<ele>1332.80</ele>
	<time>2023-10-07T12:34:23.000Z</time>
</trkpt>
<trkpt lat="45.9180280" lon="9.5663150">
	<ele>1332.80</ele>
	<time>2023-10-07T12:34:24.000Z</time>
</trkpt>
<trkpt lat="45.9180160" lon="9.5663270">
	<ele>1332.80</ele>
	<time>2023-10-07T12:34:25.000Z</time>
</trkpt>
<trkpt lat="45.9180090" lon="9.5663380">
	<ele>1332.80</ele>
	<time>2023-10-07T12:34:26.000Z</time>
</trkpt>
<trkpt lat="45.9179960" lon="9.5663470">
	<ele>1332.60</ele>
	<time>2023-10-07T12:34:27.000Z</time>
</trkpt>
<trkpt lat="45.9179840" lon="9.5663570">
	<ele>1332.60</ele>
	<time>2023-10-07T12:34:28.000Z</time>
</trkpt>
<trkpt lat="45.9179750" lon="9.5663700">
	<ele>1332.60</ele>
	<time>2023-10-07T12:34:29.000Z</time>
</trkpt>
<trkpt lat="45.9179650" lon="9.5663840">
	<ele>1332.60</ele>
	<time>2023-10-07T12:34:30.000Z</time>
</trkpt>
<trkpt lat="45.9179550" lon="9.5663980">
	<ele>1332.40</ele>
	<time>2023-10-07T12:34:31.000Z</time>
</trkpt>
<trkpt lat="45.9179450" lon="9.5664100">
	<ele>1332.20</ele>
	<time>2023-10-07T12:34:32.000Z</time>
</trkpt>
<trkpt lat="45.9179340" lon="9.5664180">
	<ele>1332.00</ele>
	<time>2023-10-07T12:34:33.000Z</time>
</trkpt>
<trkpt lat="45.9179240" lon="9.5664300">
	<ele>1331.80</ele>
	<time>2023-10-07T12:34:34.000Z</time>
</trkpt>
<trkpt lat="45.9179140" lon="9.5664450">
	<ele>1331.60</ele>
	<time>2023-10-07T12:34:35.000Z</time>
</trkpt>
<trkpt lat="45.9179030" lon="9.5664600">
	<ele>1331.40</ele>
	<time>2023-10-07T12:34:36.000Z</time>
</trkpt>
<trkpt lat="45.9178920" lon="9.5664740">
	<ele>1331.20</ele>
	<time>2023-10-07T12:34:37.000Z</time>
</trkpt>
<trkpt lat="45.9178790" lon="9.5664850">
	<ele>1331.20</ele>
	<time>2023-10-07T12:34:38.000Z</time>
</trkpt>
<trkpt lat="45.9178680" lon="9.5664970">
	<ele>1331.00</ele>
	<time>2023-10-07T12:34:39.000Z</time>
</trkpt>
<trkpt lat="45.9178620" lon="9.5665120">
	<ele>1331.00</ele>
	<time>2023-10-07T12:34:40.000Z</time>
</trkpt>
<trkpt lat="45.9178580" lon="9.5665290">
	<ele>1330.60</ele>
	<time>2023-10-07T12:34:41.000Z</time>
</trkpt>
<trkpt lat="45.9178530" lon="9.5665450">
	<ele>1330.40</ele>
	<time>2023-10-07T12:34:42.000Z</time>
</trkpt>
<trkpt lat="45.9178490" lon="9.5665610">
	<ele>1330.00</ele>
	<time>2023-10-07T12:34:43.000Z</time>
</trkpt>
<trkpt lat="45.9178430" lon="9.5665750">
	<ele>1330.00</ele>
	<time>2023-10-07T12:34:44.000Z</time>
</trkpt>
<trkpt lat="45.9178380" lon="9.5665890">
	<ele>1329.80</ele>
	<time>2023-10-07T12:34:45.000Z</time>
</trkpt>
<trkpt lat="45.9178310" lon="9.5666050">
	<ele>1329.60</ele>
	<time>2023-10-07T12:34:46.000Z</time>
</trkpt>
<trkpt lat="45.9178230" lon="9.5666170">
	<ele>1329.40</ele>
	<time>2023-10-07T12:34:47.000Z</time>
</trkpt>
<trkpt lat="45.9178170" lon="9.5666280">
	<ele>1329.20</ele>
	<time>2023-10-07T12:34:48.000Z</time>
</trkpt>
<trkpt lat="45.9178120" lon="9.5666390">
	<ele>1329.00</ele>
	<time>2023-10-07T12:34:49.000Z</time>
</trkpt>
<trkpt lat="45.9178070" lon="9.5666520">
	<ele>1328.80</ele>
	<time>2023-10-07T12:34:50.000Z</time>
</trkpt>
<trkpt lat="45.9178050" lon="9.5666610">
	<ele>1328.60</ele>
	<time>2023-10-07T12:34:51.000Z</time>
</trkpt>
<trkpt lat="45.9178040" lon="9.5666690">
	<ele>1328.40</ele>
	<time>2023-10-07T12:34:52.000Z</time>
</trkpt>
<trkpt lat="45.9178030" lon="9.5666800">
	<ele>1328.40</ele>
	<time>2023-10-07T12:34:53.000Z</time>
</trkpt>
<trkpt lat="45.9178020" lon="9.5666850">
	<ele>1328.20</ele>
	<time>2023-10-07T12:34:54.000Z</time>
</trkpt>
<trkpt lat="45.9178020" lon="9.5666930">
	<ele>1328.00</ele>
	<time>2023-10-07T12:34:55.000Z</time>
</trkpt>
<trkpt lat="45.9178030" lon="9.5667050">
	<ele>1328.00</ele>
	<time>2023-10-07T12:34:56.000Z</time>
</trkpt>
<trkpt lat="45.9178050" lon="9.5667190">
	<ele>1328.00</ele>
	<time>2023-10-07T12:34:57.000Z</time>
</trkpt>
<trkpt lat="45.9178080" lon="9.5667340">
	<ele>1327.80</ele>
	<time>2023-10-07T12:34:58.000Z</time>
</trkpt>
<trkpt lat="45.9178080" lon="9.5667480">
	<ele>1327.80</ele>
	<time>2023-10-07T12:34:59.000Z</time>
</trkpt>
<trkpt lat="45.9178040" lon="9.5667600">
	<ele>1327.80</ele>
	<time>2023-10-07T12:35:00.000Z</time>
</trkpt>
<trkpt lat="45.9177970" lon="9.5667690">
	<ele>1327.60</ele>
	<time>2023-10-07T12:35:01.000Z</time>
</trkpt>
<trkpt lat="45.9177860" lon="9.5667810">
	<ele>1327.40</ele>
	<time>2023-10-07T12:35:02.000Z</time>
</trkpt>
<trkpt lat="45.9177780" lon="9.5667980">
	<ele>1327.40</ele>
	<time>2023-10-07T12:35:03.000Z</time>
</trkpt>
<trkpt lat="45.9177730" lon="9.5668190">
	<ele>1327.20</ele>
	<time>2023-10-07T12:35:04.000Z</time>
</trkpt>
<trkpt lat="45.9177680" lon="9.5668370">
	<ele>1327.00</ele>
	<time>2023-10-07T12:35:05.000Z</time>
</trkpt>
<trkpt lat="45.9177610" lon="9.5668520">
	<ele>1326.80</ele>
	<time>2023-10-07T12:35:06.000Z</time>
</trkpt>
<trkpt lat="45.9177530" lon="9.5668600">
	<ele>1326.80</ele>
	<time>2023-10-07T12:35:07.000Z</time>
</trkpt>
<trkpt lat="45.9177410" lon="9.5668700">
	<ele>1326.60</ele>
	<time>2023-10-07T12:35:08.000Z</time>
</trkpt>
<trkpt lat="45.9177320" lon="9.5668790">
	<ele>1326.60</ele>
	<time>2023-10-07T12:35:09.000Z</time>
</trkpt>
<trkpt lat="45.9177240" lon="9.5668930">
	<ele>1326.60</ele>
	<time>2023-10-07T12:35:10.000Z</time>
</trkpt>
<trkpt lat="45.9177120" lon="9.5669040">
	<ele>1326.60</ele>
	<time>2023-10-07T12:35:11.000Z</time>
</trkpt>
<trkpt lat="45.9176990" lon="9.5669120">
	<ele>1326.60</ele>
	<time>2023-10-07T12:35:12.000Z</time>
</trkpt>
<trkpt lat="45.9176880" lon="9.5669210">
	<ele>1326.60</ele>
	<time>2023-10-07T12:35:13.000Z</time>
</trkpt>
<trkpt lat="45.9176780" lon="9.5669300">
	<ele>1326.60</ele>
	<time>2023-10-07T12:35:14.000Z</time>
</trkpt>
<trkpt lat="45.9176660" lon="9.5669390">
	<ele>1326.60</ele>
	<time>2023-10-07T12:35:15.000Z</time>
</trkpt>
<trkpt lat="45.9176540" lon="9.5669440">
	<ele>1326.60</ele>
	<time>2023-10-07T12:35:16.000Z</time>
</trkpt>
<trkpt lat="45.9176420" lon="9.5669530">
	<ele>1326.60</ele>
	<time>2023-10-07T12:35:17.000Z</time>
</trkpt>
<trkpt lat="45.9176260" lon="9.5669640">
	<ele>1326.60</ele>
	<time>2023-10-07T12:35:18.000Z</time>
</trkpt>
<trkpt lat="45.9176130" lon="9.5669760">
	<ele>1326.40</ele>
	<time>2023-10-07T12:35:19.000Z</time>
</trkpt>
<trkpt lat="45.9176050" lon="9.5669870">
	<ele>1326.40</ele>
	<time>2023-10-07T12:35:20.000Z</time>
</trkpt>
<trkpt lat="45.9175940" lon="9.5669970">
	<ele>1326.40</ele>
	<time>2023-10-07T12:35:21.000Z</time>
</trkpt>
<trkpt lat="45.9175820" lon="9.5670050">
	<ele>1326.40</ele>
	<time>2023-10-07T12:35:22.000Z</time>
</trkpt>
<trkpt lat="45.9175690" lon="9.5670080">
	<ele>1326.20</ele>
	<time>2023-10-07T12:35:23.000Z</time>
</trkpt>
<trkpt lat="45.9175570" lon="9.5670090">
	<ele>1326.20</ele>
	<time>2023-10-07T12:35:24.000Z</time>
</trkpt>
<trkpt lat="45.9175480" lon="9.5670070">
	<ele>1326.20</ele>
	<time>2023-10-07T12:35:25.000Z</time>
</trkpt>
<trkpt lat="45.9175380" lon="9.5670040">
	<ele>1326.00</ele>
	<time>2023-10-07T12:35:26.000Z</time>
</trkpt>
<trkpt lat="45.9175320" lon="9.5669990">
	<ele>1326.00</ele>
	<time>2023-10-07T12:35:27.000Z</time>
</trkpt>
<trkpt lat="45.9175240" lon="9.5669940">
	<ele>1326.00</ele>
	<time>2023-10-07T12:35:28.000Z</time>
</trkpt>
<trkpt lat="45.9175180" lon="9.5669860">
	<ele>1326.00</ele>
	<time>2023-10-07T12:35:29.000Z</time>
</trkpt>
<trkpt lat="45.9175070" lon="9.5669850">
	<ele>1326.20</ele>
	<time>2023-10-07T12:35:30.000Z</time>
</trkpt>
<trkpt lat="45.9174940" lon="9.5669840">
	<ele>1326.20</ele>
	<time>2023-10-07T12:35:31.000Z</time>
</trkpt>
<trkpt lat="45.9174850" lon="9.5669820">
	<ele>1326.20</ele>
	<time>2023-10-07T12:35:32.000Z</time>
</trkpt>
<trkpt lat="45.9174760" lon="9.5669790">
	<ele>1326.20</ele>
	<time>2023-10-07T12:35:33.000Z</time>
</trkpt>
<trkpt lat="45.9174680" lon="9.5669790">
	<ele>1326.20</ele>
	<time>2023-10-07T12:35:34.000Z</time>
</trkpt>
<trkpt lat="45.9174600" lon="9.5669760">
	<ele>1326.00</ele>
	<time>2023-10-07T12:35:35.000Z</time>
</trkpt>
<trkpt lat="45.9174480" lon="9.5669730">
	<ele>1326.00</ele>
	<time>2023-10-07T12:35:36.000Z</time>
</trkpt>
<trkpt lat="45.9174350" lon="9.5669720">
	<ele>1325.80</ele>
	<time>2023-10-07T12:35:37.000Z</time>
</trkpt>
<trkpt lat="45.9174230" lon="9.5669680">
	<ele>1325.60</ele>
	<time>2023-10-07T12:35:38.000Z</time>
</trkpt>
<trkpt lat="45.9174080" lon="9.5669680">
	<ele>1325.60</ele>
	<time>2023-10-07T12:35:39.000Z</time>
</trkpt>
<trkpt lat="45.9173960" lon="9.5669710">
	<ele>1325.60</ele>
	<time>2023-10-07T12:35:40.000Z</time>
</trkpt>
<trkpt lat="45.9173870" lon="9.5669730">
	<ele>1325.60</ele>
	<time>2023-10-07T12:35:41.000Z</time>
</trkpt>
<trkpt lat="45.9173760" lon="9.5669740">
	<ele>1325.60</ele>
	<time>2023-10-07T12:35:42.000Z</time>
</trkpt>
<trkpt lat="45.9173640" lon="9.5669800">
	<ele>1325.60</ele>
	<time>2023-10-07T12:35:43.000Z</time>
</trkpt>
<trkpt lat="45.9173520" lon="9.5669830">
	<ele>1325.80</ele>
	<time>2023-10-07T12:35:44.000Z</time>
</trkpt>
<trkpt lat="45.9173430" lon="9.5669910">
	<ele>1325.80</ele>
	<time>2023-10-07T12:35:45.000Z</time>
</trkpt>
<trkpt lat="45.9173300" lon="9.5670000">
	<ele>1326.00</ele>
	<time>2023-10-07T12:35:46.000Z</time>
</trkpt>
<trkpt lat="45.9173190" lon="9.5670030">
	<ele>1326.00</ele>
	<time>2023-10-07T12:35:47.000Z</time>
</trkpt>
<trkpt lat="45.9173060" lon="9.5670090">
	<ele>1325.80</ele>
	<time>2023-10-07T12:35:48.000Z</time>
</trkpt>
<trkpt lat="45.9172940" lon="9.5670240">
	<ele>1325.60</ele>
	<time>2023-10-07T12:35:49.000Z</time>
</trkpt>
<trkpt lat="45.9172860" lon="9.5670410">
	<ele>1325.20</ele>
	<time>2023-10-07T12:35:50.000Z</time>
</trkpt>
<trkpt lat="45.9172820" lon="9.5670590">
	<ele>1325.00</ele>
	<time>2023-10-07T12:35:51.000Z</time>
</trkpt>
<trkpt lat="45.9172810" lon="9.5670790">
	<ele>1325.00</ele>
	<time>2023-10-07T12:35:52.000Z</time>
</trkpt>
<trkpt lat="45.9172810" lon="9.5671020">
	<ele>1324.80</ele>
	<time>2023-10-07T12:35:53.000Z</time>
</trkpt>
<trkpt lat="45.9172770" lon="9.5671250">
	<ele>1324.80</ele>
	<time>2023-10-07T12:35:54.000Z</time>
</trkpt>
<trkpt lat="45.9172740" lon="9.5671470">
	<ele>1324.80</ele>
	<time>2023-10-07T12:35:55.000Z</time>
</trkpt>
<trkpt lat="45.9172690" lon="9.5671670">
	<ele>1324.80</ele>
	<time>2023-10-07T12:35:56.000Z</time>
</trkpt>
<trkpt lat="45.9172590" lon="9.5671840">
	<ele>1324.80</ele>
	<time>2023-10-07T12:35:57.000Z</time>
</trkpt>
<trkpt lat="45.9172540" lon="9.5671940">
	<ele>1324.80</ele>
	<time>2023-10-07T12:35:58.000Z</time>
</trkpt>
<trkpt lat="45.9172500" lon="9.5672060">
	<ele>1324.80</ele>
	<time>2023-10-07T12:35:59.000Z</time>
</trkpt>
<trkpt lat="45.9172420" lon="9.5672220">
	<ele>1325.00</ele>
	<time>2023-10-07T12:36:00.000Z</time>
</trkpt>
<trkpt lat="45.9172330" lon="9.5672360">
	<ele>1324.80</ele>
	<time>2023-10-07T12:36:01.000Z</time>
</trkpt>
<trkpt lat="45.9172320" lon="9.5672660">
	<ele>1324.80</ele>
	<time>2023-10-07T12:36:02.000Z</time>
</trkpt>
<trkpt lat="45.9172290" lon="9.5672910">
	<ele>1324.80</ele>
	<time>2023-10-07T12:36:03.000Z</time>
</trkpt>
<trkpt lat="45.9172310" lon="9.5673020">
	<ele>1324.80</ele>
	<time>2023-10-07T12:36:04.000Z</time>
</trkpt>
<trkpt lat="45.9172290" lon="9.5673170">
	<ele>1324.60</ele>
	<time>2023-10-07T12:36:05.000Z</time>
</trkpt>
<trkpt lat="45.9172210" lon="9.5673250">
	<ele>1324.60</ele>
	<time>2023-10-07T12:36:06.000Z</time>
</trkpt>
<trkpt lat="45.9172100" lon="9.5673360">
	<ele>1324.60</ele>
	<time>2023-10-07T12:36:07.000Z</time>
</trkpt>
<trkpt lat="45.9171920" lon="9.5673540">
	<ele>1324.80</ele>
	<time>2023-10-07T12:36:08.000Z</time>
</trkpt>
<trkpt lat="45.9171760" lon="9.5673670">
	<ele>1325.00</ele>
	<time>2023-10-07T12:36:09.000Z</time>
</trkpt>
<trkpt lat="45.9171650" lon="9.5673810">
	<ele>1325.00</ele>
	<time>2023-10-07T12:36:10.000Z</time>
</trkpt>
<trkpt lat="45.9171530" lon="9.5673970">
	<ele>1325.00</ele>
	<time>2023-10-07T12:36:11.000Z</time>
</trkpt>
<trkpt lat="45.9171470" lon="9.5674130">
	<ele>1324.80</ele>
	<time>2023-10-07T12:36:12.000Z</time>
</trkpt>
<trkpt lat="45.9171340" lon="9.5674310">
	<ele>1324.60</ele>
	<time>2023-10-07T12:36:13.000Z</time>
</trkpt>
<trkpt lat="45.9171290" lon="9.5674450">
	<ele>1324.40</ele>
	<time>2023-10-07T12:36:14.000Z</time>
</trkpt>
<trkpt lat="45.9171240" lon="9.5674610">
	<ele>1324.40</ele>
	<time>2023-10-07T12:36:15.000Z</time>
</trkpt>
<trkpt lat="45.9171180" lon="9.5674780">
	<ele>1324.20</ele>
	<time>2023-10-07T12:36:16.000Z</time>
</trkpt>
<trkpt lat="45.9171170" lon="9.5674950">
	<ele>1324.20</ele>
	<time>2023-10-07T12:36:17.000Z</time>
</trkpt>
<trkpt lat="45.9171160" lon="9.5675110">
	<ele>1324.20</ele>
	<time>2023-10-07T12:36:18.000Z</time>
</trkpt>
<trkpt lat="45.9171100" lon="9.5675290">
	<ele>1324.20</ele>
	<time>2023-10-07T12:36:19.000Z</time>
</trkpt>
<trkpt lat="45.9171070" lon="9.5675470">
	<ele>1324.20</ele>
	<time>2023-10-07T12:36:20.000Z</time>
</trkpt>
<trkpt lat="45.9171060" lon="9.5675670">
	<ele>1324.20</ele>
	<time>2023-10-07T12:36:21.000Z</time>
</trkpt>
<trkpt lat="45.9171040" lon="9.5675840">
	<ele>1324.00</ele>
	<time>2023-10-07T12:36:22.000Z</time>
</trkpt>
<trkpt lat="45.9170970" lon="9.5676000">
	<ele>1324.00</ele>
	<time>2023-10-07T12:36:23.000Z</time>
</trkpt>
<trkpt lat="45.9170900" lon="9.5676150">
	<ele>1324.00</ele>
	<time>2023-10-07T12:36:24.000Z</time>
</trkpt>
<trkpt lat="45.9170840" lon="9.5676310">
	<ele>1324.00</ele>
	<time>2023-10-07T12:36:25.000Z</time>
</trkpt>
<trkpt lat="45.9170830" lon="9.5676490">
	<ele>1324.00</ele>
	<time>2023-10-07T12:36:26.000Z</time>
</trkpt>
<trkpt lat="45.9170830" lon="9.5676680">
	<ele>1324.00</ele>
	<time>2023-10-07T12:36:27.000Z</time>
</trkpt>
<trkpt lat="45.9170840" lon="9.5676850">
	<ele>1324.00</ele>
	<time>2023-10-07T12:36:28.000Z</time>
</trkpt>
<trkpt lat="45.9170850" lon="9.5677020">
	<ele>1324.00</ele>
	<time>2023-10-07T12:36:29.000Z</time>
</trkpt>
<trkpt lat="45.9170860" lon="9.5677180">
	<ele>1324.00</ele>
	<time>2023-10-07T12:36:30.000Z</time>
</trkpt>
<trkpt lat="45.9170870" lon="9.5677310">
	<ele>1324.00</ele>
	<time>2023-10-07T12:36:31.000Z</time>
</trkpt>
<trkpt lat="45.9170910" lon="9.5677420">
	<ele>1324.00</ele>
	<time>2023-10-07T12:36:32.000Z</time>
</trkpt>
<trkpt lat="45.9170960" lon="9.5677520">
	<ele>1323.80</ele>
	<time>2023-10-07T12:36:33.000Z</time>
</trkpt>
<trkpt lat="45.9171030" lon="9.5677620">
	<ele>1323.80</ele>
	<time>2023-10-07T12:36:34.000Z</time>
</trkpt>
<trkpt lat="45.9171070" lon="9.5677730">
	<ele>1323.60</ele>
	<time>2023-10-07T12:36:35.000Z</time>
</trkpt>
<trkpt lat="45.9171100" lon="9.5677870">
	<ele>1323.60</ele>
	<time>2023-10-07T12:36:36.000Z</time>
</trkpt>
<trkpt lat="45.9171130" lon="9.5677980">
	<ele>1323.60</ele>
	<time>2023-10-07T12:36:37.000Z</time>
</trkpt>
<trkpt lat="45.9171170" lon="9.5678050">
	<ele>1323.40</ele>
	<time>2023-10-07T12:36:38.000Z</time>
</trkpt>
<trkpt lat="45.9171230" lon="9.5678130">
	<ele>1323.40</ele>
	<time>2023-10-07T12:36:39.000Z</time>
</trkpt>
<trkpt lat="45.9171260" lon="9.5678210">
	<ele>1323.20</ele>
	<time>2023-10-07T12:36:40.000Z</time>
</trkpt>
<trkpt lat="45.9171300" lon="9.5678260">
	<ele>1323.20</ele>
	<time>2023-10-07T12:36:41.000Z</time>
</trkpt>
<trkpt lat="45.9171370" lon="9.5678360">
	<ele>1323.00</ele>
	<time>2023-10-07T12:36:42.000Z</time>
</trkpt>
<trkpt lat="45.9171440" lon="9.5678480">
	<ele>1323.00</ele>
	<time>2023-10-07T12:36:43.000Z</time>
</trkpt>
<trkpt lat="45.9171450" lon="9.5678580">
	<ele>1322.60</ele>
	<time>2023-10-07T12:36:44.000Z</time>
</trkpt>
<trkpt lat="45.9171410" lon="9.5678700">
	<ele>1322.40</ele>
	<time>2023-10-07T12:36:45.000Z</time>
</trkpt>
<trkpt lat="45.9171350" lon="9.5678810">
	<ele>1322.00</ele>
	<time>2023-10-07T12:36:46.000Z</time>
</trkpt>
<trkpt lat="45.9171350" lon="9.5678900">
	<ele>1321.60</ele>
	<time>2023-10-07T12:36:47.000Z</time>
</trkpt>
<trkpt lat="45.9171360" lon="9.5678980">
	<ele>1321.40</ele>
	<time>2023-10-07T12:36:48.000Z</time>
</trkpt>
<trkpt lat="45.9171350" lon="9.5679130">
	<ele>1321.20</ele>
	<time>2023-10-07T12:36:49.000Z</time>
</trkpt>
<trkpt lat="45.9171340" lon="9.5679320">
	<ele>1321.20</ele>
	<time>2023-10-07T12:36:50.000Z</time>
</trkpt>
<trkpt lat="45.9171320" lon="9.5679470">
	<ele>1321.00</ele>
	<time>2023-10-07T12:36:51.000Z</time>
</trkpt>
<trkpt lat="45.9171320" lon="9.5679550">
	<ele>1320.80</ele>
	<time>2023-10-07T12:36:52.000Z</time>
</trkpt>
<trkpt lat="45.9171350" lon="9.5679710">
	<ele>1320.60</ele>
	<time>2023-10-07T12:36:53.000Z</time>
</trkpt>
<trkpt lat="45.9171430" lon="9.5679830">
	<ele>1320.60</ele>
	<time>2023-10-07T12:36:54.000Z</time>
</trkpt>
<trkpt lat="45.9171500" lon="9.5679930">
	<ele>1320.40</ele>
	<time>2023-10-07T12:36:55.000Z</time>
</trkpt>
<trkpt lat="45.9171570" lon="9.5680080">
	<ele>1320.20</ele>
	<time>2023-10-07T12:36:56.000Z</time>
</trkpt>
<trkpt lat="45.9171680" lon="9.5680190">
	<ele>1319.80</ele>
	<time>2023-10-07T12:36:57.000Z</time>
</trkpt>
<trkpt lat="45.9171790" lon="9.5680330">
	<ele>1319.60</ele>
	<time>2023-10-07T12:36:58.000Z</time>
</trkpt>
<trkpt lat="45.9171870" lon="9.5680470">
	<ele>1319.60</ele>
	<time>2023-10-07T12:36:59.000Z</time>
</trkpt>
<trkpt lat="45.9171940" lon="9.5680590">
	<ele>1319.40</ele>
	<time>2023-10-07T12:37:00.000Z</time>
</trkpt>
<trkpt lat="45.9171960" lon="9.5680780">
	<ele>1319.40</ele>
	<time>2023-10-07T12:37:01.000Z</time>
</trkpt>
<trkpt lat="45.9172020" lon="9.5680920">
	<ele>1319.00</ele>
	<time>2023-10-07T12:37:02.000Z</time>
</trkpt>
<trkpt lat="45.9172070" lon="9.5681140">
	<ele>1319.00</ele>
	<time>2023-10-07T12:37:03.000Z</time>
</trkpt>
<trkpt lat="45.9172110" lon="9.5681340">
	<ele>1318.80</ele>
	<time>2023-10-07T12:37:04.000Z</time>
</trkpt>
<trkpt lat="45.9172130" lon="9.5681530">
	<ele>1318.60</ele>
	<time>2023-10-07T12:37:05.000Z</time>
</trkpt>
<trkpt lat="45.9172150" lon="9.5681750">
	<ele>1318.60</ele>
	<time>2023-10-07T12:37:06.000Z</time>
</trkpt>
<trkpt lat="45.9172220" lon="9.5681890">
	<ele>1318.40</ele>
	<time>2023-10-07T12:37:07.000Z</time>
</trkpt>
<trkpt lat="45.9172280" lon="9.5682120">
	<ele>1318.20</ele>
	<time>2023-10-07T12:37:08.000Z</time>
</trkpt>
<trkpt lat="45.9172280" lon="9.5682260">
	<ele>1318.20</ele>
	<time>2023-10-07T12:37:09.000Z</time>
</trkpt>
<trkpt lat="45.9172270" lon="9.5682380">
	<ele>1318.00</ele>
	<time>2023-10-07T12:37:10.000Z</time>
</trkpt>
<trkpt lat="45.9172280" lon="9.5682490">
	<ele>1318.00</ele>
	<time>2023-10-07T12:37:11.000Z</time>
</trkpt>
<trkpt lat="45.9172310" lon="9.5682590">
	<ele>1317.80</ele>
	<time>2023-10-07T12:37:12.000Z</time>
</trkpt>
<trkpt lat="45.9172370" lon="9.5682700">
	<ele>1317.80</ele>
	<time>2023-10-07T12:37:13.000Z</time>
</trkpt>
<trkpt lat="45.9172400" lon="9.5682830">
	<ele>1317.80</ele>
	<time>2023-10-07T12:37:14.000Z</time>
</trkpt>
<trkpt lat="45.9172460" lon="9.5682940">
	<ele>1317.60</ele>
	<time>2023-10-07T12:37:15.000Z</time>
</trkpt>
<trkpt lat="45.9172510" lon="9.5683040">
	<ele>1317.60</ele>
	<time>2023-10-07T12:37:16.000Z</time>
</trkpt>
<trkpt lat="45.9172600" lon="9.5683120">
	<ele>1317.40</ele>
	<time>2023-10-07T12:37:17.000Z</time>
</trkpt>
<trkpt lat="45.9172660" lon="9.5683210">
	<ele>1317.20</ele>
	<time>2023-10-07T12:37:18.000Z</time>
</trkpt>
<trkpt lat="45.9172720" lon="9.5683250">
	<ele>1317.20</ele>
	<time>2023-10-07T12:37:19.000Z</time>
</trkpt>
<trkpt lat="45.9172710" lon="9.5683270">
	<ele>1317.00</ele>
	<time>2023-10-07T12:37:20.000Z</time>
</trkpt>
<trkpt lat="45.9172670" lon="9.5683290">
	<ele>1317.00</ele>
	<time>2023-10-07T12:37:21.000Z</time>
</trkpt>
<trkpt lat="45.9172740" lon="9.5683240">
	<ele>1317.00</ele>
	<time>2023-10-07T12:37:22.000Z</time>
</trkpt>
<trkpt lat="45.9172800" lon="9.5683210">
	<ele>1317.00</ele>
	<time>2023-10-07T12:37:23.000Z</time>
</trkpt>
<trkpt lat="45.9172830" lon="9.5683180">
	<ele>1317.00</ele>
	<time>2023-10-07T12:37:24.000Z</time>
</trkpt>
<trkpt lat="45.9172850" lon="9.5683150">
	<ele>1317.00</ele>
	<time>2023-10-07T12:37:25.000Z</time>
</trkpt>
<trkpt lat="45.9172880" lon="9.5683120">
	<ele>1317.00</ele>
	<time>2023-10-07T12:37:26.000Z</time>
</trkpt>
<trkpt lat="45.9172900" lon="9.5683100">
	<ele>1317.00</ele>
	<time>2023-10-07T12:37:27.000Z</time>
</trkpt>
<trkpt lat="45.9172960" lon="9.5683110">
	<ele>1317.00</ele>
	<time>2023-10-07T12:37:28.000Z</time>
</trkpt>
<trkpt lat="45.9173080" lon="9.5683070">
	<ele>1317.00</ele>
	<time>2023-10-07T12:37:29.000Z</time>
</trkpt>
<trkpt lat="45.9173200" lon="9.5682980">
	<ele>1317.00</ele>
	<time>2023-10-07T12:37:30.000Z</time>
</trkpt>
<trkpt lat="45.9173200" lon="9.5682930">
	<ele>1316.80</ele>
	<time>2023-10-07T12:37:31.000Z</time>
</trkpt>
<trkpt lat="45.9173240" lon="9.5682900">
	<ele>1316.80</ele>
	<time>2023-10-07T12:37:32.000Z</time>
</trkpt>
<trkpt lat="45.9173280" lon="9.5682890">
	<ele>1316.60</ele>
	<time>2023-10-07T12:37:33.000Z</time>
</trkpt>
<trkpt lat="45.9173290" lon="9.5682920">
	<ele>1316.60</ele>
	<time>2023-10-07T12:37:34.000Z</time>
</trkpt>
<trkpt lat="45.9173300" lon="9.5682960">
	<ele>1316.40</ele>
	<time>2023-10-07T12:37:35.000Z</time>
</trkpt>
<trkpt lat="45.9173280" lon="9.5683030">
	<ele>1316.40</ele>
	<time>2023-10-07T12:37:36.000Z</time>
</trkpt>
<trkpt lat="45.9173270" lon="9.5683110">
	<ele>1316.20</ele>
	<time>2023-10-07T12:37:37.000Z</time>
</trkpt>
<trkpt lat="45.9173300" lon="9.5683190">
	<ele>1316.20</ele>
	<time>2023-10-07T12:37:38.000Z</time>
</trkpt>
<trkpt lat="45.9173360" lon="9.5683260">
	<ele>1316.20</ele>
	<time>2023-10-07T12:37:39.000Z</time>
</trkpt>
<trkpt lat="45.9173400" lon="9.5683330">
	<ele>1316.20</ele>
	<time>2023-10-07T12:37:40.000Z</time>
</trkpt>
<trkpt lat="45.9173420" lon="9.5683400">
	<ele>1316.20</ele>
	<time>2023-10-07T12:37:41.000Z</time>
</trkpt>
<trkpt lat="45.9173420" lon="9.5683510">
	<ele>1316.00</ele>
	<time>2023-10-07T12:37:42.000Z</time>
</trkpt>
<trkpt lat="45.9173390" lon="9.5683580">
	<ele>1316.00</ele>
	<time>2023-10-07T12:37:43.000Z</time>
</trkpt>
<trkpt lat="45.9173390" lon="9.5683660">
	<ele>1316.00</ele>
	<time>2023-10-07T12:37:44.000Z</time>
</trkpt>
<trkpt lat="45.9173390" lon="9.5683750">
	<ele>1315.80</ele>
	<time>2023-10-07T12:37:45.000Z</time>
</trkpt>
<trkpt lat="45.9173410" lon="9.5683810">
	<ele>1315.40</ele>
	<time>2023-10-07T12:37:46.000Z</time>
</trkpt>
<trkpt lat="45.9173420" lon="9.5683890">
	<ele>1315.20</ele>
	<time>2023-10-07T12:37:47.000Z</time>
</trkpt>
<trkpt lat="45.9173420" lon="9.5684020">
	<ele>1315.00</ele>
	<time>2023-10-07T12:37:48.000Z</time>
</trkpt>
<trkpt lat="45.9173410" lon="9.5684160">
	<ele>1314.80</ele>
	<time>2023-10-07T12:37:49.000Z</time>
</trkpt>
<trkpt lat="45.9173440" lon="9.5684260">
	<ele>1314.60</ele>
	<time>2023-10-07T12:37:50.000Z</time>
</trkpt>
<trkpt lat="45.9173460" lon="9.5684350">
	<ele>1314.40</ele>
	<time>2023-10-07T12:37:51.000Z</time>
</trkpt>
<trkpt lat="45.9173470" lon="9.5684410">
	<ele>1314.20</ele>
	<time>2023-10-07T12:37:52.000Z</time>
</trkpt>
<trkpt lat="45.9173530" lon="9.5684460">
	<ele>1314.00</ele>
	<time>2023-10-07T12:37:53.000Z</time>
</trkpt>
<trkpt lat="45.9173590" lon="9.5684560">
	<ele>1313.60</ele>
	<time>2023-10-07T12:37:54.000Z</time>
</trkpt>
<trkpt lat="45.9173650" lon="9.5684650">
	<ele>1313.60</ele>
	<time>2023-10-07T12:37:55.000Z</time>
</trkpt>
<trkpt lat="45.9173670" lon="9.5684690">
	<ele>1313.20</ele>
	<time>2023-10-07T12:37:56.000Z</time>
</trkpt>
<trkpt lat="45.9173680" lon="9.5684740">
	<ele>1313.20</ele>
	<time>2023-10-07T12:37:57.000Z</time>
</trkpt>
<trkpt lat="45.9173670" lon="9.5684820">
	<ele>1313.00</ele>
	<time>2023-10-07T12:37:58.000Z</time>
</trkpt>
<trkpt lat="45.9173660" lon="9.5684920">
	<ele>1312.60</ele>
	<time>2023-10-07T12:37:59.000Z</time>
</trkpt>
<trkpt lat="45.9173670" lon="9.5685010">
	<ele>1312.40</ele>
	<time>2023-10-07T12:38:00.000Z</time>
</trkpt>
<trkpt lat="45.9173650" lon="9.5685140">
	<ele>1312.00</ele>
	<time>2023-10-07T12:38:01.000Z</time>
</trkpt>
<trkpt lat="45.9173660" lon="9.5685230">
	<ele>1311.80</ele>
	<time>2023-10-07T12:38:02.000Z</time>
</trkpt>
<trkpt lat="45.9173640" lon="9.5685330">
	<ele>1311.60</ele>
	<time>2023-10-07T12:38:03.000Z</time>
</trkpt>
<trkpt lat="45.9173640" lon="9.5685470">
	<ele>1311.40</ele>
	<time>2023-10-07T12:38:04.000Z</time>
</trkpt>
<trkpt lat="45.9173600" lon="9.5685580">
	<ele>1311.20</ele>
	<time>2023-10-07T12:38:05.000Z</time>
</trkpt>
<trkpt lat="45.9173580" lon="9.5685690">
	<ele>1311.00</ele>
	<time>2023-10-07T12:38:06.000Z</time>
</trkpt>
<trkpt lat="45.9173610" lon="9.5685850">
	<ele>1311.00</ele>
	<time>2023-10-07T12:38:07.000Z</time>
</trkpt>
<trkpt lat="45.9173640" lon="9.5685960">
	<ele>1310.80</ele>
	<time>2023-10-07T12:38:08.000Z</time>
</trkpt>
<trkpt lat="45.9173670" lon="9.5686140">
	<ele>1310.40</ele>
	<time>2023-10-07T12:38:09.000Z</time>
</trkpt>
<trkpt lat="45.9173720" lon="9.5686280">
	<ele>1310.20</ele>
	<time>2023-10-07T12:38:10.000Z</time>
</trkpt>
<trkpt lat="45.9173790" lon="9.5686400">
	<ele>1309.80</ele>
	<time>2023-10-07T12:38:11.000Z</time>
</trkpt>
<trkpt lat="45.9173840" lon="9.5686500">
	<ele>1309.40</ele>
	<time>2023-10-07T12:38:12.000Z</time>
</trkpt>
<trkpt lat="45.9173820" lon="9.5686700">
	<ele>1309.20</ele>
	<time>2023-10-07T12:38:13.000Z</time>
</trkpt>
<trkpt lat="45.9173790" lon="9.5686790">
	<ele>1309.00</ele>
	<time>2023-10-07T12:38:14.000Z</time>
</trkpt>
<trkpt lat="45.9173780" lon="9.5686900">
	<ele>1309.00</ele>
	<time>2023-10-07T12:38:15.000Z</time>
</trkpt>
<trkpt lat="45.9173770" lon="9.5687050">
	<ele>1308.80</ele>
	<time>2023-10-07T12:38:16.000Z</time>
</trkpt>
<trkpt lat="45.9173800" lon="9.5687180">
	<ele>1308.80</ele>
	<time>2023-10-07T12:38:17.000Z</time>
</trkpt>
<trkpt lat="45.9173790" lon="9.5687310">
	<ele>1308.60</ele>
	<time>2023-10-07T12:38:18.000Z</time>
</trkpt>
<trkpt lat="45.9173780" lon="9.5687400">
	<ele>1308.40</ele>
	<time>2023-10-07T12:38:19.000Z</time>
</trkpt>
<trkpt lat="45.9173720" lon="9.5687520">
	<ele>1308.00</ele>
	<time>2023-10-07T12:38:20.000Z</time>
</trkpt>
<trkpt lat="45.9173710" lon="9.5687620">
	<ele>1307.80</ele>
	<time>2023-10-07T12:38:21.000Z</time>
</trkpt>
<trkpt lat="45.9173710" lon="9.5687720">
	<ele>1307.60</ele>
	<time>2023-10-07T12:38:22.000Z</time>
</trkpt>
<trkpt lat="45.9173720" lon="9.5687810">
	<ele>1307.20</ele>
	<time>2023-10-07T12:38:23.000Z</time>
</trkpt>
<trkpt lat="45.9173750" lon="9.5687880">
	<ele>1307.00</ele>
	<time>2023-10-07T12:38:24.000Z</time>
</trkpt>
<trkpt lat="45.9173750" lon="9.5687970">
	<ele>1306.80</ele>
	<time>2023-10-07T12:38:25.000Z</time>
</trkpt>
<trkpt lat="45.9173730" lon="9.5688080">
	<ele>1306.60</ele>
	<time>2023-10-07T12:38:26.000Z</time>
</trkpt>
<trkpt lat="45.9173720" lon="9.5688200">
	<ele>1306.60</ele>
	<time>2023-10-07T12:38:27.000Z</time>
</trkpt>
<trkpt lat="45.9173760" lon="9.5688300">
	<ele>1306.40</ele>
	<time>2023-10-07T12:38:28.000Z</time>
</trkpt>
<trkpt lat="45.9173850" lon="9.5688400">
	<ele>1306.20</ele>
	<time>2023-10-07T12:38:29.000Z</time>
</trkpt>
<trkpt lat="45.9173870" lon="9.5688560">
	<ele>1306.00</ele>
	<time>2023-10-07T12:38:30.000Z</time>
</trkpt>
<trkpt lat="45.9173870" lon="9.5688630">
	<ele>1305.80</ele>
	<time>2023-10-07T12:38:31.000Z</time>
</trkpt>
<trkpt lat="45.9173820" lon="9.5688840">
	<ele>1305.40</ele>
	<time>2023-10-07T12:38:32.000Z</time>
</trkpt>
<trkpt lat="45.9173860" lon="9.5688960">
	<ele>1305.20</ele>
	<time>2023-10-07T12:38:33.000Z</time>
</trkpt>
<trkpt lat="45.9173930" lon="9.5689080">
	<ele>1305.20</ele>
	<time>2023-10-07T12:38:34.000Z</time>
</trkpt>
<trkpt lat="45.9173980" lon="9.5689170">
	<ele>1305.00</ele>
	<time>2023-10-07T12:38:35.000Z</time>
</trkpt>
<trkpt lat="45.9173990" lon="9.5689320">
	<ele>1304.60</ele>
	<time>2023-10-07T12:38:36.000Z</time>
</trkpt>
<trkpt lat="45.9173990" lon="9.5689480">
	<ele>1304.60</ele>
	<time>2023-10-07T12:38:37.000Z</time>
</trkpt>
<trkpt lat="45.9173990" lon="9.5689620">
	<ele>1304.40</ele>
	<time>2023-10-07T12:38:38.000Z</time>
</trkpt>
<trkpt lat="45.9173980" lon="9.5689740">
	<ele>1304.20</ele>
	<time>2023-10-07T12:38:39.000Z</time>
</trkpt>
<trkpt lat="45.9173980" lon="9.5689850">
	<ele>1304.00</ele>
	<time>2023-10-07T12:38:40.000Z</time>
</trkpt>
<trkpt lat="45.9173990" lon="9.5689940">
	<ele>1303.80</ele>
	<time>2023-10-07T12:38:41.000Z</time>
</trkpt>
<trkpt lat="45.9174040" lon="9.5690050">
	<ele>1303.40</ele>
	<time>2023-10-07T12:38:42.000Z</time>
</trkpt>
<trkpt lat="45.9174100" lon="9.5690110">
	<ele>1303.00</ele>
	<time>2023-10-07T12:38:43.000Z</time>
</trkpt>
<trkpt lat="45.9174240" lon="9.5690310">
	<ele>1302.80</ele>
	<time>2023-10-07T12:38:44.000Z</time>
</trkpt>
<trkpt lat="45.9174290" lon="9.5690450">
	<ele>1302.80</ele>
	<time>2023-10-07T12:38:45.000Z</time>
</trkpt>
<trkpt lat="45.9174320" lon="9.5690610">
	<ele>1302.60</ele>
	<time>2023-10-07T12:38:46.000Z</time>
</trkpt>
<trkpt lat="45.9174280" lon="9.5690780">
	<ele>1302.40</ele>
	<time>2023-10-07T12:38:47.000Z</time>
</trkpt>
<trkpt lat="45.9174260" lon="9.5690950">
	<ele>1302.40</ele>
	<time>2023-10-07T12:38:48.000Z</time>
</trkpt>
<trkpt lat="45.9174260" lon="9.5691090">
	<ele>1302.00</ele>
	<time>2023-10-07T12:38:49.000Z</time>
</trkpt>
<trkpt lat="45.9174330" lon="9.5691260">
	<ele>1302.00</ele>
	<time>2023-10-07T12:38:50.000Z</time>
</trkpt>
<trkpt lat="45.9174380" lon="9.5691360">
	<ele>1301.80</ele>
	<time>2023-10-07T12:38:51.000Z</time>
</trkpt>
<trkpt lat="45.9174400" lon="9.5691450">
	<ele>1301.60</ele>
	<time>2023-10-07T12:38:52.000Z</time>
</trkpt>
<trkpt lat="45.9174420" lon="9.5691590">
	<ele>1301.40</ele>
	<time>2023-10-07T12:38:53.000Z</time>
</trkpt>
<trkpt lat="45.9174510" lon="9.5691650">
	<ele>1301.20</ele>
	<time>2023-10-07T12:38:54.000Z</time>
</trkpt>
<trkpt lat="45.9174640" lon="9.5691740">
	<ele>1301.00</ele>
	<time>2023-10-07T12:38:55.000Z</time>
</trkpt>
<trkpt lat="45.9174720" lon="9.5691860">
	<ele>1300.80</ele>
	<time>2023-10-07T12:38:56.000Z</time>
</trkpt>
<trkpt lat="45.9174720" lon="9.5692010">
	<ele>1300.80</ele>
	<time>2023-10-07T12:38:57.000Z</time>
</trkpt>
<trkpt lat="45.9174710" lon="9.5692140">
	<ele>1300.60</ele>
	<time>2023-10-07T12:38:58.000Z</time>
</trkpt>
<trkpt lat="45.9174710" lon="9.5692280">
	<ele>1300.40</ele>
	<time>2023-10-07T12:38:59.000Z</time>
</trkpt>
<trkpt lat="45.9174750" lon="9.5692420">
	<ele>1300.20</ele>
	<time>2023-10-07T12:39:00.000Z</time>
</trkpt>
<trkpt lat="45.9174810" lon="9.5692540">
	<ele>1300.00</ele>
	<time>2023-10-07T12:39:01.000Z</time>
</trkpt>
<trkpt lat="45.9174870" lon="9.5692660">
	<ele>1299.80</ele>
	<time>2023-10-07T12:39:02.000Z</time>
</trkpt>
<trkpt lat="45.9174940" lon="9.5692810">
	<ele>1299.60</ele>
	<time>2023-10-07T12:39:03.000Z</time>
</trkpt>
<trkpt lat="45.9174980" lon="9.5692940">
	<ele>1299.40</ele>
	<time>2023-10-07T12:39:04.000Z</time>
</trkpt>
<trkpt lat="45.9175010" lon="9.5693140">
	<ele>1299.20</ele>
	<time>2023-10-07T12:39:05.000Z</time>
</trkpt>
<trkpt lat="45.9175060" lon="9.5693300">
	<ele>1298.80</ele>
	<time>2023-10-07T12:39:06.000Z</time>
</trkpt>
<trkpt lat="45.9175130" lon="9.5693460">
	<ele>1298.40</ele>
	<time>2023-10-07T12:39:07.000Z</time>
</trkpt>
<trkpt lat="45.9175210" lon="9.5693580">
	<ele>1298.40</ele>
	<time>2023-10-07T12:39:08.000Z</time>
</trkpt>
<trkpt lat="45.9175220" lon="9.5693700">
	<ele>1298.20</ele>
	<time>2023-10-07T12:39:09.000Z</time>
</trkpt>
<trkpt lat="45.9175210" lon="9.5693800">
	<ele>1298.00</ele>
	<time>2023-10-07T12:39:10.000Z</time>
</trkpt>
<trkpt lat="45.9175220" lon="9.5693930">
	<ele>1297.80</ele>
	<time>2023-10-07T12:39:11.000Z</time>
</trkpt>
<trkpt lat="45.9175270" lon="9.5694070">
	<ele>1297.60</ele>
	<time>2023-10-07T12:39:12.000Z</time>
</trkpt>
<trkpt lat="45.9175340" lon="9.5694170">
	<ele>1297.40</ele>
	<time>2023-10-07T12:39:13.000Z</time>
</trkpt>
<trkpt lat="45.9175420" lon="9.5694350">
	<ele>1297.20</ele>
	<time>2023-10-07T12:39:14.000Z</time>
</trkpt>
<trkpt lat="45.9175460" lon="9.5694520">
	<ele>1297.00</ele>
	<time>2023-10-07T12:39:15.000Z</time>
</trkpt>
<trkpt lat="45.9175440" lon="9.5694690">
	<ele>1297.00</ele>
	<time>2023-10-07T12:39:16.000Z</time>
</trkpt>
<trkpt lat="45.9175440" lon="9.5694820">
	<ele>1296.80</ele>
	<time>2023-10-07T12:39:17.000Z</time>
</trkpt>
<trkpt lat="45.9175430" lon="9.5694960">
	<ele>1296.40</ele>
	<time>2023-10-07T12:39:18.000Z</time>
</trkpt>
<trkpt lat="45.9175570" lon="9.5695050">
	<ele>1296.20</ele>
	<time>2023-10-07T12:39:19.000Z</time>
</trkpt>
<trkpt lat="45.9175660" lon="9.5695080">
	<ele>1296.00</ele>
	<time>2023-10-07T12:39:20.000Z</time>
</trkpt>
<trkpt lat="45.9175750" lon="9.5695120">
	<ele>1295.80</ele>
	<time>2023-10-07T12:39:21.000Z</time>
</trkpt>
<trkpt lat="45.9175790" lon="9.5695190">
	<ele>1295.80</ele>
	<time>2023-10-07T12:39:22.000Z</time>
</trkpt>
<trkpt lat="45.9175820" lon="9.5695320">
	<ele>1295.60</ele>
	<time>2023-10-07T12:39:23.000Z</time>
</trkpt>
<trkpt lat="45.9175790" lon="9.5695450">
	<ele>1295.40</ele>
	<time>2023-10-07T12:39:24.000Z</time>
</trkpt>
<trkpt lat="45.9175790" lon="9.5695510">
	<ele>1295.40</ele>
	<time>2023-10-07T12:39:25.000Z</time>
</trkpt>
<trkpt lat="45.9175830" lon="9.5695610">
	<ele>1295.20</ele>
	<time>2023-10-07T12:39:26.000Z</time>
</trkpt>
<trkpt lat="45.9175870" lon="9.5695710">
	<ele>1294.80</ele>
	<time>2023-10-07T12:39:27.000Z</time>
</trkpt>
<trkpt lat="45.9175900" lon="9.5695820">
	<ele>1294.60</ele>
	<time>2023-10-07T12:39:28.000Z</time>
</trkpt>
<trkpt lat="45.9175940" lon="9.5695930">
	<ele>1294.60</ele>
	<time>2023-10-07T12:39:29.000Z</time>
</trkpt>
<trkpt lat="45.9175990" lon="9.5696030">
	<ele>1294.20</ele>
	<time>2023-10-07T12:39:30.000Z</time>
</trkpt>
<trkpt lat="45.9176010" lon="9.5696120">
	<ele>1294.00</ele>
	<time>2023-10-07T12:39:31.000Z</time>
</trkpt>
<trkpt lat="45.9176060" lon="9.5696210">
	<ele>1293.80</ele>
	<time>2023-10-07T12:39:32.000Z</time>
</trkpt>
<trkpt lat="45.9176090" lon="9.5696330">
	<ele>1293.80</ele>
	<time>2023-10-07T12:39:33.000Z</time>
</trkpt>
<trkpt lat="45.9176110" lon="9.5696480">
	<ele>1293.60</ele>
	<time>2023-10-07T12:39:34.000Z</time>
</trkpt>
<trkpt lat="45.9176120" lon="9.5696630">
	<ele>1293.40</ele>
	<time>2023-10-07T12:39:35.000Z</time>
</trkpt>
<trkpt lat="45.9176160" lon="9.5696740">
	<ele>1293.20</ele>
	<time>2023-10-07T12:39:36.000Z</time>
</trkpt>
<trkpt lat="45.9176160" lon="9.5696920">
	<ele>1292.80</ele>
	<time>2023-10-07T12:39:37.000Z</time>
</trkpt>
<trkpt lat="45.9176150" lon="9.5697080">
	<ele>1292.80</ele>
	<time>2023-10-07T12:39:38.000Z</time>
</trkpt>
<trkpt lat="45.9176170" lon="9.5697200">
	<ele>1292.40</ele>
	<time>2023-10-07T12:39:39.000Z</time>
</trkpt>
<trkpt lat="45.9176220" lon="9.5697320">
	<ele>1292.00</ele>
	<time>2023-10-07T12:39:40.000Z</time>
</trkpt>
<trkpt lat="45.9176240" lon="9.5697450">
	<ele>1291.80</ele>
	<time>2023-10-07T12:39:41.000Z</time>
</trkpt>
<trkpt lat="45.9176260" lon="9.5697600">
	<ele>1291.60</ele>
	<time>2023-10-07T12:39:42.000Z</time>
</trkpt>
<trkpt lat="45.9176270" lon="9.5697720">
	<ele>1291.40</ele>
	<time>2023-10-07T12:39:43.000Z</time>
</trkpt>
<trkpt lat="45.9176300" lon="9.5697850">
	<ele>1291.20</ele>
	<time>2023-10-07T12:39:44.000Z</time>
</trkpt>
<trkpt lat="45.9176320" lon="9.5697970">
	<ele>1291.00</ele>
	<time>2023-10-07T12:39:45.000Z</time>
</trkpt>
<trkpt lat="45.9176390" lon="9.5698070">
	<ele>1290.60</ele>
	<time>2023-10-07T12:39:46.000Z</time>
</trkpt>
<trkpt lat="45.9176480" lon="9.5698170">
	<ele>1290.40</ele>
	<time>2023-10-07T12:39:47.000Z</time>
</trkpt>
<trkpt lat="45.9176550" lon="9.5698270">
	<ele>1290.20</ele>
	<time>2023-10-07T12:39:48.000Z</time>
</trkpt>
<trkpt lat="45.9176570" lon="9.5698410">
	<ele>1290.20</ele>
	<time>2023-10-07T12:39:49.000Z</time>
</trkpt>
<trkpt lat="45.9176610" lon="9.5698500">
	<ele>1290.00</ele>
	<time>2023-10-07T12:39:50.000Z</time>
</trkpt>
<trkpt lat="45.9176670" lon="9.5698560">
	<ele>1289.80</ele>
	<time>2023-10-07T12:39:51.000Z</time>
</trkpt>
<trkpt lat="45.9176690" lon="9.5698680">
	<ele>1289.60</ele>
	<time>2023-10-07T12:39:52.000Z</time>
</trkpt>
<trkpt lat="45.9176690" lon="9.5698820">
	<ele>1289.20</ele>
	<time>2023-10-07T12:39:53.000Z</time>
</trkpt>
<trkpt lat="45.9176710" lon="9.5698960">
	<ele>1289.00</ele>
	<time>2023-10-07T12:39:54.000Z</time>
</trkpt>
<trkpt lat="45.9176720" lon="9.5699160">
	<ele>1288.60</ele>
	<time>2023-10-07T12:39:55.000Z</time>
</trkpt>
<trkpt lat="45.9176760" lon="9.5699340">
	<ele>1288.60</ele>
	<time>2023-10-07T12:39:56.000Z</time>
</trkpt>
<trkpt lat="45.9176790" lon="9.5699530">
	<ele>1288.20</ele>
	<time>2023-10-07T12:39:57.000Z</time>
</trkpt>
<trkpt lat="45.9176780" lon="9.5699670">
	<ele>1288.20</ele>
	<time>2023-10-07T12:39:58.000Z</time>
</trkpt>
<trkpt lat="45.9176790" lon="9.5699800">
	<ele>1287.80</ele>
	<time>2023-10-07T12:39:59.000Z</time>
</trkpt>
<trkpt lat="45.9176800" lon="9.5699910">
	<ele>1287.60</ele>
	<time>2023-10-07T12:40:00.000Z</time>
</trkpt>
<trkpt lat="45.9176810" lon="9.5700030">
	<ele>1287.40</ele>
	<time>2023-10-07T12:40:01.000Z</time>
</trkpt>
<trkpt lat="45.9176800" lon="9.5700180">
	<ele>1287.20</ele>
	<time>2023-10-07T12:40:02.000Z</time>
</trkpt>
<trkpt lat="45.9176850" lon="9.5700310">
	<ele>1287.00</ele>
	<time>2023-10-07T12:40:03.000Z</time>
</trkpt>
<trkpt lat="45.9176890" lon="9.5700460">
	<ele>1286.60</ele>
	<time>2023-10-07T12:40:04.000Z</time>
</trkpt>
<trkpt lat="45.9176900" lon="9.5700620">
	<ele>1286.40</ele>
	<time>2023-10-07T12:40:05.000Z</time>
</trkpt>
<trkpt lat="45.9176940" lon="9.5700780">
	<ele>1286.20</ele>
	<time>2023-10-07T12:40:06.000Z</time>
</trkpt>
<trkpt lat="45.9177010" lon="9.5700920">
	<ele>1286.00</ele>
	<time>2023-10-07T12:40:07.000Z</time>
</trkpt>
<trkpt lat="45.9176990" lon="9.5701070">
	<ele>1285.80</ele>
	<time>2023-10-07T12:40:08.000Z</time>
</trkpt>
<trkpt lat="45.9176980" lon="9.5701220">
	<ele>1285.60</ele>
	<time>2023-10-07T12:40:09.000Z</time>
</trkpt>
<trkpt lat="45.9176980" lon="9.5701360">
	<ele>1285.20</ele>
	<time>2023-10-07T12:40:10.000Z</time>
</trkpt>
<trkpt lat="45.9176940" lon="9.5701500">
	<ele>1285.00</ele>
	<time>2023-10-07T12:40:11.000Z</time>
</trkpt>
<trkpt lat="45.9176910" lon="9.5701640">
	<ele>1284.80</ele>
	<time>2023-10-07T12:40:12.000Z</time>
</trkpt>
<trkpt lat="45.9176870" lon="9.5701800">
	<ele>1284.80</ele>
	<time>2023-10-07T12:40:13.000Z</time>
</trkpt>
<trkpt lat="45.9176840" lon="9.5701920">
	<ele>1284.60</ele>
	<time>2023-10-07T12:40:14.000Z</time>
</trkpt>
<trkpt lat="45.9176840" lon="9.5702020">
	<ele>1284.40</ele>
	<time>2023-10-07T12:40:15.000Z</time>
</trkpt>
<trkpt lat="45.9176850" lon="9.5702090">
	<ele>1284.20</ele>
	<time>2023-10-07T12:40:16.000Z</time>
</trkpt>
<trkpt lat="45.9176880" lon="9.5702200">
	<ele>1283.80</ele>
	<time>2023-10-07T12:40:17.000Z</time>
</trkpt>
<trkpt lat="45.9176920" lon="9.5702350">
	<ele>1283.60</ele>
	<time>2023-10-07T12:40:18.000Z</time>
</trkpt>
<trkpt lat="45.9176860" lon="9.5702580">
	<ele>1283.40</ele>
	<time>2023-10-07T12:40:19.000Z</time>
</trkpt>
<trkpt lat="45.9176850" lon="9.5702780">
	<ele>1283.20</ele>
	<time>2023-10-07T12:40:20.000Z</time>
</trkpt>
<trkpt lat="45.9176860" lon="9.5702940">
	<ele>1283.00</ele>
	<time>2023-10-07T12:40:21.000Z</time>
</trkpt>
<trkpt lat="45.9176880" lon="9.5703080">
	<ele>1283.00</ele>
	<time>2023-10-07T12:40:22.000Z</time>
</trkpt>
<trkpt lat="45.9176890" lon="9.5703220">
	<ele>1282.60</ele>
	<time>2023-10-07T12:40:23.000Z</time>
</trkpt>
<trkpt lat="45.9176830" lon="9.5703410">
	<ele>1282.40</ele>
	<time>2023-10-07T12:40:24.000Z</time>
</trkpt>
<trkpt lat="45.9176840" lon="9.5703510">
	<ele>1282.40</ele>
	<time>2023-10-07T12:40:25.000Z</time>
</trkpt>
<trkpt lat="45.9176870" lon="9.5703620">
	<ele>1282.20</ele>
	<time>2023-10-07T12:40:26.000Z</time>
</trkpt>
<trkpt lat="45.9176880" lon="9.5703740">
	<ele>1282.00</ele>
	<time>2023-10-07T12:40:27.000Z</time>
</trkpt>
<trkpt lat="45.9176870" lon="9.5703880">
	<ele>1281.80</ele>
	<time>2023-10-07T12:40:28.000Z</time>
</trkpt>
<trkpt lat="45.9176910" lon="9.5704010">
	<ele>1281.60</ele>
	<time>2023-10-07T12:40:29.000Z</time>
</trkpt>
<trkpt lat="45.9176950" lon="9.5704120">
	<ele>1281.60</ele>
	<time>2023-10-07T12:40:30.000Z</time>
</trkpt>
<trkpt lat="45.9176980" lon="9.5704230">
	<ele>1281.20</ele>
	<time>2023-10-07T12:40:31.000Z</time>
</trkpt>
<trkpt lat="45.9177000" lon="9.5704360">
	<ele>1281.00</ele>
	<time>2023-10-07T12:40:32.000Z</time>
</trkpt>
<trkpt lat="45.9177030" lon="9.5704470">
	<ele>1280.80</ele>
	<time>2023-10-07T12:40:33.000Z</time>
</trkpt>
<trkpt lat="45.9177040" lon="9.5704570">
	<ele>1280.60</ele>
	<time>2023-10-07T12:40:34.000Z</time>
</trkpt>
<trkpt lat="45.9177020" lon="9.5704730">
	<ele>1280.20</ele>
	<time>2023-10-07T12:40:35.000Z</time>
</trkpt>
<trkpt lat="45.9177020" lon="9.5704890">
	<ele>1280.00</ele>
	<time>2023-10-07T12:40:36.000Z</time>
</trkpt>
<trkpt lat="45.9176980" lon="9.5705050">
	<ele>1280.00</ele>
	<time>2023-10-07T12:40:37.000Z</time>
</trkpt>
<trkpt lat="45.9177000" lon="9.5705170">
	<ele>1279.80</ele>
	<time>2023-10-07T12:40:38.000Z</time>
</trkpt>
<trkpt lat="45.9177040" lon="9.5705310">
	<ele>1279.60</ele>
	<time>2023-10-07T12:40:39.000Z</time>
</trkpt>
<trkpt lat="45.9177090" lon="9.5705470">
	<ele>1279.40</ele>
	<time>2023-10-07T12:40:40.000Z</time>
</trkpt>
<trkpt lat="45.9177080" lon="9.5705660">
	<ele>1279.20</ele>
	<time>2023-10-07T12:40:41.000Z</time>
</trkpt>
<trkpt lat="45.9177150" lon="9.5705790">
	<ele>1279.20</ele>
	<time>2023-10-07T12:40:42.000Z</time>
</trkpt>
<trkpt lat="45.9177170" lon="9.5705930">
	<ele>1278.80</ele>
	<time>2023-10-07T12:40:43.000Z</time>
</trkpt>
<trkpt lat="45.9177170" lon="9.5706090">
	<ele>1278.60</ele>
	<time>2023-10-07T12:40:44.000Z</time>
</trkpt>
<trkpt lat="45.9177170" lon="9.5706250">
	<ele>1278.60</ele>
	<time>2023-10-07T12:40:45.000Z</time>
</trkpt>
<trkpt lat="45.9177190" lon="9.5706420">
	<ele>1278.40</ele>
	<time>2023-10-07T12:40:46.000Z</time>
</trkpt>
<trkpt lat="45.9177230" lon="9.5706570">
	<ele>1278.20</ele>
	<time>2023-10-07T12:40:47.000Z</time>
</trkpt>
<trkpt lat="45.9177230" lon="9.5706720">
	<ele>1278.00</ele>
	<time>2023-10-07T12:40:48.000Z</time>
</trkpt>
<trkpt lat="45.9177270" lon="9.5706850">
	<ele>1277.80</ele>
	<time>2023-10-07T12:40:49.000Z</time>
</trkpt>
<trkpt lat="45.9177300" lon="9.5706960">
	<ele>1277.60</ele>
	<time>2023-10-07T12:40:50.000Z</time>
</trkpt>
<trkpt lat="45.9177320" lon="9.5707080">
	<ele>1277.40</ele>
	<time>2023-10-07T12:40:51.000Z</time>
</trkpt>
<trkpt lat="45.9177400" lon="9.5707190">
	<ele>1277.40</ele>
	<time>2023-10-07T12:40:52.000Z</time>
</trkpt>
<trkpt lat="45.9177490" lon="9.5707260">
	<ele>1277.20</ele>
	<time>2023-10-07T12:40:53.000Z</time>
</trkpt>
<trkpt lat="45.9177560" lon="9.5707360">
	<ele>1277.20</ele>
	<time>2023-10-07T12:40:54.000Z</time>
</trkpt>
<trkpt lat="45.9177560" lon="9.5707520">
	<ele>1277.00</ele>
	<time>2023-10-07T12:40:55.000Z</time>
</trkpt>
<trkpt lat="45.9177590" lon="9.5707720">
	<ele>1276.80</ele>
	<time>2023-10-07T12:40:56.000Z</time>
</trkpt>
<trkpt lat="45.9177590" lon="9.5707940">
	<ele>1276.60</ele>
	<time>2023-10-07T12:40:57.000Z</time>
</trkpt>
<trkpt lat="45.9177560" lon="9.5708170">
	<ele>1276.60</ele>
	<time>2023-10-07T12:40:58.000Z</time>
</trkpt>
<trkpt lat="45.9177560" lon="9.5708370">
	<ele>1276.40</ele>
	<time>2023-10-07T12:40:59.000Z</time>
</trkpt>
<trkpt lat="45.9177590" lon="9.5708520">
	<ele>1276.20</ele>
	<time>2023-10-07T12:41:00.000Z</time>
</trkpt>
<trkpt lat="45.9177590" lon="9.5708720">
	<ele>1276.00</ele>
	<time>2023-10-07T12:41:01.000Z</time>
</trkpt>
<trkpt lat="45.9177620" lon="9.5708860">
	<ele>1275.80</ele>
	<time>2023-10-07T12:41:02.000Z</time>
</trkpt>
<trkpt lat="45.9177650" lon="9.5709000">
	<ele>1275.60</ele>
	<time>2023-10-07T12:41:03.000Z</time>
</trkpt>
<trkpt lat="45.9177700" lon="9.5709120">
	<ele>1275.60</ele>
	<time>2023-10-07T12:41:04.000Z</time>
</trkpt>
<trkpt lat="45.9177780" lon="9.5709250">
	<ele>1275.40</ele>
	<time>2023-10-07T12:41:05.000Z</time>
</trkpt>
<trkpt lat="45.9177870" lon="9.5709360">
	<ele>1275.40</ele>
	<time>2023-10-07T12:41:06.000Z</time>
</trkpt>
<trkpt lat="45.9177960" lon="9.5709450">
	<ele>1275.20</ele>
	<time>2023-10-07T12:41:07.000Z</time>
</trkpt>
<trkpt lat="45.9177990" lon="9.5709590">
	<ele>1275.00</ele>
	<time>2023-10-07T12:41:08.000Z</time>
</trkpt>
<trkpt lat="45.9178000" lon="9.5709760">
	<ele>1274.80</ele>
	<time>2023-10-07T12:41:09.000Z</time>
</trkpt>
<trkpt lat="45.9177990" lon="9.5709920">
	<ele>1274.80</ele>
	<time>2023-10-07T12:41:10.000Z</time>
</trkpt>
<trkpt lat="45.9177940" lon="9.5710080">
	<ele>1274.60</ele>
	<time>2023-10-07T12:41:11.000Z</time>
</trkpt>
<trkpt lat="45.9177880" lon="9.5710260">
	<ele>1274.60</ele>
	<time>2023-10-07T12:41:12.000Z</time>
</trkpt>
<trkpt lat="45.9177870" lon="9.5710430">
	<ele>1274.40</ele>
	<time>2023-10-07T12:41:13.000Z</time>
</trkpt>
<trkpt lat="45.9177840" lon="9.5710630">
	<ele>1274.20</ele>
	<time>2023-10-07T12:41:14.000Z</time>
</trkpt>
<trkpt lat="45.9177910" lon="9.5710790">
	<ele>1274.20</ele>
	<time>2023-10-07T12:41:15.000Z</time>
</trkpt>
<trkpt lat="45.9177950" lon="9.5710960">
	<ele>1274.20</ele>
	<time>2023-10-07T12:41:16.000Z</time>
</trkpt>
<trkpt lat="45.9177950" lon="9.5711140">
	<ele>1274.00</ele>
	<time>2023-10-07T12:41:17.000Z</time>
</trkpt>
<trkpt lat="45.9177960" lon="9.5711320">
	<ele>1273.80</ele>
	<time>2023-10-07T12:41:18.000Z</time>
</trkpt>
<trkpt lat="45.9177980" lon="9.5711460">
	<ele>1273.60</ele>
	<time>2023-10-07T12:41:19.000Z</time>
</trkpt>
<trkpt lat="45.9177990" lon="9.5711610">
	<ele>1273.40</ele>
	<time>2023-10-07T12:41:20.000Z</time>
</trkpt>
<trkpt lat="45.9178040" lon="9.5711750">
	<ele>1273.20</ele>
	<time>2023-10-07T12:41:21.000Z</time>
</trkpt>
<trkpt lat="45.9178090" lon="9.5711880">
	<ele>1273.00</ele>
	<time>2023-10-07T12:41:22.000Z</time>
</trkpt>
<trkpt lat="45.9178150" lon="9.5712000">
	<ele>1273.00</ele>
	<time>2023-10-07T12:41:23.000Z</time>
</trkpt>
<trkpt lat="45.9178250" lon="9.5712130">
	<ele>1272.80</ele>
	<time>2023-10-07T12:41:24.000Z</time>
</trkpt>
<trkpt lat="45.9178280" lon="9.5712300">
	<ele>1272.80</ele>
	<time>2023-10-07T12:41:25.000Z</time>
</trkpt>
<trkpt lat="45.9178280" lon="9.5712490">
	<ele>1272.60</ele>
	<time>2023-10-07T12:41:26.000Z</time>
</trkpt>
<trkpt lat="45.9178330" lon="9.5712620">
	<ele>1272.40</ele>
	<time>2023-10-07T12:41:27.000Z</time>
</trkpt>
<trkpt lat="45.9178340" lon="9.5712750">
	<ele>1272.40</ele>
	<time>2023-10-07T12:41:28.000Z</time>
</trkpt>
<trkpt lat="45.9178360" lon="9.5712890">
	<ele>1272.20</ele>
	<time>2023-10-07T12:41:29.000Z</time>
</trkpt>
<trkpt lat="45.9178400" lon="9.5713030">
	<ele>1272.00</ele>
	<time>2023-10-07T12:41:30.000Z</time>
</trkpt>
<trkpt lat="45.9178410" lon="9.5713200">
	<ele>1271.80</ele>
	<time>2023-10-07T12:41:31.000Z</time>
</trkpt>
<trkpt lat="45.9178410" lon="9.5713350">
	<ele>1271.80</ele>
	<time>2023-10-07T12:41:32.000Z</time>
</trkpt>
<trkpt lat="45.9178430" lon="9.5713510">
	<ele>1271.60</ele>
	<time>2023-10-07T12:41:33.000Z</time>
</trkpt>
<trkpt lat="45.9178450" lon="9.5713670">
	<ele>1271.40</ele>
	<time>2023-10-07T12:41:34.000Z</time>
</trkpt>
<trkpt lat="45.9178480" lon="9.5713820">
	<ele>1271.20</ele>
	<time>2023-10-07T12:41:35.000Z</time>
</trkpt>
<trkpt lat="45.9178520" lon="9.5713970">
	<ele>1271.00</ele>
	<time>2023-10-07T12:41:36.000Z</time>
</trkpt>
<trkpt lat="45.9178550" lon="9.5714150">
	<ele>1271.00</ele>
	<time>2023-10-07T12:41:37.000Z</time>
</trkpt>
<trkpt lat="45.9178580" lon="9.5714320">
	<ele>1270.80</ele>
	<time>2023-10-07T12:41:38.000Z</time>
</trkpt>
<trkpt lat="45.9178610" lon="9.5714480">
	<ele>1270.60</ele>
	<time>2023-10-07T12:41:39.000Z</time>
</trkpt>
<trkpt lat="45.9178650" lon="9.5714610">
	<ele>1270.40</ele>
	<time>2023-10-07T12:41:40.000Z</time>
</trkpt>
<trkpt lat="45.9178640" lon="9.5714760">
	<ele>1270.20</ele>
	<time>2023-10-07T12:41:41.000Z</time>
</trkpt>
<trkpt lat="45.9178590" lon="9.5714920">
	<ele>1270.20</ele>
	<time>2023-10-07T12:41:42.000Z</time>
</trkpt>
<trkpt lat="45.9178590" lon="9.5715070">
	<ele>1270.20</ele>
	<time>2023-10-07T12:41:43.000Z</time>
</trkpt>
<trkpt lat="45.9178590" lon="9.5715230">
	<ele>1270.00</ele>
	<time>2023-10-07T12:41:44.000Z</time>
</trkpt>
<trkpt lat="45.9178590" lon="9.5715350">
	<ele>1270.00</ele>
	<time>2023-10-07T12:41:45.000Z</time>
</trkpt>
<trkpt lat="45.9178590" lon="9.5715410">
	<ele>1269.80</ele>
	<time>2023-10-07T12:41:46.000Z</time>
</trkpt>
<trkpt lat="45.9178610" lon="9.5715440">
	<ele>1269.80</ele>
	<time>2023-10-07T12:41:47.000Z</time>
</trkpt>
<trkpt lat="45.9178610" lon="9.5715550">
	<ele>1269.80</ele>
	<time>2023-10-07T12:41:48.000Z</time>
</trkpt>
<trkpt lat="45.9178640" lon="9.5715660">
	<ele>1269.60</ele>
	<time>2023-10-07T12:41:49.000Z</time>
</trkpt>
<trkpt lat="45.9178650" lon="9.5715780">
	<ele>1269.60</ele>
	<time>2023-10-07T12:41:50.000Z</time>
</trkpt>
<trkpt lat="45.9178620" lon="9.5715930">
	<ele>1269.60</ele>
	<time>2023-10-07T12:41:51.000Z</time>
</trkpt>
<trkpt lat="45.9178590" lon="9.5716110">
	<ele>1269.40</ele>
	<time>2023-10-07T12:41:52.000Z</time>
</trkpt>
<trkpt lat="45.9178600" lon="9.5716280">
	<ele>1269.40</ele>
	<time>2023-10-07T12:41:53.000Z</time>
</trkpt>
<trkpt lat="45.9178660" lon="9.5716430">
	<ele>1269.40</ele>
	<time>2023-10-07T12:41:54.000Z</time>
</trkpt>
<trkpt lat="45.9178720" lon="9.5716590">
	<ele>1269.20</ele>
	<time>2023-10-07T12:41:55.000Z</time>
</trkpt>
<trkpt lat="45.9178730" lon="9.5716790">
	<ele>1269.00</ele>
	<time>2023-10-07T12:41:56.000Z</time>
</trkpt>
<trkpt lat="45.9178760" lon="9.5716970">
	<ele>1268.80</ele>
	<time>2023-10-07T12:41:57.000Z</time>
</trkpt>
<trkpt lat="45.9178800" lon="9.5717150">
	<ele>1268.80</ele>
	<time>2023-10-07T12:41:58.000Z</time>
</trkpt>
<trkpt lat="45.9178850" lon="9.5717340">
	<ele>1268.60</ele>
	<time>2023-10-07T12:41:59.000Z</time>
</trkpt>
<trkpt lat="45.9178900" lon="9.5717510">
	<ele>1268.60</ele>
	<time>2023-10-07T12:42:00.000Z</time>
</trkpt>
<trkpt lat="45.9178890" lon="9.5717670">
	<ele>1268.40</ele>
	<time>2023-10-07T12:42:01.000Z</time>
</trkpt>
<trkpt lat="45.9178870" lon="9.5717850">
	<ele>1268.40</ele>
	<time>2023-10-07T12:42:02.000Z</time>
</trkpt>
<trkpt lat="45.9178860" lon="9.5718040">
	<ele>1268.40</ele>
	<time>2023-10-07T12:42:03.000Z</time>
</trkpt>
<trkpt lat="45.9178920" lon="9.5718220">
	<ele>1268.20</ele>
	<time>2023-10-07T12:42:04.000Z</time>
</trkpt>
<trkpt lat="45.9178910" lon="9.5718430">
	<ele>1268.00</ele>
	<time>2023-10-07T12:42:05.000Z</time>
</trkpt>
<trkpt lat="45.9178910" lon="9.5718630">
	<ele>1268.00</ele>
	<time>2023-10-07T12:42:06.000Z</time>
</trkpt>
<trkpt lat="45.9178890" lon="9.5718810">
	<ele>1268.00</ele>
	<time>2023-10-07T12:42:07.000Z</time>
</trkpt>
<trkpt lat="45.9179010" lon="9.5718960">
	<ele>1267.80</ele>
	<time>2023-10-07T12:42:08.000Z</time>
</trkpt>
<trkpt lat="45.9179080" lon="9.5719150">
	<ele>1267.80</ele>
	<time>2023-10-07T12:42:09.000Z</time>
</trkpt>
<trkpt lat="45.9179180" lon="9.5719320">
	<ele>1267.80</ele>
	<time>2023-10-07T12:42:10.000Z</time>
</trkpt>
<trkpt lat="45.9179190" lon="9.5719480">
	<ele>1267.60</ele>
	<time>2023-10-07T12:42:11.000Z</time>
</trkpt>
<trkpt lat="45.9179240" lon="9.5719670">
	<ele>1267.60</ele>
	<time>2023-10-07T12:42:12.000Z</time>
</trkpt>
<trkpt lat="45.9179200" lon="9.5719880">
	<ele>1267.60</ele>
	<time>2023-10-07T12:42:13.000Z</time>
</trkpt>
<trkpt lat="45.9179210" lon="9.5720090">
	<ele>1267.40</ele>
	<time>2023-10-07T12:42:14.000Z</time>
</trkpt>
<trkpt lat="45.9179190" lon="9.5720290">
	<ele>1267.40</ele>
	<time>2023-10-07T12:42:15.000Z</time>
</trkpt>
<trkpt lat="45.9179120" lon="9.5720460">
	<ele>1267.40</ele>
	<time>2023-10-07T12:42:16.000Z</time>
</trkpt>
<trkpt lat="45.9179100" lon="9.5720600">
	<ele>1267.40</ele>
	<time>2023-10-07T12:42:17.000Z</time>
</trkpt>
<trkpt lat="45.9179110" lon="9.5720760">
	<ele>1267.40</ele>
	<time>2023-10-07T12:42:18.000Z</time>
</trkpt>
<trkpt lat="45.9179120" lon="9.5720930">
	<ele>1267.20</ele>
	<time>2023-10-07T12:42:19.000Z</time>
</trkpt>
<trkpt lat="45.9179140" lon="9.5721110">
	<ele>1267.20</ele>
	<time>2023-10-07T12:42:20.000Z</time>
</trkpt>
<trkpt lat="45.9179170" lon="9.5721290">
	<ele>1267.00</ele>
	<time>2023-10-07T12:42:21.000Z</time>
</trkpt>
<trkpt lat="45.9179180" lon="9.5721480">
	<ele>1267.00</ele>
	<time>2023-10-07T12:42:22.000Z</time>
</trkpt>
<trkpt lat="45.9179200" lon="9.5721640">
	<ele>1267.00</ele>
	<time>2023-10-07T12:42:23.000Z</time>
</trkpt>
<trkpt lat="45.9179260" lon="9.5721780">
	<ele>1266.80</ele>
	<time>2023-10-07T12:42:24.000Z</time>
</trkpt>
<trkpt lat="45.9179370" lon="9.5721890">
	<ele>1266.80</ele>
	<time>2023-10-07T12:42:25.000Z</time>
</trkpt>
<trkpt lat="45.9179430" lon="9.5721940">
	<ele>1266.60</ele>
	<time>2023-10-07T12:42:26.000Z</time>
</trkpt>
<trkpt lat="45.9179430" lon="9.5722000">
	<ele>1266.40</ele>
	<time>2023-10-07T12:42:27.000Z</time>
</trkpt>
<trkpt lat="45.9179440" lon="9.5722040">
	<ele>1266.40</ele>
	<time>2023-10-07T12:42:28.000Z</time>
</trkpt>
<trkpt lat="45.9179460" lon="9.5722060">
	<ele>1266.40</ele>
	<time>2023-10-07T12:42:29.000Z</time>
</trkpt>
<trkpt lat="45.9179460" lon="9.5722060">
	<ele>1266.40</ele>
	<time>2023-10-07T12:42:30.000Z</time>
</trkpt>
<trkpt lat="45.9179430" lon="9.5722080">
	<ele>1266.40</ele>
	<time>2023-10-07T12:42:31.000Z</time>
</trkpt>
<trkpt lat="45.9179410" lon="9.5722110">
	<ele>1266.60</ele>
	<time>2023-10-07T12:42:32.000Z</time>
</trkpt>
<trkpt lat="45.9179390" lon="9.5722120">
	<ele>1266.60</ele>
	<time>2023-10-07T12:42:33.000Z</time>
</trkpt>
<trkpt lat="45.9179450" lon="9.5722160">
	<ele>1266.60</ele>
	<time>2023-10-07T12:42:34.000Z</time>
</trkpt>
<trkpt lat="45.9179450" lon="9.5722200">
	<ele>1266.80</ele>
	<time>2023-10-07T12:42:35.000Z</time>
</trkpt>
<trkpt lat="45.9179460" lon="9.5722230">
	<ele>1266.80</ele>
	<time>2023-10-07T12:42:36.000Z</time>
</trkpt>
<trkpt lat="45.9179450" lon="9.5722250">
	<ele>1266.80</ele>
	<time>2023-10-07T12:42:37.000Z</time>
</trkpt>
<trkpt lat="45.9179440" lon="9.5722270">
	<ele>1266.80</ele>
	<time>2023-10-07T12:42:38.000Z</time>
</trkpt>
<trkpt lat="45.9179430" lon="9.5722270">
	<ele>1266.80</ele>
	<time>2023-10-07T12:42:39.000Z</time>
</trkpt>
<trkpt lat="45.9179420" lon="9.5722270">
	<ele>1266.80</ele>
	<time>2023-10-07T12:42:40.000Z</time>
</trkpt>
<trkpt lat="45.9179390" lon="9.5722270">
	<ele>1266.40</ele>
	<time>2023-10-07T12:42:41.000Z</time>
</trkpt>
<trkpt lat="45.9179400" lon="9.5722280">
	<ele>1266.20</ele>
	<time>2023-10-07T12:42:42.000Z</time>
</trkpt>
<trkpt lat="45.9179400" lon="9.5722280">
	<ele>1266.20</ele>
	<time>2023-10-07T12:42:43.000Z</time>
</trkpt>
<trkpt lat="45.9179400" lon="9.5722280">
	<ele>1266.00</ele>
	<time>2023-10-07T12:42:44.000Z</time>
</trkpt>
<trkpt lat="45.9179400" lon="9.5722280">
	<ele>1266.00</ele>
	<time>2023-10-07T12:42:45.000Z</time>
</trkpt>
<trkpt lat="45.9179400" lon="9.5722280">
	<ele>1266.00</ele>
	<time>2023-10-07T12:42:46.000Z</time>
</trkpt>
<trkpt lat="45.9179400" lon="9.5722280">
	<ele>1266.00</ele>
	<time>2023-10-07T12:42:47.000Z</time>
</trkpt>
<trkpt lat="45.9179400" lon="9.5722280">
	<ele>1265.80</ele>
	<time>2023-10-07T12:42:48.000Z</time>
</trkpt>
<trkpt lat="45.9179400" lon="9.5722280">
	<ele>1265.80</ele>
	<time>2023-10-07T12:42:49.000Z</time>
</trkpt>
<trkpt lat="45.9179400" lon="9.5722270">
	<ele>1265.80</ele>
	<time>2023-10-07T12:42:50.000Z</time>
</trkpt>
<trkpt lat="45.9179400" lon="9.5722270">
	<ele>1265.80</ele>
	<time>2023-10-07T12:42:51.000Z</time>
</trkpt>
<trkpt lat="45.9179400" lon="9.5722270">
	<ele>1265.80</ele>
	<time>2023-10-07T12:42:52.000Z</time>
</trkpt>
<trkpt lat="45.9179400" lon="9.5722270">
	<ele>1265.80</ele>
	<time>2023-10-07T12:42:53.000Z</time>
</trkpt>
<trkpt lat="45.9179400" lon="9.5722270">
	<ele>1265.80</ele>
	<time>2023-10-07T12:42:54.000Z</time>
</trkpt>
<trkpt lat="45.9179400" lon="9.5722270">
	<ele>1265.80</ele>
	<time>2023-10-07T12:42:55.000Z</time>
</trkpt>
<trkpt lat="45.9179400" lon="9.5722270">
	<ele>1266.00</ele>
	<time>2023-10-07T12:42:56.000Z</time>
</trkpt>
<trkpt lat="45.9179400" lon="9.5722270">
	<ele>1265.80</ele>
	<time>2023-10-07T12:42:57.000Z</time>
</trkpt>
<trkpt lat="45.9179390" lon="9.5722270">
	<ele>1265.80</ele>
	<time>2023-10-07T12:42:58.000Z</time>
</trkpt>
<trkpt lat="45.9179390" lon="9.5722270">
	<ele>1265.80</ele>
	<time>2023-10-07T12:42:59.000Z</time>
</trkpt>
<trkpt lat="45.9179390" lon="9.5722270">
	<ele>1265.80</ele>
	<time>2023-10-07T12:43:00.000Z</time>
</trkpt>
<trkpt lat="45.9179390" lon="9.5722270">
	<ele>1265.80</ele>
	<time>2023-10-07T12:43:01.000Z</time>
</trkpt>
<trkpt lat="45.9179390" lon="9.5722270">
	<ele>1265.80</ele>
	<time>2023-10-07T12:43:02.000Z</time>
</trkpt>
<trkpt lat="45.9179390" lon="9.5722270">
	<ele>1265.60</ele>
	<time>2023-10-07T12:43:03.000Z</time>
</trkpt>
<trkpt lat="45.9179390" lon="9.5722340">
	<ele>1265.60</ele>
	<time>2023-10-07T12:43:04.000Z</time>
</trkpt>
<trkpt lat="45.9179390" lon="9.5722550">
	<ele>1265.40</ele>
	<time>2023-10-07T12:43:05.000Z</time>
</trkpt>
<trkpt lat="45.9179400" lon="9.5722700">
	<ele>1265.20</ele>
	<time>2023-10-07T12:43:06.000Z</time>
</trkpt>
<trkpt lat="45.9179430" lon="9.5722840">
	<ele>1265.00</ele>
	<time>2023-10-07T12:43:07.000Z</time>
</trkpt>
<trkpt lat="45.9179480" lon="9.5723040">
	<ele>1264.80</ele>
	<time>2023-10-07T12:43:08.000Z</time>
</trkpt>
<trkpt lat="45.9179550" lon="9.5723280">
	<ele>1264.80</ele>
	<time>2023-10-07T12:43:09.000Z</time>
</trkpt>
<trkpt lat="45.9179630" lon="9.5723440">
	<ele>1264.60</ele>
	<time>2023-10-07T12:43:10.000Z</time>
</trkpt>
<trkpt lat="45.9179620" lon="9.5723650">
	<ele>1264.40</ele>
	<time>2023-10-07T12:43:11.000Z</time>
</trkpt>
<trkpt lat="45.9179620" lon="9.5723850">
	<ele>1264.20</ele>
	<time>2023-10-07T12:43:12.000Z</time>
</trkpt>
<trkpt lat="45.9179650" lon="9.5724060">
	<ele>1264.00</ele>
	<time>2023-10-07T12:43:13.000Z</time>
</trkpt>
<trkpt lat="45.9179630" lon="9.5724260">
	<ele>1263.80</ele>
	<time>2023-10-07T12:43:14.000Z</time>
</trkpt>
<trkpt lat="45.9179580" lon="9.5724420">
	<ele>1263.80</ele>
	<time>2023-10-07T12:43:15.000Z</time>
</trkpt>
<trkpt lat="45.9179590" lon="9.5724540">
	<ele>1263.80</ele>
	<time>2023-10-07T12:43:16.000Z</time>
</trkpt>
<trkpt lat="45.9179670" lon="9.5724690">
	<ele>1263.40</ele>
	<time>2023-10-07T12:43:17.000Z</time>
</trkpt>
<trkpt lat="45.9179740" lon="9.5724820">
	<ele>1263.20</ele>
	<time>2023-10-07T12:43:18.000Z</time>
</trkpt>
<trkpt lat="45.9179790" lon="9.5724980">
	<ele>1263.00</ele>
	<time>2023-10-07T12:43:19.000Z</time>
</trkpt>
<trkpt lat="45.9179840" lon="9.5725140">
	<ele>1263.00</ele>
	<time>2023-10-07T12:43:20.000Z</time>
</trkpt>
<trkpt lat="45.9179900" lon="9.5725290">
	<ele>1262.80</ele>
	<time>2023-10-07T12:43:21.000Z</time>
</trkpt>
<trkpt lat="45.9179980" lon="9.5725460">
	<ele>1262.80</ele>
	<time>2023-10-07T12:43:22.000Z</time>
</trkpt>
<trkpt lat="45.9180000" lon="9.5725580">
	<ele>1262.60</ele>
	<time>2023-10-07T12:43:23.000Z</time>
</trkpt>
<trkpt lat="45.9180000" lon="9.5725740">
	<ele>1262.40</ele>
	<time>2023-10-07T12:43:24.000Z</time>
</trkpt>
<trkpt lat="45.9180000" lon="9.5725890">
	<ele>1262.20</ele>
	<time>2023-10-07T12:43:25.000Z</time>
</trkpt>
<trkpt lat="45.9180050" lon="9.5726050">
	<ele>1262.20</ele>
	<time>2023-10-07T12:43:26.000Z</time>
</trkpt>
<trkpt lat="45.9180090" lon="9.5726220">
	<ele>1262.00</ele>
	<time>2023-10-07T12:43:27.000Z</time>
</trkpt>
<trkpt lat="45.9180140" lon="9.5726410">
	<ele>1261.80</ele>
	<time>2023-10-07T12:43:28.000Z</time>
</trkpt>
<trkpt lat="45.9180200" lon="9.5726580">
	<ele>1261.80</ele>
	<time>2023-10-07T12:43:29.000Z</time>
</trkpt>
<trkpt lat="45.9180270" lon="9.5726770">
	<ele>1261.80</ele>
	<time>2023-10-07T12:43:30.000Z</time>
</trkpt>
<trkpt lat="45.9180290" lon="9.5726900">
	<ele>1261.80</ele>
	<time>2023-10-07T12:43:31.000Z</time>
</trkpt>
<trkpt lat="45.9180310" lon="9.5727080">
	<ele>1261.80</ele>
	<time>2023-10-07T12:43:32.000Z</time>
</trkpt>
<trkpt lat="45.9180390" lon="9.5727220">
	<ele>1261.80</ele>
	<time>2023-10-07T12:43:33.000Z</time>
</trkpt>
<trkpt lat="45.9180510" lon="9.5727330">
	<ele>1262.00</ele>
	<time>2023-10-07T12:43:34.000Z</time>
</trkpt>
<trkpt lat="45.9180600" lon="9.5727450">
	<ele>1261.80</ele>
	<time>2023-10-07T12:43:35.000Z</time>
</trkpt>
<trkpt lat="45.9180670" lon="9.5727590">
	<ele>1261.80</ele>
	<time>2023-10-07T12:43:36.000Z</time>
</trkpt>
<trkpt lat="45.9180650" lon="9.5727760">
	<ele>1261.80</ele>
	<time>2023-10-07T12:43:37.000Z</time>
</trkpt>
<trkpt lat="45.9180590" lon="9.5727870">
	<ele>1261.60</ele>
	<time>2023-10-07T12:43:38.000Z</time>
</trkpt>
<trkpt lat="45.9180560" lon="9.5728000">
	<ele>1261.40</ele>
	<time>2023-10-07T12:43:39.000Z</time>
</trkpt>
<trkpt lat="45.9180560" lon="9.5728120">
	<ele>1261.40</ele>
	<time>2023-10-07T12:43:40.000Z</time>
</trkpt>
<trkpt lat="45.9180600" lon="9.5728230">
	<ele>1261.20</ele>
	<time>2023-10-07T12:43:41.000Z</time>
</trkpt>
<trkpt lat="45.9180580" lon="9.5728380">
	<ele>1261.00</ele>
	<time>2023-10-07T12:43:42.000Z</time>
</trkpt>
<trkpt lat="45.9180640" lon="9.5728470">
	<ele>1261.00</ele>
	<time>2023-10-07T12:43:43.000Z</time>
</trkpt>
<trkpt lat="45.9180710" lon="9.5728550">
	<ele>1261.00</ele>
	<time>2023-10-07T12:43:44.000Z</time>
</trkpt>
<trkpt lat="45.9180760" lon="9.5728590">
	<ele>1261.00</ele>
	<time>2023-10-07T12:43:45.000Z</time>
</trkpt>
<trkpt lat="45.9180780" lon="9.5728630">
	<ele>1261.00</ele>
	<time>2023-10-07T12:43:46.000Z</time>
</trkpt>
<trkpt lat="45.9180760" lon="9.5728720">
	<ele>1261.00</ele>
	<time>2023-10-07T12:43:47.000Z</time>
</trkpt>
<trkpt lat="45.9180780" lon="9.5728840">
	<ele>1261.00</ele>
	<time>2023-10-07T12:43:48.000Z</time>
</trkpt>
<trkpt lat="45.9180810" lon="9.5728910">
	<ele>1261.00</ele>
	<time>2023-10-07T12:43:49.000Z</time>
</trkpt>
<trkpt lat="45.9180860" lon="9.5728960">
	<ele>1260.80</ele>
	<time>2023-10-07T12:43:50.000Z</time>
</trkpt>
<trkpt lat="45.9180890" lon="9.5728980">
	<ele>1260.80</ele>
	<time>2023-10-07T12:43:51.000Z</time>
</trkpt>
<trkpt lat="45.9180900" lon="9.5729010">
	<ele>1260.80</ele>
	<time>2023-10-07T12:43:52.000Z</time>
</trkpt>
<trkpt lat="45.9180940" lon="9.5729080">
	<ele>1260.60</ele>
	<time>2023-10-07T12:43:53.000Z</time>
</trkpt>
<trkpt lat="45.9180950" lon="9.5729230">
	<ele>1260.60</ele>
	<time>2023-10-07T12:43:54.000Z</time>
</trkpt>
<trkpt lat="45.9180920" lon="9.5729390">
	<ele>1260.60</ele>
	<time>2023-10-07T12:43:55.000Z</time>
</trkpt>
<trkpt lat="45.9180900" lon="9.5729550">
	<ele>1260.60</ele>
	<time>2023-10-07T12:43:56.000Z</time>
</trkpt>
<trkpt lat="45.9180880" lon="9.5729690">
	<ele>1260.40</ele>
	<time>2023-10-07T12:43:57.000Z</time>
</trkpt>
<trkpt lat="45.9180850" lon="9.5729790">
	<ele>1260.20</ele>
	<time>2023-10-07T12:43:58.000Z</time>
</trkpt>
<trkpt lat="45.9180790" lon="9.5729890">
	<ele>1260.00</ele>
	<time>2023-10-07T12:43:59.000Z</time>
</trkpt>
<trkpt lat="45.9180800" lon="9.5730020">
	<ele>1259.80</ele>
	<time>2023-10-07T12:44:00.000Z</time>
</trkpt>
<trkpt lat="45.9180790" lon="9.5730130">
	<ele>1259.60</ele>
	<time>2023-10-07T12:44:01.000Z</time>
</trkpt>
<trkpt lat="45.9180780" lon="9.5730260">
	<ele>1259.60</ele>
	<time>2023-10-07T12:44:02.000Z</time>
</trkpt>
<trkpt lat="45.9180800" lon="9.5730390">
	<ele>1259.40</ele>
	<time>2023-10-07T12:44:03.000Z</time>
</trkpt>
<trkpt lat="45.9180820" lon="9.5730530">
	<ele>1259.20</ele>
	<time>2023-10-07T12:44:04.000Z</time>
</trkpt>
<trkpt lat="45.9180840" lon="9.5730670">
	<ele>1259.20</ele>
	<time>2023-10-07T12:44:05.000Z</time>
</trkpt>
<trkpt lat="45.9180870" lon="9.5730810">
	<ele>1259.20</ele>
	<time>2023-10-07T12:44:06.000Z</time>
</trkpt>
<trkpt lat="45.9180890" lon="9.5730960">
	<ele>1259.20</ele>
	<time>2023-10-07T12:44:07.000Z</time>
</trkpt>
<trkpt lat="45.9180910" lon="9.5731140">
	<ele>1259.00</ele>
	<time>2023-10-07T12:44:08.000Z</time>
</trkpt>
<trkpt lat="45.9180940" lon="9.5731330">
	<ele>1258.80</ele>
	<time>2023-10-07T12:44:09.000Z</time>
</trkpt>
<trkpt lat="45.9180980" lon="9.5731500">
	<ele>1258.80</ele>
	<time>2023-10-07T12:44:10.000Z</time>
</trkpt>
<trkpt lat="45.9181040" lon="9.5731660">
	<ele>1258.60</ele>
	<time>2023-10-07T12:44:11.000Z</time>
</trkpt>
<trkpt lat="45.9181060" lon="9.5731810">
	<ele>1258.60</ele>
	<time>2023-10-07T12:44:12.000Z</time>
</trkpt>
<trkpt lat="45.9181080" lon="9.5731960">
	<ele>1258.40</ele>
	<time>2023-10-07T12:44:13.000Z</time>
</trkpt>
<trkpt lat="45.9181090" lon="9.5732110">
	<ele>1258.40</ele>
	<time>2023-10-07T12:44:14.000Z</time>
</trkpt>
<trkpt lat="45.9181110" lon="9.5732230">
	<ele>1258.20</ele>
	<time>2023-10-07T12:44:15.000Z</time>
</trkpt>
<trkpt lat="45.9181050" lon="9.5732360">
	<ele>1258.00</ele>
	<time>2023-10-07T12:44:16.000Z</time>
</trkpt>
<trkpt lat="45.9181010" lon="9.5732520">
	<ele>1257.80</ele>
	<time>2023-10-07T12:44:17.000Z</time>
</trkpt>
<trkpt lat="45.9180990" lon="9.5732680">
	<ele>1257.60</ele>
	<time>2023-10-07T12:44:18.000Z</time>
</trkpt>
<trkpt lat="45.9180950" lon="9.5732830">
	<ele>1257.40</ele>
	<time>2023-10-07T12:44:19.000Z</time>
</trkpt>
<trkpt lat="45.9180960" lon="9.5732970">
	<ele>1257.20</ele>
	<time>2023-10-07T12:44:20.000Z</time>
</trkpt>
<trkpt lat="45.9181020" lon="9.5733060">
	<ele>1257.00</ele>
	<time>2023-10-07T12:44:21.000Z</time>
</trkpt>
<trkpt lat="45.9181010" lon="9.5733190">
	<ele>1256.60</ele>
	<time>2023-10-07T12:44:22.000Z</time>
</trkpt>
<trkpt lat="45.9180970" lon="9.5733340">
	<ele>1256.40</ele>
	<time>2023-10-07T12:44:23.000Z</time>
</trkpt>
<trkpt lat="45.9180940" lon="9.5733500">
	<ele>1256.20</ele>
	<time>2023-10-07T12:44:24.000Z</time>
</trkpt>
<trkpt lat="45.9180940" lon="9.5733640">
	<ele>1256.00</ele>
	<time>2023-10-07T12:44:25.000Z</time>
</trkpt>
<trkpt lat="45.9180960" lon="9.5733770">
	<ele>1255.80</ele>
	<time>2023-10-07T12:44:26.000Z</time>
</trkpt>
<trkpt lat="45.9180980" lon="9.5733910">
	<ele>1255.60</ele>
	<time>2023-10-07T12:44:27.000Z</time>
</trkpt>
<trkpt lat="45.9181010" lon="9.5734020">
	<ele>1255.40</ele>
	<time>2023-10-07T12:44:28.000Z</time>
</trkpt>
<trkpt lat="45.9181060" lon="9.5734120">
	<ele>1255.20</ele>
	<time>2023-10-07T12:44:29.000Z</time>
</trkpt>
<trkpt lat="45.9181100" lon="9.5734240">
	<ele>1255.20</ele>
	<time>2023-10-07T12:44:30.000Z</time>
</trkpt>
<trkpt lat="45.9181140" lon="9.5734370">
	<ele>1254.80</ele>
	<time>2023-10-07T12:44:31.000Z</time>
</trkpt>
<trkpt lat="45.9181190" lon="9.5734490">
	<ele>1254.60</ele>
	<time>2023-10-07T12:44:32.000Z</time>
</trkpt>
<trkpt lat="45.9181220" lon="9.5734620">
	<ele>1254.40</ele>
	<time>2023-10-07T12:44:33.000Z</time>
</trkpt>
<trkpt lat="45.9181250" lon="9.5734730">
	<ele>1254.20</ele>
	<time>2023-10-07T12:44:34.000Z</time>
</trkpt>
<trkpt lat="45.9181290" lon="9.5734870">
	<ele>1254.00</ele>
	<time>2023-10-07T12:44:35.000Z</time>
</trkpt>
<trkpt lat="45.9181270" lon="9.5735010">
	<ele>1254.00</ele>
	<time>2023-10-07T12:44:36.000Z</time>
</trkpt>
<trkpt lat="45.9181250" lon="9.5735150">
	<ele>1253.80</ele>
	<time>2023-10-07T12:44:37.000Z</time>
</trkpt>
<trkpt lat="45.9181150" lon="9.5735360">
	<ele>1253.60</ele>
	<time>2023-10-07T12:44:38.000Z</time>
</trkpt>
<trkpt lat="45.9181100" lon="9.5735550">
	<ele>1253.20</ele>
	<time>2023-10-07T12:44:39.000Z</time>
</trkpt>
<trkpt lat="45.9181090" lon="9.5735700">
	<ele>1253.00</ele>
	<time>2023-10-07T12:44:40.000Z</time>
</trkpt>
<trkpt lat="45.9181100" lon="9.5735830">
	<ele>1253.00</ele>
	<time>2023-10-07T12:44:41.000Z</time>
</trkpt>
<trkpt lat="45.9181100" lon="9.5735950">
	<ele>1252.80</ele>
	<time>2023-10-07T12:44:42.000Z</time>
</trkpt>
<trkpt lat="45.9181120" lon="9.5736100">
	<ele>1252.60</ele>
	<time>2023-10-07T12:44:43.000Z</time>
</trkpt>
<trkpt lat="45.9181130" lon="9.5736240">
	<ele>1252.40</ele>
	<time>2023-10-07T12:44:44.000Z</time>
</trkpt>
<trkpt lat="45.9181160" lon="9.5736360">
	<ele>1252.20</ele>
	<time>2023-10-07T12:44:45.000Z</time>
</trkpt>
<trkpt lat="45.9181200" lon="9.5736510">
	<ele>1252.00</ele>
	<time>2023-10-07T12:44:46.000Z</time>
</trkpt>
<trkpt lat="45.9181220" lon="9.5736680">
	<ele>1251.60</ele>
	<time>2023-10-07T12:44:47.000Z</time>
</trkpt>
<trkpt lat="45.9181250" lon="9.5736810">
	<ele>1251.40</ele>
	<time>2023-10-07T12:44:48.000Z</time>
</trkpt>
<trkpt lat="45.9181230" lon="9.5736950">
	<ele>1251.20</ele>
	<time>2023-10-07T12:44:49.000Z</time>
</trkpt>
<trkpt lat="45.9181240" lon="9.5737080">
	<ele>1251.20</ele>
	<time>2023-10-07T12:44:50.000Z</time>
</trkpt>
<trkpt lat="45.9181240" lon="9.5737230">
	<ele>1251.00</ele>
	<time>2023-10-07T12:44:51.000Z</time>
</trkpt>
<trkpt lat="45.9181260" lon="9.5737370">
	<ele>1250.80</ele>
	<time>2023-10-07T12:44:52.000Z</time>
</trkpt>
<trkpt lat="45.9181270" lon="9.5737520">
	<ele>1250.60</ele>
	<time>2023-10-07T12:44:53.000Z</time>
</trkpt>
<trkpt lat="45.9181300" lon="9.5737690">
	<ele>1250.40</ele>
	<time>2023-10-07T12:44:54.000Z</time>
</trkpt>
<trkpt lat="45.9181320" lon="9.5737850">
	<ele>1250.00</ele>
	<time>2023-10-07T12:44:55.000Z</time>
</trkpt>
<trkpt lat="45.9181310" lon="9.5738020">
	<ele>1249.80</ele>
	<time>2023-10-07T12:44:56.000Z</time>
</trkpt>
<trkpt lat="45.9181350" lon="9.5738160">
	<ele>1249.60</ele>
	<time>2023-10-07T12:44:57.000Z</time>
</trkpt>
<trkpt lat="45.9181390" lon="9.5738330">
	<ele>1249.60</ele>
	<time>2023-10-07T12:44:58.000Z</time>
</trkpt>
<trkpt lat="45.9181430" lon="9.5738480">
	<ele>1249.40</ele>
	<time>2023-10-07T12:44:59.000Z</time>
</trkpt>
<trkpt lat="45.9181450" lon="9.5738590">
	<ele>1249.40</ele>
	<time>2023-10-07T12:45:00.000Z</time>
</trkpt>
<trkpt lat="45.9181470" lon="9.5738720">
	<ele>1249.00</ele>
	<time>2023-10-07T12:45:01.000Z</time>
</trkpt>
<trkpt lat="45.9181560" lon="9.5738830">
	<ele>1249.00</ele>
	<time>2023-10-07T12:45:02.000Z</time>
</trkpt>
<trkpt lat="45.9181570" lon="9.5738960">
	<ele>1248.80</ele>
	<time>2023-10-07T12:45:03.000Z</time>
</trkpt>
<trkpt lat="45.9181580" lon="9.5739130">
	<ele>1248.60</ele>
	<time>2023-10-07T12:45:04.000Z</time>
</trkpt>
<trkpt lat="45.9181670" lon="9.5739320">
	<ele>1248.40</ele>
	<time>2023-10-07T12:45:05.000Z</time>
</trkpt>
<trkpt lat="45.9181740" lon="9.5739490">
	<ele>1248.20</ele>
	<time>2023-10-07T12:45:06.000Z</time>
</trkpt>
<trkpt lat="45.9181790" lon="9.5739620">
	<ele>1248.00</ele>
	<time>2023-10-07T12:45:07.000Z</time>
</trkpt>
<trkpt lat="45.9181810" lon="9.5739850">
	<ele>1248.00</ele>
	<time>2023-10-07T12:45:08.000Z</time>
</trkpt>
<trkpt lat="45.9181860" lon="9.5740040">
	<ele>1248.00</ele>
	<time>2023-10-07T12:45:09.000Z</time>
</trkpt>
<trkpt lat="45.9181900" lon="9.5740200">
	<ele>1247.80</ele>
	<time>2023-10-07T12:45:10.000Z</time>
</trkpt>
<trkpt lat="45.9181990" lon="9.5740390">
	<ele>1247.80</ele>
	<time>2023-10-07T12:45:11.000Z</time>
</trkpt>
<trkpt lat="45.9182060" lon="9.5740580">
	<ele>1247.80</ele>
	<time>2023-10-07T12:45:12.000Z</time>
</trkpt>
<trkpt lat="45.9182130" lon="9.5740760">
	<ele>1247.80</ele>
	<time>2023-10-07T12:45:13.000Z</time>
</trkpt>
<trkpt lat="45.9182170" lon="9.5740960">
	<ele>1247.80</ele>
	<time>2023-10-07T12:45:14.000Z</time>
</trkpt>
<trkpt lat="45.9182210" lon="9.5741110">
	<ele>1247.60</ele>
	<time>2023-10-07T12:45:15.000Z</time>
</trkpt>
<trkpt lat="45.9182290" lon="9.5741250">
	<ele>1247.60</ele>
	<time>2023-10-07T12:45:16.000Z</time>
</trkpt>
<trkpt lat="45.9182360" lon="9.5741400">
	<ele>1247.40</ele>
	<time>2023-10-07T12:45:17.000Z</time>
</trkpt>
<trkpt lat="45.9182390" lon="9.5741620">
	<ele>1247.40</ele>
	<time>2023-10-07T12:45:18.000Z</time>
</trkpt>
<trkpt lat="45.9182460" lon="9.5741780">
	<ele>1247.40</ele>
	<time>2023-10-07T12:45:19.000Z</time>
</trkpt>
<trkpt lat="45.9182540" lon="9.5741970">
	<ele>1247.20</ele>
	<time>2023-10-07T12:45:20.000Z</time>
</trkpt>
<trkpt lat="45.9182630" lon="9.5742120">
	<ele>1247.20</ele>
	<time>2023-10-07T12:45:21.000Z</time>
</trkpt>
<trkpt lat="45.9182680" lon="9.5742220">
	<ele>1247.00</ele>
	<time>2023-10-07T12:45:22.000Z</time>
</trkpt>
<trkpt lat="45.9182770" lon="9.5742360">
	<ele>1247.00</ele>
	<time>2023-10-07T12:45:23.000Z</time>
</trkpt>
<trkpt lat="45.9182860" lon="9.5742520">
	<ele>1247.00</ele>
	<time>2023-10-07T12:45:24.000Z</time>
</trkpt>
<trkpt lat="45.9182920" lon="9.5742650">
	<ele>1246.80</ele>
	<time>2023-10-07T12:45:25.000Z</time>
</trkpt>
<trkpt lat="45.9182910" lon="9.5742800">
	<ele>1246.60</ele>
	<time>2023-10-07T12:45:26.000Z</time>
</trkpt>
<trkpt lat="45.9182920" lon="9.5742970">
	<ele>1246.40</ele>
	<time>2023-10-07T12:45:27.000Z</time>
</trkpt>
<trkpt lat="45.9182980" lon="9.5743150">
	<ele>1246.20</ele>
	<time>2023-10-07T12:45:28.000Z</time>
</trkpt>
<trkpt lat="45.9183030" lon="9.5743260">
	<ele>1245.80</ele>
	<time>2023-10-07T12:45:29.000Z</time>
</trkpt>
<trkpt lat="45.9183100" lon="9.5743460">
	<ele>1245.80</ele>
	<time>2023-10-07T12:45:30.000Z</time>
</trkpt>
<trkpt lat="45.9183160" lon="9.5743640">
	<ele>1245.60</ele>
	<time>2023-10-07T12:45:31.000Z</time>
</trkpt>
<trkpt lat="45.9183170" lon="9.5743820">
	<ele>1245.20</ele>
	<time>2023-10-07T12:45:32.000Z</time>
</trkpt>
<trkpt lat="45.9183160" lon="9.5744000">
	<ele>1245.20</ele>
	<time>2023-10-07T12:45:33.000Z</time>
</trkpt>
<trkpt lat="45.9183160" lon="9.5744120">
	<ele>1245.00</ele>
	<time>2023-10-07T12:45:34.000Z</time>
</trkpt>
<trkpt lat="45.9183210" lon="9.5744250">
	<ele>1245.00</ele>
	<time>2023-10-07T12:45:35.000Z</time>
</trkpt>
<trkpt lat="45.9183240" lon="9.5744350">
	<ele>1245.00</ele>
	<time>2023-10-07T12:45:36.000Z</time>
</trkpt>
<trkpt lat="45.9183240" lon="9.5744510">
	<ele>1245.00</ele>
	<time>2023-10-07T12:45:37.000Z</time>
</trkpt>
<trkpt lat="45.9183220" lon="9.5744630">
	<ele>1245.00</ele>
	<time>2023-10-07T12:45:38.000Z</time>
</trkpt>
<trkpt lat="45.9183260" lon="9.5744740">
	<ele>1244.80</ele>
	<time>2023-10-07T12:45:39.000Z</time>
</trkpt>
<trkpt lat="45.9183270" lon="9.5744840">
	<ele>1244.80</ele>
	<time>2023-10-07T12:45:40.000Z</time>
</trkpt>
<trkpt lat="45.9183260" lon="9.5744920">
	<ele>1244.60</ele>
	<time>2023-10-07T12:45:41.000Z</time>
</trkpt>
<trkpt lat="45.9183270" lon="9.5745080">
	<ele>1244.40</ele>
	<time>2023-10-07T12:45:42.000Z</time>
</trkpt>
<trkpt lat="45.9183350" lon="9.5745180">
	<ele>1244.20</ele>
	<time>2023-10-07T12:45:43.000Z</time>
</trkpt>
<trkpt lat="45.9183400" lon="9.5745280">
	<ele>1244.00</ele>
	<time>2023-10-07T12:45:44.000Z</time>
</trkpt>
<trkpt lat="45.9183440" lon="9.5745490">
	<ele>1243.60</ele>
	<time>2023-10-07T12:45:45.000Z</time>
</trkpt>
<trkpt lat="45.9183500" lon="9.5745620">
	<ele>1243.60</ele>
	<time>2023-10-07T12:45:46.000Z</time>
</trkpt>
<trkpt lat="45.9183560" lon="9.5745750">
	<ele>1243.40</ele>
	<time>2023-10-07T12:45:47.000Z</time>
</trkpt>
<trkpt lat="45.9183660" lon="9.5745950">
	<ele>1243.40</ele>
	<time>2023-10-07T12:45:48.000Z</time>
</trkpt>
<trkpt lat="45.9183680" lon="9.5746120">
	<ele>1243.20</ele>
	<time>2023-10-07T12:45:49.000Z</time>
</trkpt>
<trkpt lat="45.9183680" lon="9.5746280">
	<ele>1243.00</ele>
	<time>2023-10-07T12:45:50.000Z</time>
</trkpt>
<trkpt lat="45.9183700" lon="9.5746410">
	<ele>1242.80</ele>
	<time>2023-10-07T12:45:51.000Z</time>
</trkpt>
<trkpt lat="45.9183760" lon="9.5746550">
	<ele>1242.60</ele>
	<time>2023-10-07T12:45:52.000Z</time>
</trkpt>
<trkpt lat="45.9183880" lon="9.5746700">
	<ele>1242.40</ele>
	<time>2023-10-07T12:45:53.000Z</time>
</trkpt>
<trkpt lat="45.9183910" lon="9.5746850">
	<ele>1242.40</ele>
	<time>2023-10-07T12:45:54.000Z</time>
</trkpt>
<trkpt lat="45.9183910" lon="9.5747030">
	<ele>1242.40</ele>
	<time>2023-10-07T12:45:55.000Z</time>
</trkpt>
<trkpt lat="45.9183850" lon="9.5747290">
	<ele>1242.00</ele>
	<time>2023-10-07T12:45:56.000Z</time>
</trkpt>
<trkpt lat="45.9183820" lon="9.5747460">
	<ele>1242.00</ele>
	<time>2023-10-07T12:45:57.000Z</time>
</trkpt>
<trkpt lat="45.9183850" lon="9.5747580">
	<ele>1241.80</ele>
	<time>2023-10-07T12:45:58.000Z</time>
</trkpt>
<trkpt lat="45.9183930" lon="9.5747710">
	<ele>1241.60</ele>
	<time>2023-10-07T12:45:59.000Z</time>
</trkpt>
<trkpt lat="45.9184000" lon="9.5747840">
	<ele>1241.60</ele>
	<time>2023-10-07T12:46:00.000Z</time>
</trkpt>
<trkpt lat="45.9184060" lon="9.5747940">
	<ele>1241.20</ele>
	<time>2023-10-07T12:46:01.000Z</time>
</trkpt>
<trkpt lat="45.9184070" lon="9.5748060">
	<ele>1240.80</ele>
	<time>2023-10-07T12:46:02.000Z</time>
</trkpt>
<trkpt lat="45.9184100" lon="9.5748230">
	<ele>1240.60</ele>
	<time>2023-10-07T12:46:03.000Z</time>
</trkpt>
<trkpt lat="45.9184110" lon="9.5748370">
	<ele>1240.40</ele>
	<time>2023-10-07T12:46:04.000Z</time>
</trkpt>
<trkpt lat="45.9184200" lon="9.5748480">
	<ele>1240.20</ele>
	<time>2023-10-07T12:46:05.000Z</time>
</trkpt>
<trkpt lat="45.9184310" lon="9.5748590">
	<ele>1239.80</ele>
	<time>2023-10-07T12:46:06.000Z</time>
</trkpt>
<trkpt lat="45.9184400" lon="9.5748710">
	<ele>1239.80</ele>
	<time>2023-10-07T12:46:07.000Z</time>
</trkpt>
<trkpt lat="45.9184490" lon="9.5748890">
	<ele>1239.40</ele>
	<time>2023-10-07T12:46:08.000Z</time>
</trkpt>
<trkpt lat="45.9184610" lon="9.5749050">
	<ele>1239.40</ele>
	<time>2023-10-07T12:46:09.000Z</time>
</trkpt>
<trkpt lat="45.9184640" lon="9.5749130">
	<ele>1239.20</ele>
	<time>2023-10-07T12:46:10.000Z</time>
</trkpt>
<trkpt lat="45.9184660" lon="9.5749160">
	<ele>1239.00</ele>
	<time>2023-10-07T12:46:11.000Z</time>
</trkpt>
<trkpt lat="45.9184670" lon="9.5749180">
	<ele>1239.00</ele>
	<time>2023-10-07T12:46:12.000Z</time>
</trkpt>
<trkpt lat="45.9184650" lon="9.5749230">
	<ele>1239.00</ele>
	<time>2023-10-07T12:46:13.000Z</time>
</trkpt>
<trkpt lat="45.9184640" lon="9.5749270">
	<ele>1239.00</ele>
	<time>2023-10-07T12:46:14.000Z</time>
</trkpt>
<trkpt lat="45.9184650" lon="9.5749300">
	<ele>1239.20</ele>
	<time>2023-10-07T12:46:15.000Z</time>
</trkpt>
<trkpt lat="45.9184660" lon="9.5749330">
	<ele>1239.40</ele>
	<time>2023-10-07T12:46:16.000Z</time>
</trkpt>
<trkpt lat="45.9184660" lon="9.5749340">
	<ele>1239.40</ele>
	<time>2023-10-07T12:46:17.000Z</time>
</trkpt>
<trkpt lat="45.9184660" lon="9.5749360">
	<ele>1239.40</ele>
	<time>2023-10-07T12:46:18.000Z</time>
</trkpt>
<trkpt lat="45.9184670" lon="9.5749370">
	<ele>1239.40</ele>
	<time>2023-10-07T12:46:19.000Z</time>
</trkpt>
<trkpt lat="45.9184660" lon="9.5749380">
	<ele>1239.40</ele>
	<time>2023-10-07T12:46:20.000Z</time>
</trkpt>
<trkpt lat="45.9184660" lon="9.5749360">
	<ele>1239.40</ele>
	<time>2023-10-07T12:46:21.000Z</time>
</trkpt>
<trkpt lat="45.9184690" lon="9.5749340">
	<ele>1239.40</ele>
	<time>2023-10-07T12:46:22.000Z</time>
</trkpt>
<trkpt lat="45.9184680" lon="9.5749330">
	<ele>1239.20</ele>
	<time>2023-10-07T12:46:23.000Z</time>
</trkpt>
<trkpt lat="45.9184680" lon="9.5749320">
	<ele>1239.00</ele>
	<time>2023-10-07T12:46:24.000Z</time>
</trkpt>
<trkpt lat="45.9184680" lon="9.5749320">
	<ele>1239.00</ele>
	<time>2023-10-07T12:46:25.000Z</time>
</trkpt>
<trkpt lat="45.9184680" lon="9.5749320">
	<ele>1239.00</ele>
	<time>2023-10-07T12:46:26.000Z</time>
</trkpt>
<trkpt lat="45.9184680" lon="9.5749320">
	<ele>1239.00</ele>
	<time>2023-10-07T12:46:27.000Z</time>
</trkpt>
<trkpt lat="45.9184680" lon="9.5749320">
	<ele>1239.00</ele>
	<time>2023-10-07T12:46:28.000Z</time>
</trkpt>
<trkpt lat="45.9184680" lon="9.5749320">
	<ele>1239.40</ele>
	<time>2023-10-07T12:46:29.000Z</time>
</trkpt>
<trkpt lat="45.9184680" lon="9.5749320">
	<ele>1239.60</ele>
	<time>2023-10-07T12:46:30.000Z</time>
</trkpt>
<trkpt lat="45.9184680" lon="9.5749320">
	<ele>1239.80</ele>
	<time>2023-10-07T12:46:31.000Z</time>
</trkpt>
<trkpt lat="45.9184680" lon="9.5749320">
	<ele>1239.80</ele>
	<time>2023-10-07T12:46:32.000Z</time>
</trkpt>
<trkpt lat="45.9184680" lon="9.5749330">
	<ele>1239.80</ele>
	<time>2023-10-07T12:46:33.000Z</time>
</trkpt>
<trkpt lat="45.9184680" lon="9.5749330">
	<ele>1239.80</ele>
	<time>2023-10-07T12:46:34.000Z</time>
</trkpt>
<trkpt lat="45.9184680" lon="9.5749330">
	<ele>1239.80</ele>
	<time>2023-10-07T12:46:35.000Z</time>
</trkpt>
<trkpt lat="45.9184680" lon="9.5749330">
	<ele>1239.60</ele>
	<time>2023-10-07T12:46:36.000Z</time>
</trkpt>
<trkpt lat="45.9184680" lon="9.5749330">
	<ele>1239.40</ele>
	<time>2023-10-07T12:46:37.000Z</time>
</trkpt>
<trkpt lat="45.9184680" lon="9.5749340">
	<ele>1239.20</ele>
	<time>2023-10-07T12:46:38.000Z</time>
</trkpt>
<trkpt lat="45.9184690" lon="9.5749340">
	<ele>1239.20</ele>
	<time>2023-10-07T12:46:39.000Z</time>
</trkpt>
<trkpt lat="45.9184710" lon="9.5749340">
	<ele>1239.00</ele>
	<time>2023-10-07T12:46:40.000Z</time>
</trkpt>
<trkpt lat="45.9184730" lon="9.5749340">
	<ele>1239.00</ele>
	<time>2023-10-07T12:46:41.000Z</time>
</trkpt>
<trkpt lat="45.9184740" lon="9.5749350">
	<ele>1239.00</ele>
	<time>2023-10-07T12:46:42.000Z</time>
</trkpt>
<trkpt lat="45.9184740" lon="9.5749350">
	<ele>1238.80</ele>
	<time>2023-10-07T12:46:43.000Z</time>
</trkpt>
<trkpt lat="45.9184750" lon="9.5749360">
	<ele>1238.80</ele>
	<time>2023-10-07T12:46:44.000Z</time>
</trkpt>
<trkpt lat="45.9184750" lon="9.5749360">
	<ele>1238.80</ele>
	<time>2023-10-07T12:46:45.000Z</time>
</trkpt>
<trkpt lat="45.9184760" lon="9.5749360">
	<ele>1238.80</ele>
	<time>2023-10-07T12:46:46.000Z</time>
</trkpt>
<trkpt lat="45.9184760" lon="9.5749360">
	<ele>1238.80</ele>
	<time>2023-10-07T12:46:47.000Z</time>
</trkpt>
<trkpt lat="45.9184790" lon="9.5749400">
	<ele>1238.80</ele>
	<time>2023-10-07T12:46:48.000Z</time>
</trkpt>
<trkpt lat="45.9184880" lon="9.5749570">
	<ele>1238.80</ele>
	<time>2023-10-07T12:46:49.000Z</time>
</trkpt>
<trkpt lat="45.9185000" lon="9.5749680">
	<ele>1238.80</ele>
	<time>2023-10-07T12:46:50.000Z</time>
</trkpt>
<trkpt lat="45.9185100" lon="9.5749840">
	<ele>1238.80</ele>
	<time>2023-10-07T12:46:51.000Z</time>
</trkpt>
<trkpt lat="45.9185230" lon="9.5749970">
	<ele>1239.00</ele>
	<time>2023-10-07T12:46:52.000Z</time>
</trkpt>
<trkpt lat="45.9185360" lon="9.5750110">
	<ele>1239.00</ele>
	<time>2023-10-07T12:46:53.000Z</time>
</trkpt>
<trkpt lat="45.9185480" lon="9.5750250">
	<ele>1239.00</ele>
	<time>2023-10-07T12:46:54.000Z</time>
</trkpt>
<trkpt lat="45.9185590" lon="9.5750400">
	<ele>1239.00</ele>
	<time>2023-10-07T12:46:55.000Z</time>
</trkpt>
<trkpt lat="45.9185710" lon="9.5750530">
	<ele>1239.00</ele>
	<time>2023-10-07T12:46:56.000Z</time>
</trkpt>
<trkpt lat="45.9185840" lon="9.5750600">
	<ele>1239.00</ele>
	<time>2023-10-07T12:46:57.000Z</time>
</trkpt>
<trkpt lat="45.9185930" lon="9.5750600">
	<ele>1239.00</ele>
	<time>2023-10-07T12:46:58.000Z</time>
</trkpt>
<trkpt lat="45.9186000" lon="9.5750620">
	<ele>1239.20</ele>
	<time>2023-10-07T12:46:59.000Z</time>
</trkpt>
<trkpt lat="45.9186060" lon="9.5750630">
	<ele>1239.20</ele>
	<time>2023-10-07T12:47:00.000Z</time>
</trkpt>
<trkpt lat="45.9186150" lon="9.5750620">
	<ele>1239.40</ele>
	<time>2023-10-07T12:47:01.000Z</time>
</trkpt>
<trkpt lat="45.9186190" lon="9.5750660">
	<ele>1239.60</ele>
	<time>2023-10-07T12:47:02.000Z</time>
</trkpt>
<trkpt lat="45.9186200" lon="9.5750790">
	<ele>1239.60</ele>
	<time>2023-10-07T12:47:03.000Z</time>
</trkpt>
<trkpt lat="45.9186230" lon="9.5750920">
	<ele>1239.80</ele>
	<time>2023-10-07T12:47:04.000Z</time>
</trkpt>
<trkpt lat="45.9186240" lon="9.5751060">
	<ele>1239.80</ele>
	<time>2023-10-07T12:47:05.000Z</time>
</trkpt>
<trkpt lat="45.9186190" lon="9.5751250">
	<ele>1239.80</ele>
	<time>2023-10-07T12:47:06.000Z</time>
</trkpt>
<trkpt lat="45.9186220" lon="9.5751390">
	<ele>1239.60</ele>
	<time>2023-10-07T12:47:07.000Z</time>
</trkpt>
<trkpt lat="45.9186310" lon="9.5751490">
	<ele>1239.40</ele>
	<time>2023-10-07T12:47:08.000Z</time>
</trkpt>
<trkpt lat="45.9186480" lon="9.5751520">
	<ele>1239.40</ele>
	<time>2023-10-07T12:47:09.000Z</time>
</trkpt>
<trkpt lat="45.9186580" lon="9.5751660">
	<ele>1239.20</ele>
	<time>2023-10-07T12:47:10.000Z</time>
</trkpt>
<trkpt lat="45.9186700" lon="9.5751770">
	<ele>1239.00</ele>
	<time>2023-10-07T12:47:11.000Z</time>
</trkpt>
<trkpt lat="45.9186850" lon="9.5751860">
	<ele>1239.00</ele>
	<time>2023-10-07T12:47:12.000Z</time>
</trkpt>
<trkpt lat="45.9186950" lon="9.5751990">
	<ele>1238.80</ele>
	<time>2023-10-07T12:47:13.000Z</time>
</trkpt>
<trkpt lat="45.9187010" lon="9.5752180">
	<ele>1238.80</ele>
	<time>2023-10-07T12:47:14.000Z</time>
</trkpt>
<trkpt lat="45.9187050" lon="9.5752360">
	<ele>1238.80</ele>
	<time>2023-10-07T12:47:15.000Z</time>
</trkpt>
<trkpt lat="45.9187000" lon="9.5752540">
	<ele>1238.80</ele>
	<time>2023-10-07T12:47:16.000Z</time>
</trkpt>
<trkpt lat="45.9187130" lon="9.5752690">
	<ele>1238.60</ele>
	<time>2023-10-07T12:47:17.000Z</time>
</trkpt>
<trkpt lat="45.9187260" lon="9.5752800">
	<ele>1238.60</ele>
	<time>2023-10-07T12:47:18.000Z</time>
</trkpt>
<trkpt lat="45.9187360" lon="9.5752920">
	<ele>1238.40</ele>
	<time>2023-10-07T12:47:19.000Z</time>
</trkpt>
<trkpt lat="45.9187540" lon="9.5753030">
	<ele>1238.40</ele>
	<time>2023-10-07T12:47:20.000Z</time>
</trkpt>
<trkpt lat="45.9187700" lon="9.5753160">
	<ele>1238.20</ele>
	<time>2023-10-07T12:47:21.000Z</time>
</trkpt>
<trkpt lat="45.9187820" lon="9.5753310">
	<ele>1238.20</ele>
	<time>2023-10-07T12:47:22.000Z</time>
</trkpt>
<trkpt lat="45.9187870" lon="9.5753470">
	<ele>1238.00</ele>
	<time>2023-10-07T12:47:23.000Z</time>
</trkpt>
<trkpt lat="45.9187960" lon="9.5753630">
	<ele>1238.00</ele>
	<time>2023-10-07T12:47:24.000Z</time>
</trkpt>
<trkpt lat="45.9188040" lon="9.5753780">
	<ele>1237.80</ele>
	<time>2023-10-07T12:47:25.000Z</time>
</trkpt>
<trkpt lat="45.9188090" lon="9.5753960">
	<ele>1237.80</ele>
	<time>2023-10-07T12:47:26.000Z</time>
</trkpt>
<trkpt lat="45.9188120" lon="9.5754120">
	<ele>1237.80</ele>
	<time>2023-10-07T12:47:27.000Z</time>
</trkpt>
<trkpt lat="45.9188150" lon="9.5754260">
	<ele>1237.60</ele>
	<time>2023-10-07T12:47:28.000Z</time>
</trkpt>
<trkpt lat="45.9188240" lon="9.5754370">
	<ele>1237.60</ele>
	<time>2023-10-07T12:47:29.000Z</time>
</trkpt>
<trkpt lat="45.9188290" lon="9.5754520">
	<ele>1237.40</ele>
	<time>2023-10-07T12:47:30.000Z</time>
</trkpt>
<trkpt lat="45.9188350" lon="9.5754640">
	<ele>1237.40</ele>
	<time>2023-10-07T12:47:31.000Z</time>
</trkpt>
<trkpt lat="45.9188470" lon="9.5754750">
	<ele>1237.40</ele>
	<time>2023-10-07T12:47:32.000Z</time>
</trkpt>
<trkpt lat="45.9188570" lon="9.5754830">
	<ele>1237.20</ele>
	<time>2023-10-07T12:47:33.000Z</time>
</trkpt>
<trkpt lat="45.9188680" lon="9.5754930">
	<ele>1237.20</ele>
	<time>2023-10-07T12:47:34.000Z</time>
</trkpt>
<trkpt lat="45.9188770" lon="9.5755050">
	<ele>1237.20</ele>
	<time>2023-10-07T12:47:35.000Z</time>
</trkpt>
<trkpt lat="45.9188890" lon="9.5755130">
	<ele>1237.20</ele>
	<time>2023-10-07T12:47:36.000Z</time>
</trkpt>
<trkpt lat="45.9189020" lon="9.5755170">
	<ele>1237.20</ele>
	<time>2023-10-07T12:47:37.000Z</time>
</trkpt>
<trkpt lat="45.9189130" lon="9.5755220">
	<ele>1237.20</ele>
	<time>2023-10-07T12:47:38.000Z</time>
</trkpt>
<trkpt lat="45.9189240" lon="9.5755290">
	<ele>1237.20</ele>
	<time>2023-10-07T12:47:39.000Z</time>
</trkpt>
<trkpt lat="45.9189290" lon="9.5755440">
	<ele>1237.20</ele>
	<time>2023-10-07T12:47:40.000Z</time>
</trkpt>
<trkpt lat="45.9189400" lon="9.5755560">
	<ele>1237.20</ele>
	<time>2023-10-07T12:47:41.000Z</time>
</trkpt>
<trkpt lat="45.9189500" lon="9.5755670">
	<ele>1237.00</ele>
	<time>2023-10-07T12:47:42.000Z</time>
</trkpt>
<trkpt lat="45.9189610" lon="9.5755780">
	<ele>1237.00</ele>
	<time>2023-10-07T12:47:43.000Z</time>
</trkpt>
<trkpt lat="45.9189710" lon="9.5755830">
	<ele>1237.00</ele>
	<time>2023-10-07T12:47:44.000Z</time>
</trkpt>
<trkpt lat="45.9189890" lon="9.5755830">
	<ele>1237.00</ele>
	<time>2023-10-07T12:47:45.000Z</time>
</trkpt>
<trkpt lat="45.9190000" lon="9.5755840">
	<ele>1237.00</ele>
	<time>2023-10-07T12:47:46.000Z</time>
</trkpt>
<trkpt lat="45.9190060" lon="9.5755890">
	<ele>1237.00</ele>
	<time>2023-10-07T12:47:47.000Z</time>
</trkpt>
<trkpt lat="45.9190100" lon="9.5755990">
	<ele>1237.00</ele>
	<time>2023-10-07T12:47:48.000Z</time>
</trkpt>
<trkpt lat="45.9190160" lon="9.5756070">
	<ele>1237.00</ele>
	<time>2023-10-07T12:47:49.000Z</time>
</trkpt>
<trkpt lat="45.9190170" lon="9.5756200">
	<ele>1237.00</ele>
	<time>2023-10-07T12:47:50.000Z</time>
</trkpt>
<trkpt lat="45.9190270" lon="9.5756310">
	<ele>1236.80</ele>
	<time>2023-10-07T12:47:51.000Z</time>
</trkpt>
<trkpt lat="45.9190330" lon="9.5756360">
	<ele>1236.60</ele>
	<time>2023-10-07T12:47:52.000Z</time>
</trkpt>
<trkpt lat="45.9190450" lon="9.5756360">
	<ele>1236.60</ele>
	<time>2023-10-07T12:47:53.000Z</time>
</trkpt>
<trkpt lat="45.9190570" lon="9.5756370">
	<ele>1236.60</ele>
	<time>2023-10-07T12:47:54.000Z</time>
</trkpt>
<trkpt lat="45.9190610" lon="9.5756410">
	<ele>1236.60</ele>
	<time>2023-10-07T12:47:55.000Z</time>
</trkpt>
<trkpt lat="45.9190670" lon="9.5756480">
	<ele>1236.60</ele>
	<time>2023-10-07T12:47:56.000Z</time>
</trkpt>
<trkpt lat="45.9190740" lon="9.5756570">
	<ele>1236.60</ele>
	<time>2023-10-07T12:47:57.000Z</time>
</trkpt>
<trkpt lat="45.9190780" lon="9.5756650">
	<ele>1236.60</ele>
	<time>2023-10-07T12:47:58.000Z</time>
</trkpt>
<trkpt lat="45.9190780" lon="9.5756710">
	<ele>1236.60</ele>
	<time>2023-10-07T12:47:59.000Z</time>
</trkpt>
<trkpt lat="45.9190800" lon="9.5756740">
	<ele>1236.60</ele>
	<time>2023-10-07T12:48:00.000Z</time>
</trkpt>
<trkpt lat="45.9190840" lon="9.5756760">
	<ele>1236.60</ele>
	<time>2023-10-07T12:48:01.000Z</time>
</trkpt>
<trkpt lat="45.9190850" lon="9.5756770">
	<ele>1236.60</ele>
	<time>2023-10-07T12:48:02.000Z</time>
</trkpt>
<trkpt lat="45.9190850" lon="9.5756780">
	<ele>1236.60</ele>
	<time>2023-10-07T12:48:03.000Z</time>
</trkpt>
<trkpt lat="45.9190830" lon="9.5756800">
	<ele>1236.60</ele>
	<time>2023-10-07T12:48:04.000Z</time>
</trkpt>
<trkpt lat="45.9190820" lon="9.5756840">
	<ele>1236.60</ele>
	<time>2023-10-07T12:48:05.000Z</time>
</trkpt>
<trkpt lat="45.9190870" lon="9.5756910">
	<ele>1236.60</ele>
	<time>2023-10-07T12:48:06.000Z</time>
</trkpt>
<trkpt lat="45.9190930" lon="9.5757040">
	<ele>1236.20</ele>
	<time>2023-10-07T12:48:07.000Z</time>
</trkpt>
<trkpt lat="45.9190980" lon="9.5757130">
	<ele>1236.00</ele>
	<time>2023-10-07T12:48:08.000Z</time>
</trkpt>
<trkpt lat="45.9191010" lon="9.5757300">
	<ele>1235.80</ele>
	<time>2023-10-07T12:48:09.000Z</time>
</trkpt>
<trkpt lat="45.9191090" lon="9.5757450">
	<ele>1235.60</ele>
	<time>2023-10-07T12:48:10.000Z</time>
</trkpt>
<trkpt lat="45.9191240" lon="9.5757550">
	<ele>1235.60</ele>
	<time>2023-10-07T12:48:11.000Z</time>
</trkpt>
<trkpt lat="45.9191400" lon="9.5757620">
	<ele>1235.40</ele>
	<time>2023-10-07T12:48:12.000Z</time>
</trkpt>
<trkpt lat="45.9191470" lon="9.5757720">
	<ele>1235.40</ele>
	<time>2023-10-07T12:48:13.000Z</time>
</trkpt>
<trkpt lat="45.9191500" lon="9.5757860">
	<ele>1235.20</ele>
	<time>2023-10-07T12:48:14.000Z</time>
</trkpt>
<trkpt lat="45.9191580" lon="9.5757960">
	<ele>1235.00</ele>
	<time>2023-10-07T12:48:15.000Z</time>
</trkpt>
<trkpt lat="45.9191720" lon="9.5758110">
	<ele>1235.00</ele>
	<time>2023-10-07T12:48:16.000Z</time>
</trkpt>
<trkpt lat="45.9191820" lon="9.5758150">
	<ele>1235.00</ele>
	<time>2023-10-07T12:48:17.000Z</time>
</trkpt>
<trkpt lat="45.9191930" lon="9.5758150">
	<ele>1234.80</ele>
	<time>2023-10-07T12:48:18.000Z</time>
</trkpt>
<trkpt lat="45.9191980" lon="9.5758150">
	<ele>1234.80</ele>
	<time>2023-10-07T12:48:19.000Z</time>
</trkpt>
<trkpt lat="45.9192080" lon="9.5758210">
	<ele>1234.80</ele>
	<time>2023-10-07T12:48:20.000Z</time>
</trkpt>
<trkpt lat="45.9192160" lon="9.5758300">
	<ele>1234.60</ele>
	<time>2023-10-07T12:48:21.000Z</time>
</trkpt>
<trkpt lat="45.9192260" lon="9.5758410">
	<ele>1234.60</ele>
	<time>2023-10-07T12:48:22.000Z</time>
</trkpt>
<trkpt lat="45.9192420" lon="9.5758560">
	<ele>1234.40</ele>
	<time>2023-10-07T12:48:23.000Z</time>
</trkpt>
<trkpt lat="45.9192530" lon="9.5758640">
	<ele>1234.20</ele>
	<time>2023-10-07T12:48:24.000Z</time>
</trkpt>
<trkpt lat="45.9192590" lon="9.5758720">
	<ele>1233.80</ele>
	<time>2023-10-07T12:48:25.000Z</time>
</trkpt>
<trkpt lat="45.9192750" lon="9.5758750">
	<ele>1233.80</ele>
	<time>2023-10-07T12:48:26.000Z</time>
</trkpt>
<trkpt lat="45.9192910" lon="9.5758780">
	<ele>1233.60</ele>
	<time>2023-10-07T12:48:27.000Z</time>
</trkpt>
<trkpt lat="45.9193040" lon="9.5758790">
	<ele>1233.40</ele>
	<time>2023-10-07T12:48:28.000Z</time>
</trkpt>
<trkpt lat="45.9193190" lon="9.5758880">
	<ele>1233.40</ele>
	<time>2023-10-07T12:48:29.000Z</time>
</trkpt>
<trkpt lat="45.9193300" lon="9.5759010">
	<ele>1233.40</ele>
	<time>2023-10-07T12:48:30.000Z</time>
</trkpt>
<trkpt lat="45.9193360" lon="9.5759140">
	<ele>1233.40</ele>
	<time>2023-10-07T12:48:31.000Z</time>
</trkpt>
<trkpt lat="45.9193450" lon="9.5759280">
	<ele>1233.40</ele>
	<time>2023-10-07T12:48:32.000Z</time>
</trkpt>
<trkpt lat="45.9193510" lon="9.5759380">
	<ele>1233.20</ele>
	<time>2023-10-07T12:48:33.000Z</time>
</trkpt>
<trkpt lat="45.9193690" lon="9.5759490">
	<ele>1233.20</ele>
	<time>2023-10-07T12:48:34.000Z</time>
</trkpt>
<trkpt lat="45.9193870" lon="9.5759540">
	<ele>1233.00</ele>
	<time>2023-10-07T12:48:35.000Z</time>
</trkpt>
<trkpt lat="45.9194040" lon="9.5759550">
	<ele>1233.00</ele>
	<time>2023-10-07T12:48:36.000Z</time>
</trkpt>
<trkpt lat="45.9194140" lon="9.5759560">
	<ele>1232.80</ele>
	<time>2023-10-07T12:48:37.000Z</time>
</trkpt>
<trkpt lat="45.9194310" lon="9.5759650">
	<ele>1232.80</ele>
	<time>2023-10-07T12:48:38.000Z</time>
</trkpt>
<trkpt lat="45.9194420" lon="9.5759780">
	<ele>1232.80</ele>
	<time>2023-10-07T12:48:39.000Z</time>
</trkpt>
<trkpt lat="45.9194460" lon="9.5759890">
	<ele>1232.80</ele>
	<time>2023-10-07T12:48:40.000Z</time>
</trkpt>
<trkpt lat="45.9194560" lon="9.5760050">
	<ele>1232.60</ele>
	<time>2023-10-07T12:48:41.000Z</time>
</trkpt>
<trkpt lat="45.9194700" lon="9.5760140">
	<ele>1232.60</ele>
	<time>2023-10-07T12:48:42.000Z</time>
</trkpt>
<trkpt lat="45.9194840" lon="9.5760200">
	<ele>1232.20</ele>
	<time>2023-10-07T12:48:43.000Z</time>
</trkpt>
<trkpt lat="45.9194950" lon="9.5760280">
	<ele>1232.20</ele>
	<time>2023-10-07T12:48:44.000Z</time>
</trkpt>
<trkpt lat="45.9195060" lon="9.5760390">
	<ele>1232.00</ele>
	<time>2023-10-07T12:48:45.000Z</time>
</trkpt>
<trkpt lat="45.9195170" lon="9.5760480">
	<ele>1231.80</ele>
	<time>2023-10-07T12:48:46.000Z</time>
</trkpt>
<trkpt lat="45.9195300" lon="9.5760570">
	<ele>1231.60</ele>
	<time>2023-10-07T12:48:47.000Z</time>
</trkpt>
<trkpt lat="45.9195400" lon="9.5760690">
	<ele>1231.60</ele>
	<time>2023-10-07T12:48:48.000Z</time>
</trkpt>
<trkpt lat="45.9195460" lon="9.5760830">
	<ele>1231.60</ele>
	<time>2023-10-07T12:48:49.000Z</time>
</trkpt>
<trkpt lat="45.9195560" lon="9.5760920">
	<ele>1231.60</ele>
	<time>2023-10-07T12:48:50.000Z</time>
</trkpt>
<trkpt lat="45.9195670" lon="9.5761030">
	<ele>1231.60</ele>
	<time>2023-10-07T12:48:51.000Z</time>
</trkpt>
<trkpt lat="45.9195780" lon="9.5761140">
	<ele>1231.40</ele>
	<time>2023-10-07T12:48:52.000Z</time>
</trkpt>
<trkpt lat="45.9195850" lon="9.5761270">
	<ele>1231.40</ele>
	<time>2023-10-07T12:48:53.000Z</time>
</trkpt>
<trkpt lat="45.9195950" lon="9.5761350">
	<ele>1231.20</ele>
	<time>2023-10-07T12:48:54.000Z</time>
</trkpt>
<trkpt lat="45.9196080" lon="9.5761460">
	<ele>1231.00</ele>
	<time>2023-10-07T12:48:55.000Z</time>
</trkpt>
<trkpt lat="45.9196160" lon="9.5761580">
	<ele>1230.80</ele>
	<time>2023-10-07T12:48:56.000Z</time>
</trkpt>
<trkpt lat="45.9196250" lon="9.5761710">
	<ele>1230.60</ele>
	<time>2023-10-07T12:48:57.000Z</time>
</trkpt>
<trkpt lat="45.9196330" lon="9.5761860">
	<ele>1230.40</ele>
	<time>2023-10-07T12:48:58.000Z</time>
</trkpt>
<trkpt lat="45.9196420" lon="9.5761980">
	<ele>1230.20</ele>
	<time>2023-10-07T12:48:59.000Z</time>
</trkpt>
<trkpt lat="45.9196490" lon="9.5762100">
	<ele>1230.20</ele>
	<time>2023-10-07T12:49:00.000Z</time>
</trkpt>
<trkpt lat="45.9196620" lon="9.5762180">
	<ele>1230.00</ele>
	<time>2023-10-07T12:49:01.000Z</time>
</trkpt>
<trkpt lat="45.9196750" lon="9.5762250">
	<ele>1230.00</ele>
	<time>2023-10-07T12:49:02.000Z</time>
</trkpt>
<trkpt lat="45.9196850" lon="9.5762360">
	<ele>1230.00</ele>
	<time>2023-10-07T12:49:03.000Z</time>
</trkpt>
<trkpt lat="45.9196950" lon="9.5762460">
	<ele>1230.00</ele>
	<time>2023-10-07T12:49:04.000Z</time>
</trkpt>
<trkpt lat="45.9197060" lon="9.5762620">
	<ele>1230.00</ele>
	<time>2023-10-07T12:49:05.000Z</time>
</trkpt>
<trkpt lat="45.9197190" lon="9.5762770">
	<ele>1229.80</ele>
	<time>2023-10-07T12:49:06.000Z</time>
</trkpt>
<trkpt lat="45.9197320" lon="9.5762860">
	<ele>1229.80</ele>
	<time>2023-10-07T12:49:07.000Z</time>
</trkpt>
<trkpt lat="45.9197440" lon="9.5762960">
	<ele>1229.80</ele>
	<time>2023-10-07T12:49:08.000Z</time>
</trkpt>
<trkpt lat="45.9197580" lon="9.5763060">
	<ele>1229.80</ele>
	<time>2023-10-07T12:49:09.000Z</time>
</trkpt>
<trkpt lat="45.9197720" lon="9.5763130">
	<ele>1229.80</ele>
	<time>2023-10-07T12:49:10.000Z</time>
</trkpt>
<trkpt lat="45.9197810" lon="9.5763230">
	<ele>1229.80</ele>
	<time>2023-10-07T12:49:11.000Z</time>
</trkpt>
<trkpt lat="45.9197870" lon="9.5763380">
	<ele>1229.80</ele>
	<time>2023-10-07T12:49:12.000Z</time>
</trkpt>
<trkpt lat="45.9197930" lon="9.5763480">
	<ele>1229.80</ele>
	<time>2023-10-07T12:49:13.000Z</time>
</trkpt>
<trkpt lat="45.9198080" lon="9.5763540">
	<ele>1229.80</ele>
	<time>2023-10-07T12:49:14.000Z</time>
</trkpt>
<trkpt lat="45.9198210" lon="9.5763580">
	<ele>1229.80</ele>
	<time>2023-10-07T12:49:15.000Z</time>
</trkpt>
<trkpt lat="45.9198300" lon="9.5763660">
	<ele>1229.80</ele>
	<time>2023-10-07T12:49:16.000Z</time>
</trkpt>
<trkpt lat="45.9198410" lon="9.5763750">
	<ele>1229.80</ele>
	<time>2023-10-07T12:49:17.000Z</time>
</trkpt>
<trkpt lat="45.9198480" lon="9.5763860">
	<ele>1229.60</ele>
	<time>2023-10-07T12:49:18.000Z</time>
</trkpt>
<trkpt lat="45.9198550" lon="9.5763950">
	<ele>1229.60</ele>
	<time>2023-10-07T12:49:19.000Z</time>
</trkpt>
<trkpt lat="45.9198590" lon="9.5764050">
	<ele>1229.20</ele>
	<time>2023-10-07T12:49:20.000Z</time>
</trkpt>
<trkpt lat="45.9198600" lon="9.5764160">
	<ele>1229.00</ele>
	<time>2023-10-07T12:49:21.000Z</time>
</trkpt>
<trkpt lat="45.9198620" lon="9.5764290">
	<ele>1228.80</ele>
	<time>2023-10-07T12:49:22.000Z</time>
</trkpt>
<trkpt lat="45.9198710" lon="9.5764400">
	<ele>1228.40</ele>
	<time>2023-10-07T12:49:23.000Z</time>
</trkpt>
<trkpt lat="45.9198840" lon="9.5764510">
	<ele>1228.20</ele>
	<time>2023-10-07T12:49:24.000Z</time>
</trkpt>
<trkpt lat="45.9198990" lon="9.5764580">
	<ele>1228.20</ele>
	<time>2023-10-07T12:49:25.000Z</time>
</trkpt>
<trkpt lat="45.9199080" lon="9.5764680">
	<ele>1228.20</ele>
	<time>2023-10-07T12:49:26.000Z</time>
</trkpt>
<trkpt lat="45.9199120" lon="9.5764840">
	<ele>1228.00</ele>
	<time>2023-10-07T12:49:27.000Z</time>
</trkpt>
<trkpt lat="45.9199250" lon="9.5764850">
	<ele>1228.00</ele>
	<time>2023-10-07T12:49:28.000Z</time>
</trkpt>
<trkpt lat="45.9199300" lon="9.5764970">
	<ele>1227.80</ele>
	<time>2023-10-07T12:49:29.000Z</time>
</trkpt>
<trkpt lat="45.9199410" lon="9.5765090">
	<ele>1227.80</ele>
	<time>2023-10-07T12:49:30.000Z</time>
</trkpt>
<trkpt lat="45.9199490" lon="9.5765180">
	<ele>1227.80</ele>
	<time>2023-10-07T12:49:31.000Z</time>
</trkpt>
<trkpt lat="45.9199580" lon="9.5765300">
	<ele>1227.60</ele>
	<time>2023-10-07T12:49:32.000Z</time>
</trkpt>
<trkpt lat="45.9199650" lon="9.5765470">
	<ele>1227.60</ele>
	<time>2023-10-07T12:49:33.000Z</time>
</trkpt>
<trkpt lat="45.9199700" lon="9.5765650">
	<ele>1227.40</ele>
	<time>2023-10-07T12:49:34.000Z</time>
</trkpt>
<trkpt lat="45.9199780" lon="9.5765830">
	<ele>1227.40</ele>
	<time>2023-10-07T12:49:35.000Z</time>
</trkpt>
<trkpt lat="45.9199800" lon="9.5766040">
	<ele>1227.20</ele>
	<time>2023-10-07T12:49:36.000Z</time>
</trkpt>
<trkpt lat="45.9199810" lon="9.5766280">
	<ele>1227.20</ele>
	<time>2023-10-07T12:49:37.000Z</time>
</trkpt>
<trkpt lat="45.9199830" lon="9.5766470">
	<ele>1227.00</ele>
	<time>2023-10-07T12:49:38.000Z</time>
</trkpt>
<trkpt lat="45.9199920" lon="9.5766620">
	<ele>1227.00</ele>
	<time>2023-10-07T12:49:39.000Z</time>
</trkpt>
<trkpt lat="45.9199980" lon="9.5766730">
	<ele>1227.00</ele>
	<time>2023-10-07T12:49:40.000Z</time>
</trkpt>
<trkpt lat="45.9200040" lon="9.5766870">
	<ele>1227.00</ele>
	<time>2023-10-07T12:49:41.000Z</time>
</trkpt>
<trkpt lat="45.9200060" lon="9.5767110">
	<ele>1227.00</ele>
	<time>2023-10-07T12:49:42.000Z</time>
</trkpt>
<trkpt lat="45.9200150" lon="9.5767330">
	<ele>1227.00</ele>
	<time>2023-10-07T12:49:43.000Z</time>
</trkpt>
<trkpt lat="45.9200290" lon="9.5767440">
	<ele>1227.00</ele>
	<time>2023-10-07T12:49:44.000Z</time>
</trkpt>
<trkpt lat="45.9200410" lon="9.5767550">
	<ele>1227.00</ele>
	<time>2023-10-07T12:49:45.000Z</time>
</trkpt>
<trkpt lat="45.9200480" lon="9.5767660">
	<ele>1227.00</ele>
	<time>2023-10-07T12:49:46.000Z</time>
</trkpt>
<trkpt lat="45.9200550" lon="9.5767800">
	<ele>1227.00</ele>
	<time>2023-10-07T12:49:47.000Z</time>
</trkpt>
<trkpt lat="45.9200550" lon="9.5767960">
	<ele>1227.00</ele>
	<time>2023-10-07T12:49:48.000Z</time>
</trkpt>
<trkpt lat="45.9200590" lon="9.5768070">
	<ele>1227.00</ele>
	<time>2023-10-07T12:49:49.000Z</time>
</trkpt>
<trkpt lat="45.9200580" lon="9.5768140">
	<ele>1227.00</ele>
	<time>2023-10-07T12:49:50.000Z</time>
</trkpt>
<trkpt lat="45.9200620" lon="9.5768260">
	<ele>1227.00</ele>
	<time>2023-10-07T12:49:51.000Z</time>
</trkpt>
<trkpt lat="45.9200680" lon="9.5768380">
	<ele>1227.00</ele>
	<time>2023-10-07T12:49:52.000Z</time>
</trkpt>
<trkpt lat="45.9200690" lon="9.5768450">
	<ele>1226.80</ele>
	<time>2023-10-07T12:49:53.000Z</time>
</trkpt>
<trkpt lat="45.9200720" lon="9.5768560">
	<ele>1226.80</ele>
	<time>2023-10-07T12:49:54.000Z</time>
</trkpt>
<trkpt lat="45.9200790" lon="9.5768660">
	<ele>1226.40</ele>
	<time>2023-10-07T12:49:55.000Z</time>
</trkpt>
<trkpt lat="45.9200850" lon="9.5768780">
	<ele>1226.20</ele>
	<time>2023-10-07T12:49:56.000Z</time>
</trkpt>
<trkpt lat="45.9200860" lon="9.5768950">
	<ele>1226.00</ele>
	<time>2023-10-07T12:49:57.000Z</time>
</trkpt>
<trkpt lat="45.9200880" lon="9.5769090">
	<ele>1225.80</ele>
	<time>2023-10-07T12:49:58.000Z</time>
</trkpt>
<trkpt lat="45.9200840" lon="9.5769370">
	<ele>1225.60</ele>
	<time>2023-10-07T12:49:59.000Z</time>
</trkpt>
<trkpt lat="45.9200770" lon="9.5769630">
	<ele>1225.40</ele>
	<time>2023-10-07T12:50:00.000Z</time>
</trkpt>
<trkpt lat="45.9200820" lon="9.5769760">
	<ele>1225.20</ele>
	<time>2023-10-07T12:50:01.000Z</time>
</trkpt>
<trkpt lat="45.9200970" lon="9.5769800">
	<ele>1225.00</ele>
	<time>2023-10-07T12:50:02.000Z</time>
</trkpt>
<trkpt lat="45.9201080" lon="9.5769900">
	<ele>1225.00</ele>
	<time>2023-10-07T12:50:03.000Z</time>
</trkpt>
<trkpt lat="45.9201190" lon="9.5770050">
	<ele>1225.00</ele>
	<time>2023-10-07T12:50:04.000Z</time>
</trkpt>
<trkpt lat="45.9201350" lon="9.5770220">
	<ele>1224.80</ele>
	<time>2023-10-07T12:50:05.000Z</time>
</trkpt>
<trkpt lat="45.9201430" lon="9.5770370">
	<ele>1224.80</ele>
	<time>2023-10-07T12:50:06.000Z</time>
</trkpt>
<trkpt lat="45.9201560" lon="9.5770460">
	<ele>1224.80</ele>
	<time>2023-10-07T12:50:07.000Z</time>
</trkpt>
<trkpt lat="45.9201640" lon="9.5770480">
	<ele>1224.80</ele>
	<time>2023-10-07T12:50:08.000Z</time>
</trkpt>
<trkpt lat="45.9201760" lon="9.5770530">
	<ele>1224.80</ele>
	<time>2023-10-07T12:50:09.000Z</time>
</trkpt>
<trkpt lat="45.9201860" lon="9.5770590">
	<ele>1224.80</ele>
	<time>2023-10-07T12:50:10.000Z</time>
</trkpt>
<trkpt lat="45.9201980" lon="9.5770670">
	<ele>1224.80</ele>
	<time>2023-10-07T12:50:11.000Z</time>
</trkpt>
<trkpt lat="45.9202080" lon="9.5770720">
	<ele>1224.80</ele>
	<time>2023-10-07T12:50:12.000Z</time>
</trkpt>
<trkpt lat="45.9202210" lon="9.5770830">
	<ele>1224.80</ele>
	<time>2023-10-07T12:50:13.000Z</time>
</trkpt>
<trkpt lat="45.9202360" lon="9.5770930">
	<ele>1224.80</ele>
	<time>2023-10-07T12:50:14.000Z</time>
</trkpt>
<trkpt lat="45.9202530" lon="9.5771060">
	<ele>1224.60</ele>
	<time>2023-10-07T12:50:15.000Z</time>
</trkpt>
<trkpt lat="45.9202650" lon="9.5771250">
	<ele>1224.60</ele>
	<time>2023-10-07T12:50:16.000Z</time>
</trkpt>
<trkpt lat="45.9202660" lon="9.5771430">
	<ele>1224.40</ele>
	<time>2023-10-07T12:50:17.000Z</time>
</trkpt>
<trkpt lat="45.9202720" lon="9.5771680">
	<ele>1224.40</ele>
	<time>2023-10-07T12:50:18.000Z</time>
</trkpt>
<trkpt lat="45.9202820" lon="9.5771830">
	<ele>1224.40</ele>
	<time>2023-10-07T12:50:19.000Z</time>
</trkpt>
<trkpt lat="45.9202980" lon="9.5771810">
	<ele>1224.40</ele>
	<time>2023-10-07T12:50:20.000Z</time>
</trkpt>
<trkpt lat="45.9203080" lon="9.5771890">
	<ele>1224.20</ele>
	<time>2023-10-07T12:50:21.000Z</time>
</trkpt>
<trkpt lat="45.9203130" lon="9.5771970">
	<ele>1224.20</ele>
	<time>2023-10-07T12:50:22.000Z</time>
</trkpt>
<trkpt lat="45.9203190" lon="9.5772100">
	<ele>1224.20</ele>
	<time>2023-10-07T12:50:23.000Z</time>
</trkpt>
<trkpt lat="45.9203330" lon="9.5772280">
	<ele>1224.00</ele>
	<time>2023-10-07T12:50:24.000Z</time>
</trkpt>
<trkpt lat="45.9203440" lon="9.5772450">
	<ele>1223.80</ele>
	<time>2023-10-07T12:50:25.000Z</time>
</trkpt>
<trkpt lat="45.9203540" lon="9.5772630">
	<ele>1223.40</ele>
	<time>2023-10-07T12:50:26.000Z</time>
</trkpt>
<trkpt lat="45.9203640" lon="9.5772800">
	<ele>1223.20</ele>
	<time>2023-10-07T12:50:27.000Z</time>
</trkpt>
<trkpt lat="45.9203700" lon="9.5772970">
	<ele>1223.00</ele>
	<time>2023-10-07T12:50:28.000Z</time>
</trkpt>
<trkpt lat="45.9203760" lon="9.5773130">
	<ele>1222.80</ele>
	<time>2023-10-07T12:50:29.000Z</time>
</trkpt>
<trkpt lat="45.9203800" lon="9.5773310">
	<ele>1222.60</ele>
	<time>2023-10-07T12:50:30.000Z</time>
</trkpt>
<trkpt lat="45.9203880" lon="9.5773480">
	<ele>1222.20</ele>
	<time>2023-10-07T12:50:31.000Z</time>
</trkpt>
<trkpt lat="45.9204000" lon="9.5773620">
	<ele>1221.80</ele>
	<time>2023-10-07T12:50:32.000Z</time>
</trkpt>
<trkpt lat="45.9204070" lon="9.5773820">
	<ele>1221.60</ele>
	<time>2023-10-07T12:50:33.000Z</time>
</trkpt>
<trkpt lat="45.9204150" lon="9.5773970">
	<ele>1221.60</ele>
	<time>2023-10-07T12:50:34.000Z</time>
</trkpt>
<trkpt lat="45.9204250" lon="9.5774050">
	<ele>1221.20</ele>
	<time>2023-10-07T12:50:35.000Z</time>
</trkpt>
<trkpt lat="45.9204400" lon="9.5774160">
	<ele>1221.20</ele>
	<time>2023-10-07T12:50:36.000Z</time>
</trkpt>
<trkpt lat="45.9204490" lon="9.5774280">
	<ele>1221.00</ele>
	<time>2023-10-07T12:50:37.000Z</time>
</trkpt>
<trkpt lat="45.9204690" lon="9.5774380">
	<ele>1221.00</ele>
	<time>2023-10-07T12:50:38.000Z</time>
</trkpt>
<trkpt lat="45.9204830" lon="9.5774470">
	<ele>1220.80</ele>
	<time>2023-10-07T12:50:39.000Z</time>
</trkpt>
<trkpt lat="45.9204860" lon="9.5774520">
	<ele>1220.80</ele>
	<time>2023-10-07T12:50:40.000Z</time>
</trkpt>
<trkpt lat="45.9204960" lon="9.5774600">
	<ele>1220.60</ele>
	<time>2023-10-07T12:50:41.000Z</time>
</trkpt>
<trkpt lat="45.9205040" lon="9.5774760">
	<ele>1220.40</ele>
	<time>2023-10-07T12:50:42.000Z</time>
</trkpt>
<trkpt lat="45.9205000" lon="9.5774880">
	<ele>1220.20</ele>
	<time>2023-10-07T12:50:43.000Z</time>
</trkpt>
<trkpt lat="45.9205010" lon="9.5775000">
	<ele>1220.00</ele>
	<time>2023-10-07T12:50:44.000Z</time>
</trkpt>
<trkpt lat="45.9205120" lon="9.5775100">
	<ele>1219.80</ele>
	<time>2023-10-07T12:50:45.000Z</time>
</trkpt>
<trkpt lat="45.9205210" lon="9.5775250">
	<ele>1219.60</ele>
	<time>2023-10-07T12:50:46.000Z</time>
</trkpt>
<trkpt lat="45.9205270" lon="9.5775350">
	<ele>1219.40</ele>
	<time>2023-10-07T12:50:47.000Z</time>
</trkpt>
<trkpt lat="45.9205370" lon="9.5775550">
	<ele>1219.40</ele>
	<time>2023-10-07T12:50:48.000Z</time>
</trkpt>
<trkpt lat="45.9205460" lon="9.5775710">
	<ele>1219.20</ele>
	<time>2023-10-07T12:50:49.000Z</time>
</trkpt>
<trkpt lat="45.9205480" lon="9.5775900">
	<ele>1219.00</ele>
	<time>2023-10-07T12:50:50.000Z</time>
</trkpt>
<trkpt lat="45.9205480" lon="9.5776060">
	<ele>1218.60</ele>
	<time>2023-10-07T12:50:51.000Z</time>
</trkpt>
<trkpt lat="45.9205580" lon="9.5776190">
	<ele>1218.60</ele>
	<time>2023-10-07T12:50:52.000Z</time>
</trkpt>
<trkpt lat="45.9205630" lon="9.5776350">
	<ele>1218.40</ele>
	<time>2023-10-07T12:50:53.000Z</time>
</trkpt>
<trkpt lat="45.9205710" lon="9.5776470">
	<ele>1218.20</ele>
	<time>2023-10-07T12:50:54.000Z</time>
</trkpt>
<trkpt lat="45.9205830" lon="9.5776580">
	<ele>1218.20</ele>
	<time>2023-10-07T12:50:55.000Z</time>
</trkpt>
<trkpt lat="45.9205880" lon="9.5776680">
	<ele>1218.00</ele>
	<time>2023-10-07T12:50:56.000Z</time>
</trkpt>
<trkpt lat="45.9205920" lon="9.5776790">
	<ele>1218.00</ele>
	<time>2023-10-07T12:50:57.000Z</time>
</trkpt>
<trkpt lat="45.9205940" lon="9.5776860">
	<ele>1217.80</ele>
	<time>2023-10-07T12:50:58.000Z</time>
</trkpt>
<trkpt lat="45.9205990" lon="9.5776950">
	<ele>1217.80</ele>
	<time>2023-10-07T12:50:59.000Z</time>
</trkpt>
<trkpt lat="45.9206030" lon="9.5776990">
	<ele>1217.80</ele>
	<time>2023-10-07T12:51:00.000Z</time>
</trkpt>
<trkpt lat="45.9206040" lon="9.5777070">
	<ele>1217.60</ele>
	<time>2023-10-07T12:51:01.000Z</time>
</trkpt>
<trkpt lat="45.9206020" lon="9.5777240">
	<ele>1217.40</ele>
	<time>2023-10-07T12:51:02.000Z</time>
</trkpt>
<trkpt lat="45.9206070" lon="9.5777250">
	<ele>1217.40</ele>
	<time>2023-10-07T12:51:03.000Z</time>
</trkpt>
<trkpt lat="45.9206170" lon="9.5777300">
	<ele>1217.40</ele>
	<time>2023-10-07T12:51:04.000Z</time>
</trkpt>
<trkpt lat="45.9206290" lon="9.5777390">
	<ele>1217.20</ele>
	<time>2023-10-07T12:51:05.000Z</time>
</trkpt>
<trkpt lat="45.9206390" lon="9.5777480">
	<ele>1217.20</ele>
	<time>2023-10-07T12:51:06.000Z</time>
</trkpt>
<trkpt lat="45.9206520" lon="9.5777570">
	<ele>1217.60</ele>
	<time>2023-10-07T12:51:07.000Z</time>
</trkpt>
<trkpt lat="45.9206570" lon="9.5777710">
	<ele>1217.80</ele>
	<time>2023-10-07T12:51:08.000Z</time>
</trkpt>
<trkpt lat="45.9206560" lon="9.5777910">
	<ele>1218.00</ele>
	<time>2023-10-07T12:51:09.000Z</time>
</trkpt>
<trkpt lat="45.9206590" lon="9.5778070">
	<ele>1218.00</ele>
	<time>2023-10-07T12:51:10.000Z</time>
</trkpt>
<trkpt lat="45.9206720" lon="9.5778280">
	<ele>1218.00</ele>
	<time>2023-10-07T12:51:11.000Z</time>
</trkpt>
<trkpt lat="45.9206800" lon="9.5778430">
	<ele>1218.00</ele>
	<time>2023-10-07T12:51:12.000Z</time>
</trkpt>
<trkpt lat="45.9206950" lon="9.5778580">
	<ele>1218.00</ele>
	<time>2023-10-07T12:51:13.000Z</time>
</trkpt>
<trkpt lat="45.9207080" lon="9.5778710">
	<ele>1217.80</ele>
	<time>2023-10-07T12:51:14.000Z</time>
</trkpt>
<trkpt lat="45.9207160" lon="9.5778890">
	<ele>1217.80</ele>
	<time>2023-10-07T12:51:15.000Z</time>
</trkpt>
<trkpt lat="45.9207310" lon="9.5779010">
	<ele>1217.80</ele>
	<time>2023-10-07T12:51:16.000Z</time>
</trkpt>
<trkpt lat="45.9207400" lon="9.5779150">
	<ele>1217.60</ele>
	<time>2023-10-07T12:51:17.000Z</time>
</trkpt>
<trkpt lat="45.9207450" lon="9.5779280">
	<ele>1217.80</ele>
	<time>2023-10-07T12:51:18.000Z</time>
</trkpt>
<trkpt lat="45.9207490" lon="9.5779410">
	<ele>1217.80</ele>
	<time>2023-10-07T12:51:19.000Z</time>
</trkpt>
<trkpt lat="45.9207520" lon="9.5779540">
	<ele>1217.60</ele>
	<time>2023-10-07T12:51:20.000Z</time>
</trkpt>
<trkpt lat="45.9207520" lon="9.5779720">
	<ele>1217.60</ele>
	<time>2023-10-07T12:51:21.000Z</time>
</trkpt>
<trkpt lat="45.9207580" lon="9.5779920">
	<ele>1217.60</ele>
	<time>2023-10-07T12:51:22.000Z</time>
</trkpt>
<trkpt lat="45.9207660" lon="9.5780100">
	<ele>1217.60</ele>
	<time>2023-10-07T12:51:23.000Z</time>
</trkpt>
<trkpt lat="45.9207770" lon="9.5780250">
	<ele>1217.40</ele>
	<time>2023-10-07T12:51:24.000Z</time>
</trkpt>
<trkpt lat="45.9207850" lon="9.5780380">
	<ele>1217.40</ele>
	<time>2023-10-07T12:51:25.000Z</time>
</trkpt>
<trkpt lat="45.9207960" lon="9.5780560">
	<ele>1217.40</ele>
	<time>2023-10-07T12:51:26.000Z</time>
</trkpt>
<trkpt lat="45.9208010" lon="9.5780680">
	<ele>1217.40</ele>
	<time>2023-10-07T12:51:27.000Z</time>
</trkpt>
<trkpt lat="45.9208090" lon="9.5780790">
	<ele>1217.40</ele>
	<time>2023-10-07T12:51:28.000Z</time>
</trkpt>
<trkpt lat="45.9208190" lon="9.5780850">
	<ele>1217.40</ele>
	<time>2023-10-07T12:51:29.000Z</time>
</trkpt>
<trkpt lat="45.9208310" lon="9.5780870">
	<ele>1217.60</ele>
	<time>2023-10-07T12:51:30.000Z</time>
</trkpt>
<trkpt lat="45.9208390" lon="9.5780930">
	<ele>1217.60</ele>
	<time>2023-10-07T12:51:31.000Z</time>
</trkpt>
<trkpt lat="45.9208480" lon="9.5781020">
	<ele>1217.80</ele>
	<time>2023-10-07T12:51:32.000Z</time>
</trkpt>
<trkpt lat="45.9208680" lon="9.5781180">
	<ele>1217.80</ele>
	<time>2023-10-07T12:51:33.000Z</time>
</trkpt>
<trkpt lat="45.9208790" lon="9.5781340">
	<ele>1218.00</ele>
	<time>2023-10-07T12:51:34.000Z</time>
</trkpt>
<trkpt lat="45.9208880" lon="9.5781510">
	<ele>1218.00</ele>
	<time>2023-10-07T12:51:35.000Z</time>
</trkpt>
<trkpt lat="45.9209020" lon="9.5781590">
	<ele>1217.80</ele>
	<time>2023-10-07T12:51:36.000Z</time>
</trkpt>
<trkpt lat="45.9209150" lon="9.5781750">
	<ele>1217.60</ele>
	<time>2023-10-07T12:51:37.000Z</time>
</trkpt>
<trkpt lat="45.9209410" lon="9.5781880">
	<ele>1217.40</ele>
	<time>2023-10-07T12:51:38.000Z</time>
</trkpt>
<trkpt lat="45.9209680" lon="9.5781980">
	<ele>1217.20</ele>
	<time>2023-10-07T12:51:39.000Z</time>
</trkpt>
<trkpt lat="45.9209820" lon="9.5782130">
	<ele>1217.20</ele>
	<time>2023-10-07T12:51:40.000Z</time>
</trkpt>
<trkpt lat="45.9209950" lon="9.5782230">
	<ele>1216.80</ele>
	<time>2023-10-07T12:51:41.000Z</time>
</trkpt>
<trkpt lat="45.9210050" lon="9.5782430">
	<ele>1216.60</ele>
	<time>2023-10-07T12:51:42.000Z</time>
</trkpt>
<trkpt lat="45.9210090" lon="9.5782710">
	<ele>1216.60</ele>
	<time>2023-10-07T12:51:43.000Z</time>
</trkpt>
<trkpt lat="45.9209960" lon="9.5782990">
	<ele>1216.60</ele>
	<time>2023-10-07T12:51:44.000Z</time>
</trkpt>
<trkpt lat="45.9209850" lon="9.5783290">
	<ele>1216.60</ele>
	<time>2023-10-07T12:51:45.000Z</time>
</trkpt>
<trkpt lat="45.9209860" lon="9.5783440">
	<ele>1216.60</ele>
	<time>2023-10-07T12:51:46.000Z</time>
</trkpt>
<trkpt lat="45.9209820" lon="9.5783430">
	<ele>1216.60</ele>
	<time>2023-10-07T12:51:47.000Z</time>
</trkpt>
<trkpt lat="45.9209730" lon="9.5783500">
	<ele>1216.60</ele>
	<time>2023-10-07T12:51:48.000Z</time>
</trkpt>
<trkpt lat="45.9209820" lon="9.5783640">
	<ele>1216.60</ele>
	<time>2023-10-07T12:51:49.000Z</time>
</trkpt>
<trkpt lat="45.9209950" lon="9.5783800">
	<ele>1216.40</ele>
	<time>2023-10-07T12:51:50.000Z</time>
</trkpt>
<trkpt lat="45.9210050" lon="9.5783950">
	<ele>1216.40</ele>
	<time>2023-10-07T12:51:51.000Z</time>
</trkpt>
<trkpt lat="45.9209970" lon="9.5784100">
	<ele>1216.40</ele>
	<time>2023-10-07T12:51:52.000Z</time>
</trkpt>
<trkpt lat="45.9209940" lon="9.5784120">
	<ele>1216.40</ele>
	<time>2023-10-07T12:51:53.000Z</time>
</trkpt>
<trkpt lat="45.9209960" lon="9.5784300">
	<ele>1216.20</ele>
	<time>2023-10-07T12:51:54.000Z</time>
</trkpt>
<trkpt lat="45.9210110" lon="9.5784390">
	<ele>1216.20</ele>
	<time>2023-10-07T12:51:55.000Z</time>
</trkpt>
<trkpt lat="45.9210330" lon="9.5784500">
	<ele>1216.00</ele>
	<time>2023-10-07T12:51:56.000Z</time>
</trkpt>
<trkpt lat="45.9210360" lon="9.5784610">
	<ele>1216.00</ele>
	<time>2023-10-07T12:51:57.000Z</time>
</trkpt>
<trkpt lat="45.9210330" lon="9.5784630">
	<ele>1215.60</ele>
	<time>2023-10-07T12:51:58.000Z</time>
</trkpt>
<trkpt lat="45.9210260" lon="9.5784730">
	<ele>1215.40</ele>
	<time>2023-10-07T12:51:59.000Z</time>
</trkpt>
<trkpt lat="45.9210240" lon="9.5784800">
	<ele>1215.20</ele>
	<time>2023-10-07T12:52:00.000Z</time>
</trkpt>
<trkpt lat="45.9210240" lon="9.5785000">
	<ele>1215.00</ele>
	<time>2023-10-07T12:52:01.000Z</time>
</trkpt>
<trkpt lat="45.9210300" lon="9.5785180">
	<ele>1215.00</ele>
	<time>2023-10-07T12:52:02.000Z</time>
</trkpt>
<trkpt lat="45.9210300" lon="9.5785410">
	<ele>1215.00</ele>
	<time>2023-10-07T12:52:03.000Z</time>
</trkpt>
<trkpt lat="45.9210400" lon="9.5785670">
	<ele>1214.80</ele>
	<time>2023-10-07T12:52:04.000Z</time>
</trkpt>
<trkpt lat="45.9210670" lon="9.5785710">
	<ele>1214.60</ele>
	<time>2023-10-07T12:52:05.000Z</time>
</trkpt>
<trkpt lat="45.9210820" lon="9.5785880">
	<ele>1214.40</ele>
	<time>2023-10-07T12:52:06.000Z</time>
</trkpt>
<trkpt lat="45.9210840" lon="9.5785940">
	<ele>1214.20</ele>
	<time>2023-10-07T12:52:07.000Z</time>
</trkpt>
<trkpt lat="45.9210840" lon="9.5786040">
	<ele>1214.00</ele>
	<time>2023-10-07T12:52:08.000Z</time>
</trkpt>
<trkpt lat="45.9210880" lon="9.5786130">
	<ele>1213.80</ele>
	<time>2023-10-07T12:52:09.000Z</time>
</trkpt>
<trkpt lat="45.9210900" lon="9.5786190">
	<ele>1213.80</ele>
	<time>2023-10-07T12:52:10.000Z</time>
</trkpt>
<trkpt lat="45.9210980" lon="9.5786220">
	<ele>1213.60</ele>
	<time>2023-10-07T12:52:11.000Z</time>
</trkpt>
<trkpt lat="45.9211180" lon="9.5786320">
	<ele>1213.60</ele>
	<time>2023-10-07T12:52:12.000Z</time>
</trkpt>
<trkpt lat="45.9211230" lon="9.5786500">
	<ele>1213.40</ele>
	<time>2023-10-07T12:52:13.000Z</time>
</trkpt>
<trkpt lat="45.9211270" lon="9.5786590">
	<ele>1213.20</ele>
	<time>2023-10-07T12:52:14.000Z</time>
</trkpt>
<trkpt lat="45.9211250" lon="9.5786720">
	<ele>1212.80</ele>
	<time>2023-10-07T12:52:15.000Z</time>
</trkpt>
<trkpt lat="45.9211320" lon="9.5786830">
	<ele>1212.80</ele>
	<time>2023-10-07T12:52:16.000Z</time>
</trkpt>
<trkpt lat="45.9211350" lon="9.5787030">
	<ele>1212.60</ele>
	<time>2023-10-07T12:52:17.000Z</time>
</trkpt>
<trkpt lat="45.9211450" lon="9.5787220">
	<ele>1212.40</ele>
	<time>2023-10-07T12:52:18.000Z</time>
</trkpt>
<trkpt lat="45.9211430" lon="9.5787240">
	<ele>1212.20</ele>
	<time>2023-10-07T12:52:19.000Z</time>
</trkpt>
<trkpt lat="45.9211460" lon="9.5787410">
	<ele>1212.20</ele>
	<time>2023-10-07T12:52:20.000Z</time>
</trkpt>
<trkpt lat="45.9211480" lon="9.5787590">
	<ele>1212.00</ele>
	<time>2023-10-07T12:52:21.000Z</time>
</trkpt>
<trkpt lat="45.9211540" lon="9.5787740">
	<ele>1211.80</ele>
	<time>2023-10-07T12:52:22.000Z</time>
</trkpt>
<trkpt lat="45.9211670" lon="9.5787920">
	<ele>1211.60</ele>
	<time>2023-10-07T12:52:23.000Z</time>
</trkpt>
<trkpt lat="45.9211810" lon="9.5788090">
	<ele>1211.40</ele>
	<time>2023-10-07T12:52:24.000Z</time>
</trkpt>
<trkpt lat="45.9211900" lon="9.5788180">
	<ele>1211.20</ele>
	<time>2023-10-07T12:52:25.000Z</time>
</trkpt>
<trkpt lat="45.9211930" lon="9.5788280">
	<ele>1211.00</ele>
	<time>2023-10-07T12:52:26.000Z</time>
</trkpt>
<trkpt lat="45.9211960" lon="9.5788410">
	<ele>1210.80</ele>
	<time>2023-10-07T12:52:27.000Z</time>
</trkpt>
<trkpt lat="45.9212010" lon="9.5788520">
	<ele>1210.60</ele>
	<time>2023-10-07T12:52:28.000Z</time>
</trkpt>
<trkpt lat="45.9212150" lon="9.5788820">
	<ele>1210.60</ele>
	<time>2023-10-07T12:52:29.000Z</time>
</trkpt>
<trkpt lat="45.9212380" lon="9.5789150">
	<ele>1210.40</ele>
	<time>2023-10-07T12:52:30.000Z</time>
</trkpt>
<trkpt lat="45.9212550" lon="9.5789490">
	<ele>1210.20</ele>
	<time>2023-10-07T12:52:31.000Z</time>
</trkpt>
<trkpt lat="45.9212710" lon="9.5789730">
	<ele>1210.20</ele>
	<time>2023-10-07T12:52:32.000Z</time>
</trkpt>
<trkpt lat="45.9212780" lon="9.5789920">
	<ele>1210.20</ele>
	<time>2023-10-07T12:52:33.000Z</time>
</trkpt>
<trkpt lat="45.9212850" lon="9.5790060">
	<ele>1210.00</ele>
	<time>2023-10-07T12:52:34.000Z</time>
</trkpt>
<trkpt lat="45.9212940" lon="9.5790160">
	<ele>1209.80</ele>
	<time>2023-10-07T12:52:35.000Z</time>
</trkpt>
<trkpt lat="45.9212950" lon="9.5790280">
	<ele>1209.80</ele>
	<time>2023-10-07T12:52:36.000Z</time>
</trkpt>
<trkpt lat="45.9212960" lon="9.5790490">
	<ele>1209.60</ele>
	<time>2023-10-07T12:52:37.000Z</time>
</trkpt>
<trkpt lat="45.9212930" lon="9.5790650">
	<ele>1209.40</ele>
	<time>2023-10-07T12:52:38.000Z</time>
</trkpt>
<trkpt lat="45.9212910" lon="9.5790780">
	<ele>1209.20</ele>
	<time>2023-10-07T12:52:39.000Z</time>
</trkpt>
<trkpt lat="45.9212950" lon="9.5790900">
	<ele>1208.60</ele>
	<time>2023-10-07T12:52:40.000Z</time>
</trkpt>
<trkpt lat="45.9212980" lon="9.5791110">
	<ele>1208.40</ele>
	<time>2023-10-07T12:52:41.000Z</time>
</trkpt>
<trkpt lat="45.9213000" lon="9.5791290">
	<ele>1208.20</ele>
	<time>2023-10-07T12:52:42.000Z</time>
</trkpt>
<trkpt lat="45.9212990" lon="9.5791480">
	<ele>1208.00</ele>
	<time>2023-10-07T12:52:43.000Z</time>
</trkpt>
<trkpt lat="45.9213010" lon="9.5791690">
	<ele>1208.00</ele>
	<time>2023-10-07T12:52:44.000Z</time>
</trkpt>
<trkpt lat="45.9213080" lon="9.5791830">
	<ele>1207.80</ele>
	<time>2023-10-07T12:52:45.000Z</time>
</trkpt>
<trkpt lat="45.9213180" lon="9.5791990">
	<ele>1207.60</ele>
	<time>2023-10-07T12:52:46.000Z</time>
</trkpt>
<trkpt lat="45.9213300" lon="9.5792190">
	<ele>1207.40</ele>
	<time>2023-10-07T12:52:47.000Z</time>
</trkpt>
<trkpt lat="45.9213370" lon="9.5792250">
	<ele>1207.20</ele>
	<time>2023-10-07T12:52:48.000Z</time>
</trkpt>
<trkpt lat="45.9213460" lon="9.5792300">
	<ele>1207.20</ele>
	<time>2023-10-07T12:52:49.000Z</time>
</trkpt>
<trkpt lat="45.9213520" lon="9.5792390">
	<ele>1207.20</ele>
	<time>2023-10-07T12:52:50.000Z</time>
</trkpt>
<trkpt lat="45.9213570" lon="9.5792490">
	<ele>1207.00</ele>
	<time>2023-10-07T12:52:51.000Z</time>
</trkpt>
<trkpt lat="45.9213630" lon="9.5792540">
	<ele>1207.00</ele>
	<time>2023-10-07T12:52:52.000Z</time>
</trkpt>
<trkpt lat="45.9213660" lon="9.5792590">
	<ele>1206.80</ele>
	<time>2023-10-07T12:52:53.000Z</time>
</trkpt>
<trkpt lat="45.9213690" lon="9.5792690">
	<ele>1206.60</ele>
	<time>2023-10-07T12:52:54.000Z</time>
</trkpt>
<trkpt lat="45.9213730" lon="9.5792830">
	<ele>1206.60</ele>
	<time>2023-10-07T12:52:55.000Z</time>
</trkpt>
<trkpt lat="45.9213700" lon="9.5793050">
	<ele>1206.20</ele>
	<time>2023-10-07T12:52:56.000Z</time>
</trkpt>
<trkpt lat="45.9213910" lon="9.5793190">
	<ele>1206.00</ele>
	<time>2023-10-07T12:52:57.000Z</time>
</trkpt>
<trkpt lat="45.9214040" lon="9.5793290">
	<ele>1205.60</ele>
	<time>2023-10-07T12:52:58.000Z</time>
</trkpt>
<trkpt lat="45.9213980" lon="9.5793440">
	<ele>1205.60</ele>
	<time>2023-10-07T12:52:59.000Z</time>
</trkpt>
<trkpt lat="45.9214050" lon="9.5793530">
	<ele>1205.40</ele>
	<time>2023-10-07T12:53:00.000Z</time>
</trkpt>
<trkpt lat="45.9214250" lon="9.5793680">
	<ele>1205.00</ele>
	<time>2023-10-07T12:53:01.000Z</time>
</trkpt>
<trkpt lat="45.9214340" lon="9.5793830">
	<ele>1204.80</ele>
	<time>2023-10-07T12:53:02.000Z</time>
</trkpt>
<trkpt lat="45.9214320" lon="9.5794030">
	<ele>1204.80</ele>
	<time>2023-10-07T12:53:03.000Z</time>
</trkpt>
<trkpt lat="45.9214300" lon="9.5794180">
	<ele>1204.40</ele>
	<time>2023-10-07T12:53:04.000Z</time>
</trkpt>
<trkpt lat="45.9214310" lon="9.5794260">
	<ele>1204.20</ele>
	<time>2023-10-07T12:53:05.000Z</time>
</trkpt>
<trkpt lat="45.9214370" lon="9.5794320">
	<ele>1204.20</ele>
	<time>2023-10-07T12:53:06.000Z</time>
</trkpt>
<trkpt lat="45.9214420" lon="9.5794440">
	<ele>1204.00</ele>
	<time>2023-10-07T12:53:07.000Z</time>
</trkpt>
<trkpt lat="45.9214480" lon="9.5794560">
	<ele>1203.80</ele>
	<time>2023-10-07T12:53:08.000Z</time>
</trkpt>
<trkpt lat="45.9214510" lon="9.5794670">
	<ele>1203.80</ele>
	<time>2023-10-07T12:53:09.000Z</time>
</trkpt>
<trkpt lat="45.9214610" lon="9.5794770">
	<ele>1203.60</ele>
	<time>2023-10-07T12:53:10.000Z</time>
</trkpt>
<trkpt lat="45.9214700" lon="9.5794890">
	<ele>1203.60</ele>
	<time>2023-10-07T12:53:11.000Z</time>
</trkpt>
<trkpt lat="45.9214740" lon="9.5795040">
	<ele>1203.40</ele>
	<time>2023-10-07T12:53:12.000Z</time>
</trkpt>
<trkpt lat="45.9214830" lon="9.5795130">
	<ele>1203.20</ele>
	<time>2023-10-07T12:53:13.000Z</time>
</trkpt>
<trkpt lat="45.9214840" lon="9.5795260">
	<ele>1203.00</ele>
	<time>2023-10-07T12:53:14.000Z</time>
</trkpt>
<trkpt lat="45.9214890" lon="9.5795370">
	<ele>1202.80</ele>
	<time>2023-10-07T12:53:15.000Z</time>
</trkpt>
<trkpt lat="45.9214980" lon="9.5795490">
	<ele>1202.80</ele>
	<time>2023-10-07T12:53:16.000Z</time>
</trkpt>
<trkpt lat="45.9215070" lon="9.5795650">
	<ele>1202.60</ele>
	<time>2023-10-07T12:53:17.000Z</time>
</trkpt>
<trkpt lat="45.9215110" lon="9.5795780">
	<ele>1202.40</ele>
	<time>2023-10-07T12:53:18.000Z</time>
</trkpt>
<trkpt lat="45.9215220" lon="9.5795870">
	<ele>1202.20</ele>
	<time>2023-10-07T12:53:19.000Z</time>
</trkpt>
<trkpt lat="45.9215300" lon="9.5795940">
	<ele>1202.00</ele>
	<time>2023-10-07T12:53:20.000Z</time>
</trkpt>
<trkpt lat="45.9215350" lon="9.5796060">
	<ele>1202.00</ele>
	<time>2023-10-07T12:53:21.000Z</time>
</trkpt>
<trkpt lat="45.9215420" lon="9.5796150">
	<ele>1201.80</ele>
	<time>2023-10-07T12:53:22.000Z</time>
</trkpt>
<trkpt lat="45.9215480" lon="9.5796220">
	<ele>1201.60</ele>
	<time>2023-10-07T12:53:23.000Z</time>
</trkpt>
<trkpt lat="45.9215500" lon="9.5796330">
	<ele>1201.60</ele>
	<time>2023-10-07T12:53:24.000Z</time>
</trkpt>
<trkpt lat="45.9215470" lon="9.5796470">
	<ele>1201.40</ele>
	<time>2023-10-07T12:53:25.000Z</time>
</trkpt>
<trkpt lat="45.9215480" lon="9.5796490">
	<ele>1201.40</ele>
	<time>2023-10-07T12:53:26.000Z</time>
</trkpt>
<trkpt lat="45.9215510" lon="9.5796500">
	<ele>1201.20</ele>
	<time>2023-10-07T12:53:27.000Z</time>
</trkpt>
<trkpt lat="45.9215520" lon="9.5796640">
	<ele>1200.80</ele>
	<time>2023-10-07T12:53:28.000Z</time>
</trkpt>
<trkpt lat="45.9215520" lon="9.5796780">
	<ele>1200.80</ele>
	<time>2023-10-07T12:53:29.000Z</time>
</trkpt>
<trkpt lat="45.9215620" lon="9.5796890">
	<ele>1200.80</ele>
	<time>2023-10-07T12:53:30.000Z</time>
</trkpt>
<trkpt lat="45.9215720" lon="9.5797070">
	<ele>1200.60</ele>
	<time>2023-10-07T12:53:31.000Z</time>
</trkpt>
<trkpt lat="45.9215840" lon="9.5797230">
	<ele>1200.40</ele>
	<time>2023-10-07T12:53:32.000Z</time>
</trkpt>
<trkpt lat="45.9216020" lon="9.5797360">
	<ele>1200.40</ele>
	<time>2023-10-07T12:53:33.000Z</time>
</trkpt>
<trkpt lat="45.9216200" lon="9.5797500">
	<ele>1200.40</ele>
	<time>2023-10-07T12:53:34.000Z</time>
</trkpt>
<trkpt lat="45.9216380" lon="9.5797640">
	<ele>1200.40</ele>
	<time>2023-10-07T12:53:35.000Z</time>
</trkpt>
<trkpt lat="45.9216490" lon="9.5797760">
	<ele>1200.40</ele>
	<time>2023-10-07T12:53:36.000Z</time>
</trkpt>
<trkpt lat="45.9216510" lon="9.5797950">
	<ele>1200.40</ele>
	<time>2023-10-07T12:53:37.000Z</time>
</trkpt>
<trkpt lat="45.9216480" lon="9.5798110">
	<ele>1200.40</ele>
	<time>2023-10-07T12:53:38.000Z</time>
</trkpt>
<trkpt lat="45.9216480" lon="9.5798280">
	<ele>1200.40</ele>
	<time>2023-10-07T12:53:39.000Z</time>
</trkpt>
<trkpt lat="45.9216520" lon="9.5798490">
	<ele>1200.00</ele>
	<time>2023-10-07T12:53:40.000Z</time>
</trkpt>
<trkpt lat="45.9216580" lon="9.5798620">
	<ele>1199.80</ele>
	<time>2023-10-07T12:53:41.000Z</time>
</trkpt>
<trkpt lat="45.9216620" lon="9.5798760">
	<ele>1199.40</ele>
	<time>2023-10-07T12:53:42.000Z</time>
</trkpt>
<trkpt lat="45.9216570" lon="9.5798900">
	<ele>1199.20</ele>
	<time>2023-10-07T12:53:43.000Z</time>
</trkpt>
<trkpt lat="45.9216570" lon="9.5799010">
	<ele>1199.00</ele>
	<time>2023-10-07T12:53:44.000Z</time>
</trkpt>
<trkpt lat="45.9216610" lon="9.5799160">
	<ele>1198.60</ele>
	<time>2023-10-07T12:53:45.000Z</time>
</trkpt>
<trkpt lat="45.9216690" lon="9.5799340">
	<ele>1198.40</ele>
	<time>2023-10-07T12:53:46.000Z</time>
</trkpt>
<trkpt lat="45.9216710" lon="9.5799520">
	<ele>1198.40</ele>
	<time>2023-10-07T12:53:47.000Z</time>
</trkpt>
<trkpt lat="45.9216730" lon="9.5799730">
	<ele>1198.20</ele>
	<time>2023-10-07T12:53:48.000Z</time>
</trkpt>
<trkpt lat="45.9216810" lon="9.5799910">
	<ele>1198.20</ele>
	<time>2023-10-07T12:53:49.000Z</time>
</trkpt>
<trkpt lat="45.9216910" lon="9.5800090">
	<ele>1198.00</ele>
	<time>2023-10-07T12:53:50.000Z</time>
</trkpt>
<trkpt lat="45.9217030" lon="9.5800260">
	<ele>1197.80</ele>
	<time>2023-10-07T12:53:51.000Z</time>
</trkpt>
<trkpt lat="45.9217170" lon="9.5800420">
	<ele>1197.60</ele>
	<time>2023-10-07T12:53:52.000Z</time>
</trkpt>
<trkpt lat="45.9217330" lon="9.5800580">
	<ele>1197.60</ele>
	<time>2023-10-07T12:53:53.000Z</time>
</trkpt>
<trkpt lat="45.9217470" lon="9.5800710">
	<ele>1197.60</ele>
	<time>2023-10-07T12:53:54.000Z</time>
</trkpt>
<trkpt lat="45.9217580" lon="9.5800840">
	<ele>1197.60</ele>
	<time>2023-10-07T12:53:55.000Z</time>
</trkpt>
<trkpt lat="45.9217610" lon="9.5800980">
	<ele>1197.60</ele>
	<time>2023-10-07T12:53:56.000Z</time>
</trkpt>
<trkpt lat="45.9217640" lon="9.5801090">
	<ele>1197.40</ele>
	<time>2023-10-07T12:53:57.000Z</time>
</trkpt>
<trkpt lat="45.9217640" lon="9.5801230">
	<ele>1197.40</ele>
	<time>2023-10-07T12:53:58.000Z</time>
</trkpt>
<trkpt lat="45.9217640" lon="9.5801370">
	<ele>1197.20</ele>
	<time>2023-10-07T12:53:59.000Z</time>
</trkpt>
<trkpt lat="45.9217640" lon="9.5801500">
	<ele>1197.20</ele>
	<time>2023-10-07T12:54:00.000Z</time>
</trkpt>
<trkpt lat="45.9217640" lon="9.5801610">
	<ele>1197.00</ele>
	<time>2023-10-07T12:54:01.000Z</time>
</trkpt>
<trkpt lat="45.9217660" lon="9.5801770">
	<ele>1196.60</ele>
	<time>2023-10-07T12:54:02.000Z</time>
</trkpt>
<trkpt lat="45.9217700" lon="9.5801910">
	<ele>1196.20</ele>
	<time>2023-10-07T12:54:03.000Z</time>
</trkpt>
<trkpt lat="45.9217760" lon="9.5802050">
	<ele>1196.00</ele>
	<time>2023-10-07T12:54:04.000Z</time>
</trkpt>
<trkpt lat="45.9217850" lon="9.5802190">
	<ele>1196.00</ele>
	<time>2023-10-07T12:54:05.000Z</time>
</trkpt>
<trkpt lat="45.9217980" lon="9.5802330">
	<ele>1195.80</ele>
	<time>2023-10-07T12:54:06.000Z</time>
</trkpt>
<trkpt lat="45.9218110" lon="9.5802460">
	<ele>1195.80</ele>
	<time>2023-10-07T12:54:07.000Z</time>
</trkpt>
<trkpt lat="45.9218240" lon="9.5802570">
	<ele>1195.60</ele>
	<time>2023-10-07T12:54:08.000Z</time>
</trkpt>
<trkpt lat="45.9218370" lon="9.5802740">
	<ele>1195.60</ele>
	<time>2023-10-07T12:54:09.000Z</time>
</trkpt>
<trkpt lat="45.9218430" lon="9.5802920">
	<ele>1195.40</ele>
	<time>2023-10-07T12:54:10.000Z</time>
</trkpt>
<trkpt lat="45.9218480" lon="9.5803090">
	<ele>1195.40</ele>
	<time>2023-10-07T12:54:11.000Z</time>
</trkpt>
<trkpt lat="45.9218520" lon="9.5803240">
	<ele>1195.40</ele>
	<time>2023-10-07T12:54:12.000Z</time>
</trkpt>
<trkpt lat="45.9218580" lon="9.5803400">
	<ele>1195.40</ele>
	<time>2023-10-07T12:54:13.000Z</time>
</trkpt>
<trkpt lat="45.9218590" lon="9.5803640">
	<ele>1195.40</ele>
	<time>2023-10-07T12:54:14.000Z</time>
</trkpt>
<trkpt lat="45.9218580" lon="9.5803830">
	<ele>1195.20</ele>
	<time>2023-10-07T12:54:15.000Z</time>
</trkpt>
<trkpt lat="45.9218600" lon="9.5804000">
	<ele>1195.20</ele>
	<time>2023-10-07T12:54:16.000Z</time>
</trkpt>
<trkpt lat="45.9218630" lon="9.5804110">
	<ele>1195.20</ele>
	<time>2023-10-07T12:54:17.000Z</time>
</trkpt>
<trkpt lat="45.9218690" lon="9.5804200">
	<ele>1195.00</ele>
	<time>2023-10-07T12:54:18.000Z</time>
</trkpt>
<trkpt lat="45.9218790" lon="9.5804330">
	<ele>1194.80</ele>
	<time>2023-10-07T12:54:19.000Z</time>
</trkpt>
<trkpt lat="45.9218870" lon="9.5804500">
	<ele>1194.40</ele>
	<time>2023-10-07T12:54:20.000Z</time>
</trkpt>
<trkpt lat="45.9218920" lon="9.5804650">
	<ele>1194.20</ele>
	<time>2023-10-07T12:54:21.000Z</time>
</trkpt>
<trkpt lat="45.9218920" lon="9.5804790">
	<ele>1194.00</ele>
	<time>2023-10-07T12:54:22.000Z</time>
</trkpt>
<trkpt lat="45.9218930" lon="9.5804940">
	<ele>1193.80</ele>
	<time>2023-10-07T12:54:23.000Z</time>
</trkpt>
<trkpt lat="45.9218840" lon="9.5805130">
	<ele>1193.60</ele>
	<time>2023-10-07T12:54:24.000Z</time>
</trkpt>
<trkpt lat="45.9218830" lon="9.5805270">
	<ele>1193.40</ele>
	<time>2023-10-07T12:54:25.000Z</time>
</trkpt>
<trkpt lat="45.9218850" lon="9.5805420">
	<ele>1193.20</ele>
	<time>2023-10-07T12:54:26.000Z</time>
</trkpt>
<trkpt lat="45.9218830" lon="9.5805550">
	<ele>1193.20</ele>
	<time>2023-10-07T12:54:27.000Z</time>
</trkpt>
<trkpt lat="45.9218820" lon="9.5805680">
	<ele>1192.80</ele>
	<time>2023-10-07T12:54:28.000Z</time>
</trkpt>
<trkpt lat="45.9218800" lon="9.5805850">
	<ele>1192.60</ele>
	<time>2023-10-07T12:54:29.000Z</time>
</trkpt>
<trkpt lat="45.9218780" lon="9.5806000">
	<ele>1192.60</ele>
	<time>2023-10-07T12:54:30.000Z</time>
</trkpt>
<trkpt lat="45.9218820" lon="9.5806140">
	<ele>1192.40</ele>
	<time>2023-10-07T12:54:31.000Z</time>
</trkpt>
<trkpt lat="45.9218880" lon="9.5806260">
	<ele>1192.00</ele>
	<time>2023-10-07T12:54:32.000Z</time>
</trkpt>
<trkpt lat="45.9218940" lon="9.5806350">
	<ele>1192.00</ele>
	<time>2023-10-07T12:54:33.000Z</time>
</trkpt>
<trkpt lat="45.9219010" lon="9.5806440">
	<ele>1191.80</ele>
	<time>2023-10-07T12:54:34.000Z</time>
</trkpt>
<trkpt lat="45.9219070" lon="9.5806560">
	<ele>1191.60</ele>
	<time>2023-10-07T12:54:35.000Z</time>
</trkpt>
<trkpt lat="45.9219090" lon="9.5806630">
	<ele>1191.60</ele>
	<time>2023-10-07T12:54:36.000Z</time>
</trkpt>
<trkpt lat="45.9219140" lon="9.5806690">
	<ele>1191.40</ele>
	<time>2023-10-07T12:54:37.000Z</time>
</trkpt>
<trkpt lat="45.9219140" lon="9.5806710">
	<ele>1191.40</ele>
	<time>2023-10-07T12:54:38.000Z</time>
</trkpt>
<trkpt lat="45.9219140" lon="9.5806760">
	<ele>1191.40</ele>
	<time>2023-10-07T12:54:39.000Z</time>
</trkpt>
<trkpt lat="45.9219120" lon="9.5806750">
	<ele>1191.40</ele>
	<time>2023-10-07T12:54:40.000Z</time>
</trkpt>
<trkpt lat="45.9219130" lon="9.5806750">
	<ele>1191.40</ele>
	<time>2023-10-07T12:54:41.000Z</time>
</trkpt>
<trkpt lat="45.9219120" lon="9.5806760">
	<ele>1191.40</ele>
	<time>2023-10-07T12:54:42.000Z</time>
</trkpt>
<trkpt lat="45.9219120" lon="9.5806740">
	<ele>1191.40</ele>
	<time>2023-10-07T12:54:43.000Z</time>
</trkpt>
<trkpt lat="45.9219090" lon="9.5806740">
	<ele>1191.40</ele>
	<time>2023-10-07T12:54:44.000Z</time>
</trkpt>
<trkpt lat="45.9219070" lon="9.5806730">
	<ele>1191.40</ele>
	<time>2023-10-07T12:54:45.000Z</time>
</trkpt>
<trkpt lat="45.9219070" lon="9.5806720">
	<ele>1191.60</ele>
	<time>2023-10-07T12:54:46.000Z</time>
</trkpt>
<trkpt lat="45.9219070" lon="9.5806710">
	<ele>1191.60</ele>
	<time>2023-10-07T12:54:47.000Z</time>
</trkpt>
<trkpt lat="45.9219080" lon="9.5806700">
	<ele>1191.40</ele>
	<time>2023-10-07T12:54:48.000Z</time>
</trkpt>
<trkpt lat="45.9219090" lon="9.5806700">
	<ele>1191.40</ele>
	<time>2023-10-07T12:54:49.000Z</time>
</trkpt>
<trkpt lat="45.9219090" lon="9.5806700">
	<ele>1191.40</ele>
	<time>2023-10-07T12:54:50.000Z</time>
</trkpt>
<trkpt lat="45.9219090" lon="9.5806700">
	<ele>1191.40</ele>
	<time>2023-10-07T12:54:51.000Z</time>
</trkpt>
<trkpt lat="45.9219090" lon="9.5806700">
	<ele>1191.40</ele>
	<time>2023-10-07T12:54:52.000Z</time>
</trkpt>
<trkpt lat="45.9219090" lon="9.5806700">
	<ele>1191.20</ele>
	<time>2023-10-07T12:54:53.000Z</time>
</trkpt>
<trkpt lat="45.9219090" lon="9.5806700">
	<ele>1190.80</ele>
	<time>2023-10-07T12:54:54.000Z</time>
</trkpt>
<trkpt lat="45.9219090" lon="9.5806700">
	<ele>1190.60</ele>
	<time>2023-10-07T12:54:55.000Z</time>
</trkpt>
<trkpt lat="45.9219090" lon="9.5806750">
	<ele>1190.60</ele>
	<time>2023-10-07T12:54:56.000Z</time>
</trkpt>
<trkpt lat="45.9219130" lon="9.5806870">
	<ele>1190.40</ele>
	<time>2023-10-07T12:54:57.000Z</time>
</trkpt>
<trkpt lat="45.9219160" lon="9.5807000">
	<ele>1190.20</ele>
	<time>2023-10-07T12:54:58.000Z</time>
</trkpt>
<trkpt lat="45.9219180" lon="9.5807110">
	<ele>1190.20</ele>
	<time>2023-10-07T12:54:59.000Z</time>
</trkpt>
<trkpt lat="45.9219210" lon="9.5807170">
	<ele>1190.00</ele>
	<time>2023-10-07T12:55:00.000Z</time>
</trkpt>
<trkpt lat="45.9219250" lon="9.5807230">
	<ele>1190.00</ele>
	<time>2023-10-07T12:55:01.000Z</time>
</trkpt>
<trkpt lat="45.9219300" lon="9.5807260">
	<ele>1190.00</ele>
	<time>2023-10-07T12:55:02.000Z</time>
</trkpt>
<trkpt lat="45.9219340" lon="9.5807320">
	<ele>1189.80</ele>
	<time>2023-10-07T12:55:03.000Z</time>
</trkpt>
<trkpt lat="45.9219360" lon="9.5807380">
	<ele>1189.80</ele>
	<time>2023-10-07T12:55:04.000Z</time>
</trkpt>
<trkpt lat="45.9219400" lon="9.5807440">
	<ele>1189.80</ele>
	<time>2023-10-07T12:55:05.000Z</time>
</trkpt>
<trkpt lat="45.9219440" lon="9.5807460">
	<ele>1189.80</ele>
	<time>2023-10-07T12:55:06.000Z</time>
</trkpt>
<trkpt lat="45.9219450" lon="9.5807470">
	<ele>1189.80</ele>
	<time>2023-10-07T12:55:07.000Z</time>
</trkpt>
<trkpt lat="45.9219440" lon="9.5807470">
	<ele>1190.00</ele>
	<time>2023-10-07T12:55:08.000Z</time>
</trkpt>
<trkpt lat="45.9219450" lon="9.5807490">
	<ele>1190.00</ele>
	<time>2023-10-07T12:55:09.000Z</time>
</trkpt>
<trkpt lat="45.9219450" lon="9.5807490">
	<ele>1190.00</ele>
	<time>2023-10-07T12:55:10.000Z</time>
</trkpt>
<trkpt lat="45.9219450" lon="9.5807490">
	<ele>1190.20</ele>
	<time>2023-10-07T12:55:11.000Z</time>
</trkpt>
<trkpt lat="45.9219450" lon="9.5807490">
	<ele>1190.20</ele>
	<time>2023-10-07T12:55:12.000Z</time>
</trkpt>
<trkpt lat="45.9219450" lon="9.5807490">
	<ele>1190.20</ele>
	<time>2023-10-07T12:55:13.000Z</time>
</trkpt>
<trkpt lat="45.9219450" lon="9.5807490">
	<ele>1190.40</ele>
	<time>2023-10-07T12:55:14.000Z</time>
</trkpt>
<trkpt lat="45.9219450" lon="9.5807490">
	<ele>1190.20</ele>
	<time>2023-10-07T12:55:15.000Z</time>
</trkpt>
<trkpt lat="45.9219450" lon="9.5807490">
	<ele>1190.20</ele>
	<time>2023-10-07T12:55:16.000Z</time>
</trkpt>
<trkpt lat="45.9219450" lon="9.5807490">
	<ele>1190.20</ele>
	<time>2023-10-07T12:55:17.000Z</time>
</trkpt>
<trkpt lat="45.9219450" lon="9.5807490">
	<ele>1190.20</ele>
	<time>2023-10-07T12:55:18.000Z</time>
</trkpt>
<trkpt lat="45.9219440" lon="9.5807490">
	<ele>1190.20</ele>
	<time>2023-10-07T12:55:19.000Z</time>
</trkpt>
<trkpt lat="45.9219440" lon="9.5807490">
	<ele>1190.00</ele>
	<time>2023-10-07T12:55:20.000Z</time>
</trkpt>
<trkpt lat="45.9219440" lon="9.5807490">
	<ele>1190.00</ele>
	<time>2023-10-07T12:55:21.000Z</time>
</trkpt>
<trkpt lat="45.9219440" lon="9.5807490">
	<ele>1190.00</ele>
	<time>2023-10-07T12:55:22.000Z</time>
</trkpt>
<trkpt lat="45.9219440" lon="9.5807490">
	<ele>1189.80</ele>
	<time>2023-10-07T12:55:23.000Z</time>
</trkpt>
<trkpt lat="45.9219440" lon="9.5807490">
	<ele>1189.80</ele>
	<time>2023-10-07T12:55:24.000Z</time>
</trkpt>
<trkpt lat="45.9219440" lon="9.5807500">
	<ele>1189.80</ele>
	<time>2023-10-07T12:55:25.000Z</time>
</trkpt>
<trkpt lat="45.9219460" lon="9.5807530">
	<ele>1189.80</ele>
	<time>2023-10-07T12:55:26.000Z</time>
</trkpt>
<trkpt lat="45.9219520" lon="9.5807640">
	<ele>1189.80</ele>
	<time>2023-10-07T12:55:27.000Z</time>
</trkpt>
<trkpt lat="45.9219610" lon="9.5807800">
	<ele>1189.80</ele>
	<time>2023-10-07T12:55:28.000Z</time>
</trkpt>
<trkpt lat="45.9219710" lon="9.5807930">
	<ele>1189.80</ele>
	<time>2023-10-07T12:55:29.000Z</time>
</trkpt>
<trkpt lat="45.9219830" lon="9.5808030">
	<ele>1189.80</ele>
	<time>2023-10-07T12:55:30.000Z</time>
</trkpt>
<trkpt lat="45.9219900" lon="9.5808140">
	<ele>1189.80</ele>
	<time>2023-10-07T12:55:31.000Z</time>
</trkpt>
<trkpt lat="45.9219990" lon="9.5808190">
	<ele>1189.80</ele>
	<time>2023-10-07T12:55:32.000Z</time>
</trkpt>
<trkpt lat="45.9220110" lon="9.5808250">
	<ele>1190.00</ele>
	<time>2023-10-07T12:55:33.000Z</time>
</trkpt>
<trkpt lat="45.9220250" lon="9.5808320">
	<ele>1189.80</ele>
	<time>2023-10-07T12:55:34.000Z</time>
</trkpt>
<trkpt lat="45.9220390" lon="9.5808350">
	<ele>1189.80</ele>
	<time>2023-10-07T12:55:35.000Z</time>
</trkpt>
<trkpt lat="45.9220510" lon="9.5808340">
	<ele>1189.80</ele>
	<time>2023-10-07T12:55:36.000Z</time>
</trkpt>
<trkpt lat="45.9220680" lon="9.5808310">
	<ele>1189.80</ele>
	<time>2023-10-07T12:55:37.000Z</time>
</trkpt>
<trkpt lat="45.9220800" lon="9.5808260">
	<ele>1189.60</ele>
	<time>2023-10-07T12:55:38.000Z</time>
</trkpt>
<trkpt lat="45.9220940" lon="9.5808250">
	<ele>1189.80</ele>
	<time>2023-10-07T12:55:39.000Z</time>
</trkpt>
<trkpt lat="45.9221100" lon="9.5808190">
	<ele>1189.80</ele>
	<time>2023-10-07T12:55:40.000Z</time>
</trkpt>
<trkpt lat="45.9221240" lon="9.5808110">
	<ele>1189.60</ele>
	<time>2023-10-07T12:55:41.000Z</time>
</trkpt>
<trkpt lat="45.9221380" lon="9.5808020">
	<ele>1189.60</ele>
	<time>2023-10-07T12:55:42.000Z</time>
</trkpt>
<trkpt lat="45.9221480" lon="9.5808000">
	<ele>1189.60</ele>
	<time>2023-10-07T12:55:43.000Z</time>
</trkpt>
<trkpt lat="45.9221560" lon="9.5808050">
	<ele>1189.60</ele>
	<time>2023-10-07T12:55:44.000Z</time>
</trkpt>
<trkpt lat="45.9221650" lon="9.5808070">
	<ele>1189.60</ele>
	<time>2023-10-07T12:55:45.000Z</time>
</trkpt>
<trkpt lat="45.9221750" lon="9.5808110">
	<ele>1189.40</ele>
	<time>2023-10-07T12:55:46.000Z</time>
</trkpt>
<trkpt lat="45.9221840" lon="9.5808150">
	<ele>1189.40</ele>
	<time>2023-10-07T12:55:47.000Z</time>
</trkpt>
<trkpt lat="45.9221940" lon="9.5808210">
	<ele>1189.20</ele>
	<time>2023-10-07T12:55:48.000Z</time>
</trkpt>
<trkpt lat="45.9222070" lon="9.5808190">
	<ele>1189.00</ele>
	<time>2023-10-07T12:55:49.000Z</time>
</trkpt>
<trkpt lat="45.9222200" lon="9.5808150">
	<ele>1189.00</ele>
	<time>2023-10-07T12:55:50.000Z</time>
</trkpt>
<trkpt lat="45.9222340" lon="9.5808160">
	<ele>1188.80</ele>
	<time>2023-10-07T12:55:51.000Z</time>
</trkpt>
<trkpt lat="45.9222460" lon="9.5808160">
	<ele>1188.60</ele>
	<time>2023-10-07T12:55:52.000Z</time>
</trkpt>
<trkpt lat="45.9222590" lon="9.5808120">
	<ele>1188.60</ele>
	<time>2023-10-07T12:55:53.000Z</time>
</trkpt>
<trkpt lat="45.9222640" lon="9.5808120">
	<ele>1188.40</ele>
	<time>2023-10-07T12:55:54.000Z</time>
</trkpt>
<trkpt lat="45.9222760" lon="9.5808160">
	<ele>1188.40</ele>
	<time>2023-10-07T12:55:55.000Z</time>
</trkpt>
<trkpt lat="45.9222830" lon="9.5808230">
	<ele>1188.20</ele>
	<time>2023-10-07T12:55:56.000Z</time>
</trkpt>
<trkpt lat="45.9222860" lon="9.5808310">
	<ele>1188.00</ele>
	<time>2023-10-07T12:55:57.000Z</time>
</trkpt>
<trkpt lat="45.9222850" lon="9.5808380">
	<ele>1187.80</ele>
	<time>2023-10-07T12:55:58.000Z</time>
</trkpt>
<trkpt lat="45.9222880" lon="9.5808350">
	<ele>1187.60</ele>
	<time>2023-10-07T12:55:59.000Z</time>
</trkpt>
<trkpt lat="45.9222940" lon="9.5808340">
	<ele>1187.60</ele>
	<time>2023-10-07T12:56:00.000Z</time>
</trkpt>
<trkpt lat="45.9223000" lon="9.5808320">
	<ele>1187.40</ele>
	<time>2023-10-07T12:56:01.000Z</time>
</trkpt>
<trkpt lat="45.9223110" lon="9.5808330">
	<ele>1187.20</ele>
	<time>2023-10-07T12:56:02.000Z</time>
</trkpt>
<trkpt lat="45.9223250" lon="9.5808330">
	<ele>1187.20</ele>
	<time>2023-10-07T12:56:03.000Z</time>
</trkpt>
<trkpt lat="45.9223380" lon="9.5808360">
	<ele>1187.20</ele>
	<time>2023-10-07T12:56:04.000Z</time>
</trkpt>
<trkpt lat="45.9223510" lon="9.5808400">
	<ele>1187.00</ele>
	<time>2023-10-07T12:56:05.000Z</time>
</trkpt>
<trkpt lat="45.9223660" lon="9.5808470">
	<ele>1187.00</ele>
	<time>2023-10-07T12:56:06.000Z</time>
</trkpt>
<trkpt lat="45.9223830" lon="9.5808510">
	<ele>1186.80</ele>
	<time>2023-10-07T12:56:07.000Z</time>
</trkpt>
<trkpt lat="45.9223980" lon="9.5808550">
	<ele>1186.80</ele>
	<time>2023-10-07T12:56:08.000Z</time>
</trkpt>
<trkpt lat="45.9224020" lon="9.5808570">
	<ele>1186.80</ele>
	<time>2023-10-07T12:56:09.000Z</time>
</trkpt>
<trkpt lat="45.9224130" lon="9.5808660">
	<ele>1186.60</ele>
	<time>2023-10-07T12:56:10.000Z</time>
</trkpt>
<trkpt lat="45.9224210" lon="9.5808690">
	<ele>1186.60</ele>
	<time>2023-10-07T12:56:11.000Z</time>
</trkpt>
<trkpt lat="45.9224240" lon="9.5808680">
	<ele>1186.60</ele>
	<time>2023-10-07T12:56:12.000Z</time>
</trkpt>
<trkpt lat="45.9224250" lon="9.5808690">
	<ele>1186.60</ele>
	<time>2023-10-07T12:56:13.000Z</time>
</trkpt>
<trkpt lat="45.9224310" lon="9.5808690">
	<ele>1186.60</ele>
	<time>2023-10-07T12:56:14.000Z</time>
</trkpt>
<trkpt lat="45.9224350" lon="9.5808720">
	<ele>1186.60</ele>
	<time>2023-10-07T12:56:15.000Z</time>
</trkpt>
<trkpt lat="45.9224460" lon="9.5808740">
	<ele>1186.60</ele>
	<time>2023-10-07T12:56:16.000Z</time>
</trkpt>
<trkpt lat="45.9224600" lon="9.5808710">
	<ele>1186.60</ele>
	<time>2023-10-07T12:56:17.000Z</time>
</trkpt>
<trkpt lat="45.9224720" lon="9.5808680">
	<ele>1186.80</ele>
	<time>2023-10-07T12:56:18.000Z</time>
</trkpt>
<trkpt lat="45.9224900" lon="9.5808670">
	<ele>1186.80</ele>
	<time>2023-10-07T12:56:19.000Z</time>
</trkpt>
<trkpt lat="45.9225040" lon="9.5808630">
	<ele>1186.80</ele>
	<time>2023-10-07T12:56:20.000Z</time>
</trkpt>
<trkpt lat="45.9225220" lon="9.5808570">
	<ele>1186.60</ele>
	<time>2023-10-07T12:56:21.000Z</time>
</trkpt>
<trkpt lat="45.9225340" lon="9.5808560">
	<ele>1186.20</ele>
	<time>2023-10-07T12:56:22.000Z</time>
</trkpt>
<trkpt lat="45.9225460" lon="9.5808590">
	<ele>1186.00</ele>
	<time>2023-10-07T12:56:23.000Z</time>
</trkpt>
<trkpt lat="45.9225580" lon="9.5808620">
	<ele>1185.80</ele>
	<time>2023-10-07T12:56:24.000Z</time>
</trkpt>
<trkpt lat="45.9225670" lon="9.5808640">
	<ele>1185.80</ele>
	<time>2023-10-07T12:56:25.000Z</time>
</trkpt>
<trkpt lat="45.9225800" lon="9.5808700">
	<ele>1185.80</ele>
	<time>2023-10-07T12:56:26.000Z</time>
</trkpt>
<trkpt lat="45.9225900" lon="9.5808760">
	<ele>1185.80</ele>
	<time>2023-10-07T12:56:27.000Z</time>
</trkpt>
<trkpt lat="45.9225990" lon="9.5808820">
	<ele>1185.80</ele>
	<time>2023-10-07T12:56:28.000Z</time>
</trkpt>
<trkpt lat="45.9226070" lon="9.5808920">
	<ele>1185.80</ele>
	<time>2023-10-07T12:56:29.000Z</time>
</trkpt>
<trkpt lat="45.9226180" lon="9.5808980">
	<ele>1185.80</ele>
	<time>2023-10-07T12:56:30.000Z</time>
</trkpt>
<trkpt lat="45.9226240" lon="9.5808980">
	<ele>1185.60</ele>
	<time>2023-10-07T12:56:31.000Z</time>
</trkpt>
<trkpt lat="45.9226330" lon="9.5808940">
	<ele>1185.60</ele>
	<time>2023-10-07T12:56:32.000Z</time>
</trkpt>
<trkpt lat="45.9226380" lon="9.5808860">
	<ele>1185.60</ele>
	<time>2023-10-07T12:56:33.000Z</time>
</trkpt>
<trkpt lat="45.9226470" lon="9.5808790">
	<ele>1185.60</ele>
	<time>2023-10-07T12:56:34.000Z</time>
</trkpt>
<trkpt lat="45.9226590" lon="9.5808750">
	<ele>1185.60</ele>
	<time>2023-10-07T12:56:35.000Z</time>
</trkpt>
<trkpt lat="45.9226680" lon="9.5808800">
	<ele>1185.60</ele>
	<time>2023-10-07T12:56:36.000Z</time>
</trkpt>
<trkpt lat="45.9226690" lon="9.5808820">
	<ele>1185.60</ele>
	<time>2023-10-07T12:56:37.000Z</time>
</trkpt>
<trkpt lat="45.9226750" lon="9.5808880">
	<ele>1185.60</ele>
	<time>2023-10-07T12:56:38.000Z</time>
</trkpt>
<trkpt lat="45.9226850" lon="9.5808970">
	<ele>1185.40</ele>
	<time>2023-10-07T12:56:39.000Z</time>
</trkpt>
<trkpt lat="45.9226970" lon="9.5809060">
	<ele>1185.20</ele>
	<time>2023-10-07T12:56:40.000Z</time>
</trkpt>
<trkpt lat="45.9227070" lon="9.5809200">
	<ele>1185.20</ele>
	<time>2023-10-07T12:56:41.000Z</time>
</trkpt>
<trkpt lat="45.9227180" lon="9.5809250">
	<ele>1185.00</ele>
	<time>2023-10-07T12:56:42.000Z</time>
</trkpt>
<trkpt lat="45.9227270" lon="9.5809340">
	<ele>1184.80</ele>
	<time>2023-10-07T12:56:43.000Z</time>
</trkpt>
<trkpt lat="45.9227320" lon="9.5809420">
	<ele>1184.40</ele>
	<time>2023-10-07T12:56:44.000Z</time>
</trkpt>
<trkpt lat="45.9227330" lon="9.5809470">
	<ele>1184.00</ele>
	<time>2023-10-07T12:56:45.000Z</time>
</trkpt>
<trkpt lat="45.9227280" lon="9.5809540">
	<ele>1183.80</ele>
	<time>2023-10-07T12:56:46.000Z</time>
</trkpt>
<trkpt lat="45.9227210" lon="9.5809620">
	<ele>1183.80</ele>
	<time>2023-10-07T12:56:47.000Z</time>
</trkpt>
<trkpt lat="45.9227160" lon="9.5809660">
	<ele>1183.60</ele>
	<time>2023-10-07T12:56:48.000Z</time>
</trkpt>
<trkpt lat="45.9227150" lon="9.5809690">
	<ele>1183.80</ele>
	<time>2023-10-07T12:56:49.000Z</time>
</trkpt>
<trkpt lat="45.9227140" lon="9.5809710">
	<ele>1184.00</ele>
	<time>2023-10-07T12:56:50.000Z</time>
</trkpt>
<trkpt lat="45.9227140" lon="9.5809720">
	<ele>1184.20</ele>
	<time>2023-10-07T12:56:51.000Z</time>
</trkpt>
<trkpt lat="45.9227130" lon="9.5809710">
	<ele>1184.20</ele>
	<time>2023-10-07T12:56:52.000Z</time>
</trkpt>
<trkpt lat="45.9227100" lon="9.5809800">
	<ele>1184.40</ele>
	<time>2023-10-07T12:56:53.000Z</time>
</trkpt>
<trkpt lat="45.9227080" lon="9.5809820">
	<ele>1184.40</ele>
	<time>2023-10-07T12:56:54.000Z</time>
</trkpt>
<trkpt lat="45.9227050" lon="9.5809850">
	<ele>1184.40</ele>
	<time>2023-10-07T12:56:55.000Z</time>
</trkpt>
<trkpt lat="45.9227050" lon="9.5809850">
	<ele>1184.20</ele>
	<time>2023-10-07T12:56:56.000Z</time>
</trkpt>
<trkpt lat="45.9227050" lon="9.5809870">
	<ele>1184.00</ele>
	<time>2023-10-07T12:56:57.000Z</time>
</trkpt>
<trkpt lat="45.9227030" lon="9.5809900">
	<ele>1183.80</ele>
	<time>2023-10-07T12:56:58.000Z</time>
</trkpt>
<trkpt lat="45.9227030" lon="9.5809940">
	<ele>1183.60</ele>
	<time>2023-10-07T12:56:59.000Z</time>
</trkpt>
<trkpt lat="45.9227080" lon="9.5810040">
	<ele>1183.40</ele>
	<time>2023-10-07T12:57:00.000Z</time>
</trkpt>
<trkpt lat="45.9227130" lon="9.5810200">
	<ele>1183.00</ele>
	<time>2023-10-07T12:57:01.000Z</time>
</trkpt>
<trkpt lat="45.9227130" lon="9.5810290">
	<ele>1182.80</ele>
	<time>2023-10-07T12:57:02.000Z</time>
</trkpt>
<trkpt lat="45.9227210" lon="9.5810420">
	<ele>1182.60</ele>
	<time>2023-10-07T12:57:03.000Z</time>
</trkpt>
<trkpt lat="45.9227270" lon="9.5810540">
	<ele>1182.40</ele>
	<time>2023-10-07T12:57:04.000Z</time>
</trkpt>
<trkpt lat="45.9227270" lon="9.5810660">
	<ele>1182.20</ele>
	<time>2023-10-07T12:57:05.000Z</time>
</trkpt>
<trkpt lat="45.9227270" lon="9.5810770">
	<ele>1182.20</ele>
	<time>2023-10-07T12:57:06.000Z</time>
</trkpt>
<trkpt lat="45.9227300" lon="9.5810890">
	<ele>1182.00</ele>
	<time>2023-10-07T12:57:07.000Z</time>
</trkpt>
<trkpt lat="45.9227330" lon="9.5811000">
	<ele>1182.00</ele>
	<time>2023-10-07T12:57:08.000Z</time>
</trkpt>
<trkpt lat="45.9227330" lon="9.5811110">
	<ele>1181.80</ele>
	<time>2023-10-07T12:57:09.000Z</time>
</trkpt>
<trkpt lat="45.9227320" lon="9.5811260">
	<ele>1181.60</ele>
	<time>2023-10-07T12:57:10.000Z</time>
</trkpt>
<trkpt lat="45.9227340" lon="9.5811400">
	<ele>1181.60</ele>
	<time>2023-10-07T12:57:11.000Z</time>
</trkpt>
<trkpt lat="45.9227400" lon="9.5811540">
	<ele>1181.40</ele>
	<time>2023-10-07T12:57:12.000Z</time>
</trkpt>
<trkpt lat="45.9227430" lon="9.5811670">
	<ele>1181.20</ele>
	<time>2023-10-07T12:57:13.000Z</time>
</trkpt>
<trkpt lat="45.9227460" lon="9.5811800">
	<ele>1181.20</ele>
	<time>2023-10-07T12:57:14.000Z</time>
</trkpt>
<trkpt lat="45.9227490" lon="9.5811930">
	<ele>1180.80</ele>
	<time>2023-10-07T12:57:15.000Z</time>
</trkpt>
<trkpt lat="45.9227520" lon="9.5812100">
	<ele>1180.40</ele>
	<time>2023-10-07T12:57:16.000Z</time>
</trkpt>
<trkpt lat="45.9227590" lon="9.5812210">
	<ele>1180.00</ele>
	<time>2023-10-07T12:57:17.000Z</time>
</trkpt>
<trkpt lat="45.9227620" lon="9.5812370">
	<ele>1179.80</ele>
	<time>2023-10-07T12:57:18.000Z</time>
</trkpt>
<trkpt lat="45.9227620" lon="9.5812530">
	<ele>1179.60</ele>
	<time>2023-10-07T12:57:19.000Z</time>
</trkpt>
<trkpt lat="45.9227670" lon="9.5812620">
	<ele>1179.60</ele>
	<time>2023-10-07T12:57:20.000Z</time>
</trkpt>
<trkpt lat="45.9227790" lon="9.5812740">
	<ele>1179.40</ele>
	<time>2023-10-07T12:57:21.000Z</time>
</trkpt>
<trkpt lat="45.9227900" lon="9.5812850">
	<ele>1179.20</ele>
	<time>2023-10-07T12:57:22.000Z</time>
</trkpt>
<trkpt lat="45.9227940" lon="9.5812970">
	<ele>1179.20</ele>
	<time>2023-10-07T12:57:23.000Z</time>
</trkpt>
<trkpt lat="45.9227940" lon="9.5813100">
	<ele>1179.00</ele>
	<time>2023-10-07T12:57:24.000Z</time>
</trkpt>
<trkpt lat="45.9227960" lon="9.5813200">
	<ele>1178.80</ele>
	<time>2023-10-07T12:57:25.000Z</time>
</trkpt>
<trkpt lat="45.9227990" lon="9.5813300">
	<ele>1178.60</ele>
	<time>2023-10-07T12:57:26.000Z</time>
</trkpt>
<trkpt lat="45.9228040" lon="9.5813430">
	<ele>1178.40</ele>
	<time>2023-10-07T12:57:27.000Z</time>
</trkpt>
<trkpt lat="45.9228090" lon="9.5813590">
	<ele>1178.20</ele>
	<time>2023-10-07T12:57:28.000Z</time>
</trkpt>
<trkpt lat="45.9228150" lon="9.5813760">
	<ele>1177.80</ele>
	<time>2023-10-07T12:57:29.000Z</time>
</trkpt>
<trkpt lat="45.9228220" lon="9.5813910">
	<ele>1177.60</ele>
	<time>2023-10-07T12:57:30.000Z</time>
</trkpt>
<trkpt lat="45.9228250" lon="9.5814040">
	<ele>1177.60</ele>
	<time>2023-10-07T12:57:31.000Z</time>
</trkpt>
<trkpt lat="45.9228270" lon="9.5814170">
	<ele>1177.60</ele>
	<time>2023-10-07T12:57:32.000Z</time>
</trkpt>
<trkpt lat="45.9228290" lon="9.5814280">
	<ele>1177.40</ele>
	<time>2023-10-07T12:57:33.000Z</time>
</trkpt>
<trkpt lat="45.9228290" lon="9.5814360">
	<ele>1177.40</ele>
	<time>2023-10-07T12:57:34.000Z</time>
</trkpt>
<trkpt lat="45.9228260" lon="9.5814450">
	<ele>1177.20</ele>
	<time>2023-10-07T12:57:35.000Z</time>
</trkpt>
<trkpt lat="45.9228220" lon="9.5814550">
	<ele>1177.00</ele>
	<time>2023-10-07T12:57:36.000Z</time>
</trkpt>
<trkpt lat="45.9228140" lon="9.5814670">
	<ele>1176.80</ele>
	<time>2023-10-07T12:57:37.000Z</time>
</trkpt>
<trkpt lat="45.9228040" lon="9.5814730">
	<ele>1176.60</ele>
	<time>2023-10-07T12:57:38.000Z</time>
</trkpt>
<trkpt lat="45.9227950" lon="9.5814810">
	<ele>1176.60</ele>
	<time>2023-10-07T12:57:39.000Z</time>
</trkpt>
<trkpt lat="45.9227880" lon="9.5814890">
	<ele>1176.40</ele>
	<time>2023-10-07T12:57:40.000Z</time>
</trkpt>
<trkpt lat="45.9227740" lon="9.5814900">
	<ele>1176.20</ele>
	<time>2023-10-07T12:57:41.000Z</time>
</trkpt>
<trkpt lat="45.9227620" lon="9.5814890">
	<ele>1176.00</ele>
	<time>2023-10-07T12:57:42.000Z</time>
</trkpt>
<trkpt lat="45.9227510" lon="9.5814820">
	<ele>1175.60</ele>
	<time>2023-10-07T12:57:43.000Z</time>
</trkpt>
<trkpt lat="45.9227420" lon="9.5814760">
	<ele>1175.60</ele>
	<time>2023-10-07T12:57:44.000Z</time>
</trkpt>
<trkpt lat="45.9227270" lon="9.5814710">
	<ele>1175.40</ele>
	<time>2023-10-07T12:57:45.000Z</time>
</trkpt>
<trkpt lat="45.9227120" lon="9.5814610">
	<ele>1175.40</ele>
	<time>2023-10-07T12:57:46.000Z</time>
</trkpt>
<trkpt lat="45.9226980" lon="9.5814510">
	<ele>1175.20</ele>
	<time>2023-10-07T12:57:47.000Z</time>
</trkpt>
<trkpt lat="45.9226870" lon="9.5814400">
	<ele>1175.00</ele>
	<time>2023-10-07T12:57:48.000Z</time>
</trkpt>
<trkpt lat="45.9226820" lon="9.5814340">
	<ele>1175.00</ele>
	<time>2023-10-07T12:57:49.000Z</time>
</trkpt>
<trkpt lat="45.9226780" lon="9.5814270">
	<ele>1174.60</ele>
	<time>2023-10-07T12:57:50.000Z</time>
</trkpt>
<trkpt lat="45.9226700" lon="9.5814200">
	<ele>1174.40</ele>
	<time>2023-10-07T12:57:51.000Z</time>
</trkpt>
<trkpt lat="45.9226600" lon="9.5814150">
	<ele>1174.20</ele>
	<time>2023-10-07T12:57:52.000Z</time>
</trkpt>
<trkpt lat="45.9226530" lon="9.5814110">
	<ele>1173.80</ele>
	<time>2023-10-07T12:57:53.000Z</time>
</trkpt>
<trkpt lat="45.9226440" lon="9.5814040">
	<ele>1173.60</ele>
	<time>2023-10-07T12:57:54.000Z</time>
</trkpt>
<trkpt lat="45.9226360" lon="9.5814030">
	<ele>1173.40</ele>
	<time>2023-10-07T12:57:55.000Z</time>
</trkpt>
<trkpt lat="45.9226300" lon="9.5814020">
	<ele>1173.40</ele>
	<time>2023-10-07T12:57:56.000Z</time>
</trkpt>
<trkpt lat="45.9226190" lon="9.5813950">
	<ele>1173.20</ele>
	<time>2023-10-07T12:57:57.000Z</time>
</trkpt>
<trkpt lat="45.9226050" lon="9.5813900">
	<ele>1173.00</ele>
	<time>2023-10-07T12:57:58.000Z</time>
</trkpt>
<trkpt lat="45.9225970" lon="9.5813820">
	<ele>1172.80</ele>
	<time>2023-10-07T12:57:59.000Z</time>
</trkpt>
<trkpt lat="45.9225950" lon="9.5813770">
	<ele>1172.60</ele>
	<time>2023-10-07T12:58:00.000Z</time>
</trkpt>
<trkpt lat="45.9225890" lon="9.5813690">
	<ele>1172.60</ele>
	<time>2023-10-07T12:58:01.000Z</time>
</trkpt>
<trkpt lat="45.9225780" lon="9.5813670">
	<ele>1172.40</ele>
	<time>2023-10-07T12:58:02.000Z</time>
</trkpt>
<trkpt lat="45.9225680" lon="9.5813620">
	<ele>1172.20</ele>
	<time>2023-10-07T12:58:03.000Z</time>
</trkpt>
<trkpt lat="45.9225540" lon="9.5813560">
	<ele>1172.00</ele>
	<time>2023-10-07T12:58:04.000Z</time>
</trkpt>
<trkpt lat="45.9225400" lon="9.5813520">
	<ele>1171.80</ele>
	<time>2023-10-07T12:58:05.000Z</time>
</trkpt>
<trkpt lat="45.9225270" lon="9.5813500">
	<ele>1171.60</ele>
	<time>2023-10-07T12:58:06.000Z</time>
</trkpt>
<trkpt lat="45.9225160" lon="9.5813500">
	<ele>1171.20</ele>
	<time>2023-10-07T12:58:07.000Z</time>
</trkpt>
<trkpt lat="45.9224960" lon="9.5813580">
	<ele>1171.00</ele>
	<time>2023-10-07T12:58:08.000Z</time>
</trkpt>
<trkpt lat="45.9224810" lon="9.5813670">
	<ele>1171.00</ele>
	<time>2023-10-07T12:58:09.000Z</time>
</trkpt>
<trkpt lat="45.9224690" lon="9.5813750">
	<ele>1170.80</ele>
	<time>2023-10-07T12:58:10.000Z</time>
</trkpt>
<trkpt lat="45.9224630" lon="9.5813790">
	<ele>1170.60</ele>
	<time>2023-10-07T12:58:11.000Z</time>
</trkpt>
<trkpt lat="45.9224540" lon="9.5813860">
	<ele>1170.40</ele>
	<time>2023-10-07T12:58:12.000Z</time>
</trkpt>
<trkpt lat="45.9224420" lon="9.5813980">
	<ele>1170.20</ele>
	<time>2023-10-07T12:58:13.000Z</time>
</trkpt>
<trkpt lat="45.9224280" lon="9.5814160">
	<ele>1170.00</ele>
	<time>2023-10-07T12:58:14.000Z</time>
</trkpt>
<trkpt lat="45.9224190" lon="9.5814300">
	<ele>1169.80</ele>
	<time>2023-10-07T12:58:15.000Z</time>
</trkpt>
<trkpt lat="45.9224150" lon="9.5814430">
	<ele>1169.80</ele>
	<time>2023-10-07T12:58:16.000Z</time>
</trkpt>
<trkpt lat="45.9224110" lon="9.5814490">
	<ele>1169.60</ele>
	<time>2023-10-07T12:58:17.000Z</time>
</trkpt>
<trkpt lat="45.9224100" lon="9.5814610">
	<ele>1169.40</ele>
	<time>2023-10-07T12:58:18.000Z</time>
</trkpt>
<trkpt lat="45.9224050" lon="9.5814740">
	<ele>1169.20</ele>
	<time>2023-10-07T12:58:19.000Z</time>
</trkpt>
<trkpt lat="45.9224130" lon="9.5814850">
	<ele>1169.00</ele>
	<time>2023-10-07T12:58:20.000Z</time>
</trkpt>
<trkpt lat="45.9224190" lon="9.5814910">
	<ele>1168.80</ele>
	<time>2023-10-07T12:58:21.000Z</time>
</trkpt>
<trkpt lat="45.9224180" lon="9.5815040">
	<ele>1168.80</ele>
	<time>2023-10-07T12:58:22.000Z</time>
</trkpt>
<trkpt lat="45.9224180" lon="9.5815110">
	<ele>1168.60</ele>
	<time>2023-10-07T12:58:23.000Z</time>
</trkpt>
<trkpt lat="45.9224130" lon="9.5815200">
	<ele>1168.40</ele>
	<time>2023-10-07T12:58:24.000Z</time>
</trkpt>
<trkpt lat="45.9224110" lon="9.5815350">
	<ele>1168.20</ele>
	<time>2023-10-07T12:58:25.000Z</time>
</trkpt>
<trkpt lat="45.9224150" lon="9.5815470">
	<ele>1168.00</ele>
	<time>2023-10-07T12:58:26.000Z</time>
</trkpt>
<trkpt lat="45.9224200" lon="9.5815630">
	<ele>1167.80</ele>
	<time>2023-10-07T12:58:27.000Z</time>
</trkpt>
<trkpt lat="45.9224190" lon="9.5815750">
	<ele>1167.80</ele>
	<time>2023-10-07T12:58:28.000Z</time>
</trkpt>
<trkpt lat="45.9224230" lon="9.5815880">
	<ele>1167.60</ele>
	<time>2023-10-07T12:58:29.000Z</time>
</trkpt>
<trkpt lat="45.9224320" lon="9.5816030">
	<ele>1167.40</ele>
	<time>2023-10-07T12:58:30.000Z</time>
</trkpt>
<trkpt lat="45.9224400" lon="9.5816210">
	<ele>1167.40</ele>
	<time>2023-10-07T12:58:31.000Z</time>
</trkpt>
<trkpt lat="45.9224410" lon="9.5816340">
	<ele>1167.20</ele>
	<time>2023-10-07T12:58:32.000Z</time>
</trkpt>
<trkpt lat="45.9224390" lon="9.5816460">
	<ele>1167.20</ele>
	<time>2023-10-07T12:58:33.000Z</time>
</trkpt>
<trkpt lat="45.9224420" lon="9.5816490">
	<ele>1167.00</ele>
	<time>2023-10-07T12:58:34.000Z</time>
</trkpt>
<trkpt lat="45.9224460" lon="9.5816580">
	<ele>1166.80</ele>
	<time>2023-10-07T12:58:35.000Z</time>
</trkpt>
<trkpt lat="45.9224490" lon="9.5816680">
	<ele>1166.40</ele>
	<time>2023-10-07T12:58:36.000Z</time>
</trkpt>
<trkpt lat="45.9224490" lon="9.5816830">
	<ele>1166.00</ele>
	<time>2023-10-07T12:58:37.000Z</time>
</trkpt>
<trkpt lat="45.9224460" lon="9.5817050">
	<ele>1165.80</ele>
	<time>2023-10-07T12:58:38.000Z</time>
</trkpt>
<trkpt lat="45.9224430" lon="9.5817220">
	<ele>1165.60</ele>
	<time>2023-10-07T12:58:39.000Z</time>
</trkpt>
<trkpt lat="45.9224370" lon="9.5817390">
	<ele>1165.40</ele>
	<time>2023-10-07T12:58:40.000Z</time>
</trkpt>
<trkpt lat="45.9224330" lon="9.5817520">
	<ele>1165.40</ele>
	<time>2023-10-07T12:58:41.000Z</time>
</trkpt>
<trkpt lat="45.9224290" lon="9.5817650">
	<ele>1165.20</ele>
	<time>2023-10-07T12:58:42.000Z</time>
</trkpt>
<trkpt lat="45.9224280" lon="9.5817740">
	<ele>1165.00</ele>
	<time>2023-10-07T12:58:43.000Z</time>
</trkpt>
<trkpt lat="45.9224240" lon="9.5817840">
	<ele>1164.80</ele>
	<time>2023-10-07T12:58:44.000Z</time>
</trkpt>
<trkpt lat="45.9224200" lon="9.5817940">
	<ele>1164.60</ele>
	<time>2023-10-07T12:58:45.000Z</time>
</trkpt>
<trkpt lat="45.9224150" lon="9.5818050">
	<ele>1164.40</ele>
	<time>2023-10-07T12:58:46.000Z</time>
</trkpt>
<trkpt lat="45.9224090" lon="9.5818140">
	<ele>1164.40</ele>
	<time>2023-10-07T12:58:47.000Z</time>
</trkpt>
<trkpt lat="45.9224030" lon="9.5818250">
	<ele>1164.40</ele>
	<time>2023-10-07T12:58:48.000Z</time>
</trkpt>
<trkpt lat="45.9223950" lon="9.5818380">
	<ele>1164.00</ele>
	<time>2023-10-07T12:58:49.000Z</time>
</trkpt>
<trkpt lat="45.9223870" lon="9.5818450">
	<ele>1163.80</ele>
	<time>2023-10-07T12:58:50.000Z</time>
</trkpt>
<trkpt lat="45.9223790" lon="9.5818440">
	<ele>1163.80</ele>
	<time>2023-10-07T12:58:51.000Z</time>
</trkpt>
<trkpt lat="45.9223700" lon="9.5818440">
	<ele>1163.60</ele>
	<time>2023-10-07T12:58:52.000Z</time>
</trkpt>
<trkpt lat="45.9223600" lon="9.5818420">
	<ele>1163.40</ele>
	<time>2023-10-07T12:58:53.000Z</time>
</trkpt>
<trkpt lat="45.9223510" lon="9.5818440">
	<ele>1163.40</ele>
	<time>2023-10-07T12:58:54.000Z</time>
</trkpt>
<trkpt lat="45.9223370" lon="9.5818380">
	<ele>1163.20</ele>
	<time>2023-10-07T12:58:55.000Z</time>
</trkpt>
<trkpt lat="45.9223250" lon="9.5818290">
	<ele>1163.00</ele>
	<time>2023-10-07T12:58:56.000Z</time>
</trkpt>
<trkpt lat="45.9223110" lon="9.5818200">
	<ele>1163.00</ele>
	<time>2023-10-07T12:58:57.000Z</time>
</trkpt>
<trkpt lat="45.9223040" lon="9.5818190">
	<ele>1162.80</ele>
	<time>2023-10-07T12:58:58.000Z</time>
</trkpt>
<trkpt lat="45.9223030" lon="9.5818220">
	<ele>1162.60</ele>
	<time>2023-10-07T12:58:59.000Z</time>
</trkpt>
<trkpt lat="45.9222930" lon="9.5818260">
	<ele>1162.40</ele>
	<time>2023-10-07T12:59:00.000Z</time>
</trkpt>
<trkpt lat="45.9222800" lon="9.5818230">
	<ele>1162.20</ele>
	<time>2023-10-07T12:59:01.000Z</time>
</trkpt>
<trkpt lat="45.9222740" lon="9.5818210">
	<ele>1162.00</ele>
	<time>2023-10-07T12:59:02.000Z</time>
</trkpt>
<trkpt lat="45.9222680" lon="9.5818210">
	<ele>1161.80</ele>
	<time>2023-10-07T12:59:03.000Z</time>
</trkpt>
<trkpt lat="45.9222640" lon="9.5818200">
	<ele>1161.60</ele>
	<time>2023-10-07T12:59:04.000Z</time>
</trkpt>
<trkpt lat="45.9222620" lon="9.5818160">
	<ele>1161.40</ele>
	<time>2023-10-07T12:59:05.000Z</time>
</trkpt>
<trkpt lat="45.9222590" lon="9.5818130">
	<ele>1161.20</ele>
	<time>2023-10-07T12:59:06.000Z</time>
</trkpt>
<trkpt lat="45.9222480" lon="9.5818130">
	<ele>1161.20</ele>
	<time>2023-10-07T12:59:07.000Z</time>
</trkpt>
<trkpt lat="45.9222380" lon="9.5818120">
	<ele>1161.00</ele>
	<time>2023-10-07T12:59:08.000Z</time>
</trkpt>
<trkpt lat="45.9222230" lon="9.5818080">
	<ele>1160.80</ele>
	<time>2023-10-07T12:59:09.000Z</time>
</trkpt>
<trkpt lat="45.9222170" lon="9.5818020">
	<ele>1160.60</ele>
	<time>2023-10-07T12:59:10.000Z</time>
</trkpt>
<trkpt lat="45.9221970" lon="9.5818050">
	<ele>1160.60</ele>
	<time>2023-10-07T12:59:11.000Z</time>
</trkpt>
<trkpt lat="45.9221830" lon="9.5818040">
	<ele>1160.40</ele>
	<time>2023-10-07T12:59:12.000Z</time>
</trkpt>
<trkpt lat="45.9221710" lon="9.5818040">
	<ele>1160.40</ele>
	<time>2023-10-07T12:59:13.000Z</time>
</trkpt>
<trkpt lat="45.9221610" lon="9.5818050">
	<ele>1160.00</ele>
	<time>2023-10-07T12:59:14.000Z</time>
</trkpt>
<trkpt lat="45.9221560" lon="9.5818040">
	<ele>1160.00</ele>
	<time>2023-10-07T12:59:15.000Z</time>
</trkpt>
<trkpt lat="45.9221500" lon="9.5818070">
	<ele>1159.80</ele>
	<time>2023-10-07T12:59:16.000Z</time>
</trkpt>
<trkpt lat="45.9221430" lon="9.5818120">
	<ele>1159.80</ele>
	<time>2023-10-07T12:59:17.000Z</time>
</trkpt>
<trkpt lat="45.9221340" lon="9.5818190">
	<ele>1159.60</ele>
	<time>2023-10-07T12:59:18.000Z</time>
</trkpt>
<trkpt lat="45.9221290" lon="9.5818250">
	<ele>1159.40</ele>
	<time>2023-10-07T12:59:19.000Z</time>
</trkpt>
<trkpt lat="45.9221290" lon="9.5818340">
	<ele>1159.20</ele>
	<time>2023-10-07T12:59:20.000Z</time>
</trkpt>
<trkpt lat="45.9221200" lon="9.5818430">
	<ele>1159.20</ele>
	<time>2023-10-07T12:59:21.000Z</time>
</trkpt>
<trkpt lat="45.9221070" lon="9.5818510">
	<ele>1159.00</ele>
	<time>2023-10-07T12:59:22.000Z</time>
</trkpt>
<trkpt lat="45.9220980" lon="9.5818610">
	<ele>1159.00</ele>
	<time>2023-10-07T12:59:23.000Z</time>
</trkpt>
<trkpt lat="45.9220840" lon="9.5818700">
	<ele>1158.80</ele>
	<time>2023-10-07T12:59:24.000Z</time>
</trkpt>
<trkpt lat="45.9220810" lon="9.5818830">
	<ele>1158.80</ele>
	<time>2023-10-07T12:59:25.000Z</time>
</trkpt>
<trkpt lat="45.9220760" lon="9.5819030">
	<ele>1158.60</ele>
	<time>2023-10-07T12:59:26.000Z</time>
</trkpt>
<trkpt lat="45.9220660" lon="9.5819230">
	<ele>1158.60</ele>
	<time>2023-10-07T12:59:27.000Z</time>
</trkpt>
<trkpt lat="45.9220590" lon="9.5819400">
	<ele>1158.60</ele>
	<time>2023-10-07T12:59:28.000Z</time>
</trkpt>
<trkpt lat="45.9220490" lon="9.5819590">
	<ele>1158.40</ele>
	<time>2023-10-07T12:59:29.000Z</time>
</trkpt>
<trkpt lat="45.9220410" lon="9.5819730">
	<ele>1158.40</ele>
	<time>2023-10-07T12:59:30.000Z</time>
</trkpt>
<trkpt lat="45.9220360" lon="9.5819820">
	<ele>1158.40</ele>
	<time>2023-10-07T12:59:31.000Z</time>
</trkpt>
<trkpt lat="45.9220300" lon="9.5819940">
	<ele>1158.20</ele>
	<time>2023-10-07T12:59:32.000Z</time>
</trkpt>
<trkpt lat="45.9220270" lon="9.5820060">
	<ele>1158.20</ele>
	<time>2023-10-07T12:59:33.000Z</time>
</trkpt>
<trkpt lat="45.9220260" lon="9.5820180">
	<ele>1157.80</ele>
	<time>2023-10-07T12:59:34.000Z</time>
</trkpt>
<trkpt lat="45.9220290" lon="9.5820320">
	<ele>1157.80</ele>
	<time>2023-10-07T12:59:35.000Z</time>
</trkpt>
<trkpt lat="45.9220290" lon="9.5820470">
	<ele>1157.60</ele>
	<time>2023-10-07T12:59:36.000Z</time>
</trkpt>
<trkpt lat="45.9220350" lon="9.5820670">
	<ele>1157.40</ele>
	<time>2023-10-07T12:59:37.000Z</time>
</trkpt>
<trkpt lat="45.9220410" lon="9.5820850">
	<ele>1157.40</ele>
	<time>2023-10-07T12:59:38.000Z</time>
</trkpt>
<trkpt lat="45.9220440" lon="9.5821000">
	<ele>1157.40</ele>
	<time>2023-10-07T12:59:39.000Z</time>
</trkpt>
<trkpt lat="45.9220480" lon="9.5821150">
	<ele>1157.20</ele>
	<time>2023-10-07T12:59:40.000Z</time>
</trkpt>
<trkpt lat="45.9220450" lon="9.5821270">
	<ele>1157.20</ele>
	<time>2023-10-07T12:59:41.000Z</time>
</trkpt>
<trkpt lat="45.9220470" lon="9.5821380">
	<ele>1157.00</ele>
	<time>2023-10-07T12:59:42.000Z</time>
</trkpt>
<trkpt lat="45.9220530" lon="9.5821490">
	<ele>1156.80</ele>
	<time>2023-10-07T12:59:43.000Z</time>
</trkpt>
<trkpt lat="45.9220560" lon="9.5821630">
	<ele>1156.40</ele>
	<time>2023-10-07T12:59:44.000Z</time>
</trkpt>
<trkpt lat="45.9220610" lon="9.5821770">
	<ele>1156.20</ele>
	<time>2023-10-07T12:59:45.000Z</time>
</trkpt>
<trkpt lat="45.9220690" lon="9.5821910">
	<ele>1155.80</ele>
	<time>2023-10-07T12:59:46.000Z</time>
</trkpt>
<trkpt lat="45.9220730" lon="9.5822050">
	<ele>1155.60</ele>
	<time>2023-10-07T12:59:47.000Z</time>
</trkpt>
<trkpt lat="45.9220720" lon="9.5822230">
	<ele>1155.40</ele>
	<time>2023-10-07T12:59:48.000Z</time>
</trkpt>
<trkpt lat="45.9220660" lon="9.5822390">
	<ele>1155.40</ele>
	<time>2023-10-07T12:59:49.000Z</time>
</trkpt>
<trkpt lat="45.9220620" lon="9.5822550">
	<ele>1155.20</ele>
	<time>2023-10-07T12:59:50.000Z</time>
</trkpt>
<trkpt lat="45.9220580" lon="9.5822660">
	<ele>1155.20</ele>
	<time>2023-10-07T12:59:51.000Z</time>
</trkpt>
<trkpt lat="45.9220690" lon="9.5822740">
	<ele>1155.00</ele>
	<time>2023-10-07T12:59:52.000Z</time>
</trkpt>
<trkpt lat="45.9220820" lon="9.5822800">
	<ele>1154.60</ele>
	<time>2023-10-07T12:59:53.000Z</time>
</trkpt>
<trkpt lat="45.9220830" lon="9.5822850">
	<ele>1154.40</ele>
	<time>2023-10-07T12:59:54.000Z</time>
</trkpt>
<trkpt lat="45.9220710" lon="9.5822900">
	<ele>1154.20</ele>
	<time>2023-10-07T12:59:55.000Z</time>
</trkpt>
<trkpt lat="45.9220670" lon="9.5822910">
	<ele>1154.00</ele>
	<time>2023-10-07T12:59:56.000Z</time>
</trkpt>
<trkpt lat="45.9220600" lon="9.5822930">
	<ele>1153.80</ele>
	<time>2023-10-07T12:59:57.000Z</time>
</trkpt>
<trkpt lat="45.9220530" lon="9.5822920">
	<ele>1153.80</ele>
	<time>2023-10-07T12:59:58.000Z</time>
</trkpt>
<trkpt lat="45.9220420" lon="9.5822880">
	<ele>1153.80</ele>
	<time>2023-10-07T12:59:59.000Z</time>
</trkpt>
<trkpt lat="45.9220360" lon="9.5822860">
	<ele>1153.60</ele>
	<time>2023-10-07T13:00:00.000Z</time>
</trkpt>
<trkpt lat="45.9220350" lon="9.5822840">
	<ele>1153.60</ele>
	<time>2023-10-07T13:00:01.000Z</time>
</trkpt>
<trkpt lat="45.9220430" lon="9.5822880">
	<ele>1153.60</ele>
	<time>2023-10-07T13:00:02.000Z</time>
</trkpt>
<trkpt lat="45.9220590" lon="9.5822960">
	<ele>1153.60</ele>
	<time>2023-10-07T13:00:03.000Z</time>
</trkpt>
<trkpt lat="45.9220750" lon="9.5823030">
	<ele>1153.60</ele>
	<time>2023-10-07T13:00:04.000Z</time>
</trkpt>
<trkpt lat="45.9220910" lon="9.5823090">
	<ele>1153.60</ele>
	<time>2023-10-07T13:00:05.000Z</time>
</trkpt>
<trkpt lat="45.9220870" lon="9.5823090">
	<ele>1153.60</ele>
	<time>2023-10-07T13:00:06.000Z</time>
</trkpt>
<trkpt lat="45.9220960" lon="9.5823100">
	<ele>1153.80</ele>
	<time>2023-10-07T13:00:07.000Z</time>
</trkpt>
<trkpt lat="45.9221000" lon="9.5823090">
	<ele>1153.80</ele>
	<time>2023-10-07T13:00:08.000Z</time>
</trkpt>
<trkpt lat="45.9221000" lon="9.5823090">
	<ele>1153.80</ele>
	<time>2023-10-07T13:00:09.000Z</time>
</trkpt>
<trkpt lat="45.9220960" lon="9.5823100">
	<ele>1153.80</ele>
	<time>2023-10-07T13:00:10.000Z</time>
</trkpt>
<trkpt lat="45.9220920" lon="9.5823090">
	<ele>1153.80</ele>
	<time>2023-10-07T13:00:11.000Z</time>
</trkpt>
<trkpt lat="45.9220900" lon="9.5823080">
	<ele>1153.80</ele>
	<time>2023-10-07T13:00:12.000Z</time>
</trkpt>
<trkpt lat="45.9220900" lon="9.5823070">
	<ele>1153.80</ele>
	<time>2023-10-07T13:00:13.000Z</time>
</trkpt>
<trkpt lat="45.9220900" lon="9.5823070">
	<ele>1153.80</ele>
	<time>2023-10-07T13:00:14.000Z</time>
</trkpt>
<trkpt lat="45.9220900" lon="9.5823070">
	<ele>1153.80</ele>
	<time>2023-10-07T13:00:15.000Z</time>
</trkpt>
<trkpt lat="45.9220900" lon="9.5823070">
	<ele>1153.80</ele>
	<time>2023-10-07T13:00:16.000Z</time>
</trkpt>
<trkpt lat="45.9220900" lon="9.5823070">
	<ele>1153.80</ele>
	<time>2023-10-07T13:00:17.000Z</time>
</trkpt>
<trkpt lat="45.9220900" lon="9.5823070">
	<ele>1153.80</ele>
	<time>2023-10-07T13:00:18.000Z</time>
</trkpt>
<trkpt lat="45.9220900" lon="9.5823070">
	<ele>1153.80</ele>
	<time>2023-10-07T13:00:19.000Z</time>
</trkpt>
<trkpt lat="45.9220900" lon="9.5823070">
	<ele>1153.80</ele>
	<time>2023-10-07T13:00:20.000Z</time>
</trkpt>
<trkpt lat="45.9220900" lon="9.5823070">
	<ele>1153.80</ele>
	<time>2023-10-07T13:00:21.000Z</time>
</trkpt>
<trkpt lat="45.9220900" lon="9.5823070">
	<ele>1153.80</ele>
	<time>2023-10-07T13:00:22.000Z</time>
</trkpt>
<trkpt lat="45.9220900" lon="9.5823070">
	<ele>1153.80</ele>
	<time>2023-10-07T13:00:23.000Z</time>
</trkpt>
<trkpt lat="45.9220900" lon="9.5823070">
	<ele>1153.80</ele>
	<time>2023-10-07T13:00:24.000Z</time>
</trkpt>
<trkpt lat="45.9220900" lon="9.5823070">
	<ele>1153.80</ele>
	<time>2023-10-07T13:00:25.000Z</time>
</trkpt>
<trkpt lat="45.9220900" lon="9.5823070">
	<ele>1153.80</ele>
	<time>2023-10-07T13:00:26.000Z</time>
</trkpt>
<trkpt lat="45.9220900" lon="9.5823070">
	<ele>1153.80</ele>
	<time>2023-10-07T13:00:27.000Z</time>
</trkpt>
<trkpt lat="45.9220900" lon="9.5823070">
	<ele>1153.60</ele>
	<time>2023-10-07T13:00:28.000Z</time>
</trkpt>
<trkpt lat="45.9220900" lon="9.5823070">
	<ele>1153.60</ele>
	<time>2023-10-07T13:00:29.000Z</time>
</trkpt>
<trkpt lat="45.9220930" lon="9.5823100">
	<ele>1153.60</ele>
	<time>2023-10-07T13:00:30.000Z</time>
</trkpt>
<trkpt lat="45.9220950" lon="9.5823180">
	<ele>1153.60</ele>
	<time>2023-10-07T13:00:31.000Z</time>
</trkpt>
<trkpt lat="45.9220990" lon="9.5823240">
	<ele>1153.40</ele>
	<time>2023-10-07T13:00:32.000Z</time>
</trkpt>
<trkpt lat="45.9221030" lon="9.5823380">
	<ele>1153.20</ele>
	<time>2023-10-07T13:00:33.000Z</time>
</trkpt>
<trkpt lat="45.9221100" lon="9.5823520">
	<ele>1153.20</ele>
	<time>2023-10-07T13:00:34.000Z</time>
</trkpt>
<trkpt lat="45.9221220" lon="9.5823660">
	<ele>1153.00</ele>
	<time>2023-10-07T13:00:35.000Z</time>
</trkpt>
<trkpt lat="45.9221320" lon="9.5823770">
	<ele>1153.00</ele>
	<time>2023-10-07T13:00:36.000Z</time>
</trkpt>
<trkpt lat="45.9221390" lon="9.5823840">
	<ele>1152.80</ele>
	<time>2023-10-07T13:00:37.000Z</time>
</trkpt>
<trkpt lat="45.9221510" lon="9.5823910">
	<ele>1152.60</ele>
	<time>2023-10-07T13:00:38.000Z</time>
</trkpt>
<trkpt lat="45.9221590" lon="9.5824000">
	<ele>1152.40</ele>
	<time>2023-10-07T13:00:39.000Z</time>
</trkpt>
<trkpt lat="45.9221620" lon="9.5824070">
	<ele>1152.20</ele>
	<time>2023-10-07T13:00:40.000Z</time>
</trkpt>
<trkpt lat="45.9221650" lon="9.5824120">
	<ele>1152.20</ele>
	<time>2023-10-07T13:00:41.000Z</time>
</trkpt>
<trkpt lat="45.9221710" lon="9.5824220">
	<ele>1152.00</ele>
	<time>2023-10-07T13:00:42.000Z</time>
</trkpt>
<trkpt lat="45.9221790" lon="9.5824390">
	<ele>1152.00</ele>
	<time>2023-10-07T13:00:43.000Z</time>
</trkpt>
<trkpt lat="45.9221820" lon="9.5824550">
	<ele>1151.80</ele>
	<time>2023-10-07T13:00:44.000Z</time>
</trkpt>
<trkpt lat="45.9221760" lon="9.5824700">
	<ele>1151.60</ele>
	<time>2023-10-07T13:00:45.000Z</time>
</trkpt>
<trkpt lat="45.9221700" lon="9.5824770">
	<ele>1151.60</ele>
	<time>2023-10-07T13:00:46.000Z</time>
</trkpt>
<trkpt lat="45.9221650" lon="9.5824840">
	<ele>1151.40</ele>
	<time>2023-10-07T13:00:47.000Z</time>
</trkpt>
<trkpt lat="45.9221650" lon="9.5824850">
	<ele>1151.40</ele>
	<time>2023-10-07T13:00:48.000Z</time>
</trkpt>
<trkpt lat="45.9221610" lon="9.5824810">
	<ele>1151.40</ele>
	<time>2023-10-07T13:00:49.000Z</time>
</trkpt>
<trkpt lat="45.9221590" lon="9.5824920">
	<ele>1151.60</ele>
	<time>2023-10-07T13:00:50.000Z</time>
</trkpt>
<trkpt lat="45.9221580" lon="9.5825000">
	<ele>1151.60</ele>
	<time>2023-10-07T13:00:51.000Z</time>
</trkpt>
<trkpt lat="45.9221550" lon="9.5825120">
	<ele>1151.60</ele>
	<time>2023-10-07T13:00:52.000Z</time>
</trkpt>
<trkpt lat="45.9221530" lon="9.5825230">
	<ele>1151.60</ele>
	<time>2023-10-07T13:00:53.000Z</time>
</trkpt>
<trkpt lat="45.9221500" lon="9.5825310">
	<ele>1151.60</ele>
	<time>2023-10-07T13:00:54.000Z</time>
</trkpt>
<trkpt lat="45.9221440" lon="9.5825460">
	<ele>1151.60</ele>
	<time>2023-10-07T13:00:55.000Z</time>
</trkpt>
<trkpt lat="45.9221370" lon="9.5825580">
	<ele>1151.60</ele>
	<time>2023-10-07T13:00:56.000Z</time>
</trkpt>
<trkpt lat="45.9221290" lon="9.5825680">
	<ele>1151.60</ele>
	<time>2023-10-07T13:00:57.000Z</time>
</trkpt>
<trkpt lat="45.9221230" lon="9.5825700">
	<ele>1151.60</ele>
	<time>2023-10-07T13:00:58.000Z</time>
</trkpt>
<trkpt lat="45.9221150" lon="9.5825750">
	<ele>1151.60</ele>
	<time>2023-10-07T13:00:59.000Z</time>
</trkpt>
<trkpt lat="45.9221080" lon="9.5825850">
	<ele>1151.40</ele>
	<time>2023-10-07T13:01:00.000Z</time>
</trkpt>
<trkpt lat="45.9220990" lon="9.5825930">
	<ele>1151.40</ele>
	<time>2023-10-07T13:01:01.000Z</time>
</trkpt>
<trkpt lat="45.9220890" lon="9.5825980">
	<ele>1151.40</ele>
	<time>2023-10-07T13:01:02.000Z</time>
</trkpt>
<trkpt lat="45.9220810" lon="9.5826020">
	<ele>1151.60</ele>
	<time>2023-10-07T13:01:03.000Z</time>
</trkpt>
</trkseg>
</trk>
</gpx>
